<?xml version="1.0" encoding="UTF-8" standalone="no" ?>
<gpx xmlns="http://www.topografix.com/GPX/1/1" xmlns:xsi="http://www.w3.org/2001/XMLSchema-instance" xsi:schemaLocation="http://www.topografix.com/GPX/1/1 http://www.topografix.com/GPX/1/1/gpx.xsd" version="1.1" creator="VisuGPX - https://www.visugpx.com">
  <metadata>
    <name>4 fils Aymon 2022_08_19</name>
  </metadata>
  <trk>
    <name><![CDATA[4 fils Aymon 2022_08_19_1]]></name>
    <trkseg>
      <trkpt lat="49.75374" lon="4.82153">
        <ele>209</ele>
        <time>2022-08-19T06:01:38.000Z</time>
      </trkpt>
      <trkpt lat="49.75374" lon="4.82153">
        <ele>209</ele>
        <time>2022-08-19T06:01:39.000Z</time>
      </trkpt>
      <trkpt lat="49.75374" lon="4.82152">
        <ele>208</ele>
        <time>2022-08-19T06:01:40.000Z</time>
      </trkpt>
      <trkpt lat="49.75374" lon="4.82151">
        <ele>208</ele>
        <time>2022-08-19T06:01:41.000Z</time>
      </trkpt>
      <trkpt lat="49.75375" lon="4.8215">
        <ele>206</ele>
        <time>2022-08-19T06:01:42.000Z</time>
      </trkpt>
      <trkpt lat="49.75375" lon="4.82149">
        <ele>205</ele>
        <time>2022-08-19T06:01:43.000Z</time>
      </trkpt>
      <trkpt lat="49.75376" lon="4.82148">
        <ele>203</ele>
        <time>2022-08-19T06:01:44.000Z</time>
      </trkpt>
      <trkpt lat="49.75378" lon="4.82148">
        <ele>202</ele>
        <time>2022-08-19T06:01:45.000Z</time>
      </trkpt>
      <trkpt lat="49.7538" lon="4.8215">
        <ele>201</ele>
        <time>2022-08-19T06:01:46.000Z</time>
      </trkpt>
      <trkpt lat="49.75384" lon="4.82152">
        <ele>200</ele>
        <time>2022-08-19T06:01:47.000Z</time>
      </trkpt>
      <trkpt lat="49.75388" lon="4.82155">
        <ele>199</ele>
        <time>2022-08-19T06:01:48.000Z</time>
      </trkpt>
      <trkpt lat="49.75393" lon="4.8216">
        <ele>198</ele>
        <time>2022-08-19T06:01:49.000Z</time>
      </trkpt>
      <trkpt lat="49.75398" lon="4.82165">
        <ele>197</ele>
        <time>2022-08-19T06:01:50.000Z</time>
      </trkpt>
      <trkpt lat="49.75403" lon="4.82169">
        <ele>196</ele>
        <time>2022-08-19T06:01:51.000Z</time>
      </trkpt>
      <trkpt lat="49.75409" lon="4.82173">
        <ele>196</ele>
        <time>2022-08-19T06:01:52.000Z</time>
      </trkpt>
      <trkpt lat="49.75415" lon="4.82178">
        <ele>195</ele>
        <time>2022-08-19T06:01:53.000Z</time>
      </trkpt>
      <trkpt lat="49.7542" lon="4.82184">
        <ele>195</ele>
        <time>2022-08-19T06:01:54.000Z</time>
      </trkpt>
      <trkpt lat="49.75425" lon="4.82191">
        <ele>195</ele>
        <time>2022-08-19T06:01:55.000Z</time>
      </trkpt>
      <trkpt lat="49.75429" lon="4.82197">
        <ele>194</ele>
        <time>2022-08-19T06:01:56.000Z</time>
      </trkpt>
      <trkpt lat="49.75435" lon="4.82201">
        <ele>194</ele>
        <time>2022-08-19T06:01:57.000Z</time>
      </trkpt>
      <trkpt lat="49.75441" lon="4.82203">
        <ele>193</ele>
        <time>2022-08-19T06:01:58.000Z</time>
      </trkpt>
      <trkpt lat="49.75447" lon="4.82206">
        <ele>193</ele>
        <time>2022-08-19T06:01:59.000Z</time>
      </trkpt>
      <trkpt lat="49.75453" lon="4.82211">
        <ele>193</ele>
        <time>2022-08-19T06:02:00.000Z</time>
      </trkpt>
      <trkpt lat="49.75458" lon="4.82217">
        <ele>192</ele>
        <time>2022-08-19T06:02:01.000Z</time>
      </trkpt>
      <trkpt lat="49.75463" lon="4.82223">
        <ele>192</ele>
        <time>2022-08-19T06:02:02.000Z</time>
      </trkpt>
      <trkpt lat="49.75468" lon="4.82229">
        <ele>192</ele>
        <time>2022-08-19T06:02:03.000Z</time>
      </trkpt>
      <trkpt lat="49.75473" lon="4.82236">
        <ele>191</ele>
        <time>2022-08-19T06:02:04.000Z</time>
      </trkpt>
      <trkpt lat="49.75478" lon="4.82241">
        <ele>191</ele>
        <time>2022-08-19T06:02:05.000Z</time>
      </trkpt>
      <trkpt lat="49.75484" lon="4.82247">
        <ele>191</ele>
        <time>2022-08-19T06:02:06.000Z</time>
      </trkpt>
      <trkpt lat="49.7549" lon="4.82252">
        <ele>191</ele>
        <time>2022-08-19T06:02:07.000Z</time>
      </trkpt>
      <trkpt lat="49.75495" lon="4.82257">
        <ele>191</ele>
        <time>2022-08-19T06:02:08.000Z</time>
      </trkpt>
      <trkpt lat="49.75501" lon="4.8226">
        <ele>191</ele>
        <time>2022-08-19T06:02:09.000Z</time>
      </trkpt>
      <trkpt lat="49.75507" lon="4.82264">
        <ele>191</ele>
        <time>2022-08-19T06:02:10.000Z</time>
      </trkpt>
      <trkpt lat="49.75513" lon="4.82268">
        <ele>191</ele>
        <time>2022-08-19T06:02:11.000Z</time>
      </trkpt>
      <trkpt lat="49.75519" lon="4.82271">
        <ele>191</ele>
        <time>2022-08-19T06:02:12.000Z</time>
      </trkpt>
      <trkpt lat="49.75524" lon="4.82274">
        <ele>191</ele>
        <time>2022-08-19T06:02:13.000Z</time>
      </trkpt>
      <trkpt lat="49.7553" lon="4.82275">
        <ele>191</ele>
        <time>2022-08-19T06:02:14.000Z</time>
      </trkpt>
      <trkpt lat="49.75535" lon="4.82275">
        <ele>191</ele>
        <time>2022-08-19T06:02:15.000Z</time>
      </trkpt>
      <trkpt lat="49.7554" lon="4.82273">
        <ele>191</ele>
        <time>2022-08-19T06:02:16.000Z</time>
      </trkpt>
      <trkpt lat="49.75544" lon="4.82269">
        <ele>191</ele>
        <time>2022-08-19T06:02:17.000Z</time>
      </trkpt>
      <trkpt lat="49.75548" lon="4.82265">
        <ele>191</ele>
        <time>2022-08-19T06:02:18.000Z</time>
      </trkpt>
      <trkpt lat="49.75551" lon="4.82262">
        <ele>191</ele>
        <time>2022-08-19T06:02:19.000Z</time>
      </trkpt>
      <trkpt lat="49.75553" lon="4.82258">
        <ele>191</ele>
        <time>2022-08-19T06:02:20.000Z</time>
      </trkpt>
      <trkpt lat="49.75553" lon="4.82254">
        <ele>191</ele>
        <time>2022-08-19T06:02:21.000Z</time>
      </trkpt>
      <trkpt lat="49.75549" lon="4.82248">
        <ele>191</ele>
        <time>2022-08-19T06:02:22.000Z</time>
      </trkpt>
      <trkpt lat="49.75546" lon="4.82241">
        <ele>191</ele>
        <time>2022-08-19T06:02:23.000Z</time>
      </trkpt>
      <trkpt lat="49.75542" lon="4.82234">
        <ele>191</ele>
        <time>2022-08-19T06:02:24.000Z</time>
      </trkpt>
      <trkpt lat="49.75538" lon="4.82227">
        <ele>191</ele>
        <time>2022-08-19T06:02:25.000Z</time>
      </trkpt>
      <trkpt lat="49.75534" lon="4.8222">
        <ele>191</ele>
        <time>2022-08-19T06:02:26.000Z</time>
      </trkpt>
      <trkpt lat="49.7553" lon="4.82212">
        <ele>191</ele>
        <time>2022-08-19T06:02:27.000Z</time>
      </trkpt>
      <trkpt lat="49.75527" lon="4.82205">
        <ele>191</ele>
        <time>2022-08-19T06:02:28.000Z</time>
      </trkpt>
      <trkpt lat="49.75523" lon="4.82198">
        <ele>191</ele>
        <time>2022-08-19T06:02:29.000Z</time>
      </trkpt>
      <trkpt lat="49.7552" lon="4.82191">
        <ele>191</ele>
        <time>2022-08-19T06:02:30.000Z</time>
      </trkpt>
      <trkpt lat="49.75516" lon="4.82184">
        <ele>191</ele>
        <time>2022-08-19T06:02:31.000Z</time>
      </trkpt>
      <trkpt lat="49.75513" lon="4.82178">
        <ele>191</ele>
        <time>2022-08-19T06:02:32.000Z</time>
      </trkpt>
      <trkpt lat="49.75509" lon="4.82171">
        <ele>191</ele>
        <time>2022-08-19T06:02:33.000Z</time>
      </trkpt>
      <trkpt lat="49.75505" lon="4.82165">
        <ele>191</ele>
        <time>2022-08-19T06:02:34.000Z</time>
      </trkpt>
      <trkpt lat="49.75501" lon="4.82158">
        <ele>191</ele>
        <time>2022-08-19T06:02:35.000Z</time>
      </trkpt>
      <trkpt lat="49.75498" lon="4.82152">
        <ele>191</ele>
        <time>2022-08-19T06:02:36.000Z</time>
      </trkpt>
      <trkpt lat="49.75494" lon="4.82146">
        <ele>191</ele>
        <time>2022-08-19T06:02:37.000Z</time>
      </trkpt>
      <trkpt lat="49.7549" lon="4.82139">
        <ele>191</ele>
        <time>2022-08-19T06:02:38.000Z</time>
      </trkpt>
      <trkpt lat="49.75486" lon="4.82133">
        <ele>191</ele>
        <time>2022-08-19T06:02:39.000Z</time>
      </trkpt>
      <trkpt lat="49.75482" lon="4.82127">
        <ele>191</ele>
        <time>2022-08-19T06:02:40.000Z</time>
      </trkpt>
      <trkpt lat="49.75478" lon="4.82121">
        <ele>191</ele>
        <time>2022-08-19T06:02:41.000Z</time>
      </trkpt>
      <trkpt lat="49.75474" lon="4.82115">
        <ele>192</ele>
        <time>2022-08-19T06:02:42.000Z</time>
      </trkpt>
      <trkpt lat="49.75471" lon="4.82109">
        <ele>192</ele>
        <time>2022-08-19T06:02:43.000Z</time>
      </trkpt>
      <trkpt lat="49.75467" lon="4.82104">
        <ele>192</ele>
        <time>2022-08-19T06:02:44.000Z</time>
      </trkpt>
      <trkpt lat="49.75462" lon="4.821">
        <ele>192</ele>
        <time>2022-08-19T06:02:45.000Z</time>
      </trkpt>
      <trkpt lat="49.75458" lon="4.82095">
        <ele>192</ele>
        <time>2022-08-19T06:02:46.000Z</time>
      </trkpt>
      <trkpt lat="49.75454" lon="4.82091">
        <ele>192</ele>
        <time>2022-08-19T06:02:47.000Z</time>
      </trkpt>
      <trkpt lat="49.75449" lon="4.82087">
        <ele>192</ele>
        <time>2022-08-19T06:02:48.000Z</time>
      </trkpt>
      <trkpt lat="49.75445" lon="4.82083">
        <ele>192</ele>
        <time>2022-08-19T06:02:49.000Z</time>
      </trkpt>
      <trkpt lat="49.7544" lon="4.82078">
        <ele>192</ele>
        <time>2022-08-19T06:02:50.000Z</time>
      </trkpt>
      <trkpt lat="49.75435" lon="4.82073">
        <ele>192</ele>
        <time>2022-08-19T06:02:51.000Z</time>
      </trkpt>
      <trkpt lat="49.7543" lon="4.82068">
        <ele>192</ele>
        <time>2022-08-19T06:02:52.000Z</time>
      </trkpt>
      <trkpt lat="49.75425" lon="4.82063">
        <ele>192</ele>
        <time>2022-08-19T06:02:53.000Z</time>
      </trkpt>
      <trkpt lat="49.7542" lon="4.82058">
        <ele>192</ele>
        <time>2022-08-19T06:02:54.000Z</time>
      </trkpt>
      <trkpt lat="49.75415" lon="4.82053">
        <ele>192</ele>
        <time>2022-08-19T06:02:55.000Z</time>
      </trkpt>
      <trkpt lat="49.7541" lon="4.82049">
        <ele>192</ele>
        <time>2022-08-19T06:02:56.000Z</time>
      </trkpt>
      <trkpt lat="49.75405" lon="4.82044">
        <ele>192</ele>
        <time>2022-08-19T06:02:57.000Z</time>
      </trkpt>
      <trkpt lat="49.754" lon="4.82039">
        <ele>192</ele>
        <time>2022-08-19T06:02:58.000Z</time>
      </trkpt>
      <trkpt lat="49.75395" lon="4.82035">
        <ele>191</ele>
        <time>2022-08-19T06:02:59.000Z</time>
      </trkpt>
      <trkpt lat="49.7539" lon="4.82031">
        <ele>191</ele>
        <time>2022-08-19T06:03:00.000Z</time>
      </trkpt>
      <trkpt lat="49.75385" lon="4.82028">
        <ele>192</ele>
        <time>2022-08-19T06:03:01.000Z</time>
      </trkpt>
      <trkpt lat="49.7538" lon="4.82024">
        <ele>192</ele>
        <time>2022-08-19T06:03:02.000Z</time>
      </trkpt>
      <trkpt lat="49.75376" lon="4.82022">
        <ele>192</ele>
        <time>2022-08-19T06:03:03.000Z</time>
      </trkpt>
      <trkpt lat="49.75371" lon="4.8202">
        <ele>192</ele>
        <time>2022-08-19T06:03:04.000Z</time>
      </trkpt>
      <trkpt lat="49.75366" lon="4.82017">
        <ele>192</ele>
        <time>2022-08-19T06:03:05.000Z</time>
      </trkpt>
      <trkpt lat="49.75361" lon="4.82015">
        <ele>192</ele>
        <time>2022-08-19T06:03:06.000Z</time>
      </trkpt>
      <trkpt lat="49.75356" lon="4.82012">
        <ele>192</ele>
        <time>2022-08-19T06:03:07.000Z</time>
      </trkpt>
      <trkpt lat="49.75352" lon="4.82009">
        <ele>192</ele>
        <time>2022-08-19T06:03:08.000Z</time>
      </trkpt>
      <trkpt lat="49.75347" lon="4.82006">
        <ele>192</ele>
        <time>2022-08-19T06:03:09.000Z</time>
      </trkpt>
      <trkpt lat="49.75343" lon="4.82003">
        <ele>192</ele>
        <time>2022-08-19T06:03:10.000Z</time>
      </trkpt>
      <trkpt lat="49.75339" lon="4.82001">
        <ele>192</ele>
        <time>2022-08-19T06:03:11.000Z</time>
      </trkpt>
      <trkpt lat="49.75335" lon="4.81999">
        <ele>192</ele>
        <time>2022-08-19T06:03:12.000Z</time>
      </trkpt>
      <trkpt lat="49.7533" lon="4.81996">
        <ele>192</ele>
        <time>2022-08-19T06:03:13.000Z</time>
      </trkpt>
      <trkpt lat="49.75326" lon="4.81993">
        <ele>192</ele>
        <time>2022-08-19T06:03:14.000Z</time>
      </trkpt>
      <trkpt lat="49.75322" lon="4.8199">
        <ele>192</ele>
        <time>2022-08-19T06:03:15.000Z</time>
      </trkpt>
      <trkpt lat="49.75319" lon="4.81988">
        <ele>192</ele>
        <time>2022-08-19T06:03:16.000Z</time>
      </trkpt>
      <trkpt lat="49.75315" lon="4.81986">
        <ele>192</ele>
        <time>2022-08-19T06:03:17.000Z</time>
      </trkpt>
      <trkpt lat="49.75312" lon="4.81983">
        <ele>192</ele>
        <time>2022-08-19T06:03:18.000Z</time>
      </trkpt>
      <trkpt lat="49.75308" lon="4.81981">
        <ele>192</ele>
        <time>2022-08-19T06:03:19.000Z</time>
      </trkpt>
      <trkpt lat="49.75305" lon="4.81979">
        <ele>192</ele>
        <time>2022-08-19T06:03:20.000Z</time>
      </trkpt>
      <trkpt lat="49.75302" lon="4.81977">
        <ele>192</ele>
        <time>2022-08-19T06:03:21.000Z</time>
      </trkpt>
      <trkpt lat="49.75299" lon="4.81975">
        <ele>192</ele>
        <time>2022-08-19T06:03:22.000Z</time>
      </trkpt>
      <trkpt lat="49.75297" lon="4.81973">
        <ele>192</ele>
        <time>2022-08-19T06:03:23.000Z</time>
      </trkpt>
      <trkpt lat="49.75294" lon="4.81971">
        <ele>192</ele>
        <time>2022-08-19T06:03:24.000Z</time>
      </trkpt>
      <trkpt lat="49.75291" lon="4.81969">
        <ele>192</ele>
        <time>2022-08-19T06:03:25.000Z</time>
      </trkpt>
      <trkpt lat="49.75288" lon="4.81966">
        <ele>192</ele>
        <time>2022-08-19T06:03:26.000Z</time>
      </trkpt>
      <trkpt lat="49.75285" lon="4.81964">
        <ele>193</ele>
        <time>2022-08-19T06:03:27.000Z</time>
      </trkpt>
      <trkpt lat="49.75282" lon="4.81962">
        <ele>193</ele>
        <time>2022-08-19T06:03:28.000Z</time>
      </trkpt>
      <trkpt lat="49.75279" lon="4.81959">
        <ele>193</ele>
        <time>2022-08-19T06:03:29.000Z</time>
      </trkpt>
      <trkpt lat="49.75276" lon="4.81957">
        <ele>193</ele>
        <time>2022-08-19T06:03:30.000Z</time>
      </trkpt>
      <trkpt lat="49.75273" lon="4.81955">
        <ele>193</ele>
        <time>2022-08-19T06:03:31.000Z</time>
      </trkpt>
      <trkpt lat="49.75271" lon="4.81952">
        <ele>193</ele>
        <time>2022-08-19T06:03:32.000Z</time>
      </trkpt>
      <trkpt lat="49.75268" lon="4.8195">
        <ele>193</ele>
        <time>2022-08-19T06:03:33.000Z</time>
      </trkpt>
      <trkpt lat="49.75265" lon="4.81947">
        <ele>194</ele>
        <time>2022-08-19T06:03:34.000Z</time>
      </trkpt>
      <trkpt lat="49.75263" lon="4.81944">
        <ele>194</ele>
        <time>2022-08-19T06:03:35.000Z</time>
      </trkpt>
      <trkpt lat="49.7526" lon="4.81941">
        <ele>194</ele>
        <time>2022-08-19T06:03:36.000Z</time>
      </trkpt>
      <trkpt lat="49.75257" lon="4.81938">
        <ele>194</ele>
        <time>2022-08-19T06:03:37.000Z</time>
      </trkpt>
      <trkpt lat="49.75255" lon="4.81934">
        <ele>194</ele>
        <time>2022-08-19T06:03:38.000Z</time>
      </trkpt>
      <trkpt lat="49.75253" lon="4.8193">
        <ele>194</ele>
        <time>2022-08-19T06:03:39.000Z</time>
      </trkpt>
      <trkpt lat="49.75251" lon="4.81926">
        <ele>194</ele>
        <time>2022-08-19T06:03:40.000Z</time>
      </trkpt>
      <trkpt lat="49.75248" lon="4.81922">
        <ele>194</ele>
        <time>2022-08-19T06:03:41.000Z</time>
      </trkpt>
      <trkpt lat="49.75246" lon="4.81918">
        <ele>195</ele>
        <time>2022-08-19T06:03:42.000Z</time>
      </trkpt>
      <trkpt lat="49.75243" lon="4.81914">
        <ele>195</ele>
        <time>2022-08-19T06:03:43.000Z</time>
      </trkpt>
      <trkpt lat="49.7524" lon="4.81911">
        <ele>195</ele>
        <time>2022-08-19T06:03:44.000Z</time>
      </trkpt>
      <trkpt lat="49.75237" lon="4.81907">
        <ele>195</ele>
        <time>2022-08-19T06:03:45.000Z</time>
      </trkpt>
      <trkpt lat="49.75233" lon="4.81904">
        <ele>195</ele>
        <time>2022-08-19T06:03:46.000Z</time>
      </trkpt>
      <trkpt lat="49.7523" lon="4.819">
        <ele>195</ele>
        <time>2022-08-19T06:03:47.000Z</time>
      </trkpt>
      <trkpt lat="49.75227" lon="4.81896">
        <ele>195</ele>
        <time>2022-08-19T06:03:48.000Z</time>
      </trkpt>
      <trkpt lat="49.75224" lon="4.81892">
        <ele>195</ele>
        <time>2022-08-19T06:03:49.000Z</time>
      </trkpt>
      <trkpt lat="49.75221" lon="4.81888">
        <ele>195</ele>
        <time>2022-08-19T06:03:50.000Z</time>
      </trkpt>
      <trkpt lat="49.75218" lon="4.81884">
        <ele>196</ele>
        <time>2022-08-19T06:03:51.000Z</time>
      </trkpt>
      <trkpt lat="49.75215" lon="4.8188">
        <ele>196</ele>
        <time>2022-08-19T06:03:52.000Z</time>
      </trkpt>
      <trkpt lat="49.75212" lon="4.81876">
        <ele>196</ele>
        <time>2022-08-19T06:03:53.000Z</time>
      </trkpt>
      <trkpt lat="49.75209" lon="4.81872">
        <ele>196</ele>
        <time>2022-08-19T06:03:54.000Z</time>
      </trkpt>
      <trkpt lat="49.75205" lon="4.81868">
        <ele>196</ele>
        <time>2022-08-19T06:03:55.000Z</time>
      </trkpt>
      <trkpt lat="49.75202" lon="4.81864">
        <ele>196</ele>
        <time>2022-08-19T06:03:56.000Z</time>
      </trkpt>
      <trkpt lat="49.75199" lon="4.81859">
        <ele>196</ele>
        <time>2022-08-19T06:03:57.000Z</time>
      </trkpt>
      <trkpt lat="49.75197" lon="4.81855">
        <ele>196</ele>
        <time>2022-08-19T06:03:58.000Z</time>
      </trkpt>
      <trkpt lat="49.75194" lon="4.8185">
        <ele>197</ele>
        <time>2022-08-19T06:03:59.000Z</time>
      </trkpt>
      <trkpt lat="49.75191" lon="4.81846">
        <ele>197</ele>
        <time>2022-08-19T06:04:00.000Z</time>
      </trkpt>
      <trkpt lat="49.75188" lon="4.81841">
        <ele>197</ele>
        <time>2022-08-19T06:04:01.000Z</time>
      </trkpt>
      <trkpt lat="49.75185" lon="4.81836">
        <ele>197</ele>
        <time>2022-08-19T06:04:02.000Z</time>
      </trkpt>
      <trkpt lat="49.75182" lon="4.81831">
        <ele>197</ele>
        <time>2022-08-19T06:04:03.000Z</time>
      </trkpt>
      <trkpt lat="49.75179" lon="4.81827">
        <ele>197</ele>
        <time>2022-08-19T06:04:04.000Z</time>
      </trkpt>
      <trkpt lat="49.75176" lon="4.81822">
        <ele>197</ele>
        <time>2022-08-19T06:04:05.000Z</time>
      </trkpt>
      <trkpt lat="49.75173" lon="4.81817">
        <ele>198</ele>
        <time>2022-08-19T06:04:06.000Z</time>
      </trkpt>
      <trkpt lat="49.7517" lon="4.81813">
        <ele>198</ele>
        <time>2022-08-19T06:04:07.000Z</time>
      </trkpt>
      <trkpt lat="49.75167" lon="4.81808">
        <ele>198</ele>
        <time>2022-08-19T06:04:08.000Z</time>
      </trkpt>
      <trkpt lat="49.75164" lon="4.81804">
        <ele>198</ele>
        <time>2022-08-19T06:04:09.000Z</time>
      </trkpt>
      <trkpt lat="49.75162" lon="4.81799">
        <ele>198</ele>
        <time>2022-08-19T06:04:10.000Z</time>
      </trkpt>
      <trkpt lat="49.75159" lon="4.81794">
        <ele>198</ele>
        <time>2022-08-19T06:04:11.000Z</time>
      </trkpt>
      <trkpt lat="49.75157" lon="4.81789">
        <ele>198</ele>
        <time>2022-08-19T06:04:12.000Z</time>
      </trkpt>
      <trkpt lat="49.75154" lon="4.81784">
        <ele>198</ele>
        <time>2022-08-19T06:04:13.000Z</time>
      </trkpt>
      <trkpt lat="49.75151" lon="4.81779">
        <ele>198</ele>
        <time>2022-08-19T06:04:14.000Z</time>
      </trkpt>
      <trkpt lat="49.75148" lon="4.81774">
        <ele>198</ele>
        <time>2022-08-19T06:04:15.000Z</time>
      </trkpt>
      <trkpt lat="49.75145" lon="4.81769">
        <ele>198</ele>
        <time>2022-08-19T06:04:16.000Z</time>
      </trkpt>
      <trkpt lat="49.75142" lon="4.81764">
        <ele>198</ele>
        <time>2022-08-19T06:04:17.000Z</time>
      </trkpt>
      <trkpt lat="49.75139" lon="4.81757">
        <ele>198</ele>
        <time>2022-08-19T06:04:18.000Z</time>
      </trkpt>
      <trkpt lat="49.75137" lon="4.81751">
        <ele>198</ele>
        <time>2022-08-19T06:04:19.000Z</time>
      </trkpt>
      <trkpt lat="49.75135" lon="4.81744">
        <ele>199</ele>
        <time>2022-08-19T06:04:20.000Z</time>
      </trkpt>
      <trkpt lat="49.75133" lon="4.81738">
        <ele>199</ele>
        <time>2022-08-19T06:04:21.000Z</time>
      </trkpt>
      <trkpt lat="49.7513" lon="4.81731">
        <ele>199</ele>
        <time>2022-08-19T06:04:22.000Z</time>
      </trkpt>
      <trkpt lat="49.75128" lon="4.81725">
        <ele>199</ele>
        <time>2022-08-19T06:04:23.000Z</time>
      </trkpt>
      <trkpt lat="49.75126" lon="4.81718">
        <ele>199</ele>
        <time>2022-08-19T06:04:24.000Z</time>
      </trkpt>
      <trkpt lat="49.75123" lon="4.81712">
        <ele>199</ele>
        <time>2022-08-19T06:04:25.000Z</time>
      </trkpt>
      <trkpt lat="49.75121" lon="4.81705">
        <ele>199</ele>
        <time>2022-08-19T06:04:26.000Z</time>
      </trkpt>
      <trkpt lat="49.75119" lon="4.81699">
        <ele>199</ele>
        <time>2022-08-19T06:04:27.000Z</time>
      </trkpt>
      <trkpt lat="49.75117" lon="4.81692">
        <ele>199</ele>
        <time>2022-08-19T06:04:28.000Z</time>
      </trkpt>
      <trkpt lat="49.75116" lon="4.81685">
        <ele>200</ele>
        <time>2022-08-19T06:04:29.000Z</time>
      </trkpt>
      <trkpt lat="49.75115" lon="4.81678">
        <ele>200</ele>
        <time>2022-08-19T06:04:30.000Z</time>
      </trkpt>
      <trkpt lat="49.75114" lon="4.81671">
        <ele>200</ele>
        <time>2022-08-19T06:04:31.000Z</time>
      </trkpt>
      <trkpt lat="49.75113" lon="4.81663">
        <ele>200</ele>
        <time>2022-08-19T06:04:32.000Z</time>
      </trkpt>
      <trkpt lat="49.75113" lon="4.81656">
        <ele>200</ele>
        <time>2022-08-19T06:04:33.000Z</time>
      </trkpt>
      <trkpt lat="49.75113" lon="4.81649">
        <ele>200</ele>
        <time>2022-08-19T06:04:34.000Z</time>
      </trkpt>
      <trkpt lat="49.75113" lon="4.81641">
        <ele>200</ele>
        <time>2022-08-19T06:04:35.000Z</time>
      </trkpt>
      <trkpt lat="49.75112" lon="4.81634">
        <ele>200</ele>
        <time>2022-08-19T06:04:36.000Z</time>
      </trkpt>
      <trkpt lat="49.75112" lon="4.81626">
        <ele>200</ele>
        <time>2022-08-19T06:04:37.000Z</time>
      </trkpt>
      <trkpt lat="49.75112" lon="4.81619">
        <ele>201</ele>
        <time>2022-08-19T06:04:38.000Z</time>
      </trkpt>
      <trkpt lat="49.75112" lon="4.81611">
        <ele>201</ele>
        <time>2022-08-19T06:04:39.000Z</time>
      </trkpt>
      <trkpt lat="49.75112" lon="4.81603">
        <ele>201</ele>
        <time>2022-08-19T06:04:40.000Z</time>
      </trkpt>
      <trkpt lat="49.75112" lon="4.81596">
        <ele>201</ele>
        <time>2022-08-19T06:04:41.000Z</time>
      </trkpt>
      <trkpt lat="49.75112" lon="4.81589">
        <ele>201</ele>
        <time>2022-08-19T06:04:42.000Z</time>
      </trkpt>
      <trkpt lat="49.75112" lon="4.81581">
        <ele>201</ele>
        <time>2022-08-19T06:04:43.000Z</time>
      </trkpt>
      <trkpt lat="49.75113" lon="4.81574">
        <ele>201</ele>
        <time>2022-08-19T06:04:44.000Z</time>
      </trkpt>
      <trkpt lat="49.75114" lon="4.81567">
        <ele>201</ele>
        <time>2022-08-19T06:04:45.000Z</time>
      </trkpt>
      <trkpt lat="49.75114" lon="4.8156">
        <ele>201</ele>
        <time>2022-08-19T06:04:46.000Z</time>
      </trkpt>
      <trkpt lat="49.75115" lon="4.81553">
        <ele>201</ele>
        <time>2022-08-19T06:04:47.000Z</time>
      </trkpt>
      <trkpt lat="49.75116" lon="4.81545">
        <ele>201</ele>
        <time>2022-08-19T06:04:48.000Z</time>
      </trkpt>
      <trkpt lat="49.75118" lon="4.81538">
        <ele>201</ele>
        <time>2022-08-19T06:04:49.000Z</time>
      </trkpt>
      <trkpt lat="49.75119" lon="4.8153">
        <ele>201</ele>
        <time>2022-08-19T06:04:50.000Z</time>
      </trkpt>
      <trkpt lat="49.7512" lon="4.81523">
        <ele>201</ele>
        <time>2022-08-19T06:04:51.000Z</time>
      </trkpt>
      <trkpt lat="49.75122" lon="4.81515">
        <ele>202</ele>
        <time>2022-08-19T06:04:52.000Z</time>
      </trkpt>
      <trkpt lat="49.75124" lon="4.81508">
        <ele>202</ele>
        <time>2022-08-19T06:04:53.000Z</time>
      </trkpt>
      <trkpt lat="49.75125" lon="4.81501">
        <ele>202</ele>
        <time>2022-08-19T06:04:54.000Z</time>
      </trkpt>
      <trkpt lat="49.75127" lon="4.81494">
        <ele>202</ele>
        <time>2022-08-19T06:04:55.000Z</time>
      </trkpt>
      <trkpt lat="49.75129" lon="4.81487">
        <ele>202</ele>
        <time>2022-08-19T06:04:56.000Z</time>
      </trkpt>
      <trkpt lat="49.75131" lon="4.8148">
        <ele>202</ele>
        <time>2022-08-19T06:04:57.000Z</time>
      </trkpt>
      <trkpt lat="49.75132" lon="4.81474">
        <ele>202</ele>
        <time>2022-08-19T06:04:58.000Z</time>
      </trkpt>
      <trkpt lat="49.75134" lon="4.81468">
        <ele>202</ele>
        <time>2022-08-19T06:04:59.000Z</time>
      </trkpt>
      <trkpt lat="49.75135" lon="4.81462">
        <ele>202</ele>
        <time>2022-08-19T06:05:00.000Z</time>
      </trkpt>
      <trkpt lat="49.75137" lon="4.81457">
        <ele>202</ele>
        <time>2022-08-19T06:05:01.000Z</time>
      </trkpt>
      <trkpt lat="49.75138" lon="4.81451">
        <ele>202</ele>
        <time>2022-08-19T06:05:02.000Z</time>
      </trkpt>
      <trkpt lat="49.75139" lon="4.81445">
        <ele>202</ele>
        <time>2022-08-19T06:05:03.000Z</time>
      </trkpt>
      <trkpt lat="49.75139" lon="4.81439">
        <ele>202</ele>
        <time>2022-08-19T06:05:04.000Z</time>
      </trkpt>
      <trkpt lat="49.7514" lon="4.81432">
        <ele>203</ele>
        <time>2022-08-19T06:05:05.000Z</time>
      </trkpt>
      <trkpt lat="49.7514" lon="4.81426">
        <ele>203</ele>
        <time>2022-08-19T06:05:06.000Z</time>
      </trkpt>
      <trkpt lat="49.75141" lon="4.8142">
        <ele>203</ele>
        <time>2022-08-19T06:05:07.000Z</time>
      </trkpt>
      <trkpt lat="49.75141" lon="4.81415">
        <ele>203</ele>
        <time>2022-08-19T06:05:08.000Z</time>
      </trkpt>
      <trkpt lat="49.75141" lon="4.8141">
        <ele>203</ele>
        <time>2022-08-19T06:05:09.000Z</time>
      </trkpt>
      <trkpt lat="49.75142" lon="4.81405">
        <ele>203</ele>
        <time>2022-08-19T06:05:10.000Z</time>
      </trkpt>
      <trkpt lat="49.75142" lon="4.814">
        <ele>203</ele>
        <time>2022-08-19T06:05:11.000Z</time>
      </trkpt>
      <trkpt lat="49.75143" lon="4.81395">
        <ele>203</ele>
        <time>2022-08-19T06:05:12.000Z</time>
      </trkpt>
      <trkpt lat="49.75143" lon="4.8139">
        <ele>203</ele>
        <time>2022-08-19T06:05:13.000Z</time>
      </trkpt>
      <trkpt lat="49.75144" lon="4.81384">
        <ele>203</ele>
        <time>2022-08-19T06:05:14.000Z</time>
      </trkpt>
      <trkpt lat="49.75144" lon="4.81379">
        <ele>203</ele>
        <time>2022-08-19T06:05:15.000Z</time>
      </trkpt>
      <trkpt lat="49.75145" lon="4.81374">
        <ele>203</ele>
        <time>2022-08-19T06:05:16.000Z</time>
      </trkpt>
      <trkpt lat="49.75145" lon="4.8137">
        <ele>204</ele>
        <time>2022-08-19T06:05:17.000Z</time>
      </trkpt>
      <trkpt lat="49.75146" lon="4.81365">
        <ele>204</ele>
        <time>2022-08-19T06:05:18.000Z</time>
      </trkpt>
      <trkpt lat="49.75146" lon="4.81361">
        <ele>204</ele>
        <time>2022-08-19T06:05:19.000Z</time>
      </trkpt>
      <trkpt lat="49.75147" lon="4.81357">
        <ele>204</ele>
        <time>2022-08-19T06:05:20.000Z</time>
      </trkpt>
      <trkpt lat="49.75147" lon="4.81352">
        <ele>204</ele>
        <time>2022-08-19T06:05:21.000Z</time>
      </trkpt>
      <trkpt lat="49.75147" lon="4.81348">
        <ele>205</ele>
        <time>2022-08-19T06:05:22.000Z</time>
      </trkpt>
      <trkpt lat="49.75148" lon="4.81343">
        <ele>205</ele>
        <time>2022-08-19T06:05:23.000Z</time>
      </trkpt>
      <trkpt lat="49.75148" lon="4.81339">
        <ele>205</ele>
        <time>2022-08-19T06:05:24.000Z</time>
      </trkpt>
      <trkpt lat="49.75147" lon="4.81334">
        <ele>206</ele>
        <time>2022-08-19T06:05:25.000Z</time>
      </trkpt>
      <trkpt lat="49.75147" lon="4.8133">
        <ele>206</ele>
        <time>2022-08-19T06:05:26.000Z</time>
      </trkpt>
      <trkpt lat="49.75147" lon="4.81325">
        <ele>206</ele>
        <time>2022-08-19T06:05:27.000Z</time>
      </trkpt>
      <trkpt lat="49.75147" lon="4.81321">
        <ele>207</ele>
        <time>2022-08-19T06:05:28.000Z</time>
      </trkpt>
      <trkpt lat="49.75146" lon="4.81316">
        <ele>207</ele>
        <time>2022-08-19T06:05:29.000Z</time>
      </trkpt>
      <trkpt lat="49.75146" lon="4.81312">
        <ele>207</ele>
        <time>2022-08-19T06:05:30.000Z</time>
      </trkpt>
      <trkpt lat="49.75146" lon="4.81307">
        <ele>207</ele>
        <time>2022-08-19T06:05:31.000Z</time>
      </trkpt>
      <trkpt lat="49.75145" lon="4.81303">
        <ele>208</ele>
        <time>2022-08-19T06:05:32.000Z</time>
      </trkpt>
      <trkpt lat="49.75144" lon="4.81299">
        <ele>208</ele>
        <time>2022-08-19T06:05:33.000Z</time>
      </trkpt>
      <trkpt lat="49.75144" lon="4.81296">
        <ele>208</ele>
        <time>2022-08-19T06:05:34.000Z</time>
      </trkpt>
      <trkpt lat="49.75143" lon="4.81292">
        <ele>209</ele>
        <time>2022-08-19T06:05:35.000Z</time>
      </trkpt>
      <trkpt lat="49.75143" lon="4.81289">
        <ele>209</ele>
        <time>2022-08-19T06:05:36.000Z</time>
      </trkpt>
      <trkpt lat="49.75142" lon="4.81286">
        <ele>209</ele>
        <time>2022-08-19T06:05:37.000Z</time>
      </trkpt>
      <trkpt lat="49.75141" lon="4.81283">
        <ele>210</ele>
        <time>2022-08-19T06:05:38.000Z</time>
      </trkpt>
      <trkpt lat="49.7514" lon="4.81279">
        <ele>210</ele>
        <time>2022-08-19T06:05:39.000Z</time>
      </trkpt>
      <trkpt lat="49.75139" lon="4.81275">
        <ele>210</ele>
        <time>2022-08-19T06:05:40.000Z</time>
      </trkpt>
      <trkpt lat="49.75138" lon="4.81272">
        <ele>210</ele>
        <time>2022-08-19T06:05:41.000Z</time>
      </trkpt>
      <trkpt lat="49.75138" lon="4.81268">
        <ele>211</ele>
        <time>2022-08-19T06:05:42.000Z</time>
      </trkpt>
      <trkpt lat="49.75138" lon="4.81264">
        <ele>211</ele>
        <time>2022-08-19T06:05:43.000Z</time>
      </trkpt>
      <trkpt lat="49.75137" lon="4.8126">
        <ele>211</ele>
        <time>2022-08-19T06:05:44.000Z</time>
      </trkpt>
      <trkpt lat="49.75136" lon="4.81256">
        <ele>211</ele>
        <time>2022-08-19T06:05:45.000Z</time>
      </trkpt>
      <trkpt lat="49.75135" lon="4.81253">
        <ele>211</ele>
        <time>2022-08-19T06:05:46.000Z</time>
      </trkpt>
      <trkpt lat="49.75134" lon="4.81249">
        <ele>211</ele>
        <time>2022-08-19T06:05:47.000Z</time>
      </trkpt>
      <trkpt lat="49.75133" lon="4.81246">
        <ele>211</ele>
        <time>2022-08-19T06:05:48.000Z</time>
      </trkpt>
      <trkpt lat="49.75133" lon="4.81243">
        <ele>211</ele>
        <time>2022-08-19T06:05:49.000Z</time>
      </trkpt>
      <trkpt lat="49.75131" lon="4.81239">
        <ele>211</ele>
        <time>2022-08-19T06:05:50.000Z</time>
      </trkpt>
      <trkpt lat="49.7513" lon="4.81236">
        <ele>211</ele>
        <time>2022-08-19T06:05:51.000Z</time>
      </trkpt>
      <trkpt lat="49.75129" lon="4.81232">
        <ele>211</ele>
        <time>2022-08-19T06:05:52.000Z</time>
      </trkpt>
      <trkpt lat="49.75128" lon="4.81228">
        <ele>211</ele>
        <time>2022-08-19T06:05:53.000Z</time>
      </trkpt>
      <trkpt lat="49.75127" lon="4.81225">
        <ele>212</ele>
        <time>2022-08-19T06:05:54.000Z</time>
      </trkpt>
      <trkpt lat="49.75127" lon="4.81221">
        <ele>212</ele>
        <time>2022-08-19T06:05:55.000Z</time>
      </trkpt>
      <trkpt lat="49.75126" lon="4.81218">
        <ele>212</ele>
        <time>2022-08-19T06:05:56.000Z</time>
      </trkpt>
      <trkpt lat="49.75125" lon="4.81215">
        <ele>212</ele>
        <time>2022-08-19T06:05:57.000Z</time>
      </trkpt>
      <trkpt lat="49.75125" lon="4.81211">
        <ele>212</ele>
        <time>2022-08-19T06:05:58.000Z</time>
      </trkpt>
      <trkpt lat="49.75124" lon="4.81207">
        <ele>212</ele>
        <time>2022-08-19T06:05:59.000Z</time>
      </trkpt>
      <trkpt lat="49.75124" lon="4.81202">
        <ele>212</ele>
        <time>2022-08-19T06:06:00.000Z</time>
      </trkpt>
      <trkpt lat="49.75123" lon="4.81198">
        <ele>212</ele>
        <time>2022-08-19T06:06:01.000Z</time>
      </trkpt>
      <trkpt lat="49.75122" lon="4.81194">
        <ele>212</ele>
        <time>2022-08-19T06:06:02.000Z</time>
      </trkpt>
      <trkpt lat="49.75121" lon="4.8119">
        <ele>212</ele>
        <time>2022-08-19T06:06:03.000Z</time>
      </trkpt>
      <trkpt lat="49.75121" lon="4.81185">
        <ele>212</ele>
        <time>2022-08-19T06:06:04.000Z</time>
      </trkpt>
      <trkpt lat="49.7512" lon="4.81181">
        <ele>212</ele>
        <time>2022-08-19T06:06:05.000Z</time>
      </trkpt>
      <trkpt lat="49.7512" lon="4.81177">
        <ele>212</ele>
        <time>2022-08-19T06:06:06.000Z</time>
      </trkpt>
      <trkpt lat="49.75119" lon="4.81173">
        <ele>212</ele>
        <time>2022-08-19T06:06:07.000Z</time>
      </trkpt>
      <trkpt lat="49.75119" lon="4.81168">
        <ele>212</ele>
        <time>2022-08-19T06:06:08.000Z</time>
      </trkpt>
      <trkpt lat="49.75118" lon="4.81164">
        <ele>212</ele>
        <time>2022-08-19T06:06:09.000Z</time>
      </trkpt>
      <trkpt lat="49.75117" lon="4.8116">
        <ele>212</ele>
        <time>2022-08-19T06:06:10.000Z</time>
      </trkpt>
      <trkpt lat="49.75116" lon="4.81155">
        <ele>212</ele>
        <time>2022-08-19T06:06:11.000Z</time>
      </trkpt>
      <trkpt lat="49.75115" lon="4.81149">
        <ele>212</ele>
        <time>2022-08-19T06:06:12.000Z</time>
      </trkpt>
      <trkpt lat="49.75114" lon="4.81144">
        <ele>212</ele>
        <time>2022-08-19T06:06:13.000Z</time>
      </trkpt>
      <trkpt lat="49.75113" lon="4.81139">
        <ele>212</ele>
        <time>2022-08-19T06:06:14.000Z</time>
      </trkpt>
      <trkpt lat="49.75112" lon="4.81134">
        <ele>212</ele>
        <time>2022-08-19T06:06:15.000Z</time>
      </trkpt>
      <trkpt lat="49.7511" lon="4.81128">
        <ele>212</ele>
        <time>2022-08-19T06:06:16.000Z</time>
      </trkpt>
      <trkpt lat="49.75109" lon="4.81123">
        <ele>212</ele>
        <time>2022-08-19T06:06:17.000Z</time>
      </trkpt>
      <trkpt lat="49.75108" lon="4.81118">
        <ele>212</ele>
        <time>2022-08-19T06:06:18.000Z</time>
      </trkpt>
      <trkpt lat="49.75106" lon="4.81114">
        <ele>212</ele>
        <time>2022-08-19T06:06:19.000Z</time>
      </trkpt>
      <trkpt lat="49.75105" lon="4.81109">
        <ele>212</ele>
        <time>2022-08-19T06:06:20.000Z</time>
      </trkpt>
      <trkpt lat="49.75103" lon="4.81104">
        <ele>213</ele>
        <time>2022-08-19T06:06:21.000Z</time>
      </trkpt>
      <trkpt lat="49.75102" lon="4.81099">
        <ele>213</ele>
        <time>2022-08-19T06:06:22.000Z</time>
      </trkpt>
      <trkpt lat="49.751" lon="4.81094">
        <ele>213</ele>
        <time>2022-08-19T06:06:23.000Z</time>
      </trkpt>
      <trkpt lat="49.75099" lon="4.81089">
        <ele>213</ele>
        <time>2022-08-19T06:06:24.000Z</time>
      </trkpt>
      <trkpt lat="49.75097" lon="4.81084">
        <ele>213</ele>
        <time>2022-08-19T06:06:25.000Z</time>
      </trkpt>
      <trkpt lat="49.75096" lon="4.81079">
        <ele>213</ele>
        <time>2022-08-19T06:06:26.000Z</time>
      </trkpt>
      <trkpt lat="49.75094" lon="4.81073">
        <ele>214</ele>
        <time>2022-08-19T06:06:27.000Z</time>
      </trkpt>
      <trkpt lat="49.75093" lon="4.81068">
        <ele>214</ele>
        <time>2022-08-19T06:06:28.000Z</time>
      </trkpt>
      <trkpt lat="49.75092" lon="4.81062">
        <ele>214</ele>
        <time>2022-08-19T06:06:29.000Z</time>
      </trkpt>
      <trkpt lat="49.7509" lon="4.81056">
        <ele>214</ele>
        <time>2022-08-19T06:06:30.000Z</time>
      </trkpt>
      <trkpt lat="49.75089" lon="4.8105">
        <ele>214</ele>
        <time>2022-08-19T06:06:31.000Z</time>
      </trkpt>
      <trkpt lat="49.75088" lon="4.81044">
        <ele>214</ele>
        <time>2022-08-19T06:06:32.000Z</time>
      </trkpt>
      <trkpt lat="49.75087" lon="4.81038">
        <ele>214</ele>
        <time>2022-08-19T06:06:33.000Z</time>
      </trkpt>
      <trkpt lat="49.75085" lon="4.81031">
        <ele>214</ele>
        <time>2022-08-19T06:06:34.000Z</time>
      </trkpt>
      <trkpt lat="49.75084" lon="4.81025">
        <ele>214</ele>
        <time>2022-08-19T06:06:35.000Z</time>
      </trkpt>
      <trkpt lat="49.75082" lon="4.81018">
        <ele>214</ele>
        <time>2022-08-19T06:06:36.000Z</time>
      </trkpt>
      <trkpt lat="49.7508" lon="4.81012">
        <ele>214</ele>
        <time>2022-08-19T06:06:37.000Z</time>
      </trkpt>
      <trkpt lat="49.75078" lon="4.81006">
        <ele>215</ele>
        <time>2022-08-19T06:06:38.000Z</time>
      </trkpt>
      <trkpt lat="49.75076" lon="4.81">
        <ele>215</ele>
        <time>2022-08-19T06:06:39.000Z</time>
      </trkpt>
      <trkpt lat="49.75075" lon="4.80994">
        <ele>215</ele>
        <time>2022-08-19T06:06:40.000Z</time>
      </trkpt>
      <trkpt lat="49.75073" lon="4.80987">
        <ele>215</ele>
        <time>2022-08-19T06:06:41.000Z</time>
      </trkpt>
      <trkpt lat="49.75072" lon="4.80981">
        <ele>215</ele>
        <time>2022-08-19T06:06:42.000Z</time>
      </trkpt>
      <trkpt lat="49.75071" lon="4.80974">
        <ele>215</ele>
        <time>2022-08-19T06:06:43.000Z</time>
      </trkpt>
      <trkpt lat="49.75069" lon="4.80967">
        <ele>215</ele>
        <time>2022-08-19T06:06:44.000Z</time>
      </trkpt>
      <trkpt lat="49.75068" lon="4.80959">
        <ele>216</ele>
        <time>2022-08-19T06:06:45.000Z</time>
      </trkpt>
      <trkpt lat="49.75066" lon="4.80951">
        <ele>216</ele>
        <time>2022-08-19T06:06:46.000Z</time>
      </trkpt>
      <trkpt lat="49.75064" lon="4.80943">
        <ele>216</ele>
        <time>2022-08-19T06:06:47.000Z</time>
      </trkpt>
      <trkpt lat="49.75063" lon="4.80933">
        <ele>216</ele>
        <time>2022-08-19T06:06:48.000Z</time>
      </trkpt>
      <trkpt lat="49.75062" lon="4.80924">
        <ele>216</ele>
        <time>2022-08-19T06:06:49.000Z</time>
      </trkpt>
      <trkpt lat="49.75061" lon="4.80914">
        <ele>216</ele>
        <time>2022-08-19T06:06:50.000Z</time>
      </trkpt>
      <trkpt lat="49.7506" lon="4.80904">
        <ele>216</ele>
        <time>2022-08-19T06:06:51.000Z</time>
      </trkpt>
      <trkpt lat="49.7506" lon="4.80893">
        <ele>216</ele>
        <time>2022-08-19T06:06:52.000Z</time>
      </trkpt>
      <trkpt lat="49.75059" lon="4.80882">
        <ele>216</ele>
        <time>2022-08-19T06:06:53.000Z</time>
      </trkpt>
      <trkpt lat="49.7506" lon="4.8087">
        <ele>216</ele>
        <time>2022-08-19T06:06:54.000Z</time>
      </trkpt>
      <trkpt lat="49.7506" lon="4.80859">
        <ele>216</ele>
        <time>2022-08-19T06:06:55.000Z</time>
      </trkpt>
      <trkpt lat="49.75061" lon="4.80848">
        <ele>216</ele>
        <time>2022-08-19T06:06:56.000Z</time>
      </trkpt>
      <trkpt lat="49.75061" lon="4.80837">
        <ele>216</ele>
        <time>2022-08-19T06:06:57.000Z</time>
      </trkpt>
      <trkpt lat="49.75062" lon="4.80826">
        <ele>216</ele>
        <time>2022-08-19T06:06:58.000Z</time>
      </trkpt>
      <trkpt lat="49.75063" lon="4.80815">
        <ele>216</ele>
        <time>2022-08-19T06:06:59.000Z</time>
      </trkpt>
      <trkpt lat="49.75065" lon="4.80804">
        <ele>215</ele>
        <time>2022-08-19T06:07:00.000Z</time>
      </trkpt>
      <trkpt lat="49.75066" lon="4.80794">
        <ele>215</ele>
        <time>2022-08-19T06:07:01.000Z</time>
      </trkpt>
      <trkpt lat="49.75068" lon="4.80783">
        <ele>215</ele>
        <time>2022-08-19T06:07:02.000Z</time>
      </trkpt>
      <trkpt lat="49.7507" lon="4.80772">
        <ele>215</ele>
        <time>2022-08-19T06:07:03.000Z</time>
      </trkpt>
      <trkpt lat="49.75072" lon="4.80761">
        <ele>215</ele>
        <time>2022-08-19T06:07:04.000Z</time>
      </trkpt>
      <trkpt lat="49.75075" lon="4.8075">
        <ele>215</ele>
        <time>2022-08-19T06:07:05.000Z</time>
      </trkpt>
      <trkpt lat="49.75077" lon="4.8074">
        <ele>214</ele>
        <time>2022-08-19T06:07:06.000Z</time>
      </trkpt>
      <trkpt lat="49.7508" lon="4.8073">
        <ele>214</ele>
        <time>2022-08-19T06:07:07.000Z</time>
      </trkpt>
      <trkpt lat="49.75084" lon="4.8072">
        <ele>214</ele>
        <time>2022-08-19T06:07:08.000Z</time>
      </trkpt>
      <trkpt lat="49.75088" lon="4.80711">
        <ele>214</ele>
        <time>2022-08-19T06:07:09.000Z</time>
      </trkpt>
      <trkpt lat="49.75093" lon="4.80702">
        <ele>213</ele>
        <time>2022-08-19T06:07:10.000Z</time>
      </trkpt>
      <trkpt lat="49.75099" lon="4.80695">
        <ele>213</ele>
        <time>2022-08-19T06:07:11.000Z</time>
      </trkpt>
      <trkpt lat="49.75105" lon="4.80688">
        <ele>212</ele>
        <time>2022-08-19T06:07:12.000Z</time>
      </trkpt>
      <trkpt lat="49.75112" lon="4.80682">
        <ele>212</ele>
        <time>2022-08-19T06:07:13.000Z</time>
      </trkpt>
      <trkpt lat="49.75119" lon="4.80678">
        <ele>212</ele>
        <time>2022-08-19T06:07:14.000Z</time>
      </trkpt>
      <trkpt lat="49.75127" lon="4.80674">
        <ele>211</ele>
        <time>2022-08-19T06:07:15.000Z</time>
      </trkpt>
      <trkpt lat="49.75134" lon="4.80673">
        <ele>211</ele>
        <time>2022-08-19T06:07:16.000Z</time>
      </trkpt>
      <trkpt lat="49.75142" lon="4.80674">
        <ele>211</ele>
        <time>2022-08-19T06:07:17.000Z</time>
      </trkpt>
      <trkpt lat="49.7515" lon="4.80674">
        <ele>210</ele>
        <time>2022-08-19T06:07:18.000Z</time>
      </trkpt>
      <trkpt lat="49.75157" lon="4.80675">
        <ele>210</ele>
        <time>2022-08-19T06:07:19.000Z</time>
      </trkpt>
      <trkpt lat="49.75165" lon="4.80676">
        <ele>210</ele>
        <time>2022-08-19T06:07:20.000Z</time>
      </trkpt>
      <trkpt lat="49.75172" lon="4.80677">
        <ele>209</ele>
        <time>2022-08-19T06:07:21.000Z</time>
      </trkpt>
      <trkpt lat="49.75179" lon="4.80678">
        <ele>209</ele>
        <time>2022-08-19T06:07:22.000Z</time>
      </trkpt>
      <trkpt lat="49.75185" lon="4.80678">
        <ele>209</ele>
        <time>2022-08-19T06:07:23.000Z</time>
      </trkpt>
      <trkpt lat="49.75192" lon="4.80679">
        <ele>209</ele>
        <time>2022-08-19T06:07:24.000Z</time>
      </trkpt>
      <trkpt lat="49.75199" lon="4.80679">
        <ele>208</ele>
        <time>2022-08-19T06:07:25.000Z</time>
      </trkpt>
      <trkpt lat="49.75205" lon="4.8068">
        <ele>208</ele>
        <time>2022-08-19T06:07:26.000Z</time>
      </trkpt>
      <trkpt lat="49.75211" lon="4.80681">
        <ele>208</ele>
        <time>2022-08-19T06:07:27.000Z</time>
      </trkpt>
      <trkpt lat="49.75218" lon="4.80682">
        <ele>208</ele>
        <time>2022-08-19T06:07:28.000Z</time>
      </trkpt>
      <trkpt lat="49.75223" lon="4.80683">
        <ele>207</ele>
        <time>2022-08-19T06:07:29.000Z</time>
      </trkpt>
      <trkpt lat="49.75229" lon="4.80684">
        <ele>207</ele>
        <time>2022-08-19T06:07:30.000Z</time>
      </trkpt>
      <trkpt lat="49.75234" lon="4.80685">
        <ele>207</ele>
        <time>2022-08-19T06:07:31.000Z</time>
      </trkpt>
      <trkpt lat="49.75239" lon="4.80687">
        <ele>207</ele>
        <time>2022-08-19T06:07:32.000Z</time>
      </trkpt>
      <trkpt lat="49.75244" lon="4.80688">
        <ele>207</ele>
        <time>2022-08-19T06:07:33.000Z</time>
      </trkpt>
      <trkpt lat="49.75249" lon="4.8069">
        <ele>207</ele>
        <time>2022-08-19T06:07:34.000Z</time>
      </trkpt>
      <trkpt lat="49.75254" lon="4.80692">
        <ele>206</ele>
        <time>2022-08-19T06:07:35.000Z</time>
      </trkpt>
      <trkpt lat="49.75258" lon="4.80693">
        <ele>206</ele>
        <time>2022-08-19T06:07:36.000Z</time>
      </trkpt>
      <trkpt lat="49.75262" lon="4.80694">
        <ele>206</ele>
        <time>2022-08-19T06:07:37.000Z</time>
      </trkpt>
      <trkpt lat="49.75266" lon="4.80693">
        <ele>206</ele>
        <time>2022-08-19T06:07:38.000Z</time>
      </trkpt>
      <trkpt lat="49.75271" lon="4.80693">
        <ele>206</ele>
        <time>2022-08-19T06:07:39.000Z</time>
      </trkpt>
      <trkpt lat="49.75274" lon="4.80692">
        <ele>206</ele>
        <time>2022-08-19T06:07:40.000Z</time>
      </trkpt>
      <trkpt lat="49.75278" lon="4.80691">
        <ele>206</ele>
        <time>2022-08-19T06:07:41.000Z</time>
      </trkpt>
      <trkpt lat="49.75281" lon="4.80689">
        <ele>206</ele>
        <time>2022-08-19T06:07:42.000Z</time>
      </trkpt>
      <trkpt lat="49.75285" lon="4.80687">
        <ele>206</ele>
        <time>2022-08-19T06:07:43.000Z</time>
      </trkpt>
      <trkpt lat="49.75288" lon="4.80685">
        <ele>206</ele>
        <time>2022-08-19T06:07:44.000Z</time>
      </trkpt>
      <trkpt lat="49.75291" lon="4.80683">
        <ele>206</ele>
        <time>2022-08-19T06:07:45.000Z</time>
      </trkpt>
      <trkpt lat="49.75295" lon="4.80681">
        <ele>206</ele>
        <time>2022-08-19T06:07:46.000Z</time>
      </trkpt>
      <trkpt lat="49.75298" lon="4.80679">
        <ele>206</ele>
        <time>2022-08-19T06:07:47.000Z</time>
      </trkpt>
      <trkpt lat="49.753" lon="4.80677">
        <ele>206</ele>
        <time>2022-08-19T06:07:48.000Z</time>
      </trkpt>
      <trkpt lat="49.75303" lon="4.80675">
        <ele>206</ele>
        <time>2022-08-19T06:07:49.000Z</time>
      </trkpt>
      <trkpt lat="49.75306" lon="4.80673">
        <ele>206</ele>
        <time>2022-08-19T06:07:50.000Z</time>
      </trkpt>
      <trkpt lat="49.75309" lon="4.80672">
        <ele>206</ele>
        <time>2022-08-19T06:07:51.000Z</time>
      </trkpt>
      <trkpt lat="49.75312" lon="4.80671">
        <ele>206</ele>
        <time>2022-08-19T06:07:52.000Z</time>
      </trkpt>
      <trkpt lat="49.75315" lon="4.80671">
        <ele>206</ele>
        <time>2022-08-19T06:07:53.000Z</time>
      </trkpt>
      <trkpt lat="49.75318" lon="4.80671">
        <ele>206</ele>
        <time>2022-08-19T06:07:54.000Z</time>
      </trkpt>
      <trkpt lat="49.75322" lon="4.8067">
        <ele>206</ele>
        <time>2022-08-19T06:07:55.000Z</time>
      </trkpt>
      <trkpt lat="49.75325" lon="4.8067">
        <ele>206</ele>
        <time>2022-08-19T06:07:56.000Z</time>
      </trkpt>
      <trkpt lat="49.75328" lon="4.80671">
        <ele>207</ele>
        <time>2022-08-19T06:07:57.000Z</time>
      </trkpt>
      <trkpt lat="49.75331" lon="4.80671">
        <ele>207</ele>
        <time>2022-08-19T06:07:58.000Z</time>
      </trkpt>
      <trkpt lat="49.75335" lon="4.80672">
        <ele>207</ele>
        <time>2022-08-19T06:07:59.000Z</time>
      </trkpt>
      <trkpt lat="49.75338" lon="4.80673">
        <ele>207</ele>
        <time>2022-08-19T06:08:00.000Z</time>
      </trkpt>
      <trkpt lat="49.75342" lon="4.80674">
        <ele>207</ele>
        <time>2022-08-19T06:08:01.000Z</time>
      </trkpt>
      <trkpt lat="49.75345" lon="4.80674">
        <ele>207</ele>
        <time>2022-08-19T06:08:02.000Z</time>
      </trkpt>
      <trkpt lat="49.75348" lon="4.80675">
        <ele>207</ele>
        <time>2022-08-19T06:08:03.000Z</time>
      </trkpt>
      <trkpt lat="49.75351" lon="4.80676">
        <ele>207</ele>
        <time>2022-08-19T06:08:04.000Z</time>
      </trkpt>
      <trkpt lat="49.75354" lon="4.80677">
        <ele>207</ele>
        <time>2022-08-19T06:08:05.000Z</time>
      </trkpt>
      <trkpt lat="49.75357" lon="4.80678">
        <ele>208</ele>
        <time>2022-08-19T06:08:06.000Z</time>
      </trkpt>
      <trkpt lat="49.7536" lon="4.80679">
        <ele>208</ele>
        <time>2022-08-19T06:08:07.000Z</time>
      </trkpt>
      <trkpt lat="49.75363" lon="4.80679">
        <ele>208</ele>
        <time>2022-08-19T06:08:08.000Z</time>
      </trkpt>
      <trkpt lat="49.75366" lon="4.80681">
        <ele>208</ele>
        <time>2022-08-19T06:08:09.000Z</time>
      </trkpt>
      <trkpt lat="49.75368" lon="4.80682">
        <ele>209</ele>
        <time>2022-08-19T06:08:10.000Z</time>
      </trkpt>
      <trkpt lat="49.75371" lon="4.80683">
        <ele>209</ele>
        <time>2022-08-19T06:08:11.000Z</time>
      </trkpt>
      <trkpt lat="49.75374" lon="4.80685">
        <ele>209</ele>
        <time>2022-08-19T06:08:12.000Z</time>
      </trkpt>
      <trkpt lat="49.75377" lon="4.80686">
        <ele>209</ele>
        <time>2022-08-19T06:08:13.000Z</time>
      </trkpt>
      <trkpt lat="49.7538" lon="4.80687">
        <ele>210</ele>
        <time>2022-08-19T06:08:14.000Z</time>
      </trkpt>
      <trkpt lat="49.75382" lon="4.80689">
        <ele>210</ele>
        <time>2022-08-19T06:08:15.000Z</time>
      </trkpt>
      <trkpt lat="49.75385" lon="4.8069">
        <ele>210</ele>
        <time>2022-08-19T06:08:16.000Z</time>
      </trkpt>
      <trkpt lat="49.75388" lon="4.8069">
        <ele>211</ele>
        <time>2022-08-19T06:08:17.000Z</time>
      </trkpt>
      <trkpt lat="49.7539" lon="4.80691">
        <ele>211</ele>
        <time>2022-08-19T06:08:18.000Z</time>
      </trkpt>
      <trkpt lat="49.75392" lon="4.80692">
        <ele>211</ele>
        <time>2022-08-19T06:08:19.000Z</time>
      </trkpt>
      <trkpt lat="49.75394" lon="4.80693">
        <ele>211</ele>
        <time>2022-08-19T06:08:20.000Z</time>
      </trkpt>
      <trkpt lat="49.75396" lon="4.80694">
        <ele>212</ele>
        <time>2022-08-19T06:08:21.000Z</time>
      </trkpt>
      <trkpt lat="49.75398" lon="4.80695">
        <ele>212</ele>
        <time>2022-08-19T06:08:22.000Z</time>
      </trkpt>
      <trkpt lat="49.754" lon="4.80697">
        <ele>212</ele>
        <time>2022-08-19T06:08:23.000Z</time>
      </trkpt>
      <trkpt lat="49.75402" lon="4.80698">
        <ele>212</ele>
        <time>2022-08-19T06:08:24.000Z</time>
      </trkpt>
      <trkpt lat="49.75404" lon="4.80699">
        <ele>213</ele>
        <time>2022-08-19T06:08:25.000Z</time>
      </trkpt>
      <trkpt lat="49.75406" lon="4.807">
        <ele>213</ele>
        <time>2022-08-19T06:08:26.000Z</time>
      </trkpt>
      <trkpt lat="49.75408" lon="4.80701">
        <ele>213</ele>
        <time>2022-08-19T06:08:27.000Z</time>
      </trkpt>
      <trkpt lat="49.75411" lon="4.80701">
        <ele>214</ele>
        <time>2022-08-19T06:08:28.000Z</time>
      </trkpt>
      <trkpt lat="49.75413" lon="4.80702">
        <ele>214</ele>
        <time>2022-08-19T06:08:29.000Z</time>
      </trkpt>
      <trkpt lat="49.75415" lon="4.80702">
        <ele>214</ele>
        <time>2022-08-19T06:08:30.000Z</time>
      </trkpt>
      <trkpt lat="49.75418" lon="4.80703">
        <ele>214</ele>
        <time>2022-08-19T06:08:31.000Z</time>
      </trkpt>
      <trkpt lat="49.75421" lon="4.80704">
        <ele>215</ele>
        <time>2022-08-19T06:08:32.000Z</time>
      </trkpt>
      <trkpt lat="49.75424" lon="4.80706">
        <ele>215</ele>
        <time>2022-08-19T06:08:33.000Z</time>
      </trkpt>
      <trkpt lat="49.75427" lon="4.80707">
        <ele>215</ele>
        <time>2022-08-19T06:08:34.000Z</time>
      </trkpt>
      <trkpt lat="49.7543" lon="4.80709">
        <ele>216</ele>
        <time>2022-08-19T06:08:35.000Z</time>
      </trkpt>
      <trkpt lat="49.75433" lon="4.80711">
        <ele>216</ele>
        <time>2022-08-19T06:08:36.000Z</time>
      </trkpt>
      <trkpt lat="49.75436" lon="4.80713">
        <ele>216</ele>
        <time>2022-08-19T06:08:37.000Z</time>
      </trkpt>
      <trkpt lat="49.75439" lon="4.80715">
        <ele>216</ele>
        <time>2022-08-19T06:08:38.000Z</time>
      </trkpt>
      <trkpt lat="49.75442" lon="4.80717">
        <ele>217</ele>
        <time>2022-08-19T06:08:39.000Z</time>
      </trkpt>
      <trkpt lat="49.75445" lon="4.80719">
        <ele>217</ele>
        <time>2022-08-19T06:08:40.000Z</time>
      </trkpt>
      <trkpt lat="49.75448" lon="4.80721">
        <ele>217</ele>
        <time>2022-08-19T06:08:41.000Z</time>
      </trkpt>
      <trkpt lat="49.75451" lon="4.80723">
        <ele>218</ele>
        <time>2022-08-19T06:08:42.000Z</time>
      </trkpt>
      <trkpt lat="49.75453" lon="4.80725">
        <ele>218</ele>
        <time>2022-08-19T06:08:43.000Z</time>
      </trkpt>
      <trkpt lat="49.75456" lon="4.80727">
        <ele>218</ele>
        <time>2022-08-19T06:08:44.000Z</time>
      </trkpt>
      <trkpt lat="49.75458" lon="4.8073">
        <ele>218</ele>
        <time>2022-08-19T06:08:45.000Z</time>
      </trkpt>
      <trkpt lat="49.75461" lon="4.80732">
        <ele>219</ele>
        <time>2022-08-19T06:08:46.000Z</time>
      </trkpt>
      <trkpt lat="49.75464" lon="4.80734">
        <ele>219</ele>
        <time>2022-08-19T06:08:47.000Z</time>
      </trkpt>
      <trkpt lat="49.75466" lon="4.80736">
        <ele>219</ele>
        <time>2022-08-19T06:08:48.000Z</time>
      </trkpt>
      <trkpt lat="49.75469" lon="4.80737">
        <ele>220</ele>
        <time>2022-08-19T06:08:49.000Z</time>
      </trkpt>
      <trkpt lat="49.75472" lon="4.80739">
        <ele>220</ele>
        <time>2022-08-19T06:08:50.000Z</time>
      </trkpt>
      <trkpt lat="49.75475" lon="4.8074">
        <ele>220</ele>
        <time>2022-08-19T06:08:51.000Z</time>
      </trkpt>
      <trkpt lat="49.75477" lon="4.80742">
        <ele>221</ele>
        <time>2022-08-19T06:08:52.000Z</time>
      </trkpt>
      <trkpt lat="49.7548" lon="4.80744">
        <ele>221</ele>
        <time>2022-08-19T06:08:53.000Z</time>
      </trkpt>
      <trkpt lat="49.75482" lon="4.80746">
        <ele>221</ele>
        <time>2022-08-19T06:08:54.000Z</time>
      </trkpt>
      <trkpt lat="49.75484" lon="4.80748">
        <ele>222</ele>
        <time>2022-08-19T06:08:55.000Z</time>
      </trkpt>
      <trkpt lat="49.75487" lon="4.8075">
        <ele>222</ele>
        <time>2022-08-19T06:08:56.000Z</time>
      </trkpt>
      <trkpt lat="49.7549" lon="4.80751">
        <ele>222</ele>
        <time>2022-08-19T06:08:57.000Z</time>
      </trkpt>
      <trkpt lat="49.75492" lon="4.80754">
        <ele>222</ele>
        <time>2022-08-19T06:08:58.000Z</time>
      </trkpt>
      <trkpt lat="49.75494" lon="4.80756">
        <ele>222</ele>
        <time>2022-08-19T06:08:59.000Z</time>
      </trkpt>
      <trkpt lat="49.75496" lon="4.80759">
        <ele>223</ele>
        <time>2022-08-19T06:09:00.000Z</time>
      </trkpt>
      <trkpt lat="49.75499" lon="4.80761">
        <ele>223</ele>
        <time>2022-08-19T06:09:01.000Z</time>
      </trkpt>
      <trkpt lat="49.75501" lon="4.80763">
        <ele>223</ele>
        <time>2022-08-19T06:09:02.000Z</time>
      </trkpt>
      <trkpt lat="49.75503" lon="4.80766">
        <ele>224</ele>
        <time>2022-08-19T06:09:03.000Z</time>
      </trkpt>
      <trkpt lat="49.75506" lon="4.80768">
        <ele>224</ele>
        <time>2022-08-19T06:09:04.000Z</time>
      </trkpt>
      <trkpt lat="49.75508" lon="4.8077">
        <ele>224</ele>
        <time>2022-08-19T06:09:05.000Z</time>
      </trkpt>
      <trkpt lat="49.75511" lon="4.80772">
        <ele>224</ele>
        <time>2022-08-19T06:09:06.000Z</time>
      </trkpt>
      <trkpt lat="49.75513" lon="4.80773">
        <ele>225</ele>
        <time>2022-08-19T06:09:07.000Z</time>
      </trkpt>
      <trkpt lat="49.75516" lon="4.80775">
        <ele>225</ele>
        <time>2022-08-19T06:09:08.000Z</time>
      </trkpt>
      <trkpt lat="49.75519" lon="4.80777">
        <ele>225</ele>
        <time>2022-08-19T06:09:09.000Z</time>
      </trkpt>
      <trkpt lat="49.75522" lon="4.80778">
        <ele>226</ele>
        <time>2022-08-19T06:09:10.000Z</time>
      </trkpt>
      <trkpt lat="49.75525" lon="4.8078">
        <ele>226</ele>
        <time>2022-08-19T06:09:11.000Z</time>
      </trkpt>
      <trkpt lat="49.75528" lon="4.80781">
        <ele>226</ele>
        <time>2022-08-19T06:09:12.000Z</time>
      </trkpt>
      <trkpt lat="49.7553" lon="4.80783">
        <ele>226</ele>
        <time>2022-08-19T06:09:13.000Z</time>
      </trkpt>
      <trkpt lat="49.75532" lon="4.80784">
        <ele>227</ele>
        <time>2022-08-19T06:09:14.000Z</time>
      </trkpt>
      <trkpt lat="49.75534" lon="4.80785">
        <ele>227</ele>
        <time>2022-08-19T06:09:15.000Z</time>
      </trkpt>
      <trkpt lat="49.75535" lon="4.80787">
        <ele>227</ele>
        <time>2022-08-19T06:09:16.000Z</time>
      </trkpt>
      <trkpt lat="49.75537" lon="4.80788">
        <ele>228</ele>
        <time>2022-08-19T06:09:17.000Z</time>
      </trkpt>
      <trkpt lat="49.75538" lon="4.80789">
        <ele>228</ele>
        <time>2022-08-19T06:09:18.000Z</time>
      </trkpt>
      <trkpt lat="49.75539" lon="4.80791">
        <ele>228</ele>
        <time>2022-08-19T06:09:19.000Z</time>
      </trkpt>
      <trkpt lat="49.7554" lon="4.80793">
        <ele>228</ele>
        <time>2022-08-19T06:09:20.000Z</time>
      </trkpt>
      <trkpt lat="49.75541" lon="4.80794">
        <ele>229</ele>
        <time>2022-08-19T06:09:21.000Z</time>
      </trkpt>
      <trkpt lat="49.75542" lon="4.80796">
        <ele>229</ele>
        <time>2022-08-19T06:09:22.000Z</time>
      </trkpt>
      <trkpt lat="49.75544" lon="4.80797">
        <ele>229</ele>
        <time>2022-08-19T06:09:23.000Z</time>
      </trkpt>
      <trkpt lat="49.75545" lon="4.80799">
        <ele>230</ele>
        <time>2022-08-19T06:09:24.000Z</time>
      </trkpt>
      <trkpt lat="49.75547" lon="4.80801">
        <ele>230</ele>
        <time>2022-08-19T06:09:25.000Z</time>
      </trkpt>
      <trkpt lat="49.75548" lon="4.80802">
        <ele>230</ele>
        <time>2022-08-19T06:09:26.000Z</time>
      </trkpt>
      <trkpt lat="49.7555" lon="4.80804">
        <ele>230</ele>
        <time>2022-08-19T06:09:27.000Z</time>
      </trkpt>
      <trkpt lat="49.75551" lon="4.80807">
        <ele>230</ele>
        <time>2022-08-19T06:09:28.000Z</time>
      </trkpt>
      <trkpt lat="49.75553" lon="4.80809">
        <ele>231</ele>
        <time>2022-08-19T06:09:29.000Z</time>
      </trkpt>
      <trkpt lat="49.75554" lon="4.80811">
        <ele>231</ele>
        <time>2022-08-19T06:09:30.000Z</time>
      </trkpt>
      <trkpt lat="49.75556" lon="4.80813">
        <ele>231</ele>
        <time>2022-08-19T06:09:31.000Z</time>
      </trkpt>
      <trkpt lat="49.75557" lon="4.80815">
        <ele>231</ele>
        <time>2022-08-19T06:09:32.000Z</time>
      </trkpt>
      <trkpt lat="49.75559" lon="4.80816">
        <ele>232</ele>
        <time>2022-08-19T06:09:33.000Z</time>
      </trkpt>
      <trkpt lat="49.7556" lon="4.80818">
        <ele>232</ele>
        <time>2022-08-19T06:09:34.000Z</time>
      </trkpt>
      <trkpt lat="49.75562" lon="4.80819">
        <ele>232</ele>
        <time>2022-08-19T06:09:35.000Z</time>
      </trkpt>
      <trkpt lat="49.75563" lon="4.8082">
        <ele>232</ele>
        <time>2022-08-19T06:09:36.000Z</time>
      </trkpt>
      <trkpt lat="49.75565" lon="4.80822">
        <ele>233</ele>
        <time>2022-08-19T06:09:37.000Z</time>
      </trkpt>
      <trkpt lat="49.75567" lon="4.80823">
        <ele>233</ele>
        <time>2022-08-19T06:09:38.000Z</time>
      </trkpt>
      <trkpt lat="49.75569" lon="4.80824">
        <ele>233</ele>
        <time>2022-08-19T06:09:39.000Z</time>
      </trkpt>
      <trkpt lat="49.75571" lon="4.80826">
        <ele>233</ele>
        <time>2022-08-19T06:09:40.000Z</time>
      </trkpt>
      <trkpt lat="49.75573" lon="4.80828">
        <ele>234</ele>
        <time>2022-08-19T06:09:41.000Z</time>
      </trkpt>
      <trkpt lat="49.75576" lon="4.8083">
        <ele>234</ele>
        <time>2022-08-19T06:09:42.000Z</time>
      </trkpt>
      <trkpt lat="49.75578" lon="4.80832">
        <ele>234</ele>
        <time>2022-08-19T06:09:43.000Z</time>
      </trkpt>
      <trkpt lat="49.7558" lon="4.80834">
        <ele>234</ele>
        <time>2022-08-19T06:09:44.000Z</time>
      </trkpt>
      <trkpt lat="49.75583" lon="4.80836">
        <ele>235</ele>
        <time>2022-08-19T06:09:45.000Z</time>
      </trkpt>
      <trkpt lat="49.75585" lon="4.80838">
        <ele>235</ele>
        <time>2022-08-19T06:09:46.000Z</time>
      </trkpt>
      <trkpt lat="49.75587" lon="4.80839">
        <ele>235</ele>
        <time>2022-08-19T06:09:47.000Z</time>
      </trkpt>
      <trkpt lat="49.75589" lon="4.8084">
        <ele>235</ele>
        <time>2022-08-19T06:09:48.000Z</time>
      </trkpt>
      <trkpt lat="49.75591" lon="4.80841">
        <ele>235</ele>
        <time>2022-08-19T06:09:49.000Z</time>
      </trkpt>
      <trkpt lat="49.75593" lon="4.80842">
        <ele>236</ele>
        <time>2022-08-19T06:09:50.000Z</time>
      </trkpt>
      <trkpt lat="49.75595" lon="4.80843">
        <ele>236</ele>
        <time>2022-08-19T06:09:51.000Z</time>
      </trkpt>
      <trkpt lat="49.75597" lon="4.80844">
        <ele>236</ele>
        <time>2022-08-19T06:09:52.000Z</time>
      </trkpt>
      <trkpt lat="49.756" lon="4.80846">
        <ele>236</ele>
        <time>2022-08-19T06:09:53.000Z</time>
      </trkpt>
      <trkpt lat="49.75603" lon="4.80847">
        <ele>236</ele>
        <time>2022-08-19T06:09:54.000Z</time>
      </trkpt>
      <trkpt lat="49.75606" lon="4.80848">
        <ele>236</ele>
        <time>2022-08-19T06:09:55.000Z</time>
      </trkpt>
      <trkpt lat="49.75608" lon="4.80849">
        <ele>237</ele>
        <time>2022-08-19T06:09:56.000Z</time>
      </trkpt>
      <trkpt lat="49.75611" lon="4.8085">
        <ele>237</ele>
        <time>2022-08-19T06:09:57.000Z</time>
      </trkpt>
      <trkpt lat="49.75613" lon="4.80851">
        <ele>237</ele>
        <time>2022-08-19T06:09:58.000Z</time>
      </trkpt>
      <trkpt lat="49.75616" lon="4.80853">
        <ele>237</ele>
        <time>2022-08-19T06:09:59.000Z</time>
      </trkpt>
      <trkpt lat="49.75619" lon="4.80854">
        <ele>237</ele>
        <time>2022-08-19T06:10:00.000Z</time>
      </trkpt>
      <trkpt lat="49.75621" lon="4.80856">
        <ele>237</ele>
        <time>2022-08-19T06:10:01.000Z</time>
      </trkpt>
      <trkpt lat="49.75624" lon="4.80857">
        <ele>237</ele>
        <time>2022-08-19T06:10:02.000Z</time>
      </trkpt>
      <trkpt lat="49.75627" lon="4.80859">
        <ele>238</ele>
        <time>2022-08-19T06:10:03.000Z</time>
      </trkpt>
      <trkpt lat="49.7563" lon="4.80861">
        <ele>238</ele>
        <time>2022-08-19T06:10:04.000Z</time>
      </trkpt>
      <trkpt lat="49.75633" lon="4.80862">
        <ele>238</ele>
        <time>2022-08-19T06:10:05.000Z</time>
      </trkpt>
      <trkpt lat="49.75636" lon="4.80863">
        <ele>237</ele>
        <time>2022-08-19T06:10:06.000Z</time>
      </trkpt>
      <trkpt lat="49.75639" lon="4.80864">
        <ele>237</ele>
        <time>2022-08-19T06:10:07.000Z</time>
      </trkpt>
      <trkpt lat="49.75642" lon="4.80864">
        <ele>237</ele>
        <time>2022-08-19T06:10:08.000Z</time>
      </trkpt>
      <trkpt lat="49.75645" lon="4.80864">
        <ele>237</ele>
        <time>2022-08-19T06:10:09.000Z</time>
      </trkpt>
      <trkpt lat="49.75647" lon="4.80864">
        <ele>237</ele>
        <time>2022-08-19T06:10:10.000Z</time>
      </trkpt>
      <trkpt lat="49.7565" lon="4.80865">
        <ele>237</ele>
        <time>2022-08-19T06:10:11.000Z</time>
      </trkpt>
      <trkpt lat="49.75653" lon="4.80865">
        <ele>237</ele>
        <time>2022-08-19T06:10:12.000Z</time>
      </trkpt>
      <trkpt lat="49.75656" lon="4.80866">
        <ele>237</ele>
        <time>2022-08-19T06:10:13.000Z</time>
      </trkpt>
      <trkpt lat="49.75659" lon="4.80866">
        <ele>237</ele>
        <time>2022-08-19T06:10:14.000Z</time>
      </trkpt>
      <trkpt lat="49.75662" lon="4.80867">
        <ele>237</ele>
        <time>2022-08-19T06:10:15.000Z</time>
      </trkpt>
      <trkpt lat="49.75665" lon="4.80868">
        <ele>237</ele>
        <time>2022-08-19T06:10:16.000Z</time>
      </trkpt>
      <trkpt lat="49.75668" lon="4.80869">
        <ele>237</ele>
        <time>2022-08-19T06:10:17.000Z</time>
      </trkpt>
      <trkpt lat="49.75671" lon="4.80871">
        <ele>237</ele>
        <time>2022-08-19T06:10:18.000Z</time>
      </trkpt>
      <trkpt lat="49.75674" lon="4.80872">
        <ele>238</ele>
        <time>2022-08-19T06:10:19.000Z</time>
      </trkpt>
      <trkpt lat="49.75678" lon="4.80873">
        <ele>238</ele>
        <time>2022-08-19T06:10:20.000Z</time>
      </trkpt>
      <trkpt lat="49.75681" lon="4.80874">
        <ele>238</ele>
        <time>2022-08-19T06:10:21.000Z</time>
      </trkpt>
      <trkpt lat="49.75684" lon="4.80875">
        <ele>238</ele>
        <time>2022-08-19T06:10:22.000Z</time>
      </trkpt>
      <trkpt lat="49.75688" lon="4.80876">
        <ele>238</ele>
        <time>2022-08-19T06:10:23.000Z</time>
      </trkpt>
      <trkpt lat="49.75691" lon="4.80878">
        <ele>238</ele>
        <time>2022-08-19T06:10:24.000Z</time>
      </trkpt>
      <trkpt lat="49.75694" lon="4.8088">
        <ele>238</ele>
        <time>2022-08-19T06:10:25.000Z</time>
      </trkpt>
      <trkpt lat="49.75697" lon="4.80882">
        <ele>239</ele>
        <time>2022-08-19T06:10:26.000Z</time>
      </trkpt>
      <trkpt lat="49.757" lon="4.80883">
        <ele>239</ele>
        <time>2022-08-19T06:10:27.000Z</time>
      </trkpt>
      <trkpt lat="49.75703" lon="4.80885">
        <ele>239</ele>
        <time>2022-08-19T06:10:28.000Z</time>
      </trkpt>
      <trkpt lat="49.75707" lon="4.80886">
        <ele>239</ele>
        <time>2022-08-19T06:10:29.000Z</time>
      </trkpt>
      <trkpt lat="49.7571" lon="4.80888">
        <ele>239</ele>
        <time>2022-08-19T06:10:30.000Z</time>
      </trkpt>
      <trkpt lat="49.75713" lon="4.80889">
        <ele>239</ele>
        <time>2022-08-19T06:10:31.000Z</time>
      </trkpt>
      <trkpt lat="49.75716" lon="4.8089">
        <ele>240</ele>
        <time>2022-08-19T06:10:32.000Z</time>
      </trkpt>
      <trkpt lat="49.7572" lon="4.80891">
        <ele>240</ele>
        <time>2022-08-19T06:10:33.000Z</time>
      </trkpt>
      <trkpt lat="49.75723" lon="4.80892">
        <ele>240</ele>
        <time>2022-08-19T06:10:34.000Z</time>
      </trkpt>
      <trkpt lat="49.75726" lon="4.80893">
        <ele>240</ele>
        <time>2022-08-19T06:10:35.000Z</time>
      </trkpt>
      <trkpt lat="49.75729" lon="4.80894">
        <ele>240</ele>
        <time>2022-08-19T06:10:36.000Z</time>
      </trkpt>
      <trkpt lat="49.75732" lon="4.80894">
        <ele>240</ele>
        <time>2022-08-19T06:10:37.000Z</time>
      </trkpt>
      <trkpt lat="49.75735" lon="4.80895">
        <ele>240</ele>
        <time>2022-08-19T06:10:38.000Z</time>
      </trkpt>
      <trkpt lat="49.75738" lon="4.80895">
        <ele>241</ele>
        <time>2022-08-19T06:10:39.000Z</time>
      </trkpt>
      <trkpt lat="49.75742" lon="4.80896">
        <ele>241</ele>
        <time>2022-08-19T06:10:40.000Z</time>
      </trkpt>
      <trkpt lat="49.75745" lon="4.80896">
        <ele>241</ele>
        <time>2022-08-19T06:10:41.000Z</time>
      </trkpt>
      <trkpt lat="49.75748" lon="4.80896">
        <ele>241</ele>
        <time>2022-08-19T06:10:42.000Z</time>
      </trkpt>
      <trkpt lat="49.75752" lon="4.80896">
        <ele>241</ele>
        <time>2022-08-19T06:10:43.000Z</time>
      </trkpt>
      <trkpt lat="49.75755" lon="4.80897">
        <ele>242</ele>
        <time>2022-08-19T06:10:44.000Z</time>
      </trkpt>
      <trkpt lat="49.75758" lon="4.80897">
        <ele>242</ele>
        <time>2022-08-19T06:10:45.000Z</time>
      </trkpt>
      <trkpt lat="49.75761" lon="4.80898">
        <ele>242</ele>
        <time>2022-08-19T06:10:46.000Z</time>
      </trkpt>
      <trkpt lat="49.75764" lon="4.80898">
        <ele>242</ele>
        <time>2022-08-19T06:10:47.000Z</time>
      </trkpt>
      <trkpt lat="49.75767" lon="4.80899">
        <ele>242</ele>
        <time>2022-08-19T06:10:48.000Z</time>
      </trkpt>
      <trkpt lat="49.7577" lon="4.80899">
        <ele>242</ele>
        <time>2022-08-19T06:10:49.000Z</time>
      </trkpt>
      <trkpt lat="49.75773" lon="4.80898">
        <ele>243</ele>
        <time>2022-08-19T06:10:50.000Z</time>
      </trkpt>
      <trkpt lat="49.75777" lon="4.80898">
        <ele>243</ele>
        <time>2022-08-19T06:10:51.000Z</time>
      </trkpt>
      <trkpt lat="49.7578" lon="4.80898">
        <ele>243</ele>
        <time>2022-08-19T06:10:52.000Z</time>
      </trkpt>
      <trkpt lat="49.75783" lon="4.80898">
        <ele>243</ele>
        <time>2022-08-19T06:10:53.000Z</time>
      </trkpt>
      <trkpt lat="49.75786" lon="4.80898">
        <ele>243</ele>
        <time>2022-08-19T06:10:54.000Z</time>
      </trkpt>
      <trkpt lat="49.7579" lon="4.80899">
        <ele>243</ele>
        <time>2022-08-19T06:10:55.000Z</time>
      </trkpt>
      <trkpt lat="49.75793" lon="4.80899">
        <ele>243</ele>
        <time>2022-08-19T06:10:56.000Z</time>
      </trkpt>
      <trkpt lat="49.75795" lon="4.809">
        <ele>244</ele>
        <time>2022-08-19T06:10:57.000Z</time>
      </trkpt>
      <trkpt lat="49.75798" lon="4.80901">
        <ele>244</ele>
        <time>2022-08-19T06:10:58.000Z</time>
      </trkpt>
      <trkpt lat="49.75801" lon="4.80902">
        <ele>244</ele>
        <time>2022-08-19T06:10:59.000Z</time>
      </trkpt>
      <trkpt lat="49.75804" lon="4.80903">
        <ele>244</ele>
        <time>2022-08-19T06:11:00.000Z</time>
      </trkpt>
      <trkpt lat="49.75807" lon="4.80904">
        <ele>244</ele>
        <time>2022-08-19T06:11:01.000Z</time>
      </trkpt>
      <trkpt lat="49.75809" lon="4.80905">
        <ele>244</ele>
        <time>2022-08-19T06:11:02.000Z</time>
      </trkpt>
      <trkpt lat="49.75811" lon="4.80906">
        <ele>244</ele>
        <time>2022-08-19T06:11:03.000Z</time>
      </trkpt>
      <trkpt lat="49.75813" lon="4.80907">
        <ele>244</ele>
        <time>2022-08-19T06:11:04.000Z</time>
      </trkpt>
      <trkpt lat="49.75815" lon="4.80909">
        <ele>244</ele>
        <time>2022-08-19T06:11:05.000Z</time>
      </trkpt>
      <trkpt lat="49.75818" lon="4.8091">
        <ele>244</ele>
        <time>2022-08-19T06:11:06.000Z</time>
      </trkpt>
      <trkpt lat="49.7582" lon="4.80912">
        <ele>245</ele>
        <time>2022-08-19T06:11:07.000Z</time>
      </trkpt>
      <trkpt lat="49.75822" lon="4.80914">
        <ele>245</ele>
        <time>2022-08-19T06:11:08.000Z</time>
      </trkpt>
      <trkpt lat="49.75825" lon="4.80916">
        <ele>245</ele>
        <time>2022-08-19T06:11:09.000Z</time>
      </trkpt>
      <trkpt lat="49.75827" lon="4.80917">
        <ele>245</ele>
        <time>2022-08-19T06:11:10.000Z</time>
      </trkpt>
      <trkpt lat="49.7583" lon="4.80919">
        <ele>245</ele>
        <time>2022-08-19T06:11:11.000Z</time>
      </trkpt>
      <trkpt lat="49.75833" lon="4.8092">
        <ele>245</ele>
        <time>2022-08-19T06:11:12.000Z</time>
      </trkpt>
      <trkpt lat="49.75835" lon="4.80922">
        <ele>245</ele>
        <time>2022-08-19T06:11:13.000Z</time>
      </trkpt>
      <trkpt lat="49.75838" lon="4.80924">
        <ele>245</ele>
        <time>2022-08-19T06:11:14.000Z</time>
      </trkpt>
      <trkpt lat="49.75841" lon="4.80927">
        <ele>245</ele>
        <time>2022-08-19T06:11:15.000Z</time>
      </trkpt>
      <trkpt lat="49.75844" lon="4.8093">
        <ele>245</ele>
        <time>2022-08-19T06:11:16.000Z</time>
      </trkpt>
      <trkpt lat="49.75847" lon="4.80932">
        <ele>246</ele>
        <time>2022-08-19T06:11:17.000Z</time>
      </trkpt>
      <trkpt lat="49.75849" lon="4.80935">
        <ele>246</ele>
        <time>2022-08-19T06:11:18.000Z</time>
      </trkpt>
      <trkpt lat="49.75851" lon="4.80939">
        <ele>246</ele>
        <time>2022-08-19T06:11:19.000Z</time>
      </trkpt>
      <trkpt lat="49.75853" lon="4.80941">
        <ele>246</ele>
        <time>2022-08-19T06:11:20.000Z</time>
      </trkpt>
      <trkpt lat="49.75855" lon="4.80944">
        <ele>246</ele>
        <time>2022-08-19T06:11:21.000Z</time>
      </trkpt>
      <trkpt lat="49.75857" lon="4.80947">
        <ele>246</ele>
        <time>2022-08-19T06:11:22.000Z</time>
      </trkpt>
      <trkpt lat="49.75859" lon="4.8095">
        <ele>246</ele>
        <time>2022-08-19T06:11:23.000Z</time>
      </trkpt>
      <trkpt lat="49.75861" lon="4.80952">
        <ele>246</ele>
        <time>2022-08-19T06:11:24.000Z</time>
      </trkpt>
      <trkpt lat="49.75863" lon="4.80955">
        <ele>246</ele>
        <time>2022-08-19T06:11:25.000Z</time>
      </trkpt>
      <trkpt lat="49.75865" lon="4.80957">
        <ele>246</ele>
        <time>2022-08-19T06:11:26.000Z</time>
      </trkpt>
      <trkpt lat="49.75867" lon="4.8096">
        <ele>246</ele>
        <time>2022-08-19T06:11:27.000Z</time>
      </trkpt>
      <trkpt lat="49.75869" lon="4.80962">
        <ele>246</ele>
        <time>2022-08-19T06:11:28.000Z</time>
      </trkpt>
      <trkpt lat="49.75871" lon="4.80965">
        <ele>246</ele>
        <time>2022-08-19T06:11:29.000Z</time>
      </trkpt>
      <trkpt lat="49.75872" lon="4.80967">
        <ele>246</ele>
        <time>2022-08-19T06:11:30.000Z</time>
      </trkpt>
      <trkpt lat="49.75874" lon="4.80969">
        <ele>246</ele>
        <time>2022-08-19T06:11:31.000Z</time>
      </trkpt>
      <trkpt lat="49.75876" lon="4.80971">
        <ele>246</ele>
        <time>2022-08-19T06:11:32.000Z</time>
      </trkpt>
      <trkpt lat="49.75879" lon="4.80974">
        <ele>246</ele>
        <time>2022-08-19T06:11:33.000Z</time>
      </trkpt>
      <trkpt lat="49.75881" lon="4.80976">
        <ele>246</ele>
        <time>2022-08-19T06:11:34.000Z</time>
      </trkpt>
      <trkpt lat="49.75884" lon="4.80979">
        <ele>246</ele>
        <time>2022-08-19T06:11:35.000Z</time>
      </trkpt>
      <trkpt lat="49.75887" lon="4.80982">
        <ele>246</ele>
        <time>2022-08-19T06:11:36.000Z</time>
      </trkpt>
      <trkpt lat="49.75889" lon="4.80985">
        <ele>246</ele>
        <time>2022-08-19T06:11:37.000Z</time>
      </trkpt>
      <trkpt lat="49.75892" lon="4.80988">
        <ele>246</ele>
        <time>2022-08-19T06:11:38.000Z</time>
      </trkpt>
      <trkpt lat="49.75894" lon="4.80991">
        <ele>246</ele>
        <time>2022-08-19T06:11:39.000Z</time>
      </trkpt>
      <trkpt lat="49.75896" lon="4.80994">
        <ele>247</ele>
        <time>2022-08-19T06:11:40.000Z</time>
      </trkpt>
      <trkpt lat="49.75899" lon="4.80997">
        <ele>247</ele>
        <time>2022-08-19T06:11:41.000Z</time>
      </trkpt>
      <trkpt lat="49.75901" lon="4.81">
        <ele>247</ele>
        <time>2022-08-19T06:11:42.000Z</time>
      </trkpt>
      <trkpt lat="49.75903" lon="4.81003">
        <ele>247</ele>
        <time>2022-08-19T06:11:43.000Z</time>
      </trkpt>
      <trkpt lat="49.75905" lon="4.81006">
        <ele>246</ele>
        <time>2022-08-19T06:11:44.000Z</time>
      </trkpt>
      <trkpt lat="49.75907" lon="4.8101">
        <ele>246</ele>
        <time>2022-08-19T06:11:45.000Z</time>
      </trkpt>
      <trkpt lat="49.75909" lon="4.81014">
        <ele>246</ele>
        <time>2022-08-19T06:11:46.000Z</time>
      </trkpt>
      <trkpt lat="49.75911" lon="4.81017">
        <ele>246</ele>
        <time>2022-08-19T06:11:47.000Z</time>
      </trkpt>
      <trkpt lat="49.75913" lon="4.81021">
        <ele>246</ele>
        <time>2022-08-19T06:11:48.000Z</time>
      </trkpt>
      <trkpt lat="49.75914" lon="4.81024">
        <ele>246</ele>
        <time>2022-08-19T06:11:49.000Z</time>
      </trkpt>
      <trkpt lat="49.75916" lon="4.81028">
        <ele>246</ele>
        <time>2022-08-19T06:11:50.000Z</time>
      </trkpt>
      <trkpt lat="49.75918" lon="4.81031">
        <ele>246</ele>
        <time>2022-08-19T06:11:51.000Z</time>
      </trkpt>
      <trkpt lat="49.75919" lon="4.81034">
        <ele>246</ele>
        <time>2022-08-19T06:11:52.000Z</time>
      </trkpt>
      <trkpt lat="49.75921" lon="4.81037">
        <ele>246</ele>
        <time>2022-08-19T06:11:53.000Z</time>
      </trkpt>
      <trkpt lat="49.75923" lon="4.8104">
        <ele>246</ele>
        <time>2022-08-19T06:11:54.000Z</time>
      </trkpt>
      <trkpt lat="49.75925" lon="4.81043">
        <ele>246</ele>
        <time>2022-08-19T06:11:55.000Z</time>
      </trkpt>
      <trkpt lat="49.75926" lon="4.81046">
        <ele>246</ele>
        <time>2022-08-19T06:11:56.000Z</time>
      </trkpt>
      <trkpt lat="49.75928" lon="4.81048">
        <ele>247</ele>
        <time>2022-08-19T06:11:57.000Z</time>
      </trkpt>
      <trkpt lat="49.7593" lon="4.8105">
        <ele>247</ele>
        <time>2022-08-19T06:11:58.000Z</time>
      </trkpt>
      <trkpt lat="49.75932" lon="4.81053">
        <ele>247</ele>
        <time>2022-08-19T06:11:59.000Z</time>
      </trkpt>
      <trkpt lat="49.75934" lon="4.81056">
        <ele>247</ele>
        <time>2022-08-19T06:12:00.000Z</time>
      </trkpt>
      <trkpt lat="49.75936" lon="4.8106">
        <ele>247</ele>
        <time>2022-08-19T06:12:01.000Z</time>
      </trkpt>
      <trkpt lat="49.75938" lon="4.81063">
        <ele>248</ele>
        <time>2022-08-19T06:12:02.000Z</time>
      </trkpt>
      <trkpt lat="49.75939" lon="4.81066">
        <ele>248</ele>
        <time>2022-08-19T06:12:03.000Z</time>
      </trkpt>
      <trkpt lat="49.75941" lon="4.81069">
        <ele>248</ele>
        <time>2022-08-19T06:12:04.000Z</time>
      </trkpt>
      <trkpt lat="49.75943" lon="4.81072">
        <ele>248</ele>
        <time>2022-08-19T06:12:05.000Z</time>
      </trkpt>
      <trkpt lat="49.75945" lon="4.81074">
        <ele>248</ele>
        <time>2022-08-19T06:12:06.000Z</time>
      </trkpt>
      <trkpt lat="49.75946" lon="4.81077">
        <ele>249</ele>
        <time>2022-08-19T06:12:07.000Z</time>
      </trkpt>
      <trkpt lat="49.75947" lon="4.81079">
        <ele>249</ele>
        <time>2022-08-19T06:12:08.000Z</time>
      </trkpt>
      <trkpt lat="49.75949" lon="4.81082">
        <ele>249</ele>
        <time>2022-08-19T06:12:09.000Z</time>
      </trkpt>
      <trkpt lat="49.7595" lon="4.81085">
        <ele>249</ele>
        <time>2022-08-19T06:12:10.000Z</time>
      </trkpt>
      <trkpt lat="49.75952" lon="4.81089">
        <ele>249</ele>
        <time>2022-08-19T06:12:11.000Z</time>
      </trkpt>
      <trkpt lat="49.75953" lon="4.81093">
        <ele>249</ele>
        <time>2022-08-19T06:12:12.000Z</time>
      </trkpt>
      <trkpt lat="49.75955" lon="4.81097">
        <ele>250</ele>
        <time>2022-08-19T06:12:13.000Z</time>
      </trkpt>
      <trkpt lat="49.75957" lon="4.81101">
        <ele>250</ele>
        <time>2022-08-19T06:12:14.000Z</time>
      </trkpt>
      <trkpt lat="49.75959" lon="4.81105">
        <ele>250</ele>
        <time>2022-08-19T06:12:15.000Z</time>
      </trkpt>
      <trkpt lat="49.75961" lon="4.81109">
        <ele>250</ele>
        <time>2022-08-19T06:12:16.000Z</time>
      </trkpt>
      <trkpt lat="49.75963" lon="4.81112">
        <ele>250</ele>
        <time>2022-08-19T06:12:17.000Z</time>
      </trkpt>
      <trkpt lat="49.75965" lon="4.81116">
        <ele>250</ele>
        <time>2022-08-19T06:12:18.000Z</time>
      </trkpt>
      <trkpt lat="49.75967" lon="4.81119">
        <ele>251</ele>
        <time>2022-08-19T06:12:19.000Z</time>
      </trkpt>
      <trkpt lat="49.75969" lon="4.81122">
        <ele>251</ele>
        <time>2022-08-19T06:12:20.000Z</time>
      </trkpt>
      <trkpt lat="49.75971" lon="4.81125">
        <ele>251</ele>
        <time>2022-08-19T06:12:21.000Z</time>
      </trkpt>
      <trkpt lat="49.75974" lon="4.81127">
        <ele>251</ele>
        <time>2022-08-19T06:12:22.000Z</time>
      </trkpt>
      <trkpt lat="49.75976" lon="4.8113">
        <ele>251</ele>
        <time>2022-08-19T06:12:23.000Z</time>
      </trkpt>
      <trkpt lat="49.75979" lon="4.81133">
        <ele>252</ele>
        <time>2022-08-19T06:12:24.000Z</time>
      </trkpt>
      <trkpt lat="49.75981" lon="4.81135">
        <ele>252</ele>
        <time>2022-08-19T06:12:25.000Z</time>
      </trkpt>
      <trkpt lat="49.75984" lon="4.81138">
        <ele>252</ele>
        <time>2022-08-19T06:12:26.000Z</time>
      </trkpt>
      <trkpt lat="49.75986" lon="4.81141">
        <ele>252</ele>
        <time>2022-08-19T06:12:27.000Z</time>
      </trkpt>
      <trkpt lat="49.75989" lon="4.81143">
        <ele>252</ele>
        <time>2022-08-19T06:12:28.000Z</time>
      </trkpt>
      <trkpt lat="49.75991" lon="4.81145">
        <ele>253</ele>
        <time>2022-08-19T06:12:29.000Z</time>
      </trkpt>
      <trkpt lat="49.75994" lon="4.81147">
        <ele>253</ele>
        <time>2022-08-19T06:12:30.000Z</time>
      </trkpt>
      <trkpt lat="49.75996" lon="4.81149">
        <ele>253</ele>
        <time>2022-08-19T06:12:31.000Z</time>
      </trkpt>
      <trkpt lat="49.75998" lon="4.81151">
        <ele>253</ele>
        <time>2022-08-19T06:12:32.000Z</time>
      </trkpt>
      <trkpt lat="49.76001" lon="4.81153">
        <ele>254</ele>
        <time>2022-08-19T06:12:33.000Z</time>
      </trkpt>
      <trkpt lat="49.76003" lon="4.81156">
        <ele>254</ele>
        <time>2022-08-19T06:12:34.000Z</time>
      </trkpt>
      <trkpt lat="49.76005" lon="4.81159">
        <ele>254</ele>
        <time>2022-08-19T06:12:35.000Z</time>
      </trkpt>
      <trkpt lat="49.76007" lon="4.81162">
        <ele>254</ele>
        <time>2022-08-19T06:12:36.000Z</time>
      </trkpt>
      <trkpt lat="49.76009" lon="4.81165">
        <ele>254</ele>
        <time>2022-08-19T06:12:37.000Z</time>
      </trkpt>
      <trkpt lat="49.76011" lon="4.81168">
        <ele>254</ele>
        <time>2022-08-19T06:12:38.000Z</time>
      </trkpt>
      <trkpt lat="49.76013" lon="4.8117">
        <ele>255</ele>
        <time>2022-08-19T06:12:39.000Z</time>
      </trkpt>
      <trkpt lat="49.76015" lon="4.81173">
        <ele>255</ele>
        <time>2022-08-19T06:12:40.000Z</time>
      </trkpt>
      <trkpt lat="49.76016" lon="4.81176">
        <ele>255</ele>
        <time>2022-08-19T06:12:41.000Z</time>
      </trkpt>
      <trkpt lat="49.76018" lon="4.81179">
        <ele>255</ele>
        <time>2022-08-19T06:12:42.000Z</time>
      </trkpt>
      <trkpt lat="49.7602" lon="4.81182">
        <ele>255</ele>
        <time>2022-08-19T06:12:43.000Z</time>
      </trkpt>
      <trkpt lat="49.76021" lon="4.81184">
        <ele>255</ele>
        <time>2022-08-19T06:12:44.000Z</time>
      </trkpt>
      <trkpt lat="49.76023" lon="4.81187">
        <ele>255</ele>
        <time>2022-08-19T06:12:45.000Z</time>
      </trkpt>
      <trkpt lat="49.76024" lon="4.81189">
        <ele>256</ele>
        <time>2022-08-19T06:12:46.000Z</time>
      </trkpt>
      <trkpt lat="49.76026" lon="4.81192">
        <ele>256</ele>
        <time>2022-08-19T06:12:47.000Z</time>
      </trkpt>
      <trkpt lat="49.76028" lon="4.81195">
        <ele>256</ele>
        <time>2022-08-19T06:12:48.000Z</time>
      </trkpt>
      <trkpt lat="49.7603" lon="4.81198">
        <ele>256</ele>
        <time>2022-08-19T06:12:49.000Z</time>
      </trkpt>
      <trkpt lat="49.76033" lon="4.81201">
        <ele>256</ele>
        <time>2022-08-19T06:12:50.000Z</time>
      </trkpt>
      <trkpt lat="49.76035" lon="4.81203">
        <ele>256</ele>
        <time>2022-08-19T06:12:51.000Z</time>
      </trkpt>
      <trkpt lat="49.76037" lon="4.81206">
        <ele>256</ele>
        <time>2022-08-19T06:12:52.000Z</time>
      </trkpt>
      <trkpt lat="49.7604" lon="4.81208">
        <ele>256</ele>
        <time>2022-08-19T06:12:53.000Z</time>
      </trkpt>
      <trkpt lat="49.76041" lon="4.81211">
        <ele>256</ele>
        <time>2022-08-19T06:12:54.000Z</time>
      </trkpt>
      <trkpt lat="49.76043" lon="4.81214">
        <ele>256</ele>
        <time>2022-08-19T06:12:55.000Z</time>
      </trkpt>
      <trkpt lat="49.76045" lon="4.81217">
        <ele>257</ele>
        <time>2022-08-19T06:12:56.000Z</time>
      </trkpt>
      <trkpt lat="49.76047" lon="4.8122">
        <ele>257</ele>
        <time>2022-08-19T06:12:57.000Z</time>
      </trkpt>
      <trkpt lat="49.76049" lon="4.81223">
        <ele>257</ele>
        <time>2022-08-19T06:12:58.000Z</time>
      </trkpt>
      <trkpt lat="49.76051" lon="4.81226">
        <ele>257</ele>
        <time>2022-08-19T06:12:59.000Z</time>
      </trkpt>
      <trkpt lat="49.76053" lon="4.81229">
        <ele>257</ele>
        <time>2022-08-19T06:13:00.000Z</time>
      </trkpt>
      <trkpt lat="49.76055" lon="4.81233">
        <ele>257</ele>
        <time>2022-08-19T06:13:01.000Z</time>
      </trkpt>
      <trkpt lat="49.76058" lon="4.81236">
        <ele>257</ele>
        <time>2022-08-19T06:13:02.000Z</time>
      </trkpt>
      <trkpt lat="49.76061" lon="4.81239">
        <ele>257</ele>
        <time>2022-08-19T06:13:03.000Z</time>
      </trkpt>
      <trkpt lat="49.76063" lon="4.81241">
        <ele>257</ele>
        <time>2022-08-19T06:13:04.000Z</time>
      </trkpt>
      <trkpt lat="49.76066" lon="4.81244">
        <ele>257</ele>
        <time>2022-08-19T06:13:05.000Z</time>
      </trkpt>
      <trkpt lat="49.76068" lon="4.81247">
        <ele>257</ele>
        <time>2022-08-19T06:13:06.000Z</time>
      </trkpt>
      <trkpt lat="49.76071" lon="4.8125">
        <ele>257</ele>
        <time>2022-08-19T06:13:07.000Z</time>
      </trkpt>
      <trkpt lat="49.76073" lon="4.81252">
        <ele>257</ele>
        <time>2022-08-19T06:13:08.000Z</time>
      </trkpt>
      <trkpt lat="49.76075" lon="4.81255">
        <ele>258</ele>
        <time>2022-08-19T06:13:09.000Z</time>
      </trkpt>
      <trkpt lat="49.76078" lon="4.81258">
        <ele>258</ele>
        <time>2022-08-19T06:13:10.000Z</time>
      </trkpt>
      <trkpt lat="49.76081" lon="4.81261">
        <ele>258</ele>
        <time>2022-08-19T06:13:11.000Z</time>
      </trkpt>
      <trkpt lat="49.76084" lon="4.81263">
        <ele>258</ele>
        <time>2022-08-19T06:13:12.000Z</time>
      </trkpt>
      <trkpt lat="49.76086" lon="4.81266">
        <ele>258</ele>
        <time>2022-08-19T06:13:13.000Z</time>
      </trkpt>
      <trkpt lat="49.76089" lon="4.81268">
        <ele>258</ele>
        <time>2022-08-19T06:13:14.000Z</time>
      </trkpt>
      <trkpt lat="49.76091" lon="4.8127">
        <ele>259</ele>
        <time>2022-08-19T06:13:15.000Z</time>
      </trkpt>
      <trkpt lat="49.76094" lon="4.81272">
        <ele>259</ele>
        <time>2022-08-19T06:13:16.000Z</time>
      </trkpt>
      <trkpt lat="49.76097" lon="4.81274">
        <ele>259</ele>
        <time>2022-08-19T06:13:17.000Z</time>
      </trkpt>
      <trkpt lat="49.761" lon="4.81276">
        <ele>259</ele>
        <time>2022-08-19T06:13:18.000Z</time>
      </trkpt>
      <trkpt lat="49.76102" lon="4.81278">
        <ele>259</ele>
        <time>2022-08-19T06:13:19.000Z</time>
      </trkpt>
      <trkpt lat="49.76105" lon="4.81281">
        <ele>259</ele>
        <time>2022-08-19T06:13:20.000Z</time>
      </trkpt>
      <trkpt lat="49.76107" lon="4.81283">
        <ele>260</ele>
        <time>2022-08-19T06:13:21.000Z</time>
      </trkpt>
      <trkpt lat="49.76109" lon="4.81286">
        <ele>260</ele>
        <time>2022-08-19T06:13:22.000Z</time>
      </trkpt>
      <trkpt lat="49.7611" lon="4.81288">
        <ele>260</ele>
        <time>2022-08-19T06:13:23.000Z</time>
      </trkpt>
      <trkpt lat="49.76112" lon="4.81291">
        <ele>260</ele>
        <time>2022-08-19T06:13:24.000Z</time>
      </trkpt>
      <trkpt lat="49.76114" lon="4.81293">
        <ele>260</ele>
        <time>2022-08-19T06:13:25.000Z</time>
      </trkpt>
      <trkpt lat="49.76115" lon="4.81295">
        <ele>261</ele>
        <time>2022-08-19T06:13:26.000Z</time>
      </trkpt>
      <trkpt lat="49.76117" lon="4.81296">
        <ele>261</ele>
        <time>2022-08-19T06:13:27.000Z</time>
      </trkpt>
      <trkpt lat="49.76118" lon="4.81298">
        <ele>261</ele>
        <time>2022-08-19T06:13:28.000Z</time>
      </trkpt>
      <trkpt lat="49.7612" lon="4.81299">
        <ele>261</ele>
        <time>2022-08-19T06:13:29.000Z</time>
      </trkpt>
      <trkpt lat="49.76122" lon="4.81301">
        <ele>261</ele>
        <time>2022-08-19T06:13:30.000Z</time>
      </trkpt>
      <trkpt lat="49.76124" lon="4.81302">
        <ele>262</ele>
        <time>2022-08-19T06:13:31.000Z</time>
      </trkpt>
      <trkpt lat="49.76126" lon="4.81304">
        <ele>262</ele>
        <time>2022-08-19T06:13:32.000Z</time>
      </trkpt>
      <trkpt lat="49.76128" lon="4.81307">
        <ele>262</ele>
        <time>2022-08-19T06:13:33.000Z</time>
      </trkpt>
      <trkpt lat="49.76129" lon="4.81309">
        <ele>262</ele>
        <time>2022-08-19T06:13:34.000Z</time>
      </trkpt>
      <trkpt lat="49.76131" lon="4.81312">
        <ele>262</ele>
        <time>2022-08-19T06:13:35.000Z</time>
      </trkpt>
      <trkpt lat="49.76132" lon="4.81314">
        <ele>263</ele>
        <time>2022-08-19T06:13:36.000Z</time>
      </trkpt>
      <trkpt lat="49.76134" lon="4.81318">
        <ele>263</ele>
        <time>2022-08-19T06:13:37.000Z</time>
      </trkpt>
      <trkpt lat="49.76135" lon="4.81321">
        <ele>263</ele>
        <time>2022-08-19T06:13:38.000Z</time>
      </trkpt>
      <trkpt lat="49.76135" lon="4.81324">
        <ele>263</ele>
        <time>2022-08-19T06:13:39.000Z</time>
      </trkpt>
      <trkpt lat="49.76136" lon="4.81327">
        <ele>263</ele>
        <time>2022-08-19T06:13:40.000Z</time>
      </trkpt>
      <trkpt lat="49.76136" lon="4.8133">
        <ele>263</ele>
        <time>2022-08-19T06:13:41.000Z</time>
      </trkpt>
      <trkpt lat="49.76136" lon="4.81333">
        <ele>263</ele>
        <time>2022-08-19T06:13:42.000Z</time>
      </trkpt>
      <trkpt lat="49.76137" lon="4.81336">
        <ele>263</ele>
        <time>2022-08-19T06:13:43.000Z</time>
      </trkpt>
      <trkpt lat="49.76137" lon="4.81338">
        <ele>264</ele>
        <time>2022-08-19T06:13:44.000Z</time>
      </trkpt>
      <trkpt lat="49.76136" lon="4.81341">
        <ele>264</ele>
        <time>2022-08-19T06:13:45.000Z</time>
      </trkpt>
      <trkpt lat="49.76136" lon="4.81344">
        <ele>264</ele>
        <time>2022-08-19T06:13:46.000Z</time>
      </trkpt>
      <trkpt lat="49.76136" lon="4.81346">
        <ele>264</ele>
        <time>2022-08-19T06:13:47.000Z</time>
      </trkpt>
      <trkpt lat="49.76136" lon="4.81348">
        <ele>264</ele>
        <time>2022-08-19T06:13:48.000Z</time>
      </trkpt>
      <trkpt lat="49.76136" lon="4.8135">
        <ele>264</ele>
        <time>2022-08-19T06:13:49.000Z</time>
      </trkpt>
      <trkpt lat="49.76136" lon="4.81352">
        <ele>264</ele>
        <time>2022-08-19T06:13:50.000Z</time>
      </trkpt>
      <trkpt lat="49.76136" lon="4.81354">
        <ele>264</ele>
        <time>2022-08-19T06:13:51.000Z</time>
      </trkpt>
      <trkpt lat="49.76136" lon="4.81357">
        <ele>264</ele>
        <time>2022-08-19T06:13:52.000Z</time>
      </trkpt>
      <trkpt lat="49.76136" lon="4.81359">
        <ele>264</ele>
        <time>2022-08-19T06:13:53.000Z</time>
      </trkpt>
      <trkpt lat="49.76136" lon="4.8136">
        <ele>264</ele>
        <time>2022-08-19T06:13:54.000Z</time>
      </trkpt>
      <trkpt lat="49.76136" lon="4.81362">
        <ele>264</ele>
        <time>2022-08-19T06:13:55.000Z</time>
      </trkpt>
      <trkpt lat="49.76136" lon="4.81364">
        <ele>264</ele>
        <time>2022-08-19T06:13:56.000Z</time>
      </trkpt>
      <trkpt lat="49.76136" lon="4.81367">
        <ele>264</ele>
        <time>2022-08-19T06:13:57.000Z</time>
      </trkpt>
      <trkpt lat="49.76136" lon="4.81369">
        <ele>264</ele>
        <time>2022-08-19T06:13:58.000Z</time>
      </trkpt>
      <trkpt lat="49.76136" lon="4.81372">
        <ele>264</ele>
        <time>2022-08-19T06:13:59.000Z</time>
      </trkpt>
      <trkpt lat="49.76136" lon="4.81374">
        <ele>264</ele>
        <time>2022-08-19T06:14:00.000Z</time>
      </trkpt>
      <trkpt lat="49.76135" lon="4.81377">
        <ele>264</ele>
        <time>2022-08-19T06:14:01.000Z</time>
      </trkpt>
      <trkpt lat="49.76135" lon="4.8138">
        <ele>264</ele>
        <time>2022-08-19T06:14:02.000Z</time>
      </trkpt>
      <trkpt lat="49.76135" lon="4.81383">
        <ele>264</ele>
        <time>2022-08-19T06:14:03.000Z</time>
      </trkpt>
      <trkpt lat="49.76135" lon="4.81386">
        <ele>264</ele>
        <time>2022-08-19T06:14:04.000Z</time>
      </trkpt>
      <trkpt lat="49.76135" lon="4.8139">
        <ele>264</ele>
        <time>2022-08-19T06:14:05.000Z</time>
      </trkpt>
      <trkpt lat="49.76135" lon="4.81394">
        <ele>264</ele>
        <time>2022-08-19T06:14:06.000Z</time>
      </trkpt>
      <trkpt lat="49.76134" lon="4.81397">
        <ele>264</ele>
        <time>2022-08-19T06:14:07.000Z</time>
      </trkpt>
      <trkpt lat="49.76134" lon="4.81401">
        <ele>264</ele>
        <time>2022-08-19T06:14:08.000Z</time>
      </trkpt>
      <trkpt lat="49.76134" lon="4.81404">
        <ele>264</ele>
        <time>2022-08-19T06:14:09.000Z</time>
      </trkpt>
      <trkpt lat="49.76134" lon="4.81407">
        <ele>264</ele>
        <time>2022-08-19T06:14:10.000Z</time>
      </trkpt>
      <trkpt lat="49.76134" lon="4.8141">
        <ele>264</ele>
        <time>2022-08-19T06:14:11.000Z</time>
      </trkpt>
      <trkpt lat="49.76134" lon="4.81414">
        <ele>264</ele>
        <time>2022-08-19T06:14:12.000Z</time>
      </trkpt>
      <trkpt lat="49.76134" lon="4.81417">
        <ele>264</ele>
        <time>2022-08-19T06:14:13.000Z</time>
      </trkpt>
      <trkpt lat="49.76134" lon="4.8142">
        <ele>264</ele>
        <time>2022-08-19T06:14:14.000Z</time>
      </trkpt>
      <trkpt lat="49.76135" lon="4.81423">
        <ele>264</ele>
        <time>2022-08-19T06:14:15.000Z</time>
      </trkpt>
      <trkpt lat="49.76137" lon="4.81425">
        <ele>264</ele>
        <time>2022-08-19T06:14:16.000Z</time>
      </trkpt>
      <trkpt lat="49.76138" lon="4.81428">
        <ele>264</ele>
        <time>2022-08-19T06:14:17.000Z</time>
      </trkpt>
      <trkpt lat="49.7614" lon="4.8143">
        <ele>264</ele>
        <time>2022-08-19T06:14:18.000Z</time>
      </trkpt>
      <trkpt lat="49.76142" lon="4.81431">
        <ele>264</ele>
        <time>2022-08-19T06:14:19.000Z</time>
      </trkpt>
      <trkpt lat="49.76144" lon="4.81432">
        <ele>264</ele>
        <time>2022-08-19T06:14:20.000Z</time>
      </trkpt>
      <trkpt lat="49.76147" lon="4.81433">
        <ele>264</ele>
        <time>2022-08-19T06:14:21.000Z</time>
      </trkpt>
      <trkpt lat="49.76149" lon="4.81433">
        <ele>264</ele>
        <time>2022-08-19T06:14:22.000Z</time>
      </trkpt>
      <trkpt lat="49.76151" lon="4.81434">
        <ele>264</ele>
        <time>2022-08-19T06:14:23.000Z</time>
      </trkpt>
      <trkpt lat="49.76154" lon="4.81435">
        <ele>265</ele>
        <time>2022-08-19T06:14:24.000Z</time>
      </trkpt>
      <trkpt lat="49.76156" lon="4.81435">
        <ele>265</ele>
        <time>2022-08-19T06:14:25.000Z</time>
      </trkpt>
      <trkpt lat="49.76158" lon="4.81436">
        <ele>265</ele>
        <time>2022-08-19T06:14:26.000Z</time>
      </trkpt>
      <trkpt lat="49.76159" lon="4.81437">
        <ele>265</ele>
        <time>2022-08-19T06:14:27.000Z</time>
      </trkpt>
      <trkpt lat="49.76159" lon="4.81437">
        <ele>265</ele>
        <time>2022-08-19T06:14:28.000Z</time>
      </trkpt>
      <trkpt lat="49.76159" lon="4.81438">
        <ele>265</ele>
        <time>2022-08-19T06:14:29.000Z</time>
      </trkpt>
      <trkpt lat="49.76159" lon="4.81438">
        <ele>265</ele>
        <time>2022-08-19T06:14:30.000Z</time>
      </trkpt>
      <trkpt lat="49.76159" lon="4.81438">
        <ele>265</ele>
        <time>2022-08-19T06:14:31.000Z</time>
      </trkpt>
      <trkpt lat="49.76159" lon="4.81438">
        <ele>266</ele>
        <time>2022-08-19T06:14:32.000Z</time>
      </trkpt>
      <trkpt lat="49.76159" lon="4.81438">
        <ele>266</ele>
        <time>2022-08-19T06:14:33.000Z</time>
      </trkpt>
      <trkpt lat="49.76159" lon="4.81438">
        <ele>266</ele>
        <time>2022-08-19T06:14:34.000Z</time>
      </trkpt>
      <trkpt lat="49.76159" lon="4.81438">
        <ele>266</ele>
        <time>2022-08-19T06:14:35.000Z</time>
      </trkpt>
      <trkpt lat="49.76159" lon="4.81438">
        <ele>266</ele>
        <time>2022-08-19T06:14:36.000Z</time>
      </trkpt>
      <trkpt lat="49.76159" lon="4.81438">
        <ele>266</ele>
        <time>2022-08-19T06:14:37.000Z</time>
      </trkpt>
      <trkpt lat="49.76159" lon="4.81438">
        <ele>266</ele>
        <time>2022-08-19T06:14:38.000Z</time>
      </trkpt>
      <trkpt lat="49.76159" lon="4.81438">
        <ele>266</ele>
        <time>2022-08-19T06:14:39.000Z</time>
      </trkpt>
      <trkpt lat="49.76159" lon="4.81438">
        <ele>266</ele>
        <time>2022-08-19T06:14:40.000Z</time>
      </trkpt>
      <trkpt lat="49.76159" lon="4.81438">
        <ele>266</ele>
        <time>2022-08-19T06:14:41.000Z</time>
      </trkpt>
      <trkpt lat="49.76159" lon="4.81438">
        <ele>266</ele>
        <time>2022-08-19T06:14:42.000Z</time>
      </trkpt>
      <trkpt lat="49.76159" lon="4.81438">
        <ele>266</ele>
        <time>2022-08-19T06:14:43.000Z</time>
      </trkpt>
      <trkpt lat="49.76159" lon="4.81438">
        <ele>266</ele>
        <time>2022-08-19T06:14:44.000Z</time>
      </trkpt>
      <trkpt lat="49.76159" lon="4.81438">
        <ele>266</ele>
        <time>2022-08-19T06:14:45.000Z</time>
      </trkpt>
      <trkpt lat="49.76159" lon="4.81438">
        <ele>266</ele>
        <time>2022-08-19T06:14:46.000Z</time>
      </trkpt>
      <trkpt lat="49.76159" lon="4.81438">
        <ele>266</ele>
        <time>2022-08-19T06:14:47.000Z</time>
      </trkpt>
      <trkpt lat="49.76159" lon="4.81438">
        <ele>266</ele>
        <time>2022-08-19T06:14:48.000Z</time>
      </trkpt>
      <trkpt lat="49.76159" lon="4.81438">
        <ele>266</ele>
        <time>2022-08-19T06:14:49.000Z</time>
      </trkpt>
      <trkpt lat="49.76159" lon="4.81438">
        <ele>266</ele>
        <time>2022-08-19T06:14:50.000Z</time>
      </trkpt>
      <trkpt lat="49.76159" lon="4.81438">
        <ele>266</ele>
        <time>2022-08-19T06:14:51.000Z</time>
      </trkpt>
      <trkpt lat="49.76159" lon="4.81438">
        <ele>267</ele>
        <time>2022-08-19T06:14:52.000Z</time>
      </trkpt>
      <trkpt lat="49.76159" lon="4.81438">
        <ele>267</ele>
        <time>2022-08-19T06:14:53.000Z</time>
      </trkpt>
      <trkpt lat="49.76159" lon="4.81438">
        <ele>267</ele>
        <time>2022-08-19T06:14:54.000Z</time>
      </trkpt>
      <trkpt lat="49.76159" lon="4.81438">
        <ele>267</ele>
        <time>2022-08-19T06:14:55.000Z</time>
      </trkpt>
      <trkpt lat="49.76159" lon="4.81438">
        <ele>267</ele>
        <time>2022-08-19T06:14:56.000Z</time>
      </trkpt>
      <trkpt lat="49.76159" lon="4.81438">
        <ele>267</ele>
        <time>2022-08-19T06:14:57.000Z</time>
      </trkpt>
      <trkpt lat="49.76159" lon="4.81438">
        <ele>267</ele>
        <time>2022-08-19T06:14:58.000Z</time>
      </trkpt>
      <trkpt lat="49.76159" lon="4.81438">
        <ele>267</ele>
        <time>2022-08-19T06:14:59.000Z</time>
      </trkpt>
      <trkpt lat="49.76159" lon="4.81438">
        <ele>267</ele>
        <time>2022-08-19T06:15:00.000Z</time>
      </trkpt>
      <trkpt lat="49.76159" lon="4.81438">
        <ele>267</ele>
        <time>2022-08-19T06:15:01.000Z</time>
      </trkpt>
      <trkpt lat="49.76159" lon="4.81438">
        <ele>267</ele>
        <time>2022-08-19T06:15:02.000Z</time>
      </trkpt>
      <trkpt lat="49.76159" lon="4.81438">
        <ele>267</ele>
        <time>2022-08-19T06:15:03.000Z</time>
      </trkpt>
      <trkpt lat="49.7616" lon="4.81437">
        <ele>267</ele>
        <time>2022-08-19T06:15:04.000Z</time>
      </trkpt>
      <trkpt lat="49.7616" lon="4.81437">
        <ele>267</ele>
        <time>2022-08-19T06:15:05.000Z</time>
      </trkpt>
      <trkpt lat="49.76162" lon="4.81438">
        <ele>267</ele>
        <time>2022-08-19T06:15:06.000Z</time>
      </trkpt>
      <trkpt lat="49.76163" lon="4.81439">
        <ele>267</ele>
        <time>2022-08-19T06:15:07.000Z</time>
      </trkpt>
      <trkpt lat="49.76165" lon="4.81439">
        <ele>267</ele>
        <time>2022-08-19T06:15:08.000Z</time>
      </trkpt>
      <trkpt lat="49.76167" lon="4.8144">
        <ele>267</ele>
        <time>2022-08-19T06:15:09.000Z</time>
      </trkpt>
      <trkpt lat="49.76168" lon="4.8144">
        <ele>267</ele>
        <time>2022-08-19T06:15:10.000Z</time>
      </trkpt>
      <trkpt lat="49.7617" lon="4.81441">
        <ele>267</ele>
        <time>2022-08-19T06:15:11.000Z</time>
      </trkpt>
      <trkpt lat="49.76172" lon="4.81442">
        <ele>267</ele>
        <time>2022-08-19T06:15:12.000Z</time>
      </trkpt>
      <trkpt lat="49.76174" lon="4.81443">
        <ele>268</ele>
        <time>2022-08-19T06:15:13.000Z</time>
      </trkpt>
      <trkpt lat="49.76176" lon="4.81443">
        <ele>268</ele>
        <time>2022-08-19T06:15:14.000Z</time>
      </trkpt>
      <trkpt lat="49.76179" lon="4.81443">
        <ele>268</ele>
        <time>2022-08-19T06:15:15.000Z</time>
      </trkpt>
      <trkpt lat="49.76181" lon="4.81443">
        <ele>268</ele>
        <time>2022-08-19T06:15:16.000Z</time>
      </trkpt>
      <trkpt lat="49.76183" lon="4.81443">
        <ele>268</ele>
        <time>2022-08-19T06:15:17.000Z</time>
      </trkpt>
      <trkpt lat="49.76185" lon="4.81442">
        <ele>268</ele>
        <time>2022-08-19T06:15:18.000Z</time>
      </trkpt>
      <trkpt lat="49.76187" lon="4.81441">
        <ele>268</ele>
        <time>2022-08-19T06:15:19.000Z</time>
      </trkpt>
      <trkpt lat="49.76188" lon="4.8144">
        <ele>268</ele>
        <time>2022-08-19T06:15:20.000Z</time>
      </trkpt>
      <trkpt lat="49.76189" lon="4.81437">
        <ele>268</ele>
        <time>2022-08-19T06:15:21.000Z</time>
      </trkpt>
      <trkpt lat="49.7619" lon="4.81433">
        <ele>268</ele>
        <time>2022-08-19T06:15:22.000Z</time>
      </trkpt>
      <trkpt lat="49.76191" lon="4.81428">
        <ele>268</ele>
        <time>2022-08-19T06:15:23.000Z</time>
      </trkpt>
      <trkpt lat="49.76192" lon="4.81421">
        <ele>267</ele>
        <time>2022-08-19T06:15:24.000Z</time>
      </trkpt>
      <trkpt lat="49.76193" lon="4.81414">
        <ele>267</ele>
        <time>2022-08-19T06:15:25.000Z</time>
      </trkpt>
      <trkpt lat="49.76194" lon="4.81405">
        <ele>266</ele>
        <time>2022-08-19T06:15:26.000Z</time>
      </trkpt>
      <trkpt lat="49.76194" lon="4.81396">
        <ele>266</ele>
        <time>2022-08-19T06:15:27.000Z</time>
      </trkpt>
      <trkpt lat="49.76195" lon="4.81386">
        <ele>265</ele>
        <time>2022-08-19T06:15:28.000Z</time>
      </trkpt>
      <trkpt lat="49.76196" lon="4.81374">
        <ele>265</ele>
        <time>2022-08-19T06:15:29.000Z</time>
      </trkpt>
      <trkpt lat="49.76196" lon="4.81362">
        <ele>265</ele>
        <time>2022-08-19T06:15:30.000Z</time>
      </trkpt>
      <trkpt lat="49.76197" lon="4.81349">
        <ele>264</ele>
        <time>2022-08-19T06:15:31.000Z</time>
      </trkpt>
      <trkpt lat="49.76197" lon="4.81337">
        <ele>264</ele>
        <time>2022-08-19T06:15:32.000Z</time>
      </trkpt>
      <trkpt lat="49.76197" lon="4.81325">
        <ele>264</ele>
        <time>2022-08-19T06:15:33.000Z</time>
      </trkpt>
      <trkpt lat="49.76197" lon="4.81313">
        <ele>263</ele>
        <time>2022-08-19T06:15:34.000Z</time>
      </trkpt>
      <trkpt lat="49.76196" lon="4.81302">
        <ele>263</ele>
        <time>2022-08-19T06:15:35.000Z</time>
      </trkpt>
      <trkpt lat="49.76195" lon="4.81292">
        <ele>263</ele>
        <time>2022-08-19T06:15:36.000Z</time>
      </trkpt>
      <trkpt lat="49.76194" lon="4.81284">
        <ele>262</ele>
        <time>2022-08-19T06:15:37.000Z</time>
      </trkpt>
      <trkpt lat="49.76192" lon="4.81276">
        <ele>262</ele>
        <time>2022-08-19T06:15:38.000Z</time>
      </trkpt>
      <trkpt lat="49.76192" lon="4.8127">
        <ele>262</ele>
        <time>2022-08-19T06:15:39.000Z</time>
      </trkpt>
      <trkpt lat="49.76191" lon="4.81263">
        <ele>261</ele>
        <time>2022-08-19T06:15:40.000Z</time>
      </trkpt>
      <trkpt lat="49.76191" lon="4.81257">
        <ele>261</ele>
        <time>2022-08-19T06:15:41.000Z</time>
      </trkpt>
      <trkpt lat="49.7619" lon="4.81251">
        <ele>261</ele>
        <time>2022-08-19T06:15:42.000Z</time>
      </trkpt>
      <trkpt lat="49.7619" lon="4.81245">
        <ele>261</ele>
        <time>2022-08-19T06:15:43.000Z</time>
      </trkpt>
      <trkpt lat="49.76191" lon="4.81239">
        <ele>261</ele>
        <time>2022-08-19T06:15:44.000Z</time>
      </trkpt>
      <trkpt lat="49.76191" lon="4.81233">
        <ele>260</ele>
        <time>2022-08-19T06:15:45.000Z</time>
      </trkpt>
      <trkpt lat="49.76191" lon="4.81226">
        <ele>260</ele>
        <time>2022-08-19T06:15:46.000Z</time>
      </trkpt>
      <trkpt lat="49.76191" lon="4.8122">
        <ele>260</ele>
        <time>2022-08-19T06:15:47.000Z</time>
      </trkpt>
      <trkpt lat="49.76191" lon="4.81213">
        <ele>260</ele>
        <time>2022-08-19T06:15:48.000Z</time>
      </trkpt>
      <trkpt lat="49.76191" lon="4.81207">
        <ele>260</ele>
        <time>2022-08-19T06:15:49.000Z</time>
      </trkpt>
      <trkpt lat="49.76192" lon="4.812">
        <ele>260</ele>
        <time>2022-08-19T06:15:50.000Z</time>
      </trkpt>
      <trkpt lat="49.76192" lon="4.81193">
        <ele>260</ele>
        <time>2022-08-19T06:15:51.000Z</time>
      </trkpt>
      <trkpt lat="49.76192" lon="4.81185">
        <ele>260</ele>
        <time>2022-08-19T06:15:52.000Z</time>
      </trkpt>
      <trkpt lat="49.76193" lon="4.81178">
        <ele>260</ele>
        <time>2022-08-19T06:15:53.000Z</time>
      </trkpt>
      <trkpt lat="49.76193" lon="4.81171">
        <ele>260</ele>
        <time>2022-08-19T06:15:54.000Z</time>
      </trkpt>
      <trkpt lat="49.76194" lon="4.81164">
        <ele>260</ele>
        <time>2022-08-19T06:15:55.000Z</time>
      </trkpt>
      <trkpt lat="49.76194" lon="4.81156">
        <ele>260</ele>
        <time>2022-08-19T06:15:56.000Z</time>
      </trkpt>
      <trkpt lat="49.76194" lon="4.81148">
        <ele>260</ele>
        <time>2022-08-19T06:15:57.000Z</time>
      </trkpt>
      <trkpt lat="49.76195" lon="4.81141">
        <ele>261</ele>
        <time>2022-08-19T06:15:58.000Z</time>
      </trkpt>
      <trkpt lat="49.76195" lon="4.81133">
        <ele>261</ele>
        <time>2022-08-19T06:15:59.000Z</time>
      </trkpt>
      <trkpt lat="49.76196" lon="4.81126">
        <ele>260</ele>
        <time>2022-08-19T06:16:00.000Z</time>
      </trkpt>
      <trkpt lat="49.76197" lon="4.81119">
        <ele>260</ele>
        <time>2022-08-19T06:16:01.000Z</time>
      </trkpt>
      <trkpt lat="49.76197" lon="4.81112">
        <ele>260</ele>
        <time>2022-08-19T06:16:02.000Z</time>
      </trkpt>
      <trkpt lat="49.76198" lon="4.81104">
        <ele>260</ele>
        <time>2022-08-19T06:16:03.000Z</time>
      </trkpt>
      <trkpt lat="49.76198" lon="4.81096">
        <ele>260</ele>
        <time>2022-08-19T06:16:04.000Z</time>
      </trkpt>
      <trkpt lat="49.76199" lon="4.81087">
        <ele>260</ele>
        <time>2022-08-19T06:16:05.000Z</time>
      </trkpt>
      <trkpt lat="49.762" lon="4.81077">
        <ele>260</ele>
        <time>2022-08-19T06:16:06.000Z</time>
      </trkpt>
      <trkpt lat="49.762" lon="4.81068">
        <ele>260</ele>
        <time>2022-08-19T06:16:07.000Z</time>
      </trkpt>
      <trkpt lat="49.76201" lon="4.81058">
        <ele>260</ele>
        <time>2022-08-19T06:16:08.000Z</time>
      </trkpt>
      <trkpt lat="49.76202" lon="4.81048">
        <ele>260</ele>
        <time>2022-08-19T06:16:09.000Z</time>
      </trkpt>
      <trkpt lat="49.76202" lon="4.81039">
        <ele>261</ele>
        <time>2022-08-19T06:16:10.000Z</time>
      </trkpt>
      <trkpt lat="49.76202" lon="4.8103">
        <ele>261</ele>
        <time>2022-08-19T06:16:11.000Z</time>
      </trkpt>
      <trkpt lat="49.76202" lon="4.81021">
        <ele>261</ele>
        <time>2022-08-19T06:16:12.000Z</time>
      </trkpt>
      <trkpt lat="49.76202" lon="4.81012">
        <ele>261</ele>
        <time>2022-08-19T06:16:13.000Z</time>
      </trkpt>
      <trkpt lat="49.76202" lon="4.81003">
        <ele>261</ele>
        <time>2022-08-19T06:16:14.000Z</time>
      </trkpt>
      <trkpt lat="49.76203" lon="4.80995">
        <ele>261</ele>
        <time>2022-08-19T06:16:15.000Z</time>
      </trkpt>
      <trkpt lat="49.76203" lon="4.80986">
        <ele>261</ele>
        <time>2022-08-19T06:16:16.000Z</time>
      </trkpt>
      <trkpt lat="49.76203" lon="4.80978">
        <ele>261</ele>
        <time>2022-08-19T06:16:17.000Z</time>
      </trkpt>
      <trkpt lat="49.76204" lon="4.8097">
        <ele>261</ele>
        <time>2022-08-19T06:16:18.000Z</time>
      </trkpt>
      <trkpt lat="49.76204" lon="4.80963">
        <ele>261</ele>
        <time>2022-08-19T06:16:19.000Z</time>
      </trkpt>
      <trkpt lat="49.76204" lon="4.80955">
        <ele>261</ele>
        <time>2022-08-19T06:16:20.000Z</time>
      </trkpt>
      <trkpt lat="49.76204" lon="4.80948">
        <ele>261</ele>
        <time>2022-08-19T06:16:21.000Z</time>
      </trkpt>
      <trkpt lat="49.76204" lon="4.80941">
        <ele>261</ele>
        <time>2022-08-19T06:16:22.000Z</time>
      </trkpt>
      <trkpt lat="49.76204" lon="4.80934">
        <ele>261</ele>
        <time>2022-08-19T06:16:23.000Z</time>
      </trkpt>
      <trkpt lat="49.76204" lon="4.80927">
        <ele>261</ele>
        <time>2022-08-19T06:16:24.000Z</time>
      </trkpt>
      <trkpt lat="49.76204" lon="4.8092">
        <ele>261</ele>
        <time>2022-08-19T06:16:25.000Z</time>
      </trkpt>
      <trkpt lat="49.76204" lon="4.80913">
        <ele>262</ele>
        <time>2022-08-19T06:16:26.000Z</time>
      </trkpt>
      <trkpt lat="49.76204" lon="4.80908">
        <ele>262</ele>
        <time>2022-08-19T06:16:27.000Z</time>
      </trkpt>
      <trkpt lat="49.76204" lon="4.80904">
        <ele>262</ele>
        <time>2022-08-19T06:16:28.000Z</time>
      </trkpt>
      <trkpt lat="49.76205" lon="4.80901">
        <ele>262</ele>
        <time>2022-08-19T06:16:29.000Z</time>
      </trkpt>
      <trkpt lat="49.76207" lon="4.80899">
        <ele>262</ele>
        <time>2022-08-19T06:16:30.000Z</time>
      </trkpt>
      <trkpt lat="49.76209" lon="4.80897">
        <ele>262</ele>
        <time>2022-08-19T06:16:31.000Z</time>
      </trkpt>
      <trkpt lat="49.76212" lon="4.80896">
        <ele>262</ele>
        <time>2022-08-19T06:16:32.000Z</time>
      </trkpt>
      <trkpt lat="49.76215" lon="4.80896">
        <ele>262</ele>
        <time>2022-08-19T06:16:33.000Z</time>
      </trkpt>
      <trkpt lat="49.76217" lon="4.80897">
        <ele>262</ele>
        <time>2022-08-19T06:16:34.000Z</time>
      </trkpt>
      <trkpt lat="49.76219" lon="4.80898">
        <ele>262</ele>
        <time>2022-08-19T06:16:35.000Z</time>
      </trkpt>
      <trkpt lat="49.76221" lon="4.80899">
        <ele>262</ele>
        <time>2022-08-19T06:16:36.000Z</time>
      </trkpt>
      <trkpt lat="49.76223" lon="4.80901">
        <ele>262</ele>
        <time>2022-08-19T06:16:37.000Z</time>
      </trkpt>
      <trkpt lat="49.76225" lon="4.80902">
        <ele>262</ele>
        <time>2022-08-19T06:16:38.000Z</time>
      </trkpt>
      <trkpt lat="49.76227" lon="4.80903">
        <ele>262</ele>
        <time>2022-08-19T06:16:39.000Z</time>
      </trkpt>
      <trkpt lat="49.7623" lon="4.80904">
        <ele>262</ele>
        <time>2022-08-19T06:16:40.000Z</time>
      </trkpt>
      <trkpt lat="49.76232" lon="4.80906">
        <ele>262</ele>
        <time>2022-08-19T06:16:41.000Z</time>
      </trkpt>
      <trkpt lat="49.76234" lon="4.80907">
        <ele>262</ele>
        <time>2022-08-19T06:16:42.000Z</time>
      </trkpt>
      <trkpt lat="49.76236" lon="4.80909">
        <ele>262</ele>
        <time>2022-08-19T06:16:43.000Z</time>
      </trkpt>
      <trkpt lat="49.76239" lon="4.8091">
        <ele>262</ele>
        <time>2022-08-19T06:16:44.000Z</time>
      </trkpt>
      <trkpt lat="49.76241" lon="4.80911">
        <ele>263</ele>
        <time>2022-08-19T06:16:45.000Z</time>
      </trkpt>
      <trkpt lat="49.76244" lon="4.80912">
        <ele>263</ele>
        <time>2022-08-19T06:16:46.000Z</time>
      </trkpt>
      <trkpt lat="49.76246" lon="4.80914">
        <ele>263</ele>
        <time>2022-08-19T06:16:47.000Z</time>
      </trkpt>
      <trkpt lat="49.76248" lon="4.80915">
        <ele>263</ele>
        <time>2022-08-19T06:16:48.000Z</time>
      </trkpt>
      <trkpt lat="49.76251" lon="4.80916">
        <ele>263</ele>
        <time>2022-08-19T06:16:49.000Z</time>
      </trkpt>
      <trkpt lat="49.76253" lon="4.80918">
        <ele>263</ele>
        <time>2022-08-19T06:16:50.000Z</time>
      </trkpt>
      <trkpt lat="49.76256" lon="4.80919">
        <ele>263</ele>
        <time>2022-08-19T06:16:51.000Z</time>
      </trkpt>
      <trkpt lat="49.76258" lon="4.8092">
        <ele>263</ele>
        <time>2022-08-19T06:16:52.000Z</time>
      </trkpt>
      <trkpt lat="49.76261" lon="4.80922">
        <ele>263</ele>
        <time>2022-08-19T06:16:53.000Z</time>
      </trkpt>
      <trkpt lat="49.76263" lon="4.80923">
        <ele>263</ele>
        <time>2022-08-19T06:16:54.000Z</time>
      </trkpt>
      <trkpt lat="49.76266" lon="4.80924">
        <ele>263</ele>
        <time>2022-08-19T06:16:55.000Z</time>
      </trkpt>
      <trkpt lat="49.76268" lon="4.80925">
        <ele>263</ele>
        <time>2022-08-19T06:16:56.000Z</time>
      </trkpt>
      <trkpt lat="49.76271" lon="4.80927">
        <ele>263</ele>
        <time>2022-08-19T06:16:57.000Z</time>
      </trkpt>
      <trkpt lat="49.76273" lon="4.80928">
        <ele>263</ele>
        <time>2022-08-19T06:16:58.000Z</time>
      </trkpt>
      <trkpt lat="49.76275" lon="4.80929">
        <ele>263</ele>
        <time>2022-08-19T06:16:59.000Z</time>
      </trkpt>
      <trkpt lat="49.76278" lon="4.80931">
        <ele>263</ele>
        <time>2022-08-19T06:17:00.000Z</time>
      </trkpt>
      <trkpt lat="49.7628" lon="4.80932">
        <ele>263</ele>
        <time>2022-08-19T06:17:01.000Z</time>
      </trkpt>
      <trkpt lat="49.76283" lon="4.80933">
        <ele>263</ele>
        <time>2022-08-19T06:17:02.000Z</time>
      </trkpt>
      <trkpt lat="49.76286" lon="4.80935">
        <ele>263</ele>
        <time>2022-08-19T06:17:03.000Z</time>
      </trkpt>
      <trkpt lat="49.76289" lon="4.80936">
        <ele>264</ele>
        <time>2022-08-19T06:17:04.000Z</time>
      </trkpt>
      <trkpt lat="49.76291" lon="4.80937">
        <ele>264</ele>
        <time>2022-08-19T06:17:05.000Z</time>
      </trkpt>
      <trkpt lat="49.76294" lon="4.80938">
        <ele>264</ele>
        <time>2022-08-19T06:17:06.000Z</time>
      </trkpt>
      <trkpt lat="49.76297" lon="4.8094">
        <ele>264</ele>
        <time>2022-08-19T06:17:07.000Z</time>
      </trkpt>
      <trkpt lat="49.76299" lon="4.8094">
        <ele>264</ele>
        <time>2022-08-19T06:17:08.000Z</time>
      </trkpt>
      <trkpt lat="49.76302" lon="4.8094">
        <ele>265</ele>
        <time>2022-08-19T06:17:09.000Z</time>
      </trkpt>
      <trkpt lat="49.76304" lon="4.80938">
        <ele>265</ele>
        <time>2022-08-19T06:17:10.000Z</time>
      </trkpt>
      <trkpt lat="49.76306" lon="4.80937">
        <ele>265</ele>
        <time>2022-08-19T06:17:11.000Z</time>
      </trkpt>
      <trkpt lat="49.76308" lon="4.80934">
        <ele>266</ele>
        <time>2022-08-19T06:17:12.000Z</time>
      </trkpt>
      <trkpt lat="49.76309" lon="4.8093">
        <ele>266</ele>
        <time>2022-08-19T06:17:13.000Z</time>
      </trkpt>
      <trkpt lat="49.7631" lon="4.80926">
        <ele>266</ele>
        <time>2022-08-19T06:17:14.000Z</time>
      </trkpt>
      <trkpt lat="49.76311" lon="4.8092">
        <ele>266</ele>
        <time>2022-08-19T06:17:15.000Z</time>
      </trkpt>
      <trkpt lat="49.76312" lon="4.80914">
        <ele>267</ele>
        <time>2022-08-19T06:17:16.000Z</time>
      </trkpt>
      <trkpt lat="49.76313" lon="4.80908">
        <ele>267</ele>
        <time>2022-08-19T06:17:17.000Z</time>
      </trkpt>
      <trkpt lat="49.76314" lon="4.80903">
        <ele>267</ele>
        <time>2022-08-19T06:17:18.000Z</time>
      </trkpt>
      <trkpt lat="49.76314" lon="4.80897">
        <ele>267</ele>
        <time>2022-08-19T06:17:19.000Z</time>
      </trkpt>
      <trkpt lat="49.76314" lon="4.80892">
        <ele>267</ele>
        <time>2022-08-19T06:17:20.000Z</time>
      </trkpt>
      <trkpt lat="49.76315" lon="4.80887">
        <ele>267</ele>
        <time>2022-08-19T06:17:21.000Z</time>
      </trkpt>
      <trkpt lat="49.76315" lon="4.80882">
        <ele>267</ele>
        <time>2022-08-19T06:17:22.000Z</time>
      </trkpt>
      <trkpt lat="49.76316" lon="4.80876">
        <ele>267</ele>
        <time>2022-08-19T06:17:23.000Z</time>
      </trkpt>
      <trkpt lat="49.76316" lon="4.80871">
        <ele>267</ele>
        <time>2022-08-19T06:17:24.000Z</time>
      </trkpt>
      <trkpt lat="49.76316" lon="4.80865">
        <ele>267</ele>
        <time>2022-08-19T06:17:25.000Z</time>
      </trkpt>
      <trkpt lat="49.76317" lon="4.8086">
        <ele>267</ele>
        <time>2022-08-19T06:17:26.000Z</time>
      </trkpt>
      <trkpt lat="49.76317" lon="4.80854">
        <ele>267</ele>
        <time>2022-08-19T06:17:27.000Z</time>
      </trkpt>
      <trkpt lat="49.76317" lon="4.80849">
        <ele>267</ele>
        <time>2022-08-19T06:17:28.000Z</time>
      </trkpt>
      <trkpt lat="49.76317" lon="4.80843">
        <ele>267</ele>
        <time>2022-08-19T06:17:29.000Z</time>
      </trkpt>
      <trkpt lat="49.76316" lon="4.80837">
        <ele>267</ele>
        <time>2022-08-19T06:17:30.000Z</time>
      </trkpt>
      <trkpt lat="49.76316" lon="4.8083">
        <ele>268</ele>
        <time>2022-08-19T06:17:31.000Z</time>
      </trkpt>
      <trkpt lat="49.76315" lon="4.80824">
        <ele>268</ele>
        <time>2022-08-19T06:17:32.000Z</time>
      </trkpt>
      <trkpt lat="49.76315" lon="4.80818">
        <ele>268</ele>
        <time>2022-08-19T06:17:33.000Z</time>
      </trkpt>
      <trkpt lat="49.76315" lon="4.80811">
        <ele>268</ele>
        <time>2022-08-19T06:17:34.000Z</time>
      </trkpt>
      <trkpt lat="49.76314" lon="4.80805">
        <ele>268</ele>
        <time>2022-08-19T06:17:35.000Z</time>
      </trkpt>
      <trkpt lat="49.76314" lon="4.80798">
        <ele>268</ele>
        <time>2022-08-19T06:17:36.000Z</time>
      </trkpt>
      <trkpt lat="49.76313" lon="4.80792">
        <ele>268</ele>
        <time>2022-08-19T06:17:37.000Z</time>
      </trkpt>
      <trkpt lat="49.76313" lon="4.80785">
        <ele>268</ele>
        <time>2022-08-19T06:17:38.000Z</time>
      </trkpt>
      <trkpt lat="49.76313" lon="4.80778">
        <ele>268</ele>
        <time>2022-08-19T06:17:39.000Z</time>
      </trkpt>
      <trkpt lat="49.76313" lon="4.80772">
        <ele>269</ele>
        <time>2022-08-19T06:17:40.000Z</time>
      </trkpt>
      <trkpt lat="49.76313" lon="4.80765">
        <ele>269</ele>
        <time>2022-08-19T06:17:41.000Z</time>
      </trkpt>
      <trkpt lat="49.76314" lon="4.80759">
        <ele>269</ele>
        <time>2022-08-19T06:17:42.000Z</time>
      </trkpt>
      <trkpt lat="49.76315" lon="4.80752">
        <ele>269</ele>
        <time>2022-08-19T06:17:43.000Z</time>
      </trkpt>
      <trkpt lat="49.76317" lon="4.80745">
        <ele>269</ele>
        <time>2022-08-19T06:17:44.000Z</time>
      </trkpt>
      <trkpt lat="49.76318" lon="4.80739">
        <ele>269</ele>
        <time>2022-08-19T06:17:45.000Z</time>
      </trkpt>
      <trkpt lat="49.76321" lon="4.80733">
        <ele>270</ele>
        <time>2022-08-19T06:17:46.000Z</time>
      </trkpt>
      <trkpt lat="49.76323" lon="4.80727">
        <ele>270</ele>
        <time>2022-08-19T06:17:47.000Z</time>
      </trkpt>
      <trkpt lat="49.76326" lon="4.80722">
        <ele>270</ele>
        <time>2022-08-19T06:17:48.000Z</time>
      </trkpt>
      <trkpt lat="49.76328" lon="4.80716">
        <ele>270</ele>
        <time>2022-08-19T06:17:49.000Z</time>
      </trkpt>
      <trkpt lat="49.76331" lon="4.80711">
        <ele>270</ele>
        <time>2022-08-19T06:17:50.000Z</time>
      </trkpt>
      <trkpt lat="49.76334" lon="4.80706">
        <ele>270</ele>
        <time>2022-08-19T06:17:51.000Z</time>
      </trkpt>
      <trkpt lat="49.76337" lon="4.807">
        <ele>270</ele>
        <time>2022-08-19T06:17:52.000Z</time>
      </trkpt>
      <trkpt lat="49.76339" lon="4.80695">
        <ele>270</ele>
        <time>2022-08-19T06:17:53.000Z</time>
      </trkpt>
      <trkpt lat="49.76342" lon="4.8069">
        <ele>270</ele>
        <time>2022-08-19T06:17:54.000Z</time>
      </trkpt>
      <trkpt lat="49.76345" lon="4.80685">
        <ele>270</ele>
        <time>2022-08-19T06:17:55.000Z</time>
      </trkpt>
      <trkpt lat="49.76348" lon="4.8068">
        <ele>270</ele>
        <time>2022-08-19T06:17:56.000Z</time>
      </trkpt>
      <trkpt lat="49.76351" lon="4.80675">
        <ele>270</ele>
        <time>2022-08-19T06:17:57.000Z</time>
      </trkpt>
      <trkpt lat="49.76354" lon="4.8067">
        <ele>270</ele>
        <time>2022-08-19T06:17:58.000Z</time>
      </trkpt>
      <trkpt lat="49.76357" lon="4.80665">
        <ele>270</ele>
        <time>2022-08-19T06:17:59.000Z</time>
      </trkpt>
      <trkpt lat="49.76361" lon="4.80659">
        <ele>270</ele>
        <time>2022-08-19T06:18:00.000Z</time>
      </trkpt>
      <trkpt lat="49.76364" lon="4.80654">
        <ele>270</ele>
        <time>2022-08-19T06:18:01.000Z</time>
      </trkpt>
      <trkpt lat="49.76368" lon="4.8065">
        <ele>270</ele>
        <time>2022-08-19T06:18:02.000Z</time>
      </trkpt>
      <trkpt lat="49.76373" lon="4.80645">
        <ele>270</ele>
        <time>2022-08-19T06:18:03.000Z</time>
      </trkpt>
      <trkpt lat="49.76377" lon="4.80641">
        <ele>270</ele>
        <time>2022-08-19T06:18:04.000Z</time>
      </trkpt>
      <trkpt lat="49.76382" lon="4.80637">
        <ele>270</ele>
        <time>2022-08-19T06:18:05.000Z</time>
      </trkpt>
      <trkpt lat="49.76387" lon="4.80633">
        <ele>270</ele>
        <time>2022-08-19T06:18:06.000Z</time>
      </trkpt>
      <trkpt lat="49.76391" lon="4.80629">
        <ele>270</ele>
        <time>2022-08-19T06:18:07.000Z</time>
      </trkpt>
      <trkpt lat="49.76396" lon="4.80626">
        <ele>271</ele>
        <time>2022-08-19T06:18:08.000Z</time>
      </trkpt>
      <trkpt lat="49.76401" lon="4.80623">
        <ele>271</ele>
        <time>2022-08-19T06:18:09.000Z</time>
      </trkpt>
      <trkpt lat="49.76405" lon="4.80619">
        <ele>271</ele>
        <time>2022-08-19T06:18:10.000Z</time>
      </trkpt>
      <trkpt lat="49.7641" lon="4.80616">
        <ele>271</ele>
        <time>2022-08-19T06:18:11.000Z</time>
      </trkpt>
      <trkpt lat="49.76415" lon="4.80613">
        <ele>271</ele>
        <time>2022-08-19T06:18:12.000Z</time>
      </trkpt>
      <trkpt lat="49.76419" lon="4.8061">
        <ele>271</ele>
        <time>2022-08-19T06:18:13.000Z</time>
      </trkpt>
      <trkpt lat="49.76424" lon="4.80607">
        <ele>271</ele>
        <time>2022-08-19T06:18:14.000Z</time>
      </trkpt>
      <trkpt lat="49.76428" lon="4.80605">
        <ele>271</ele>
        <time>2022-08-19T06:18:15.000Z</time>
      </trkpt>
      <trkpt lat="49.76433" lon="4.80602">
        <ele>271</ele>
        <time>2022-08-19T06:18:16.000Z</time>
      </trkpt>
      <trkpt lat="49.76437" lon="4.80599">
        <ele>271</ele>
        <time>2022-08-19T06:18:17.000Z</time>
      </trkpt>
      <trkpt lat="49.76441" lon="4.80596">
        <ele>271</ele>
        <time>2022-08-19T06:18:18.000Z</time>
      </trkpt>
      <trkpt lat="49.76445" lon="4.80593">
        <ele>271</ele>
        <time>2022-08-19T06:18:19.000Z</time>
      </trkpt>
      <trkpt lat="49.7645" lon="4.80589">
        <ele>272</ele>
        <time>2022-08-19T06:18:20.000Z</time>
      </trkpt>
      <trkpt lat="49.76455" lon="4.80585">
        <ele>272</ele>
        <time>2022-08-19T06:18:21.000Z</time>
      </trkpt>
      <trkpt lat="49.76459" lon="4.80582">
        <ele>272</ele>
        <time>2022-08-19T06:18:22.000Z</time>
      </trkpt>
      <trkpt lat="49.76464" lon="4.80578">
        <ele>272</ele>
        <time>2022-08-19T06:18:23.000Z</time>
      </trkpt>
      <trkpt lat="49.76468" lon="4.80574">
        <ele>272</ele>
        <time>2022-08-19T06:18:24.000Z</time>
      </trkpt>
      <trkpt lat="49.76473" lon="4.8057">
        <ele>272</ele>
        <time>2022-08-19T06:18:25.000Z</time>
      </trkpt>
      <trkpt lat="49.76477" lon="4.80567">
        <ele>272</ele>
        <time>2022-08-19T06:18:26.000Z</time>
      </trkpt>
      <trkpt lat="49.76481" lon="4.80563">
        <ele>272</ele>
        <time>2022-08-19T06:18:27.000Z</time>
      </trkpt>
      <trkpt lat="49.76485" lon="4.8056">
        <ele>272</ele>
        <time>2022-08-19T06:18:28.000Z</time>
      </trkpt>
      <trkpt lat="49.76489" lon="4.80557">
        <ele>272</ele>
        <time>2022-08-19T06:18:29.000Z</time>
      </trkpt>
      <trkpt lat="49.76492" lon="4.80553">
        <ele>272</ele>
        <time>2022-08-19T06:18:30.000Z</time>
      </trkpt>
      <trkpt lat="49.76496" lon="4.8055">
        <ele>272</ele>
        <time>2022-08-19T06:18:31.000Z</time>
      </trkpt>
      <trkpt lat="49.76499" lon="4.80546">
        <ele>272</ele>
        <time>2022-08-19T06:18:32.000Z</time>
      </trkpt>
      <trkpt lat="49.76503" lon="4.80543">
        <ele>272</ele>
        <time>2022-08-19T06:18:33.000Z</time>
      </trkpt>
      <trkpt lat="49.76506" lon="4.8054">
        <ele>272</ele>
        <time>2022-08-19T06:18:34.000Z</time>
      </trkpt>
      <trkpt lat="49.7651" lon="4.80537">
        <ele>272</ele>
        <time>2022-08-19T06:18:35.000Z</time>
      </trkpt>
      <trkpt lat="49.76514" lon="4.80533">
        <ele>272</ele>
        <time>2022-08-19T06:18:36.000Z</time>
      </trkpt>
      <trkpt lat="49.76518" lon="4.8053">
        <ele>272</ele>
        <time>2022-08-19T06:18:37.000Z</time>
      </trkpt>
      <trkpt lat="49.76521" lon="4.80527">
        <ele>272</ele>
        <time>2022-08-19T06:18:38.000Z</time>
      </trkpt>
      <trkpt lat="49.76525" lon="4.80524">
        <ele>272</ele>
        <time>2022-08-19T06:18:39.000Z</time>
      </trkpt>
      <trkpt lat="49.76528" lon="4.80522">
        <ele>272</ele>
        <time>2022-08-19T06:18:40.000Z</time>
      </trkpt>
      <trkpt lat="49.76532" lon="4.8052">
        <ele>272</ele>
        <time>2022-08-19T06:18:41.000Z</time>
      </trkpt>
      <trkpt lat="49.76536" lon="4.80519">
        <ele>272</ele>
        <time>2022-08-19T06:18:42.000Z</time>
      </trkpt>
      <trkpt lat="49.7654" lon="4.80518">
        <ele>272</ele>
        <time>2022-08-19T06:18:43.000Z</time>
      </trkpt>
      <trkpt lat="49.76544" lon="4.80517">
        <ele>272</ele>
        <time>2022-08-19T06:18:44.000Z</time>
      </trkpt>
      <trkpt lat="49.76547" lon="4.80516">
        <ele>272</ele>
        <time>2022-08-19T06:18:45.000Z</time>
      </trkpt>
      <trkpt lat="49.76551" lon="4.80514">
        <ele>272</ele>
        <time>2022-08-19T06:18:46.000Z</time>
      </trkpt>
      <trkpt lat="49.76555" lon="4.80513">
        <ele>272</ele>
        <time>2022-08-19T06:18:47.000Z</time>
      </trkpt>
      <trkpt lat="49.76558" lon="4.80511">
        <ele>272</ele>
        <time>2022-08-19T06:18:48.000Z</time>
      </trkpt>
      <trkpt lat="49.76562" lon="4.8051">
        <ele>272</ele>
        <time>2022-08-19T06:18:49.000Z</time>
      </trkpt>
      <trkpt lat="49.76565" lon="4.80509">
        <ele>272</ele>
        <time>2022-08-19T06:18:50.000Z</time>
      </trkpt>
      <trkpt lat="49.76569" lon="4.80508">
        <ele>272</ele>
        <time>2022-08-19T06:18:51.000Z</time>
      </trkpt>
      <trkpt lat="49.76572" lon="4.80506">
        <ele>272</ele>
        <time>2022-08-19T06:18:52.000Z</time>
      </trkpt>
      <trkpt lat="49.76576" lon="4.80505">
        <ele>272</ele>
        <time>2022-08-19T06:18:53.000Z</time>
      </trkpt>
      <trkpt lat="49.76579" lon="4.80504">
        <ele>272</ele>
        <time>2022-08-19T06:18:54.000Z</time>
      </trkpt>
      <trkpt lat="49.76583" lon="4.80503">
        <ele>273</ele>
        <time>2022-08-19T06:18:55.000Z</time>
      </trkpt>
      <trkpt lat="49.76587" lon="4.80501">
        <ele>273</ele>
        <time>2022-08-19T06:18:56.000Z</time>
      </trkpt>
      <trkpt lat="49.7659" lon="4.805">
        <ele>273</ele>
        <time>2022-08-19T06:18:57.000Z</time>
      </trkpt>
      <trkpt lat="49.76594" lon="4.80498">
        <ele>273</ele>
        <time>2022-08-19T06:18:58.000Z</time>
      </trkpt>
      <trkpt lat="49.76597" lon="4.80497">
        <ele>273</ele>
        <time>2022-08-19T06:18:59.000Z</time>
      </trkpt>
      <trkpt lat="49.76601" lon="4.80495">
        <ele>273</ele>
        <time>2022-08-19T06:19:00.000Z</time>
      </trkpt>
      <trkpt lat="49.76604" lon="4.80495">
        <ele>273</ele>
        <time>2022-08-19T06:19:01.000Z</time>
      </trkpt>
      <trkpt lat="49.76606" lon="4.80494">
        <ele>273</ele>
        <time>2022-08-19T06:19:02.000Z</time>
      </trkpt>
      <trkpt lat="49.76609" lon="4.80493">
        <ele>274</ele>
        <time>2022-08-19T06:19:03.000Z</time>
      </trkpt>
      <trkpt lat="49.76612" lon="4.80492">
        <ele>274</ele>
        <time>2022-08-19T06:19:04.000Z</time>
      </trkpt>
      <trkpt lat="49.76615" lon="4.80491">
        <ele>274</ele>
        <time>2022-08-19T06:19:05.000Z</time>
      </trkpt>
      <trkpt lat="49.76618" lon="4.8049">
        <ele>274</ele>
        <time>2022-08-19T06:19:06.000Z</time>
      </trkpt>
      <trkpt lat="49.7662" lon="4.80488">
        <ele>274</ele>
        <time>2022-08-19T06:19:07.000Z</time>
      </trkpt>
      <trkpt lat="49.76623" lon="4.80488">
        <ele>274</ele>
        <time>2022-08-19T06:19:08.000Z</time>
      </trkpt>
      <trkpt lat="49.76627" lon="4.80487">
        <ele>275</ele>
        <time>2022-08-19T06:19:09.000Z</time>
      </trkpt>
      <trkpt lat="49.7663" lon="4.80486">
        <ele>275</ele>
        <time>2022-08-19T06:19:10.000Z</time>
      </trkpt>
      <trkpt lat="49.76634" lon="4.80485">
        <ele>275</ele>
        <time>2022-08-19T06:19:11.000Z</time>
      </trkpt>
      <trkpt lat="49.76637" lon="4.80484">
        <ele>275</ele>
        <time>2022-08-19T06:19:12.000Z</time>
      </trkpt>
      <trkpt lat="49.76641" lon="4.80483">
        <ele>275</ele>
        <time>2022-08-19T06:19:13.000Z</time>
      </trkpt>
      <trkpt lat="49.76644" lon="4.80482">
        <ele>276</ele>
        <time>2022-08-19T06:19:14.000Z</time>
      </trkpt>
      <trkpt lat="49.76648" lon="4.80482">
        <ele>276</ele>
        <time>2022-08-19T06:19:15.000Z</time>
      </trkpt>
      <trkpt lat="49.76652" lon="4.80481">
        <ele>276</ele>
        <time>2022-08-19T06:19:16.000Z</time>
      </trkpt>
      <trkpt lat="49.76656" lon="4.80481">
        <ele>276</ele>
        <time>2022-08-19T06:19:17.000Z</time>
      </trkpt>
      <trkpt lat="49.7666" lon="4.80481">
        <ele>276</ele>
        <time>2022-08-19T06:19:18.000Z</time>
      </trkpt>
      <trkpt lat="49.76664" lon="4.80481">
        <ele>277</ele>
        <time>2022-08-19T06:19:19.000Z</time>
      </trkpt>
      <trkpt lat="49.76667" lon="4.80481">
        <ele>277</ele>
        <time>2022-08-19T06:19:20.000Z</time>
      </trkpt>
      <trkpt lat="49.76671" lon="4.80481">
        <ele>277</ele>
        <time>2022-08-19T06:19:21.000Z</time>
      </trkpt>
      <trkpt lat="49.76675" lon="4.80482">
        <ele>277</ele>
        <time>2022-08-19T06:19:22.000Z</time>
      </trkpt>
      <trkpt lat="49.76679" lon="4.80482">
        <ele>277</ele>
        <time>2022-08-19T06:19:23.000Z</time>
      </trkpt>
      <trkpt lat="49.76682" lon="4.80483">
        <ele>277</ele>
        <time>2022-08-19T06:19:24.000Z</time>
      </trkpt>
      <trkpt lat="49.76686" lon="4.80483">
        <ele>278</ele>
        <time>2022-08-19T06:19:25.000Z</time>
      </trkpt>
      <trkpt lat="49.76689" lon="4.80482">
        <ele>278</ele>
        <time>2022-08-19T06:19:26.000Z</time>
      </trkpt>
      <trkpt lat="49.76693" lon="4.8048">
        <ele>278</ele>
        <time>2022-08-19T06:19:27.000Z</time>
      </trkpt>
      <trkpt lat="49.76697" lon="4.80479">
        <ele>278</ele>
        <time>2022-08-19T06:19:28.000Z</time>
      </trkpt>
      <trkpt lat="49.76701" lon="4.80477">
        <ele>278</ele>
        <time>2022-08-19T06:19:29.000Z</time>
      </trkpt>
      <trkpt lat="49.76705" lon="4.80476">
        <ele>278</ele>
        <time>2022-08-19T06:19:30.000Z</time>
      </trkpt>
      <trkpt lat="49.7671" lon="4.80474">
        <ele>278</ele>
        <time>2022-08-19T06:19:31.000Z</time>
      </trkpt>
      <trkpt lat="49.76714" lon="4.80473">
        <ele>278</ele>
        <time>2022-08-19T06:19:32.000Z</time>
      </trkpt>
      <trkpt lat="49.76719" lon="4.80471">
        <ele>278</ele>
        <time>2022-08-19T06:19:33.000Z</time>
      </trkpt>
      <trkpt lat="49.76723" lon="4.8047">
        <ele>279</ele>
        <time>2022-08-19T06:19:34.000Z</time>
      </trkpt>
      <trkpt lat="49.76728" lon="4.80469">
        <ele>279</ele>
        <time>2022-08-19T06:19:35.000Z</time>
      </trkpt>
      <trkpt lat="49.76733" lon="4.80467">
        <ele>279</ele>
        <time>2022-08-19T06:19:36.000Z</time>
      </trkpt>
      <trkpt lat="49.76737" lon="4.80466">
        <ele>279</ele>
        <time>2022-08-19T06:19:37.000Z</time>
      </trkpt>
      <trkpt lat="49.76742" lon="4.80464">
        <ele>279</ele>
        <time>2022-08-19T06:19:38.000Z</time>
      </trkpt>
      <trkpt lat="49.76747" lon="4.80463">
        <ele>279</ele>
        <time>2022-08-19T06:19:39.000Z</time>
      </trkpt>
      <trkpt lat="49.76752" lon="4.80462">
        <ele>279</ele>
        <time>2022-08-19T06:19:40.000Z</time>
      </trkpt>
      <trkpt lat="49.76756" lon="4.80462">
        <ele>279</ele>
        <time>2022-08-19T06:19:41.000Z</time>
      </trkpt>
      <trkpt lat="49.76761" lon="4.80461">
        <ele>279</ele>
        <time>2022-08-19T06:19:42.000Z</time>
      </trkpt>
      <trkpt lat="49.76766" lon="4.8046">
        <ele>279</ele>
        <time>2022-08-19T06:19:43.000Z</time>
      </trkpt>
      <trkpt lat="49.76771" lon="4.80459">
        <ele>279</ele>
        <time>2022-08-19T06:19:44.000Z</time>
      </trkpt>
      <trkpt lat="49.76776" lon="4.80458">
        <ele>279</ele>
        <time>2022-08-19T06:19:45.000Z</time>
      </trkpt>
      <trkpt lat="49.76781" lon="4.80456">
        <ele>279</ele>
        <time>2022-08-19T06:19:46.000Z</time>
      </trkpt>
      <trkpt lat="49.76786" lon="4.80455">
        <ele>279</ele>
        <time>2022-08-19T06:19:47.000Z</time>
      </trkpt>
      <trkpt lat="49.76791" lon="4.80453">
        <ele>280</ele>
        <time>2022-08-19T06:19:48.000Z</time>
      </trkpt>
      <trkpt lat="49.76796" lon="4.80451">
        <ele>280</ele>
        <time>2022-08-19T06:19:49.000Z</time>
      </trkpt>
      <trkpt lat="49.768" lon="4.80448">
        <ele>280</ele>
        <time>2022-08-19T06:19:50.000Z</time>
      </trkpt>
      <trkpt lat="49.76805" lon="4.80446">
        <ele>280</ele>
        <time>2022-08-19T06:19:51.000Z</time>
      </trkpt>
      <trkpt lat="49.7681" lon="4.80443">
        <ele>280</ele>
        <time>2022-08-19T06:19:52.000Z</time>
      </trkpt>
      <trkpt lat="49.76815" lon="4.80441">
        <ele>280</ele>
        <time>2022-08-19T06:19:53.000Z</time>
      </trkpt>
      <trkpt lat="49.76819" lon="4.80438">
        <ele>280</ele>
        <time>2022-08-19T06:19:54.000Z</time>
      </trkpt>
      <trkpt lat="49.76824" lon="4.80435">
        <ele>280</ele>
        <time>2022-08-19T06:19:55.000Z</time>
      </trkpt>
      <trkpt lat="49.76828" lon="4.80432">
        <ele>279</ele>
        <time>2022-08-19T06:19:56.000Z</time>
      </trkpt>
      <trkpt lat="49.76833" lon="4.80428">
        <ele>279</ele>
        <time>2022-08-19T06:19:57.000Z</time>
      </trkpt>
      <trkpt lat="49.76837" lon="4.80424">
        <ele>279</ele>
        <time>2022-08-19T06:19:58.000Z</time>
      </trkpt>
      <trkpt lat="49.76842" lon="4.8042">
        <ele>279</ele>
        <time>2022-08-19T06:19:59.000Z</time>
      </trkpt>
      <trkpt lat="49.76846" lon="4.80416">
        <ele>279</ele>
        <time>2022-08-19T06:20:00.000Z</time>
      </trkpt>
      <trkpt lat="49.76851" lon="4.80412">
        <ele>279</ele>
        <time>2022-08-19T06:20:01.000Z</time>
      </trkpt>
      <trkpt lat="49.76855" lon="4.80409">
        <ele>279</ele>
        <time>2022-08-19T06:20:02.000Z</time>
      </trkpt>
      <trkpt lat="49.7686" lon="4.80406">
        <ele>279</ele>
        <time>2022-08-19T06:20:03.000Z</time>
      </trkpt>
      <trkpt lat="49.76865" lon="4.80403">
        <ele>279</ele>
        <time>2022-08-19T06:20:04.000Z</time>
      </trkpt>
      <trkpt lat="49.7687" lon="4.804">
        <ele>279</ele>
        <time>2022-08-19T06:20:05.000Z</time>
      </trkpt>
      <trkpt lat="49.76875" lon="4.80397">
        <ele>279</ele>
        <time>2022-08-19T06:20:06.000Z</time>
      </trkpt>
      <trkpt lat="49.76879" lon="4.80394">
        <ele>279</ele>
        <time>2022-08-19T06:20:07.000Z</time>
      </trkpt>
      <trkpt lat="49.76884" lon="4.80391">
        <ele>279</ele>
        <time>2022-08-19T06:20:08.000Z</time>
      </trkpt>
      <trkpt lat="49.76888" lon="4.80388">
        <ele>279</ele>
        <time>2022-08-19T06:20:09.000Z</time>
      </trkpt>
      <trkpt lat="49.76893" lon="4.80386">
        <ele>279</ele>
        <time>2022-08-19T06:20:10.000Z</time>
      </trkpt>
      <trkpt lat="49.76897" lon="4.80384">
        <ele>279</ele>
        <time>2022-08-19T06:20:11.000Z</time>
      </trkpt>
      <trkpt lat="49.76901" lon="4.8038">
        <ele>279</ele>
        <time>2022-08-19T06:20:12.000Z</time>
      </trkpt>
      <trkpt lat="49.76905" lon="4.80375">
        <ele>279</ele>
        <time>2022-08-19T06:20:13.000Z</time>
      </trkpt>
      <trkpt lat="49.76909" lon="4.8037">
        <ele>279</ele>
        <time>2022-08-19T06:20:14.000Z</time>
      </trkpt>
      <trkpt lat="49.76913" lon="4.80364">
        <ele>279</ele>
        <time>2022-08-19T06:20:15.000Z</time>
      </trkpt>
      <trkpt lat="49.76916" lon="4.80359">
        <ele>279</ele>
        <time>2022-08-19T06:20:16.000Z</time>
      </trkpt>
      <trkpt lat="49.7692" lon="4.80354">
        <ele>279</ele>
        <time>2022-08-19T06:20:17.000Z</time>
      </trkpt>
      <trkpt lat="49.76923" lon="4.80349">
        <ele>279</ele>
        <time>2022-08-19T06:20:18.000Z</time>
      </trkpt>
      <trkpt lat="49.76927" lon="4.80344">
        <ele>280</ele>
        <time>2022-08-19T06:20:19.000Z</time>
      </trkpt>
      <trkpt lat="49.76931" lon="4.80339">
        <ele>280</ele>
        <time>2022-08-19T06:20:20.000Z</time>
      </trkpt>
      <trkpt lat="49.76935" lon="4.80335">
        <ele>280</ele>
        <time>2022-08-19T06:20:21.000Z</time>
      </trkpt>
      <trkpt lat="49.76939" lon="4.80331">
        <ele>280</ele>
        <time>2022-08-19T06:20:22.000Z</time>
      </trkpt>
      <trkpt lat="49.76943" lon="4.80328">
        <ele>280</ele>
        <time>2022-08-19T06:20:23.000Z</time>
      </trkpt>
      <trkpt lat="49.76946" lon="4.80324">
        <ele>280</ele>
        <time>2022-08-19T06:20:24.000Z</time>
      </trkpt>
      <trkpt lat="49.76949" lon="4.80321">
        <ele>280</ele>
        <time>2022-08-19T06:20:25.000Z</time>
      </trkpt>
      <trkpt lat="49.76951" lon="4.80317">
        <ele>280</ele>
        <time>2022-08-19T06:20:26.000Z</time>
      </trkpt>
      <trkpt lat="49.76953" lon="4.80314">
        <ele>280</ele>
        <time>2022-08-19T06:20:27.000Z</time>
      </trkpt>
      <trkpt lat="49.76955" lon="4.80311">
        <ele>280</ele>
        <time>2022-08-19T06:20:28.000Z</time>
      </trkpt>
      <trkpt lat="49.76958" lon="4.80308">
        <ele>280</ele>
        <time>2022-08-19T06:20:29.000Z</time>
      </trkpt>
      <trkpt lat="49.7696" lon="4.80305">
        <ele>280</ele>
        <time>2022-08-19T06:20:30.000Z</time>
      </trkpt>
      <trkpt lat="49.76961" lon="4.80302">
        <ele>280</ele>
        <time>2022-08-19T06:20:31.000Z</time>
      </trkpt>
      <trkpt lat="49.76963" lon="4.80299">
        <ele>280</ele>
        <time>2022-08-19T06:20:32.000Z</time>
      </trkpt>
      <trkpt lat="49.76965" lon="4.80297">
        <ele>280</ele>
        <time>2022-08-19T06:20:33.000Z</time>
      </trkpt>
      <trkpt lat="49.76967" lon="4.80295">
        <ele>280</ele>
        <time>2022-08-19T06:20:34.000Z</time>
      </trkpt>
      <trkpt lat="49.76968" lon="4.80292">
        <ele>280</ele>
        <time>2022-08-19T06:20:35.000Z</time>
      </trkpt>
      <trkpt lat="49.7697" lon="4.8029">
        <ele>280</ele>
        <time>2022-08-19T06:20:36.000Z</time>
      </trkpt>
      <trkpt lat="49.76972" lon="4.80288">
        <ele>280</ele>
        <time>2022-08-19T06:20:37.000Z</time>
      </trkpt>
      <trkpt lat="49.76974" lon="4.80285">
        <ele>280</ele>
        <time>2022-08-19T06:20:38.000Z</time>
      </trkpt>
      <trkpt lat="49.76975" lon="4.80283">
        <ele>281</ele>
        <time>2022-08-19T06:20:39.000Z</time>
      </trkpt>
      <trkpt lat="49.76977" lon="4.8028">
        <ele>281</ele>
        <time>2022-08-19T06:20:40.000Z</time>
      </trkpt>
      <trkpt lat="49.76978" lon="4.80277">
        <ele>281</ele>
        <time>2022-08-19T06:20:41.000Z</time>
      </trkpt>
      <trkpt lat="49.7698" lon="4.80274">
        <ele>281</ele>
        <time>2022-08-19T06:20:42.000Z</time>
      </trkpt>
      <trkpt lat="49.76982" lon="4.80271">
        <ele>281</ele>
        <time>2022-08-19T06:20:43.000Z</time>
      </trkpt>
      <trkpt lat="49.76985" lon="4.80268">
        <ele>281</ele>
        <time>2022-08-19T06:20:44.000Z</time>
      </trkpt>
      <trkpt lat="49.76987" lon="4.80265">
        <ele>281</ele>
        <time>2022-08-19T06:20:45.000Z</time>
      </trkpt>
      <trkpt lat="49.76989" lon="4.80262">
        <ele>281</ele>
        <time>2022-08-19T06:20:46.000Z</time>
      </trkpt>
      <trkpt lat="49.76991" lon="4.80259">
        <ele>281</ele>
        <time>2022-08-19T06:20:47.000Z</time>
      </trkpt>
      <trkpt lat="49.76994" lon="4.80257">
        <ele>281</ele>
        <time>2022-08-19T06:20:48.000Z</time>
      </trkpt>
      <trkpt lat="49.76996" lon="4.80254">
        <ele>282</ele>
        <time>2022-08-19T06:20:49.000Z</time>
      </trkpt>
      <trkpt lat="49.76998" lon="4.80251">
        <ele>282</ele>
        <time>2022-08-19T06:20:50.000Z</time>
      </trkpt>
      <trkpt lat="49.77001" lon="4.80249">
        <ele>282</ele>
        <time>2022-08-19T06:20:51.000Z</time>
      </trkpt>
      <trkpt lat="49.77003" lon="4.80247">
        <ele>282</ele>
        <time>2022-08-19T06:20:52.000Z</time>
      </trkpt>
      <trkpt lat="49.77006" lon="4.80244">
        <ele>282</ele>
        <time>2022-08-19T06:20:53.000Z</time>
      </trkpt>
      <trkpt lat="49.77008" lon="4.80242">
        <ele>283</ele>
        <time>2022-08-19T06:20:54.000Z</time>
      </trkpt>
      <trkpt lat="49.7701" lon="4.80239">
        <ele>283</ele>
        <time>2022-08-19T06:20:55.000Z</time>
      </trkpt>
      <trkpt lat="49.77013" lon="4.80235">
        <ele>283</ele>
        <time>2022-08-19T06:20:56.000Z</time>
      </trkpt>
      <trkpt lat="49.77015" lon="4.80232">
        <ele>283</ele>
        <time>2022-08-19T06:20:57.000Z</time>
      </trkpt>
      <trkpt lat="49.77017" lon="4.80229">
        <ele>284</ele>
        <time>2022-08-19T06:20:58.000Z</time>
      </trkpt>
      <trkpt lat="49.77019" lon="4.80225">
        <ele>284</ele>
        <time>2022-08-19T06:20:59.000Z</time>
      </trkpt>
      <trkpt lat="49.77021" lon="4.80221">
        <ele>284</ele>
        <time>2022-08-19T06:21:00.000Z</time>
      </trkpt>
      <trkpt lat="49.77023" lon="4.80217">
        <ele>285</ele>
        <time>2022-08-19T06:21:01.000Z</time>
      </trkpt>
      <trkpt lat="49.77025" lon="4.80213">
        <ele>285</ele>
        <time>2022-08-19T06:21:02.000Z</time>
      </trkpt>
      <trkpt lat="49.77027" lon="4.80209">
        <ele>285</ele>
        <time>2022-08-19T06:21:03.000Z</time>
      </trkpt>
      <trkpt lat="49.77029" lon="4.80207">
        <ele>285</ele>
        <time>2022-08-19T06:21:04.000Z</time>
      </trkpt>
      <trkpt lat="49.77032" lon="4.80204">
        <ele>286</ele>
        <time>2022-08-19T06:21:05.000Z</time>
      </trkpt>
      <trkpt lat="49.77035" lon="4.80202">
        <ele>286</ele>
        <time>2022-08-19T06:21:06.000Z</time>
      </trkpt>
      <trkpt lat="49.77038" lon="4.802">
        <ele>286</ele>
        <time>2022-08-19T06:21:07.000Z</time>
      </trkpt>
      <trkpt lat="49.77041" lon="4.80198">
        <ele>287</ele>
        <time>2022-08-19T06:21:08.000Z</time>
      </trkpt>
      <trkpt lat="49.77043" lon="4.80195">
        <ele>287</ele>
        <time>2022-08-19T06:21:09.000Z</time>
      </trkpt>
      <trkpt lat="49.77046" lon="4.80192">
        <ele>287</ele>
        <time>2022-08-19T06:21:10.000Z</time>
      </trkpt>
      <trkpt lat="49.77048" lon="4.80189">
        <ele>287</ele>
        <time>2022-08-19T06:21:11.000Z</time>
      </trkpt>
      <trkpt lat="49.77051" lon="4.80186">
        <ele>287</ele>
        <time>2022-08-19T06:21:12.000Z</time>
      </trkpt>
      <trkpt lat="49.77054" lon="4.80183">
        <ele>288</ele>
        <time>2022-08-19T06:21:13.000Z</time>
      </trkpt>
      <trkpt lat="49.77056" lon="4.80179">
        <ele>288</ele>
        <time>2022-08-19T06:21:14.000Z</time>
      </trkpt>
      <trkpt lat="49.77059" lon="4.80175">
        <ele>288</ele>
        <time>2022-08-19T06:21:15.000Z</time>
      </trkpt>
      <trkpt lat="49.77062" lon="4.80171">
        <ele>288</ele>
        <time>2022-08-19T06:21:16.000Z</time>
      </trkpt>
      <trkpt lat="49.77065" lon="4.80167">
        <ele>289</ele>
        <time>2022-08-19T06:21:17.000Z</time>
      </trkpt>
      <trkpt lat="49.77068" lon="4.80164">
        <ele>289</ele>
        <time>2022-08-19T06:21:18.000Z</time>
      </trkpt>
      <trkpt lat="49.77071" lon="4.80161">
        <ele>289</ele>
        <time>2022-08-19T06:21:19.000Z</time>
      </trkpt>
      <trkpt lat="49.77075" lon="4.80159">
        <ele>289</ele>
        <time>2022-08-19T06:21:20.000Z</time>
      </trkpt>
      <trkpt lat="49.77078" lon="4.80156">
        <ele>289</ele>
        <time>2022-08-19T06:21:21.000Z</time>
      </trkpt>
      <trkpt lat="49.77081" lon="4.80155">
        <ele>290</ele>
        <time>2022-08-19T06:21:22.000Z</time>
      </trkpt>
      <trkpt lat="49.77084" lon="4.80155">
        <ele>290</ele>
        <time>2022-08-19T06:21:23.000Z</time>
      </trkpt>
      <trkpt lat="49.77087" lon="4.80157">
        <ele>290</ele>
        <time>2022-08-19T06:21:24.000Z</time>
      </trkpt>
      <trkpt lat="49.7709" lon="4.8016">
        <ele>290</ele>
        <time>2022-08-19T06:21:25.000Z</time>
      </trkpt>
      <trkpt lat="49.77093" lon="4.80163">
        <ele>290</ele>
        <time>2022-08-19T06:21:26.000Z</time>
      </trkpt>
      <trkpt lat="49.77096" lon="4.80166">
        <ele>291</ele>
        <time>2022-08-19T06:21:27.000Z</time>
      </trkpt>
      <trkpt lat="49.77099" lon="4.80169">
        <ele>291</ele>
        <time>2022-08-19T06:21:28.000Z</time>
      </trkpt>
      <trkpt lat="49.77103" lon="4.80171">
        <ele>291</ele>
        <time>2022-08-19T06:21:29.000Z</time>
      </trkpt>
      <trkpt lat="49.77106" lon="4.80174">
        <ele>291</ele>
        <time>2022-08-19T06:21:30.000Z</time>
      </trkpt>
      <trkpt lat="49.77109" lon="4.80175">
        <ele>291</ele>
        <time>2022-08-19T06:21:31.000Z</time>
      </trkpt>
      <trkpt lat="49.77113" lon="4.80177">
        <ele>291</ele>
        <time>2022-08-19T06:21:32.000Z</time>
      </trkpt>
      <trkpt lat="49.77116" lon="4.80178">
        <ele>292</ele>
        <time>2022-08-19T06:21:33.000Z</time>
      </trkpt>
      <trkpt lat="49.77119" lon="4.80178">
        <ele>292</ele>
        <time>2022-08-19T06:21:34.000Z</time>
      </trkpt>
      <trkpt lat="49.77123" lon="4.80178">
        <ele>292</ele>
        <time>2022-08-19T06:21:35.000Z</time>
      </trkpt>
      <trkpt lat="49.77127" lon="4.80177">
        <ele>292</ele>
        <time>2022-08-19T06:21:36.000Z</time>
      </trkpt>
      <trkpt lat="49.7713" lon="4.80176">
        <ele>293</ele>
        <time>2022-08-19T06:21:37.000Z</time>
      </trkpt>
      <trkpt lat="49.77134" lon="4.80175">
        <ele>293</ele>
        <time>2022-08-19T06:21:38.000Z</time>
      </trkpt>
      <trkpt lat="49.77137" lon="4.80174">
        <ele>293</ele>
        <time>2022-08-19T06:21:39.000Z</time>
      </trkpt>
      <trkpt lat="49.7714" lon="4.80173">
        <ele>293</ele>
        <time>2022-08-19T06:21:40.000Z</time>
      </trkpt>
      <trkpt lat="49.77144" lon="4.80172">
        <ele>293</ele>
        <time>2022-08-19T06:21:41.000Z</time>
      </trkpt>
      <trkpt lat="49.77147" lon="4.80171">
        <ele>293</ele>
        <time>2022-08-19T06:21:42.000Z</time>
      </trkpt>
      <trkpt lat="49.77151" lon="4.8017">
        <ele>293</ele>
        <time>2022-08-19T06:21:43.000Z</time>
      </trkpt>
      <trkpt lat="49.77154" lon="4.80171">
        <ele>293</ele>
        <time>2022-08-19T06:21:44.000Z</time>
      </trkpt>
      <trkpt lat="49.77158" lon="4.80171">
        <ele>293</ele>
        <time>2022-08-19T06:21:45.000Z</time>
      </trkpt>
      <trkpt lat="49.77162" lon="4.80171">
        <ele>294</ele>
        <time>2022-08-19T06:21:46.000Z</time>
      </trkpt>
      <trkpt lat="49.77167" lon="4.8017">
        <ele>294</ele>
        <time>2022-08-19T06:21:47.000Z</time>
      </trkpt>
      <trkpt lat="49.77172" lon="4.8017">
        <ele>294</ele>
        <time>2022-08-19T06:21:48.000Z</time>
      </trkpt>
      <trkpt lat="49.77177" lon="4.80169">
        <ele>294</ele>
        <time>2022-08-19T06:21:49.000Z</time>
      </trkpt>
      <trkpt lat="49.77182" lon="4.80169">
        <ele>294</ele>
        <time>2022-08-19T06:21:50.000Z</time>
      </trkpt>
      <trkpt lat="49.77187" lon="4.80169">
        <ele>294</ele>
        <time>2022-08-19T06:21:51.000Z</time>
      </trkpt>
      <trkpt lat="49.77192" lon="4.80169">
        <ele>294</ele>
        <time>2022-08-19T06:21:52.000Z</time>
      </trkpt>
      <trkpt lat="49.77197" lon="4.80168">
        <ele>294</ele>
        <time>2022-08-19T06:21:53.000Z</time>
      </trkpt>
      <trkpt lat="49.77201" lon="4.80167">
        <ele>294</ele>
        <time>2022-08-19T06:21:54.000Z</time>
      </trkpt>
      <trkpt lat="49.77206" lon="4.80167">
        <ele>294</ele>
        <time>2022-08-19T06:21:55.000Z</time>
      </trkpt>
      <trkpt lat="49.77211" lon="4.80166">
        <ele>294</ele>
        <time>2022-08-19T06:21:56.000Z</time>
      </trkpt>
      <trkpt lat="49.77216" lon="4.80165">
        <ele>294</ele>
        <time>2022-08-19T06:21:57.000Z</time>
      </trkpt>
      <trkpt lat="49.77221" lon="4.80165">
        <ele>294</ele>
        <time>2022-08-19T06:21:58.000Z</time>
      </trkpt>
      <trkpt lat="49.77226" lon="4.80164">
        <ele>294</ele>
        <time>2022-08-19T06:21:59.000Z</time>
      </trkpt>
      <trkpt lat="49.77231" lon="4.80163">
        <ele>294</ele>
        <time>2022-08-19T06:22:00.000Z</time>
      </trkpt>
      <trkpt lat="49.77237" lon="4.80162">
        <ele>294</ele>
        <time>2022-08-19T06:22:01.000Z</time>
      </trkpt>
      <trkpt lat="49.77242" lon="4.80161">
        <ele>293</ele>
        <time>2022-08-19T06:22:02.000Z</time>
      </trkpt>
      <trkpt lat="49.77247" lon="4.8016">
        <ele>293</ele>
        <time>2022-08-19T06:22:03.000Z</time>
      </trkpt>
      <trkpt lat="49.77253" lon="4.8016">
        <ele>293</ele>
        <time>2022-08-19T06:22:04.000Z</time>
      </trkpt>
      <trkpt lat="49.77258" lon="4.80159">
        <ele>293</ele>
        <time>2022-08-19T06:22:05.000Z</time>
      </trkpt>
      <trkpt lat="49.77263" lon="4.80158">
        <ele>293</ele>
        <time>2022-08-19T06:22:06.000Z</time>
      </trkpt>
      <trkpt lat="49.77269" lon="4.80157">
        <ele>293</ele>
        <time>2022-08-19T06:22:07.000Z</time>
      </trkpt>
      <trkpt lat="49.77274" lon="4.80156">
        <ele>292</ele>
        <time>2022-08-19T06:22:08.000Z</time>
      </trkpt>
      <trkpt lat="49.77279" lon="4.80155">
        <ele>292</ele>
        <time>2022-08-19T06:22:09.000Z</time>
      </trkpt>
      <trkpt lat="49.77284" lon="4.80154">
        <ele>292</ele>
        <time>2022-08-19T06:22:10.000Z</time>
      </trkpt>
      <trkpt lat="49.77289" lon="4.80154">
        <ele>292</ele>
        <time>2022-08-19T06:22:11.000Z</time>
      </trkpt>
      <trkpt lat="49.77294" lon="4.80153">
        <ele>291</ele>
        <time>2022-08-19T06:22:12.000Z</time>
      </trkpt>
      <trkpt lat="49.77299" lon="4.80152">
        <ele>291</ele>
        <time>2022-08-19T06:22:13.000Z</time>
      </trkpt>
      <trkpt lat="49.77303" lon="4.80151">
        <ele>291</ele>
        <time>2022-08-19T06:22:14.000Z</time>
      </trkpt>
      <trkpt lat="49.77308" lon="4.80149">
        <ele>291</ele>
        <time>2022-08-19T06:22:15.000Z</time>
      </trkpt>
      <trkpt lat="49.77313" lon="4.80148">
        <ele>291</ele>
        <time>2022-08-19T06:22:16.000Z</time>
      </trkpt>
      <trkpt lat="49.77318" lon="4.80147">
        <ele>290</ele>
        <time>2022-08-19T06:22:17.000Z</time>
      </trkpt>
      <trkpt lat="49.77322" lon="4.80145">
        <ele>290</ele>
        <time>2022-08-19T06:22:18.000Z</time>
      </trkpt>
      <trkpt lat="49.77327" lon="4.80143">
        <ele>290</ele>
        <time>2022-08-19T06:22:19.000Z</time>
      </trkpt>
      <trkpt lat="49.77331" lon="4.80141">
        <ele>290</ele>
        <time>2022-08-19T06:22:20.000Z</time>
      </trkpt>
      <trkpt lat="49.77335" lon="4.80139">
        <ele>290</ele>
        <time>2022-08-19T06:22:21.000Z</time>
      </trkpt>
      <trkpt lat="49.77339" lon="4.80137">
        <ele>290</ele>
        <time>2022-08-19T06:22:22.000Z</time>
      </trkpt>
      <trkpt lat="49.77344" lon="4.80135">
        <ele>290</ele>
        <time>2022-08-19T06:22:23.000Z</time>
      </trkpt>
      <trkpt lat="49.77348" lon="4.80132">
        <ele>290</ele>
        <time>2022-08-19T06:22:24.000Z</time>
      </trkpt>
      <trkpt lat="49.77352" lon="4.80129">
        <ele>290</ele>
        <time>2022-08-19T06:22:25.000Z</time>
      </trkpt>
      <trkpt lat="49.77356" lon="4.80125">
        <ele>290</ele>
        <time>2022-08-19T06:22:26.000Z</time>
      </trkpt>
      <trkpt lat="49.77361" lon="4.80121">
        <ele>289</ele>
        <time>2022-08-19T06:22:27.000Z</time>
      </trkpt>
      <trkpt lat="49.77365" lon="4.80118">
        <ele>289</ele>
        <time>2022-08-19T06:22:28.000Z</time>
      </trkpt>
      <trkpt lat="49.7737" lon="4.80113">
        <ele>289</ele>
        <time>2022-08-19T06:22:29.000Z</time>
      </trkpt>
      <trkpt lat="49.77374" lon="4.80108">
        <ele>289</ele>
        <time>2022-08-19T06:22:30.000Z</time>
      </trkpt>
      <trkpt lat="49.77378" lon="4.80103">
        <ele>289</ele>
        <time>2022-08-19T06:22:31.000Z</time>
      </trkpt>
      <trkpt lat="49.77382" lon="4.80098">
        <ele>288</ele>
        <time>2022-08-19T06:22:32.000Z</time>
      </trkpt>
      <trkpt lat="49.77386" lon="4.80092">
        <ele>288</ele>
        <time>2022-08-19T06:22:33.000Z</time>
      </trkpt>
      <trkpt lat="49.7739" lon="4.80087">
        <ele>288</ele>
        <time>2022-08-19T06:22:34.000Z</time>
      </trkpt>
      <trkpt lat="49.77394" lon="4.80081">
        <ele>288</ele>
        <time>2022-08-19T06:22:35.000Z</time>
      </trkpt>
      <trkpt lat="49.77398" lon="4.80075">
        <ele>287</ele>
        <time>2022-08-19T06:22:36.000Z</time>
      </trkpt>
      <trkpt lat="49.77401" lon="4.80068">
        <ele>287</ele>
        <time>2022-08-19T06:22:37.000Z</time>
      </trkpt>
      <trkpt lat="49.77405" lon="4.80061">
        <ele>287</ele>
        <time>2022-08-19T06:22:38.000Z</time>
      </trkpt>
      <trkpt lat="49.77409" lon="4.80054">
        <ele>286</ele>
        <time>2022-08-19T06:22:39.000Z</time>
      </trkpt>
      <trkpt lat="49.77413" lon="4.80049">
        <ele>286</ele>
        <time>2022-08-19T06:22:40.000Z</time>
      </trkpt>
      <trkpt lat="49.77417" lon="4.80043">
        <ele>286</ele>
        <time>2022-08-19T06:22:41.000Z</time>
      </trkpt>
      <trkpt lat="49.77421" lon="4.80039">
        <ele>286</ele>
        <time>2022-08-19T06:22:42.000Z</time>
      </trkpt>
      <trkpt lat="49.77426" lon="4.80036">
        <ele>286</ele>
        <time>2022-08-19T06:22:43.000Z</time>
      </trkpt>
      <trkpt lat="49.77431" lon="4.80034">
        <ele>285</ele>
        <time>2022-08-19T06:22:44.000Z</time>
      </trkpt>
      <trkpt lat="49.77436" lon="4.80034">
        <ele>285</ele>
        <time>2022-08-19T06:22:45.000Z</time>
      </trkpt>
      <trkpt lat="49.77441" lon="4.80034">
        <ele>285</ele>
        <time>2022-08-19T06:22:46.000Z</time>
      </trkpt>
      <trkpt lat="49.77447" lon="4.80034">
        <ele>285</ele>
        <time>2022-08-19T06:22:47.000Z</time>
      </trkpt>
      <trkpt lat="49.77454" lon="4.80032">
        <ele>285</ele>
        <time>2022-08-19T06:22:48.000Z</time>
      </trkpt>
      <trkpt lat="49.77461" lon="4.80028">
        <ele>284</ele>
        <time>2022-08-19T06:22:49.000Z</time>
      </trkpt>
      <trkpt lat="49.77469" lon="4.80024">
        <ele>283</ele>
        <time>2022-08-19T06:22:50.000Z</time>
      </trkpt>
      <trkpt lat="49.77476" lon="4.80018">
        <ele>282</ele>
        <time>2022-08-19T06:22:51.000Z</time>
      </trkpt>
      <trkpt lat="49.77483" lon="4.80013">
        <ele>281</ele>
        <time>2022-08-19T06:22:52.000Z</time>
      </trkpt>
      <trkpt lat="49.77489" lon="4.80008">
        <ele>280</ele>
        <time>2022-08-19T06:22:53.000Z</time>
      </trkpt>
      <trkpt lat="49.77496" lon="4.80003">
        <ele>279</ele>
        <time>2022-08-19T06:22:54.000Z</time>
      </trkpt>
      <trkpt lat="49.77503" lon="4.79998">
        <ele>278</ele>
        <time>2022-08-19T06:22:55.000Z</time>
      </trkpt>
      <trkpt lat="49.77511" lon="4.79994">
        <ele>277</ele>
        <time>2022-08-19T06:22:56.000Z</time>
      </trkpt>
      <trkpt lat="49.77519" lon="4.79991">
        <ele>275</ele>
        <time>2022-08-19T06:22:57.000Z</time>
      </trkpt>
      <trkpt lat="49.77527" lon="4.79989">
        <ele>274</ele>
        <time>2022-08-19T06:22:58.000Z</time>
      </trkpt>
      <trkpt lat="49.77536" lon="4.79988">
        <ele>273</ele>
        <time>2022-08-19T06:22:59.000Z</time>
      </trkpt>
      <trkpt lat="49.77545" lon="4.79987">
        <ele>272</ele>
        <time>2022-08-19T06:23:00.000Z</time>
      </trkpt>
      <trkpt lat="49.77554" lon="4.79986">
        <ele>271</ele>
        <time>2022-08-19T06:23:01.000Z</time>
      </trkpt>
      <trkpt lat="49.77563" lon="4.79984">
        <ele>269</ele>
        <time>2022-08-19T06:23:02.000Z</time>
      </trkpt>
      <trkpt lat="49.77572" lon="4.79982">
        <ele>268</ele>
        <time>2022-08-19T06:23:03.000Z</time>
      </trkpt>
      <trkpt lat="49.77581" lon="4.79981">
        <ele>267</ele>
        <time>2022-08-19T06:23:04.000Z</time>
      </trkpt>
      <trkpt lat="49.7759" lon="4.7998">
        <ele>266</ele>
        <time>2022-08-19T06:23:05.000Z</time>
      </trkpt>
      <trkpt lat="49.77599" lon="4.79979">
        <ele>266</ele>
        <time>2022-08-19T06:23:06.000Z</time>
      </trkpt>
      <trkpt lat="49.77608" lon="4.79978">
        <ele>265</ele>
        <time>2022-08-19T06:23:07.000Z</time>
      </trkpt>
      <trkpt lat="49.77616" lon="4.79977">
        <ele>264</ele>
        <time>2022-08-19T06:23:08.000Z</time>
      </trkpt>
      <trkpt lat="49.77624" lon="4.79975">
        <ele>264</ele>
        <time>2022-08-19T06:23:09.000Z</time>
      </trkpt>
      <trkpt lat="49.77631" lon="4.79972">
        <ele>263</ele>
        <time>2022-08-19T06:23:10.000Z</time>
      </trkpt>
      <trkpt lat="49.77638" lon="4.79969">
        <ele>263</ele>
        <time>2022-08-19T06:23:11.000Z</time>
      </trkpt>
      <trkpt lat="49.77644" lon="4.79966">
        <ele>262</ele>
        <time>2022-08-19T06:23:12.000Z</time>
      </trkpt>
      <trkpt lat="49.7765" lon="4.79962">
        <ele>262</ele>
        <time>2022-08-19T06:23:13.000Z</time>
      </trkpt>
      <trkpt lat="49.77656" lon="4.79957">
        <ele>261</ele>
        <time>2022-08-19T06:23:14.000Z</time>
      </trkpt>
      <trkpt lat="49.77661" lon="4.79953">
        <ele>261</ele>
        <time>2022-08-19T06:23:15.000Z</time>
      </trkpt>
      <trkpt lat="49.77666" lon="4.79949">
        <ele>261</ele>
        <time>2022-08-19T06:23:16.000Z</time>
      </trkpt>
      <trkpt lat="49.77671" lon="4.79944">
        <ele>260</ele>
        <time>2022-08-19T06:23:17.000Z</time>
      </trkpt>
      <trkpt lat="49.77676" lon="4.79938">
        <ele>260</ele>
        <time>2022-08-19T06:23:18.000Z</time>
      </trkpt>
      <trkpt lat="49.77681" lon="4.79932">
        <ele>260</ele>
        <time>2022-08-19T06:23:19.000Z</time>
      </trkpt>
      <trkpt lat="49.77686" lon="4.79926">
        <ele>259</ele>
        <time>2022-08-19T06:23:20.000Z</time>
      </trkpt>
      <trkpt lat="49.77691" lon="4.7992">
        <ele>259</ele>
        <time>2022-08-19T06:23:21.000Z</time>
      </trkpt>
      <trkpt lat="49.77697" lon="4.79914">
        <ele>259</ele>
        <time>2022-08-19T06:23:22.000Z</time>
      </trkpt>
      <trkpt lat="49.77702" lon="4.79908">
        <ele>258</ele>
        <time>2022-08-19T06:23:23.000Z</time>
      </trkpt>
      <trkpt lat="49.77707" lon="4.79902">
        <ele>258</ele>
        <time>2022-08-19T06:23:24.000Z</time>
      </trkpt>
      <trkpt lat="49.77712" lon="4.79897">
        <ele>257</ele>
        <time>2022-08-19T06:23:25.000Z</time>
      </trkpt>
      <trkpt lat="49.77717" lon="4.79892">
        <ele>257</ele>
        <time>2022-08-19T06:23:26.000Z</time>
      </trkpt>
      <trkpt lat="49.77722" lon="4.79888">
        <ele>257</ele>
        <time>2022-08-19T06:23:27.000Z</time>
      </trkpt>
      <trkpt lat="49.77727" lon="4.79884">
        <ele>257</ele>
        <time>2022-08-19T06:23:28.000Z</time>
      </trkpt>
      <trkpt lat="49.77732" lon="4.7988">
        <ele>257</ele>
        <time>2022-08-19T06:23:29.000Z</time>
      </trkpt>
      <trkpt lat="49.77737" lon="4.79876">
        <ele>256</ele>
        <time>2022-08-19T06:23:30.000Z</time>
      </trkpt>
      <trkpt lat="49.77743" lon="4.79872">
        <ele>256</ele>
        <time>2022-08-19T06:23:31.000Z</time>
      </trkpt>
      <trkpt lat="49.77748" lon="4.79868">
        <ele>256</ele>
        <time>2022-08-19T06:23:32.000Z</time>
      </trkpt>
      <trkpt lat="49.77753" lon="4.79863">
        <ele>256</ele>
        <time>2022-08-19T06:23:33.000Z</time>
      </trkpt>
      <trkpt lat="49.77759" lon="4.79859">
        <ele>256</ele>
        <time>2022-08-19T06:23:34.000Z</time>
      </trkpt>
      <trkpt lat="49.77764" lon="4.79854">
        <ele>255</ele>
        <time>2022-08-19T06:23:35.000Z</time>
      </trkpt>
      <trkpt lat="49.77769" lon="4.7985">
        <ele>255</ele>
        <time>2022-08-19T06:23:36.000Z</time>
      </trkpt>
      <trkpt lat="49.77773" lon="4.79845">
        <ele>255</ele>
        <time>2022-08-19T06:23:37.000Z</time>
      </trkpt>
      <trkpt lat="49.77778" lon="4.7984">
        <ele>255</ele>
        <time>2022-08-19T06:23:38.000Z</time>
      </trkpt>
      <trkpt lat="49.77782" lon="4.79835">
        <ele>255</ele>
        <time>2022-08-19T06:23:39.000Z</time>
      </trkpt>
      <trkpt lat="49.77787" lon="4.7983">
        <ele>255</ele>
        <time>2022-08-19T06:23:40.000Z</time>
      </trkpt>
      <trkpt lat="49.77791" lon="4.79825">
        <ele>255</ele>
        <time>2022-08-19T06:23:41.000Z</time>
      </trkpt>
      <trkpt lat="49.77795" lon="4.7982">
        <ele>255</ele>
        <time>2022-08-19T06:23:42.000Z</time>
      </trkpt>
      <trkpt lat="49.77799" lon="4.79817">
        <ele>255</ele>
        <time>2022-08-19T06:23:43.000Z</time>
      </trkpt>
      <trkpt lat="49.77804" lon="4.79813">
        <ele>255</ele>
        <time>2022-08-19T06:23:44.000Z</time>
      </trkpt>
      <trkpt lat="49.77809" lon="4.7981">
        <ele>255</ele>
        <time>2022-08-19T06:23:45.000Z</time>
      </trkpt>
      <trkpt lat="49.77814" lon="4.79807">
        <ele>255</ele>
        <time>2022-08-19T06:23:46.000Z</time>
      </trkpt>
      <trkpt lat="49.77819" lon="4.79804">
        <ele>255</ele>
        <time>2022-08-19T06:23:47.000Z</time>
      </trkpt>
      <trkpt lat="49.77823" lon="4.79802">
        <ele>255</ele>
        <time>2022-08-19T06:23:48.000Z</time>
      </trkpt>
      <trkpt lat="49.77828" lon="4.798">
        <ele>255</ele>
        <time>2022-08-19T06:23:49.000Z</time>
      </trkpt>
      <trkpt lat="49.77832" lon="4.79798">
        <ele>255</ele>
        <time>2022-08-19T06:23:50.000Z</time>
      </trkpt>
      <trkpt lat="49.77836" lon="4.79796">
        <ele>255</ele>
        <time>2022-08-19T06:23:51.000Z</time>
      </trkpt>
      <trkpt lat="49.77841" lon="4.79793">
        <ele>255</ele>
        <time>2022-08-19T06:23:52.000Z</time>
      </trkpt>
      <trkpt lat="49.77845" lon="4.79788">
        <ele>255</ele>
        <time>2022-08-19T06:23:53.000Z</time>
      </trkpt>
      <trkpt lat="49.77851" lon="4.79784">
        <ele>255</ele>
        <time>2022-08-19T06:23:54.000Z</time>
      </trkpt>
      <trkpt lat="49.77856" lon="4.79779">
        <ele>255</ele>
        <time>2022-08-19T06:23:55.000Z</time>
      </trkpt>
      <trkpt lat="49.77862" lon="4.79774">
        <ele>256</ele>
        <time>2022-08-19T06:23:56.000Z</time>
      </trkpt>
      <trkpt lat="49.77868" lon="4.79769">
        <ele>255</ele>
        <time>2022-08-19T06:23:57.000Z</time>
      </trkpt>
      <trkpt lat="49.77875" lon="4.79764">
        <ele>255</ele>
        <time>2022-08-19T06:23:58.000Z</time>
      </trkpt>
      <trkpt lat="49.77881" lon="4.79758">
        <ele>255</ele>
        <time>2022-08-19T06:23:59.000Z</time>
      </trkpt>
      <trkpt lat="49.77886" lon="4.79754">
        <ele>255</ele>
        <time>2022-08-19T06:24:00.000Z</time>
      </trkpt>
      <trkpt lat="49.77892" lon="4.79749">
        <ele>255</ele>
        <time>2022-08-19T06:24:01.000Z</time>
      </trkpt>
      <trkpt lat="49.77897" lon="4.79744">
        <ele>255</ele>
        <time>2022-08-19T06:24:02.000Z</time>
      </trkpt>
      <trkpt lat="49.77903" lon="4.7974">
        <ele>254</ele>
        <time>2022-08-19T06:24:03.000Z</time>
      </trkpt>
      <trkpt lat="49.77909" lon="4.79738">
        <ele>254</ele>
        <time>2022-08-19T06:24:04.000Z</time>
      </trkpt>
      <trkpt lat="49.77916" lon="4.79736">
        <ele>254</ele>
        <time>2022-08-19T06:24:05.000Z</time>
      </trkpt>
      <trkpt lat="49.77923" lon="4.79733">
        <ele>253</ele>
        <time>2022-08-19T06:24:06.000Z</time>
      </trkpt>
      <trkpt lat="49.77931" lon="4.79731">
        <ele>253</ele>
        <time>2022-08-19T06:24:07.000Z</time>
      </trkpt>
      <trkpt lat="49.77938" lon="4.7973">
        <ele>252</ele>
        <time>2022-08-19T06:24:08.000Z</time>
      </trkpt>
      <trkpt lat="49.77946" lon="4.79729">
        <ele>252</ele>
        <time>2022-08-19T06:24:09.000Z</time>
      </trkpt>
      <trkpt lat="49.77953" lon="4.79727">
        <ele>251</ele>
        <time>2022-08-19T06:24:10.000Z</time>
      </trkpt>
      <trkpt lat="49.7796" lon="4.79727">
        <ele>251</ele>
        <time>2022-08-19T06:24:11.000Z</time>
      </trkpt>
      <trkpt lat="49.77966" lon="4.79728">
        <ele>251</ele>
        <time>2022-08-19T06:24:12.000Z</time>
      </trkpt>
      <trkpt lat="49.7797" lon="4.79733">
        <ele>250</ele>
        <time>2022-08-19T06:24:13.000Z</time>
      </trkpt>
      <trkpt lat="49.77974" lon="4.79739">
        <ele>250</ele>
        <time>2022-08-19T06:24:14.000Z</time>
      </trkpt>
      <trkpt lat="49.77977" lon="4.79747">
        <ele>250</ele>
        <time>2022-08-19T06:24:15.000Z</time>
      </trkpt>
      <trkpt lat="49.77979" lon="4.79754">
        <ele>250</ele>
        <time>2022-08-19T06:24:16.000Z</time>
      </trkpt>
      <trkpt lat="49.77983" lon="4.79761">
        <ele>250</ele>
        <time>2022-08-19T06:24:17.000Z</time>
      </trkpt>
      <trkpt lat="49.77987" lon="4.79766">
        <ele>250</ele>
        <time>2022-08-19T06:24:18.000Z</time>
      </trkpt>
      <trkpt lat="49.77991" lon="4.79771">
        <ele>251</ele>
        <time>2022-08-19T06:24:19.000Z</time>
      </trkpt>
      <trkpt lat="49.77996" lon="4.79774">
        <ele>251</ele>
        <time>2022-08-19T06:24:20.000Z</time>
      </trkpt>
      <trkpt lat="49.78001" lon="4.79776">
        <ele>251</ele>
        <time>2022-08-19T06:24:21.000Z</time>
      </trkpt>
      <trkpt lat="49.78006" lon="4.79777">
        <ele>251</ele>
        <time>2022-08-19T06:24:22.000Z</time>
      </trkpt>
      <trkpt lat="49.78011" lon="4.79779">
        <ele>251</ele>
        <time>2022-08-19T06:24:23.000Z</time>
      </trkpt>
      <trkpt lat="49.78016" lon="4.79781">
        <ele>251</ele>
        <time>2022-08-19T06:24:24.000Z</time>
      </trkpt>
      <trkpt lat="49.78021" lon="4.79782">
        <ele>251</ele>
        <time>2022-08-19T06:24:25.000Z</time>
      </trkpt>
      <trkpt lat="49.78026" lon="4.79783">
        <ele>251</ele>
        <time>2022-08-19T06:24:26.000Z</time>
      </trkpt>
      <trkpt lat="49.78031" lon="4.79783">
        <ele>251</ele>
        <time>2022-08-19T06:24:27.000Z</time>
      </trkpt>
      <trkpt lat="49.78035" lon="4.79783">
        <ele>251</ele>
        <time>2022-08-19T06:24:28.000Z</time>
      </trkpt>
      <trkpt lat="49.7804" lon="4.79783">
        <ele>251</ele>
        <time>2022-08-19T06:24:29.000Z</time>
      </trkpt>
      <trkpt lat="49.78045" lon="4.79783">
        <ele>251</ele>
        <time>2022-08-19T06:24:30.000Z</time>
      </trkpt>
      <trkpt lat="49.78049" lon="4.79783">
        <ele>251</ele>
        <time>2022-08-19T06:24:31.000Z</time>
      </trkpt>
      <trkpt lat="49.78054" lon="4.79782">
        <ele>251</ele>
        <time>2022-08-19T06:24:32.000Z</time>
      </trkpt>
      <trkpt lat="49.78059" lon="4.79782">
        <ele>251</ele>
        <time>2022-08-19T06:24:33.000Z</time>
      </trkpt>
      <trkpt lat="49.78063" lon="4.79781">
        <ele>251</ele>
        <time>2022-08-19T06:24:34.000Z</time>
      </trkpt>
      <trkpt lat="49.78068" lon="4.79778">
        <ele>251</ele>
        <time>2022-08-19T06:24:35.000Z</time>
      </trkpt>
      <trkpt lat="49.78072" lon="4.79775">
        <ele>251</ele>
        <time>2022-08-19T06:24:36.000Z</time>
      </trkpt>
      <trkpt lat="49.78076" lon="4.7977">
        <ele>251</ele>
        <time>2022-08-19T06:24:37.000Z</time>
      </trkpt>
      <trkpt lat="49.78081" lon="4.79765">
        <ele>250</ele>
        <time>2022-08-19T06:24:38.000Z</time>
      </trkpt>
      <trkpt lat="49.78084" lon="4.79762">
        <ele>250</ele>
        <time>2022-08-19T06:24:39.000Z</time>
      </trkpt>
      <trkpt lat="49.78087" lon="4.79758">
        <ele>250</ele>
        <time>2022-08-19T06:24:40.000Z</time>
      </trkpt>
      <trkpt lat="49.7809" lon="4.79752">
        <ele>250</ele>
        <time>2022-08-19T06:24:41.000Z</time>
      </trkpt>
      <trkpt lat="49.78094" lon="4.79746">
        <ele>250</ele>
        <time>2022-08-19T06:24:42.000Z</time>
      </trkpt>
      <trkpt lat="49.78097" lon="4.79739">
        <ele>250</ele>
        <time>2022-08-19T06:24:43.000Z</time>
      </trkpt>
      <trkpt lat="49.78102" lon="4.79734">
        <ele>250</ele>
        <time>2022-08-19T06:24:44.000Z</time>
      </trkpt>
      <trkpt lat="49.78105" lon="4.79728">
        <ele>250</ele>
        <time>2022-08-19T06:24:45.000Z</time>
      </trkpt>
      <trkpt lat="49.78108" lon="4.79722">
        <ele>251</ele>
        <time>2022-08-19T06:24:46.000Z</time>
      </trkpt>
      <trkpt lat="49.78111" lon="4.79717">
        <ele>251</ele>
        <time>2022-08-19T06:24:47.000Z</time>
      </trkpt>
      <trkpt lat="49.78114" lon="4.79711">
        <ele>251</ele>
        <time>2022-08-19T06:24:48.000Z</time>
      </trkpt>
      <trkpt lat="49.78117" lon="4.79706">
        <ele>251</ele>
        <time>2022-08-19T06:24:49.000Z</time>
      </trkpt>
      <trkpt lat="49.78121" lon="4.79702">
        <ele>251</ele>
        <time>2022-08-19T06:24:50.000Z</time>
      </trkpt>
      <trkpt lat="49.78126" lon="4.79699">
        <ele>251</ele>
        <time>2022-08-19T06:24:51.000Z</time>
      </trkpt>
      <trkpt lat="49.78129" lon="4.79696">
        <ele>252</ele>
        <time>2022-08-19T06:24:52.000Z</time>
      </trkpt>
      <trkpt lat="49.78133" lon="4.79694">
        <ele>252</ele>
        <time>2022-08-19T06:24:53.000Z</time>
      </trkpt>
      <trkpt lat="49.78136" lon="4.79692">
        <ele>252</ele>
        <time>2022-08-19T06:24:54.000Z</time>
      </trkpt>
      <trkpt lat="49.7814" lon="4.79689">
        <ele>252</ele>
        <time>2022-08-19T06:24:55.000Z</time>
      </trkpt>
      <trkpt lat="49.78144" lon="4.79686">
        <ele>252</ele>
        <time>2022-08-19T06:24:56.000Z</time>
      </trkpt>
      <trkpt lat="49.78148" lon="4.79684">
        <ele>252</ele>
        <time>2022-08-19T06:24:57.000Z</time>
      </trkpt>
      <trkpt lat="49.78153" lon="4.79681">
        <ele>252</ele>
        <time>2022-08-19T06:24:58.000Z</time>
      </trkpt>
      <trkpt lat="49.78157" lon="4.79679">
        <ele>252</ele>
        <time>2022-08-19T06:24:59.000Z</time>
      </trkpt>
      <trkpt lat="49.78162" lon="4.79676">
        <ele>252</ele>
        <time>2022-08-19T06:25:00.000Z</time>
      </trkpt>
      <trkpt lat="49.78165" lon="4.79672">
        <ele>252</ele>
        <time>2022-08-19T06:25:01.000Z</time>
      </trkpt>
      <trkpt lat="49.78169" lon="4.79669">
        <ele>252</ele>
        <time>2022-08-19T06:25:02.000Z</time>
      </trkpt>
      <trkpt lat="49.78173" lon="4.79665">
        <ele>252</ele>
        <time>2022-08-19T06:25:03.000Z</time>
      </trkpt>
      <trkpt lat="49.78177" lon="4.79662">
        <ele>252</ele>
        <time>2022-08-19T06:25:04.000Z</time>
      </trkpt>
      <trkpt lat="49.78181" lon="4.79658">
        <ele>252</ele>
        <time>2022-08-19T06:25:05.000Z</time>
      </trkpt>
      <trkpt lat="49.78185" lon="4.79655">
        <ele>252</ele>
        <time>2022-08-19T06:25:06.000Z</time>
      </trkpt>
      <trkpt lat="49.78189" lon="4.79651">
        <ele>252</ele>
        <time>2022-08-19T06:25:07.000Z</time>
      </trkpt>
      <trkpt lat="49.78193" lon="4.79647">
        <ele>252</ele>
        <time>2022-08-19T06:25:08.000Z</time>
      </trkpt>
      <trkpt lat="49.78198" lon="4.79643">
        <ele>252</ele>
        <time>2022-08-19T06:25:09.000Z</time>
      </trkpt>
      <trkpt lat="49.78202" lon="4.79639">
        <ele>252</ele>
        <time>2022-08-19T06:25:10.000Z</time>
      </trkpt>
      <trkpt lat="49.78207" lon="4.79634">
        <ele>252</ele>
        <time>2022-08-19T06:25:11.000Z</time>
      </trkpt>
      <trkpt lat="49.78212" lon="4.7963">
        <ele>252</ele>
        <time>2022-08-19T06:25:12.000Z</time>
      </trkpt>
      <trkpt lat="49.78217" lon="4.79627">
        <ele>252</ele>
        <time>2022-08-19T06:25:13.000Z</time>
      </trkpt>
      <trkpt lat="49.78222" lon="4.79623">
        <ele>252</ele>
        <time>2022-08-19T06:25:14.000Z</time>
      </trkpt>
      <trkpt lat="49.78228" lon="4.79619">
        <ele>251</ele>
        <time>2022-08-19T06:25:15.000Z</time>
      </trkpt>
      <trkpt lat="49.78233" lon="4.79615">
        <ele>251</ele>
        <time>2022-08-19T06:25:16.000Z</time>
      </trkpt>
      <trkpt lat="49.7824" lon="4.79612">
        <ele>251</ele>
        <time>2022-08-19T06:25:17.000Z</time>
      </trkpt>
      <trkpt lat="49.78246" lon="4.79608">
        <ele>251</ele>
        <time>2022-08-19T06:25:18.000Z</time>
      </trkpt>
      <trkpt lat="49.78253" lon="4.79605">
        <ele>251</ele>
        <time>2022-08-19T06:25:19.000Z</time>
      </trkpt>
      <trkpt lat="49.7826" lon="4.79603">
        <ele>250</ele>
        <time>2022-08-19T06:25:20.000Z</time>
      </trkpt>
      <trkpt lat="49.78267" lon="4.79601">
        <ele>250</ele>
        <time>2022-08-19T06:25:21.000Z</time>
      </trkpt>
      <trkpt lat="49.78274" lon="4.79599">
        <ele>250</ele>
        <time>2022-08-19T06:25:22.000Z</time>
      </trkpt>
      <trkpt lat="49.78281" lon="4.79597">
        <ele>250</ele>
        <time>2022-08-19T06:25:23.000Z</time>
      </trkpt>
      <trkpt lat="49.78288" lon="4.79595">
        <ele>249</ele>
        <time>2022-08-19T06:25:24.000Z</time>
      </trkpt>
      <trkpt lat="49.78295" lon="4.79594">
        <ele>249</ele>
        <time>2022-08-19T06:25:25.000Z</time>
      </trkpt>
      <trkpt lat="49.78303" lon="4.79594">
        <ele>249</ele>
        <time>2022-08-19T06:25:26.000Z</time>
      </trkpt>
      <trkpt lat="49.7831" lon="4.79596">
        <ele>249</ele>
        <time>2022-08-19T06:25:27.000Z</time>
      </trkpt>
      <trkpt lat="49.78317" lon="4.796">
        <ele>249</ele>
        <time>2022-08-19T06:25:28.000Z</time>
      </trkpt>
      <trkpt lat="49.78323" lon="4.79603">
        <ele>249</ele>
        <time>2022-08-19T06:25:29.000Z</time>
      </trkpt>
      <trkpt lat="49.78329" lon="4.79607">
        <ele>249</ele>
        <time>2022-08-19T06:25:30.000Z</time>
      </trkpt>
      <trkpt lat="49.78334" lon="4.7961">
        <ele>249</ele>
        <time>2022-08-19T06:25:31.000Z</time>
      </trkpt>
      <trkpt lat="49.7834" lon="4.79613">
        <ele>250</ele>
        <time>2022-08-19T06:25:32.000Z</time>
      </trkpt>
      <trkpt lat="49.78346" lon="4.79617">
        <ele>250</ele>
        <time>2022-08-19T06:25:33.000Z</time>
      </trkpt>
      <trkpt lat="49.78351" lon="4.79621">
        <ele>250</ele>
        <time>2022-08-19T06:25:34.000Z</time>
      </trkpt>
      <trkpt lat="49.78357" lon="4.79624">
        <ele>250</ele>
        <time>2022-08-19T06:25:35.000Z</time>
      </trkpt>
      <trkpt lat="49.78362" lon="4.79628">
        <ele>250</ele>
        <time>2022-08-19T06:25:36.000Z</time>
      </trkpt>
      <trkpt lat="49.78367" lon="4.79632">
        <ele>251</ele>
        <time>2022-08-19T06:25:37.000Z</time>
      </trkpt>
      <trkpt lat="49.78372" lon="4.79635">
        <ele>251</ele>
        <time>2022-08-19T06:25:38.000Z</time>
      </trkpt>
      <trkpt lat="49.78377" lon="4.79638">
        <ele>251</ele>
        <time>2022-08-19T06:25:39.000Z</time>
      </trkpt>
      <trkpt lat="49.78382" lon="4.79641">
        <ele>251</ele>
        <time>2022-08-19T06:25:40.000Z</time>
      </trkpt>
      <trkpt lat="49.78387" lon="4.79644">
        <ele>251</ele>
        <time>2022-08-19T06:25:41.000Z</time>
      </trkpt>
      <trkpt lat="49.78392" lon="4.79647">
        <ele>251</ele>
        <time>2022-08-19T06:25:42.000Z</time>
      </trkpt>
      <trkpt lat="49.78397" lon="4.7965">
        <ele>252</ele>
        <time>2022-08-19T06:25:43.000Z</time>
      </trkpt>
      <trkpt lat="49.78402" lon="4.79653">
        <ele>252</ele>
        <time>2022-08-19T06:25:44.000Z</time>
      </trkpt>
      <trkpt lat="49.78407" lon="4.79655">
        <ele>252</ele>
        <time>2022-08-19T06:25:45.000Z</time>
      </trkpt>
      <trkpt lat="49.78412" lon="4.79657">
        <ele>252</ele>
        <time>2022-08-19T06:25:46.000Z</time>
      </trkpt>
      <trkpt lat="49.78417" lon="4.79659">
        <ele>252</ele>
        <time>2022-08-19T06:25:47.000Z</time>
      </trkpt>
      <trkpt lat="49.78422" lon="4.79661">
        <ele>253</ele>
        <time>2022-08-19T06:25:48.000Z</time>
      </trkpt>
      <trkpt lat="49.78426" lon="4.79662">
        <ele>253</ele>
        <time>2022-08-19T06:25:49.000Z</time>
      </trkpt>
      <trkpt lat="49.78431" lon="4.79664">
        <ele>253</ele>
        <time>2022-08-19T06:25:50.000Z</time>
      </trkpt>
      <trkpt lat="49.78436" lon="4.79666">
        <ele>253</ele>
        <time>2022-08-19T06:25:51.000Z</time>
      </trkpt>
      <trkpt lat="49.7844" lon="4.79668">
        <ele>253</ele>
        <time>2022-08-19T06:25:52.000Z</time>
      </trkpt>
      <trkpt lat="49.78445" lon="4.7967">
        <ele>253</ele>
        <time>2022-08-19T06:25:53.000Z</time>
      </trkpt>
      <trkpt lat="49.78449" lon="4.79672">
        <ele>254</ele>
        <time>2022-08-19T06:25:54.000Z</time>
      </trkpt>
      <trkpt lat="49.78454" lon="4.79674">
        <ele>254</ele>
        <time>2022-08-19T06:25:55.000Z</time>
      </trkpt>
      <trkpt lat="49.78458" lon="4.79676">
        <ele>254</ele>
        <time>2022-08-19T06:25:56.000Z</time>
      </trkpt>
      <trkpt lat="49.78463" lon="4.79678">
        <ele>254</ele>
        <time>2022-08-19T06:25:57.000Z</time>
      </trkpt>
      <trkpt lat="49.78467" lon="4.79679">
        <ele>254</ele>
        <time>2022-08-19T06:25:58.000Z</time>
      </trkpt>
      <trkpt lat="49.78472" lon="4.79681">
        <ele>255</ele>
        <time>2022-08-19T06:25:59.000Z</time>
      </trkpt>
      <trkpt lat="49.78476" lon="4.79683">
        <ele>255</ele>
        <time>2022-08-19T06:26:00.000Z</time>
      </trkpt>
      <trkpt lat="49.78481" lon="4.79684">
        <ele>255</ele>
        <time>2022-08-19T06:26:01.000Z</time>
      </trkpt>
      <trkpt lat="49.78485" lon="4.79686">
        <ele>255</ele>
        <time>2022-08-19T06:26:02.000Z</time>
      </trkpt>
      <trkpt lat="49.7849" lon="4.79687">
        <ele>255</ele>
        <time>2022-08-19T06:26:03.000Z</time>
      </trkpt>
      <trkpt lat="49.78494" lon="4.79689">
        <ele>255</ele>
        <time>2022-08-19T06:26:04.000Z</time>
      </trkpt>
      <trkpt lat="49.78498" lon="4.79691">
        <ele>256</ele>
        <time>2022-08-19T06:26:05.000Z</time>
      </trkpt>
      <trkpt lat="49.78503" lon="4.79693">
        <ele>256</ele>
        <time>2022-08-19T06:26:06.000Z</time>
      </trkpt>
      <trkpt lat="49.78507" lon="4.79695">
        <ele>256</ele>
        <time>2022-08-19T06:26:07.000Z</time>
      </trkpt>
      <trkpt lat="49.78511" lon="4.79696">
        <ele>256</ele>
        <time>2022-08-19T06:26:08.000Z</time>
      </trkpt>
      <trkpt lat="49.78516" lon="4.79698">
        <ele>257</ele>
        <time>2022-08-19T06:26:09.000Z</time>
      </trkpt>
      <trkpt lat="49.7852" lon="4.79699">
        <ele>257</ele>
        <time>2022-08-19T06:26:10.000Z</time>
      </trkpt>
      <trkpt lat="49.78524" lon="4.79701">
        <ele>257</ele>
        <time>2022-08-19T06:26:11.000Z</time>
      </trkpt>
      <trkpt lat="49.78529" lon="4.79702">
        <ele>257</ele>
        <time>2022-08-19T06:26:12.000Z</time>
      </trkpt>
      <trkpt lat="49.78533" lon="4.79703">
        <ele>258</ele>
        <time>2022-08-19T06:26:13.000Z</time>
      </trkpt>
      <trkpt lat="49.78537" lon="4.79704">
        <ele>258</ele>
        <time>2022-08-19T06:26:14.000Z</time>
      </trkpt>
      <trkpt lat="49.78541" lon="4.79705">
        <ele>258</ele>
        <time>2022-08-19T06:26:15.000Z</time>
      </trkpt>
      <trkpt lat="49.78545" lon="4.79706">
        <ele>258</ele>
        <time>2022-08-19T06:26:16.000Z</time>
      </trkpt>
      <trkpt lat="49.78549" lon="4.79707">
        <ele>258</ele>
        <time>2022-08-19T06:26:17.000Z</time>
      </trkpt>
      <trkpt lat="49.78553" lon="4.79709">
        <ele>259</ele>
        <time>2022-08-19T06:26:18.000Z</time>
      </trkpt>
      <trkpt lat="49.78557" lon="4.7971">
        <ele>259</ele>
        <time>2022-08-19T06:26:19.000Z</time>
      </trkpt>
      <trkpt lat="49.7856" lon="4.79712">
        <ele>259</ele>
        <time>2022-08-19T06:26:20.000Z</time>
      </trkpt>
      <trkpt lat="49.78564" lon="4.79713">
        <ele>259</ele>
        <time>2022-08-19T06:26:21.000Z</time>
      </trkpt>
      <trkpt lat="49.78568" lon="4.79714">
        <ele>259</ele>
        <time>2022-08-19T06:26:22.000Z</time>
      </trkpt>
      <trkpt lat="49.78571" lon="4.79716">
        <ele>259</ele>
        <time>2022-08-19T06:26:23.000Z</time>
      </trkpt>
      <trkpt lat="49.78575" lon="4.79718">
        <ele>260</ele>
        <time>2022-08-19T06:26:24.000Z</time>
      </trkpt>
      <trkpt lat="49.78579" lon="4.79719">
        <ele>260</ele>
        <time>2022-08-19T06:26:25.000Z</time>
      </trkpt>
      <trkpt lat="49.78583" lon="4.79721">
        <ele>260</ele>
        <time>2022-08-19T06:26:26.000Z</time>
      </trkpt>
      <trkpt lat="49.78587" lon="4.79723">
        <ele>260</ele>
        <time>2022-08-19T06:26:27.000Z</time>
      </trkpt>
      <trkpt lat="49.78591" lon="4.79724">
        <ele>260</ele>
        <time>2022-08-19T06:26:28.000Z</time>
      </trkpt>
      <trkpt lat="49.78595" lon="4.79725">
        <ele>260</ele>
        <time>2022-08-19T06:26:29.000Z</time>
      </trkpt>
      <trkpt lat="49.786" lon="4.79727">
        <ele>260</ele>
        <time>2022-08-19T06:26:30.000Z</time>
      </trkpt>
      <trkpt lat="49.78604" lon="4.79729">
        <ele>260</ele>
        <time>2022-08-19T06:26:31.000Z</time>
      </trkpt>
      <trkpt lat="49.78608" lon="4.7973">
        <ele>261</ele>
        <time>2022-08-19T06:26:32.000Z</time>
      </trkpt>
      <trkpt lat="49.78612" lon="4.79732">
        <ele>261</ele>
        <time>2022-08-19T06:26:33.000Z</time>
      </trkpt>
      <trkpt lat="49.78617" lon="4.79733">
        <ele>261</ele>
        <time>2022-08-19T06:26:34.000Z</time>
      </trkpt>
      <trkpt lat="49.78621" lon="4.79735">
        <ele>261</ele>
        <time>2022-08-19T06:26:35.000Z</time>
      </trkpt>
      <trkpt lat="49.78626" lon="4.79737">
        <ele>261</ele>
        <time>2022-08-19T06:26:36.000Z</time>
      </trkpt>
      <trkpt lat="49.7863" lon="4.79739">
        <ele>262</ele>
        <time>2022-08-19T06:26:37.000Z</time>
      </trkpt>
      <trkpt lat="49.78635" lon="4.7974">
        <ele>262</ele>
        <time>2022-08-19T06:26:38.000Z</time>
      </trkpt>
      <trkpt lat="49.78639" lon="4.79742">
        <ele>262</ele>
        <time>2022-08-19T06:26:39.000Z</time>
      </trkpt>
      <trkpt lat="49.78644" lon="4.79744">
        <ele>262</ele>
        <time>2022-08-19T06:26:40.000Z</time>
      </trkpt>
      <trkpt lat="49.78649" lon="4.79745">
        <ele>262</ele>
        <time>2022-08-19T06:26:41.000Z</time>
      </trkpt>
      <trkpt lat="49.78653" lon="4.79747">
        <ele>262</ele>
        <time>2022-08-19T06:26:42.000Z</time>
      </trkpt>
      <trkpt lat="49.78658" lon="4.79748">
        <ele>262</ele>
        <time>2022-08-19T06:26:43.000Z</time>
      </trkpt>
      <trkpt lat="49.78663" lon="4.7975">
        <ele>263</ele>
        <time>2022-08-19T06:26:44.000Z</time>
      </trkpt>
      <trkpt lat="49.78667" lon="4.79752">
        <ele>263</ele>
        <time>2022-08-19T06:26:45.000Z</time>
      </trkpt>
      <trkpt lat="49.78672" lon="4.79753">
        <ele>263</ele>
        <time>2022-08-19T06:26:46.000Z</time>
      </trkpt>
      <trkpt lat="49.78676" lon="4.79755">
        <ele>263</ele>
        <time>2022-08-19T06:26:47.000Z</time>
      </trkpt>
      <trkpt lat="49.78681" lon="4.79757">
        <ele>263</ele>
        <time>2022-08-19T06:26:48.000Z</time>
      </trkpt>
      <trkpt lat="49.78685" lon="4.79758">
        <ele>263</ele>
        <time>2022-08-19T06:26:49.000Z</time>
      </trkpt>
      <trkpt lat="49.7869" lon="4.7976">
        <ele>263</ele>
        <time>2022-08-19T06:26:50.000Z</time>
      </trkpt>
      <trkpt lat="49.78695" lon="4.79762">
        <ele>263</ele>
        <time>2022-08-19T06:26:51.000Z</time>
      </trkpt>
      <trkpt lat="49.78699" lon="4.79763">
        <ele>263</ele>
        <time>2022-08-19T06:26:52.000Z</time>
      </trkpt>
      <trkpt lat="49.78704" lon="4.79764">
        <ele>263</ele>
        <time>2022-08-19T06:26:53.000Z</time>
      </trkpt>
      <trkpt lat="49.78708" lon="4.79766">
        <ele>264</ele>
        <time>2022-08-19T06:26:54.000Z</time>
      </trkpt>
      <trkpt lat="49.78713" lon="4.79768">
        <ele>264</ele>
        <time>2022-08-19T06:26:55.000Z</time>
      </trkpt>
      <trkpt lat="49.78718" lon="4.79771">
        <ele>264</ele>
        <time>2022-08-19T06:26:56.000Z</time>
      </trkpt>
      <trkpt lat="49.78722" lon="4.79772">
        <ele>264</ele>
        <time>2022-08-19T06:26:57.000Z</time>
      </trkpt>
      <trkpt lat="49.78727" lon="4.79774">
        <ele>264</ele>
        <time>2022-08-19T06:26:58.000Z</time>
      </trkpt>
      <trkpt lat="49.78732" lon="4.79776">
        <ele>264</ele>
        <time>2022-08-19T06:26:59.000Z</time>
      </trkpt>
      <trkpt lat="49.78737" lon="4.79778">
        <ele>264</ele>
        <time>2022-08-19T06:27:00.000Z</time>
      </trkpt>
      <trkpt lat="49.78742" lon="4.79779">
        <ele>265</ele>
        <time>2022-08-19T06:27:01.000Z</time>
      </trkpt>
      <trkpt lat="49.78747" lon="4.79781">
        <ele>265</ele>
        <time>2022-08-19T06:27:02.000Z</time>
      </trkpt>
      <trkpt lat="49.78752" lon="4.79783">
        <ele>265</ele>
        <time>2022-08-19T06:27:03.000Z</time>
      </trkpt>
      <trkpt lat="49.78757" lon="4.79785">
        <ele>265</ele>
        <time>2022-08-19T06:27:04.000Z</time>
      </trkpt>
      <trkpt lat="49.78762" lon="4.79787">
        <ele>266</ele>
        <time>2022-08-19T06:27:05.000Z</time>
      </trkpt>
      <trkpt lat="49.78767" lon="4.79789">
        <ele>266</ele>
        <time>2022-08-19T06:27:06.000Z</time>
      </trkpt>
      <trkpt lat="49.78772" lon="4.79792">
        <ele>266</ele>
        <time>2022-08-19T06:27:07.000Z</time>
      </trkpt>
      <trkpt lat="49.78776" lon="4.79794">
        <ele>266</ele>
        <time>2022-08-19T06:27:08.000Z</time>
      </trkpt>
      <trkpt lat="49.78781" lon="4.79796">
        <ele>266</ele>
        <time>2022-08-19T06:27:09.000Z</time>
      </trkpt>
      <trkpt lat="49.78785" lon="4.79798">
        <ele>266</ele>
        <time>2022-08-19T06:27:10.000Z</time>
      </trkpt>
      <trkpt lat="49.7879" lon="4.798">
        <ele>267</ele>
        <time>2022-08-19T06:27:11.000Z</time>
      </trkpt>
      <trkpt lat="49.78795" lon="4.79803">
        <ele>267</ele>
        <time>2022-08-19T06:27:12.000Z</time>
      </trkpt>
      <trkpt lat="49.78801" lon="4.79805">
        <ele>267</ele>
        <time>2022-08-19T06:27:13.000Z</time>
      </trkpt>
      <trkpt lat="49.78806" lon="4.79807">
        <ele>267</ele>
        <time>2022-08-19T06:27:14.000Z</time>
      </trkpt>
      <trkpt lat="49.78811" lon="4.7981">
        <ele>267</ele>
        <time>2022-08-19T06:27:15.000Z</time>
      </trkpt>
      <trkpt lat="49.78816" lon="4.79813">
        <ele>267</ele>
        <time>2022-08-19T06:27:16.000Z</time>
      </trkpt>
      <trkpt lat="49.78822" lon="4.79816">
        <ele>267</ele>
        <time>2022-08-19T06:27:17.000Z</time>
      </trkpt>
      <trkpt lat="49.78827" lon="4.7982">
        <ele>267</ele>
        <time>2022-08-19T06:27:18.000Z</time>
      </trkpt>
      <trkpt lat="49.78832" lon="4.79823">
        <ele>267</ele>
        <time>2022-08-19T06:27:19.000Z</time>
      </trkpt>
      <trkpt lat="49.78838" lon="4.79826">
        <ele>268</ele>
        <time>2022-08-19T06:27:20.000Z</time>
      </trkpt>
      <trkpt lat="49.78843" lon="4.79829">
        <ele>268</ele>
        <time>2022-08-19T06:27:21.000Z</time>
      </trkpt>
      <trkpt lat="49.78848" lon="4.79832">
        <ele>268</ele>
        <time>2022-08-19T06:27:22.000Z</time>
      </trkpt>
      <trkpt lat="49.78854" lon="4.79835">
        <ele>268</ele>
        <time>2022-08-19T06:27:23.000Z</time>
      </trkpt>
      <trkpt lat="49.78859" lon="4.79838">
        <ele>268</ele>
        <time>2022-08-19T06:27:24.000Z</time>
      </trkpt>
      <trkpt lat="49.78864" lon="4.79841">
        <ele>268</ele>
        <time>2022-08-19T06:27:25.000Z</time>
      </trkpt>
      <trkpt lat="49.78869" lon="4.79845">
        <ele>268</ele>
        <time>2022-08-19T06:27:26.000Z</time>
      </trkpt>
      <trkpt lat="49.78874" lon="4.79849">
        <ele>268</ele>
        <time>2022-08-19T06:27:27.000Z</time>
      </trkpt>
      <trkpt lat="49.78879" lon="4.79854">
        <ele>268</ele>
        <time>2022-08-19T06:27:28.000Z</time>
      </trkpt>
      <trkpt lat="49.78884" lon="4.79857">
        <ele>268</ele>
        <time>2022-08-19T06:27:29.000Z</time>
      </trkpt>
      <trkpt lat="49.78888" lon="4.79861">
        <ele>268</ele>
        <time>2022-08-19T06:27:30.000Z</time>
      </trkpt>
      <trkpt lat="49.78893" lon="4.79864">
        <ele>268</ele>
        <time>2022-08-19T06:27:31.000Z</time>
      </trkpt>
      <trkpt lat="49.78898" lon="4.79868">
        <ele>268</ele>
        <time>2022-08-19T06:27:32.000Z</time>
      </trkpt>
      <trkpt lat="49.78903" lon="4.79872">
        <ele>268</ele>
        <time>2022-08-19T06:27:33.000Z</time>
      </trkpt>
      <trkpt lat="49.78908" lon="4.79876">
        <ele>268</ele>
        <time>2022-08-19T06:27:34.000Z</time>
      </trkpt>
      <trkpt lat="49.78913" lon="4.7988">
        <ele>268</ele>
        <time>2022-08-19T06:27:35.000Z</time>
      </trkpt>
      <trkpt lat="49.78918" lon="4.79884">
        <ele>268</ele>
        <time>2022-08-19T06:27:36.000Z</time>
      </trkpt>
      <trkpt lat="49.78923" lon="4.79888">
        <ele>268</ele>
        <time>2022-08-19T06:27:37.000Z</time>
      </trkpt>
      <trkpt lat="49.78928" lon="4.79892">
        <ele>268</ele>
        <time>2022-08-19T06:27:38.000Z</time>
      </trkpt>
      <trkpt lat="49.78933" lon="4.79896">
        <ele>268</ele>
        <time>2022-08-19T06:27:39.000Z</time>
      </trkpt>
      <trkpt lat="49.78938" lon="4.79901">
        <ele>268</ele>
        <time>2022-08-19T06:27:40.000Z</time>
      </trkpt>
      <trkpt lat="49.78943" lon="4.79905">
        <ele>269</ele>
        <time>2022-08-19T06:27:41.000Z</time>
      </trkpt>
      <trkpt lat="49.78948" lon="4.79909">
        <ele>269</ele>
        <time>2022-08-19T06:27:42.000Z</time>
      </trkpt>
      <trkpt lat="49.78953" lon="4.79913">
        <ele>269</ele>
        <time>2022-08-19T06:27:43.000Z</time>
      </trkpt>
      <trkpt lat="49.78958" lon="4.79918">
        <ele>269</ele>
        <time>2022-08-19T06:27:44.000Z</time>
      </trkpt>
      <trkpt lat="49.78963" lon="4.79923">
        <ele>269</ele>
        <time>2022-08-19T06:27:45.000Z</time>
      </trkpt>
      <trkpt lat="49.78968" lon="4.79927">
        <ele>269</ele>
        <time>2022-08-19T06:27:46.000Z</time>
      </trkpt>
      <trkpt lat="49.78973" lon="4.79932">
        <ele>269</ele>
        <time>2022-08-19T06:27:47.000Z</time>
      </trkpt>
      <trkpt lat="49.78979" lon="4.79936">
        <ele>269</ele>
        <time>2022-08-19T06:27:48.000Z</time>
      </trkpt>
      <trkpt lat="49.78984" lon="4.79941">
        <ele>269</ele>
        <time>2022-08-19T06:27:49.000Z</time>
      </trkpt>
      <trkpt lat="49.78989" lon="4.79946">
        <ele>269</ele>
        <time>2022-08-19T06:27:50.000Z</time>
      </trkpt>
      <trkpt lat="49.78994" lon="4.79951">
        <ele>269</ele>
        <time>2022-08-19T06:27:51.000Z</time>
      </trkpt>
      <trkpt lat="49.79" lon="4.79956">
        <ele>269</ele>
        <time>2022-08-19T06:27:52.000Z</time>
      </trkpt>
      <trkpt lat="49.79005" lon="4.7996">
        <ele>269</ele>
        <time>2022-08-19T06:27:53.000Z</time>
      </trkpt>
      <trkpt lat="49.7901" lon="4.79965">
        <ele>269</ele>
        <time>2022-08-19T06:27:54.000Z</time>
      </trkpt>
      <trkpt lat="49.79016" lon="4.7997">
        <ele>269</ele>
        <time>2022-08-19T06:27:55.000Z</time>
      </trkpt>
      <trkpt lat="49.79021" lon="4.79975">
        <ele>270</ele>
        <time>2022-08-19T06:27:56.000Z</time>
      </trkpt>
      <trkpt lat="49.79027" lon="4.7998">
        <ele>270</ele>
        <time>2022-08-19T06:27:57.000Z</time>
      </trkpt>
      <trkpt lat="49.79032" lon="4.79985">
        <ele>270</ele>
        <time>2022-08-19T06:27:58.000Z</time>
      </trkpt>
      <trkpt lat="49.79038" lon="4.7999">
        <ele>270</ele>
        <time>2022-08-19T06:27:59.000Z</time>
      </trkpt>
      <trkpt lat="49.79043" lon="4.79996">
        <ele>270</ele>
        <time>2022-08-19T06:28:00.000Z</time>
      </trkpt>
      <trkpt lat="49.79049" lon="4.80001">
        <ele>270</ele>
        <time>2022-08-19T06:28:01.000Z</time>
      </trkpt>
      <trkpt lat="49.79054" lon="4.80006">
        <ele>270</ele>
        <time>2022-08-19T06:28:02.000Z</time>
      </trkpt>
      <trkpt lat="49.79059" lon="4.80011">
        <ele>270</ele>
        <time>2022-08-19T06:28:03.000Z</time>
      </trkpt>
      <trkpt lat="49.79064" lon="4.80016">
        <ele>270</ele>
        <time>2022-08-19T06:28:04.000Z</time>
      </trkpt>
      <trkpt lat="49.7907" lon="4.8002">
        <ele>270</ele>
        <time>2022-08-19T06:28:05.000Z</time>
      </trkpt>
      <trkpt lat="49.79075" lon="4.80025">
        <ele>270</ele>
        <time>2022-08-19T06:28:06.000Z</time>
      </trkpt>
      <trkpt lat="49.7908" lon="4.80029">
        <ele>270</ele>
        <time>2022-08-19T06:28:07.000Z</time>
      </trkpt>
      <trkpt lat="49.79085" lon="4.80034">
        <ele>270</ele>
        <time>2022-08-19T06:28:08.000Z</time>
      </trkpt>
      <trkpt lat="49.7909" lon="4.80038">
        <ele>270</ele>
        <time>2022-08-19T06:28:09.000Z</time>
      </trkpt>
      <trkpt lat="49.79096" lon="4.80042">
        <ele>270</ele>
        <time>2022-08-19T06:28:10.000Z</time>
      </trkpt>
      <trkpt lat="49.79101" lon="4.80046">
        <ele>270</ele>
        <time>2022-08-19T06:28:11.000Z</time>
      </trkpt>
      <trkpt lat="49.79106" lon="4.80051">
        <ele>270</ele>
        <time>2022-08-19T06:28:12.000Z</time>
      </trkpt>
      <trkpt lat="49.79112" lon="4.80055">
        <ele>270</ele>
        <time>2022-08-19T06:28:13.000Z</time>
      </trkpt>
      <trkpt lat="49.79116" lon="4.80059">
        <ele>270</ele>
        <time>2022-08-19T06:28:14.000Z</time>
      </trkpt>
      <trkpt lat="49.79121" lon="4.80063">
        <ele>270</ele>
        <time>2022-08-19T06:28:15.000Z</time>
      </trkpt>
      <trkpt lat="49.79126" lon="4.80067">
        <ele>270</ele>
        <time>2022-08-19T06:28:16.000Z</time>
      </trkpt>
      <trkpt lat="49.79131" lon="4.8007">
        <ele>270</ele>
        <time>2022-08-19T06:28:17.000Z</time>
      </trkpt>
      <trkpt lat="49.79136" lon="4.80072">
        <ele>270</ele>
        <time>2022-08-19T06:28:18.000Z</time>
      </trkpt>
      <trkpt lat="49.79141" lon="4.80074">
        <ele>270</ele>
        <time>2022-08-19T06:28:19.000Z</time>
      </trkpt>
      <trkpt lat="49.79146" lon="4.80074">
        <ele>270</ele>
        <time>2022-08-19T06:28:20.000Z</time>
      </trkpt>
      <trkpt lat="49.79151" lon="4.80074">
        <ele>270</ele>
        <time>2022-08-19T06:28:21.000Z</time>
      </trkpt>
      <trkpt lat="49.79156" lon="4.80073">
        <ele>270</ele>
        <time>2022-08-19T06:28:22.000Z</time>
      </trkpt>
      <trkpt lat="49.7916" lon="4.80072">
        <ele>270</ele>
        <time>2022-08-19T06:28:23.000Z</time>
      </trkpt>
      <trkpt lat="49.79166" lon="4.80071">
        <ele>270</ele>
        <time>2022-08-19T06:28:24.000Z</time>
      </trkpt>
      <trkpt lat="49.79171" lon="4.8007">
        <ele>270</ele>
        <time>2022-08-19T06:28:25.000Z</time>
      </trkpt>
      <trkpt lat="49.79176" lon="4.8007">
        <ele>270</ele>
        <time>2022-08-19T06:28:26.000Z</time>
      </trkpt>
      <trkpt lat="49.79181" lon="4.80069">
        <ele>270</ele>
        <time>2022-08-19T06:28:27.000Z</time>
      </trkpt>
      <trkpt lat="49.79185" lon="4.80068">
        <ele>270</ele>
        <time>2022-08-19T06:28:28.000Z</time>
      </trkpt>
      <trkpt lat="49.79191" lon="4.80067">
        <ele>270</ele>
        <time>2022-08-19T06:28:29.000Z</time>
      </trkpt>
      <trkpt lat="49.79196" lon="4.80065">
        <ele>270</ele>
        <time>2022-08-19T06:28:30.000Z</time>
      </trkpt>
      <trkpt lat="49.79201" lon="4.80064">
        <ele>270</ele>
        <time>2022-08-19T06:28:31.000Z</time>
      </trkpt>
      <trkpt lat="49.79206" lon="4.80063">
        <ele>270</ele>
        <time>2022-08-19T06:28:32.000Z</time>
      </trkpt>
      <trkpt lat="49.79211" lon="4.80063">
        <ele>270</ele>
        <time>2022-08-19T06:28:33.000Z</time>
      </trkpt>
      <trkpt lat="49.79216" lon="4.80063">
        <ele>270</ele>
        <time>2022-08-19T06:28:34.000Z</time>
      </trkpt>
      <trkpt lat="49.79221" lon="4.80061">
        <ele>270</ele>
        <time>2022-08-19T06:28:35.000Z</time>
      </trkpt>
      <trkpt lat="49.79225" lon="4.8006">
        <ele>271</ele>
        <time>2022-08-19T06:28:36.000Z</time>
      </trkpt>
      <trkpt lat="49.7923" lon="4.8006">
        <ele>271</ele>
        <time>2022-08-19T06:28:37.000Z</time>
      </trkpt>
      <trkpt lat="49.79234" lon="4.80059">
        <ele>271</ele>
        <time>2022-08-19T06:28:38.000Z</time>
      </trkpt>
      <trkpt lat="49.79238" lon="4.80058">
        <ele>271</ele>
        <time>2022-08-19T06:28:39.000Z</time>
      </trkpt>
      <trkpt lat="49.79242" lon="4.80057">
        <ele>272</ele>
        <time>2022-08-19T06:28:40.000Z</time>
      </trkpt>
      <trkpt lat="49.79246" lon="4.80056">
        <ele>272</ele>
        <time>2022-08-19T06:28:41.000Z</time>
      </trkpt>
      <trkpt lat="49.79249" lon="4.80055">
        <ele>272</ele>
        <time>2022-08-19T06:28:42.000Z</time>
      </trkpt>
      <trkpt lat="49.79252" lon="4.80053">
        <ele>272</ele>
        <time>2022-08-19T06:28:43.000Z</time>
      </trkpt>
      <trkpt lat="49.79255" lon="4.80053">
        <ele>272</ele>
        <time>2022-08-19T06:28:44.000Z</time>
      </trkpt>
      <trkpt lat="49.79258" lon="4.80051">
        <ele>273</ele>
        <time>2022-08-19T06:28:45.000Z</time>
      </trkpt>
      <trkpt lat="49.7926" lon="4.8005">
        <ele>273</ele>
        <time>2022-08-19T06:28:46.000Z</time>
      </trkpt>
      <trkpt lat="49.79261" lon="4.80048">
        <ele>273</ele>
        <time>2022-08-19T06:28:47.000Z</time>
      </trkpt>
      <trkpt lat="49.79263" lon="4.80047">
        <ele>274</ele>
        <time>2022-08-19T06:28:48.000Z</time>
      </trkpt>
      <trkpt lat="49.79265" lon="4.80047">
        <ele>274</ele>
        <time>2022-08-19T06:28:49.000Z</time>
      </trkpt>
      <trkpt lat="49.79267" lon="4.80045">
        <ele>274</ele>
        <time>2022-08-19T06:28:50.000Z</time>
      </trkpt>
      <trkpt lat="49.79269" lon="4.80045">
        <ele>275</ele>
        <time>2022-08-19T06:28:51.000Z</time>
      </trkpt>
      <trkpt lat="49.79272" lon="4.80045">
        <ele>275</ele>
        <time>2022-08-19T06:28:52.000Z</time>
      </trkpt>
      <trkpt lat="49.79274" lon="4.80045">
        <ele>275</ele>
        <time>2022-08-19T06:28:53.000Z</time>
      </trkpt>
      <trkpt lat="49.79276" lon="4.80044">
        <ele>275</ele>
        <time>2022-08-19T06:28:54.000Z</time>
      </trkpt>
      <trkpt lat="49.79278" lon="4.80044">
        <ele>276</ele>
        <time>2022-08-19T06:28:55.000Z</time>
      </trkpt>
      <trkpt lat="49.7928" lon="4.80044">
        <ele>276</ele>
        <time>2022-08-19T06:28:56.000Z</time>
      </trkpt>
      <trkpt lat="49.79283" lon="4.80044">
        <ele>276</ele>
        <time>2022-08-19T06:28:57.000Z</time>
      </trkpt>
      <trkpt lat="49.79285" lon="4.80044">
        <ele>276</ele>
        <time>2022-08-19T06:28:58.000Z</time>
      </trkpt>
      <trkpt lat="49.79287" lon="4.80044">
        <ele>277</ele>
        <time>2022-08-19T06:28:59.000Z</time>
      </trkpt>
      <trkpt lat="49.7929" lon="4.80044">
        <ele>277</ele>
        <time>2022-08-19T06:29:00.000Z</time>
      </trkpt>
      <trkpt lat="49.79292" lon="4.80044">
        <ele>277</ele>
        <time>2022-08-19T06:29:01.000Z</time>
      </trkpt>
      <trkpt lat="49.79295" lon="4.80044">
        <ele>277</ele>
        <time>2022-08-19T06:29:02.000Z</time>
      </trkpt>
      <trkpt lat="49.79298" lon="4.80043">
        <ele>277</ele>
        <time>2022-08-19T06:29:03.000Z</time>
      </trkpt>
      <trkpt lat="49.793" lon="4.80043">
        <ele>278</ele>
        <time>2022-08-19T06:29:04.000Z</time>
      </trkpt>
      <trkpt lat="49.79302" lon="4.80043">
        <ele>278</ele>
        <time>2022-08-19T06:29:05.000Z</time>
      </trkpt>
      <trkpt lat="49.79304" lon="4.80042">
        <ele>278</ele>
        <time>2022-08-19T06:29:06.000Z</time>
      </trkpt>
      <trkpt lat="49.79306" lon="4.80041">
        <ele>278</ele>
        <time>2022-08-19T06:29:07.000Z</time>
      </trkpt>
      <trkpt lat="49.79308" lon="4.8004">
        <ele>278</ele>
        <time>2022-08-19T06:29:08.000Z</time>
      </trkpt>
      <trkpt lat="49.7931" lon="4.80037">
        <ele>278</ele>
        <time>2022-08-19T06:29:09.000Z</time>
      </trkpt>
      <trkpt lat="49.79312" lon="4.80033">
        <ele>278</ele>
        <time>2022-08-19T06:29:10.000Z</time>
      </trkpt>
      <trkpt lat="49.79314" lon="4.80029">
        <ele>278</ele>
        <time>2022-08-19T06:29:11.000Z</time>
      </trkpt>
      <trkpt lat="49.79315" lon="4.80024">
        <ele>278</ele>
        <time>2022-08-19T06:29:12.000Z</time>
      </trkpt>
      <trkpt lat="49.79317" lon="4.8002">
        <ele>279</ele>
        <time>2022-08-19T06:29:13.000Z</time>
      </trkpt>
      <trkpt lat="49.7932" lon="4.80015">
        <ele>279</ele>
        <time>2022-08-19T06:29:14.000Z</time>
      </trkpt>
      <trkpt lat="49.79321" lon="4.8001">
        <ele>279</ele>
        <time>2022-08-19T06:29:15.000Z</time>
      </trkpt>
      <trkpt lat="49.79323" lon="4.80005">
        <ele>279</ele>
        <time>2022-08-19T06:29:16.000Z</time>
      </trkpt>
      <trkpt lat="49.79324" lon="4.80001">
        <ele>279</ele>
        <time>2022-08-19T06:29:17.000Z</time>
      </trkpt>
      <trkpt lat="49.79326" lon="4.79997">
        <ele>279</ele>
        <time>2022-08-19T06:29:18.000Z</time>
      </trkpt>
      <trkpt lat="49.79327" lon="4.79992">
        <ele>279</ele>
        <time>2022-08-19T06:29:19.000Z</time>
      </trkpt>
      <trkpt lat="49.79328" lon="4.79987">
        <ele>278</ele>
        <time>2022-08-19T06:29:20.000Z</time>
      </trkpt>
      <trkpt lat="49.79329" lon="4.79982">
        <ele>278</ele>
        <time>2022-08-19T06:29:21.000Z</time>
      </trkpt>
      <trkpt lat="49.7933" lon="4.79976">
        <ele>278</ele>
        <time>2022-08-19T06:29:22.000Z</time>
      </trkpt>
      <trkpt lat="49.79331" lon="4.79971">
        <ele>278</ele>
        <time>2022-08-19T06:29:23.000Z</time>
      </trkpt>
      <trkpt lat="49.79332" lon="4.79966">
        <ele>278</ele>
        <time>2022-08-19T06:29:24.000Z</time>
      </trkpt>
      <trkpt lat="49.79333" lon="4.79961">
        <ele>277</ele>
        <time>2022-08-19T06:29:25.000Z</time>
      </trkpt>
      <trkpt lat="49.79335" lon="4.79955">
        <ele>277</ele>
        <time>2022-08-19T06:29:26.000Z</time>
      </trkpt>
      <trkpt lat="49.79337" lon="4.79949">
        <ele>277</ele>
        <time>2022-08-19T06:29:27.000Z</time>
      </trkpt>
      <trkpt lat="49.79338" lon="4.79944">
        <ele>277</ele>
        <time>2022-08-19T06:29:28.000Z</time>
      </trkpt>
      <trkpt lat="49.79339" lon="4.79938">
        <ele>277</ele>
        <time>2022-08-19T06:29:29.000Z</time>
      </trkpt>
      <trkpt lat="49.79341" lon="4.79933">
        <ele>277</ele>
        <time>2022-08-19T06:29:30.000Z</time>
      </trkpt>
      <trkpt lat="49.79343" lon="4.79928">
        <ele>277</ele>
        <time>2022-08-19T06:29:31.000Z</time>
      </trkpt>
      <trkpt lat="49.79345" lon="4.79923">
        <ele>277</ele>
        <time>2022-08-19T06:29:32.000Z</time>
      </trkpt>
      <trkpt lat="49.79347" lon="4.79918">
        <ele>276</ele>
        <time>2022-08-19T06:29:33.000Z</time>
      </trkpt>
      <trkpt lat="49.7935" lon="4.79913">
        <ele>276</ele>
        <time>2022-08-19T06:29:34.000Z</time>
      </trkpt>
      <trkpt lat="49.79351" lon="4.7991">
        <ele>276</ele>
        <time>2022-08-19T06:29:35.000Z</time>
      </trkpt>
      <trkpt lat="49.79353" lon="4.79906">
        <ele>276</ele>
        <time>2022-08-19T06:29:36.000Z</time>
      </trkpt>
      <trkpt lat="49.79354" lon="4.79903">
        <ele>276</ele>
        <time>2022-08-19T06:29:37.000Z</time>
      </trkpt>
      <trkpt lat="49.79356" lon="4.799">
        <ele>276</ele>
        <time>2022-08-19T06:29:38.000Z</time>
      </trkpt>
      <trkpt lat="49.79359" lon="4.79898">
        <ele>276</ele>
        <time>2022-08-19T06:29:39.000Z</time>
      </trkpt>
      <trkpt lat="49.79361" lon="4.79896">
        <ele>277</ele>
        <time>2022-08-19T06:29:40.000Z</time>
      </trkpt>
      <trkpt lat="49.79363" lon="4.79892">
        <ele>277</ele>
        <time>2022-08-19T06:29:41.000Z</time>
      </trkpt>
      <trkpt lat="49.79365" lon="4.79889">
        <ele>277</ele>
        <time>2022-08-19T06:29:42.000Z</time>
      </trkpt>
      <trkpt lat="49.79366" lon="4.79886">
        <ele>277</ele>
        <time>2022-08-19T06:29:43.000Z</time>
      </trkpt>
      <trkpt lat="49.79368" lon="4.79883">
        <ele>277</ele>
        <time>2022-08-19T06:29:44.000Z</time>
      </trkpt>
      <trkpt lat="49.7937" lon="4.79881">
        <ele>277</ele>
        <time>2022-08-19T06:29:45.000Z</time>
      </trkpt>
      <trkpt lat="49.79372" lon="4.79878">
        <ele>277</ele>
        <time>2022-08-19T06:29:46.000Z</time>
      </trkpt>
      <trkpt lat="49.79373" lon="4.79875">
        <ele>277</ele>
        <time>2022-08-19T06:29:47.000Z</time>
      </trkpt>
      <trkpt lat="49.79375" lon="4.79872">
        <ele>277</ele>
        <time>2022-08-19T06:29:48.000Z</time>
      </trkpt>
      <trkpt lat="49.79377" lon="4.79868">
        <ele>277</ele>
        <time>2022-08-19T06:29:49.000Z</time>
      </trkpt>
      <trkpt lat="49.79378" lon="4.79865">
        <ele>277</ele>
        <time>2022-08-19T06:29:50.000Z</time>
      </trkpt>
      <trkpt lat="49.79379" lon="4.79861">
        <ele>277</ele>
        <time>2022-08-19T06:29:51.000Z</time>
      </trkpt>
      <trkpt lat="49.7938" lon="4.79858">
        <ele>277</ele>
        <time>2022-08-19T06:29:52.000Z</time>
      </trkpt>
      <trkpt lat="49.7938" lon="4.79854">
        <ele>277</ele>
        <time>2022-08-19T06:29:53.000Z</time>
      </trkpt>
      <trkpt lat="49.79381" lon="4.79851">
        <ele>276</ele>
        <time>2022-08-19T06:29:54.000Z</time>
      </trkpt>
      <trkpt lat="49.79383" lon="4.79849">
        <ele>277</ele>
        <time>2022-08-19T06:29:55.000Z</time>
      </trkpt>
      <trkpt lat="49.79386" lon="4.79848">
        <ele>277</ele>
        <time>2022-08-19T06:29:56.000Z</time>
      </trkpt>
      <trkpt lat="49.79388" lon="4.79848">
        <ele>277</ele>
        <time>2022-08-19T06:29:57.000Z</time>
      </trkpt>
      <trkpt lat="49.7939" lon="4.79847">
        <ele>277</ele>
        <time>2022-08-19T06:29:58.000Z</time>
      </trkpt>
      <trkpt lat="49.79392" lon="4.79846">
        <ele>277</ele>
        <time>2022-08-19T06:29:59.000Z</time>
      </trkpt>
      <trkpt lat="49.79395" lon="4.79845">
        <ele>277</ele>
        <time>2022-08-19T06:30:00.000Z</time>
      </trkpt>
      <trkpt lat="49.79397" lon="4.79844">
        <ele>277</ele>
        <time>2022-08-19T06:30:01.000Z</time>
      </trkpt>
      <trkpt lat="49.79399" lon="4.79844">
        <ele>278</ele>
        <time>2022-08-19T06:30:02.000Z</time>
      </trkpt>
      <trkpt lat="49.79402" lon="4.79844">
        <ele>278</ele>
        <time>2022-08-19T06:30:03.000Z</time>
      </trkpt>
      <trkpt lat="49.79404" lon="4.79843">
        <ele>278</ele>
        <time>2022-08-19T06:30:04.000Z</time>
      </trkpt>
      <trkpt lat="49.79407" lon="4.79842">
        <ele>278</ele>
        <time>2022-08-19T06:30:05.000Z</time>
      </trkpt>
      <trkpt lat="49.7941" lon="4.79842">
        <ele>278</ele>
        <time>2022-08-19T06:30:06.000Z</time>
      </trkpt>
      <trkpt lat="49.79412" lon="4.79842">
        <ele>279</ele>
        <time>2022-08-19T06:30:07.000Z</time>
      </trkpt>
      <trkpt lat="49.79414" lon="4.79843">
        <ele>279</ele>
        <time>2022-08-19T06:30:08.000Z</time>
      </trkpt>
      <trkpt lat="49.79416" lon="4.79843">
        <ele>279</ele>
        <time>2022-08-19T06:30:09.000Z</time>
      </trkpt>
      <trkpt lat="49.79418" lon="4.79842">
        <ele>279</ele>
        <time>2022-08-19T06:30:10.000Z</time>
      </trkpt>
      <trkpt lat="49.79421" lon="4.79842">
        <ele>280</ele>
        <time>2022-08-19T06:30:11.000Z</time>
      </trkpt>
      <trkpt lat="49.79424" lon="4.79841">
        <ele>280</ele>
        <time>2022-08-19T06:30:12.000Z</time>
      </trkpt>
      <trkpt lat="49.79427" lon="4.79841">
        <ele>280</ele>
        <time>2022-08-19T06:30:13.000Z</time>
      </trkpt>
      <trkpt lat="49.79431" lon="4.7984">
        <ele>281</ele>
        <time>2022-08-19T06:30:14.000Z</time>
      </trkpt>
      <trkpt lat="49.79434" lon="4.7984">
        <ele>281</ele>
        <time>2022-08-19T06:30:15.000Z</time>
      </trkpt>
      <trkpt lat="49.79436" lon="4.7984">
        <ele>282</ele>
        <time>2022-08-19T06:30:16.000Z</time>
      </trkpt>
      <trkpt lat="49.79438" lon="4.7984">
        <ele>282</ele>
        <time>2022-08-19T06:30:17.000Z</time>
      </trkpt>
      <trkpt lat="49.7944" lon="4.7984">
        <ele>282</ele>
        <time>2022-08-19T06:30:18.000Z</time>
      </trkpt>
      <trkpt lat="49.79443" lon="4.7984">
        <ele>283</ele>
        <time>2022-08-19T06:30:19.000Z</time>
      </trkpt>
      <trkpt lat="49.79447" lon="4.79841">
        <ele>283</ele>
        <time>2022-08-19T06:30:20.000Z</time>
      </trkpt>
      <trkpt lat="49.7945" lon="4.79841">
        <ele>284</ele>
        <time>2022-08-19T06:30:21.000Z</time>
      </trkpt>
      <trkpt lat="49.79453" lon="4.7984">
        <ele>284</ele>
        <time>2022-08-19T06:30:22.000Z</time>
      </trkpt>
      <trkpt lat="49.79456" lon="4.7984">
        <ele>284</ele>
        <time>2022-08-19T06:30:23.000Z</time>
      </trkpt>
      <trkpt lat="49.79459" lon="4.79839">
        <ele>285</ele>
        <time>2022-08-19T06:30:24.000Z</time>
      </trkpt>
      <trkpt lat="49.79462" lon="4.7984">
        <ele>285</ele>
        <time>2022-08-19T06:30:25.000Z</time>
      </trkpt>
      <trkpt lat="49.79465" lon="4.7984">
        <ele>286</ele>
        <time>2022-08-19T06:30:26.000Z</time>
      </trkpt>
      <trkpt lat="49.79468" lon="4.79841">
        <ele>286</ele>
        <time>2022-08-19T06:30:27.000Z</time>
      </trkpt>
      <trkpt lat="49.79471" lon="4.79841">
        <ele>286</ele>
        <time>2022-08-19T06:30:28.000Z</time>
      </trkpt>
      <trkpt lat="49.79474" lon="4.7984">
        <ele>286</ele>
        <time>2022-08-19T06:30:29.000Z</time>
      </trkpt>
      <trkpt lat="49.79476" lon="4.79839">
        <ele>287</ele>
        <time>2022-08-19T06:30:30.000Z</time>
      </trkpt>
      <trkpt lat="49.79479" lon="4.79838">
        <ele>287</ele>
        <time>2022-08-19T06:30:31.000Z</time>
      </trkpt>
      <trkpt lat="49.79482" lon="4.79838">
        <ele>287</ele>
        <time>2022-08-19T06:30:32.000Z</time>
      </trkpt>
      <trkpt lat="49.79484" lon="4.79838">
        <ele>287</ele>
        <time>2022-08-19T06:30:33.000Z</time>
      </trkpt>
      <trkpt lat="49.79487" lon="4.79838">
        <ele>288</ele>
        <time>2022-08-19T06:30:34.000Z</time>
      </trkpt>
      <trkpt lat="49.79489" lon="4.79838">
        <ele>288</ele>
        <time>2022-08-19T06:30:35.000Z</time>
      </trkpt>
      <trkpt lat="49.79492" lon="4.79838">
        <ele>288</ele>
        <time>2022-08-19T06:30:36.000Z</time>
      </trkpt>
      <trkpt lat="49.79495" lon="4.79838">
        <ele>288</ele>
        <time>2022-08-19T06:30:37.000Z</time>
      </trkpt>
      <trkpt lat="49.79498" lon="4.79838">
        <ele>288</ele>
        <time>2022-08-19T06:30:38.000Z</time>
      </trkpt>
      <trkpt lat="49.79501" lon="4.79837">
        <ele>289</ele>
        <time>2022-08-19T06:30:39.000Z</time>
      </trkpt>
      <trkpt lat="49.79505" lon="4.79837">
        <ele>289</ele>
        <time>2022-08-19T06:30:40.000Z</time>
      </trkpt>
      <trkpt lat="49.79508" lon="4.79837">
        <ele>289</ele>
        <time>2022-08-19T06:30:41.000Z</time>
      </trkpt>
      <trkpt lat="49.79511" lon="4.79837">
        <ele>289</ele>
        <time>2022-08-19T06:30:42.000Z</time>
      </trkpt>
      <trkpt lat="49.79514" lon="4.79837">
        <ele>289</ele>
        <time>2022-08-19T06:30:43.000Z</time>
      </trkpt>
      <trkpt lat="49.79517" lon="4.79836">
        <ele>289</ele>
        <time>2022-08-19T06:30:44.000Z</time>
      </trkpt>
      <trkpt lat="49.7952" lon="4.79835">
        <ele>289</ele>
        <time>2022-08-19T06:30:45.000Z</time>
      </trkpt>
      <trkpt lat="49.79523" lon="4.79835">
        <ele>289</ele>
        <time>2022-08-19T06:30:46.000Z</time>
      </trkpt>
      <trkpt lat="49.79526" lon="4.79835">
        <ele>289</ele>
        <time>2022-08-19T06:30:47.000Z</time>
      </trkpt>
      <trkpt lat="49.79529" lon="4.79835">
        <ele>290</ele>
        <time>2022-08-19T06:30:48.000Z</time>
      </trkpt>
      <trkpt lat="49.79532" lon="4.79835">
        <ele>290</ele>
        <time>2022-08-19T06:30:49.000Z</time>
      </trkpt>
      <trkpt lat="49.79535" lon="4.79835">
        <ele>290</ele>
        <time>2022-08-19T06:30:50.000Z</time>
      </trkpt>
      <trkpt lat="49.79538" lon="4.79835">
        <ele>290</ele>
        <time>2022-08-19T06:30:51.000Z</time>
      </trkpt>
      <trkpt lat="49.7954" lon="4.79834">
        <ele>290</ele>
        <time>2022-08-19T06:30:52.000Z</time>
      </trkpt>
      <trkpt lat="49.79543" lon="4.79834">
        <ele>291</ele>
        <time>2022-08-19T06:30:53.000Z</time>
      </trkpt>
      <trkpt lat="49.79545" lon="4.79834">
        <ele>291</ele>
        <time>2022-08-19T06:30:54.000Z</time>
      </trkpt>
      <trkpt lat="49.79548" lon="4.79833">
        <ele>291</ele>
        <time>2022-08-19T06:30:55.000Z</time>
      </trkpt>
      <trkpt lat="49.79551" lon="4.79833">
        <ele>292</ele>
        <time>2022-08-19T06:30:56.000Z</time>
      </trkpt>
      <trkpt lat="49.79554" lon="4.79833">
        <ele>292</ele>
        <time>2022-08-19T06:30:57.000Z</time>
      </trkpt>
      <trkpt lat="49.79557" lon="4.79832">
        <ele>292</ele>
        <time>2022-08-19T06:30:58.000Z</time>
      </trkpt>
      <trkpt lat="49.7956" lon="4.79832">
        <ele>293</ele>
        <time>2022-08-19T06:30:59.000Z</time>
      </trkpt>
      <trkpt lat="49.79562" lon="4.79832">
        <ele>293</ele>
        <time>2022-08-19T06:31:00.000Z</time>
      </trkpt>
      <trkpt lat="49.79566" lon="4.79832">
        <ele>293</ele>
        <time>2022-08-19T06:31:01.000Z</time>
      </trkpt>
      <trkpt lat="49.79568" lon="4.79831">
        <ele>293</ele>
        <time>2022-08-19T06:31:02.000Z</time>
      </trkpt>
      <trkpt lat="49.79571" lon="4.79832">
        <ele>294</ele>
        <time>2022-08-19T06:31:03.000Z</time>
      </trkpt>
      <trkpt lat="49.79573" lon="4.79831">
        <ele>294</ele>
        <time>2022-08-19T06:31:04.000Z</time>
      </trkpt>
      <trkpt lat="49.79575" lon="4.79831">
        <ele>294</ele>
        <time>2022-08-19T06:31:05.000Z</time>
      </trkpt>
      <trkpt lat="49.79578" lon="4.7983">
        <ele>294</ele>
        <time>2022-08-19T06:31:06.000Z</time>
      </trkpt>
      <trkpt lat="49.79581" lon="4.7983">
        <ele>295</ele>
        <time>2022-08-19T06:31:07.000Z</time>
      </trkpt>
      <trkpt lat="49.79583" lon="4.79829">
        <ele>295</ele>
        <time>2022-08-19T06:31:08.000Z</time>
      </trkpt>
      <trkpt lat="49.79585" lon="4.79828">
        <ele>295</ele>
        <time>2022-08-19T06:31:09.000Z</time>
      </trkpt>
      <trkpt lat="49.79588" lon="4.79828">
        <ele>295</ele>
        <time>2022-08-19T06:31:10.000Z</time>
      </trkpt>
      <trkpt lat="49.7959" lon="4.79828">
        <ele>295</ele>
        <time>2022-08-19T06:31:11.000Z</time>
      </trkpt>
      <trkpt lat="49.79593" lon="4.79827">
        <ele>296</ele>
        <time>2022-08-19T06:31:12.000Z</time>
      </trkpt>
      <trkpt lat="49.79596" lon="4.79827">
        <ele>296</ele>
        <time>2022-08-19T06:31:13.000Z</time>
      </trkpt>
      <trkpt lat="49.79598" lon="4.79827">
        <ele>296</ele>
        <time>2022-08-19T06:31:14.000Z</time>
      </trkpt>
      <trkpt lat="49.79601" lon="4.79827">
        <ele>296</ele>
        <time>2022-08-19T06:31:15.000Z</time>
      </trkpt>
      <trkpt lat="49.79603" lon="4.79826">
        <ele>296</ele>
        <time>2022-08-19T06:31:16.000Z</time>
      </trkpt>
      <trkpt lat="49.79606" lon="4.79826">
        <ele>296</ele>
        <time>2022-08-19T06:31:17.000Z</time>
      </trkpt>
      <trkpt lat="49.79608" lon="4.79826">
        <ele>297</ele>
        <time>2022-08-19T06:31:18.000Z</time>
      </trkpt>
      <trkpt lat="49.7961" lon="4.79826">
        <ele>297</ele>
        <time>2022-08-19T06:31:19.000Z</time>
      </trkpt>
      <trkpt lat="49.79613" lon="4.79825">
        <ele>297</ele>
        <time>2022-08-19T06:31:20.000Z</time>
      </trkpt>
      <trkpt lat="49.79615" lon="4.79824">
        <ele>297</ele>
        <time>2022-08-19T06:31:21.000Z</time>
      </trkpt>
      <trkpt lat="49.79618" lon="4.79824">
        <ele>297</ele>
        <time>2022-08-19T06:31:22.000Z</time>
      </trkpt>
      <trkpt lat="49.7962" lon="4.79823">
        <ele>297</ele>
        <time>2022-08-19T06:31:23.000Z</time>
      </trkpt>
      <trkpt lat="49.79623" lon="4.79822">
        <ele>298</ele>
        <time>2022-08-19T06:31:24.000Z</time>
      </trkpt>
      <trkpt lat="49.79625" lon="4.79821">
        <ele>298</ele>
        <time>2022-08-19T06:31:25.000Z</time>
      </trkpt>
      <trkpt lat="49.79628" lon="4.7982">
        <ele>298</ele>
        <time>2022-08-19T06:31:26.000Z</time>
      </trkpt>
      <trkpt lat="49.7963" lon="4.79819">
        <ele>298</ele>
        <time>2022-08-19T06:31:27.000Z</time>
      </trkpt>
      <trkpt lat="49.79633" lon="4.79818">
        <ele>298</ele>
        <time>2022-08-19T06:31:28.000Z</time>
      </trkpt>
      <trkpt lat="49.79635" lon="4.79818">
        <ele>298</ele>
        <time>2022-08-19T06:31:29.000Z</time>
      </trkpt>
      <trkpt lat="49.79637" lon="4.79818">
        <ele>298</ele>
        <time>2022-08-19T06:31:30.000Z</time>
      </trkpt>
      <trkpt lat="49.7964" lon="4.79817">
        <ele>299</ele>
        <time>2022-08-19T06:31:31.000Z</time>
      </trkpt>
      <trkpt lat="49.79644" lon="4.79816">
        <ele>299</ele>
        <time>2022-08-19T06:31:32.000Z</time>
      </trkpt>
      <trkpt lat="49.79647" lon="4.79816">
        <ele>299</ele>
        <time>2022-08-19T06:31:33.000Z</time>
      </trkpt>
      <trkpt lat="49.7965" lon="4.79817">
        <ele>299</ele>
        <time>2022-08-19T06:31:34.000Z</time>
      </trkpt>
      <trkpt lat="49.79653" lon="4.79818">
        <ele>299</ele>
        <time>2022-08-19T06:31:35.000Z</time>
      </trkpt>
      <trkpt lat="49.79657" lon="4.79818">
        <ele>299</ele>
        <time>2022-08-19T06:31:36.000Z</time>
      </trkpt>
      <trkpt lat="49.7966" lon="4.79818">
        <ele>299</ele>
        <time>2022-08-19T06:31:37.000Z</time>
      </trkpt>
      <trkpt lat="49.79663" lon="4.7982">
        <ele>299</ele>
        <time>2022-08-19T06:31:38.000Z</time>
      </trkpt>
      <trkpt lat="49.79667" lon="4.7982">
        <ele>299</ele>
        <time>2022-08-19T06:31:39.000Z</time>
      </trkpt>
      <trkpt lat="49.79671" lon="4.7982">
        <ele>300</ele>
        <time>2022-08-19T06:31:40.000Z</time>
      </trkpt>
      <trkpt lat="49.79676" lon="4.79819">
        <ele>300</ele>
        <time>2022-08-19T06:31:41.000Z</time>
      </trkpt>
      <trkpt lat="49.7968" lon="4.79818">
        <ele>300</ele>
        <time>2022-08-19T06:31:42.000Z</time>
      </trkpt>
      <trkpt lat="49.79684" lon="4.79818">
        <ele>300</ele>
        <time>2022-08-19T06:31:43.000Z</time>
      </trkpt>
      <trkpt lat="49.79688" lon="4.79817">
        <ele>300</ele>
        <time>2022-08-19T06:31:44.000Z</time>
      </trkpt>
      <trkpt lat="49.79692" lon="4.79817">
        <ele>300</ele>
        <time>2022-08-19T06:31:45.000Z</time>
      </trkpt>
      <trkpt lat="49.79696" lon="4.79817">
        <ele>300</ele>
        <time>2022-08-19T06:31:46.000Z</time>
      </trkpt>
      <trkpt lat="49.79701" lon="4.79818">
        <ele>300</ele>
        <time>2022-08-19T06:31:47.000Z</time>
      </trkpt>
      <trkpt lat="49.79706" lon="4.79818">
        <ele>300</ele>
        <time>2022-08-19T06:31:48.000Z</time>
      </trkpt>
      <trkpt lat="49.7971" lon="4.79818">
        <ele>300</ele>
        <time>2022-08-19T06:31:49.000Z</time>
      </trkpt>
      <trkpt lat="49.79715" lon="4.79817">
        <ele>300</ele>
        <time>2022-08-19T06:31:50.000Z</time>
      </trkpt>
      <trkpt lat="49.7972" lon="4.79817">
        <ele>300</ele>
        <time>2022-08-19T06:31:51.000Z</time>
      </trkpt>
      <trkpt lat="49.79724" lon="4.79816">
        <ele>300</ele>
        <time>2022-08-19T06:31:52.000Z</time>
      </trkpt>
      <trkpt lat="49.79729" lon="4.79816">
        <ele>300</ele>
        <time>2022-08-19T06:31:53.000Z</time>
      </trkpt>
      <trkpt lat="49.79732" lon="4.79815">
        <ele>300</ele>
        <time>2022-08-19T06:31:54.000Z</time>
      </trkpt>
      <trkpt lat="49.79736" lon="4.79814">
        <ele>300</ele>
        <time>2022-08-19T06:31:55.000Z</time>
      </trkpt>
      <trkpt lat="49.7974" lon="4.79814">
        <ele>300</ele>
        <time>2022-08-19T06:31:56.000Z</time>
      </trkpt>
      <trkpt lat="49.79744" lon="4.79814">
        <ele>300</ele>
        <time>2022-08-19T06:31:57.000Z</time>
      </trkpt>
      <trkpt lat="49.79748" lon="4.79814">
        <ele>300</ele>
        <time>2022-08-19T06:31:58.000Z</time>
      </trkpt>
      <trkpt lat="49.79752" lon="4.79814">
        <ele>300</ele>
        <time>2022-08-19T06:31:59.000Z</time>
      </trkpt>
      <trkpt lat="49.79755" lon="4.79814">
        <ele>300</ele>
        <time>2022-08-19T06:32:00.000Z</time>
      </trkpt>
      <trkpt lat="49.79759" lon="4.79814">
        <ele>300</ele>
        <time>2022-08-19T06:32:01.000Z</time>
      </trkpt>
      <trkpt lat="49.79763" lon="4.79814">
        <ele>300</ele>
        <time>2022-08-19T06:32:02.000Z</time>
      </trkpt>
      <trkpt lat="49.79767" lon="4.79814">
        <ele>301</ele>
        <time>2022-08-19T06:32:03.000Z</time>
      </trkpt>
      <trkpt lat="49.79771" lon="4.79813">
        <ele>301</ele>
        <time>2022-08-19T06:32:04.000Z</time>
      </trkpt>
      <trkpt lat="49.79775" lon="4.79813">
        <ele>301</ele>
        <time>2022-08-19T06:32:05.000Z</time>
      </trkpt>
      <trkpt lat="49.79779" lon="4.79812">
        <ele>301</ele>
        <time>2022-08-19T06:32:06.000Z</time>
      </trkpt>
      <trkpt lat="49.79784" lon="4.79812">
        <ele>301</ele>
        <time>2022-08-19T06:32:07.000Z</time>
      </trkpt>
      <trkpt lat="49.79789" lon="4.79812">
        <ele>301</ele>
        <time>2022-08-19T06:32:08.000Z</time>
      </trkpt>
      <trkpt lat="49.79794" lon="4.79812">
        <ele>301</ele>
        <time>2022-08-19T06:32:09.000Z</time>
      </trkpt>
      <trkpt lat="49.798" lon="4.79812">
        <ele>300</ele>
        <time>2022-08-19T06:32:10.000Z</time>
      </trkpt>
      <trkpt lat="49.79805" lon="4.79812">
        <ele>300</ele>
        <time>2022-08-19T06:32:11.000Z</time>
      </trkpt>
      <trkpt lat="49.79811" lon="4.79811">
        <ele>300</ele>
        <time>2022-08-19T06:32:12.000Z</time>
      </trkpt>
      <trkpt lat="49.79816" lon="4.79811">
        <ele>300</ele>
        <time>2022-08-19T06:32:13.000Z</time>
      </trkpt>
      <trkpt lat="49.79821" lon="4.7981">
        <ele>300</ele>
        <time>2022-08-19T06:32:14.000Z</time>
      </trkpt>
      <trkpt lat="49.79826" lon="4.7981">
        <ele>300</ele>
        <time>2022-08-19T06:32:15.000Z</time>
      </trkpt>
      <trkpt lat="49.79831" lon="4.79809">
        <ele>300</ele>
        <time>2022-08-19T06:32:16.000Z</time>
      </trkpt>
      <trkpt lat="49.79835" lon="4.79808">
        <ele>300</ele>
        <time>2022-08-19T06:32:17.000Z</time>
      </trkpt>
      <trkpt lat="49.7984" lon="4.79808">
        <ele>300</ele>
        <time>2022-08-19T06:32:18.000Z</time>
      </trkpt>
      <trkpt lat="49.79845" lon="4.79808">
        <ele>300</ele>
        <time>2022-08-19T06:32:19.000Z</time>
      </trkpt>
      <trkpt lat="49.7985" lon="4.79807">
        <ele>299</ele>
        <time>2022-08-19T06:32:20.000Z</time>
      </trkpt>
      <trkpt lat="49.79855" lon="4.79807">
        <ele>299</ele>
        <time>2022-08-19T06:32:21.000Z</time>
      </trkpt>
      <trkpt lat="49.7986" lon="4.79806">
        <ele>299</ele>
        <time>2022-08-19T06:32:22.000Z</time>
      </trkpt>
      <trkpt lat="49.79864" lon="4.79805">
        <ele>299</ele>
        <time>2022-08-19T06:32:23.000Z</time>
      </trkpt>
      <trkpt lat="49.79869" lon="4.79805">
        <ele>299</ele>
        <time>2022-08-19T06:32:24.000Z</time>
      </trkpt>
      <trkpt lat="49.79874" lon="4.79805">
        <ele>299</ele>
        <time>2022-08-19T06:32:25.000Z</time>
      </trkpt>
      <trkpt lat="49.79878" lon="4.79805">
        <ele>299</ele>
        <time>2022-08-19T06:32:26.000Z</time>
      </trkpt>
      <trkpt lat="49.79883" lon="4.79804">
        <ele>299</ele>
        <time>2022-08-19T06:32:27.000Z</time>
      </trkpt>
      <trkpt lat="49.79888" lon="4.79804">
        <ele>299</ele>
        <time>2022-08-19T06:32:28.000Z</time>
      </trkpt>
      <trkpt lat="49.79892" lon="4.79804">
        <ele>299</ele>
        <time>2022-08-19T06:32:29.000Z</time>
      </trkpt>
      <trkpt lat="49.79897" lon="4.79804">
        <ele>300</ele>
        <time>2022-08-19T06:32:30.000Z</time>
      </trkpt>
      <trkpt lat="49.79901" lon="4.79803">
        <ele>300</ele>
        <time>2022-08-19T06:32:31.000Z</time>
      </trkpt>
      <trkpt lat="49.79906" lon="4.79803">
        <ele>300</ele>
        <time>2022-08-19T06:32:32.000Z</time>
      </trkpt>
      <trkpt lat="49.79912" lon="4.79803">
        <ele>300</ele>
        <time>2022-08-19T06:32:33.000Z</time>
      </trkpt>
      <trkpt lat="49.79917" lon="4.79803">
        <ele>300</ele>
        <time>2022-08-19T06:32:34.000Z</time>
      </trkpt>
      <trkpt lat="49.79923" lon="4.79802">
        <ele>300</ele>
        <time>2022-08-19T06:32:35.000Z</time>
      </trkpt>
      <trkpt lat="49.79929" lon="4.79801">
        <ele>300</ele>
        <time>2022-08-19T06:32:36.000Z</time>
      </trkpt>
      <trkpt lat="49.79934" lon="4.79801">
        <ele>301</ele>
        <time>2022-08-19T06:32:37.000Z</time>
      </trkpt>
      <trkpt lat="49.79939" lon="4.798">
        <ele>301</ele>
        <time>2022-08-19T06:32:38.000Z</time>
      </trkpt>
      <trkpt lat="49.79944" lon="4.79801">
        <ele>301</ele>
        <time>2022-08-19T06:32:39.000Z</time>
      </trkpt>
      <trkpt lat="49.79949" lon="4.79801">
        <ele>301</ele>
        <time>2022-08-19T06:32:40.000Z</time>
      </trkpt>
      <trkpt lat="49.79955" lon="4.798">
        <ele>301</ele>
        <time>2022-08-19T06:32:41.000Z</time>
      </trkpt>
      <trkpt lat="49.79961" lon="4.798">
        <ele>301</ele>
        <time>2022-08-19T06:32:42.000Z</time>
      </trkpt>
      <trkpt lat="49.79967" lon="4.798">
        <ele>301</ele>
        <time>2022-08-19T06:32:43.000Z</time>
      </trkpt>
      <trkpt lat="49.79972" lon="4.79799">
        <ele>301</ele>
        <time>2022-08-19T06:32:44.000Z</time>
      </trkpt>
      <trkpt lat="49.79978" lon="4.79799">
        <ele>301</ele>
        <time>2022-08-19T06:32:45.000Z</time>
      </trkpt>
      <trkpt lat="49.79983" lon="4.79799">
        <ele>301</ele>
        <time>2022-08-19T06:32:46.000Z</time>
      </trkpt>
      <trkpt lat="49.79988" lon="4.79799">
        <ele>301</ele>
        <time>2022-08-19T06:32:47.000Z</time>
      </trkpt>
      <trkpt lat="49.79992" lon="4.79798">
        <ele>301</ele>
        <time>2022-08-19T06:32:48.000Z</time>
      </trkpt>
      <trkpt lat="49.79997" lon="4.79797">
        <ele>301</ele>
        <time>2022-08-19T06:32:49.000Z</time>
      </trkpt>
      <trkpt lat="49.80001" lon="4.79797">
        <ele>301</ele>
        <time>2022-08-19T06:32:50.000Z</time>
      </trkpt>
      <trkpt lat="49.80006" lon="4.79796">
        <ele>301</ele>
        <time>2022-08-19T06:32:51.000Z</time>
      </trkpt>
      <trkpt lat="49.80011" lon="4.79796">
        <ele>301</ele>
        <time>2022-08-19T06:32:52.000Z</time>
      </trkpt>
      <trkpt lat="49.80015" lon="4.79796">
        <ele>301</ele>
        <time>2022-08-19T06:32:53.000Z</time>
      </trkpt>
      <trkpt lat="49.80018" lon="4.79796">
        <ele>301</ele>
        <time>2022-08-19T06:32:54.000Z</time>
      </trkpt>
      <trkpt lat="49.80023" lon="4.79796">
        <ele>301</ele>
        <time>2022-08-19T06:32:55.000Z</time>
      </trkpt>
      <trkpt lat="49.80027" lon="4.79796">
        <ele>301</ele>
        <time>2022-08-19T06:32:56.000Z</time>
      </trkpt>
      <trkpt lat="49.80032" lon="4.79795">
        <ele>301</ele>
        <time>2022-08-19T06:32:57.000Z</time>
      </trkpt>
      <trkpt lat="49.80037" lon="4.79795">
        <ele>301</ele>
        <time>2022-08-19T06:32:58.000Z</time>
      </trkpt>
      <trkpt lat="49.80042" lon="4.79794">
        <ele>301</ele>
        <time>2022-08-19T06:32:59.000Z</time>
      </trkpt>
      <trkpt lat="49.80048" lon="4.79794">
        <ele>301</ele>
        <time>2022-08-19T06:33:00.000Z</time>
      </trkpt>
      <trkpt lat="49.80053" lon="4.79793">
        <ele>301</ele>
        <time>2022-08-19T06:33:01.000Z</time>
      </trkpt>
      <trkpt lat="49.80059" lon="4.79792">
        <ele>301</ele>
        <time>2022-08-19T06:33:02.000Z</time>
      </trkpt>
      <trkpt lat="49.80064" lon="4.79791">
        <ele>300</ele>
        <time>2022-08-19T06:33:03.000Z</time>
      </trkpt>
      <trkpt lat="49.8007" lon="4.7979">
        <ele>300</ele>
        <time>2022-08-19T06:33:04.000Z</time>
      </trkpt>
      <trkpt lat="49.80075" lon="4.79789">
        <ele>300</ele>
        <time>2022-08-19T06:33:05.000Z</time>
      </trkpt>
      <trkpt lat="49.80081" lon="4.79789">
        <ele>300</ele>
        <time>2022-08-19T06:33:06.000Z</time>
      </trkpt>
      <trkpt lat="49.80086" lon="4.79789">
        <ele>300</ele>
        <time>2022-08-19T06:33:07.000Z</time>
      </trkpt>
      <trkpt lat="49.80092" lon="4.79789">
        <ele>300</ele>
        <time>2022-08-19T06:33:08.000Z</time>
      </trkpt>
      <trkpt lat="49.80098" lon="4.7979">
        <ele>299</ele>
        <time>2022-08-19T06:33:09.000Z</time>
      </trkpt>
      <trkpt lat="49.80104" lon="4.7979">
        <ele>299</ele>
        <time>2022-08-19T06:33:10.000Z</time>
      </trkpt>
      <trkpt lat="49.8011" lon="4.79788">
        <ele>299</ele>
        <time>2022-08-19T06:33:11.000Z</time>
      </trkpt>
      <trkpt lat="49.80115" lon="4.79787">
        <ele>299</ele>
        <time>2022-08-19T06:33:12.000Z</time>
      </trkpt>
      <trkpt lat="49.8012" lon="4.79786">
        <ele>298</ele>
        <time>2022-08-19T06:33:13.000Z</time>
      </trkpt>
      <trkpt lat="49.80125" lon="4.79785">
        <ele>298</ele>
        <time>2022-08-19T06:33:14.000Z</time>
      </trkpt>
      <trkpt lat="49.80129" lon="4.79784">
        <ele>298</ele>
        <time>2022-08-19T06:33:15.000Z</time>
      </trkpt>
      <trkpt lat="49.80134" lon="4.79783">
        <ele>297</ele>
        <time>2022-08-19T06:33:16.000Z</time>
      </trkpt>
      <trkpt lat="49.80138" lon="4.79782">
        <ele>297</ele>
        <time>2022-08-19T06:33:17.000Z</time>
      </trkpt>
      <trkpt lat="49.80143" lon="4.79782">
        <ele>297</ele>
        <time>2022-08-19T06:33:18.000Z</time>
      </trkpt>
      <trkpt lat="49.80147" lon="4.79781">
        <ele>296</ele>
        <time>2022-08-19T06:33:19.000Z</time>
      </trkpt>
      <trkpt lat="49.80151" lon="4.7978">
        <ele>296</ele>
        <time>2022-08-19T06:33:20.000Z</time>
      </trkpt>
      <trkpt lat="49.80154" lon="4.79779">
        <ele>295</ele>
        <time>2022-08-19T06:33:21.000Z</time>
      </trkpt>
      <trkpt lat="49.80156" lon="4.79779">
        <ele>295</ele>
        <time>2022-08-19T06:33:22.000Z</time>
      </trkpt>
      <trkpt lat="49.80159" lon="4.79779">
        <ele>294</ele>
        <time>2022-08-19T06:33:23.000Z</time>
      </trkpt>
      <trkpt lat="49.80161" lon="4.79781">
        <ele>294</ele>
        <time>2022-08-19T06:33:24.000Z</time>
      </trkpt>
      <trkpt lat="49.80164" lon="4.79783">
        <ele>293</ele>
        <time>2022-08-19T06:33:25.000Z</time>
      </trkpt>
      <trkpt lat="49.80167" lon="4.79786">
        <ele>293</ele>
        <time>2022-08-19T06:33:26.000Z</time>
      </trkpt>
      <trkpt lat="49.8017" lon="4.79789">
        <ele>293</ele>
        <time>2022-08-19T06:33:27.000Z</time>
      </trkpt>
      <trkpt lat="49.80171" lon="4.79793">
        <ele>292</ele>
        <time>2022-08-19T06:33:28.000Z</time>
      </trkpt>
      <trkpt lat="49.80173" lon="4.79796">
        <ele>292</ele>
        <time>2022-08-19T06:33:29.000Z</time>
      </trkpt>
      <trkpt lat="49.80175" lon="4.79799">
        <ele>292</ele>
        <time>2022-08-19T06:33:30.000Z</time>
      </trkpt>
      <trkpt lat="49.80178" lon="4.79802">
        <ele>291</ele>
        <time>2022-08-19T06:33:31.000Z</time>
      </trkpt>
      <trkpt lat="49.8018" lon="4.79805">
        <ele>291</ele>
        <time>2022-08-19T06:33:32.000Z</time>
      </trkpt>
      <trkpt lat="49.80182" lon="4.79809">
        <ele>290</ele>
        <time>2022-08-19T06:33:33.000Z</time>
      </trkpt>
      <trkpt lat="49.80183" lon="4.79812">
        <ele>290</ele>
        <time>2022-08-19T06:33:34.000Z</time>
      </trkpt>
      <trkpt lat="49.80185" lon="4.79815">
        <ele>290</ele>
        <time>2022-08-19T06:33:35.000Z</time>
      </trkpt>
      <trkpt lat="49.80187" lon="4.79816">
        <ele>289</ele>
        <time>2022-08-19T06:33:36.000Z</time>
      </trkpt>
      <trkpt lat="49.8019" lon="4.79816">
        <ele>289</ele>
        <time>2022-08-19T06:33:37.000Z</time>
      </trkpt>
      <trkpt lat="49.80193" lon="4.79816">
        <ele>289</ele>
        <time>2022-08-19T06:33:38.000Z</time>
      </trkpt>
      <trkpt lat="49.80197" lon="4.79817">
        <ele>289</ele>
        <time>2022-08-19T06:33:39.000Z</time>
      </trkpt>
      <trkpt lat="49.80201" lon="4.79818">
        <ele>289</ele>
        <time>2022-08-19T06:33:40.000Z</time>
      </trkpt>
      <trkpt lat="49.80204" lon="4.79818">
        <ele>289</ele>
        <time>2022-08-19T06:33:41.000Z</time>
      </trkpt>
      <trkpt lat="49.80208" lon="4.79819">
        <ele>289</ele>
        <time>2022-08-19T06:33:42.000Z</time>
      </trkpt>
      <trkpt lat="49.80212" lon="4.79819">
        <ele>289</ele>
        <time>2022-08-19T06:33:43.000Z</time>
      </trkpt>
      <trkpt lat="49.80215" lon="4.79819">
        <ele>289</ele>
        <time>2022-08-19T06:33:44.000Z</time>
      </trkpt>
      <trkpt lat="49.80218" lon="4.79819">
        <ele>289</ele>
        <time>2022-08-19T06:33:45.000Z</time>
      </trkpt>
      <trkpt lat="49.80222" lon="4.79818">
        <ele>288</ele>
        <time>2022-08-19T06:33:46.000Z</time>
      </trkpt>
      <trkpt lat="49.80225" lon="4.79819">
        <ele>288</ele>
        <time>2022-08-19T06:33:47.000Z</time>
      </trkpt>
      <trkpt lat="49.80228" lon="4.7982">
        <ele>288</ele>
        <time>2022-08-19T06:33:48.000Z</time>
      </trkpt>
      <trkpt lat="49.8023" lon="4.79821">
        <ele>288</ele>
        <time>2022-08-19T06:33:49.000Z</time>
      </trkpt>
      <trkpt lat="49.80233" lon="4.79822">
        <ele>288</ele>
        <time>2022-08-19T06:33:50.000Z</time>
      </trkpt>
      <trkpt lat="49.80235" lon="4.79824">
        <ele>288</ele>
        <time>2022-08-19T06:33:51.000Z</time>
      </trkpt>
      <trkpt lat="49.80238" lon="4.79825">
        <ele>288</ele>
        <time>2022-08-19T06:33:52.000Z</time>
      </trkpt>
      <trkpt lat="49.80241" lon="4.79826">
        <ele>288</ele>
        <time>2022-08-19T06:33:53.000Z</time>
      </trkpt>
      <trkpt lat="49.80243" lon="4.79827">
        <ele>288</ele>
        <time>2022-08-19T06:33:54.000Z</time>
      </trkpt>
      <trkpt lat="49.80247" lon="4.79827">
        <ele>288</ele>
        <time>2022-08-19T06:33:55.000Z</time>
      </trkpt>
      <trkpt lat="49.8025" lon="4.79827">
        <ele>288</ele>
        <time>2022-08-19T06:33:56.000Z</time>
      </trkpt>
      <trkpt lat="49.80253" lon="4.79827">
        <ele>288</ele>
        <time>2022-08-19T06:33:57.000Z</time>
      </trkpt>
      <trkpt lat="49.80257" lon="4.79828">
        <ele>288</ele>
        <time>2022-08-19T06:33:58.000Z</time>
      </trkpt>
      <trkpt lat="49.8026" lon="4.79828">
        <ele>288</ele>
        <time>2022-08-19T06:33:59.000Z</time>
      </trkpt>
      <trkpt lat="49.80263" lon="4.79829">
        <ele>288</ele>
        <time>2022-08-19T06:34:00.000Z</time>
      </trkpt>
      <trkpt lat="49.80267" lon="4.79829">
        <ele>288</ele>
        <time>2022-08-19T06:34:01.000Z</time>
      </trkpt>
      <trkpt lat="49.8027" lon="4.7983">
        <ele>288</ele>
        <time>2022-08-19T06:34:02.000Z</time>
      </trkpt>
      <trkpt lat="49.80273" lon="4.79831">
        <ele>288</ele>
        <time>2022-08-19T06:34:03.000Z</time>
      </trkpt>
      <trkpt lat="49.80275" lon="4.79832">
        <ele>288</ele>
        <time>2022-08-19T06:34:04.000Z</time>
      </trkpt>
      <trkpt lat="49.80277" lon="4.79832">
        <ele>288</ele>
        <time>2022-08-19T06:34:05.000Z</time>
      </trkpt>
      <trkpt lat="49.80279" lon="4.79832">
        <ele>288</ele>
        <time>2022-08-19T06:34:06.000Z</time>
      </trkpt>
      <trkpt lat="49.80281" lon="4.79832">
        <ele>288</ele>
        <time>2022-08-19T06:34:07.000Z</time>
      </trkpt>
      <trkpt lat="49.80283" lon="4.79833">
        <ele>288</ele>
        <time>2022-08-19T06:34:08.000Z</time>
      </trkpt>
      <trkpt lat="49.80285" lon="4.79835">
        <ele>288</ele>
        <time>2022-08-19T06:34:09.000Z</time>
      </trkpt>
      <trkpt lat="49.80288" lon="4.79837">
        <ele>288</ele>
        <time>2022-08-19T06:34:10.000Z</time>
      </trkpt>
      <trkpt lat="49.8029" lon="4.79839">
        <ele>288</ele>
        <time>2022-08-19T06:34:11.000Z</time>
      </trkpt>
      <trkpt lat="49.80292" lon="4.79841">
        <ele>288</ele>
        <time>2022-08-19T06:34:12.000Z</time>
      </trkpt>
      <trkpt lat="49.80294" lon="4.79842">
        <ele>288</ele>
        <time>2022-08-19T06:34:13.000Z</time>
      </trkpt>
      <trkpt lat="49.80295" lon="4.79845">
        <ele>288</ele>
        <time>2022-08-19T06:34:14.000Z</time>
      </trkpt>
      <trkpt lat="49.80297" lon="4.79847">
        <ele>288</ele>
        <time>2022-08-19T06:34:15.000Z</time>
      </trkpt>
      <trkpt lat="49.80298" lon="4.79849">
        <ele>288</ele>
        <time>2022-08-19T06:34:16.000Z</time>
      </trkpt>
      <trkpt lat="49.80299" lon="4.79852">
        <ele>288</ele>
        <time>2022-08-19T06:34:17.000Z</time>
      </trkpt>
      <trkpt lat="49.80301" lon="4.79853">
        <ele>288</ele>
        <time>2022-08-19T06:34:18.000Z</time>
      </trkpt>
      <trkpt lat="49.80303" lon="4.79855">
        <ele>289</ele>
        <time>2022-08-19T06:34:19.000Z</time>
      </trkpt>
      <trkpt lat="49.80305" lon="4.79857">
        <ele>289</ele>
        <time>2022-08-19T06:34:20.000Z</time>
      </trkpt>
      <trkpt lat="49.80307" lon="4.79859">
        <ele>289</ele>
        <time>2022-08-19T06:34:21.000Z</time>
      </trkpt>
      <trkpt lat="49.80308" lon="4.79861">
        <ele>289</ele>
        <time>2022-08-19T06:34:22.000Z</time>
      </trkpt>
      <trkpt lat="49.8031" lon="4.79863">
        <ele>289</ele>
        <time>2022-08-19T06:34:23.000Z</time>
      </trkpt>
      <trkpt lat="49.80312" lon="4.79865">
        <ele>290</ele>
        <time>2022-08-19T06:34:24.000Z</time>
      </trkpt>
      <trkpt lat="49.80313" lon="4.79867">
        <ele>290</ele>
        <time>2022-08-19T06:34:25.000Z</time>
      </trkpt>
      <trkpt lat="49.80314" lon="4.7987">
        <ele>290</ele>
        <time>2022-08-19T06:34:26.000Z</time>
      </trkpt>
      <trkpt lat="49.80315" lon="4.79873">
        <ele>290</ele>
        <time>2022-08-19T06:34:27.000Z</time>
      </trkpt>
      <trkpt lat="49.80315" lon="4.79876">
        <ele>290</ele>
        <time>2022-08-19T06:34:28.000Z</time>
      </trkpt>
      <trkpt lat="49.80315" lon="4.79881">
        <ele>290</ele>
        <time>2022-08-19T06:34:29.000Z</time>
      </trkpt>
      <trkpt lat="49.80314" lon="4.79885">
        <ele>290</ele>
        <time>2022-08-19T06:34:30.000Z</time>
      </trkpt>
      <trkpt lat="49.80313" lon="4.79889">
        <ele>290</ele>
        <time>2022-08-19T06:34:31.000Z</time>
      </trkpt>
      <trkpt lat="49.80312" lon="4.79893">
        <ele>290</ele>
        <time>2022-08-19T06:34:32.000Z</time>
      </trkpt>
      <trkpt lat="49.80312" lon="4.79897">
        <ele>289</ele>
        <time>2022-08-19T06:34:33.000Z</time>
      </trkpt>
      <trkpt lat="49.80311" lon="4.79901">
        <ele>289</ele>
        <time>2022-08-19T06:34:34.000Z</time>
      </trkpt>
      <trkpt lat="49.80311" lon="4.79906">
        <ele>289</ele>
        <time>2022-08-19T06:34:35.000Z</time>
      </trkpt>
      <trkpt lat="49.8031" lon="4.79911">
        <ele>289</ele>
        <time>2022-08-19T06:34:36.000Z</time>
      </trkpt>
      <trkpt lat="49.8031" lon="4.79916">
        <ele>289</ele>
        <time>2022-08-19T06:34:37.000Z</time>
      </trkpt>
      <trkpt lat="49.80309" lon="4.79921">
        <ele>289</ele>
        <time>2022-08-19T06:34:38.000Z</time>
      </trkpt>
      <trkpt lat="49.80308" lon="4.79925">
        <ele>289</ele>
        <time>2022-08-19T06:34:39.000Z</time>
      </trkpt>
      <trkpt lat="49.80307" lon="4.79931">
        <ele>289</ele>
        <time>2022-08-19T06:34:40.000Z</time>
      </trkpt>
      <trkpt lat="49.80307" lon="4.79937">
        <ele>289</ele>
        <time>2022-08-19T06:34:41.000Z</time>
      </trkpt>
      <trkpt lat="49.80306" lon="4.79944">
        <ele>289</ele>
        <time>2022-08-19T06:34:42.000Z</time>
      </trkpt>
      <trkpt lat="49.80305" lon="4.7995">
        <ele>289</ele>
        <time>2022-08-19T06:34:43.000Z</time>
      </trkpt>
      <trkpt lat="49.80304" lon="4.79956">
        <ele>289</ele>
        <time>2022-08-19T06:34:44.000Z</time>
      </trkpt>
      <trkpt lat="49.80303" lon="4.79962">
        <ele>289</ele>
        <time>2022-08-19T06:34:45.000Z</time>
      </trkpt>
      <trkpt lat="49.80301" lon="4.79968">
        <ele>289</ele>
        <time>2022-08-19T06:34:46.000Z</time>
      </trkpt>
      <trkpt lat="49.803" lon="4.79975">
        <ele>289</ele>
        <time>2022-08-19T06:34:47.000Z</time>
      </trkpt>
      <trkpt lat="49.80299" lon="4.79981">
        <ele>289</ele>
        <time>2022-08-19T06:34:48.000Z</time>
      </trkpt>
      <trkpt lat="49.80298" lon="4.79987">
        <ele>289</ele>
        <time>2022-08-19T06:34:49.000Z</time>
      </trkpt>
      <trkpt lat="49.80298" lon="4.79993">
        <ele>289</ele>
        <time>2022-08-19T06:34:50.000Z</time>
      </trkpt>
      <trkpt lat="49.80297" lon="4.79999">
        <ele>289</ele>
        <time>2022-08-19T06:34:51.000Z</time>
      </trkpt>
      <trkpt lat="49.80296" lon="4.80004">
        <ele>289</ele>
        <time>2022-08-19T06:34:52.000Z</time>
      </trkpt>
      <trkpt lat="49.80295" lon="4.80011">
        <ele>289</ele>
        <time>2022-08-19T06:34:53.000Z</time>
      </trkpt>
      <trkpt lat="49.80294" lon="4.80017">
        <ele>289</ele>
        <time>2022-08-19T06:34:54.000Z</time>
      </trkpt>
      <trkpt lat="49.80295" lon="4.80024">
        <ele>289</ele>
        <time>2022-08-19T06:34:55.000Z</time>
      </trkpt>
      <trkpt lat="49.80297" lon="4.80031">
        <ele>289</ele>
        <time>2022-08-19T06:34:56.000Z</time>
      </trkpt>
      <trkpt lat="49.80299" lon="4.80038">
        <ele>289</ele>
        <time>2022-08-19T06:34:57.000Z</time>
      </trkpt>
      <trkpt lat="49.803" lon="4.80046">
        <ele>288</ele>
        <time>2022-08-19T06:34:58.000Z</time>
      </trkpt>
      <trkpt lat="49.80302" lon="4.80054">
        <ele>288</ele>
        <time>2022-08-19T06:34:59.000Z</time>
      </trkpt>
      <trkpt lat="49.80304" lon="4.80062">
        <ele>288</ele>
        <time>2022-08-19T06:35:00.000Z</time>
      </trkpt>
      <trkpt lat="49.80306" lon="4.80069">
        <ele>288</ele>
        <time>2022-08-19T06:35:01.000Z</time>
      </trkpt>
      <trkpt lat="49.80308" lon="4.80077">
        <ele>288</ele>
        <time>2022-08-19T06:35:02.000Z</time>
      </trkpt>
      <trkpt lat="49.8031" lon="4.80084">
        <ele>288</ele>
        <time>2022-08-19T06:35:03.000Z</time>
      </trkpt>
      <trkpt lat="49.80311" lon="4.80091">
        <ele>288</ele>
        <time>2022-08-19T06:35:04.000Z</time>
      </trkpt>
      <trkpt lat="49.80313" lon="4.80098">
        <ele>288</ele>
        <time>2022-08-19T06:35:05.000Z</time>
      </trkpt>
      <trkpt lat="49.80315" lon="4.80106">
        <ele>288</ele>
        <time>2022-08-19T06:35:06.000Z</time>
      </trkpt>
      <trkpt lat="49.80318" lon="4.80114">
        <ele>288</ele>
        <time>2022-08-19T06:35:07.000Z</time>
      </trkpt>
      <trkpt lat="49.80319" lon="4.80121">
        <ele>288</ele>
        <time>2022-08-19T06:35:08.000Z</time>
      </trkpt>
      <trkpt lat="49.8032" lon="4.80128">
        <ele>288</ele>
        <time>2022-08-19T06:35:09.000Z</time>
      </trkpt>
      <trkpt lat="49.80322" lon="4.80134">
        <ele>288</ele>
        <time>2022-08-19T06:35:10.000Z</time>
      </trkpt>
      <trkpt lat="49.80324" lon="4.8014">
        <ele>288</ele>
        <time>2022-08-19T06:35:11.000Z</time>
      </trkpt>
      <trkpt lat="49.80326" lon="4.80148">
        <ele>287</ele>
        <time>2022-08-19T06:35:12.000Z</time>
      </trkpt>
      <trkpt lat="49.80328" lon="4.80156">
        <ele>287</ele>
        <time>2022-08-19T06:35:13.000Z</time>
      </trkpt>
      <trkpt lat="49.80328" lon="4.80165">
        <ele>287</ele>
        <time>2022-08-19T06:35:14.000Z</time>
      </trkpt>
      <trkpt lat="49.80328" lon="4.80172">
        <ele>287</ele>
        <time>2022-08-19T06:35:15.000Z</time>
      </trkpt>
      <trkpt lat="49.80329" lon="4.8018">
        <ele>286</ele>
        <time>2022-08-19T06:35:16.000Z</time>
      </trkpt>
      <trkpt lat="49.8033" lon="4.80188">
        <ele>286</ele>
        <time>2022-08-19T06:35:17.000Z</time>
      </trkpt>
      <trkpt lat="49.8033" lon="4.80195">
        <ele>286</ele>
        <time>2022-08-19T06:35:18.000Z</time>
      </trkpt>
      <trkpt lat="49.8033" lon="4.80203">
        <ele>286</ele>
        <time>2022-08-19T06:35:19.000Z</time>
      </trkpt>
      <trkpt lat="49.8033" lon="4.80211">
        <ele>286</ele>
        <time>2022-08-19T06:35:20.000Z</time>
      </trkpt>
      <trkpt lat="49.8033" lon="4.80219">
        <ele>285</ele>
        <time>2022-08-19T06:35:21.000Z</time>
      </trkpt>
      <trkpt lat="49.80331" lon="4.80228">
        <ele>285</ele>
        <time>2022-08-19T06:35:22.000Z</time>
      </trkpt>
      <trkpt lat="49.80331" lon="4.80235">
        <ele>285</ele>
        <time>2022-08-19T06:35:23.000Z</time>
      </trkpt>
      <trkpt lat="49.80331" lon="4.80242">
        <ele>285</ele>
        <time>2022-08-19T06:35:24.000Z</time>
      </trkpt>
      <trkpt lat="49.80331" lon="4.80248">
        <ele>285</ele>
        <time>2022-08-19T06:35:25.000Z</time>
      </trkpt>
      <trkpt lat="49.8033" lon="4.80254">
        <ele>285</ele>
        <time>2022-08-19T06:35:26.000Z</time>
      </trkpt>
      <trkpt lat="49.80328" lon="4.80261">
        <ele>284</ele>
        <time>2022-08-19T06:35:27.000Z</time>
      </trkpt>
      <trkpt lat="49.80326" lon="4.80267">
        <ele>284</ele>
        <time>2022-08-19T06:35:28.000Z</time>
      </trkpt>
      <trkpt lat="49.80324" lon="4.80272">
        <ele>284</ele>
        <time>2022-08-19T06:35:29.000Z</time>
      </trkpt>
      <trkpt lat="49.80322" lon="4.80277">
        <ele>284</ele>
        <time>2022-08-19T06:35:30.000Z</time>
      </trkpt>
      <trkpt lat="49.80319" lon="4.80283">
        <ele>284</ele>
        <time>2022-08-19T06:35:31.000Z</time>
      </trkpt>
      <trkpt lat="49.80316" lon="4.80288">
        <ele>283</ele>
        <time>2022-08-19T06:35:32.000Z</time>
      </trkpt>
      <trkpt lat="49.80313" lon="4.80295">
        <ele>283</ele>
        <time>2022-08-19T06:35:33.000Z</time>
      </trkpt>
      <trkpt lat="49.8031" lon="4.80303">
        <ele>283</ele>
        <time>2022-08-19T06:35:34.000Z</time>
      </trkpt>
      <trkpt lat="49.80307" lon="4.8031">
        <ele>282</ele>
        <time>2022-08-19T06:35:35.000Z</time>
      </trkpt>
      <trkpt lat="49.80304" lon="4.80317">
        <ele>282</ele>
        <time>2022-08-19T06:35:36.000Z</time>
      </trkpt>
      <trkpt lat="49.80303" lon="4.80324">
        <ele>282</ele>
        <time>2022-08-19T06:35:37.000Z</time>
      </trkpt>
      <trkpt lat="49.80301" lon="4.80329">
        <ele>281</ele>
        <time>2022-08-19T06:35:38.000Z</time>
      </trkpt>
      <trkpt lat="49.80299" lon="4.80336">
        <ele>281</ele>
        <time>2022-08-19T06:35:39.000Z</time>
      </trkpt>
      <trkpt lat="49.80297" lon="4.80342">
        <ele>281</ele>
        <time>2022-08-19T06:35:40.000Z</time>
      </trkpt>
      <trkpt lat="49.80294" lon="4.80346">
        <ele>281</ele>
        <time>2022-08-19T06:35:41.000Z</time>
      </trkpt>
      <trkpt lat="49.80292" lon="4.80349">
        <ele>280</ele>
        <time>2022-08-19T06:35:42.000Z</time>
      </trkpt>
      <trkpt lat="49.80289" lon="4.8035">
        <ele>280</ele>
        <time>2022-08-19T06:35:43.000Z</time>
      </trkpt>
      <trkpt lat="49.80287" lon="4.8035">
        <ele>280</ele>
        <time>2022-08-19T06:35:44.000Z</time>
      </trkpt>
      <trkpt lat="49.80286" lon="4.80349">
        <ele>280</ele>
        <time>2022-08-19T06:35:45.000Z</time>
      </trkpt>
      <trkpt lat="49.80285" lon="4.8035">
        <ele>279</ele>
        <time>2022-08-19T06:35:46.000Z</time>
      </trkpt>
      <trkpt lat="49.80284" lon="4.80351">
        <ele>279</ele>
        <time>2022-08-19T06:35:47.000Z</time>
      </trkpt>
      <trkpt lat="49.80284" lon="4.80353">
        <ele>279</ele>
        <time>2022-08-19T06:35:48.000Z</time>
      </trkpt>
      <trkpt lat="49.80284" lon="4.80355">
        <ele>279</ele>
        <time>2022-08-19T06:35:49.000Z</time>
      </trkpt>
      <trkpt lat="49.80286" lon="4.80358">
        <ele>278</ele>
        <time>2022-08-19T06:35:50.000Z</time>
      </trkpt>
      <trkpt lat="49.80287" lon="4.80362">
        <ele>278</ele>
        <time>2022-08-19T06:35:51.000Z</time>
      </trkpt>
      <trkpt lat="49.80287" lon="4.80366">
        <ele>278</ele>
        <time>2022-08-19T06:35:52.000Z</time>
      </trkpt>
      <trkpt lat="49.80286" lon="4.8037">
        <ele>278</ele>
        <time>2022-08-19T06:35:53.000Z</time>
      </trkpt>
      <trkpt lat="49.80286" lon="4.80376">
        <ele>277</ele>
        <time>2022-08-19T06:35:54.000Z</time>
      </trkpt>
      <trkpt lat="49.80284" lon="4.80381">
        <ele>277</ele>
        <time>2022-08-19T06:35:55.000Z</time>
      </trkpt>
      <trkpt lat="49.80282" lon="4.80386">
        <ele>277</ele>
        <time>2022-08-19T06:35:56.000Z</time>
      </trkpt>
      <trkpt lat="49.80279" lon="4.80391">
        <ele>277</ele>
        <time>2022-08-19T06:35:57.000Z</time>
      </trkpt>
      <trkpt lat="49.80276" lon="4.80394">
        <ele>277</ele>
        <time>2022-08-19T06:35:58.000Z</time>
      </trkpt>
      <trkpt lat="49.80272" lon="4.80399">
        <ele>276</ele>
        <time>2022-08-19T06:35:59.000Z</time>
      </trkpt>
      <trkpt lat="49.80269" lon="4.80403">
        <ele>276</ele>
        <time>2022-08-19T06:36:00.000Z</time>
      </trkpt>
      <trkpt lat="49.80266" lon="4.80405">
        <ele>276</ele>
        <time>2022-08-19T06:36:01.000Z</time>
      </trkpt>
      <trkpt lat="49.80264" lon="4.80407">
        <ele>276</ele>
        <time>2022-08-19T06:36:02.000Z</time>
      </trkpt>
      <trkpt lat="49.80263" lon="4.80408">
        <ele>276</ele>
        <time>2022-08-19T06:36:03.000Z</time>
      </trkpt>
      <trkpt lat="49.80261" lon="4.8041">
        <ele>276</ele>
        <time>2022-08-19T06:36:04.000Z</time>
      </trkpt>
      <trkpt lat="49.8026" lon="4.80413">
        <ele>275</ele>
        <time>2022-08-19T06:36:05.000Z</time>
      </trkpt>
      <trkpt lat="49.8026" lon="4.80417">
        <ele>275</ele>
        <time>2022-08-19T06:36:06.000Z</time>
      </trkpt>
      <trkpt lat="49.8026" lon="4.80419">
        <ele>275</ele>
        <time>2022-08-19T06:36:07.000Z</time>
      </trkpt>
      <trkpt lat="49.80261" lon="4.80419">
        <ele>275</ele>
        <time>2022-08-19T06:36:08.000Z</time>
      </trkpt>
      <trkpt lat="49.80262" lon="4.80421">
        <ele>275</ele>
        <time>2022-08-19T06:36:09.000Z</time>
      </trkpt>
      <trkpt lat="49.80265" lon="4.80424">
        <ele>275</ele>
        <time>2022-08-19T06:36:10.000Z</time>
      </trkpt>
      <trkpt lat="49.80268" lon="4.80425">
        <ele>275</ele>
        <time>2022-08-19T06:36:11.000Z</time>
      </trkpt>
      <trkpt lat="49.80272" lon="4.80427">
        <ele>274</ele>
        <time>2022-08-19T06:36:12.000Z</time>
      </trkpt>
      <trkpt lat="49.80276" lon="4.80427">
        <ele>274</ele>
        <time>2022-08-19T06:36:13.000Z</time>
      </trkpt>
      <trkpt lat="49.8028" lon="4.80428">
        <ele>274</ele>
        <time>2022-08-19T06:36:14.000Z</time>
      </trkpt>
      <trkpt lat="49.80284" lon="4.80428">
        <ele>274</ele>
        <time>2022-08-19T06:36:15.000Z</time>
      </trkpt>
      <trkpt lat="49.80288" lon="4.80428">
        <ele>274</ele>
        <time>2022-08-19T06:36:16.000Z</time>
      </trkpt>
      <trkpt lat="49.80292" lon="4.80429">
        <ele>274</ele>
        <time>2022-08-19T06:36:17.000Z</time>
      </trkpt>
      <trkpt lat="49.80295" lon="4.8043">
        <ele>274</ele>
        <time>2022-08-19T06:36:18.000Z</time>
      </trkpt>
      <trkpt lat="49.80299" lon="4.8043">
        <ele>274</ele>
        <time>2022-08-19T06:36:19.000Z</time>
      </trkpt>
      <trkpt lat="49.80302" lon="4.80431">
        <ele>273</ele>
        <time>2022-08-19T06:36:20.000Z</time>
      </trkpt>
      <trkpt lat="49.80307" lon="4.80432">
        <ele>273</ele>
        <time>2022-08-19T06:36:21.000Z</time>
      </trkpt>
      <trkpt lat="49.80312" lon="4.80432">
        <ele>273</ele>
        <time>2022-08-19T06:36:22.000Z</time>
      </trkpt>
      <trkpt lat="49.80317" lon="4.80433">
        <ele>273</ele>
        <time>2022-08-19T06:36:23.000Z</time>
      </trkpt>
      <trkpt lat="49.8032" lon="4.80433">
        <ele>272</ele>
        <time>2022-08-19T06:36:24.000Z</time>
      </trkpt>
      <trkpt lat="49.80323" lon="4.80434">
        <ele>272</ele>
        <time>2022-08-19T06:36:25.000Z</time>
      </trkpt>
      <trkpt lat="49.80326" lon="4.80434">
        <ele>272</ele>
        <time>2022-08-19T06:36:26.000Z</time>
      </trkpt>
      <trkpt lat="49.80328" lon="4.80435">
        <ele>271</ele>
        <time>2022-08-19T06:36:27.000Z</time>
      </trkpt>
      <trkpt lat="49.80331" lon="4.80435">
        <ele>271</ele>
        <time>2022-08-19T06:36:28.000Z</time>
      </trkpt>
      <trkpt lat="49.80334" lon="4.80435">
        <ele>270</ele>
        <time>2022-08-19T06:36:29.000Z</time>
      </trkpt>
      <trkpt lat="49.80336" lon="4.80435">
        <ele>270</ele>
        <time>2022-08-19T06:36:30.000Z</time>
      </trkpt>
      <trkpt lat="49.80338" lon="4.80435">
        <ele>270</ele>
        <time>2022-08-19T06:36:31.000Z</time>
      </trkpt>
      <trkpt lat="49.80341" lon="4.80436">
        <ele>270</ele>
        <time>2022-08-19T06:36:32.000Z</time>
      </trkpt>
      <trkpt lat="49.80344" lon="4.80436">
        <ele>269</ele>
        <time>2022-08-19T06:36:33.000Z</time>
      </trkpt>
      <trkpt lat="49.80347" lon="4.80436">
        <ele>269</ele>
        <time>2022-08-19T06:36:34.000Z</time>
      </trkpt>
      <trkpt lat="49.8035" lon="4.80436">
        <ele>269</ele>
        <time>2022-08-19T06:36:35.000Z</time>
      </trkpt>
      <trkpt lat="49.80353" lon="4.80436">
        <ele>268</ele>
        <time>2022-08-19T06:36:36.000Z</time>
      </trkpt>
      <trkpt lat="49.80356" lon="4.80436">
        <ele>268</ele>
        <time>2022-08-19T06:36:37.000Z</time>
      </trkpt>
      <trkpt lat="49.80359" lon="4.80437">
        <ele>268</ele>
        <time>2022-08-19T06:36:38.000Z</time>
      </trkpt>
      <trkpt lat="49.80362" lon="4.80439">
        <ele>268</ele>
        <time>2022-08-19T06:36:39.000Z</time>
      </trkpt>
      <trkpt lat="49.80366" lon="4.80441">
        <ele>267</ele>
        <time>2022-08-19T06:36:40.000Z</time>
      </trkpt>
      <trkpt lat="49.80369" lon="4.80442">
        <ele>267</ele>
        <time>2022-08-19T06:36:41.000Z</time>
      </trkpt>
      <trkpt lat="49.80374" lon="4.80442">
        <ele>267</ele>
        <time>2022-08-19T06:36:42.000Z</time>
      </trkpt>
      <trkpt lat="49.80377" lon="4.80442">
        <ele>267</ele>
        <time>2022-08-19T06:36:43.000Z</time>
      </trkpt>
      <trkpt lat="49.8038" lon="4.80442">
        <ele>266</ele>
        <time>2022-08-19T06:36:44.000Z</time>
      </trkpt>
      <trkpt lat="49.80383" lon="4.80441">
        <ele>266</ele>
        <time>2022-08-19T06:36:45.000Z</time>
      </trkpt>
      <trkpt lat="49.80386" lon="4.80439">
        <ele>266</ele>
        <time>2022-08-19T06:36:46.000Z</time>
      </trkpt>
      <trkpt lat="49.80389" lon="4.80438">
        <ele>265</ele>
        <time>2022-08-19T06:36:47.000Z</time>
      </trkpt>
      <trkpt lat="49.80393" lon="4.80436">
        <ele>265</ele>
        <time>2022-08-19T06:36:48.000Z</time>
      </trkpt>
      <trkpt lat="49.80397" lon="4.80436">
        <ele>265</ele>
        <time>2022-08-19T06:36:49.000Z</time>
      </trkpt>
      <trkpt lat="49.80402" lon="4.80436">
        <ele>264</ele>
        <time>2022-08-19T06:36:50.000Z</time>
      </trkpt>
      <trkpt lat="49.80407" lon="4.80436">
        <ele>264</ele>
        <time>2022-08-19T06:36:51.000Z</time>
      </trkpt>
      <trkpt lat="49.80411" lon="4.80437">
        <ele>263</ele>
        <time>2022-08-19T06:36:52.000Z</time>
      </trkpt>
      <trkpt lat="49.80415" lon="4.80437">
        <ele>263</ele>
        <time>2022-08-19T06:36:53.000Z</time>
      </trkpt>
      <trkpt lat="49.80418" lon="4.80435">
        <ele>263</ele>
        <time>2022-08-19T06:36:54.000Z</time>
      </trkpt>
      <trkpt lat="49.80422" lon="4.80434">
        <ele>262</ele>
        <time>2022-08-19T06:36:55.000Z</time>
      </trkpt>
      <trkpt lat="49.80427" lon="4.80434">
        <ele>262</ele>
        <time>2022-08-19T06:36:56.000Z</time>
      </trkpt>
      <trkpt lat="49.80432" lon="4.80434">
        <ele>262</ele>
        <time>2022-08-19T06:36:57.000Z</time>
      </trkpt>
      <trkpt lat="49.80438" lon="4.80434">
        <ele>261</ele>
        <time>2022-08-19T06:36:58.000Z</time>
      </trkpt>
      <trkpt lat="49.80443" lon="4.80434">
        <ele>261</ele>
        <time>2022-08-19T06:36:59.000Z</time>
      </trkpt>
      <trkpt lat="49.80448" lon="4.80434">
        <ele>261</ele>
        <time>2022-08-19T06:37:00.000Z</time>
      </trkpt>
      <trkpt lat="49.80453" lon="4.80434">
        <ele>260</ele>
        <time>2022-08-19T06:37:01.000Z</time>
      </trkpt>
      <trkpt lat="49.80459" lon="4.80433">
        <ele>260</ele>
        <time>2022-08-19T06:37:02.000Z</time>
      </trkpt>
      <trkpt lat="49.80465" lon="4.80433">
        <ele>259</ele>
        <time>2022-08-19T06:37:03.000Z</time>
      </trkpt>
      <trkpt lat="49.80471" lon="4.8043">
        <ele>259</ele>
        <time>2022-08-19T06:37:04.000Z</time>
      </trkpt>
      <trkpt lat="49.80478" lon="4.80428">
        <ele>259</ele>
        <time>2022-08-19T06:37:05.000Z</time>
      </trkpt>
      <trkpt lat="49.80486" lon="4.80426">
        <ele>258</ele>
        <time>2022-08-19T06:37:06.000Z</time>
      </trkpt>
      <trkpt lat="49.80494" lon="4.80423">
        <ele>258</ele>
        <time>2022-08-19T06:37:07.000Z</time>
      </trkpt>
      <trkpt lat="49.80501" lon="4.80421">
        <ele>258</ele>
        <time>2022-08-19T06:37:08.000Z</time>
      </trkpt>
      <trkpt lat="49.80507" lon="4.80419">
        <ele>257</ele>
        <time>2022-08-19T06:37:09.000Z</time>
      </trkpt>
      <trkpt lat="49.80513" lon="4.80417">
        <ele>257</ele>
        <time>2022-08-19T06:37:10.000Z</time>
      </trkpt>
      <trkpt lat="49.80518" lon="4.80415">
        <ele>257</ele>
        <time>2022-08-19T06:37:11.000Z</time>
      </trkpt>
      <trkpt lat="49.80523" lon="4.80411">
        <ele>256</ele>
        <time>2022-08-19T06:37:12.000Z</time>
      </trkpt>
      <trkpt lat="49.80526" lon="4.80407">
        <ele>255</ele>
        <time>2022-08-19T06:37:13.000Z</time>
      </trkpt>
      <trkpt lat="49.8053" lon="4.80402">
        <ele>254</ele>
        <time>2022-08-19T06:37:14.000Z</time>
      </trkpt>
      <trkpt lat="49.80533" lon="4.80396">
        <ele>253</ele>
        <time>2022-08-19T06:37:15.000Z</time>
      </trkpt>
      <trkpt lat="49.80536" lon="4.80389">
        <ele>252</ele>
        <time>2022-08-19T06:37:16.000Z</time>
      </trkpt>
      <trkpt lat="49.80539" lon="4.80382">
        <ele>251</ele>
        <time>2022-08-19T06:37:17.000Z</time>
      </trkpt>
      <trkpt lat="49.80542" lon="4.80376">
        <ele>250</ele>
        <time>2022-08-19T06:37:18.000Z</time>
      </trkpt>
      <trkpt lat="49.80545" lon="4.80369">
        <ele>249</ele>
        <time>2022-08-19T06:37:19.000Z</time>
      </trkpt>
      <trkpt lat="49.80549" lon="4.80363">
        <ele>249</ele>
        <time>2022-08-19T06:37:20.000Z</time>
      </trkpt>
      <trkpt lat="49.80553" lon="4.80357">
        <ele>248</ele>
        <time>2022-08-19T06:37:21.000Z</time>
      </trkpt>
      <trkpt lat="49.80556" lon="4.80351">
        <ele>247</ele>
        <time>2022-08-19T06:37:22.000Z</time>
      </trkpt>
      <trkpt lat="49.80559" lon="4.80344">
        <ele>246</ele>
        <time>2022-08-19T06:37:23.000Z</time>
      </trkpt>
      <trkpt lat="49.80562" lon="4.80337">
        <ele>246</ele>
        <time>2022-08-19T06:37:24.000Z</time>
      </trkpt>
      <trkpt lat="49.80565" lon="4.80331">
        <ele>245</ele>
        <time>2022-08-19T06:37:25.000Z</time>
      </trkpt>
      <trkpt lat="49.80568" lon="4.80324">
        <ele>244</ele>
        <time>2022-08-19T06:37:26.000Z</time>
      </trkpt>
      <trkpt lat="49.80571" lon="4.80317">
        <ele>243</ele>
        <time>2022-08-19T06:37:27.000Z</time>
      </trkpt>
      <trkpt lat="49.80576" lon="4.8031">
        <ele>243</ele>
        <time>2022-08-19T06:37:28.000Z</time>
      </trkpt>
      <trkpt lat="49.8058" lon="4.80304">
        <ele>242</ele>
        <time>2022-08-19T06:37:29.000Z</time>
      </trkpt>
      <trkpt lat="49.80585" lon="4.80298">
        <ele>242</ele>
        <time>2022-08-19T06:37:30.000Z</time>
      </trkpt>
      <trkpt lat="49.8059" lon="4.80292">
        <ele>241</ele>
        <time>2022-08-19T06:37:31.000Z</time>
      </trkpt>
      <trkpt lat="49.80595" lon="4.80286">
        <ele>240</ele>
        <time>2022-08-19T06:37:32.000Z</time>
      </trkpt>
      <trkpt lat="49.806" lon="4.80279">
        <ele>240</ele>
        <time>2022-08-19T06:37:33.000Z</time>
      </trkpt>
      <trkpt lat="49.80605" lon="4.80272">
        <ele>239</ele>
        <time>2022-08-19T06:37:34.000Z</time>
      </trkpt>
      <trkpt lat="49.8061" lon="4.80267">
        <ele>238</ele>
        <time>2022-08-19T06:37:35.000Z</time>
      </trkpt>
      <trkpt lat="49.80615" lon="4.8026">
        <ele>237</ele>
        <time>2022-08-19T06:37:36.000Z</time>
      </trkpt>
      <trkpt lat="49.8062" lon="4.80253">
        <ele>236</ele>
        <time>2022-08-19T06:37:37.000Z</time>
      </trkpt>
      <trkpt lat="49.80625" lon="4.80246">
        <ele>235</ele>
        <time>2022-08-19T06:37:38.000Z</time>
      </trkpt>
      <trkpt lat="49.80629" lon="4.80239">
        <ele>235</ele>
        <time>2022-08-19T06:37:39.000Z</time>
      </trkpt>
      <trkpt lat="49.80634" lon="4.80231">
        <ele>234</ele>
        <time>2022-08-19T06:37:40.000Z</time>
      </trkpt>
      <trkpt lat="49.80639" lon="4.80224">
        <ele>233</ele>
        <time>2022-08-19T06:37:41.000Z</time>
      </trkpt>
      <trkpt lat="49.80645" lon="4.80215">
        <ele>232</ele>
        <time>2022-08-19T06:37:42.000Z</time>
      </trkpt>
      <trkpt lat="49.8065" lon="4.80207">
        <ele>230</ele>
        <time>2022-08-19T06:37:43.000Z</time>
      </trkpt>
      <trkpt lat="49.80656" lon="4.80199">
        <ele>229</ele>
        <time>2022-08-19T06:37:44.000Z</time>
      </trkpt>
      <trkpt lat="49.80661" lon="4.80191">
        <ele>228</ele>
        <time>2022-08-19T06:37:45.000Z</time>
      </trkpt>
      <trkpt lat="49.80667" lon="4.80183">
        <ele>227</ele>
        <time>2022-08-19T06:37:46.000Z</time>
      </trkpt>
      <trkpt lat="49.80672" lon="4.80175">
        <ele>226</ele>
        <time>2022-08-19T06:37:47.000Z</time>
      </trkpt>
      <trkpt lat="49.80678" lon="4.80168">
        <ele>225</ele>
        <time>2022-08-19T06:37:48.000Z</time>
      </trkpt>
      <trkpt lat="49.80684" lon="4.8016">
        <ele>224</ele>
        <time>2022-08-19T06:37:49.000Z</time>
      </trkpt>
      <trkpt lat="49.80689" lon="4.80152">
        <ele>222</ele>
        <time>2022-08-19T06:37:50.000Z</time>
      </trkpt>
      <trkpt lat="49.80694" lon="4.80145">
        <ele>221</ele>
        <time>2022-08-19T06:37:51.000Z</time>
      </trkpt>
      <trkpt lat="49.80699" lon="4.80137">
        <ele>220</ele>
        <time>2022-08-19T06:37:52.000Z</time>
      </trkpt>
      <trkpt lat="49.80705" lon="4.80131">
        <ele>220</ele>
        <time>2022-08-19T06:37:53.000Z</time>
      </trkpt>
      <trkpt lat="49.80711" lon="4.80125">
        <ele>219</ele>
        <time>2022-08-19T06:37:54.000Z</time>
      </trkpt>
      <trkpt lat="49.80716" lon="4.8012">
        <ele>218</ele>
        <time>2022-08-19T06:37:55.000Z</time>
      </trkpt>
      <trkpt lat="49.80722" lon="4.80116">
        <ele>217</ele>
        <time>2022-08-19T06:37:56.000Z</time>
      </trkpt>
      <trkpt lat="49.80728" lon="4.80113">
        <ele>216</ele>
        <time>2022-08-19T06:37:57.000Z</time>
      </trkpt>
      <trkpt lat="49.80734" lon="4.80111">
        <ele>216</ele>
        <time>2022-08-19T06:37:58.000Z</time>
      </trkpt>
      <trkpt lat="49.8074" lon="4.80108">
        <ele>215</ele>
        <time>2022-08-19T06:37:59.000Z</time>
      </trkpt>
      <trkpt lat="49.80745" lon="4.80106">
        <ele>214</ele>
        <time>2022-08-19T06:38:00.000Z</time>
      </trkpt>
      <trkpt lat="49.8075" lon="4.80103">
        <ele>214</ele>
        <time>2022-08-19T06:38:01.000Z</time>
      </trkpt>
      <trkpt lat="49.80754" lon="4.80099">
        <ele>213</ele>
        <time>2022-08-19T06:38:02.000Z</time>
      </trkpt>
      <trkpt lat="49.80758" lon="4.80092">
        <ele>213</ele>
        <time>2022-08-19T06:38:03.000Z</time>
      </trkpt>
      <trkpt lat="49.80761" lon="4.80085">
        <ele>212</ele>
        <time>2022-08-19T06:38:04.000Z</time>
      </trkpt>
      <trkpt lat="49.80764" lon="4.80078">
        <ele>211</ele>
        <time>2022-08-19T06:38:05.000Z</time>
      </trkpt>
      <trkpt lat="49.80767" lon="4.8007">
        <ele>210</ele>
        <time>2022-08-19T06:38:06.000Z</time>
      </trkpt>
      <trkpt lat="49.8077" lon="4.80062">
        <ele>210</ele>
        <time>2022-08-19T06:38:07.000Z</time>
      </trkpt>
      <trkpt lat="49.80773" lon="4.80053">
        <ele>209</ele>
        <time>2022-08-19T06:38:08.000Z</time>
      </trkpt>
      <trkpt lat="49.80775" lon="4.80045">
        <ele>208</ele>
        <time>2022-08-19T06:38:09.000Z</time>
      </trkpt>
      <trkpt lat="49.80777" lon="4.80037">
        <ele>208</ele>
        <time>2022-08-19T06:38:10.000Z</time>
      </trkpt>
      <trkpt lat="49.80779" lon="4.80028">
        <ele>207</ele>
        <time>2022-08-19T06:38:11.000Z</time>
      </trkpt>
      <trkpt lat="49.80782" lon="4.80019">
        <ele>206</ele>
        <time>2022-08-19T06:38:12.000Z</time>
      </trkpt>
      <trkpt lat="49.80784" lon="4.8001">
        <ele>205</ele>
        <time>2022-08-19T06:38:13.000Z</time>
      </trkpt>
      <trkpt lat="49.80787" lon="4.80001">
        <ele>204</ele>
        <time>2022-08-19T06:38:14.000Z</time>
      </trkpt>
      <trkpt lat="49.80789" lon="4.79992">
        <ele>204</ele>
        <time>2022-08-19T06:38:15.000Z</time>
      </trkpt>
      <trkpt lat="49.80791" lon="4.79983">
        <ele>203</ele>
        <time>2022-08-19T06:38:16.000Z</time>
      </trkpt>
      <trkpt lat="49.80794" lon="4.79974">
        <ele>203</ele>
        <time>2022-08-19T06:38:17.000Z</time>
      </trkpt>
      <trkpt lat="49.80797" lon="4.79965">
        <ele>202</ele>
        <time>2022-08-19T06:38:18.000Z</time>
      </trkpt>
      <trkpt lat="49.808" lon="4.79956">
        <ele>201</ele>
        <time>2022-08-19T06:38:19.000Z</time>
      </trkpt>
      <trkpt lat="49.80803" lon="4.79946">
        <ele>201</ele>
        <time>2022-08-19T06:38:20.000Z</time>
      </trkpt>
      <trkpt lat="49.80807" lon="4.79936">
        <ele>200</ele>
        <time>2022-08-19T06:38:21.000Z</time>
      </trkpt>
      <trkpt lat="49.8081" lon="4.79925">
        <ele>199</ele>
        <time>2022-08-19T06:38:22.000Z</time>
      </trkpt>
      <trkpt lat="49.80814" lon="4.79914">
        <ele>199</ele>
        <time>2022-08-19T06:38:23.000Z</time>
      </trkpt>
      <trkpt lat="49.80819" lon="4.79903">
        <ele>198</ele>
        <time>2022-08-19T06:38:24.000Z</time>
      </trkpt>
      <trkpt lat="49.80824" lon="4.79892">
        <ele>197</ele>
        <time>2022-08-19T06:38:25.000Z</time>
      </trkpt>
      <trkpt lat="49.80831" lon="4.79882">
        <ele>196</ele>
        <time>2022-08-19T06:38:26.000Z</time>
      </trkpt>
      <trkpt lat="49.80838" lon="4.79872">
        <ele>195</ele>
        <time>2022-08-19T06:38:27.000Z</time>
      </trkpt>
      <trkpt lat="49.80847" lon="4.79863">
        <ele>195</ele>
        <time>2022-08-19T06:38:28.000Z</time>
      </trkpt>
      <trkpt lat="49.80855" lon="4.79854">
        <ele>194</ele>
        <time>2022-08-19T06:38:29.000Z</time>
      </trkpt>
      <trkpt lat="49.80865" lon="4.79845">
        <ele>193</ele>
        <time>2022-08-19T06:38:30.000Z</time>
      </trkpt>
      <trkpt lat="49.80874" lon="4.79837">
        <ele>191</ele>
        <time>2022-08-19T06:38:31.000Z</time>
      </trkpt>
      <trkpt lat="49.80884" lon="4.79828">
        <ele>190</ele>
        <time>2022-08-19T06:38:32.000Z</time>
      </trkpt>
      <trkpt lat="49.80893" lon="4.7982">
        <ele>189</ele>
        <time>2022-08-19T06:38:33.000Z</time>
      </trkpt>
      <trkpt lat="49.80903" lon="4.79811">
        <ele>188</ele>
        <time>2022-08-19T06:38:34.000Z</time>
      </trkpt>
      <trkpt lat="49.80912" lon="4.79802">
        <ele>186</ele>
        <time>2022-08-19T06:38:35.000Z</time>
      </trkpt>
      <trkpt lat="49.8092" lon="4.79793">
        <ele>185</ele>
        <time>2022-08-19T06:38:36.000Z</time>
      </trkpt>
      <trkpt lat="49.80928" lon="4.79785">
        <ele>184</ele>
        <time>2022-08-19T06:38:37.000Z</time>
      </trkpt>
      <trkpt lat="49.80937" lon="4.79778">
        <ele>183</ele>
        <time>2022-08-19T06:38:38.000Z</time>
      </trkpt>
      <trkpt lat="49.80945" lon="4.79771">
        <ele>182</ele>
        <time>2022-08-19T06:38:39.000Z</time>
      </trkpt>
      <trkpt lat="49.80954" lon="4.79765">
        <ele>181</ele>
        <time>2022-08-19T06:38:40.000Z</time>
      </trkpt>
      <trkpt lat="49.80962" lon="4.79759">
        <ele>180</ele>
        <time>2022-08-19T06:38:41.000Z</time>
      </trkpt>
      <trkpt lat="49.8097" lon="4.79754">
        <ele>180</ele>
        <time>2022-08-19T06:38:42.000Z</time>
      </trkpt>
      <trkpt lat="49.80978" lon="4.79749">
        <ele>180</ele>
        <time>2022-08-19T06:38:43.000Z</time>
      </trkpt>
      <trkpt lat="49.80985" lon="4.79743">
        <ele>179</ele>
        <time>2022-08-19T06:38:44.000Z</time>
      </trkpt>
      <trkpt lat="49.80992" lon="4.79737">
        <ele>179</ele>
        <time>2022-08-19T06:38:45.000Z</time>
      </trkpt>
      <trkpt lat="49.80998" lon="4.79731">
        <ele>179</ele>
        <time>2022-08-19T06:38:46.000Z</time>
      </trkpt>
      <trkpt lat="49.81004" lon="4.79724">
        <ele>178</ele>
        <time>2022-08-19T06:38:47.000Z</time>
      </trkpt>
      <trkpt lat="49.8101" lon="4.7972">
        <ele>178</ele>
        <time>2022-08-19T06:38:48.000Z</time>
      </trkpt>
      <trkpt lat="49.81016" lon="4.79721">
        <ele>178</ele>
        <time>2022-08-19T06:38:49.000Z</time>
      </trkpt>
      <trkpt lat="49.81021" lon="4.79726">
        <ele>178</ele>
        <time>2022-08-19T06:38:50.000Z</time>
      </trkpt>
      <trkpt lat="49.81026" lon="4.79733">
        <ele>178</ele>
        <time>2022-08-19T06:38:51.000Z</time>
      </trkpt>
      <trkpt lat="49.8103" lon="4.7974">
        <ele>178</ele>
        <time>2022-08-19T06:38:52.000Z</time>
      </trkpt>
      <trkpt lat="49.81035" lon="4.79747">
        <ele>178</ele>
        <time>2022-08-19T06:38:53.000Z</time>
      </trkpt>
      <trkpt lat="49.8104" lon="4.79754">
        <ele>178</ele>
        <time>2022-08-19T06:38:54.000Z</time>
      </trkpt>
      <trkpt lat="49.81044" lon="4.79762">
        <ele>178</ele>
        <time>2022-08-19T06:38:55.000Z</time>
      </trkpt>
      <trkpt lat="49.81048" lon="4.7977">
        <ele>178</ele>
        <time>2022-08-19T06:38:56.000Z</time>
      </trkpt>
      <trkpt lat="49.81052" lon="4.79778">
        <ele>178</ele>
        <time>2022-08-19T06:38:57.000Z</time>
      </trkpt>
      <trkpt lat="49.81056" lon="4.79787">
        <ele>177</ele>
        <time>2022-08-19T06:38:58.000Z</time>
      </trkpt>
      <trkpt lat="49.81059" lon="4.79796">
        <ele>177</ele>
        <time>2022-08-19T06:38:59.000Z</time>
      </trkpt>
      <trkpt lat="49.81063" lon="4.79805">
        <ele>177</ele>
        <time>2022-08-19T06:39:00.000Z</time>
      </trkpt>
      <trkpt lat="49.81067" lon="4.79814">
        <ele>177</ele>
        <time>2022-08-19T06:39:01.000Z</time>
      </trkpt>
      <trkpt lat="49.81071" lon="4.79823">
        <ele>177</ele>
        <time>2022-08-19T06:39:02.000Z</time>
      </trkpt>
      <trkpt lat="49.81075" lon="4.79832">
        <ele>177</ele>
        <time>2022-08-19T06:39:03.000Z</time>
      </trkpt>
      <trkpt lat="49.81079" lon="4.79841">
        <ele>177</ele>
        <time>2022-08-19T06:39:04.000Z</time>
      </trkpt>
      <trkpt lat="49.81082" lon="4.7985">
        <ele>177</ele>
        <time>2022-08-19T06:39:05.000Z</time>
      </trkpt>
      <trkpt lat="49.81086" lon="4.79859">
        <ele>177</ele>
        <time>2022-08-19T06:39:06.000Z</time>
      </trkpt>
      <trkpt lat="49.8109" lon="4.79868">
        <ele>177</ele>
        <time>2022-08-19T06:39:07.000Z</time>
      </trkpt>
      <trkpt lat="49.81093" lon="4.79876">
        <ele>177</ele>
        <time>2022-08-19T06:39:08.000Z</time>
      </trkpt>
      <trkpt lat="49.81097" lon="4.79884">
        <ele>177</ele>
        <time>2022-08-19T06:39:09.000Z</time>
      </trkpt>
      <trkpt lat="49.811" lon="4.79892">
        <ele>177</ele>
        <time>2022-08-19T06:39:10.000Z</time>
      </trkpt>
      <trkpt lat="49.81104" lon="4.799">
        <ele>176</ele>
        <time>2022-08-19T06:39:11.000Z</time>
      </trkpt>
      <trkpt lat="49.81108" lon="4.79908">
        <ele>176</ele>
        <time>2022-08-19T06:39:12.000Z</time>
      </trkpt>
      <trkpt lat="49.81112" lon="4.79915">
        <ele>176</ele>
        <time>2022-08-19T06:39:13.000Z</time>
      </trkpt>
      <trkpt lat="49.81116" lon="4.79923">
        <ele>176</ele>
        <time>2022-08-19T06:39:14.000Z</time>
      </trkpt>
      <trkpt lat="49.8112" lon="4.7993">
        <ele>176</ele>
        <time>2022-08-19T06:39:15.000Z</time>
      </trkpt>
      <trkpt lat="49.81124" lon="4.79937">
        <ele>176</ele>
        <time>2022-08-19T06:39:16.000Z</time>
      </trkpt>
      <trkpt lat="49.81129" lon="4.79944">
        <ele>176</ele>
        <time>2022-08-19T06:39:17.000Z</time>
      </trkpt>
      <trkpt lat="49.81133" lon="4.79951">
        <ele>176</ele>
        <time>2022-08-19T06:39:18.000Z</time>
      </trkpt>
      <trkpt lat="49.81137" lon="4.79958">
        <ele>175</ele>
        <time>2022-08-19T06:39:19.000Z</time>
      </trkpt>
      <trkpt lat="49.81141" lon="4.79966">
        <ele>175</ele>
        <time>2022-08-19T06:39:20.000Z</time>
      </trkpt>
      <trkpt lat="49.81143" lon="4.79973">
        <ele>175</ele>
        <time>2022-08-19T06:39:21.000Z</time>
      </trkpt>
      <trkpt lat="49.81145" lon="4.7998">
        <ele>175</ele>
        <time>2022-08-19T06:39:22.000Z</time>
      </trkpt>
      <trkpt lat="49.81146" lon="4.79985">
        <ele>175</ele>
        <time>2022-08-19T06:39:23.000Z</time>
      </trkpt>
      <trkpt lat="49.81147" lon="4.79989">
        <ele>175</ele>
        <time>2022-08-19T06:39:24.000Z</time>
      </trkpt>
      <trkpt lat="49.81148" lon="4.79994">
        <ele>175</ele>
        <time>2022-08-19T06:39:25.000Z</time>
      </trkpt>
      <trkpt lat="49.81149" lon="4.79998">
        <ele>175</ele>
        <time>2022-08-19T06:39:26.000Z</time>
      </trkpt>
      <trkpt lat="49.81149" lon="4.80003">
        <ele>175</ele>
        <time>2022-08-19T06:39:27.000Z</time>
      </trkpt>
      <trkpt lat="49.81149" lon="4.80007">
        <ele>175</ele>
        <time>2022-08-19T06:39:28.000Z</time>
      </trkpt>
      <trkpt lat="49.81149" lon="4.8001">
        <ele>175</ele>
        <time>2022-08-19T06:39:29.000Z</time>
      </trkpt>
      <trkpt lat="49.81149" lon="4.80014">
        <ele>175</ele>
        <time>2022-08-19T06:39:30.000Z</time>
      </trkpt>
      <trkpt lat="49.81149" lon="4.80018">
        <ele>175</ele>
        <time>2022-08-19T06:39:31.000Z</time>
      </trkpt>
      <trkpt lat="49.81149" lon="4.80022">
        <ele>175</ele>
        <time>2022-08-19T06:39:32.000Z</time>
      </trkpt>
      <trkpt lat="49.81149" lon="4.80027">
        <ele>175</ele>
        <time>2022-08-19T06:39:33.000Z</time>
      </trkpt>
      <trkpt lat="49.81148" lon="4.80031">
        <ele>174</ele>
        <time>2022-08-19T06:39:34.000Z</time>
      </trkpt>
      <trkpt lat="49.81148" lon="4.80035">
        <ele>174</ele>
        <time>2022-08-19T06:39:35.000Z</time>
      </trkpt>
      <trkpt lat="49.81147" lon="4.8004">
        <ele>174</ele>
        <time>2022-08-19T06:39:36.000Z</time>
      </trkpt>
      <trkpt lat="49.81147" lon="4.80044">
        <ele>174</ele>
        <time>2022-08-19T06:39:37.000Z</time>
      </trkpt>
      <trkpt lat="49.81147" lon="4.80048">
        <ele>174</ele>
        <time>2022-08-19T06:39:38.000Z</time>
      </trkpt>
      <trkpt lat="49.81147" lon="4.80052">
        <ele>174</ele>
        <time>2022-08-19T06:39:39.000Z</time>
      </trkpt>
      <trkpt lat="49.81147" lon="4.80057">
        <ele>174</ele>
        <time>2022-08-19T06:39:40.000Z</time>
      </trkpt>
      <trkpt lat="49.81147" lon="4.80061">
        <ele>174</ele>
        <time>2022-08-19T06:39:41.000Z</time>
      </trkpt>
      <trkpt lat="49.81147" lon="4.80066">
        <ele>174</ele>
        <time>2022-08-19T06:39:42.000Z</time>
      </trkpt>
      <trkpt lat="49.81146" lon="4.8007">
        <ele>174</ele>
        <time>2022-08-19T06:39:43.000Z</time>
      </trkpt>
      <trkpt lat="49.81146" lon="4.80075">
        <ele>174</ele>
        <time>2022-08-19T06:39:44.000Z</time>
      </trkpt>
      <trkpt lat="49.81145" lon="4.80079">
        <ele>174</ele>
        <time>2022-08-19T06:39:45.000Z</time>
      </trkpt>
      <trkpt lat="49.81145" lon="4.80083">
        <ele>174</ele>
        <time>2022-08-19T06:39:46.000Z</time>
      </trkpt>
      <trkpt lat="49.81144" lon="4.80086">
        <ele>174</ele>
        <time>2022-08-19T06:39:47.000Z</time>
      </trkpt>
      <trkpt lat="49.81144" lon="4.80091">
        <ele>174</ele>
        <time>2022-08-19T06:39:48.000Z</time>
      </trkpt>
      <trkpt lat="49.81144" lon="4.80095">
        <ele>174</ele>
        <time>2022-08-19T06:39:49.000Z</time>
      </trkpt>
      <trkpt lat="49.81143" lon="4.80099">
        <ele>174</ele>
        <time>2022-08-19T06:39:50.000Z</time>
      </trkpt>
      <trkpt lat="49.81143" lon="4.80104">
        <ele>174</ele>
        <time>2022-08-19T06:39:51.000Z</time>
      </trkpt>
      <trkpt lat="49.81143" lon="4.80108">
        <ele>174</ele>
        <time>2022-08-19T06:39:52.000Z</time>
      </trkpt>
      <trkpt lat="49.81142" lon="4.80113">
        <ele>174</ele>
        <time>2022-08-19T06:39:53.000Z</time>
      </trkpt>
      <trkpt lat="49.81142" lon="4.80117">
        <ele>174</ele>
        <time>2022-08-19T06:39:54.000Z</time>
      </trkpt>
      <trkpt lat="49.81141" lon="4.80121">
        <ele>174</ele>
        <time>2022-08-19T06:39:55.000Z</time>
      </trkpt>
      <trkpt lat="49.8114" lon="4.80126">
        <ele>174</ele>
        <time>2022-08-19T06:39:56.000Z</time>
      </trkpt>
      <trkpt lat="49.8114" lon="4.8013">
        <ele>174</ele>
        <time>2022-08-19T06:39:57.000Z</time>
      </trkpt>
      <trkpt lat="49.8114" lon="4.80135">
        <ele>174</ele>
        <time>2022-08-19T06:39:58.000Z</time>
      </trkpt>
      <trkpt lat="49.8114" lon="4.8014">
        <ele>174</ele>
        <time>2022-08-19T06:39:59.000Z</time>
      </trkpt>
      <trkpt lat="49.81139" lon="4.80144">
        <ele>174</ele>
        <time>2022-08-19T06:40:00.000Z</time>
      </trkpt>
      <trkpt lat="49.81139" lon="4.80148">
        <ele>174</ele>
        <time>2022-08-19T06:40:01.000Z</time>
      </trkpt>
      <trkpt lat="49.81138" lon="4.80152">
        <ele>175</ele>
        <time>2022-08-19T06:40:02.000Z</time>
      </trkpt>
      <trkpt lat="49.81138" lon="4.80156">
        <ele>175</ele>
        <time>2022-08-19T06:40:03.000Z</time>
      </trkpt>
      <trkpt lat="49.81138" lon="4.8016">
        <ele>175</ele>
        <time>2022-08-19T06:40:04.000Z</time>
      </trkpt>
      <trkpt lat="49.81138" lon="4.80165">
        <ele>175</ele>
        <time>2022-08-19T06:40:05.000Z</time>
      </trkpt>
      <trkpt lat="49.81138" lon="4.80169">
        <ele>175</ele>
        <time>2022-08-19T06:40:06.000Z</time>
      </trkpt>
      <trkpt lat="49.81138" lon="4.80173">
        <ele>175</ele>
        <time>2022-08-19T06:40:07.000Z</time>
      </trkpt>
      <trkpt lat="49.81138" lon="4.80177">
        <ele>175</ele>
        <time>2022-08-19T06:40:08.000Z</time>
      </trkpt>
      <trkpt lat="49.81138" lon="4.80181">
        <ele>176</ele>
        <time>2022-08-19T06:40:09.000Z</time>
      </trkpt>
      <trkpt lat="49.81138" lon="4.80185">
        <ele>176</ele>
        <time>2022-08-19T06:40:10.000Z</time>
      </trkpt>
      <trkpt lat="49.81138" lon="4.8019">
        <ele>176</ele>
        <time>2022-08-19T06:40:11.000Z</time>
      </trkpt>
      <trkpt lat="49.81138" lon="4.80194">
        <ele>176</ele>
        <time>2022-08-19T06:40:12.000Z</time>
      </trkpt>
      <trkpt lat="49.81138" lon="4.80198">
        <ele>176</ele>
        <time>2022-08-19T06:40:13.000Z</time>
      </trkpt>
      <trkpt lat="49.81139" lon="4.80202">
        <ele>176</ele>
        <time>2022-08-19T06:40:14.000Z</time>
      </trkpt>
      <trkpt lat="49.81139" lon="4.80206">
        <ele>177</ele>
        <time>2022-08-19T06:40:15.000Z</time>
      </trkpt>
      <trkpt lat="49.81138" lon="4.8021">
        <ele>177</ele>
        <time>2022-08-19T06:40:16.000Z</time>
      </trkpt>
      <trkpt lat="49.81138" lon="4.80214">
        <ele>177</ele>
        <time>2022-08-19T06:40:17.000Z</time>
      </trkpt>
      <trkpt lat="49.81138" lon="4.80217">
        <ele>177</ele>
        <time>2022-08-19T06:40:18.000Z</time>
      </trkpt>
      <trkpt lat="49.81138" lon="4.8022">
        <ele>177</ele>
        <time>2022-08-19T06:40:19.000Z</time>
      </trkpt>
      <trkpt lat="49.81138" lon="4.80225">
        <ele>177</ele>
        <time>2022-08-19T06:40:20.000Z</time>
      </trkpt>
      <trkpt lat="49.81139" lon="4.80229">
        <ele>177</ele>
        <time>2022-08-19T06:40:21.000Z</time>
      </trkpt>
      <trkpt lat="49.81139" lon="4.80233">
        <ele>178</ele>
        <time>2022-08-19T06:40:22.000Z</time>
      </trkpt>
      <trkpt lat="49.81139" lon="4.80237">
        <ele>178</ele>
        <time>2022-08-19T06:40:23.000Z</time>
      </trkpt>
      <trkpt lat="49.8114" lon="4.80241">
        <ele>178</ele>
        <time>2022-08-19T06:40:24.000Z</time>
      </trkpt>
      <trkpt lat="49.8114" lon="4.80245">
        <ele>178</ele>
        <time>2022-08-19T06:40:25.000Z</time>
      </trkpt>
      <trkpt lat="49.8114" lon="4.8025">
        <ele>179</ele>
        <time>2022-08-19T06:40:26.000Z</time>
      </trkpt>
      <trkpt lat="49.81141" lon="4.80254">
        <ele>179</ele>
        <time>2022-08-19T06:40:27.000Z</time>
      </trkpt>
      <trkpt lat="49.81141" lon="4.80257">
        <ele>179</ele>
        <time>2022-08-19T06:40:28.000Z</time>
      </trkpt>
      <trkpt lat="49.81142" lon="4.80261">
        <ele>179</ele>
        <time>2022-08-19T06:40:29.000Z</time>
      </trkpt>
      <trkpt lat="49.81143" lon="4.80266">
        <ele>179</ele>
        <time>2022-08-19T06:40:30.000Z</time>
      </trkpt>
      <trkpt lat="49.81143" lon="4.8027">
        <ele>179</ele>
        <time>2022-08-19T06:40:31.000Z</time>
      </trkpt>
      <trkpt lat="49.81144" lon="4.80275">
        <ele>180</ele>
        <time>2022-08-19T06:40:32.000Z</time>
      </trkpt>
      <trkpt lat="49.81144" lon="4.8028">
        <ele>180</ele>
        <time>2022-08-19T06:40:33.000Z</time>
      </trkpt>
      <trkpt lat="49.81145" lon="4.80284">
        <ele>180</ele>
        <time>2022-08-19T06:40:34.000Z</time>
      </trkpt>
      <trkpt lat="49.81145" lon="4.80288">
        <ele>180</ele>
        <time>2022-08-19T06:40:35.000Z</time>
      </trkpt>
      <trkpt lat="49.81146" lon="4.80293">
        <ele>180</ele>
        <time>2022-08-19T06:40:36.000Z</time>
      </trkpt>
      <trkpt lat="49.81146" lon="4.80297">
        <ele>181</ele>
        <time>2022-08-19T06:40:37.000Z</time>
      </trkpt>
      <trkpt lat="49.81147" lon="4.80301">
        <ele>181</ele>
        <time>2022-08-19T06:40:38.000Z</time>
      </trkpt>
      <trkpt lat="49.81147" lon="4.80306">
        <ele>181</ele>
        <time>2022-08-19T06:40:39.000Z</time>
      </trkpt>
      <trkpt lat="49.81147" lon="4.80311">
        <ele>181</ele>
        <time>2022-08-19T06:40:40.000Z</time>
      </trkpt>
      <trkpt lat="49.81148" lon="4.80316">
        <ele>182</ele>
        <time>2022-08-19T06:40:41.000Z</time>
      </trkpt>
      <trkpt lat="49.81149" lon="4.80322">
        <ele>182</ele>
        <time>2022-08-19T06:40:42.000Z</time>
      </trkpt>
      <trkpt lat="49.81149" lon="4.80326">
        <ele>182</ele>
        <time>2022-08-19T06:40:43.000Z</time>
      </trkpt>
      <trkpt lat="49.81149" lon="4.80331">
        <ele>182</ele>
        <time>2022-08-19T06:40:44.000Z</time>
      </trkpt>
      <trkpt lat="49.8115" lon="4.80334">
        <ele>183</ele>
        <time>2022-08-19T06:40:45.000Z</time>
      </trkpt>
      <trkpt lat="49.81151" lon="4.80337">
        <ele>183</ele>
        <time>2022-08-19T06:40:46.000Z</time>
      </trkpt>
      <trkpt lat="49.81152" lon="4.8034">
        <ele>183</ele>
        <time>2022-08-19T06:40:47.000Z</time>
      </trkpt>
      <trkpt lat="49.81154" lon="4.80342">
        <ele>183</ele>
        <time>2022-08-19T06:40:48.000Z</time>
      </trkpt>
      <trkpt lat="49.81155" lon="4.80345">
        <ele>184</ele>
        <time>2022-08-19T06:40:49.000Z</time>
      </trkpt>
      <trkpt lat="49.81157" lon="4.80347">
        <ele>184</ele>
        <time>2022-08-19T06:40:50.000Z</time>
      </trkpt>
      <trkpt lat="49.81158" lon="4.80347">
        <ele>184</ele>
        <time>2022-08-19T06:40:51.000Z</time>
      </trkpt>
      <trkpt lat="49.81159" lon="4.80347">
        <ele>185</ele>
        <time>2022-08-19T06:40:52.000Z</time>
      </trkpt>
      <trkpt lat="49.8116" lon="4.80347">
        <ele>185</ele>
        <time>2022-08-19T06:40:53.000Z</time>
      </trkpt>
      <trkpt lat="49.81161" lon="4.80346">
        <ele>185</ele>
        <time>2022-08-19T06:40:54.000Z</time>
      </trkpt>
      <trkpt lat="49.81163" lon="4.80345">
        <ele>186</ele>
        <time>2022-08-19T06:40:55.000Z</time>
      </trkpt>
      <trkpt lat="49.81164" lon="4.80342">
        <ele>186</ele>
        <time>2022-08-19T06:40:56.000Z</time>
      </trkpt>
      <trkpt lat="49.81166" lon="4.80339">
        <ele>186</ele>
        <time>2022-08-19T06:40:57.000Z</time>
      </trkpt>
      <trkpt lat="49.81167" lon="4.80336">
        <ele>187</ele>
        <time>2022-08-19T06:40:58.000Z</time>
      </trkpt>
      <trkpt lat="49.81169" lon="4.80332">
        <ele>187</ele>
        <time>2022-08-19T06:40:59.000Z</time>
      </trkpt>
      <trkpt lat="49.81171" lon="4.80328">
        <ele>187</ele>
        <time>2022-08-19T06:41:00.000Z</time>
      </trkpt>
      <trkpt lat="49.81173" lon="4.80324">
        <ele>188</ele>
        <time>2022-08-19T06:41:01.000Z</time>
      </trkpt>
      <trkpt lat="49.81176" lon="4.80318">
        <ele>188</ele>
        <time>2022-08-19T06:41:02.000Z</time>
      </trkpt>
      <trkpt lat="49.81178" lon="4.80314">
        <ele>189</ele>
        <time>2022-08-19T06:41:03.000Z</time>
      </trkpt>
      <trkpt lat="49.8118" lon="4.80309">
        <ele>189</ele>
        <time>2022-08-19T06:41:04.000Z</time>
      </trkpt>
      <trkpt lat="49.81182" lon="4.80303">
        <ele>190</ele>
        <time>2022-08-19T06:41:05.000Z</time>
      </trkpt>
      <trkpt lat="49.81184" lon="4.80297">
        <ele>190</ele>
        <time>2022-08-19T06:41:06.000Z</time>
      </trkpt>
      <trkpt lat="49.81186" lon="4.80291">
        <ele>190</ele>
        <time>2022-08-19T06:41:07.000Z</time>
      </trkpt>
      <trkpt lat="49.81188" lon="4.80285">
        <ele>191</ele>
        <time>2022-08-19T06:41:08.000Z</time>
      </trkpt>
      <trkpt lat="49.8119" lon="4.80279">
        <ele>191</ele>
        <time>2022-08-19T06:41:09.000Z</time>
      </trkpt>
      <trkpt lat="49.81192" lon="4.80273">
        <ele>191</ele>
        <time>2022-08-19T06:41:10.000Z</time>
      </trkpt>
      <trkpt lat="49.81195" lon="4.80267">
        <ele>191</ele>
        <time>2022-08-19T06:41:11.000Z</time>
      </trkpt>
      <trkpt lat="49.81197" lon="4.80261">
        <ele>192</ele>
        <time>2022-08-19T06:41:12.000Z</time>
      </trkpt>
      <trkpt lat="49.81199" lon="4.80256">
        <ele>192</ele>
        <time>2022-08-19T06:41:13.000Z</time>
      </trkpt>
      <trkpt lat="49.81202" lon="4.80249">
        <ele>192</ele>
        <time>2022-08-19T06:41:14.000Z</time>
      </trkpt>
      <trkpt lat="49.81204" lon="4.80243">
        <ele>192</ele>
        <time>2022-08-19T06:41:15.000Z</time>
      </trkpt>
      <trkpt lat="49.81207" lon="4.80236">
        <ele>192</ele>
        <time>2022-08-19T06:41:16.000Z</time>
      </trkpt>
      <trkpt lat="49.81209" lon="4.80229">
        <ele>192</ele>
        <time>2022-08-19T06:41:17.000Z</time>
      </trkpt>
      <trkpt lat="49.81212" lon="4.80222">
        <ele>192</ele>
        <time>2022-08-19T06:41:18.000Z</time>
      </trkpt>
      <trkpt lat="49.81214" lon="4.80215">
        <ele>193</ele>
        <time>2022-08-19T06:41:19.000Z</time>
      </trkpt>
      <trkpt lat="49.81217" lon="4.80209">
        <ele>193</ele>
        <time>2022-08-19T06:41:20.000Z</time>
      </trkpt>
      <trkpt lat="49.8122" lon="4.80202">
        <ele>193</ele>
        <time>2022-08-19T06:41:21.000Z</time>
      </trkpt>
      <trkpt lat="49.81223" lon="4.80195">
        <ele>193</ele>
        <time>2022-08-19T06:41:22.000Z</time>
      </trkpt>
      <trkpt lat="49.81225" lon="4.80188">
        <ele>192</ele>
        <time>2022-08-19T06:41:23.000Z</time>
      </trkpt>
      <trkpt lat="49.81228" lon="4.8018">
        <ele>192</ele>
        <time>2022-08-19T06:41:24.000Z</time>
      </trkpt>
      <trkpt lat="49.81231" lon="4.80173">
        <ele>193</ele>
        <time>2022-08-19T06:41:25.000Z</time>
      </trkpt>
      <trkpt lat="49.81233" lon="4.80167">
        <ele>193</ele>
        <time>2022-08-19T06:41:26.000Z</time>
      </trkpt>
      <trkpt lat="49.81234" lon="4.80159">
        <ele>193</ele>
        <time>2022-08-19T06:41:27.000Z</time>
      </trkpt>
      <trkpt lat="49.81236" lon="4.80152">
        <ele>193</ele>
        <time>2022-08-19T06:41:28.000Z</time>
      </trkpt>
      <trkpt lat="49.81239" lon="4.80145">
        <ele>193</ele>
        <time>2022-08-19T06:41:29.000Z</time>
      </trkpt>
      <trkpt lat="49.81241" lon="4.80139">
        <ele>193</ele>
        <time>2022-08-19T06:41:30.000Z</time>
      </trkpt>
      <trkpt lat="49.81244" lon="4.80134">
        <ele>193</ele>
        <time>2022-08-19T06:41:31.000Z</time>
      </trkpt>
      <trkpt lat="49.81246" lon="4.80128">
        <ele>193</ele>
        <time>2022-08-19T06:41:32.000Z</time>
      </trkpt>
      <trkpt lat="49.81249" lon="4.80121">
        <ele>193</ele>
        <time>2022-08-19T06:41:33.000Z</time>
      </trkpt>
      <trkpt lat="49.81251" lon="4.80113">
        <ele>194</ele>
        <time>2022-08-19T06:41:34.000Z</time>
      </trkpt>
      <trkpt lat="49.81254" lon="4.80105">
        <ele>194</ele>
        <time>2022-08-19T06:41:35.000Z</time>
      </trkpt>
      <trkpt lat="49.81256" lon="4.80098">
        <ele>194</ele>
        <time>2022-08-19T06:41:36.000Z</time>
      </trkpt>
      <trkpt lat="49.81258" lon="4.80091">
        <ele>194</ele>
        <time>2022-08-19T06:41:37.000Z</time>
      </trkpt>
      <trkpt lat="49.81261" lon="4.80085">
        <ele>194</ele>
        <time>2022-08-19T06:41:38.000Z</time>
      </trkpt>
      <trkpt lat="49.81263" lon="4.80078">
        <ele>194</ele>
        <time>2022-08-19T06:41:39.000Z</time>
      </trkpt>
      <trkpt lat="49.81265" lon="4.80071">
        <ele>195</ele>
        <time>2022-08-19T06:41:40.000Z</time>
      </trkpt>
      <trkpt lat="49.81268" lon="4.80065">
        <ele>195</ele>
        <time>2022-08-19T06:41:41.000Z</time>
      </trkpt>
      <trkpt lat="49.81271" lon="4.80058">
        <ele>195</ele>
        <time>2022-08-19T06:41:42.000Z</time>
      </trkpt>
      <trkpt lat="49.81275" lon="4.80051">
        <ele>195</ele>
        <time>2022-08-19T06:41:43.000Z</time>
      </trkpt>
      <trkpt lat="49.81278" lon="4.80044">
        <ele>195</ele>
        <time>2022-08-19T06:41:44.000Z</time>
      </trkpt>
      <trkpt lat="49.81281" lon="4.80038">
        <ele>196</ele>
        <time>2022-08-19T06:41:45.000Z</time>
      </trkpt>
      <trkpt lat="49.81284" lon="4.80032">
        <ele>196</ele>
        <time>2022-08-19T06:41:46.000Z</time>
      </trkpt>
      <trkpt lat="49.81286" lon="4.80025">
        <ele>196</ele>
        <time>2022-08-19T06:41:47.000Z</time>
      </trkpt>
      <trkpt lat="49.81288" lon="4.80018">
        <ele>196</ele>
        <time>2022-08-19T06:41:48.000Z</time>
      </trkpt>
      <trkpt lat="49.81291" lon="4.80011">
        <ele>196</ele>
        <time>2022-08-19T06:41:49.000Z</time>
      </trkpt>
      <trkpt lat="49.81293" lon="4.80003">
        <ele>196</ele>
        <time>2022-08-19T06:41:50.000Z</time>
      </trkpt>
      <trkpt lat="49.81296" lon="4.79995">
        <ele>196</ele>
        <time>2022-08-19T06:41:51.000Z</time>
      </trkpt>
      <trkpt lat="49.81299" lon="4.79988">
        <ele>196</ele>
        <time>2022-08-19T06:41:52.000Z</time>
      </trkpt>
      <trkpt lat="49.81302" lon="4.79982">
        <ele>196</ele>
        <time>2022-08-19T06:41:53.000Z</time>
      </trkpt>
      <trkpt lat="49.81306" lon="4.79975">
        <ele>197</ele>
        <time>2022-08-19T06:41:54.000Z</time>
      </trkpt>
      <trkpt lat="49.81309" lon="4.79968">
        <ele>197</ele>
        <time>2022-08-19T06:41:55.000Z</time>
      </trkpt>
      <trkpt lat="49.81312" lon="4.79961">
        <ele>197</ele>
        <time>2022-08-19T06:41:56.000Z</time>
      </trkpt>
      <trkpt lat="49.81316" lon="4.79955">
        <ele>197</ele>
        <time>2022-08-19T06:41:57.000Z</time>
      </trkpt>
      <trkpt lat="49.8132" lon="4.79949">
        <ele>197</ele>
        <time>2022-08-19T06:41:58.000Z</time>
      </trkpt>
      <trkpt lat="49.81323" lon="4.79943">
        <ele>197</ele>
        <time>2022-08-19T06:41:59.000Z</time>
      </trkpt>
      <trkpt lat="49.81327" lon="4.79937">
        <ele>198</ele>
        <time>2022-08-19T06:42:00.000Z</time>
      </trkpt>
      <trkpt lat="49.8133" lon="4.7993">
        <ele>198</ele>
        <time>2022-08-19T06:42:01.000Z</time>
      </trkpt>
      <trkpt lat="49.81333" lon="4.79923">
        <ele>198</ele>
        <time>2022-08-19T06:42:02.000Z</time>
      </trkpt>
      <trkpt lat="49.81336" lon="4.79917">
        <ele>198</ele>
        <time>2022-08-19T06:42:03.000Z</time>
      </trkpt>
      <trkpt lat="49.81339" lon="4.79911">
        <ele>198</ele>
        <time>2022-08-19T06:42:04.000Z</time>
      </trkpt>
      <trkpt lat="49.81341" lon="4.79903">
        <ele>198</ele>
        <time>2022-08-19T06:42:05.000Z</time>
      </trkpt>
      <trkpt lat="49.81342" lon="4.79896">
        <ele>198</ele>
        <time>2022-08-19T06:42:06.000Z</time>
      </trkpt>
      <trkpt lat="49.81344" lon="4.79888">
        <ele>198</ele>
        <time>2022-08-19T06:42:07.000Z</time>
      </trkpt>
      <trkpt lat="49.81346" lon="4.79881">
        <ele>198</ele>
        <time>2022-08-19T06:42:08.000Z</time>
      </trkpt>
      <trkpt lat="49.81348" lon="4.79873">
        <ele>199</ele>
        <time>2022-08-19T06:42:09.000Z</time>
      </trkpt>
      <trkpt lat="49.8135" lon="4.79866">
        <ele>199</ele>
        <time>2022-08-19T06:42:10.000Z</time>
      </trkpt>
      <trkpt lat="49.81353" lon="4.7986">
        <ele>199</ele>
        <time>2022-08-19T06:42:11.000Z</time>
      </trkpt>
      <trkpt lat="49.81355" lon="4.79854">
        <ele>199</ele>
        <time>2022-08-19T06:42:12.000Z</time>
      </trkpt>
      <trkpt lat="49.81357" lon="4.79848">
        <ele>199</ele>
        <time>2022-08-19T06:42:13.000Z</time>
      </trkpt>
      <trkpt lat="49.8136" lon="4.79842">
        <ele>199</ele>
        <time>2022-08-19T06:42:14.000Z</time>
      </trkpt>
      <trkpt lat="49.81362" lon="4.79837">
        <ele>199</ele>
        <time>2022-08-19T06:42:15.000Z</time>
      </trkpt>
      <trkpt lat="49.81364" lon="4.7983">
        <ele>199</ele>
        <time>2022-08-19T06:42:16.000Z</time>
      </trkpt>
      <trkpt lat="49.81367" lon="4.79823">
        <ele>198</ele>
        <time>2022-08-19T06:42:17.000Z</time>
      </trkpt>
      <trkpt lat="49.8137" lon="4.79816">
        <ele>198</ele>
        <time>2022-08-19T06:42:18.000Z</time>
      </trkpt>
      <trkpt lat="49.81372" lon="4.79808">
        <ele>198</ele>
        <time>2022-08-19T06:42:19.000Z</time>
      </trkpt>
      <trkpt lat="49.81375" lon="4.798">
        <ele>198</ele>
        <time>2022-08-19T06:42:20.000Z</time>
      </trkpt>
      <trkpt lat="49.81378" lon="4.79793">
        <ele>198</ele>
        <time>2022-08-19T06:42:21.000Z</time>
      </trkpt>
      <trkpt lat="49.8138" lon="4.79783">
        <ele>199</ele>
        <time>2022-08-19T06:42:22.000Z</time>
      </trkpt>
      <trkpt lat="49.81382" lon="4.79775">
        <ele>199</ele>
        <time>2022-08-19T06:42:23.000Z</time>
      </trkpt>
      <trkpt lat="49.81384" lon="4.79766">
        <ele>199</ele>
        <time>2022-08-19T06:42:24.000Z</time>
      </trkpt>
      <trkpt lat="49.81387" lon="4.79758">
        <ele>199</ele>
        <time>2022-08-19T06:42:25.000Z</time>
      </trkpt>
      <trkpt lat="49.81391" lon="4.7975">
        <ele>199</ele>
        <time>2022-08-19T06:42:26.000Z</time>
      </trkpt>
      <trkpt lat="49.81393" lon="4.79741">
        <ele>198</ele>
        <time>2022-08-19T06:42:27.000Z</time>
      </trkpt>
      <trkpt lat="49.81396" lon="4.79733">
        <ele>198</ele>
        <time>2022-08-19T06:42:28.000Z</time>
      </trkpt>
      <trkpt lat="49.81397" lon="4.79725">
        <ele>198</ele>
        <time>2022-08-19T06:42:29.000Z</time>
      </trkpt>
      <trkpt lat="49.81399" lon="4.79717">
        <ele>198</ele>
        <time>2022-08-19T06:42:30.000Z</time>
      </trkpt>
      <trkpt lat="49.814" lon="4.79709">
        <ele>198</ele>
        <time>2022-08-19T06:42:31.000Z</time>
      </trkpt>
      <trkpt lat="49.81402" lon="4.79702">
        <ele>198</ele>
        <time>2022-08-19T06:42:32.000Z</time>
      </trkpt>
      <trkpt lat="49.81404" lon="4.79695">
        <ele>198</ele>
        <time>2022-08-19T06:42:33.000Z</time>
      </trkpt>
      <trkpt lat="49.81407" lon="4.79689">
        <ele>198</ele>
        <time>2022-08-19T06:42:34.000Z</time>
      </trkpt>
      <trkpt lat="49.81409" lon="4.79682">
        <ele>198</ele>
        <time>2022-08-19T06:42:35.000Z</time>
      </trkpt>
      <trkpt lat="49.81411" lon="4.79675">
        <ele>198</ele>
        <time>2022-08-19T06:42:36.000Z</time>
      </trkpt>
      <trkpt lat="49.81412" lon="4.79668">
        <ele>198</ele>
        <time>2022-08-19T06:42:37.000Z</time>
      </trkpt>
      <trkpt lat="49.81413" lon="4.79661">
        <ele>198</ele>
        <time>2022-08-19T06:42:38.000Z</time>
      </trkpt>
      <trkpt lat="49.81414" lon="4.79654">
        <ele>198</ele>
        <time>2022-08-19T06:42:39.000Z</time>
      </trkpt>
      <trkpt lat="49.81416" lon="4.79647">
        <ele>198</ele>
        <time>2022-08-19T06:42:40.000Z</time>
      </trkpt>
      <trkpt lat="49.81417" lon="4.79639">
        <ele>198</ele>
        <time>2022-08-19T06:42:41.000Z</time>
      </trkpt>
      <trkpt lat="49.81419" lon="4.79631">
        <ele>198</ele>
        <time>2022-08-19T06:42:42.000Z</time>
      </trkpt>
      <trkpt lat="49.81421" lon="4.79623">
        <ele>198</ele>
        <time>2022-08-19T06:42:43.000Z</time>
      </trkpt>
      <trkpt lat="49.81422" lon="4.79614">
        <ele>198</ele>
        <time>2022-08-19T06:42:44.000Z</time>
      </trkpt>
      <trkpt lat="49.81423" lon="4.79607">
        <ele>198</ele>
        <time>2022-08-19T06:42:45.000Z</time>
      </trkpt>
      <trkpt lat="49.81424" lon="4.796">
        <ele>198</ele>
        <time>2022-08-19T06:42:46.000Z</time>
      </trkpt>
      <trkpt lat="49.81425" lon="4.79593">
        <ele>198</ele>
        <time>2022-08-19T06:42:47.000Z</time>
      </trkpt>
      <trkpt lat="49.81426" lon="4.79585">
        <ele>198</ele>
        <time>2022-08-19T06:42:48.000Z</time>
      </trkpt>
      <trkpt lat="49.81427" lon="4.79577">
        <ele>198</ele>
        <time>2022-08-19T06:42:49.000Z</time>
      </trkpt>
      <trkpt lat="49.81428" lon="4.79568">
        <ele>198</ele>
        <time>2022-08-19T06:42:50.000Z</time>
      </trkpt>
      <trkpt lat="49.81429" lon="4.79558">
        <ele>198</ele>
        <time>2022-08-19T06:42:51.000Z</time>
      </trkpt>
      <trkpt lat="49.81429" lon="4.79549">
        <ele>198</ele>
        <time>2022-08-19T06:42:52.000Z</time>
      </trkpt>
      <trkpt lat="49.8143" lon="4.7954">
        <ele>198</ele>
        <time>2022-08-19T06:42:53.000Z</time>
      </trkpt>
      <trkpt lat="49.8143" lon="4.79531">
        <ele>198</ele>
        <time>2022-08-19T06:42:54.000Z</time>
      </trkpt>
      <trkpt lat="49.81431" lon="4.79522">
        <ele>198</ele>
        <time>2022-08-19T06:42:55.000Z</time>
      </trkpt>
      <trkpt lat="49.81432" lon="4.79514">
        <ele>198</ele>
        <time>2022-08-19T06:42:56.000Z</time>
      </trkpt>
      <trkpt lat="49.81432" lon="4.79507">
        <ele>198</ele>
        <time>2022-08-19T06:42:57.000Z</time>
      </trkpt>
      <trkpt lat="49.81433" lon="4.79499">
        <ele>198</ele>
        <time>2022-08-19T06:42:58.000Z</time>
      </trkpt>
      <trkpt lat="49.81433" lon="4.79492">
        <ele>198</ele>
        <time>2022-08-19T06:42:59.000Z</time>
      </trkpt>
      <trkpt lat="49.81434" lon="4.79485">
        <ele>198</ele>
        <time>2022-08-19T06:43:00.000Z</time>
      </trkpt>
      <trkpt lat="49.81434" lon="4.79478">
        <ele>198</ele>
        <time>2022-08-19T06:43:01.000Z</time>
      </trkpt>
      <trkpt lat="49.81435" lon="4.79471">
        <ele>198</ele>
        <time>2022-08-19T06:43:02.000Z</time>
      </trkpt>
      <trkpt lat="49.81435" lon="4.79464">
        <ele>198</ele>
        <time>2022-08-19T06:43:03.000Z</time>
      </trkpt>
      <trkpt lat="49.81436" lon="4.79457">
        <ele>198</ele>
        <time>2022-08-19T06:43:04.000Z</time>
      </trkpt>
      <trkpt lat="49.81436" lon="4.7945">
        <ele>198</ele>
        <time>2022-08-19T06:43:05.000Z</time>
      </trkpt>
      <trkpt lat="49.81437" lon="4.79442">
        <ele>198</ele>
        <time>2022-08-19T06:43:06.000Z</time>
      </trkpt>
      <trkpt lat="49.81437" lon="4.79434">
        <ele>198</ele>
        <time>2022-08-19T06:43:07.000Z</time>
      </trkpt>
      <trkpt lat="49.81438" lon="4.79427">
        <ele>198</ele>
        <time>2022-08-19T06:43:08.000Z</time>
      </trkpt>
      <trkpt lat="49.81439" lon="4.79419">
        <ele>198</ele>
        <time>2022-08-19T06:43:09.000Z</time>
      </trkpt>
      <trkpt lat="49.8144" lon="4.79411">
        <ele>198</ele>
        <time>2022-08-19T06:43:10.000Z</time>
      </trkpt>
      <trkpt lat="49.81441" lon="4.79403">
        <ele>198</ele>
        <time>2022-08-19T06:43:11.000Z</time>
      </trkpt>
      <trkpt lat="49.81443" lon="4.79397">
        <ele>198</ele>
        <time>2022-08-19T06:43:12.000Z</time>
      </trkpt>
      <trkpt lat="49.81446" lon="4.79391">
        <ele>198</ele>
        <time>2022-08-19T06:43:13.000Z</time>
      </trkpt>
      <trkpt lat="49.81449" lon="4.79387">
        <ele>198</ele>
        <time>2022-08-19T06:43:14.000Z</time>
      </trkpt>
      <trkpt lat="49.81451" lon="4.79383">
        <ele>198</ele>
        <time>2022-08-19T06:43:15.000Z</time>
      </trkpt>
      <trkpt lat="49.81452" lon="4.79379">
        <ele>198</ele>
        <time>2022-08-19T06:43:16.000Z</time>
      </trkpt>
      <trkpt lat="49.81452" lon="4.79373">
        <ele>198</ele>
        <time>2022-08-19T06:43:17.000Z</time>
      </trkpt>
      <trkpt lat="49.81452" lon="4.79366">
        <ele>198</ele>
        <time>2022-08-19T06:43:18.000Z</time>
      </trkpt>
      <trkpt lat="49.81453" lon="4.79358">
        <ele>198</ele>
        <time>2022-08-19T06:43:19.000Z</time>
      </trkpt>
      <trkpt lat="49.81454" lon="4.79351">
        <ele>199</ele>
        <time>2022-08-19T06:43:20.000Z</time>
      </trkpt>
      <trkpt lat="49.81454" lon="4.79343">
        <ele>199</ele>
        <time>2022-08-19T06:43:21.000Z</time>
      </trkpt>
      <trkpt lat="49.81455" lon="4.79335">
        <ele>198</ele>
        <time>2022-08-19T06:43:22.000Z</time>
      </trkpt>
      <trkpt lat="49.81455" lon="4.79328">
        <ele>198</ele>
        <time>2022-08-19T06:43:23.000Z</time>
      </trkpt>
      <trkpt lat="49.81456" lon="4.79321">
        <ele>198</ele>
        <time>2022-08-19T06:43:24.000Z</time>
      </trkpt>
      <trkpt lat="49.81456" lon="4.79314">
        <ele>198</ele>
        <time>2022-08-19T06:43:25.000Z</time>
      </trkpt>
      <trkpt lat="49.81458" lon="4.79307">
        <ele>198</ele>
        <time>2022-08-19T06:43:26.000Z</time>
      </trkpt>
      <trkpt lat="49.81459" lon="4.79299">
        <ele>198</ele>
        <time>2022-08-19T06:43:27.000Z</time>
      </trkpt>
      <trkpt lat="49.8146" lon="4.79292">
        <ele>198</ele>
        <time>2022-08-19T06:43:28.000Z</time>
      </trkpt>
      <trkpt lat="49.81461" lon="4.79285">
        <ele>198</ele>
        <time>2022-08-19T06:43:29.000Z</time>
      </trkpt>
      <trkpt lat="49.81462" lon="4.79278">
        <ele>198</ele>
        <time>2022-08-19T06:43:30.000Z</time>
      </trkpt>
      <trkpt lat="49.81463" lon="4.79271">
        <ele>198</ele>
        <time>2022-08-19T06:43:31.000Z</time>
      </trkpt>
      <trkpt lat="49.81464" lon="4.79264">
        <ele>198</ele>
        <time>2022-08-19T06:43:32.000Z</time>
      </trkpt>
      <trkpt lat="49.81466" lon="4.79257">
        <ele>198</ele>
        <time>2022-08-19T06:43:33.000Z</time>
      </trkpt>
      <trkpt lat="49.81467" lon="4.7925">
        <ele>198</ele>
        <time>2022-08-19T06:43:34.000Z</time>
      </trkpt>
      <trkpt lat="49.81469" lon="4.79242">
        <ele>198</ele>
        <time>2022-08-19T06:43:35.000Z</time>
      </trkpt>
      <trkpt lat="49.81471" lon="4.79235">
        <ele>197</ele>
        <time>2022-08-19T06:43:36.000Z</time>
      </trkpt>
      <trkpt lat="49.81472" lon="4.79228">
        <ele>197</ele>
        <time>2022-08-19T06:43:37.000Z</time>
      </trkpt>
      <trkpt lat="49.81473" lon="4.7922">
        <ele>197</ele>
        <time>2022-08-19T06:43:38.000Z</time>
      </trkpt>
      <trkpt lat="49.81474" lon="4.79212">
        <ele>197</ele>
        <time>2022-08-19T06:43:39.000Z</time>
      </trkpt>
      <trkpt lat="49.81475" lon="4.79204">
        <ele>197</ele>
        <time>2022-08-19T06:43:40.000Z</time>
      </trkpt>
      <trkpt lat="49.81474" lon="4.79196">
        <ele>197</ele>
        <time>2022-08-19T06:43:41.000Z</time>
      </trkpt>
      <trkpt lat="49.81474" lon="4.79187">
        <ele>196</ele>
        <time>2022-08-19T06:43:42.000Z</time>
      </trkpt>
      <trkpt lat="49.81473" lon="4.79179">
        <ele>196</ele>
        <time>2022-08-19T06:43:43.000Z</time>
      </trkpt>
      <trkpt lat="49.81474" lon="4.79169">
        <ele>196</ele>
        <time>2022-08-19T06:43:44.000Z</time>
      </trkpt>
      <trkpt lat="49.81474" lon="4.79157">
        <ele>196</ele>
        <time>2022-08-19T06:43:45.000Z</time>
      </trkpt>
      <trkpt lat="49.81474" lon="4.79147">
        <ele>196</ele>
        <time>2022-08-19T06:43:46.000Z</time>
      </trkpt>
      <trkpt lat="49.81475" lon="4.79136">
        <ele>196</ele>
        <time>2022-08-19T06:43:47.000Z</time>
      </trkpt>
      <trkpt lat="49.81475" lon="4.79125">
        <ele>195</ele>
        <time>2022-08-19T06:43:48.000Z</time>
      </trkpt>
      <trkpt lat="49.81476" lon="4.79114">
        <ele>195</ele>
        <time>2022-08-19T06:43:49.000Z</time>
      </trkpt>
      <trkpt lat="49.81477" lon="4.79103">
        <ele>195</ele>
        <time>2022-08-19T06:43:50.000Z</time>
      </trkpt>
      <trkpt lat="49.81478" lon="4.79093">
        <ele>195</ele>
        <time>2022-08-19T06:43:51.000Z</time>
      </trkpt>
      <trkpt lat="49.8148" lon="4.79083">
        <ele>195</ele>
        <time>2022-08-19T06:43:52.000Z</time>
      </trkpt>
      <trkpt lat="49.81482" lon="4.79074">
        <ele>194</ele>
        <time>2022-08-19T06:43:53.000Z</time>
      </trkpt>
      <trkpt lat="49.81483" lon="4.79065">
        <ele>194</ele>
        <time>2022-08-19T06:43:54.000Z</time>
      </trkpt>
      <trkpt lat="49.81484" lon="4.79056">
        <ele>194</ele>
        <time>2022-08-19T06:43:55.000Z</time>
      </trkpt>
      <trkpt lat="49.81486" lon="4.79047">
        <ele>194</ele>
        <time>2022-08-19T06:43:56.000Z</time>
      </trkpt>
      <trkpt lat="49.81487" lon="4.79039">
        <ele>194</ele>
        <time>2022-08-19T06:43:57.000Z</time>
      </trkpt>
      <trkpt lat="49.81488" lon="4.7903">
        <ele>194</ele>
        <time>2022-08-19T06:43:58.000Z</time>
      </trkpt>
      <trkpt lat="49.81489" lon="4.79022">
        <ele>194</ele>
        <time>2022-08-19T06:43:59.000Z</time>
      </trkpt>
      <trkpt lat="49.81491" lon="4.79014">
        <ele>193</ele>
        <time>2022-08-19T06:44:00.000Z</time>
      </trkpt>
      <trkpt lat="49.81492" lon="4.79006">
        <ele>193</ele>
        <time>2022-08-19T06:44:01.000Z</time>
      </trkpt>
      <trkpt lat="49.81494" lon="4.78998">
        <ele>193</ele>
        <time>2022-08-19T06:44:02.000Z</time>
      </trkpt>
      <trkpt lat="49.81496" lon="4.78989">
        <ele>193</ele>
        <time>2022-08-19T06:44:03.000Z</time>
      </trkpt>
      <trkpt lat="49.81497" lon="4.78982">
        <ele>193</ele>
        <time>2022-08-19T06:44:04.000Z</time>
      </trkpt>
      <trkpt lat="49.81499" lon="4.78974">
        <ele>193</ele>
        <time>2022-08-19T06:44:05.000Z</time>
      </trkpt>
      <trkpt lat="49.815" lon="4.78966">
        <ele>192</ele>
        <time>2022-08-19T06:44:06.000Z</time>
      </trkpt>
      <trkpt lat="49.81501" lon="4.78958">
        <ele>192</ele>
        <time>2022-08-19T06:44:07.000Z</time>
      </trkpt>
      <trkpt lat="49.81503" lon="4.78951">
        <ele>192</ele>
        <time>2022-08-19T06:44:08.000Z</time>
      </trkpt>
      <trkpt lat="49.81504" lon="4.78944">
        <ele>192</ele>
        <time>2022-08-19T06:44:09.000Z</time>
      </trkpt>
      <trkpt lat="49.81504" lon="4.78937">
        <ele>192</ele>
        <time>2022-08-19T06:44:10.000Z</time>
      </trkpt>
      <trkpt lat="49.81505" lon="4.78928">
        <ele>192</ele>
        <time>2022-08-19T06:44:11.000Z</time>
      </trkpt>
      <trkpt lat="49.81506" lon="4.78918">
        <ele>192</ele>
        <time>2022-08-19T06:44:12.000Z</time>
      </trkpt>
      <trkpt lat="49.81507" lon="4.78909">
        <ele>192</ele>
        <time>2022-08-19T06:44:13.000Z</time>
      </trkpt>
      <trkpt lat="49.81509" lon="4.789">
        <ele>191</ele>
        <time>2022-08-19T06:44:14.000Z</time>
      </trkpt>
      <trkpt lat="49.8151" lon="4.78892">
        <ele>191</ele>
        <time>2022-08-19T06:44:15.000Z</time>
      </trkpt>
      <trkpt lat="49.81512" lon="4.78884">
        <ele>191</ele>
        <time>2022-08-19T06:44:16.000Z</time>
      </trkpt>
      <trkpt lat="49.81514" lon="4.78876">
        <ele>191</ele>
        <time>2022-08-19T06:44:17.000Z</time>
      </trkpt>
      <trkpt lat="49.81516" lon="4.78867">
        <ele>191</ele>
        <time>2022-08-19T06:44:18.000Z</time>
      </trkpt>
      <trkpt lat="49.81518" lon="4.78859">
        <ele>190</ele>
        <time>2022-08-19T06:44:19.000Z</time>
      </trkpt>
      <trkpt lat="49.8152" lon="4.78851">
        <ele>190</ele>
        <time>2022-08-19T06:44:20.000Z</time>
      </trkpt>
      <trkpt lat="49.81521" lon="4.78843">
        <ele>190</ele>
        <time>2022-08-19T06:44:21.000Z</time>
      </trkpt>
      <trkpt lat="49.81523" lon="4.78836">
        <ele>190</ele>
        <time>2022-08-19T06:44:22.000Z</time>
      </trkpt>
      <trkpt lat="49.81524" lon="4.78828">
        <ele>190</ele>
        <time>2022-08-19T06:44:23.000Z</time>
      </trkpt>
      <trkpt lat="49.81527" lon="4.78821">
        <ele>190</ele>
        <time>2022-08-19T06:44:24.000Z</time>
      </trkpt>
      <trkpt lat="49.81529" lon="4.78813">
        <ele>190</ele>
        <time>2022-08-19T06:44:25.000Z</time>
      </trkpt>
      <trkpt lat="49.81531" lon="4.78805">
        <ele>190</ele>
        <time>2022-08-19T06:44:26.000Z</time>
      </trkpt>
      <trkpt lat="49.81533" lon="4.78798">
        <ele>190</ele>
        <time>2022-08-19T06:44:27.000Z</time>
      </trkpt>
      <trkpt lat="49.81536" lon="4.7879">
        <ele>190</ele>
        <time>2022-08-19T06:44:28.000Z</time>
      </trkpt>
      <trkpt lat="49.81538" lon="4.78782">
        <ele>190</ele>
        <time>2022-08-19T06:44:29.000Z</time>
      </trkpt>
      <trkpt lat="49.81541" lon="4.78776">
        <ele>190</ele>
        <time>2022-08-19T06:44:30.000Z</time>
      </trkpt>
      <trkpt lat="49.81543" lon="4.78769">
        <ele>190</ele>
        <time>2022-08-19T06:44:31.000Z</time>
      </trkpt>
      <trkpt lat="49.81546" lon="4.78763">
        <ele>190</ele>
        <time>2022-08-19T06:44:32.000Z</time>
      </trkpt>
      <trkpt lat="49.81548" lon="4.78757">
        <ele>190</ele>
        <time>2022-08-19T06:44:33.000Z</time>
      </trkpt>
      <trkpt lat="49.8155" lon="4.78749">
        <ele>190</ele>
        <time>2022-08-19T06:44:34.000Z</time>
      </trkpt>
      <trkpt lat="49.81552" lon="4.78742">
        <ele>190</ele>
        <time>2022-08-19T06:44:35.000Z</time>
      </trkpt>
      <trkpt lat="49.81555" lon="4.78735">
        <ele>190</ele>
        <time>2022-08-19T06:44:36.000Z</time>
      </trkpt>
      <trkpt lat="49.81558" lon="4.78731">
        <ele>189</ele>
        <time>2022-08-19T06:44:37.000Z</time>
      </trkpt>
      <trkpt lat="49.81561" lon="4.78727">
        <ele>189</ele>
        <time>2022-08-19T06:44:38.000Z</time>
      </trkpt>
      <trkpt lat="49.81563" lon="4.78722">
        <ele>189</ele>
        <time>2022-08-19T06:44:39.000Z</time>
      </trkpt>
      <trkpt lat="49.81565" lon="4.78717">
        <ele>189</ele>
        <time>2022-08-19T06:44:40.000Z</time>
      </trkpt>
      <trkpt lat="49.81567" lon="4.78711">
        <ele>189</ele>
        <time>2022-08-19T06:44:41.000Z</time>
      </trkpt>
      <trkpt lat="49.81569" lon="4.78706">
        <ele>189</ele>
        <time>2022-08-19T06:44:42.000Z</time>
      </trkpt>
      <trkpt lat="49.8157" lon="4.78702">
        <ele>189</ele>
        <time>2022-08-19T06:44:43.000Z</time>
      </trkpt>
      <trkpt lat="49.81571" lon="4.78697">
        <ele>189</ele>
        <time>2022-08-19T06:44:44.000Z</time>
      </trkpt>
      <trkpt lat="49.81573" lon="4.78692">
        <ele>189</ele>
        <time>2022-08-19T06:44:45.000Z</time>
      </trkpt>
      <trkpt lat="49.81575" lon="4.78688">
        <ele>189</ele>
        <time>2022-08-19T06:44:46.000Z</time>
      </trkpt>
      <trkpt lat="49.81577" lon="4.78684">
        <ele>189</ele>
        <time>2022-08-19T06:44:47.000Z</time>
      </trkpt>
      <trkpt lat="49.81579" lon="4.7868">
        <ele>189</ele>
        <time>2022-08-19T06:44:48.000Z</time>
      </trkpt>
      <trkpt lat="49.8158" lon="4.78676">
        <ele>189</ele>
        <time>2022-08-19T06:44:49.000Z</time>
      </trkpt>
      <trkpt lat="49.81582" lon="4.78672">
        <ele>189</ele>
        <time>2022-08-19T06:44:50.000Z</time>
      </trkpt>
      <trkpt lat="49.81584" lon="4.7867">
        <ele>189</ele>
        <time>2022-08-19T06:44:51.000Z</time>
      </trkpt>
      <trkpt lat="49.81587" lon="4.78668">
        <ele>189</ele>
        <time>2022-08-19T06:44:52.000Z</time>
      </trkpt>
      <trkpt lat="49.81589" lon="4.78668">
        <ele>189</ele>
        <time>2022-08-19T06:44:53.000Z</time>
      </trkpt>
      <trkpt lat="49.81591" lon="4.78668">
        <ele>189</ele>
        <time>2022-08-19T06:44:54.000Z</time>
      </trkpt>
      <trkpt lat="49.81593" lon="4.78667">
        <ele>189</ele>
        <time>2022-08-19T06:44:55.000Z</time>
      </trkpt>
      <trkpt lat="49.81597" lon="4.78668">
        <ele>189</ele>
        <time>2022-08-19T06:44:56.000Z</time>
      </trkpt>
      <trkpt lat="49.816" lon="4.78668">
        <ele>189</ele>
        <time>2022-08-19T06:44:57.000Z</time>
      </trkpt>
      <trkpt lat="49.81604" lon="4.78669">
        <ele>189</ele>
        <time>2022-08-19T06:44:58.000Z</time>
      </trkpt>
      <trkpt lat="49.81608" lon="4.7867">
        <ele>189</ele>
        <time>2022-08-19T06:44:59.000Z</time>
      </trkpt>
      <trkpt lat="49.81612" lon="4.78672">
        <ele>189</ele>
        <time>2022-08-19T06:45:00.000Z</time>
      </trkpt>
      <trkpt lat="49.81616" lon="4.78675">
        <ele>189</ele>
        <time>2022-08-19T06:45:01.000Z</time>
      </trkpt>
      <trkpt lat="49.8162" lon="4.78678">
        <ele>189</ele>
        <time>2022-08-19T06:45:02.000Z</time>
      </trkpt>
      <trkpt lat="49.81623" lon="4.7868">
        <ele>189</ele>
        <time>2022-08-19T06:45:03.000Z</time>
      </trkpt>
      <trkpt lat="49.81628" lon="4.78681">
        <ele>189</ele>
        <time>2022-08-19T06:45:04.000Z</time>
      </trkpt>
      <trkpt lat="49.81633" lon="4.78682">
        <ele>189</ele>
        <time>2022-08-19T06:45:05.000Z</time>
      </trkpt>
      <trkpt lat="49.81637" lon="4.78685">
        <ele>189</ele>
        <time>2022-08-19T06:45:06.000Z</time>
      </trkpt>
      <trkpt lat="49.81641" lon="4.78688">
        <ele>189</ele>
        <time>2022-08-19T06:45:07.000Z</time>
      </trkpt>
      <trkpt lat="49.81645" lon="4.78689">
        <ele>189</ele>
        <time>2022-08-19T06:45:08.000Z</time>
      </trkpt>
      <trkpt lat="49.81649" lon="4.78691">
        <ele>189</ele>
        <time>2022-08-19T06:45:09.000Z</time>
      </trkpt>
      <trkpt lat="49.81654" lon="4.78693">
        <ele>189</ele>
        <time>2022-08-19T06:45:10.000Z</time>
      </trkpt>
      <trkpt lat="49.81659" lon="4.78695">
        <ele>189</ele>
        <time>2022-08-19T06:45:11.000Z</time>
      </trkpt>
      <trkpt lat="49.81663" lon="4.78698">
        <ele>189</ele>
        <time>2022-08-19T06:45:12.000Z</time>
      </trkpt>
      <trkpt lat="49.81668" lon="4.787">
        <ele>189</ele>
        <time>2022-08-19T06:45:13.000Z</time>
      </trkpt>
      <trkpt lat="49.81673" lon="4.78702">
        <ele>189</ele>
        <time>2022-08-19T06:45:14.000Z</time>
      </trkpt>
      <trkpt lat="49.81677" lon="4.78704">
        <ele>189</ele>
        <time>2022-08-19T06:45:15.000Z</time>
      </trkpt>
      <trkpt lat="49.81681" lon="4.78707">
        <ele>189</ele>
        <time>2022-08-19T06:45:16.000Z</time>
      </trkpt>
      <trkpt lat="49.81685" lon="4.78709">
        <ele>189</ele>
        <time>2022-08-19T06:45:17.000Z</time>
      </trkpt>
      <trkpt lat="49.8169" lon="4.78712">
        <ele>190</ele>
        <time>2022-08-19T06:45:18.000Z</time>
      </trkpt>
      <trkpt lat="49.81694" lon="4.78715">
        <ele>190</ele>
        <time>2022-08-19T06:45:19.000Z</time>
      </trkpt>
      <trkpt lat="49.81697" lon="4.78718">
        <ele>190</ele>
        <time>2022-08-19T06:45:20.000Z</time>
      </trkpt>
      <trkpt lat="49.81701" lon="4.78721">
        <ele>190</ele>
        <time>2022-08-19T06:45:21.000Z</time>
      </trkpt>
      <trkpt lat="49.81705" lon="4.78724">
        <ele>190</ele>
        <time>2022-08-19T06:45:22.000Z</time>
      </trkpt>
      <trkpt lat="49.81709" lon="4.78727">
        <ele>190</ele>
        <time>2022-08-19T06:45:23.000Z</time>
      </trkpt>
      <trkpt lat="49.81714" lon="4.7873">
        <ele>190</ele>
        <time>2022-08-19T06:45:24.000Z</time>
      </trkpt>
      <trkpt lat="49.81718" lon="4.78734">
        <ele>190</ele>
        <time>2022-08-19T06:45:25.000Z</time>
      </trkpt>
      <trkpt lat="49.81721" lon="4.78737">
        <ele>190</ele>
        <time>2022-08-19T06:45:26.000Z</time>
      </trkpt>
      <trkpt lat="49.81726" lon="4.7874">
        <ele>190</ele>
        <time>2022-08-19T06:45:27.000Z</time>
      </trkpt>
      <trkpt lat="49.8173" lon="4.78743">
        <ele>190</ele>
        <time>2022-08-19T06:45:28.000Z</time>
      </trkpt>
      <trkpt lat="49.81734" lon="4.78746">
        <ele>190</ele>
        <time>2022-08-19T06:45:29.000Z</time>
      </trkpt>
      <trkpt lat="49.81739" lon="4.7875">
        <ele>190</ele>
        <time>2022-08-19T06:45:30.000Z</time>
      </trkpt>
      <trkpt lat="49.81743" lon="4.78755">
        <ele>190</ele>
        <time>2022-08-19T06:45:31.000Z</time>
      </trkpt>
      <trkpt lat="49.81747" lon="4.78759">
        <ele>189</ele>
        <time>2022-08-19T06:45:32.000Z</time>
      </trkpt>
      <trkpt lat="49.81751" lon="4.78761">
        <ele>189</ele>
        <time>2022-08-19T06:45:33.000Z</time>
      </trkpt>
      <trkpt lat="49.81756" lon="4.78763">
        <ele>189</ele>
        <time>2022-08-19T06:45:34.000Z</time>
      </trkpt>
      <trkpt lat="49.8176" lon="4.78765">
        <ele>189</ele>
        <time>2022-08-19T06:45:35.000Z</time>
      </trkpt>
      <trkpt lat="49.81765" lon="4.78765">
        <ele>189</ele>
        <time>2022-08-19T06:45:36.000Z</time>
      </trkpt>
      <trkpt lat="49.81768" lon="4.78764">
        <ele>189</ele>
        <time>2022-08-19T06:45:37.000Z</time>
      </trkpt>
      <trkpt lat="49.81771" lon="4.78763">
        <ele>189</ele>
        <time>2022-08-19T06:45:38.000Z</time>
      </trkpt>
      <trkpt lat="49.81773" lon="4.7876">
        <ele>189</ele>
        <time>2022-08-19T06:45:39.000Z</time>
      </trkpt>
      <trkpt lat="49.81773" lon="4.78756">
        <ele>189</ele>
        <time>2022-08-19T06:45:40.000Z</time>
      </trkpt>
      <trkpt lat="49.8177" lon="4.78752">
        <ele>188</ele>
        <time>2022-08-19T06:45:41.000Z</time>
      </trkpt>
      <trkpt lat="49.81766" lon="4.78749">
        <ele>188</ele>
        <time>2022-08-19T06:45:42.000Z</time>
      </trkpt>
      <trkpt lat="49.81762" lon="4.78744">
        <ele>188</ele>
        <time>2022-08-19T06:45:43.000Z</time>
      </trkpt>
      <trkpt lat="49.81757" lon="4.78739">
        <ele>188</ele>
        <time>2022-08-19T06:45:44.000Z</time>
      </trkpt>
      <trkpt lat="49.81752" lon="4.78734">
        <ele>187</ele>
        <time>2022-08-19T06:45:45.000Z</time>
      </trkpt>
      <trkpt lat="49.81747" lon="4.78729">
        <ele>187</ele>
        <time>2022-08-19T06:45:46.000Z</time>
      </trkpt>
      <trkpt lat="49.81743" lon="4.78724">
        <ele>187</ele>
        <time>2022-08-19T06:45:47.000Z</time>
      </trkpt>
      <trkpt lat="49.81738" lon="4.7872">
        <ele>186</ele>
        <time>2022-08-19T06:45:48.000Z</time>
      </trkpt>
      <trkpt lat="49.81733" lon="4.78715">
        <ele>186</ele>
        <time>2022-08-19T06:45:49.000Z</time>
      </trkpt>
      <trkpt lat="49.81729" lon="4.78711">
        <ele>186</ele>
        <time>2022-08-19T06:45:50.000Z</time>
      </trkpt>
      <trkpt lat="49.81725" lon="4.78706">
        <ele>186</ele>
        <time>2022-08-19T06:45:51.000Z</time>
      </trkpt>
      <trkpt lat="49.8172" lon="4.78702">
        <ele>185</ele>
        <time>2022-08-19T06:45:52.000Z</time>
      </trkpt>
      <trkpt lat="49.81716" lon="4.78698">
        <ele>185</ele>
        <time>2022-08-19T06:45:53.000Z</time>
      </trkpt>
      <trkpt lat="49.81712" lon="4.78693">
        <ele>185</ele>
        <time>2022-08-19T06:45:54.000Z</time>
      </trkpt>
      <trkpt lat="49.81707" lon="4.78689">
        <ele>185</ele>
        <time>2022-08-19T06:45:55.000Z</time>
      </trkpt>
      <trkpt lat="49.81702" lon="4.78684">
        <ele>184</ele>
        <time>2022-08-19T06:45:56.000Z</time>
      </trkpt>
      <trkpt lat="49.81697" lon="4.78679">
        <ele>184</ele>
        <time>2022-08-19T06:45:57.000Z</time>
      </trkpt>
      <trkpt lat="49.81693" lon="4.78674">
        <ele>184</ele>
        <time>2022-08-19T06:45:58.000Z</time>
      </trkpt>
      <trkpt lat="49.81688" lon="4.7867">
        <ele>184</ele>
        <time>2022-08-19T06:45:59.000Z</time>
      </trkpt>
      <trkpt lat="49.81683" lon="4.78665">
        <ele>184</ele>
        <time>2022-08-19T06:46:00.000Z</time>
      </trkpt>
      <trkpt lat="49.81678" lon="4.7866">
        <ele>184</ele>
        <time>2022-08-19T06:46:01.000Z</time>
      </trkpt>
      <trkpt lat="49.81672" lon="4.78656">
        <ele>183</ele>
        <time>2022-08-19T06:46:02.000Z</time>
      </trkpt>
      <trkpt lat="49.81666" lon="4.78652">
        <ele>183</ele>
        <time>2022-08-19T06:46:03.000Z</time>
      </trkpt>
      <trkpt lat="49.8166" lon="4.78648">
        <ele>183</ele>
        <time>2022-08-19T06:46:04.000Z</time>
      </trkpt>
      <trkpt lat="49.81654" lon="4.78644">
        <ele>183</ele>
        <time>2022-08-19T06:46:05.000Z</time>
      </trkpt>
      <trkpt lat="49.81648" lon="4.78641">
        <ele>182</ele>
        <time>2022-08-19T06:46:06.000Z</time>
      </trkpt>
      <trkpt lat="49.81642" lon="4.78638">
        <ele>182</ele>
        <time>2022-08-19T06:46:07.000Z</time>
      </trkpt>
      <trkpt lat="49.81636" lon="4.78635">
        <ele>182</ele>
        <time>2022-08-19T06:46:08.000Z</time>
      </trkpt>
      <trkpt lat="49.81631" lon="4.78633">
        <ele>182</ele>
        <time>2022-08-19T06:46:09.000Z</time>
      </trkpt>
      <trkpt lat="49.81625" lon="4.7863">
        <ele>181</ele>
        <time>2022-08-19T06:46:10.000Z</time>
      </trkpt>
      <trkpt lat="49.81619" lon="4.78627">
        <ele>181</ele>
        <time>2022-08-19T06:46:11.000Z</time>
      </trkpt>
      <trkpt lat="49.81614" lon="4.78624">
        <ele>181</ele>
        <time>2022-08-19T06:46:12.000Z</time>
      </trkpt>
      <trkpt lat="49.81609" lon="4.78621">
        <ele>181</ele>
        <time>2022-08-19T06:46:13.000Z</time>
      </trkpt>
      <trkpt lat="49.81603" lon="4.78618">
        <ele>180</ele>
        <time>2022-08-19T06:46:14.000Z</time>
      </trkpt>
      <trkpt lat="49.81598" lon="4.78616">
        <ele>180</ele>
        <time>2022-08-19T06:46:15.000Z</time>
      </trkpt>
      <trkpt lat="49.81592" lon="4.78615">
        <ele>180</ele>
        <time>2022-08-19T06:46:16.000Z</time>
      </trkpt>
      <trkpt lat="49.81586" lon="4.78614">
        <ele>179</ele>
        <time>2022-08-19T06:46:17.000Z</time>
      </trkpt>
      <trkpt lat="49.8158" lon="4.78614">
        <ele>179</ele>
        <time>2022-08-19T06:46:18.000Z</time>
      </trkpt>
      <trkpt lat="49.81574" lon="4.78617">
        <ele>179</ele>
        <time>2022-08-19T06:46:19.000Z</time>
      </trkpt>
      <trkpt lat="49.81569" lon="4.78621">
        <ele>179</ele>
        <time>2022-08-19T06:46:20.000Z</time>
      </trkpt>
      <trkpt lat="49.81564" lon="4.78626">
        <ele>178</ele>
        <time>2022-08-19T06:46:21.000Z</time>
      </trkpt>
      <trkpt lat="49.81559" lon="4.78631">
        <ele>178</ele>
        <time>2022-08-19T06:46:22.000Z</time>
      </trkpt>
      <trkpt lat="49.81553" lon="4.78637">
        <ele>178</ele>
        <time>2022-08-19T06:46:23.000Z</time>
      </trkpt>
      <trkpt lat="49.81548" lon="4.78642">
        <ele>178</ele>
        <time>2022-08-19T06:46:24.000Z</time>
      </trkpt>
      <trkpt lat="49.81542" lon="4.78647">
        <ele>177</ele>
        <time>2022-08-19T06:46:25.000Z</time>
      </trkpt>
      <trkpt lat="49.81537" lon="4.78652">
        <ele>177</ele>
        <time>2022-08-19T06:46:26.000Z</time>
      </trkpt>
      <trkpt lat="49.81531" lon="4.78658">
        <ele>177</ele>
        <time>2022-08-19T06:46:27.000Z</time>
      </trkpt>
      <trkpt lat="49.81526" lon="4.78663">
        <ele>176</ele>
        <time>2022-08-19T06:46:28.000Z</time>
      </trkpt>
      <trkpt lat="49.8152" lon="4.78668">
        <ele>176</ele>
        <time>2022-08-19T06:46:29.000Z</time>
      </trkpt>
      <trkpt lat="49.81515" lon="4.78674">
        <ele>176</ele>
        <time>2022-08-19T06:46:30.000Z</time>
      </trkpt>
      <trkpt lat="49.8151" lon="4.78679">
        <ele>176</ele>
        <time>2022-08-19T06:46:31.000Z</time>
      </trkpt>
      <trkpt lat="49.81506" lon="4.78685">
        <ele>176</ele>
        <time>2022-08-19T06:46:32.000Z</time>
      </trkpt>
      <trkpt lat="49.81501" lon="4.78689">
        <ele>176</ele>
        <time>2022-08-19T06:46:33.000Z</time>
      </trkpt>
      <trkpt lat="49.81496" lon="4.78692">
        <ele>176</ele>
        <time>2022-08-19T06:46:34.000Z</time>
      </trkpt>
      <trkpt lat="49.81491" lon="4.78692">
        <ele>175</ele>
        <time>2022-08-19T06:46:35.000Z</time>
      </trkpt>
      <trkpt lat="49.81487" lon="4.7869">
        <ele>175</ele>
        <time>2022-08-19T06:46:36.000Z</time>
      </trkpt>
      <trkpt lat="49.81483" lon="4.78685">
        <ele>175</ele>
        <time>2022-08-19T06:46:37.000Z</time>
      </trkpt>
      <trkpt lat="49.81479" lon="4.78677">
        <ele>175</ele>
        <time>2022-08-19T06:46:38.000Z</time>
      </trkpt>
      <trkpt lat="49.81477" lon="4.78667">
        <ele>174</ele>
        <time>2022-08-19T06:46:39.000Z</time>
      </trkpt>
      <trkpt lat="49.81475" lon="4.78657">
        <ele>174</ele>
        <time>2022-08-19T06:46:40.000Z</time>
      </trkpt>
      <trkpt lat="49.81474" lon="4.78646">
        <ele>174</ele>
        <time>2022-08-19T06:46:41.000Z</time>
      </trkpt>
      <trkpt lat="49.81474" lon="4.78635">
        <ele>174</ele>
        <time>2022-08-19T06:46:42.000Z</time>
      </trkpt>
      <trkpt lat="49.81475" lon="4.78624">
        <ele>174</ele>
        <time>2022-08-19T06:46:43.000Z</time>
      </trkpt>
      <trkpt lat="49.81477" lon="4.78614">
        <ele>173</ele>
        <time>2022-08-19T06:46:44.000Z</time>
      </trkpt>
      <trkpt lat="49.81479" lon="4.78603">
        <ele>173</ele>
        <time>2022-08-19T06:46:45.000Z</time>
      </trkpt>
      <trkpt lat="49.81481" lon="4.78592">
        <ele>173</ele>
        <time>2022-08-19T06:46:46.000Z</time>
      </trkpt>
      <trkpt lat="49.81485" lon="4.78581">
        <ele>173</ele>
        <time>2022-08-19T06:46:47.000Z</time>
      </trkpt>
      <trkpt lat="49.81488" lon="4.78572">
        <ele>173</ele>
        <time>2022-08-19T06:46:48.000Z</time>
      </trkpt>
      <trkpt lat="49.81492" lon="4.78563">
        <ele>172</ele>
        <time>2022-08-19T06:46:49.000Z</time>
      </trkpt>
      <trkpt lat="49.81496" lon="4.78554">
        <ele>172</ele>
        <time>2022-08-19T06:46:50.000Z</time>
      </trkpt>
      <trkpt lat="49.81501" lon="4.78545">
        <ele>172</ele>
        <time>2022-08-19T06:46:51.000Z</time>
      </trkpt>
      <trkpt lat="49.81506" lon="4.78538">
        <ele>172</ele>
        <time>2022-08-19T06:46:52.000Z</time>
      </trkpt>
      <trkpt lat="49.81511" lon="4.7853">
        <ele>171</ele>
        <time>2022-08-19T06:46:53.000Z</time>
      </trkpt>
      <trkpt lat="49.81516" lon="4.78522">
        <ele>171</ele>
        <time>2022-08-19T06:46:54.000Z</time>
      </trkpt>
      <trkpt lat="49.8152" lon="4.78514">
        <ele>170</ele>
        <time>2022-08-19T06:46:55.000Z</time>
      </trkpt>
      <trkpt lat="49.81524" lon="4.78507">
        <ele>170</ele>
        <time>2022-08-19T06:46:56.000Z</time>
      </trkpt>
      <trkpt lat="49.81528" lon="4.785">
        <ele>170</ele>
        <time>2022-08-19T06:46:57.000Z</time>
      </trkpt>
      <trkpt lat="49.81532" lon="4.78493">
        <ele>170</ele>
        <time>2022-08-19T06:46:58.000Z</time>
      </trkpt>
      <trkpt lat="49.81536" lon="4.78486">
        <ele>169</ele>
        <time>2022-08-19T06:46:59.000Z</time>
      </trkpt>
      <trkpt lat="49.81539" lon="4.78479">
        <ele>169</ele>
        <time>2022-08-19T06:47:00.000Z</time>
      </trkpt>
      <trkpt lat="49.8154" lon="4.7847">
        <ele>169</ele>
        <time>2022-08-19T06:47:01.000Z</time>
      </trkpt>
      <trkpt lat="49.81541" lon="4.78461">
        <ele>169</ele>
        <time>2022-08-19T06:47:02.000Z</time>
      </trkpt>
      <trkpt lat="49.81541" lon="4.78452">
        <ele>169</ele>
        <time>2022-08-19T06:47:03.000Z</time>
      </trkpt>
      <trkpt lat="49.81541" lon="4.78443">
        <ele>169</ele>
        <time>2022-08-19T06:47:04.000Z</time>
      </trkpt>
      <trkpt lat="49.81541" lon="4.78434">
        <ele>169</ele>
        <time>2022-08-19T06:47:05.000Z</time>
      </trkpt>
      <trkpt lat="49.81541" lon="4.78425">
        <ele>169</ele>
        <time>2022-08-19T06:47:06.000Z</time>
      </trkpt>
      <trkpt lat="49.81541" lon="4.78416">
        <ele>169</ele>
        <time>2022-08-19T06:47:07.000Z</time>
      </trkpt>
      <trkpt lat="49.81541" lon="4.78406">
        <ele>169</ele>
        <time>2022-08-19T06:47:08.000Z</time>
      </trkpt>
      <trkpt lat="49.81541" lon="4.78397">
        <ele>169</ele>
        <time>2022-08-19T06:47:09.000Z</time>
      </trkpt>
      <trkpt lat="49.81542" lon="4.78388">
        <ele>169</ele>
        <time>2022-08-19T06:47:10.000Z</time>
      </trkpt>
      <trkpt lat="49.81543" lon="4.78379">
        <ele>169</ele>
        <time>2022-08-19T06:47:11.000Z</time>
      </trkpt>
      <trkpt lat="49.81543" lon="4.78371">
        <ele>169</ele>
        <time>2022-08-19T06:47:12.000Z</time>
      </trkpt>
      <trkpt lat="49.81544" lon="4.78363">
        <ele>169</ele>
        <time>2022-08-19T06:47:13.000Z</time>
      </trkpt>
      <trkpt lat="49.81545" lon="4.78355">
        <ele>168</ele>
        <time>2022-08-19T06:47:14.000Z</time>
      </trkpt>
      <trkpt lat="49.81548" lon="4.78347">
        <ele>168</ele>
        <time>2022-08-19T06:47:15.000Z</time>
      </trkpt>
      <trkpt lat="49.8155" lon="4.7834">
        <ele>168</ele>
        <time>2022-08-19T06:47:16.000Z</time>
      </trkpt>
      <trkpt lat="49.81553" lon="4.78335">
        <ele>169</ele>
        <time>2022-08-19T06:47:17.000Z</time>
      </trkpt>
      <trkpt lat="49.81557" lon="4.7833">
        <ele>169</ele>
        <time>2022-08-19T06:47:18.000Z</time>
      </trkpt>
      <trkpt lat="49.8156" lon="4.78325">
        <ele>169</ele>
        <time>2022-08-19T06:47:19.000Z</time>
      </trkpt>
      <trkpt lat="49.81564" lon="4.78322">
        <ele>169</ele>
        <time>2022-08-19T06:47:20.000Z</time>
      </trkpt>
      <trkpt lat="49.81566" lon="4.78318">
        <ele>169</ele>
        <time>2022-08-19T06:47:21.000Z</time>
      </trkpt>
      <trkpt lat="49.81569" lon="4.78314">
        <ele>169</ele>
        <time>2022-08-19T06:47:22.000Z</time>
      </trkpt>
      <trkpt lat="49.81572" lon="4.7831">
        <ele>169</ele>
        <time>2022-08-19T06:47:23.000Z</time>
      </trkpt>
      <trkpt lat="49.81574" lon="4.78306">
        <ele>169</ele>
        <time>2022-08-19T06:47:24.000Z</time>
      </trkpt>
      <trkpt lat="49.81575" lon="4.78301">
        <ele>169</ele>
        <time>2022-08-19T06:47:25.000Z</time>
      </trkpt>
      <trkpt lat="49.81576" lon="4.78296">
        <ele>169</ele>
        <time>2022-08-19T06:47:26.000Z</time>
      </trkpt>
      <trkpt lat="49.81577" lon="4.78292">
        <ele>169</ele>
        <time>2022-08-19T06:47:27.000Z</time>
      </trkpt>
      <trkpt lat="49.81578" lon="4.78289">
        <ele>169</ele>
        <time>2022-08-19T06:47:28.000Z</time>
      </trkpt>
      <trkpt lat="49.8158" lon="4.78287">
        <ele>169</ele>
        <time>2022-08-19T06:47:29.000Z</time>
      </trkpt>
      <trkpt lat="49.81582" lon="4.78288">
        <ele>169</ele>
        <time>2022-08-19T06:47:30.000Z</time>
      </trkpt>
      <trkpt lat="49.81583" lon="4.78289">
        <ele>169</ele>
        <time>2022-08-19T06:47:31.000Z</time>
      </trkpt>
      <trkpt lat="49.81584" lon="4.78291">
        <ele>169</ele>
        <time>2022-08-19T06:47:32.000Z</time>
      </trkpt>
      <trkpt lat="49.81585" lon="4.78293">
        <ele>169</ele>
        <time>2022-08-19T06:47:33.000Z</time>
      </trkpt>
      <trkpt lat="49.81586" lon="4.78296">
        <ele>169</ele>
        <time>2022-08-19T06:47:34.000Z</time>
      </trkpt>
      <trkpt lat="49.81587" lon="4.78299">
        <ele>169</ele>
        <time>2022-08-19T06:47:35.000Z</time>
      </trkpt>
      <trkpt lat="49.81587" lon="4.78302">
        <ele>169</ele>
        <time>2022-08-19T06:47:36.000Z</time>
      </trkpt>
      <trkpt lat="49.81588" lon="4.78306">
        <ele>169</ele>
        <time>2022-08-19T06:47:37.000Z</time>
      </trkpt>
      <trkpt lat="49.81589" lon="4.78309">
        <ele>170</ele>
        <time>2022-08-19T06:47:38.000Z</time>
      </trkpt>
      <trkpt lat="49.8159" lon="4.78312">
        <ele>170</ele>
        <time>2022-08-19T06:47:39.000Z</time>
      </trkpt>
      <trkpt lat="49.81591" lon="4.78315">
        <ele>170</ele>
        <time>2022-08-19T06:47:40.000Z</time>
      </trkpt>
      <trkpt lat="49.8159" lon="4.78317">
        <ele>171</ele>
        <time>2022-08-19T06:47:41.000Z</time>
      </trkpt>
      <trkpt lat="49.81589" lon="4.78317">
        <ele>171</ele>
        <time>2022-08-19T06:47:42.000Z</time>
      </trkpt>
      <trkpt lat="49.81587" lon="4.78316">
        <ele>171</ele>
        <time>2022-08-19T06:47:43.000Z</time>
      </trkpt>
      <trkpt lat="49.81584" lon="4.78316">
        <ele>171</ele>
        <time>2022-08-19T06:47:44.000Z</time>
      </trkpt>
      <trkpt lat="49.81582" lon="4.78316">
        <ele>171</ele>
        <time>2022-08-19T06:47:45.000Z</time>
      </trkpt>
      <trkpt lat="49.81579" lon="4.78317">
        <ele>172</ele>
        <time>2022-08-19T06:47:46.000Z</time>
      </trkpt>
      <trkpt lat="49.81577" lon="4.78318">
        <ele>172</ele>
        <time>2022-08-19T06:47:47.000Z</time>
      </trkpt>
      <trkpt lat="49.81574" lon="4.78319">
        <ele>172</ele>
        <time>2022-08-19T06:47:48.000Z</time>
      </trkpt>
      <trkpt lat="49.81569" lon="4.78322">
        <ele>172</ele>
        <time>2022-08-19T06:47:49.000Z</time>
      </trkpt>
      <trkpt lat="49.81566" lon="4.78325">
        <ele>172</ele>
        <time>2022-08-19T06:47:50.000Z</time>
      </trkpt>
      <trkpt lat="49.81565" lon="4.78327">
        <ele>172</ele>
        <time>2022-08-19T06:47:51.000Z</time>
      </trkpt>
      <trkpt lat="49.81566" lon="4.78328">
        <ele>172</ele>
        <time>2022-08-19T06:47:52.000Z</time>
      </trkpt>
      <trkpt lat="49.81568" lon="4.78327">
        <ele>172</ele>
        <time>2022-08-19T06:47:53.000Z</time>
      </trkpt>
      <trkpt lat="49.81569" lon="4.78324">
        <ele>172</ele>
        <time>2022-08-19T06:47:54.000Z</time>
      </trkpt>
      <trkpt lat="49.8157" lon="4.7832">
        <ele>172</ele>
        <time>2022-08-19T06:47:55.000Z</time>
      </trkpt>
      <trkpt lat="49.81572" lon="4.78315">
        <ele>172</ele>
        <time>2022-08-19T06:47:56.000Z</time>
      </trkpt>
      <trkpt lat="49.81573" lon="4.7831">
        <ele>171</ele>
        <time>2022-08-19T06:47:57.000Z</time>
      </trkpt>
      <trkpt lat="49.81573" lon="4.78304">
        <ele>171</ele>
        <time>2022-08-19T06:47:58.000Z</time>
      </trkpt>
      <trkpt lat="49.81574" lon="4.783">
        <ele>171</ele>
        <time>2022-08-19T06:47:59.000Z</time>
      </trkpt>
      <trkpt lat="49.81576" lon="4.78296">
        <ele>171</ele>
        <time>2022-08-19T06:48:00.000Z</time>
      </trkpt>
      <trkpt lat="49.81578" lon="4.78292">
        <ele>171</ele>
        <time>2022-08-19T06:48:01.000Z</time>
      </trkpt>
      <trkpt lat="49.81579" lon="4.78288">
        <ele>171</ele>
        <time>2022-08-19T06:48:02.000Z</time>
      </trkpt>
      <trkpt lat="49.81582" lon="4.78286">
        <ele>171</ele>
        <time>2022-08-19T06:48:03.000Z</time>
      </trkpt>
      <trkpt lat="49.81584" lon="4.78287">
        <ele>171</ele>
        <time>2022-08-19T06:48:04.000Z</time>
      </trkpt>
      <trkpt lat="49.81586" lon="4.78289">
        <ele>171</ele>
        <time>2022-08-19T06:48:05.000Z</time>
      </trkpt>
      <trkpt lat="49.81587" lon="4.78291">
        <ele>171</ele>
        <time>2022-08-19T06:48:06.000Z</time>
      </trkpt>
      <trkpt lat="49.81588" lon="4.78294">
        <ele>171</ele>
        <time>2022-08-19T06:48:07.000Z</time>
      </trkpt>
      <trkpt lat="49.81589" lon="4.78297">
        <ele>171</ele>
        <time>2022-08-19T06:48:08.000Z</time>
      </trkpt>
      <trkpt lat="49.81589" lon="4.783">
        <ele>171</ele>
        <time>2022-08-19T06:48:09.000Z</time>
      </trkpt>
      <trkpt lat="49.81589" lon="4.78303">
        <ele>171</ele>
        <time>2022-08-19T06:48:10.000Z</time>
      </trkpt>
      <trkpt lat="49.81589" lon="4.78307">
        <ele>171</ele>
        <time>2022-08-19T06:48:11.000Z</time>
      </trkpt>
      <trkpt lat="49.81588" lon="4.78311">
        <ele>171</ele>
        <time>2022-08-19T06:48:12.000Z</time>
      </trkpt>
      <trkpt lat="49.81586" lon="4.78314">
        <ele>171</ele>
        <time>2022-08-19T06:48:13.000Z</time>
      </trkpt>
      <trkpt lat="49.81583" lon="4.78315">
        <ele>171</ele>
        <time>2022-08-19T06:48:14.000Z</time>
      </trkpt>
      <trkpt lat="49.8158" lon="4.78316">
        <ele>171</ele>
        <time>2022-08-19T06:48:15.000Z</time>
      </trkpt>
      <trkpt lat="49.81577" lon="4.78318">
        <ele>172</ele>
        <time>2022-08-19T06:48:16.000Z</time>
      </trkpt>
      <trkpt lat="49.81574" lon="4.78319">
        <ele>172</ele>
        <time>2022-08-19T06:48:17.000Z</time>
      </trkpt>
      <trkpt lat="49.8157" lon="4.78322">
        <ele>172</ele>
        <time>2022-08-19T06:48:18.000Z</time>
      </trkpt>
      <trkpt lat="49.81568" lon="4.78324">
        <ele>172</ele>
        <time>2022-08-19T06:48:19.000Z</time>
      </trkpt>
      <trkpt lat="49.81567" lon="4.78327">
        <ele>172</ele>
        <time>2022-08-19T06:48:20.000Z</time>
      </trkpt>
      <trkpt lat="49.81568" lon="4.78327">
        <ele>172</ele>
        <time>2022-08-19T06:48:21.000Z</time>
      </trkpt>
      <trkpt lat="49.81569" lon="4.78326">
        <ele>172</ele>
        <time>2022-08-19T06:48:22.000Z</time>
      </trkpt>
      <trkpt lat="49.81571" lon="4.78323">
        <ele>172</ele>
        <time>2022-08-19T06:48:23.000Z</time>
      </trkpt>
      <trkpt lat="49.81571" lon="4.7832">
        <ele>172</ele>
        <time>2022-08-19T06:48:24.000Z</time>
      </trkpt>
      <trkpt lat="49.81572" lon="4.78315">
        <ele>171</ele>
        <time>2022-08-19T06:48:25.000Z</time>
      </trkpt>
      <trkpt lat="49.81572" lon="4.78311">
        <ele>171</ele>
        <time>2022-08-19T06:48:26.000Z</time>
      </trkpt>
      <trkpt lat="49.81573" lon="4.78307">
        <ele>171</ele>
        <time>2022-08-19T06:48:27.000Z</time>
      </trkpt>
      <trkpt lat="49.81574" lon="4.78303">
        <ele>172</ele>
        <time>2022-08-19T06:48:28.000Z</time>
      </trkpt>
      <trkpt lat="49.81575" lon="4.78299">
        <ele>172</ele>
        <time>2022-08-19T06:48:29.000Z</time>
      </trkpt>
      <trkpt lat="49.81577" lon="4.78294">
        <ele>172</ele>
        <time>2022-08-19T06:48:30.000Z</time>
      </trkpt>
      <trkpt lat="49.81579" lon="4.7829">
        <ele>172</ele>
        <time>2022-08-19T06:48:31.000Z</time>
      </trkpt>
      <trkpt lat="49.8158" lon="4.78288">
        <ele>172</ele>
        <time>2022-08-19T06:48:32.000Z</time>
      </trkpt>
      <trkpt lat="49.81582" lon="4.78287">
        <ele>172</ele>
        <time>2022-08-19T06:48:33.000Z</time>
      </trkpt>
      <trkpt lat="49.81584" lon="4.78288">
        <ele>172</ele>
        <time>2022-08-19T06:48:34.000Z</time>
      </trkpt>
      <trkpt lat="49.81585" lon="4.7829">
        <ele>172</ele>
        <time>2022-08-19T06:48:35.000Z</time>
      </trkpt>
      <trkpt lat="49.81586" lon="4.78292">
        <ele>172</ele>
        <time>2022-08-19T06:48:36.000Z</time>
      </trkpt>
      <trkpt lat="49.81586" lon="4.78294">
        <ele>172</ele>
        <time>2022-08-19T06:48:37.000Z</time>
      </trkpt>
      <trkpt lat="49.81587" lon="4.78297">
        <ele>172</ele>
        <time>2022-08-19T06:48:38.000Z</time>
      </trkpt>
      <trkpt lat="49.81588" lon="4.783">
        <ele>172</ele>
        <time>2022-08-19T06:48:39.000Z</time>
      </trkpt>
      <trkpt lat="49.81588" lon="4.78303">
        <ele>172</ele>
        <time>2022-08-19T06:48:40.000Z</time>
      </trkpt>
      <trkpt lat="49.81589" lon="4.78307">
        <ele>173</ele>
        <time>2022-08-19T06:48:41.000Z</time>
      </trkpt>
      <trkpt lat="49.8159" lon="4.78312">
        <ele>173</ele>
        <time>2022-08-19T06:48:42.000Z</time>
      </trkpt>
      <trkpt lat="49.81591" lon="4.78316">
        <ele>173</ele>
        <time>2022-08-19T06:48:43.000Z</time>
      </trkpt>
      <trkpt lat="49.81593" lon="4.7832">
        <ele>173</ele>
        <time>2022-08-19T06:48:44.000Z</time>
      </trkpt>
      <trkpt lat="49.81594" lon="4.78325">
        <ele>173</ele>
        <time>2022-08-19T06:48:45.000Z</time>
      </trkpt>
      <trkpt lat="49.81596" lon="4.7833">
        <ele>173</ele>
        <time>2022-08-19T06:48:46.000Z</time>
      </trkpt>
      <trkpt lat="49.81598" lon="4.78335">
        <ele>173</ele>
        <time>2022-08-19T06:48:47.000Z</time>
      </trkpt>
      <trkpt lat="49.81601" lon="4.7834">
        <ele>173</ele>
        <time>2022-08-19T06:48:48.000Z</time>
      </trkpt>
      <trkpt lat="49.81604" lon="4.78346">
        <ele>173</ele>
        <time>2022-08-19T06:48:49.000Z</time>
      </trkpt>
      <trkpt lat="49.81607" lon="4.78351">
        <ele>172</ele>
        <time>2022-08-19T06:48:50.000Z</time>
      </trkpt>
      <trkpt lat="49.8161" lon="4.78357">
        <ele>172</ele>
        <time>2022-08-19T06:48:51.000Z</time>
      </trkpt>
      <trkpt lat="49.81613" lon="4.78363">
        <ele>172</ele>
        <time>2022-08-19T06:48:52.000Z</time>
      </trkpt>
      <trkpt lat="49.81616" lon="4.78369">
        <ele>172</ele>
        <time>2022-08-19T06:48:53.000Z</time>
      </trkpt>
      <trkpt lat="49.81619" lon="4.78374">
        <ele>172</ele>
        <time>2022-08-19T06:48:54.000Z</time>
      </trkpt>
      <trkpt lat="49.81622" lon="4.78379">
        <ele>171</ele>
        <time>2022-08-19T06:48:55.000Z</time>
      </trkpt>
      <trkpt lat="49.81624" lon="4.78385">
        <ele>171</ele>
        <time>2022-08-19T06:48:56.000Z</time>
      </trkpt>
      <trkpt lat="49.81627" lon="4.7839">
        <ele>171</ele>
        <time>2022-08-19T06:48:57.000Z</time>
      </trkpt>
      <trkpt lat="49.8163" lon="4.78394">
        <ele>171</ele>
        <time>2022-08-19T06:48:58.000Z</time>
      </trkpt>
      <trkpt lat="49.81633" lon="4.78399">
        <ele>171</ele>
        <time>2022-08-19T06:48:59.000Z</time>
      </trkpt>
      <trkpt lat="49.81635" lon="4.78403">
        <ele>171</ele>
        <time>2022-08-19T06:49:00.000Z</time>
      </trkpt>
      <trkpt lat="49.81638" lon="4.78407">
        <ele>171</ele>
        <time>2022-08-19T06:49:01.000Z</time>
      </trkpt>
      <trkpt lat="49.8164" lon="4.78411">
        <ele>171</ele>
        <time>2022-08-19T06:49:02.000Z</time>
      </trkpt>
      <trkpt lat="49.81643" lon="4.78415">
        <ele>171</ele>
        <time>2022-08-19T06:49:03.000Z</time>
      </trkpt>
      <trkpt lat="49.81646" lon="4.78419">
        <ele>171</ele>
        <time>2022-08-19T06:49:04.000Z</time>
      </trkpt>
      <trkpt lat="49.81649" lon="4.78423">
        <ele>171</ele>
        <time>2022-08-19T06:49:05.000Z</time>
      </trkpt>
      <trkpt lat="49.81652" lon="4.78427">
        <ele>171</ele>
        <time>2022-08-19T06:49:06.000Z</time>
      </trkpt>
      <trkpt lat="49.81656" lon="4.78431">
        <ele>171</ele>
        <time>2022-08-19T06:49:07.000Z</time>
      </trkpt>
      <trkpt lat="49.81659" lon="4.78435">
        <ele>171</ele>
        <time>2022-08-19T06:49:08.000Z</time>
      </trkpt>
      <trkpt lat="49.81664" lon="4.78439">
        <ele>171</ele>
        <time>2022-08-19T06:49:09.000Z</time>
      </trkpt>
      <trkpt lat="49.81668" lon="4.78443">
        <ele>172</ele>
        <time>2022-08-19T06:49:10.000Z</time>
      </trkpt>
      <trkpt lat="49.81673" lon="4.78447">
        <ele>172</ele>
        <time>2022-08-19T06:49:11.000Z</time>
      </trkpt>
      <trkpt lat="49.81678" lon="4.78452">
        <ele>172</ele>
        <time>2022-08-19T06:49:12.000Z</time>
      </trkpt>
      <trkpt lat="49.81682" lon="4.78456">
        <ele>172</ele>
        <time>2022-08-19T06:49:13.000Z</time>
      </trkpt>
      <trkpt lat="49.81687" lon="4.78461">
        <ele>172</ele>
        <time>2022-08-19T06:49:14.000Z</time>
      </trkpt>
      <trkpt lat="49.81691" lon="4.78466">
        <ele>172</ele>
        <time>2022-08-19T06:49:15.000Z</time>
      </trkpt>
      <trkpt lat="49.81696" lon="4.78471">
        <ele>172</ele>
        <time>2022-08-19T06:49:16.000Z</time>
      </trkpt>
      <trkpt lat="49.817" lon="4.78476">
        <ele>172</ele>
        <time>2022-08-19T06:49:17.000Z</time>
      </trkpt>
      <trkpt lat="49.81705" lon="4.78481">
        <ele>172</ele>
        <time>2022-08-19T06:49:18.000Z</time>
      </trkpt>
      <trkpt lat="49.81709" lon="4.78486">
        <ele>172</ele>
        <time>2022-08-19T06:49:19.000Z</time>
      </trkpt>
      <trkpt lat="49.81714" lon="4.78491">
        <ele>172</ele>
        <time>2022-08-19T06:49:20.000Z</time>
      </trkpt>
      <trkpt lat="49.81719" lon="4.78496">
        <ele>172</ele>
        <time>2022-08-19T06:49:21.000Z</time>
      </trkpt>
      <trkpt lat="49.81723" lon="4.785">
        <ele>172</ele>
        <time>2022-08-19T06:49:22.000Z</time>
      </trkpt>
      <trkpt lat="49.81728" lon="4.78504">
        <ele>172</ele>
        <time>2022-08-19T06:49:23.000Z</time>
      </trkpt>
      <trkpt lat="49.81733" lon="4.78507">
        <ele>173</ele>
        <time>2022-08-19T06:49:24.000Z</time>
      </trkpt>
      <trkpt lat="49.81737" lon="4.78511">
        <ele>173</ele>
        <time>2022-08-19T06:49:25.000Z</time>
      </trkpt>
      <trkpt lat="49.81742" lon="4.78514">
        <ele>173</ele>
        <time>2022-08-19T06:49:26.000Z</time>
      </trkpt>
      <trkpt lat="49.81746" lon="4.78516">
        <ele>173</ele>
        <time>2022-08-19T06:49:27.000Z</time>
      </trkpt>
      <trkpt lat="49.81749" lon="4.78519">
        <ele>173</ele>
        <time>2022-08-19T06:49:28.000Z</time>
      </trkpt>
      <trkpt lat="49.81753" lon="4.78521">
        <ele>173</ele>
        <time>2022-08-19T06:49:29.000Z</time>
      </trkpt>
      <trkpt lat="49.81757" lon="4.78523">
        <ele>174</ele>
        <time>2022-08-19T06:49:30.000Z</time>
      </trkpt>
      <trkpt lat="49.8176" lon="4.78525">
        <ele>174</ele>
        <time>2022-08-19T06:49:31.000Z</time>
      </trkpt>
      <trkpt lat="49.81764" lon="4.78527">
        <ele>174</ele>
        <time>2022-08-19T06:49:32.000Z</time>
      </trkpt>
      <trkpt lat="49.81767" lon="4.78529">
        <ele>174</ele>
        <time>2022-08-19T06:49:33.000Z</time>
      </trkpt>
      <trkpt lat="49.81771" lon="4.78531">
        <ele>174</ele>
        <time>2022-08-19T06:49:34.000Z</time>
      </trkpt>
      <trkpt lat="49.81774" lon="4.78533">
        <ele>174</ele>
        <time>2022-08-19T06:49:35.000Z</time>
      </trkpt>
      <trkpt lat="49.81778" lon="4.78535">
        <ele>175</ele>
        <time>2022-08-19T06:49:36.000Z</time>
      </trkpt>
      <trkpt lat="49.81781" lon="4.78538">
        <ele>175</ele>
        <time>2022-08-19T06:49:37.000Z</time>
      </trkpt>
      <trkpt lat="49.81785" lon="4.7854">
        <ele>175</ele>
        <time>2022-08-19T06:49:38.000Z</time>
      </trkpt>
      <trkpt lat="49.81788" lon="4.78543">
        <ele>175</ele>
        <time>2022-08-19T06:49:39.000Z</time>
      </trkpt>
      <trkpt lat="49.81792" lon="4.78545">
        <ele>175</ele>
        <time>2022-08-19T06:49:40.000Z</time>
      </trkpt>
      <trkpt lat="49.81795" lon="4.78548">
        <ele>176</ele>
        <time>2022-08-19T06:49:41.000Z</time>
      </trkpt>
      <trkpt lat="49.81799" lon="4.7855">
        <ele>176</ele>
        <time>2022-08-19T06:49:42.000Z</time>
      </trkpt>
      <trkpt lat="49.81803" lon="4.78553">
        <ele>176</ele>
        <time>2022-08-19T06:49:43.000Z</time>
      </trkpt>
      <trkpt lat="49.81806" lon="4.78556">
        <ele>176</ele>
        <time>2022-08-19T06:49:44.000Z</time>
      </trkpt>
      <trkpt lat="49.8181" lon="4.7856">
        <ele>177</ele>
        <time>2022-08-19T06:49:45.000Z</time>
      </trkpt>
      <trkpt lat="49.81813" lon="4.78563">
        <ele>177</ele>
        <time>2022-08-19T06:49:46.000Z</time>
      </trkpt>
      <trkpt lat="49.81817" lon="4.78566">
        <ele>177</ele>
        <time>2022-08-19T06:49:47.000Z</time>
      </trkpt>
      <trkpt lat="49.8182" lon="4.7857">
        <ele>177</ele>
        <time>2022-08-19T06:49:48.000Z</time>
      </trkpt>
      <trkpt lat="49.81824" lon="4.78573">
        <ele>178</ele>
        <time>2022-08-19T06:49:49.000Z</time>
      </trkpt>
      <trkpt lat="49.81827" lon="4.78577">
        <ele>178</ele>
        <time>2022-08-19T06:49:50.000Z</time>
      </trkpt>
      <trkpt lat="49.8183" lon="4.7858">
        <ele>178</ele>
        <time>2022-08-19T06:49:51.000Z</time>
      </trkpt>
      <trkpt lat="49.81833" lon="4.78584">
        <ele>179</ele>
        <time>2022-08-19T06:49:52.000Z</time>
      </trkpt>
      <trkpt lat="49.81837" lon="4.78587">
        <ele>179</ele>
        <time>2022-08-19T06:49:53.000Z</time>
      </trkpt>
      <trkpt lat="49.8184" lon="4.78591">
        <ele>179</ele>
        <time>2022-08-19T06:49:54.000Z</time>
      </trkpt>
      <trkpt lat="49.81843" lon="4.78594">
        <ele>179</ele>
        <time>2022-08-19T06:49:55.000Z</time>
      </trkpt>
      <trkpt lat="49.81847" lon="4.78598">
        <ele>180</ele>
        <time>2022-08-19T06:49:56.000Z</time>
      </trkpt>
      <trkpt lat="49.8185" lon="4.78602">
        <ele>180</ele>
        <time>2022-08-19T06:49:57.000Z</time>
      </trkpt>
      <trkpt lat="49.81854" lon="4.78606">
        <ele>180</ele>
        <time>2022-08-19T06:49:58.000Z</time>
      </trkpt>
      <trkpt lat="49.81857" lon="4.7861">
        <ele>180</ele>
        <time>2022-08-19T06:49:59.000Z</time>
      </trkpt>
      <trkpt lat="49.8186" lon="4.78613">
        <ele>180</ele>
        <time>2022-08-19T06:50:00.000Z</time>
      </trkpt>
      <trkpt lat="49.81864" lon="4.78617">
        <ele>180</ele>
        <time>2022-08-19T06:50:01.000Z</time>
      </trkpt>
      <trkpt lat="49.81867" lon="4.78621">
        <ele>181</ele>
        <time>2022-08-19T06:50:02.000Z</time>
      </trkpt>
      <trkpt lat="49.81871" lon="4.78625">
        <ele>181</ele>
        <time>2022-08-19T06:50:03.000Z</time>
      </trkpt>
      <trkpt lat="49.81874" lon="4.78629">
        <ele>181</ele>
        <time>2022-08-19T06:50:04.000Z</time>
      </trkpt>
      <trkpt lat="49.81878" lon="4.78633">
        <ele>181</ele>
        <time>2022-08-19T06:50:05.000Z</time>
      </trkpt>
      <trkpt lat="49.81882" lon="4.78637">
        <ele>182</ele>
        <time>2022-08-19T06:50:06.000Z</time>
      </trkpt>
      <trkpt lat="49.81885" lon="4.78641">
        <ele>182</ele>
        <time>2022-08-19T06:50:07.000Z</time>
      </trkpt>
      <trkpt lat="49.81889" lon="4.78645">
        <ele>182</ele>
        <time>2022-08-19T06:50:08.000Z</time>
      </trkpt>
      <trkpt lat="49.81893" lon="4.78649">
        <ele>182</ele>
        <time>2022-08-19T06:50:09.000Z</time>
      </trkpt>
      <trkpt lat="49.81896" lon="4.78653">
        <ele>182</ele>
        <time>2022-08-19T06:50:10.000Z</time>
      </trkpt>
      <trkpt lat="49.819" lon="4.78657">
        <ele>182</ele>
        <time>2022-08-19T06:50:11.000Z</time>
      </trkpt>
      <trkpt lat="49.81904" lon="4.78661">
        <ele>183</ele>
        <time>2022-08-19T06:50:12.000Z</time>
      </trkpt>
      <trkpt lat="49.81908" lon="4.78665">
        <ele>183</ele>
        <time>2022-08-19T06:50:13.000Z</time>
      </trkpt>
      <trkpt lat="49.81911" lon="4.78668">
        <ele>183</ele>
        <time>2022-08-19T06:50:14.000Z</time>
      </trkpt>
      <trkpt lat="49.81915" lon="4.78672">
        <ele>183</ele>
        <time>2022-08-19T06:50:15.000Z</time>
      </trkpt>
      <trkpt lat="49.81919" lon="4.78676">
        <ele>183</ele>
        <time>2022-08-19T06:50:16.000Z</time>
      </trkpt>
      <trkpt lat="49.81923" lon="4.7868">
        <ele>183</ele>
        <time>2022-08-19T06:50:17.000Z</time>
      </trkpt>
      <trkpt lat="49.81927" lon="4.78683">
        <ele>184</ele>
        <time>2022-08-19T06:50:18.000Z</time>
      </trkpt>
      <trkpt lat="49.81931" lon="4.78687">
        <ele>184</ele>
        <time>2022-08-19T06:50:19.000Z</time>
      </trkpt>
      <trkpt lat="49.81934" lon="4.7869">
        <ele>184</ele>
        <time>2022-08-19T06:50:20.000Z</time>
      </trkpt>
      <trkpt lat="49.81938" lon="4.78694">
        <ele>184</ele>
        <time>2022-08-19T06:50:21.000Z</time>
      </trkpt>
      <trkpt lat="49.81942" lon="4.78697">
        <ele>184</ele>
        <time>2022-08-19T06:50:22.000Z</time>
      </trkpt>
      <trkpt lat="49.81946" lon="4.787">
        <ele>185</ele>
        <time>2022-08-19T06:50:23.000Z</time>
      </trkpt>
      <trkpt lat="49.81949" lon="4.78703">
        <ele>185</ele>
        <time>2022-08-19T06:50:24.000Z</time>
      </trkpt>
      <trkpt lat="49.81953" lon="4.78706">
        <ele>185</ele>
        <time>2022-08-19T06:50:25.000Z</time>
      </trkpt>
      <trkpt lat="49.81956" lon="4.78709">
        <ele>185</ele>
        <time>2022-08-19T06:50:26.000Z</time>
      </trkpt>
      <trkpt lat="49.8196" lon="4.78713">
        <ele>186</ele>
        <time>2022-08-19T06:50:27.000Z</time>
      </trkpt>
      <trkpt lat="49.81965" lon="4.78716">
        <ele>186</ele>
        <time>2022-08-19T06:50:28.000Z</time>
      </trkpt>
      <trkpt lat="49.81969" lon="4.7872">
        <ele>186</ele>
        <time>2022-08-19T06:50:29.000Z</time>
      </trkpt>
      <trkpt lat="49.81973" lon="4.78724">
        <ele>186</ele>
        <time>2022-08-19T06:50:30.000Z</time>
      </trkpt>
      <trkpt lat="49.81978" lon="4.78727">
        <ele>186</ele>
        <time>2022-08-19T06:50:31.000Z</time>
      </trkpt>
      <trkpt lat="49.81982" lon="4.78731">
        <ele>186</ele>
        <time>2022-08-19T06:50:32.000Z</time>
      </trkpt>
      <trkpt lat="49.81986" lon="4.78735">
        <ele>187</ele>
        <time>2022-08-19T06:50:33.000Z</time>
      </trkpt>
      <trkpt lat="49.8199" lon="4.78738">
        <ele>187</ele>
        <time>2022-08-19T06:50:34.000Z</time>
      </trkpt>
      <trkpt lat="49.81994" lon="4.78742">
        <ele>187</ele>
        <time>2022-08-19T06:50:35.000Z</time>
      </trkpt>
      <trkpt lat="49.81998" lon="4.78745">
        <ele>187</ele>
        <time>2022-08-19T06:50:36.000Z</time>
      </trkpt>
      <trkpt lat="49.82002" lon="4.78749">
        <ele>187</ele>
        <time>2022-08-19T06:50:37.000Z</time>
      </trkpt>
      <trkpt lat="49.82006" lon="4.78752">
        <ele>187</ele>
        <time>2022-08-19T06:50:38.000Z</time>
      </trkpt>
      <trkpt lat="49.8201" lon="4.78755">
        <ele>187</ele>
        <time>2022-08-19T06:50:39.000Z</time>
      </trkpt>
      <trkpt lat="49.82013" lon="4.78758">
        <ele>188</ele>
        <time>2022-08-19T06:50:40.000Z</time>
      </trkpt>
      <trkpt lat="49.82017" lon="4.78761">
        <ele>188</ele>
        <time>2022-08-19T06:50:41.000Z</time>
      </trkpt>
      <trkpt lat="49.8202" lon="4.78764">
        <ele>188</ele>
        <time>2022-08-19T06:50:42.000Z</time>
      </trkpt>
      <trkpt lat="49.82024" lon="4.78766">
        <ele>188</ele>
        <time>2022-08-19T06:50:43.000Z</time>
      </trkpt>
      <trkpt lat="49.82027" lon="4.78769">
        <ele>189</ele>
        <time>2022-08-19T06:50:44.000Z</time>
      </trkpt>
      <trkpt lat="49.82031" lon="4.78772">
        <ele>189</ele>
        <time>2022-08-19T06:50:45.000Z</time>
      </trkpt>
      <trkpt lat="49.82034" lon="4.78775">
        <ele>189</ele>
        <time>2022-08-19T06:50:46.000Z</time>
      </trkpt>
      <trkpt lat="49.82038" lon="4.78778">
        <ele>189</ele>
        <time>2022-08-19T06:50:47.000Z</time>
      </trkpt>
      <trkpt lat="49.82042" lon="4.78781">
        <ele>189</ele>
        <time>2022-08-19T06:50:48.000Z</time>
      </trkpt>
      <trkpt lat="49.82046" lon="4.78784">
        <ele>189</ele>
        <time>2022-08-19T06:50:49.000Z</time>
      </trkpt>
      <trkpt lat="49.82049" lon="4.78787">
        <ele>189</ele>
        <time>2022-08-19T06:50:50.000Z</time>
      </trkpt>
      <trkpt lat="49.82053" lon="4.7879">
        <ele>189</ele>
        <time>2022-08-19T06:50:51.000Z</time>
      </trkpt>
      <trkpt lat="49.82056" lon="4.78794">
        <ele>189</ele>
        <time>2022-08-19T06:50:52.000Z</time>
      </trkpt>
      <trkpt lat="49.8206" lon="4.78797">
        <ele>189</ele>
        <time>2022-08-19T06:50:53.000Z</time>
      </trkpt>
      <trkpt lat="49.82063" lon="4.78801">
        <ele>189</ele>
        <time>2022-08-19T06:50:54.000Z</time>
      </trkpt>
      <trkpt lat="49.82066" lon="4.78805">
        <ele>189</ele>
        <time>2022-08-19T06:50:55.000Z</time>
      </trkpt>
      <trkpt lat="49.8207" lon="4.78809">
        <ele>189</ele>
        <time>2022-08-19T06:50:56.000Z</time>
      </trkpt>
      <trkpt lat="49.82073" lon="4.78812">
        <ele>190</ele>
        <time>2022-08-19T06:50:57.000Z</time>
      </trkpt>
      <trkpt lat="49.82076" lon="4.78816">
        <ele>190</ele>
        <time>2022-08-19T06:50:58.000Z</time>
      </trkpt>
      <trkpt lat="49.82079" lon="4.78821">
        <ele>190</ele>
        <time>2022-08-19T06:50:59.000Z</time>
      </trkpt>
      <trkpt lat="49.82082" lon="4.78825">
        <ele>190</ele>
        <time>2022-08-19T06:51:00.000Z</time>
      </trkpt>
      <trkpt lat="49.82085" lon="4.7883">
        <ele>190</ele>
        <time>2022-08-19T06:51:01.000Z</time>
      </trkpt>
      <trkpt lat="49.82088" lon="4.78835">
        <ele>190</ele>
        <time>2022-08-19T06:51:02.000Z</time>
      </trkpt>
      <trkpt lat="49.8209" lon="4.78841">
        <ele>190</ele>
        <time>2022-08-19T06:51:03.000Z</time>
      </trkpt>
      <trkpt lat="49.82093" lon="4.78847">
        <ele>190</ele>
        <time>2022-08-19T06:51:04.000Z</time>
      </trkpt>
      <trkpt lat="49.82095" lon="4.78853">
        <ele>190</ele>
        <time>2022-08-19T06:51:05.000Z</time>
      </trkpt>
      <trkpt lat="49.82097" lon="4.78858">
        <ele>190</ele>
        <time>2022-08-19T06:51:06.000Z</time>
      </trkpt>
      <trkpt lat="49.821" lon="4.78864">
        <ele>190</ele>
        <time>2022-08-19T06:51:07.000Z</time>
      </trkpt>
      <trkpt lat="49.82102" lon="4.7887">
        <ele>190</ele>
        <time>2022-08-19T06:51:08.000Z</time>
      </trkpt>
      <trkpt lat="49.82104" lon="4.78875">
        <ele>190</ele>
        <time>2022-08-19T06:51:09.000Z</time>
      </trkpt>
      <trkpt lat="49.82106" lon="4.78881">
        <ele>190</ele>
        <time>2022-08-19T06:51:10.000Z</time>
      </trkpt>
      <trkpt lat="49.82109" lon="4.78886">
        <ele>190</ele>
        <time>2022-08-19T06:51:11.000Z</time>
      </trkpt>
      <trkpt lat="49.82111" lon="4.78891">
        <ele>190</ele>
        <time>2022-08-19T06:51:12.000Z</time>
      </trkpt>
      <trkpt lat="49.82113" lon="4.78896">
        <ele>191</ele>
        <time>2022-08-19T06:51:13.000Z</time>
      </trkpt>
      <trkpt lat="49.82115" lon="4.78901">
        <ele>191</ele>
        <time>2022-08-19T06:51:14.000Z</time>
      </trkpt>
      <trkpt lat="49.82118" lon="4.78907">
        <ele>191</ele>
        <time>2022-08-19T06:51:15.000Z</time>
      </trkpt>
      <trkpt lat="49.8212" lon="4.78911">
        <ele>191</ele>
        <time>2022-08-19T06:51:16.000Z</time>
      </trkpt>
      <trkpt lat="49.82123" lon="4.78916">
        <ele>191</ele>
        <time>2022-08-19T06:51:17.000Z</time>
      </trkpt>
      <trkpt lat="49.82125" lon="4.78921">
        <ele>191</ele>
        <time>2022-08-19T06:51:18.000Z</time>
      </trkpt>
      <trkpt lat="49.82128" lon="4.78925">
        <ele>191</ele>
        <time>2022-08-19T06:51:19.000Z</time>
      </trkpt>
      <trkpt lat="49.82131" lon="4.7893">
        <ele>191</ele>
        <time>2022-08-19T06:51:20.000Z</time>
      </trkpt>
      <trkpt lat="49.82133" lon="4.78934">
        <ele>191</ele>
        <time>2022-08-19T06:51:21.000Z</time>
      </trkpt>
      <trkpt lat="49.82136" lon="4.78939">
        <ele>191</ele>
        <time>2022-08-19T06:51:22.000Z</time>
      </trkpt>
      <trkpt lat="49.82139" lon="4.78943">
        <ele>191</ele>
        <time>2022-08-19T06:51:23.000Z</time>
      </trkpt>
      <trkpt lat="49.82142" lon="4.78948">
        <ele>190</ele>
        <time>2022-08-19T06:51:24.000Z</time>
      </trkpt>
      <trkpt lat="49.82145" lon="4.78953">
        <ele>190</ele>
        <time>2022-08-19T06:51:25.000Z</time>
      </trkpt>
      <trkpt lat="49.82148" lon="4.78958">
        <ele>190</ele>
        <time>2022-08-19T06:51:26.000Z</time>
      </trkpt>
      <trkpt lat="49.82151" lon="4.78963">
        <ele>190</ele>
        <time>2022-08-19T06:51:27.000Z</time>
      </trkpt>
      <trkpt lat="49.82154" lon="4.78969">
        <ele>190</ele>
        <time>2022-08-19T06:51:28.000Z</time>
      </trkpt>
      <trkpt lat="49.82158" lon="4.78974">
        <ele>190</ele>
        <time>2022-08-19T06:51:29.000Z</time>
      </trkpt>
      <trkpt lat="49.82161" lon="4.78978">
        <ele>190</ele>
        <time>2022-08-19T06:51:30.000Z</time>
      </trkpt>
      <trkpt lat="49.82164" lon="4.78983">
        <ele>190</ele>
        <time>2022-08-19T06:51:31.000Z</time>
      </trkpt>
      <trkpt lat="49.82168" lon="4.78988">
        <ele>190</ele>
        <time>2022-08-19T06:51:32.000Z</time>
      </trkpt>
      <trkpt lat="49.82171" lon="4.78992">
        <ele>190</ele>
        <time>2022-08-19T06:51:33.000Z</time>
      </trkpt>
      <trkpt lat="49.82175" lon="4.78996">
        <ele>190</ele>
        <time>2022-08-19T06:51:34.000Z</time>
      </trkpt>
      <trkpt lat="49.8218" lon="4.78999">
        <ele>190</ele>
        <time>2022-08-19T06:51:35.000Z</time>
      </trkpt>
      <trkpt lat="49.82184" lon="4.79001">
        <ele>190</ele>
        <time>2022-08-19T06:51:36.000Z</time>
      </trkpt>
      <trkpt lat="49.82189" lon="4.79003">
        <ele>190</ele>
        <time>2022-08-19T06:51:37.000Z</time>
      </trkpt>
      <trkpt lat="49.82194" lon="4.79005">
        <ele>190</ele>
        <time>2022-08-19T06:51:38.000Z</time>
      </trkpt>
      <trkpt lat="49.82199" lon="4.79007">
        <ele>191</ele>
        <time>2022-08-19T06:51:39.000Z</time>
      </trkpt>
      <trkpt lat="49.82205" lon="4.79008">
        <ele>191</ele>
        <time>2022-08-19T06:51:40.000Z</time>
      </trkpt>
      <trkpt lat="49.82211" lon="4.79009">
        <ele>191</ele>
        <time>2022-08-19T06:51:41.000Z</time>
      </trkpt>
      <trkpt lat="49.82217" lon="4.79009">
        <ele>191</ele>
        <time>2022-08-19T06:51:42.000Z</time>
      </trkpt>
      <trkpt lat="49.82223" lon="4.7901">
        <ele>191</ele>
        <time>2022-08-19T06:51:43.000Z</time>
      </trkpt>
      <trkpt lat="49.82229" lon="4.79011">
        <ele>191</ele>
        <time>2022-08-19T06:51:44.000Z</time>
      </trkpt>
      <trkpt lat="49.82235" lon="4.79012">
        <ele>191</ele>
        <time>2022-08-19T06:51:45.000Z</time>
      </trkpt>
      <trkpt lat="49.82242" lon="4.79013">
        <ele>191</ele>
        <time>2022-08-19T06:51:46.000Z</time>
      </trkpt>
      <trkpt lat="49.82248" lon="4.79015">
        <ele>191</ele>
        <time>2022-08-19T06:51:47.000Z</time>
      </trkpt>
      <trkpt lat="49.82253" lon="4.79017">
        <ele>191</ele>
        <time>2022-08-19T06:51:48.000Z</time>
      </trkpt>
      <trkpt lat="49.82259" lon="4.79019">
        <ele>191</ele>
        <time>2022-08-19T06:51:49.000Z</time>
      </trkpt>
      <trkpt lat="49.82264" lon="4.79022">
        <ele>191</ele>
        <time>2022-08-19T06:51:50.000Z</time>
      </trkpt>
      <trkpt lat="49.8227" lon="4.79024">
        <ele>191</ele>
        <time>2022-08-19T06:51:51.000Z</time>
      </trkpt>
      <trkpt lat="49.82275" lon="4.79026">
        <ele>191</ele>
        <time>2022-08-19T06:51:52.000Z</time>
      </trkpt>
      <trkpt lat="49.8228" lon="4.79029">
        <ele>191</ele>
        <time>2022-08-19T06:51:53.000Z</time>
      </trkpt>
      <trkpt lat="49.82285" lon="4.79031">
        <ele>191</ele>
        <time>2022-08-19T06:51:54.000Z</time>
      </trkpt>
      <trkpt lat="49.8229" lon="4.79034">
        <ele>191</ele>
        <time>2022-08-19T06:51:55.000Z</time>
      </trkpt>
      <trkpt lat="49.82295" lon="4.79036">
        <ele>191</ele>
        <time>2022-08-19T06:51:56.000Z</time>
      </trkpt>
      <trkpt lat="49.823" lon="4.79037">
        <ele>192</ele>
        <time>2022-08-19T06:51:57.000Z</time>
      </trkpt>
      <trkpt lat="49.82306" lon="4.79039">
        <ele>192</ele>
        <time>2022-08-19T06:51:58.000Z</time>
      </trkpt>
      <trkpt lat="49.82311" lon="4.79041">
        <ele>192</ele>
        <time>2022-08-19T06:51:59.000Z</time>
      </trkpt>
      <trkpt lat="49.82317" lon="4.79043">
        <ele>192</ele>
        <time>2022-08-19T06:52:00.000Z</time>
      </trkpt>
      <trkpt lat="49.82322" lon="4.79044">
        <ele>192</ele>
        <time>2022-08-19T06:52:01.000Z</time>
      </trkpt>
      <trkpt lat="49.82328" lon="4.79046">
        <ele>192</ele>
        <time>2022-08-19T06:52:02.000Z</time>
      </trkpt>
      <trkpt lat="49.82333" lon="4.79047">
        <ele>192</ele>
        <time>2022-08-19T06:52:03.000Z</time>
      </trkpt>
      <trkpt lat="49.82338" lon="4.79047">
        <ele>191</ele>
        <time>2022-08-19T06:52:04.000Z</time>
      </trkpt>
      <trkpt lat="49.82342" lon="4.79049">
        <ele>191</ele>
        <time>2022-08-19T06:52:05.000Z</time>
      </trkpt>
      <trkpt lat="49.82348" lon="4.79049">
        <ele>191</ele>
        <time>2022-08-19T06:52:06.000Z</time>
      </trkpt>
      <trkpt lat="49.82353" lon="4.79049">
        <ele>191</ele>
        <time>2022-08-19T06:52:07.000Z</time>
      </trkpt>
      <trkpt lat="49.82359" lon="4.7905">
        <ele>191</ele>
        <time>2022-08-19T06:52:08.000Z</time>
      </trkpt>
      <trkpt lat="49.82364" lon="4.79049">
        <ele>191</ele>
        <time>2022-08-19T06:52:09.000Z</time>
      </trkpt>
      <trkpt lat="49.82369" lon="4.79049">
        <ele>192</ele>
        <time>2022-08-19T06:52:10.000Z</time>
      </trkpt>
      <trkpt lat="49.82375" lon="4.79049">
        <ele>192</ele>
        <time>2022-08-19T06:52:11.000Z</time>
      </trkpt>
      <trkpt lat="49.8238" lon="4.7905">
        <ele>192</ele>
        <time>2022-08-19T06:52:12.000Z</time>
      </trkpt>
      <trkpt lat="49.82386" lon="4.79052">
        <ele>192</ele>
        <time>2022-08-19T06:52:13.000Z</time>
      </trkpt>
      <trkpt lat="49.82391" lon="4.79054">
        <ele>192</ele>
        <time>2022-08-19T06:52:14.000Z</time>
      </trkpt>
      <trkpt lat="49.82396" lon="4.79056">
        <ele>192</ele>
        <time>2022-08-19T06:52:15.000Z</time>
      </trkpt>
      <trkpt lat="49.82401" lon="4.79057">
        <ele>192</ele>
        <time>2022-08-19T06:52:16.000Z</time>
      </trkpt>
      <trkpt lat="49.82406" lon="4.79059">
        <ele>192</ele>
        <time>2022-08-19T06:52:17.000Z</time>
      </trkpt>
      <trkpt lat="49.82411" lon="4.79061">
        <ele>193</ele>
        <time>2022-08-19T06:52:18.000Z</time>
      </trkpt>
      <trkpt lat="49.82416" lon="4.79063">
        <ele>193</ele>
        <time>2022-08-19T06:52:19.000Z</time>
      </trkpt>
      <trkpt lat="49.82421" lon="4.79066">
        <ele>193</ele>
        <time>2022-08-19T06:52:20.000Z</time>
      </trkpt>
      <trkpt lat="49.82426" lon="4.79069">
        <ele>193</ele>
        <time>2022-08-19T06:52:21.000Z</time>
      </trkpt>
      <trkpt lat="49.82431" lon="4.79071">
        <ele>193</ele>
        <time>2022-08-19T06:52:22.000Z</time>
      </trkpt>
      <trkpt lat="49.82436" lon="4.79073">
        <ele>193</ele>
        <time>2022-08-19T06:52:23.000Z</time>
      </trkpt>
      <trkpt lat="49.82441" lon="4.79074">
        <ele>194</ele>
        <time>2022-08-19T06:52:24.000Z</time>
      </trkpt>
      <trkpt lat="49.82445" lon="4.79074">
        <ele>194</ele>
        <time>2022-08-19T06:52:25.000Z</time>
      </trkpt>
      <trkpt lat="49.8245" lon="4.79074">
        <ele>194</ele>
        <time>2022-08-19T06:52:26.000Z</time>
      </trkpt>
      <trkpt lat="49.82454" lon="4.79074">
        <ele>194</ele>
        <time>2022-08-19T06:52:27.000Z</time>
      </trkpt>
      <trkpt lat="49.8246" lon="4.79073">
        <ele>194</ele>
        <time>2022-08-19T06:52:28.000Z</time>
      </trkpt>
      <trkpt lat="49.82465" lon="4.79071">
        <ele>195</ele>
        <time>2022-08-19T06:52:29.000Z</time>
      </trkpt>
      <trkpt lat="49.82471" lon="4.79069">
        <ele>195</ele>
        <time>2022-08-19T06:52:30.000Z</time>
      </trkpt>
      <trkpt lat="49.82477" lon="4.79067">
        <ele>195</ele>
        <time>2022-08-19T06:52:31.000Z</time>
      </trkpt>
      <trkpt lat="49.82483" lon="4.79066">
        <ele>195</ele>
        <time>2022-08-19T06:52:32.000Z</time>
      </trkpt>
      <trkpt lat="49.82488" lon="4.79066">
        <ele>195</ele>
        <time>2022-08-19T06:52:33.000Z</time>
      </trkpt>
      <trkpt lat="49.82494" lon="4.79065">
        <ele>196</ele>
        <time>2022-08-19T06:52:34.000Z</time>
      </trkpt>
      <trkpt lat="49.825" lon="4.79066">
        <ele>196</ele>
        <time>2022-08-19T06:52:35.000Z</time>
      </trkpt>
      <trkpt lat="49.82506" lon="4.79068">
        <ele>196</ele>
        <time>2022-08-19T06:52:36.000Z</time>
      </trkpt>
      <trkpt lat="49.82511" lon="4.7907">
        <ele>196</ele>
        <time>2022-08-19T06:52:37.000Z</time>
      </trkpt>
      <trkpt lat="49.82516" lon="4.79072">
        <ele>196</ele>
        <time>2022-08-19T06:52:38.000Z</time>
      </trkpt>
      <trkpt lat="49.82521" lon="4.79073">
        <ele>196</ele>
        <time>2022-08-19T06:52:39.000Z</time>
      </trkpt>
      <trkpt lat="49.82527" lon="4.79074">
        <ele>196</ele>
        <time>2022-08-19T06:52:40.000Z</time>
      </trkpt>
      <trkpt lat="49.82532" lon="4.79075">
        <ele>196</ele>
        <time>2022-08-19T06:52:41.000Z</time>
      </trkpt>
      <trkpt lat="49.82538" lon="4.79076">
        <ele>196</ele>
        <time>2022-08-19T06:52:42.000Z</time>
      </trkpt>
      <trkpt lat="49.82544" lon="4.79078">
        <ele>196</ele>
        <time>2022-08-19T06:52:43.000Z</time>
      </trkpt>
      <trkpt lat="49.8255" lon="4.79079">
        <ele>196</ele>
        <time>2022-08-19T06:52:44.000Z</time>
      </trkpt>
      <trkpt lat="49.82555" lon="4.79081">
        <ele>196</ele>
        <time>2022-08-19T06:52:45.000Z</time>
      </trkpt>
      <trkpt lat="49.8256" lon="4.79082">
        <ele>196</ele>
        <time>2022-08-19T06:52:46.000Z</time>
      </trkpt>
      <trkpt lat="49.82564" lon="4.79084">
        <ele>196</ele>
        <time>2022-08-19T06:52:47.000Z</time>
      </trkpt>
      <trkpt lat="49.8257" lon="4.79086">
        <ele>196</ele>
        <time>2022-08-19T06:52:48.000Z</time>
      </trkpt>
      <trkpt lat="49.82575" lon="4.79087">
        <ele>196</ele>
        <time>2022-08-19T06:52:49.000Z</time>
      </trkpt>
      <trkpt lat="49.8258" lon="4.79088">
        <ele>196</ele>
        <time>2022-08-19T06:52:50.000Z</time>
      </trkpt>
      <trkpt lat="49.82585" lon="4.79089">
        <ele>196</ele>
        <time>2022-08-19T06:52:51.000Z</time>
      </trkpt>
      <trkpt lat="49.8259" lon="4.79091">
        <ele>197</ele>
        <time>2022-08-19T06:52:52.000Z</time>
      </trkpt>
      <trkpt lat="49.82595" lon="4.79092">
        <ele>197</ele>
        <time>2022-08-19T06:52:53.000Z</time>
      </trkpt>
      <trkpt lat="49.826" lon="4.79093">
        <ele>197</ele>
        <time>2022-08-19T06:52:54.000Z</time>
      </trkpt>
      <trkpt lat="49.82606" lon="4.79094">
        <ele>197</ele>
        <time>2022-08-19T06:52:55.000Z</time>
      </trkpt>
      <trkpt lat="49.82611" lon="4.79096">
        <ele>197</ele>
        <time>2022-08-19T06:52:56.000Z</time>
      </trkpt>
      <trkpt lat="49.82616" lon="4.79098">
        <ele>197</ele>
        <time>2022-08-19T06:52:57.000Z</time>
      </trkpt>
      <trkpt lat="49.82621" lon="4.791">
        <ele>197</ele>
        <time>2022-08-19T06:52:58.000Z</time>
      </trkpt>
      <trkpt lat="49.82625" lon="4.79102">
        <ele>197</ele>
        <time>2022-08-19T06:52:59.000Z</time>
      </trkpt>
      <trkpt lat="49.82629" lon="4.79104">
        <ele>197</ele>
        <time>2022-08-19T06:53:00.000Z</time>
      </trkpt>
      <trkpt lat="49.82633" lon="4.79106">
        <ele>197</ele>
        <time>2022-08-19T06:53:01.000Z</time>
      </trkpt>
      <trkpt lat="49.82637" lon="4.79108">
        <ele>197</ele>
        <time>2022-08-19T06:53:02.000Z</time>
      </trkpt>
      <trkpt lat="49.82641" lon="4.79108">
        <ele>197</ele>
        <time>2022-08-19T06:53:03.000Z</time>
      </trkpt>
      <trkpt lat="49.82645" lon="4.79109">
        <ele>197</ele>
        <time>2022-08-19T06:53:04.000Z</time>
      </trkpt>
      <trkpt lat="49.82649" lon="4.79109">
        <ele>197</ele>
        <time>2022-08-19T06:53:05.000Z</time>
      </trkpt>
      <trkpt lat="49.82653" lon="4.7911">
        <ele>197</ele>
        <time>2022-08-19T06:53:06.000Z</time>
      </trkpt>
      <trkpt lat="49.82657" lon="4.7911">
        <ele>197</ele>
        <time>2022-08-19T06:53:07.000Z</time>
      </trkpt>
      <trkpt lat="49.82661" lon="4.7911">
        <ele>197</ele>
        <time>2022-08-19T06:53:08.000Z</time>
      </trkpt>
      <trkpt lat="49.82665" lon="4.79111">
        <ele>197</ele>
        <time>2022-08-19T06:53:09.000Z</time>
      </trkpt>
      <trkpt lat="49.82669" lon="4.79111">
        <ele>197</ele>
        <time>2022-08-19T06:53:10.000Z</time>
      </trkpt>
      <trkpt lat="49.82673" lon="4.79111">
        <ele>197</ele>
        <time>2022-08-19T06:53:11.000Z</time>
      </trkpt>
      <trkpt lat="49.82677" lon="4.79111">
        <ele>197</ele>
        <time>2022-08-19T06:53:12.000Z</time>
      </trkpt>
      <trkpt lat="49.82682" lon="4.79111">
        <ele>197</ele>
        <time>2022-08-19T06:53:13.000Z</time>
      </trkpt>
      <trkpt lat="49.82686" lon="4.79111">
        <ele>197</ele>
        <time>2022-08-19T06:53:14.000Z</time>
      </trkpt>
      <trkpt lat="49.82691" lon="4.79112">
        <ele>197</ele>
        <time>2022-08-19T06:53:15.000Z</time>
      </trkpt>
      <trkpt lat="49.82696" lon="4.79113">
        <ele>197</ele>
        <time>2022-08-19T06:53:16.000Z</time>
      </trkpt>
      <trkpt lat="49.827" lon="4.79115">
        <ele>197</ele>
        <time>2022-08-19T06:53:17.000Z</time>
      </trkpt>
      <trkpt lat="49.82705" lon="4.79118">
        <ele>197</ele>
        <time>2022-08-19T06:53:18.000Z</time>
      </trkpt>
      <trkpt lat="49.82709" lon="4.79121">
        <ele>197</ele>
        <time>2022-08-19T06:53:19.000Z</time>
      </trkpt>
      <trkpt lat="49.82714" lon="4.79124">
        <ele>197</ele>
        <time>2022-08-19T06:53:20.000Z</time>
      </trkpt>
      <trkpt lat="49.82718" lon="4.79127">
        <ele>197</ele>
        <time>2022-08-19T06:53:21.000Z</time>
      </trkpt>
      <trkpt lat="49.82722" lon="4.7913">
        <ele>197</ele>
        <time>2022-08-19T06:53:22.000Z</time>
      </trkpt>
      <trkpt lat="49.82727" lon="4.79133">
        <ele>197</ele>
        <time>2022-08-19T06:53:23.000Z</time>
      </trkpt>
      <trkpt lat="49.82731" lon="4.79137">
        <ele>196</ele>
        <time>2022-08-19T06:53:24.000Z</time>
      </trkpt>
      <trkpt lat="49.82736" lon="4.79141">
        <ele>196</ele>
        <time>2022-08-19T06:53:25.000Z</time>
      </trkpt>
      <trkpt lat="49.82741" lon="4.79144">
        <ele>196</ele>
        <time>2022-08-19T06:53:26.000Z</time>
      </trkpt>
      <trkpt lat="49.82745" lon="4.79148">
        <ele>196</ele>
        <time>2022-08-19T06:53:27.000Z</time>
      </trkpt>
      <trkpt lat="49.8275" lon="4.79151">
        <ele>196</ele>
        <time>2022-08-19T06:53:28.000Z</time>
      </trkpt>
      <trkpt lat="49.82755" lon="4.79155">
        <ele>196</ele>
        <time>2022-08-19T06:53:29.000Z</time>
      </trkpt>
      <trkpt lat="49.82759" lon="4.79159">
        <ele>196</ele>
        <time>2022-08-19T06:53:30.000Z</time>
      </trkpt>
      <trkpt lat="49.82764" lon="4.79162">
        <ele>196</ele>
        <time>2022-08-19T06:53:31.000Z</time>
      </trkpt>
      <trkpt lat="49.82769" lon="4.79166">
        <ele>196</ele>
        <time>2022-08-19T06:53:32.000Z</time>
      </trkpt>
      <trkpt lat="49.82773" lon="4.79171">
        <ele>196</ele>
        <time>2022-08-19T06:53:33.000Z</time>
      </trkpt>
      <trkpt lat="49.82777" lon="4.79176">
        <ele>196</ele>
        <time>2022-08-19T06:53:34.000Z</time>
      </trkpt>
      <trkpt lat="49.82781" lon="4.7918">
        <ele>196</ele>
        <time>2022-08-19T06:53:35.000Z</time>
      </trkpt>
      <trkpt lat="49.82785" lon="4.79185">
        <ele>196</ele>
        <time>2022-08-19T06:53:36.000Z</time>
      </trkpt>
      <trkpt lat="49.82788" lon="4.79191">
        <ele>196</ele>
        <time>2022-08-19T06:53:37.000Z</time>
      </trkpt>
      <trkpt lat="49.82791" lon="4.79197">
        <ele>196</ele>
        <time>2022-08-19T06:53:38.000Z</time>
      </trkpt>
      <trkpt lat="49.82795" lon="4.79202">
        <ele>196</ele>
        <time>2022-08-19T06:53:39.000Z</time>
      </trkpt>
      <trkpt lat="49.82798" lon="4.79208">
        <ele>196</ele>
        <time>2022-08-19T06:53:40.000Z</time>
      </trkpt>
      <trkpt lat="49.828" lon="4.79214">
        <ele>196</ele>
        <time>2022-08-19T06:53:41.000Z</time>
      </trkpt>
      <trkpt lat="49.82803" lon="4.7922">
        <ele>196</ele>
        <time>2022-08-19T06:53:42.000Z</time>
      </trkpt>
      <trkpt lat="49.82806" lon="4.79226">
        <ele>196</ele>
        <time>2022-08-19T06:53:43.000Z</time>
      </trkpt>
      <trkpt lat="49.82809" lon="4.79231">
        <ele>196</ele>
        <time>2022-08-19T06:53:44.000Z</time>
      </trkpt>
      <trkpt lat="49.82813" lon="4.79237">
        <ele>195</ele>
        <time>2022-08-19T06:53:45.000Z</time>
      </trkpt>
      <trkpt lat="49.82816" lon="4.79242">
        <ele>195</ele>
        <time>2022-08-19T06:53:46.000Z</time>
      </trkpt>
      <trkpt lat="49.8282" lon="4.79247">
        <ele>195</ele>
        <time>2022-08-19T06:53:47.000Z</time>
      </trkpt>
      <trkpt lat="49.82823" lon="4.79252">
        <ele>195</ele>
        <time>2022-08-19T06:53:48.000Z</time>
      </trkpt>
      <trkpt lat="49.82826" lon="4.79256">
        <ele>195</ele>
        <time>2022-08-19T06:53:49.000Z</time>
      </trkpt>
      <trkpt lat="49.8283" lon="4.7926">
        <ele>196</ele>
        <time>2022-08-19T06:53:50.000Z</time>
      </trkpt>
      <trkpt lat="49.82834" lon="4.79264">
        <ele>196</ele>
        <time>2022-08-19T06:53:51.000Z</time>
      </trkpt>
      <trkpt lat="49.82837" lon="4.79268">
        <ele>196</ele>
        <time>2022-08-19T06:53:52.000Z</time>
      </trkpt>
      <trkpt lat="49.82841" lon="4.79272">
        <ele>196</ele>
        <time>2022-08-19T06:53:53.000Z</time>
      </trkpt>
      <trkpt lat="49.82845" lon="4.79276">
        <ele>196</ele>
        <time>2022-08-19T06:53:54.000Z</time>
      </trkpt>
      <trkpt lat="49.82848" lon="4.7928">
        <ele>196</ele>
        <time>2022-08-19T06:53:55.000Z</time>
      </trkpt>
      <trkpt lat="49.82852" lon="4.79284">
        <ele>195</ele>
        <time>2022-08-19T06:53:56.000Z</time>
      </trkpt>
      <trkpt lat="49.82855" lon="4.7929">
        <ele>196</ele>
        <time>2022-08-19T06:53:57.000Z</time>
      </trkpt>
      <trkpt lat="49.82859" lon="4.79295">
        <ele>196</ele>
        <time>2022-08-19T06:53:58.000Z</time>
      </trkpt>
      <trkpt lat="49.82863" lon="4.793">
        <ele>196</ele>
        <time>2022-08-19T06:53:59.000Z</time>
      </trkpt>
      <trkpt lat="49.82866" lon="4.79306">
        <ele>196</ele>
        <time>2022-08-19T06:54:00.000Z</time>
      </trkpt>
      <trkpt lat="49.82869" lon="4.79312">
        <ele>196</ele>
        <time>2022-08-19T06:54:01.000Z</time>
      </trkpt>
      <trkpt lat="49.82872" lon="4.79318">
        <ele>196</ele>
        <time>2022-08-19T06:54:02.000Z</time>
      </trkpt>
      <trkpt lat="49.82875" lon="4.79322">
        <ele>196</ele>
        <time>2022-08-19T06:54:03.000Z</time>
      </trkpt>
      <trkpt lat="49.82877" lon="4.79328">
        <ele>196</ele>
        <time>2022-08-19T06:54:04.000Z</time>
      </trkpt>
      <trkpt lat="49.8288" lon="4.79333">
        <ele>196</ele>
        <time>2022-08-19T06:54:05.000Z</time>
      </trkpt>
      <trkpt lat="49.82882" lon="4.79338">
        <ele>196</ele>
        <time>2022-08-19T06:54:06.000Z</time>
      </trkpt>
      <trkpt lat="49.82885" lon="4.79343">
        <ele>196</ele>
        <time>2022-08-19T06:54:07.000Z</time>
      </trkpt>
      <trkpt lat="49.82887" lon="4.79348">
        <ele>196</ele>
        <time>2022-08-19T06:54:08.000Z</time>
      </trkpt>
      <trkpt lat="49.82889" lon="4.79353">
        <ele>196</ele>
        <time>2022-08-19T06:54:09.000Z</time>
      </trkpt>
      <trkpt lat="49.82892" lon="4.79358">
        <ele>196</ele>
        <time>2022-08-19T06:54:10.000Z</time>
      </trkpt>
      <trkpt lat="49.82894" lon="4.79363">
        <ele>196</ele>
        <time>2022-08-19T06:54:11.000Z</time>
      </trkpt>
      <trkpt lat="49.82896" lon="4.79368">
        <ele>196</ele>
        <time>2022-08-19T06:54:12.000Z</time>
      </trkpt>
      <trkpt lat="49.82898" lon="4.79373">
        <ele>197</ele>
        <time>2022-08-19T06:54:13.000Z</time>
      </trkpt>
      <trkpt lat="49.829" lon="4.79378">
        <ele>197</ele>
        <time>2022-08-19T06:54:14.000Z</time>
      </trkpt>
      <trkpt lat="49.82901" lon="4.79384">
        <ele>197</ele>
        <time>2022-08-19T06:54:15.000Z</time>
      </trkpt>
      <trkpt lat="49.82903" lon="4.79389">
        <ele>197</ele>
        <time>2022-08-19T06:54:16.000Z</time>
      </trkpt>
      <trkpt lat="49.82905" lon="4.79395">
        <ele>197</ele>
        <time>2022-08-19T06:54:17.000Z</time>
      </trkpt>
      <trkpt lat="49.82907" lon="4.79401">
        <ele>198</ele>
        <time>2022-08-19T06:54:18.000Z</time>
      </trkpt>
      <trkpt lat="49.82909" lon="4.79407">
        <ele>198</ele>
        <time>2022-08-19T06:54:19.000Z</time>
      </trkpt>
      <trkpt lat="49.8291" lon="4.79413">
        <ele>198</ele>
        <time>2022-08-19T06:54:20.000Z</time>
      </trkpt>
      <trkpt lat="49.82912" lon="4.79418">
        <ele>198</ele>
        <time>2022-08-19T06:54:21.000Z</time>
      </trkpt>
      <trkpt lat="49.82914" lon="4.79423">
        <ele>198</ele>
        <time>2022-08-19T06:54:22.000Z</time>
      </trkpt>
      <trkpt lat="49.82916" lon="4.79428">
        <ele>199</ele>
        <time>2022-08-19T06:54:23.000Z</time>
      </trkpt>
      <trkpt lat="49.82917" lon="4.79433">
        <ele>199</ele>
        <time>2022-08-19T06:54:24.000Z</time>
      </trkpt>
      <trkpt lat="49.8292" lon="4.79437">
        <ele>199</ele>
        <time>2022-08-19T06:54:25.000Z</time>
      </trkpt>
      <trkpt lat="49.82922" lon="4.79442">
        <ele>199</ele>
        <time>2022-08-19T06:54:26.000Z</time>
      </trkpt>
      <trkpt lat="49.82924" lon="4.79445">
        <ele>199</ele>
        <time>2022-08-19T06:54:27.000Z</time>
      </trkpt>
      <trkpt lat="49.82926" lon="4.79449">
        <ele>200</ele>
        <time>2022-08-19T06:54:28.000Z</time>
      </trkpt>
      <trkpt lat="49.82928" lon="4.79452">
        <ele>200</ele>
        <time>2022-08-19T06:54:29.000Z</time>
      </trkpt>
      <trkpt lat="49.8293" lon="4.79455">
        <ele>200</ele>
        <time>2022-08-19T06:54:30.000Z</time>
      </trkpt>
      <trkpt lat="49.82932" lon="4.79458">
        <ele>200</ele>
        <time>2022-08-19T06:54:31.000Z</time>
      </trkpt>
      <trkpt lat="49.82934" lon="4.7946">
        <ele>200</ele>
        <time>2022-08-19T06:54:32.000Z</time>
      </trkpt>
      <trkpt lat="49.82936" lon="4.79463">
        <ele>200</ele>
        <time>2022-08-19T06:54:33.000Z</time>
      </trkpt>
      <trkpt lat="49.82938" lon="4.79464">
        <ele>201</ele>
        <time>2022-08-19T06:54:34.000Z</time>
      </trkpt>
      <trkpt lat="49.82941" lon="4.79466">
        <ele>201</ele>
        <time>2022-08-19T06:54:35.000Z</time>
      </trkpt>
      <trkpt lat="49.82943" lon="4.79466">
        <ele>201</ele>
        <time>2022-08-19T06:54:36.000Z</time>
      </trkpt>
      <trkpt lat="49.82946" lon="4.79467">
        <ele>201</ele>
        <time>2022-08-19T06:54:37.000Z</time>
      </trkpt>
      <trkpt lat="49.82949" lon="4.79469">
        <ele>201</ele>
        <time>2022-08-19T06:54:38.000Z</time>
      </trkpt>
      <trkpt lat="49.82952" lon="4.7947">
        <ele>201</ele>
        <time>2022-08-19T06:54:39.000Z</time>
      </trkpt>
      <trkpt lat="49.82956" lon="4.79471">
        <ele>202</ele>
        <time>2022-08-19T06:54:40.000Z</time>
      </trkpt>
      <trkpt lat="49.8296" lon="4.79472">
        <ele>202</ele>
        <time>2022-08-19T06:54:41.000Z</time>
      </trkpt>
      <trkpt lat="49.82963" lon="4.79472">
        <ele>202</ele>
        <time>2022-08-19T06:54:42.000Z</time>
      </trkpt>
      <trkpt lat="49.82967" lon="4.79472">
        <ele>202</ele>
        <time>2022-08-19T06:54:43.000Z</time>
      </trkpt>
      <trkpt lat="49.82971" lon="4.79475">
        <ele>202</ele>
        <time>2022-08-19T06:54:44.000Z</time>
      </trkpt>
      <trkpt lat="49.82975" lon="4.79476">
        <ele>202</ele>
        <time>2022-08-19T06:54:45.000Z</time>
      </trkpt>
      <trkpt lat="49.82979" lon="4.79478">
        <ele>202</ele>
        <time>2022-08-19T06:54:46.000Z</time>
      </trkpt>
      <trkpt lat="49.82983" lon="4.7948">
        <ele>203</ele>
        <time>2022-08-19T06:54:47.000Z</time>
      </trkpt>
      <trkpt lat="49.82987" lon="4.79481">
        <ele>203</ele>
        <time>2022-08-19T06:54:48.000Z</time>
      </trkpt>
      <trkpt lat="49.82991" lon="4.79481">
        <ele>203</ele>
        <time>2022-08-19T06:54:49.000Z</time>
      </trkpt>
      <trkpt lat="49.82995" lon="4.7948">
        <ele>203</ele>
        <time>2022-08-19T06:54:50.000Z</time>
      </trkpt>
      <trkpt lat="49.82998" lon="4.7948">
        <ele>204</ele>
        <time>2022-08-19T06:54:51.000Z</time>
      </trkpt>
      <trkpt lat="49.83001" lon="4.7948">
        <ele>204</ele>
        <time>2022-08-19T06:54:52.000Z</time>
      </trkpt>
      <trkpt lat="49.83003" lon="4.79481">
        <ele>204</ele>
        <time>2022-08-19T06:54:53.000Z</time>
      </trkpt>
      <trkpt lat="49.83006" lon="4.79481">
        <ele>204</ele>
        <time>2022-08-19T06:54:54.000Z</time>
      </trkpt>
      <trkpt lat="49.83008" lon="4.79481">
        <ele>205</ele>
        <time>2022-08-19T06:54:55.000Z</time>
      </trkpt>
      <trkpt lat="49.8301" lon="4.79482">
        <ele>205</ele>
        <time>2022-08-19T06:54:56.000Z</time>
      </trkpt>
      <trkpt lat="49.83012" lon="4.79482">
        <ele>205</ele>
        <time>2022-08-19T06:54:57.000Z</time>
      </trkpt>
      <trkpt lat="49.83014" lon="4.79482">
        <ele>205</ele>
        <time>2022-08-19T06:54:58.000Z</time>
      </trkpt>
      <trkpt lat="49.83015" lon="4.79482">
        <ele>206</ele>
        <time>2022-08-19T06:54:59.000Z</time>
      </trkpt>
      <trkpt lat="49.83017" lon="4.79483">
        <ele>206</ele>
        <time>2022-08-19T06:55:00.000Z</time>
      </trkpt>
      <trkpt lat="49.83019" lon="4.79483">
        <ele>206</ele>
        <time>2022-08-19T06:55:01.000Z</time>
      </trkpt>
      <trkpt lat="49.83021" lon="4.79483">
        <ele>206</ele>
        <time>2022-08-19T06:55:02.000Z</time>
      </trkpt>
      <trkpt lat="49.83023" lon="4.79484">
        <ele>207</ele>
        <time>2022-08-19T06:55:03.000Z</time>
      </trkpt>
      <trkpt lat="49.83026" lon="4.79483">
        <ele>207</ele>
        <time>2022-08-19T06:55:04.000Z</time>
      </trkpt>
      <trkpt lat="49.83028" lon="4.79484">
        <ele>207</ele>
        <time>2022-08-19T06:55:05.000Z</time>
      </trkpt>
      <trkpt lat="49.8303" lon="4.79483">
        <ele>207</ele>
        <time>2022-08-19T06:55:06.000Z</time>
      </trkpt>
      <trkpt lat="49.83031" lon="4.79483">
        <ele>207</ele>
        <time>2022-08-19T06:55:07.000Z</time>
      </trkpt>
      <trkpt lat="49.83033" lon="4.79483">
        <ele>207</ele>
        <time>2022-08-19T06:55:08.000Z</time>
      </trkpt>
      <trkpt lat="49.83035" lon="4.79482">
        <ele>207</ele>
        <time>2022-08-19T06:55:09.000Z</time>
      </trkpt>
      <trkpt lat="49.83037" lon="4.79483">
        <ele>208</ele>
        <time>2022-08-19T06:55:10.000Z</time>
      </trkpt>
      <trkpt lat="49.83039" lon="4.79483">
        <ele>208</ele>
        <time>2022-08-19T06:55:11.000Z</time>
      </trkpt>
      <trkpt lat="49.83041" lon="4.79482">
        <ele>208</ele>
        <time>2022-08-19T06:55:12.000Z</time>
      </trkpt>
      <trkpt lat="49.83043" lon="4.79482">
        <ele>208</ele>
        <time>2022-08-19T06:55:13.000Z</time>
      </trkpt>
      <trkpt lat="49.83045" lon="4.79483">
        <ele>209</ele>
        <time>2022-08-19T06:55:14.000Z</time>
      </trkpt>
      <trkpt lat="49.83047" lon="4.79483">
        <ele>209</ele>
        <time>2022-08-19T06:55:15.000Z</time>
      </trkpt>
      <trkpt lat="49.83049" lon="4.79483">
        <ele>209</ele>
        <time>2022-08-19T06:55:16.000Z</time>
      </trkpt>
      <trkpt lat="49.83051" lon="4.79483">
        <ele>209</ele>
        <time>2022-08-19T06:55:17.000Z</time>
      </trkpt>
      <trkpt lat="49.83053" lon="4.79482">
        <ele>210</ele>
        <time>2022-08-19T06:55:18.000Z</time>
      </trkpt>
      <trkpt lat="49.83055" lon="4.79483">
        <ele>210</ele>
        <time>2022-08-19T06:55:19.000Z</time>
      </trkpt>
      <trkpt lat="49.83057" lon="4.79483">
        <ele>210</ele>
        <time>2022-08-19T06:55:20.000Z</time>
      </trkpt>
      <trkpt lat="49.83059" lon="4.79483">
        <ele>210</ele>
        <time>2022-08-19T06:55:21.000Z</time>
      </trkpt>
      <trkpt lat="49.83061" lon="4.79482">
        <ele>211</ele>
        <time>2022-08-19T06:55:22.000Z</time>
      </trkpt>
      <trkpt lat="49.83063" lon="4.79482">
        <ele>211</ele>
        <time>2022-08-19T06:55:23.000Z</time>
      </trkpt>
      <trkpt lat="49.83065" lon="4.79482">
        <ele>211</ele>
        <time>2022-08-19T06:55:24.000Z</time>
      </trkpt>
      <trkpt lat="49.83067" lon="4.79481">
        <ele>212</ele>
        <time>2022-08-19T06:55:25.000Z</time>
      </trkpt>
      <trkpt lat="49.83068" lon="4.7948">
        <ele>212</ele>
        <time>2022-08-19T06:55:26.000Z</time>
      </trkpt>
      <trkpt lat="49.8307" lon="4.79479">
        <ele>212</ele>
        <time>2022-08-19T06:55:27.000Z</time>
      </trkpt>
      <trkpt lat="49.83072" lon="4.79478">
        <ele>213</ele>
        <time>2022-08-19T06:55:28.000Z</time>
      </trkpt>
      <trkpt lat="49.83073" lon="4.79475">
        <ele>213</ele>
        <time>2022-08-19T06:55:29.000Z</time>
      </trkpt>
      <trkpt lat="49.83074" lon="4.79472">
        <ele>213</ele>
        <time>2022-08-19T06:55:30.000Z</time>
      </trkpt>
      <trkpt lat="49.83073" lon="4.79468">
        <ele>213</ele>
        <time>2022-08-19T06:55:31.000Z</time>
      </trkpt>
      <trkpt lat="49.83072" lon="4.79465">
        <ele>213</ele>
        <time>2022-08-19T06:55:32.000Z</time>
      </trkpt>
      <trkpt lat="49.8307" lon="4.79463">
        <ele>214</ele>
        <time>2022-08-19T06:55:33.000Z</time>
      </trkpt>
      <trkpt lat="49.83068" lon="4.79462">
        <ele>214</ele>
        <time>2022-08-19T06:55:34.000Z</time>
      </trkpt>
      <trkpt lat="49.83066" lon="4.79461">
        <ele>214</ele>
        <time>2022-08-19T06:55:35.000Z</time>
      </trkpt>
      <trkpt lat="49.83063" lon="4.7946">
        <ele>214</ele>
        <time>2022-08-19T06:55:36.000Z</time>
      </trkpt>
      <trkpt lat="49.8306" lon="4.7946">
        <ele>215</ele>
        <time>2022-08-19T06:55:37.000Z</time>
      </trkpt>
      <trkpt lat="49.83057" lon="4.79461">
        <ele>215</ele>
        <time>2022-08-19T06:55:38.000Z</time>
      </trkpt>
      <trkpt lat="49.83054" lon="4.7946">
        <ele>215</ele>
        <time>2022-08-19T06:55:39.000Z</time>
      </trkpt>
      <trkpt lat="49.83051" lon="4.79459">
        <ele>215</ele>
        <time>2022-08-19T06:55:40.000Z</time>
      </trkpt>
      <trkpt lat="49.83048" lon="4.79458">
        <ele>215</ele>
        <time>2022-08-19T06:55:41.000Z</time>
      </trkpt>
      <trkpt lat="49.83045" lon="4.79457">
        <ele>215</ele>
        <time>2022-08-19T06:55:42.000Z</time>
      </trkpt>
      <trkpt lat="49.83042" lon="4.79454">
        <ele>215</ele>
        <time>2022-08-19T06:55:43.000Z</time>
      </trkpt>
      <trkpt lat="49.83039" lon="4.79453">
        <ele>215</ele>
        <time>2022-08-19T06:55:44.000Z</time>
      </trkpt>
      <trkpt lat="49.83037" lon="4.79451">
        <ele>215</ele>
        <time>2022-08-19T06:55:45.000Z</time>
      </trkpt>
      <trkpt lat="49.83034" lon="4.79449">
        <ele>216</ele>
        <time>2022-08-19T06:55:46.000Z</time>
      </trkpt>
      <trkpt lat="49.83032" lon="4.79447">
        <ele>216</ele>
        <time>2022-08-19T06:55:47.000Z</time>
      </trkpt>
      <trkpt lat="49.8303" lon="4.79445">
        <ele>216</ele>
        <time>2022-08-19T06:55:48.000Z</time>
      </trkpt>
      <trkpt lat="49.83028" lon="4.79444">
        <ele>216</ele>
        <time>2022-08-19T06:55:49.000Z</time>
      </trkpt>
      <trkpt lat="49.83026" lon="4.79442">
        <ele>216</ele>
        <time>2022-08-19T06:55:50.000Z</time>
      </trkpt>
      <trkpt lat="49.83025" lon="4.7944">
        <ele>216</ele>
        <time>2022-08-19T06:55:51.000Z</time>
      </trkpt>
      <trkpt lat="49.83023" lon="4.79439">
        <ele>216</ele>
        <time>2022-08-19T06:55:52.000Z</time>
      </trkpt>
      <trkpt lat="49.83022" lon="4.79438">
        <ele>216</ele>
        <time>2022-08-19T06:55:53.000Z</time>
      </trkpt>
      <trkpt lat="49.8302" lon="4.79436">
        <ele>217</ele>
        <time>2022-08-19T06:55:54.000Z</time>
      </trkpt>
      <trkpt lat="49.83019" lon="4.79434">
        <ele>217</ele>
        <time>2022-08-19T06:55:55.000Z</time>
      </trkpt>
      <trkpt lat="49.83017" lon="4.79433">
        <ele>217</ele>
        <time>2022-08-19T06:55:56.000Z</time>
      </trkpt>
      <trkpt lat="49.83015" lon="4.79431">
        <ele>217</ele>
        <time>2022-08-19T06:55:57.000Z</time>
      </trkpt>
      <trkpt lat="49.83014" lon="4.7943">
        <ele>217</ele>
        <time>2022-08-19T06:55:58.000Z</time>
      </trkpt>
      <trkpt lat="49.83013" lon="4.79428">
        <ele>218</ele>
        <time>2022-08-19T06:55:59.000Z</time>
      </trkpt>
      <trkpt lat="49.83011" lon="4.79426">
        <ele>218</ele>
        <time>2022-08-19T06:56:00.000Z</time>
      </trkpt>
      <trkpt lat="49.83009" lon="4.79424">
        <ele>218</ele>
        <time>2022-08-19T06:56:01.000Z</time>
      </trkpt>
      <trkpt lat="49.83008" lon="4.79422">
        <ele>218</ele>
        <time>2022-08-19T06:56:02.000Z</time>
      </trkpt>
      <trkpt lat="49.83006" lon="4.7942">
        <ele>219</ele>
        <time>2022-08-19T06:56:03.000Z</time>
      </trkpt>
      <trkpt lat="49.83005" lon="4.79418">
        <ele>219</ele>
        <time>2022-08-19T06:56:04.000Z</time>
      </trkpt>
      <trkpt lat="49.83003" lon="4.79416">
        <ele>219</ele>
        <time>2022-08-19T06:56:05.000Z</time>
      </trkpt>
      <trkpt lat="49.83001" lon="4.79414">
        <ele>220</ele>
        <time>2022-08-19T06:56:06.000Z</time>
      </trkpt>
      <trkpt lat="49.83" lon="4.79412">
        <ele>220</ele>
        <time>2022-08-19T06:56:07.000Z</time>
      </trkpt>
      <trkpt lat="49.82999" lon="4.7941">
        <ele>220</ele>
        <time>2022-08-19T06:56:08.000Z</time>
      </trkpt>
      <trkpt lat="49.82997" lon="4.79408">
        <ele>221</ele>
        <time>2022-08-19T06:56:09.000Z</time>
      </trkpt>
      <trkpt lat="49.82996" lon="4.79406">
        <ele>221</ele>
        <time>2022-08-19T06:56:10.000Z</time>
      </trkpt>
      <trkpt lat="49.82994" lon="4.79404">
        <ele>221</ele>
        <time>2022-08-19T06:56:11.000Z</time>
      </trkpt>
      <trkpt lat="49.82993" lon="4.79402">
        <ele>222</ele>
        <time>2022-08-19T06:56:12.000Z</time>
      </trkpt>
      <trkpt lat="49.82991" lon="4.794">
        <ele>222</ele>
        <time>2022-08-19T06:56:13.000Z</time>
      </trkpt>
      <trkpt lat="49.82989" lon="4.79398">
        <ele>222</ele>
        <time>2022-08-19T06:56:14.000Z</time>
      </trkpt>
      <trkpt lat="49.82987" lon="4.79396">
        <ele>223</ele>
        <time>2022-08-19T06:56:15.000Z</time>
      </trkpt>
      <trkpt lat="49.82985" lon="4.79394">
        <ele>223</ele>
        <time>2022-08-19T06:56:16.000Z</time>
      </trkpt>
      <trkpt lat="49.82984" lon="4.79392">
        <ele>223</ele>
        <time>2022-08-19T06:56:17.000Z</time>
      </trkpt>
      <trkpt lat="49.82982" lon="4.7939">
        <ele>224</ele>
        <time>2022-08-19T06:56:18.000Z</time>
      </trkpt>
      <trkpt lat="49.8298" lon="4.79387">
        <ele>224</ele>
        <time>2022-08-19T06:56:19.000Z</time>
      </trkpt>
      <trkpt lat="49.82978" lon="4.79385">
        <ele>225</ele>
        <time>2022-08-19T06:56:20.000Z</time>
      </trkpt>
      <trkpt lat="49.82977" lon="4.79383">
        <ele>225</ele>
        <time>2022-08-19T06:56:21.000Z</time>
      </trkpt>
      <trkpt lat="49.82975" lon="4.7938">
        <ele>225</ele>
        <time>2022-08-19T06:56:22.000Z</time>
      </trkpt>
      <trkpt lat="49.82974" lon="4.79378">
        <ele>226</ele>
        <time>2022-08-19T06:56:23.000Z</time>
      </trkpt>
      <trkpt lat="49.82972" lon="4.79377">
        <ele>226</ele>
        <time>2022-08-19T06:56:24.000Z</time>
      </trkpt>
      <trkpt lat="49.8297" lon="4.79375">
        <ele>226</ele>
        <time>2022-08-19T06:56:25.000Z</time>
      </trkpt>
      <trkpt lat="49.82969" lon="4.79373">
        <ele>226</ele>
        <time>2022-08-19T06:56:26.000Z</time>
      </trkpt>
      <trkpt lat="49.82967" lon="4.79371">
        <ele>227</ele>
        <time>2022-08-19T06:56:27.000Z</time>
      </trkpt>
      <trkpt lat="49.82965" lon="4.79368">
        <ele>227</ele>
        <time>2022-08-19T06:56:28.000Z</time>
      </trkpt>
      <trkpt lat="49.82964" lon="4.79366">
        <ele>227</ele>
        <time>2022-08-19T06:56:29.000Z</time>
      </trkpt>
      <trkpt lat="49.82962" lon="4.79364">
        <ele>227</ele>
        <time>2022-08-19T06:56:30.000Z</time>
      </trkpt>
      <trkpt lat="49.8296" lon="4.79362">
        <ele>227</ele>
        <time>2022-08-19T06:56:31.000Z</time>
      </trkpt>
      <trkpt lat="49.82958" lon="4.7936">
        <ele>228</ele>
        <time>2022-08-19T06:56:32.000Z</time>
      </trkpt>
      <trkpt lat="49.82957" lon="4.79357">
        <ele>228</ele>
        <time>2022-08-19T06:56:33.000Z</time>
      </trkpt>
      <trkpt lat="49.82955" lon="4.79355">
        <ele>228</ele>
        <time>2022-08-19T06:56:34.000Z</time>
      </trkpt>
      <trkpt lat="49.82953" lon="4.79352">
        <ele>228</ele>
        <time>2022-08-19T06:56:35.000Z</time>
      </trkpt>
      <trkpt lat="49.82951" lon="4.79349">
        <ele>228</ele>
        <time>2022-08-19T06:56:36.000Z</time>
      </trkpt>
      <trkpt lat="49.8295" lon="4.79347">
        <ele>229</ele>
        <time>2022-08-19T06:56:37.000Z</time>
      </trkpt>
      <trkpt lat="49.82949" lon="4.79344">
        <ele>229</ele>
        <time>2022-08-19T06:56:38.000Z</time>
      </trkpt>
      <trkpt lat="49.82948" lon="4.79341">
        <ele>229</ele>
        <time>2022-08-19T06:56:39.000Z</time>
      </trkpt>
      <trkpt lat="49.82947" lon="4.79339">
        <ele>229</ele>
        <time>2022-08-19T06:56:40.000Z</time>
      </trkpt>
      <trkpt lat="49.82946" lon="4.79336">
        <ele>229</ele>
        <time>2022-08-19T06:56:41.000Z</time>
      </trkpt>
      <trkpt lat="49.82945" lon="4.79333">
        <ele>229</ele>
        <time>2022-08-19T06:56:42.000Z</time>
      </trkpt>
      <trkpt lat="49.82944" lon="4.7933">
        <ele>230</ele>
        <time>2022-08-19T06:56:43.000Z</time>
      </trkpt>
      <trkpt lat="49.82943" lon="4.79327">
        <ele>230</ele>
        <time>2022-08-19T06:56:44.000Z</time>
      </trkpt>
      <trkpt lat="49.82943" lon="4.79324">
        <ele>230</ele>
        <time>2022-08-19T06:56:45.000Z</time>
      </trkpt>
      <trkpt lat="49.82942" lon="4.79321">
        <ele>230</ele>
        <time>2022-08-19T06:56:46.000Z</time>
      </trkpt>
      <trkpt lat="49.82941" lon="4.79318">
        <ele>230</ele>
        <time>2022-08-19T06:56:47.000Z</time>
      </trkpt>
      <trkpt lat="49.82941" lon="4.79315">
        <ele>230</ele>
        <time>2022-08-19T06:56:48.000Z</time>
      </trkpt>
      <trkpt lat="49.8294" lon="4.79312">
        <ele>231</ele>
        <time>2022-08-19T06:56:49.000Z</time>
      </trkpt>
      <trkpt lat="49.8294" lon="4.79309">
        <ele>231</ele>
        <time>2022-08-19T06:56:50.000Z</time>
      </trkpt>
      <trkpt lat="49.82939" lon="4.79306">
        <ele>231</ele>
        <time>2022-08-19T06:56:51.000Z</time>
      </trkpt>
      <trkpt lat="49.82939" lon="4.79303">
        <ele>231</ele>
        <time>2022-08-19T06:56:52.000Z</time>
      </trkpt>
      <trkpt lat="49.82939" lon="4.793">
        <ele>231</ele>
        <time>2022-08-19T06:56:53.000Z</time>
      </trkpt>
      <trkpt lat="49.82939" lon="4.79296">
        <ele>231</ele>
        <time>2022-08-19T06:56:54.000Z</time>
      </trkpt>
      <trkpt lat="49.82939" lon="4.79293">
        <ele>232</ele>
        <time>2022-08-19T06:56:55.000Z</time>
      </trkpt>
      <trkpt lat="49.82939" lon="4.7929">
        <ele>232</ele>
        <time>2022-08-19T06:56:56.000Z</time>
      </trkpt>
      <trkpt lat="49.82939" lon="4.79286">
        <ele>232</ele>
        <time>2022-08-19T06:56:57.000Z</time>
      </trkpt>
      <trkpt lat="49.82938" lon="4.79283">
        <ele>232</ele>
        <time>2022-08-19T06:56:58.000Z</time>
      </trkpt>
      <trkpt lat="49.82938" lon="4.79279">
        <ele>232</ele>
        <time>2022-08-19T06:56:59.000Z</time>
      </trkpt>
      <trkpt lat="49.82938" lon="4.79274">
        <ele>233</ele>
        <time>2022-08-19T06:57:00.000Z</time>
      </trkpt>
      <trkpt lat="49.82938" lon="4.7927">
        <ele>233</ele>
        <time>2022-08-19T06:57:01.000Z</time>
      </trkpt>
      <trkpt lat="49.82939" lon="4.79266">
        <ele>233</ele>
        <time>2022-08-19T06:57:02.000Z</time>
      </trkpt>
      <trkpt lat="49.82939" lon="4.79262">
        <ele>233</ele>
        <time>2022-08-19T06:57:03.000Z</time>
      </trkpt>
      <trkpt lat="49.82939" lon="4.79258">
        <ele>234</ele>
        <time>2022-08-19T06:57:04.000Z</time>
      </trkpt>
      <trkpt lat="49.8294" lon="4.79253">
        <ele>234</ele>
        <time>2022-08-19T06:57:05.000Z</time>
      </trkpt>
      <trkpt lat="49.82941" lon="4.79249">
        <ele>234</ele>
        <time>2022-08-19T06:57:06.000Z</time>
      </trkpt>
      <trkpt lat="49.82941" lon="4.79245">
        <ele>234</ele>
        <time>2022-08-19T06:57:07.000Z</time>
      </trkpt>
      <trkpt lat="49.82942" lon="4.7924">
        <ele>235</ele>
        <time>2022-08-19T06:57:08.000Z</time>
      </trkpt>
      <trkpt lat="49.82943" lon="4.79236">
        <ele>235</ele>
        <time>2022-08-19T06:57:09.000Z</time>
      </trkpt>
      <trkpt lat="49.82944" lon="4.79232">
        <ele>235</ele>
        <time>2022-08-19T06:57:10.000Z</time>
      </trkpt>
      <trkpt lat="49.82944" lon="4.79228">
        <ele>235</ele>
        <time>2022-08-19T06:57:11.000Z</time>
      </trkpt>
      <trkpt lat="49.82945" lon="4.79224">
        <ele>235</ele>
        <time>2022-08-19T06:57:12.000Z</time>
      </trkpt>
      <trkpt lat="49.82945" lon="4.7922">
        <ele>235</ele>
        <time>2022-08-19T06:57:13.000Z</time>
      </trkpt>
      <trkpt lat="49.82946" lon="4.79217">
        <ele>235</ele>
        <time>2022-08-19T06:57:14.000Z</time>
      </trkpt>
      <trkpt lat="49.82947" lon="4.79213">
        <ele>235</ele>
        <time>2022-08-19T06:57:15.000Z</time>
      </trkpt>
      <trkpt lat="49.82947" lon="4.79211">
        <ele>235</ele>
        <time>2022-08-19T06:57:16.000Z</time>
      </trkpt>
      <trkpt lat="49.82948" lon="4.79208">
        <ele>235</ele>
        <time>2022-08-19T06:57:17.000Z</time>
      </trkpt>
      <trkpt lat="49.82949" lon="4.79206">
        <ele>235</ele>
        <time>2022-08-19T06:57:18.000Z</time>
      </trkpt>
      <trkpt lat="49.8295" lon="4.79203">
        <ele>235</ele>
        <time>2022-08-19T06:57:19.000Z</time>
      </trkpt>
      <trkpt lat="49.82951" lon="4.79201">
        <ele>236</ele>
        <time>2022-08-19T06:57:20.000Z</time>
      </trkpt>
      <trkpt lat="49.82952" lon="4.79198">
        <ele>236</ele>
        <time>2022-08-19T06:57:21.000Z</time>
      </trkpt>
      <trkpt lat="49.82953" lon="4.79195">
        <ele>236</ele>
        <time>2022-08-19T06:57:22.000Z</time>
      </trkpt>
      <trkpt lat="49.82953" lon="4.79192">
        <ele>236</ele>
        <time>2022-08-19T06:57:23.000Z</time>
      </trkpt>
      <trkpt lat="49.82953" lon="4.79188">
        <ele>237</ele>
        <time>2022-08-19T06:57:24.000Z</time>
      </trkpt>
      <trkpt lat="49.82954" lon="4.79185">
        <ele>237</ele>
        <time>2022-08-19T06:57:25.000Z</time>
      </trkpt>
      <trkpt lat="49.82954" lon="4.79182">
        <ele>237</ele>
        <time>2022-08-19T06:57:26.000Z</time>
      </trkpt>
      <trkpt lat="49.82954" lon="4.79179">
        <ele>238</ele>
        <time>2022-08-19T06:57:27.000Z</time>
      </trkpt>
      <trkpt lat="49.82955" lon="4.79176">
        <ele>238</ele>
        <time>2022-08-19T06:57:28.000Z</time>
      </trkpt>
      <trkpt lat="49.82955" lon="4.79173">
        <ele>238</ele>
        <time>2022-08-19T06:57:29.000Z</time>
      </trkpt>
      <trkpt lat="49.82955" lon="4.7917">
        <ele>239</ele>
        <time>2022-08-19T06:57:30.000Z</time>
      </trkpt>
      <trkpt lat="49.82955" lon="4.79167">
        <ele>239</ele>
        <time>2022-08-19T06:57:31.000Z</time>
      </trkpt>
      <trkpt lat="49.82954" lon="4.79163">
        <ele>239</ele>
        <time>2022-08-19T06:57:32.000Z</time>
      </trkpt>
      <trkpt lat="49.82954" lon="4.7916">
        <ele>240</ele>
        <time>2022-08-19T06:57:33.000Z</time>
      </trkpt>
      <trkpt lat="49.82953" lon="4.79157">
        <ele>240</ele>
        <time>2022-08-19T06:57:34.000Z</time>
      </trkpt>
      <trkpt lat="49.82952" lon="4.79154">
        <ele>240</ele>
        <time>2022-08-19T06:57:35.000Z</time>
      </trkpt>
      <trkpt lat="49.82951" lon="4.79151">
        <ele>241</ele>
        <time>2022-08-19T06:57:36.000Z</time>
      </trkpt>
      <trkpt lat="49.8295" lon="4.79148">
        <ele>241</ele>
        <time>2022-08-19T06:57:37.000Z</time>
      </trkpt>
      <trkpt lat="49.82949" lon="4.79145">
        <ele>242</ele>
        <time>2022-08-19T06:57:38.000Z</time>
      </trkpt>
      <trkpt lat="49.82948" lon="4.79142">
        <ele>242</ele>
        <time>2022-08-19T06:57:39.000Z</time>
      </trkpt>
      <trkpt lat="49.82947" lon="4.79139">
        <ele>243</ele>
        <time>2022-08-19T06:57:40.000Z</time>
      </trkpt>
      <trkpt lat="49.82946" lon="4.79137">
        <ele>243</ele>
        <time>2022-08-19T06:57:41.000Z</time>
      </trkpt>
      <trkpt lat="49.82945" lon="4.79134">
        <ele>243</ele>
        <time>2022-08-19T06:57:42.000Z</time>
      </trkpt>
      <trkpt lat="49.82943" lon="4.7913">
        <ele>244</ele>
        <time>2022-08-19T06:57:43.000Z</time>
      </trkpt>
      <trkpt lat="49.82942" lon="4.79127">
        <ele>244</ele>
        <time>2022-08-19T06:57:44.000Z</time>
      </trkpt>
      <trkpt lat="49.8294" lon="4.79124">
        <ele>245</ele>
        <time>2022-08-19T06:57:45.000Z</time>
      </trkpt>
      <trkpt lat="49.82939" lon="4.79121">
        <ele>245</ele>
        <time>2022-08-19T06:57:46.000Z</time>
      </trkpt>
      <trkpt lat="49.82937" lon="4.79116">
        <ele>245</ele>
        <time>2022-08-19T06:57:47.000Z</time>
      </trkpt>
      <trkpt lat="49.82936" lon="4.79112">
        <ele>245</ele>
        <time>2022-08-19T06:57:48.000Z</time>
      </trkpt>
      <trkpt lat="49.82933" lon="4.79108">
        <ele>246</ele>
        <time>2022-08-19T06:57:49.000Z</time>
      </trkpt>
      <trkpt lat="49.82931" lon="4.79104">
        <ele>246</ele>
        <time>2022-08-19T06:57:50.000Z</time>
      </trkpt>
      <trkpt lat="49.82929" lon="4.79099">
        <ele>246</ele>
        <time>2022-08-19T06:57:51.000Z</time>
      </trkpt>
      <trkpt lat="49.82927" lon="4.79096">
        <ele>246</ele>
        <time>2022-08-19T06:57:52.000Z</time>
      </trkpt>
      <trkpt lat="49.82925" lon="4.79092">
        <ele>246</ele>
        <time>2022-08-19T06:57:53.000Z</time>
      </trkpt>
      <trkpt lat="49.82922" lon="4.79089">
        <ele>246</ele>
        <time>2022-08-19T06:57:54.000Z</time>
      </trkpt>
      <trkpt lat="49.82919" lon="4.79085">
        <ele>246</ele>
        <time>2022-08-19T06:57:55.000Z</time>
      </trkpt>
      <trkpt lat="49.82917" lon="4.79081">
        <ele>247</ele>
        <time>2022-08-19T06:57:56.000Z</time>
      </trkpt>
      <trkpt lat="49.82914" lon="4.79078">
        <ele>247</ele>
        <time>2022-08-19T06:57:57.000Z</time>
      </trkpt>
      <trkpt lat="49.8291" lon="4.79074">
        <ele>247</ele>
        <time>2022-08-19T06:57:58.000Z</time>
      </trkpt>
      <trkpt lat="49.82906" lon="4.7907">
        <ele>247</ele>
        <time>2022-08-19T06:57:59.000Z</time>
      </trkpt>
      <trkpt lat="49.82903" lon="4.79067">
        <ele>247</ele>
        <time>2022-08-19T06:58:00.000Z</time>
      </trkpt>
      <trkpt lat="49.829" lon="4.79064">
        <ele>247</ele>
        <time>2022-08-19T06:58:01.000Z</time>
      </trkpt>
      <trkpt lat="49.82897" lon="4.79062">
        <ele>247</ele>
        <time>2022-08-19T06:58:02.000Z</time>
      </trkpt>
      <trkpt lat="49.82894" lon="4.79059">
        <ele>247</ele>
        <time>2022-08-19T06:58:03.000Z</time>
      </trkpt>
      <trkpt lat="49.82891" lon="4.79057">
        <ele>247</ele>
        <time>2022-08-19T06:58:04.000Z</time>
      </trkpt>
      <trkpt lat="49.82889" lon="4.79054">
        <ele>247</ele>
        <time>2022-08-19T06:58:05.000Z</time>
      </trkpt>
      <trkpt lat="49.82886" lon="4.79052">
        <ele>248</ele>
        <time>2022-08-19T06:58:06.000Z</time>
      </trkpt>
      <trkpt lat="49.82884" lon="4.79049">
        <ele>248</ele>
        <time>2022-08-19T06:58:07.000Z</time>
      </trkpt>
      <trkpt lat="49.82881" lon="4.79046">
        <ele>248</ele>
        <time>2022-08-19T06:58:08.000Z</time>
      </trkpt>
      <trkpt lat="49.82878" lon="4.79044">
        <ele>248</ele>
        <time>2022-08-19T06:58:09.000Z</time>
      </trkpt>
      <trkpt lat="49.82876" lon="4.79042">
        <ele>248</ele>
        <time>2022-08-19T06:58:10.000Z</time>
      </trkpt>
      <trkpt lat="49.82874" lon="4.7904">
        <ele>248</ele>
        <time>2022-08-19T06:58:11.000Z</time>
      </trkpt>
      <trkpt lat="49.82872" lon="4.79038">
        <ele>248</ele>
        <time>2022-08-19T06:58:12.000Z</time>
      </trkpt>
      <trkpt lat="49.8287" lon="4.79035">
        <ele>248</ele>
        <time>2022-08-19T06:58:13.000Z</time>
      </trkpt>
      <trkpt lat="49.82868" lon="4.79033">
        <ele>248</ele>
        <time>2022-08-19T06:58:14.000Z</time>
      </trkpt>
      <trkpt lat="49.82866" lon="4.7903">
        <ele>248</ele>
        <time>2022-08-19T06:58:15.000Z</time>
      </trkpt>
      <trkpt lat="49.82864" lon="4.79028">
        <ele>248</ele>
        <time>2022-08-19T06:58:16.000Z</time>
      </trkpt>
      <trkpt lat="49.82862" lon="4.79025">
        <ele>248</ele>
        <time>2022-08-19T06:58:17.000Z</time>
      </trkpt>
      <trkpt lat="49.82861" lon="4.79022">
        <ele>249</ele>
        <time>2022-08-19T06:58:18.000Z</time>
      </trkpt>
      <trkpt lat="49.82859" lon="4.7902">
        <ele>249</ele>
        <time>2022-08-19T06:58:19.000Z</time>
      </trkpt>
      <trkpt lat="49.82858" lon="4.79017">
        <ele>249</ele>
        <time>2022-08-19T06:58:20.000Z</time>
      </trkpt>
      <trkpt lat="49.82856" lon="4.79014">
        <ele>249</ele>
        <time>2022-08-19T06:58:21.000Z</time>
      </trkpt>
      <trkpt lat="49.82855" lon="4.79011">
        <ele>249</ele>
        <time>2022-08-19T06:58:22.000Z</time>
      </trkpt>
      <trkpt lat="49.82853" lon="4.79008">
        <ele>249</ele>
        <time>2022-08-19T06:58:23.000Z</time>
      </trkpt>
      <trkpt lat="49.82852" lon="4.79005">
        <ele>249</ele>
        <time>2022-08-19T06:58:24.000Z</time>
      </trkpt>
      <trkpt lat="49.82852" lon="4.79002">
        <ele>249</ele>
        <time>2022-08-19T06:58:25.000Z</time>
      </trkpt>
      <trkpt lat="49.82851" lon="4.78998">
        <ele>249</ele>
        <time>2022-08-19T06:58:26.000Z</time>
      </trkpt>
      <trkpt lat="49.82851" lon="4.78994">
        <ele>250</ele>
        <time>2022-08-19T06:58:27.000Z</time>
      </trkpt>
      <trkpt lat="49.82851" lon="4.7899">
        <ele>250</ele>
        <time>2022-08-19T06:58:28.000Z</time>
      </trkpt>
      <trkpt lat="49.82851" lon="4.78987">
        <ele>250</ele>
        <time>2022-08-19T06:58:29.000Z</time>
      </trkpt>
      <trkpt lat="49.82851" lon="4.78984">
        <ele>250</ele>
        <time>2022-08-19T06:58:30.000Z</time>
      </trkpt>
      <trkpt lat="49.82852" lon="4.78981">
        <ele>250</ele>
        <time>2022-08-19T06:58:31.000Z</time>
      </trkpt>
      <trkpt lat="49.82852" lon="4.78978">
        <ele>250</ele>
        <time>2022-08-19T06:58:32.000Z</time>
      </trkpt>
      <trkpt lat="49.82853" lon="4.78975">
        <ele>250</ele>
        <time>2022-08-19T06:58:33.000Z</time>
      </trkpt>
      <trkpt lat="49.82854" lon="4.78972">
        <ele>251</ele>
        <time>2022-08-19T06:58:34.000Z</time>
      </trkpt>
      <trkpt lat="49.82855" lon="4.78971">
        <ele>251</ele>
        <time>2022-08-19T06:58:35.000Z</time>
      </trkpt>
      <trkpt lat="49.82857" lon="4.78969">
        <ele>252</ele>
        <time>2022-08-19T06:58:36.000Z</time>
      </trkpt>
      <trkpt lat="49.82858" lon="4.78968">
        <ele>252</ele>
        <time>2022-08-19T06:58:37.000Z</time>
      </trkpt>
      <trkpt lat="49.8286" lon="4.78966">
        <ele>252</ele>
        <time>2022-08-19T06:58:38.000Z</time>
      </trkpt>
      <trkpt lat="49.82862" lon="4.78965">
        <ele>253</ele>
        <time>2022-08-19T06:58:39.000Z</time>
      </trkpt>
      <trkpt lat="49.82864" lon="4.78966">
        <ele>253</ele>
        <time>2022-08-19T06:58:40.000Z</time>
      </trkpt>
      <trkpt lat="49.82865" lon="4.78967">
        <ele>253</ele>
        <time>2022-08-19T06:58:41.000Z</time>
      </trkpt>
      <trkpt lat="49.82867" lon="4.78969">
        <ele>254</ele>
        <time>2022-08-19T06:58:42.000Z</time>
      </trkpt>
      <trkpt lat="49.82869" lon="4.7897">
        <ele>254</ele>
        <time>2022-08-19T06:58:43.000Z</time>
      </trkpt>
      <trkpt lat="49.82872" lon="4.78971">
        <ele>254</ele>
        <time>2022-08-19T06:58:44.000Z</time>
      </trkpt>
      <trkpt lat="49.82874" lon="4.78973">
        <ele>255</ele>
        <time>2022-08-19T06:58:45.000Z</time>
      </trkpt>
      <trkpt lat="49.82877" lon="4.78975">
        <ele>255</ele>
        <time>2022-08-19T06:58:46.000Z</time>
      </trkpt>
      <trkpt lat="49.82879" lon="4.78978">
        <ele>255</ele>
        <time>2022-08-19T06:58:47.000Z</time>
      </trkpt>
      <trkpt lat="49.82881" lon="4.7898">
        <ele>256</ele>
        <time>2022-08-19T06:58:48.000Z</time>
      </trkpt>
      <trkpt lat="49.82883" lon="4.78982">
        <ele>256</ele>
        <time>2022-08-19T06:58:49.000Z</time>
      </trkpt>
      <trkpt lat="49.82886" lon="4.78985">
        <ele>257</ele>
        <time>2022-08-19T06:58:50.000Z</time>
      </trkpt>
      <trkpt lat="49.82888" lon="4.78986">
        <ele>257</ele>
        <time>2022-08-19T06:58:51.000Z</time>
      </trkpt>
      <trkpt lat="49.8289" lon="4.78988">
        <ele>257</ele>
        <time>2022-08-19T06:58:52.000Z</time>
      </trkpt>
      <trkpt lat="49.82892" lon="4.7899">
        <ele>258</ele>
        <time>2022-08-19T06:58:53.000Z</time>
      </trkpt>
      <trkpt lat="49.82894" lon="4.78992">
        <ele>258</ele>
        <time>2022-08-19T06:58:54.000Z</time>
      </trkpt>
      <trkpt lat="49.82896" lon="4.78994">
        <ele>259</ele>
        <time>2022-08-19T06:58:55.000Z</time>
      </trkpt>
      <trkpt lat="49.82898" lon="4.78996">
        <ele>259</ele>
        <time>2022-08-19T06:58:56.000Z</time>
      </trkpt>
      <trkpt lat="49.829" lon="4.78998">
        <ele>259</ele>
        <time>2022-08-19T06:58:57.000Z</time>
      </trkpt>
      <trkpt lat="49.82902" lon="4.79">
        <ele>260</ele>
        <time>2022-08-19T06:58:58.000Z</time>
      </trkpt>
      <trkpt lat="49.82904" lon="4.79002">
        <ele>260</ele>
        <time>2022-08-19T06:58:59.000Z</time>
      </trkpt>
      <trkpt lat="49.82906" lon="4.79004">
        <ele>260</ele>
        <time>2022-08-19T06:59:00.000Z</time>
      </trkpt>
      <trkpt lat="49.82907" lon="4.79006">
        <ele>261</ele>
        <time>2022-08-19T06:59:01.000Z</time>
      </trkpt>
      <trkpt lat="49.82909" lon="4.79009">
        <ele>261</ele>
        <time>2022-08-19T06:59:02.000Z</time>
      </trkpt>
      <trkpt lat="49.82911" lon="4.79011">
        <ele>262</ele>
        <time>2022-08-19T06:59:03.000Z</time>
      </trkpt>
      <trkpt lat="49.82913" lon="4.79014">
        <ele>262</ele>
        <time>2022-08-19T06:59:04.000Z</time>
      </trkpt>
      <trkpt lat="49.82915" lon="4.79016">
        <ele>262</ele>
        <time>2022-08-19T06:59:05.000Z</time>
      </trkpt>
      <trkpt lat="49.82917" lon="4.79018">
        <ele>263</ele>
        <time>2022-08-19T06:59:06.000Z</time>
      </trkpt>
      <trkpt lat="49.82919" lon="4.79019">
        <ele>263</ele>
        <time>2022-08-19T06:59:07.000Z</time>
      </trkpt>
      <trkpt lat="49.82921" lon="4.79022">
        <ele>264</ele>
        <time>2022-08-19T06:59:08.000Z</time>
      </trkpt>
      <trkpt lat="49.82923" lon="4.79024">
        <ele>264</ele>
        <time>2022-08-19T06:59:09.000Z</time>
      </trkpt>
      <trkpt lat="49.82925" lon="4.79027">
        <ele>264</ele>
        <time>2022-08-19T06:59:10.000Z</time>
      </trkpt>
      <trkpt lat="49.82927" lon="4.79029">
        <ele>265</ele>
        <time>2022-08-19T06:59:11.000Z</time>
      </trkpt>
      <trkpt lat="49.8293" lon="4.79031">
        <ele>265</ele>
        <time>2022-08-19T06:59:12.000Z</time>
      </trkpt>
      <trkpt lat="49.82932" lon="4.79034">
        <ele>265</ele>
        <time>2022-08-19T06:59:13.000Z</time>
      </trkpt>
      <trkpt lat="49.82935" lon="4.79036">
        <ele>265</ele>
        <time>2022-08-19T06:59:14.000Z</time>
      </trkpt>
      <trkpt lat="49.82937" lon="4.79038">
        <ele>265</ele>
        <time>2022-08-19T06:59:15.000Z</time>
      </trkpt>
      <trkpt lat="49.82939" lon="4.79041">
        <ele>265</ele>
        <time>2022-08-19T06:59:16.000Z</time>
      </trkpt>
      <trkpt lat="49.82941" lon="4.79044">
        <ele>265</ele>
        <time>2022-08-19T06:59:17.000Z</time>
      </trkpt>
      <trkpt lat="49.82943" lon="4.79046">
        <ele>265</ele>
        <time>2022-08-19T06:59:18.000Z</time>
      </trkpt>
      <trkpt lat="49.82946" lon="4.79049">
        <ele>266</ele>
        <time>2022-08-19T06:59:19.000Z</time>
      </trkpt>
      <trkpt lat="49.82948" lon="4.79051">
        <ele>266</ele>
        <time>2022-08-19T06:59:20.000Z</time>
      </trkpt>
      <trkpt lat="49.82951" lon="4.79053">
        <ele>266</ele>
        <time>2022-08-19T06:59:21.000Z</time>
      </trkpt>
      <trkpt lat="49.82953" lon="4.79055">
        <ele>266</ele>
        <time>2022-08-19T06:59:22.000Z</time>
      </trkpt>
      <trkpt lat="49.82955" lon="4.79057">
        <ele>266</ele>
        <time>2022-08-19T06:59:23.000Z</time>
      </trkpt>
      <trkpt lat="49.82957" lon="4.79059">
        <ele>266</ele>
        <time>2022-08-19T06:59:24.000Z</time>
      </trkpt>
      <trkpt lat="49.8296" lon="4.79062">
        <ele>266</ele>
        <time>2022-08-19T06:59:25.000Z</time>
      </trkpt>
      <trkpt lat="49.82962" lon="4.79064">
        <ele>266</ele>
        <time>2022-08-19T06:59:26.000Z</time>
      </trkpt>
      <trkpt lat="49.82965" lon="4.79066">
        <ele>266</ele>
        <time>2022-08-19T06:59:27.000Z</time>
      </trkpt>
      <trkpt lat="49.82967" lon="4.79068">
        <ele>266</ele>
        <time>2022-08-19T06:59:28.000Z</time>
      </trkpt>
      <trkpt lat="49.82969" lon="4.79069">
        <ele>266</ele>
        <time>2022-08-19T06:59:29.000Z</time>
      </trkpt>
      <trkpt lat="49.82971" lon="4.79071">
        <ele>266</ele>
        <time>2022-08-19T06:59:30.000Z</time>
      </trkpt>
      <trkpt lat="49.82973" lon="4.79073">
        <ele>266</ele>
        <time>2022-08-19T06:59:31.000Z</time>
      </trkpt>
      <trkpt lat="49.82975" lon="4.79075">
        <ele>266</ele>
        <time>2022-08-19T06:59:32.000Z</time>
      </trkpt>
      <trkpt lat="49.82977" lon="4.79077">
        <ele>266</ele>
        <time>2022-08-19T06:59:33.000Z</time>
      </trkpt>
      <trkpt lat="49.82979" lon="4.79079">
        <ele>266</ele>
        <time>2022-08-19T06:59:34.000Z</time>
      </trkpt>
      <trkpt lat="49.82981" lon="4.79081">
        <ele>266</ele>
        <time>2022-08-19T06:59:35.000Z</time>
      </trkpt>
      <trkpt lat="49.82982" lon="4.79083">
        <ele>266</ele>
        <time>2022-08-19T06:59:36.000Z</time>
      </trkpt>
      <trkpt lat="49.82984" lon="4.79085">
        <ele>266</ele>
        <time>2022-08-19T06:59:37.000Z</time>
      </trkpt>
      <trkpt lat="49.82986" lon="4.79087">
        <ele>266</ele>
        <time>2022-08-19T06:59:38.000Z</time>
      </trkpt>
      <trkpt lat="49.82988" lon="4.79089">
        <ele>266</ele>
        <time>2022-08-19T06:59:39.000Z</time>
      </trkpt>
      <trkpt lat="49.8299" lon="4.79091">
        <ele>266</ele>
        <time>2022-08-19T06:59:40.000Z</time>
      </trkpt>
      <trkpt lat="49.82992" lon="4.79093">
        <ele>266</ele>
        <time>2022-08-19T06:59:41.000Z</time>
      </trkpt>
      <trkpt lat="49.82994" lon="4.79095">
        <ele>266</ele>
        <time>2022-08-19T06:59:42.000Z</time>
      </trkpt>
      <trkpt lat="49.82996" lon="4.79096">
        <ele>267</ele>
        <time>2022-08-19T06:59:43.000Z</time>
      </trkpt>
      <trkpt lat="49.82998" lon="4.79098">
        <ele>267</ele>
        <time>2022-08-19T06:59:44.000Z</time>
      </trkpt>
      <trkpt lat="49.83" lon="4.79098">
        <ele>267</ele>
        <time>2022-08-19T06:59:45.000Z</time>
      </trkpt>
      <trkpt lat="49.83002" lon="4.79099">
        <ele>267</ele>
        <time>2022-08-19T06:59:46.000Z</time>
      </trkpt>
      <trkpt lat="49.83004" lon="4.791">
        <ele>268</ele>
        <time>2022-08-19T06:59:47.000Z</time>
      </trkpt>
      <trkpt lat="49.83006" lon="4.791">
        <ele>268</ele>
        <time>2022-08-19T06:59:48.000Z</time>
      </trkpt>
      <trkpt lat="49.83007" lon="4.79102">
        <ele>268</ele>
        <time>2022-08-19T06:59:49.000Z</time>
      </trkpt>
      <trkpt lat="49.83009" lon="4.79103">
        <ele>268</ele>
        <time>2022-08-19T06:59:50.000Z</time>
      </trkpt>
      <trkpt lat="49.8301" lon="4.79104">
        <ele>269</ele>
        <time>2022-08-19T06:59:51.000Z</time>
      </trkpt>
      <trkpt lat="49.83012" lon="4.79104">
        <ele>269</ele>
        <time>2022-08-19T06:59:52.000Z</time>
      </trkpt>
      <trkpt lat="49.83014" lon="4.79105">
        <ele>269</ele>
        <time>2022-08-19T06:59:53.000Z</time>
      </trkpt>
      <trkpt lat="49.83016" lon="4.79105">
        <ele>269</ele>
        <time>2022-08-19T06:59:54.000Z</time>
      </trkpt>
      <trkpt lat="49.83018" lon="4.79106">
        <ele>269</ele>
        <time>2022-08-19T06:59:55.000Z</time>
      </trkpt>
      <trkpt lat="49.8302" lon="4.79107">
        <ele>269</ele>
        <time>2022-08-19T06:59:56.000Z</time>
      </trkpt>
      <trkpt lat="49.83023" lon="4.79108">
        <ele>269</ele>
        <time>2022-08-19T06:59:57.000Z</time>
      </trkpt>
      <trkpt lat="49.83025" lon="4.79109">
        <ele>269</ele>
        <time>2022-08-19T06:59:58.000Z</time>
      </trkpt>
      <trkpt lat="49.83028" lon="4.79109">
        <ele>270</ele>
        <time>2022-08-19T06:59:59.000Z</time>
      </trkpt>
      <trkpt lat="49.8303" lon="4.79111">
        <ele>270</ele>
        <time>2022-08-19T07:00:00.000Z</time>
      </trkpt>
      <trkpt lat="49.83033" lon="4.79114">
        <ele>270</ele>
        <time>2022-08-19T07:00:01.000Z</time>
      </trkpt>
      <trkpt lat="49.83035" lon="4.79116">
        <ele>270</ele>
        <time>2022-08-19T07:00:02.000Z</time>
      </trkpt>
      <trkpt lat="49.83038" lon="4.79118">
        <ele>270</ele>
        <time>2022-08-19T07:00:03.000Z</time>
      </trkpt>
      <trkpt lat="49.83041" lon="4.79121">
        <ele>270</ele>
        <time>2022-08-19T07:00:04.000Z</time>
      </trkpt>
      <trkpt lat="49.83043" lon="4.79125">
        <ele>270</ele>
        <time>2022-08-19T07:00:05.000Z</time>
      </trkpt>
      <trkpt lat="49.83045" lon="4.79128">
        <ele>271</ele>
        <time>2022-08-19T07:00:06.000Z</time>
      </trkpt>
      <trkpt lat="49.83047" lon="4.79132">
        <ele>271</ele>
        <time>2022-08-19T07:00:07.000Z</time>
      </trkpt>
      <trkpt lat="49.83049" lon="4.79136">
        <ele>271</ele>
        <time>2022-08-19T07:00:08.000Z</time>
      </trkpt>
      <trkpt lat="49.83051" lon="4.7914">
        <ele>271</ele>
        <time>2022-08-19T07:00:09.000Z</time>
      </trkpt>
      <trkpt lat="49.83053" lon="4.79144">
        <ele>271</ele>
        <time>2022-08-19T07:00:10.000Z</time>
      </trkpt>
      <trkpt lat="49.83055" lon="4.79148">
        <ele>271</ele>
        <time>2022-08-19T07:00:11.000Z</time>
      </trkpt>
      <trkpt lat="49.83057" lon="4.79152">
        <ele>271</ele>
        <time>2022-08-19T07:00:12.000Z</time>
      </trkpt>
      <trkpt lat="49.83058" lon="4.79156">
        <ele>271</ele>
        <time>2022-08-19T07:00:13.000Z</time>
      </trkpt>
      <trkpt lat="49.83059" lon="4.7916">
        <ele>272</ele>
        <time>2022-08-19T07:00:14.000Z</time>
      </trkpt>
      <trkpt lat="49.8306" lon="4.79165">
        <ele>272</ele>
        <time>2022-08-19T07:00:15.000Z</time>
      </trkpt>
      <trkpt lat="49.83061" lon="4.79168">
        <ele>272</ele>
        <time>2022-08-19T07:00:16.000Z</time>
      </trkpt>
      <trkpt lat="49.83062" lon="4.79172">
        <ele>272</ele>
        <time>2022-08-19T07:00:17.000Z</time>
      </trkpt>
      <trkpt lat="49.83063" lon="4.79175">
        <ele>273</ele>
        <time>2022-08-19T07:00:18.000Z</time>
      </trkpt>
      <trkpt lat="49.83064" lon="4.79177">
        <ele>273</ele>
        <time>2022-08-19T07:00:19.000Z</time>
      </trkpt>
      <trkpt lat="49.83065" lon="4.7918">
        <ele>273</ele>
        <time>2022-08-19T07:00:20.000Z</time>
      </trkpt>
      <trkpt lat="49.83066" lon="4.79183">
        <ele>273</ele>
        <time>2022-08-19T07:00:21.000Z</time>
      </trkpt>
      <trkpt lat="49.83066" lon="4.79186">
        <ele>274</ele>
        <time>2022-08-19T07:00:22.000Z</time>
      </trkpt>
      <trkpt lat="49.83067" lon="4.79189">
        <ele>274</ele>
        <time>2022-08-19T07:00:23.000Z</time>
      </trkpt>
      <trkpt lat="49.83067" lon="4.79192">
        <ele>274</ele>
        <time>2022-08-19T07:00:24.000Z</time>
      </trkpt>
      <trkpt lat="49.83068" lon="4.79195">
        <ele>275</ele>
        <time>2022-08-19T07:00:25.000Z</time>
      </trkpt>
      <trkpt lat="49.83069" lon="4.79198">
        <ele>275</ele>
        <time>2022-08-19T07:00:26.000Z</time>
      </trkpt>
      <trkpt lat="49.8307" lon="4.79201">
        <ele>276</ele>
        <time>2022-08-19T07:00:27.000Z</time>
      </trkpt>
      <trkpt lat="49.83072" lon="4.79204">
        <ele>276</ele>
        <time>2022-08-19T07:00:28.000Z</time>
      </trkpt>
      <trkpt lat="49.83073" lon="4.79206">
        <ele>276</ele>
        <time>2022-08-19T07:00:29.000Z</time>
      </trkpt>
      <trkpt lat="49.83075" lon="4.79209">
        <ele>277</ele>
        <time>2022-08-19T07:00:30.000Z</time>
      </trkpt>
      <trkpt lat="49.83077" lon="4.79211">
        <ele>277</ele>
        <time>2022-08-19T07:00:31.000Z</time>
      </trkpt>
      <trkpt lat="49.83079" lon="4.79213">
        <ele>277</ele>
        <time>2022-08-19T07:00:32.000Z</time>
      </trkpt>
      <trkpt lat="49.83081" lon="4.79215">
        <ele>278</ele>
        <time>2022-08-19T07:00:33.000Z</time>
      </trkpt>
      <trkpt lat="49.83082" lon="4.79216">
        <ele>278</ele>
        <time>2022-08-19T07:00:34.000Z</time>
      </trkpt>
      <trkpt lat="49.83085" lon="4.79216">
        <ele>279</ele>
        <time>2022-08-19T07:00:35.000Z</time>
      </trkpt>
      <trkpt lat="49.83088" lon="4.79217">
        <ele>279</ele>
        <time>2022-08-19T07:00:36.000Z</time>
      </trkpt>
      <trkpt lat="49.83091" lon="4.79216">
        <ele>279</ele>
        <time>2022-08-19T07:00:37.000Z</time>
      </trkpt>
      <trkpt lat="49.83093" lon="4.79216">
        <ele>280</ele>
        <time>2022-08-19T07:00:38.000Z</time>
      </trkpt>
      <trkpt lat="49.83096" lon="4.79215">
        <ele>280</ele>
        <time>2022-08-19T07:00:39.000Z</time>
      </trkpt>
      <trkpt lat="49.83099" lon="4.79215">
        <ele>280</ele>
        <time>2022-08-19T07:00:40.000Z</time>
      </trkpt>
      <trkpt lat="49.83103" lon="4.79215">
        <ele>280</ele>
        <time>2022-08-19T07:00:41.000Z</time>
      </trkpt>
      <trkpt lat="49.83106" lon="4.79215">
        <ele>280</ele>
        <time>2022-08-19T07:00:42.000Z</time>
      </trkpt>
      <trkpt lat="49.8311" lon="4.79215">
        <ele>280</ele>
        <time>2022-08-19T07:00:43.000Z</time>
      </trkpt>
      <trkpt lat="49.83113" lon="4.79215">
        <ele>281</ele>
        <time>2022-08-19T07:00:44.000Z</time>
      </trkpt>
      <trkpt lat="49.83116" lon="4.79215">
        <ele>281</ele>
        <time>2022-08-19T07:00:45.000Z</time>
      </trkpt>
      <trkpt lat="49.83119" lon="4.79216">
        <ele>281</ele>
        <time>2022-08-19T07:00:46.000Z</time>
      </trkpt>
      <trkpt lat="49.83122" lon="4.79217">
        <ele>281</ele>
        <time>2022-08-19T07:00:47.000Z</time>
      </trkpt>
      <trkpt lat="49.83124" lon="4.79218">
        <ele>281</ele>
        <time>2022-08-19T07:00:48.000Z</time>
      </trkpt>
      <trkpt lat="49.83127" lon="4.79219">
        <ele>282</ele>
        <time>2022-08-19T07:00:49.000Z</time>
      </trkpt>
      <trkpt lat="49.83129" lon="4.7922">
        <ele>282</ele>
        <time>2022-08-19T07:00:50.000Z</time>
      </trkpt>
      <trkpt lat="49.83131" lon="4.7922">
        <ele>282</ele>
        <time>2022-08-19T07:00:51.000Z</time>
      </trkpt>
      <trkpt lat="49.83134" lon="4.79221">
        <ele>282</ele>
        <time>2022-08-19T07:00:52.000Z</time>
      </trkpt>
      <trkpt lat="49.83136" lon="4.79221">
        <ele>282</ele>
        <time>2022-08-19T07:00:53.000Z</time>
      </trkpt>
      <trkpt lat="49.83138" lon="4.79221">
        <ele>282</ele>
        <time>2022-08-19T07:00:54.000Z</time>
      </trkpt>
      <trkpt lat="49.8314" lon="4.79221">
        <ele>282</ele>
        <time>2022-08-19T07:00:55.000Z</time>
      </trkpt>
      <trkpt lat="49.83143" lon="4.79222">
        <ele>282</ele>
        <time>2022-08-19T07:00:56.000Z</time>
      </trkpt>
      <trkpt lat="49.83145" lon="4.79222">
        <ele>282</ele>
        <time>2022-08-19T07:00:57.000Z</time>
      </trkpt>
      <trkpt lat="49.83147" lon="4.79223">
        <ele>282</ele>
        <time>2022-08-19T07:00:58.000Z</time>
      </trkpt>
      <trkpt lat="49.83149" lon="4.79224">
        <ele>282</ele>
        <time>2022-08-19T07:00:59.000Z</time>
      </trkpt>
      <trkpt lat="49.83151" lon="4.79224">
        <ele>282</ele>
        <time>2022-08-19T07:01:00.000Z</time>
      </trkpt>
      <trkpt lat="49.83154" lon="4.79223">
        <ele>282</ele>
        <time>2022-08-19T07:01:01.000Z</time>
      </trkpt>
      <trkpt lat="49.83156" lon="4.79222">
        <ele>282</ele>
        <time>2022-08-19T07:01:02.000Z</time>
      </trkpt>
      <trkpt lat="49.83159" lon="4.79222">
        <ele>282</ele>
        <time>2022-08-19T07:01:03.000Z</time>
      </trkpt>
      <trkpt lat="49.83161" lon="4.79222">
        <ele>282</ele>
        <time>2022-08-19T07:01:04.000Z</time>
      </trkpt>
      <trkpt lat="49.83164" lon="4.79222">
        <ele>283</ele>
        <time>2022-08-19T07:01:05.000Z</time>
      </trkpt>
      <trkpt lat="49.83166" lon="4.7922">
        <ele>283</ele>
        <time>2022-08-19T07:01:06.000Z</time>
      </trkpt>
      <trkpt lat="49.83169" lon="4.79219">
        <ele>283</ele>
        <time>2022-08-19T07:01:07.000Z</time>
      </trkpt>
      <trkpt lat="49.83172" lon="4.79219">
        <ele>283</ele>
        <time>2022-08-19T07:01:08.000Z</time>
      </trkpt>
      <trkpt lat="49.83174" lon="4.79218">
        <ele>283</ele>
        <time>2022-08-19T07:01:09.000Z</time>
      </trkpt>
      <trkpt lat="49.83176" lon="4.79217">
        <ele>284</ele>
        <time>2022-08-19T07:01:10.000Z</time>
      </trkpt>
      <trkpt lat="49.83179" lon="4.79216">
        <ele>284</ele>
        <time>2022-08-19T07:01:11.000Z</time>
      </trkpt>
      <trkpt lat="49.83181" lon="4.79214">
        <ele>284</ele>
        <time>2022-08-19T07:01:12.000Z</time>
      </trkpt>
      <trkpt lat="49.83183" lon="4.79213">
        <ele>284</ele>
        <time>2022-08-19T07:01:13.000Z</time>
      </trkpt>
      <trkpt lat="49.83185" lon="4.79211">
        <ele>284</ele>
        <time>2022-08-19T07:01:14.000Z</time>
      </trkpt>
      <trkpt lat="49.83187" lon="4.79209">
        <ele>285</ele>
        <time>2022-08-19T07:01:15.000Z</time>
      </trkpt>
      <trkpt lat="49.83189" lon="4.79206">
        <ele>285</ele>
        <time>2022-08-19T07:01:16.000Z</time>
      </trkpt>
      <trkpt lat="49.83191" lon="4.79202">
        <ele>285</ele>
        <time>2022-08-19T07:01:17.000Z</time>
      </trkpt>
      <trkpt lat="49.83193" lon="4.79199">
        <ele>285</ele>
        <time>2022-08-19T07:01:18.000Z</time>
      </trkpt>
      <trkpt lat="49.83194" lon="4.79195">
        <ele>286</ele>
        <time>2022-08-19T07:01:19.000Z</time>
      </trkpt>
      <trkpt lat="49.83196" lon="4.79192">
        <ele>286</ele>
        <time>2022-08-19T07:01:20.000Z</time>
      </trkpt>
      <trkpt lat="49.83197" lon="4.79188">
        <ele>286</ele>
        <time>2022-08-19T07:01:21.000Z</time>
      </trkpt>
      <trkpt lat="49.83198" lon="4.79185">
        <ele>286</ele>
        <time>2022-08-19T07:01:22.000Z</time>
      </trkpt>
      <trkpt lat="49.83199" lon="4.79182">
        <ele>286</ele>
        <time>2022-08-19T07:01:23.000Z</time>
      </trkpt>
      <trkpt lat="49.832" lon="4.79179">
        <ele>286</ele>
        <time>2022-08-19T07:01:24.000Z</time>
      </trkpt>
      <trkpt lat="49.83201" lon="4.79175">
        <ele>286</ele>
        <time>2022-08-19T07:01:25.000Z</time>
      </trkpt>
      <trkpt lat="49.83202" lon="4.79172">
        <ele>287</ele>
        <time>2022-08-19T07:01:26.000Z</time>
      </trkpt>
      <trkpt lat="49.83203" lon="4.79168">
        <ele>287</ele>
        <time>2022-08-19T07:01:27.000Z</time>
      </trkpt>
      <trkpt lat="49.83204" lon="4.79165">
        <ele>287</ele>
        <time>2022-08-19T07:01:28.000Z</time>
      </trkpt>
      <trkpt lat="49.83205" lon="4.79162">
        <ele>287</ele>
        <time>2022-08-19T07:01:29.000Z</time>
      </trkpt>
      <trkpt lat="49.83206" lon="4.79159">
        <ele>287</ele>
        <time>2022-08-19T07:01:30.000Z</time>
      </trkpt>
      <trkpt lat="49.83207" lon="4.79155">
        <ele>287</ele>
        <time>2022-08-19T07:01:31.000Z</time>
      </trkpt>
      <trkpt lat="49.83207" lon="4.79151">
        <ele>287</ele>
        <time>2022-08-19T07:01:32.000Z</time>
      </trkpt>
      <trkpt lat="49.83209" lon="4.79148">
        <ele>288</ele>
        <time>2022-08-19T07:01:33.000Z</time>
      </trkpt>
      <trkpt lat="49.8321" lon="4.79145">
        <ele>288</ele>
        <time>2022-08-19T07:01:34.000Z</time>
      </trkpt>
      <trkpt lat="49.83211" lon="4.79141">
        <ele>288</ele>
        <time>2022-08-19T07:01:35.000Z</time>
      </trkpt>
      <trkpt lat="49.83212" lon="4.79137">
        <ele>288</ele>
        <time>2022-08-19T07:01:36.000Z</time>
      </trkpt>
      <trkpt lat="49.83212" lon="4.79134">
        <ele>289</ele>
        <time>2022-08-19T07:01:37.000Z</time>
      </trkpt>
      <trkpt lat="49.83213" lon="4.79131">
        <ele>289</ele>
        <time>2022-08-19T07:01:38.000Z</time>
      </trkpt>
      <trkpt lat="49.83214" lon="4.79127">
        <ele>289</ele>
        <time>2022-08-19T07:01:39.000Z</time>
      </trkpt>
      <trkpt lat="49.83215" lon="4.79124">
        <ele>289</ele>
        <time>2022-08-19T07:01:40.000Z</time>
      </trkpt>
      <trkpt lat="49.83217" lon="4.79121">
        <ele>290</ele>
        <time>2022-08-19T07:01:41.000Z</time>
      </trkpt>
      <trkpt lat="49.83219" lon="4.79119">
        <ele>290</ele>
        <time>2022-08-19T07:01:42.000Z</time>
      </trkpt>
      <trkpt lat="49.83221" lon="4.79116">
        <ele>290</ele>
        <time>2022-08-19T07:01:43.000Z</time>
      </trkpt>
      <trkpt lat="49.83223" lon="4.79113">
        <ele>291</ele>
        <time>2022-08-19T07:01:44.000Z</time>
      </trkpt>
      <trkpt lat="49.83226" lon="4.7911">
        <ele>291</ele>
        <time>2022-08-19T07:01:45.000Z</time>
      </trkpt>
      <trkpt lat="49.83228" lon="4.79107">
        <ele>291</ele>
        <time>2022-08-19T07:01:46.000Z</time>
      </trkpt>
      <trkpt lat="49.8323" lon="4.79105">
        <ele>292</ele>
        <time>2022-08-19T07:01:47.000Z</time>
      </trkpt>
      <trkpt lat="49.83233" lon="4.79103">
        <ele>292</ele>
        <time>2022-08-19T07:01:48.000Z</time>
      </trkpt>
      <trkpt lat="49.83235" lon="4.79101">
        <ele>292</ele>
        <time>2022-08-19T07:01:49.000Z</time>
      </trkpt>
      <trkpt lat="49.83237" lon="4.79098">
        <ele>293</ele>
        <time>2022-08-19T07:01:50.000Z</time>
      </trkpt>
      <trkpt lat="49.8324" lon="4.79095">
        <ele>293</ele>
        <time>2022-08-19T07:01:51.000Z</time>
      </trkpt>
      <trkpt lat="49.83243" lon="4.79093">
        <ele>293</ele>
        <time>2022-08-19T07:01:52.000Z</time>
      </trkpt>
      <trkpt lat="49.83245" lon="4.79091">
        <ele>294</ele>
        <time>2022-08-19T07:01:53.000Z</time>
      </trkpt>
      <trkpt lat="49.83248" lon="4.79089">
        <ele>294</ele>
        <time>2022-08-19T07:01:54.000Z</time>
      </trkpt>
      <trkpt lat="49.83251" lon="4.79088">
        <ele>294</ele>
        <time>2022-08-19T07:01:55.000Z</time>
      </trkpt>
      <trkpt lat="49.83254" lon="4.79087">
        <ele>295</ele>
        <time>2022-08-19T07:01:56.000Z</time>
      </trkpt>
      <trkpt lat="49.83258" lon="4.79087">
        <ele>295</ele>
        <time>2022-08-19T07:01:57.000Z</time>
      </trkpt>
      <trkpt lat="49.83261" lon="4.79087">
        <ele>295</ele>
        <time>2022-08-19T07:01:58.000Z</time>
      </trkpt>
      <trkpt lat="49.83264" lon="4.79088">
        <ele>296</ele>
        <time>2022-08-19T07:01:59.000Z</time>
      </trkpt>
      <trkpt lat="49.83268" lon="4.79088">
        <ele>296</ele>
        <time>2022-08-19T07:02:00.000Z</time>
      </trkpt>
      <trkpt lat="49.83271" lon="4.79089">
        <ele>296</ele>
        <time>2022-08-19T07:02:01.000Z</time>
      </trkpt>
      <trkpt lat="49.83275" lon="4.7909">
        <ele>296</ele>
        <time>2022-08-19T07:02:02.000Z</time>
      </trkpt>
      <trkpt lat="49.83279" lon="4.7909">
        <ele>296</ele>
        <time>2022-08-19T07:02:03.000Z</time>
      </trkpt>
      <trkpt lat="49.83284" lon="4.7909">
        <ele>297</ele>
        <time>2022-08-19T07:02:04.000Z</time>
      </trkpt>
      <trkpt lat="49.83288" lon="4.79088">
        <ele>297</ele>
        <time>2022-08-19T07:02:05.000Z</time>
      </trkpt>
      <trkpt lat="49.83293" lon="4.79087">
        <ele>297</ele>
        <time>2022-08-19T07:02:06.000Z</time>
      </trkpt>
      <trkpt lat="49.83298" lon="4.79085">
        <ele>297</ele>
        <time>2022-08-19T07:02:07.000Z</time>
      </trkpt>
      <trkpt lat="49.83303" lon="4.79083">
        <ele>297</ele>
        <time>2022-08-19T07:02:08.000Z</time>
      </trkpt>
      <trkpt lat="49.83308" lon="4.79081">
        <ele>297</ele>
        <time>2022-08-19T07:02:09.000Z</time>
      </trkpt>
      <trkpt lat="49.83314" lon="4.79077">
        <ele>297</ele>
        <time>2022-08-19T07:02:10.000Z</time>
      </trkpt>
      <trkpt lat="49.8332" lon="4.79072">
        <ele>296</ele>
        <time>2022-08-19T07:02:11.000Z</time>
      </trkpt>
      <trkpt lat="49.83325" lon="4.79065">
        <ele>296</ele>
        <time>2022-08-19T07:02:12.000Z</time>
      </trkpt>
      <trkpt lat="49.8333" lon="4.79059">
        <ele>296</ele>
        <time>2022-08-19T07:02:13.000Z</time>
      </trkpt>
      <trkpt lat="49.83336" lon="4.79052">
        <ele>295</ele>
        <time>2022-08-19T07:02:14.000Z</time>
      </trkpt>
      <trkpt lat="49.83341" lon="4.79045">
        <ele>295</ele>
        <time>2022-08-19T07:02:15.000Z</time>
      </trkpt>
      <trkpt lat="49.83345" lon="4.79037">
        <ele>295</ele>
        <time>2022-08-19T07:02:16.000Z</time>
      </trkpt>
      <trkpt lat="49.83348" lon="4.79027">
        <ele>294</ele>
        <time>2022-08-19T07:02:17.000Z</time>
      </trkpt>
      <trkpt lat="49.8335" lon="4.79018">
        <ele>294</ele>
        <time>2022-08-19T07:02:18.000Z</time>
      </trkpt>
      <trkpt lat="49.83353" lon="4.7901">
        <ele>293</ele>
        <time>2022-08-19T07:02:19.000Z</time>
      </trkpt>
      <trkpt lat="49.83356" lon="4.79001">
        <ele>293</ele>
        <time>2022-08-19T07:02:20.000Z</time>
      </trkpt>
      <trkpt lat="49.83358" lon="4.78992">
        <ele>292</ele>
        <time>2022-08-19T07:02:21.000Z</time>
      </trkpt>
      <trkpt lat="49.83361" lon="4.78982">
        <ele>292</ele>
        <time>2022-08-19T07:02:22.000Z</time>
      </trkpt>
      <trkpt lat="49.83364" lon="4.78973">
        <ele>292</ele>
        <time>2022-08-19T07:02:23.000Z</time>
      </trkpt>
      <trkpt lat="49.83367" lon="4.78964">
        <ele>292</ele>
        <time>2022-08-19T07:02:24.000Z</time>
      </trkpt>
      <trkpt lat="49.83369" lon="4.78956">
        <ele>292</ele>
        <time>2022-08-19T07:02:25.000Z</time>
      </trkpt>
      <trkpt lat="49.83372" lon="4.78949">
        <ele>292</ele>
        <time>2022-08-19T07:02:26.000Z</time>
      </trkpt>
      <trkpt lat="49.83376" lon="4.78941">
        <ele>292</ele>
        <time>2022-08-19T07:02:27.000Z</time>
      </trkpt>
      <trkpt lat="49.8338" lon="4.78934">
        <ele>292</ele>
        <time>2022-08-19T07:02:28.000Z</time>
      </trkpt>
      <trkpt lat="49.83385" lon="4.78927">
        <ele>292</ele>
        <time>2022-08-19T07:02:29.000Z</time>
      </trkpt>
      <trkpt lat="49.83389" lon="4.78922">
        <ele>292</ele>
        <time>2022-08-19T07:02:30.000Z</time>
      </trkpt>
      <trkpt lat="49.83393" lon="4.78917">
        <ele>292</ele>
        <time>2022-08-19T07:02:31.000Z</time>
      </trkpt>
      <trkpt lat="49.83397" lon="4.78912">
        <ele>292</ele>
        <time>2022-08-19T07:02:32.000Z</time>
      </trkpt>
      <trkpt lat="49.834" lon="4.78909">
        <ele>293</ele>
        <time>2022-08-19T07:02:33.000Z</time>
      </trkpt>
      <trkpt lat="49.83403" lon="4.78906">
        <ele>293</ele>
        <time>2022-08-19T07:02:34.000Z</time>
      </trkpt>
      <trkpt lat="49.83406" lon="4.78904">
        <ele>293</ele>
        <time>2022-08-19T07:02:35.000Z</time>
      </trkpt>
      <trkpt lat="49.83408" lon="4.78901">
        <ele>293</ele>
        <time>2022-08-19T07:02:36.000Z</time>
      </trkpt>
      <trkpt lat="49.83411" lon="4.78899">
        <ele>293</ele>
        <time>2022-08-19T07:02:37.000Z</time>
      </trkpt>
      <trkpt lat="49.83414" lon="4.78898">
        <ele>294</ele>
        <time>2022-08-19T07:02:38.000Z</time>
      </trkpt>
      <trkpt lat="49.83416" lon="4.78897">
        <ele>294</ele>
        <time>2022-08-19T07:02:39.000Z</time>
      </trkpt>
      <trkpt lat="49.8342" lon="4.78895">
        <ele>294</ele>
        <time>2022-08-19T07:02:40.000Z</time>
      </trkpt>
      <trkpt lat="49.83423" lon="4.78893">
        <ele>294</ele>
        <time>2022-08-19T07:02:41.000Z</time>
      </trkpt>
      <trkpt lat="49.83427" lon="4.78892">
        <ele>294</ele>
        <time>2022-08-19T07:02:42.000Z</time>
      </trkpt>
      <trkpt lat="49.83431" lon="4.78892">
        <ele>294</ele>
        <time>2022-08-19T07:02:43.000Z</time>
      </trkpt>
      <trkpt lat="49.83435" lon="4.78893">
        <ele>294</ele>
        <time>2022-08-19T07:02:44.000Z</time>
      </trkpt>
      <trkpt lat="49.83439" lon="4.78892">
        <ele>295</ele>
        <time>2022-08-19T07:02:45.000Z</time>
      </trkpt>
      <trkpt lat="49.83443" lon="4.7889">
        <ele>295</ele>
        <time>2022-08-19T07:02:46.000Z</time>
      </trkpt>
      <trkpt lat="49.83446" lon="4.78888">
        <ele>295</ele>
        <time>2022-08-19T07:02:47.000Z</time>
      </trkpt>
      <trkpt lat="49.8345" lon="4.78887">
        <ele>295</ele>
        <time>2022-08-19T07:02:48.000Z</time>
      </trkpt>
      <trkpt lat="49.83452" lon="4.78884">
        <ele>295</ele>
        <time>2022-08-19T07:02:49.000Z</time>
      </trkpt>
      <trkpt lat="49.83455" lon="4.78882">
        <ele>295</ele>
        <time>2022-08-19T07:02:50.000Z</time>
      </trkpt>
      <trkpt lat="49.83458" lon="4.78879">
        <ele>295</ele>
        <time>2022-08-19T07:02:51.000Z</time>
      </trkpt>
      <trkpt lat="49.83461" lon="4.78876">
        <ele>295</ele>
        <time>2022-08-19T07:02:52.000Z</time>
      </trkpt>
      <trkpt lat="49.83464" lon="4.78872">
        <ele>295</ele>
        <time>2022-08-19T07:02:53.000Z</time>
      </trkpt>
      <trkpt lat="49.83467" lon="4.78868">
        <ele>295</ele>
        <time>2022-08-19T07:02:54.000Z</time>
      </trkpt>
      <trkpt lat="49.8347" lon="4.78863">
        <ele>295</ele>
        <time>2022-08-19T07:02:55.000Z</time>
      </trkpt>
      <trkpt lat="49.83472" lon="4.78859">
        <ele>296</ele>
        <time>2022-08-19T07:02:56.000Z</time>
      </trkpt>
      <trkpt lat="49.83473" lon="4.78853">
        <ele>296</ele>
        <time>2022-08-19T07:02:57.000Z</time>
      </trkpt>
      <trkpt lat="49.83474" lon="4.78847">
        <ele>296</ele>
        <time>2022-08-19T07:02:58.000Z</time>
      </trkpt>
      <trkpt lat="49.83473" lon="4.78842">
        <ele>296</ele>
        <time>2022-08-19T07:02:59.000Z</time>
      </trkpt>
      <trkpt lat="49.83472" lon="4.78836">
        <ele>296</ele>
        <time>2022-08-19T07:03:00.000Z</time>
      </trkpt>
      <trkpt lat="49.83472" lon="4.7883">
        <ele>296</ele>
        <time>2022-08-19T07:03:01.000Z</time>
      </trkpt>
      <trkpt lat="49.83473" lon="4.78824">
        <ele>296</ele>
        <time>2022-08-19T07:03:02.000Z</time>
      </trkpt>
      <trkpt lat="49.83475" lon="4.7882">
        <ele>296</ele>
        <time>2022-08-19T07:03:03.000Z</time>
      </trkpt>
      <trkpt lat="49.83477" lon="4.78817">
        <ele>296</ele>
        <time>2022-08-19T07:03:04.000Z</time>
      </trkpt>
      <trkpt lat="49.83479" lon="4.78815">
        <ele>296</ele>
        <time>2022-08-19T07:03:05.000Z</time>
      </trkpt>
      <trkpt lat="49.83482" lon="4.78813">
        <ele>296</ele>
        <time>2022-08-19T07:03:06.000Z</time>
      </trkpt>
      <trkpt lat="49.83485" lon="4.78811">
        <ele>296</ele>
        <time>2022-08-19T07:03:07.000Z</time>
      </trkpt>
      <trkpt lat="49.83488" lon="4.78808">
        <ele>297</ele>
        <time>2022-08-19T07:03:08.000Z</time>
      </trkpt>
      <trkpt lat="49.83492" lon="4.78806">
        <ele>297</ele>
        <time>2022-08-19T07:03:09.000Z</time>
      </trkpt>
      <trkpt lat="49.83495" lon="4.78803">
        <ele>297</ele>
        <time>2022-08-19T07:03:10.000Z</time>
      </trkpt>
      <trkpt lat="49.83498" lon="4.78801">
        <ele>297</ele>
        <time>2022-08-19T07:03:11.000Z</time>
      </trkpt>
      <trkpt lat="49.83502" lon="4.78798">
        <ele>297</ele>
        <time>2022-08-19T07:03:12.000Z</time>
      </trkpt>
      <trkpt lat="49.83505" lon="4.78796">
        <ele>297</ele>
        <time>2022-08-19T07:03:13.000Z</time>
      </trkpt>
      <trkpt lat="49.83508" lon="4.78794">
        <ele>297</ele>
        <time>2022-08-19T07:03:14.000Z</time>
      </trkpt>
      <trkpt lat="49.8351" lon="4.7879">
        <ele>297</ele>
        <time>2022-08-19T07:03:15.000Z</time>
      </trkpt>
      <trkpt lat="49.83512" lon="4.78786">
        <ele>297</ele>
        <time>2022-08-19T07:03:16.000Z</time>
      </trkpt>
      <trkpt lat="49.83513" lon="4.78782">
        <ele>297</ele>
        <time>2022-08-19T07:03:17.000Z</time>
      </trkpt>
      <trkpt lat="49.83515" lon="4.78778">
        <ele>297</ele>
        <time>2022-08-19T07:03:18.000Z</time>
      </trkpt>
      <trkpt lat="49.83517" lon="4.78775">
        <ele>297</ele>
        <time>2022-08-19T07:03:19.000Z</time>
      </trkpt>
      <trkpt lat="49.8352" lon="4.78773">
        <ele>297</ele>
        <time>2022-08-19T07:03:20.000Z</time>
      </trkpt>
      <trkpt lat="49.83522" lon="4.78771">
        <ele>297</ele>
        <time>2022-08-19T07:03:21.000Z</time>
      </trkpt>
      <trkpt lat="49.83523" lon="4.78769">
        <ele>297</ele>
        <time>2022-08-19T07:03:22.000Z</time>
      </trkpt>
      <trkpt lat="49.83524" lon="4.78769">
        <ele>296</ele>
        <time>2022-08-19T07:03:23.000Z</time>
      </trkpt>
      <trkpt lat="49.83524" lon="4.78769">
        <ele>296</ele>
        <time>2022-08-19T07:03:24.000Z</time>
      </trkpt>
      <trkpt lat="49.83524" lon="4.78769">
        <ele>296</ele>
        <time>2022-08-19T07:03:25.000Z</time>
      </trkpt>
      <trkpt lat="49.83524" lon="4.78769">
        <ele>296</ele>
        <time>2022-08-19T07:03:26.000Z</time>
      </trkpt>
      <trkpt lat="49.83524" lon="4.78769">
        <ele>296</ele>
        <time>2022-08-19T07:03:27.000Z</time>
      </trkpt>
      <trkpt lat="49.83524" lon="4.7877">
        <ele>296</ele>
        <time>2022-08-19T07:03:28.000Z</time>
      </trkpt>
      <trkpt lat="49.83524" lon="4.7877">
        <ele>296</ele>
        <time>2022-08-19T07:03:29.000Z</time>
      </trkpt>
      <trkpt lat="49.83524" lon="4.7877">
        <ele>296</ele>
        <time>2022-08-19T07:03:30.000Z</time>
      </trkpt>
      <trkpt lat="49.83524" lon="4.7877">
        <ele>296</ele>
        <time>2022-08-19T07:03:31.000Z</time>
      </trkpt>
      <trkpt lat="49.83524" lon="4.7877">
        <ele>296</ele>
        <time>2022-08-19T07:03:32.000Z</time>
      </trkpt>
      <trkpt lat="49.83524" lon="4.7877">
        <ele>296</ele>
        <time>2022-08-19T07:03:33.000Z</time>
      </trkpt>
      <trkpt lat="49.83523" lon="4.78769">
        <ele>296</ele>
        <time>2022-08-19T07:03:34.000Z</time>
      </trkpt>
      <trkpt lat="49.83523" lon="4.7877">
        <ele>296</ele>
        <time>2022-08-19T07:03:35.000Z</time>
      </trkpt>
      <trkpt lat="49.83522" lon="4.7877">
        <ele>296</ele>
        <time>2022-08-19T07:03:36.000Z</time>
      </trkpt>
      <trkpt lat="49.83521" lon="4.7877">
        <ele>296</ele>
        <time>2022-08-19T07:03:37.000Z</time>
      </trkpt>
      <trkpt lat="49.83519" lon="4.7877">
        <ele>296</ele>
        <time>2022-08-19T07:03:38.000Z</time>
      </trkpt>
      <trkpt lat="49.83518" lon="4.78769">
        <ele>296</ele>
        <time>2022-08-19T07:03:39.000Z</time>
      </trkpt>
      <trkpt lat="49.83516" lon="4.78768">
        <ele>296</ele>
        <time>2022-08-19T07:03:40.000Z</time>
      </trkpt>
      <trkpt lat="49.83515" lon="4.78766">
        <ele>295</ele>
        <time>2022-08-19T07:03:41.000Z</time>
      </trkpt>
      <trkpt lat="49.83515" lon="4.78763">
        <ele>295</ele>
        <time>2022-08-19T07:03:42.000Z</time>
      </trkpt>
      <trkpt lat="49.83516" lon="4.78759">
        <ele>295</ele>
        <time>2022-08-19T07:03:43.000Z</time>
      </trkpt>
      <trkpt lat="49.83516" lon="4.78756">
        <ele>295</ele>
        <time>2022-08-19T07:03:44.000Z</time>
      </trkpt>
      <trkpt lat="49.83517" lon="4.78754">
        <ele>295</ele>
        <time>2022-08-19T07:03:45.000Z</time>
      </trkpt>
      <trkpt lat="49.83517" lon="4.78752">
        <ele>295</ele>
        <time>2022-08-19T07:03:46.000Z</time>
      </trkpt>
      <trkpt lat="49.83517" lon="4.78751">
        <ele>295</ele>
        <time>2022-08-19T07:03:47.000Z</time>
      </trkpt>
      <trkpt lat="49.83517" lon="4.78751">
        <ele>295</ele>
        <time>2022-08-19T07:03:48.000Z</time>
      </trkpt>
      <trkpt lat="49.83518" lon="4.78751">
        <ele>295</ele>
        <time>2022-08-19T07:03:49.000Z</time>
      </trkpt>
      <trkpt lat="49.83518" lon="4.7875">
        <ele>295</ele>
        <time>2022-08-19T07:03:50.000Z</time>
      </trkpt>
      <trkpt lat="49.83518" lon="4.78749">
        <ele>295</ele>
        <time>2022-08-19T07:03:51.000Z</time>
      </trkpt>
      <trkpt lat="49.83518" lon="4.78749">
        <ele>294</ele>
        <time>2022-08-19T07:03:52.000Z</time>
      </trkpt>
      <trkpt lat="49.83518" lon="4.78748">
        <ele>294</ele>
        <time>2022-08-19T07:03:53.000Z</time>
      </trkpt>
      <trkpt lat="49.83519" lon="4.78745">
        <ele>294</ele>
        <time>2022-08-19T07:03:54.000Z</time>
      </trkpt>
      <trkpt lat="49.83519" lon="4.78743">
        <ele>294</ele>
        <time>2022-08-19T07:03:55.000Z</time>
      </trkpt>
      <trkpt lat="49.83519" lon="4.78739">
        <ele>294</ele>
        <time>2022-08-19T07:03:56.000Z</time>
      </trkpt>
      <trkpt lat="49.8352" lon="4.78736">
        <ele>294</ele>
        <time>2022-08-19T07:03:57.000Z</time>
      </trkpt>
      <trkpt lat="49.8352" lon="4.78733">
        <ele>294</ele>
        <time>2022-08-19T07:03:58.000Z</time>
      </trkpt>
      <trkpt lat="49.83521" lon="4.78729">
        <ele>294</ele>
        <time>2022-08-19T07:03:59.000Z</time>
      </trkpt>
      <trkpt lat="49.83522" lon="4.78724">
        <ele>294</ele>
        <time>2022-08-19T07:04:00.000Z</time>
      </trkpt>
      <trkpt lat="49.83522" lon="4.7872">
        <ele>294</ele>
        <time>2022-08-19T07:04:01.000Z</time>
      </trkpt>
      <trkpt lat="49.83523" lon="4.78715">
        <ele>294</ele>
        <time>2022-08-19T07:04:02.000Z</time>
      </trkpt>
      <trkpt lat="49.83524" lon="4.78711">
        <ele>294</ele>
        <time>2022-08-19T07:04:03.000Z</time>
      </trkpt>
      <trkpt lat="49.83525" lon="4.78706">
        <ele>294</ele>
        <time>2022-08-19T07:04:04.000Z</time>
      </trkpt>
      <trkpt lat="49.83526" lon="4.78702">
        <ele>294</ele>
        <time>2022-08-19T07:04:05.000Z</time>
      </trkpt>
      <trkpt lat="49.83527" lon="4.78697">
        <ele>294</ele>
        <time>2022-08-19T07:04:06.000Z</time>
      </trkpt>
      <trkpt lat="49.83528" lon="4.78692">
        <ele>294</ele>
        <time>2022-08-19T07:04:07.000Z</time>
      </trkpt>
      <trkpt lat="49.83529" lon="4.78687">
        <ele>294</ele>
        <time>2022-08-19T07:04:08.000Z</time>
      </trkpt>
      <trkpt lat="49.8353" lon="4.78682">
        <ele>294</ele>
        <time>2022-08-19T07:04:09.000Z</time>
      </trkpt>
      <trkpt lat="49.83531" lon="4.78676">
        <ele>294</ele>
        <time>2022-08-19T07:04:10.000Z</time>
      </trkpt>
      <trkpt lat="49.83532" lon="4.78671">
        <ele>294</ele>
        <time>2022-08-19T07:04:11.000Z</time>
      </trkpt>
      <trkpt lat="49.83533" lon="4.78666">
        <ele>294</ele>
        <time>2022-08-19T07:04:12.000Z</time>
      </trkpt>
      <trkpt lat="49.83533" lon="4.78661">
        <ele>294</ele>
        <time>2022-08-19T07:04:13.000Z</time>
      </trkpt>
      <trkpt lat="49.83534" lon="4.78656">
        <ele>294</ele>
        <time>2022-08-19T07:04:14.000Z</time>
      </trkpt>
      <trkpt lat="49.83535" lon="4.7865">
        <ele>294</ele>
        <time>2022-08-19T07:04:15.000Z</time>
      </trkpt>
      <trkpt lat="49.83536" lon="4.78645">
        <ele>294</ele>
        <time>2022-08-19T07:04:16.000Z</time>
      </trkpt>
      <trkpt lat="49.83536" lon="4.78639">
        <ele>294</ele>
        <time>2022-08-19T07:04:17.000Z</time>
      </trkpt>
      <trkpt lat="49.83537" lon="4.78634">
        <ele>294</ele>
        <time>2022-08-19T07:04:18.000Z</time>
      </trkpt>
      <trkpt lat="49.83538" lon="4.78629">
        <ele>294</ele>
        <time>2022-08-19T07:04:19.000Z</time>
      </trkpt>
      <trkpt lat="49.83539" lon="4.78623">
        <ele>294</ele>
        <time>2022-08-19T07:04:20.000Z</time>
      </trkpt>
      <trkpt lat="49.8354" lon="4.78617">
        <ele>294</ele>
        <time>2022-08-19T07:04:21.000Z</time>
      </trkpt>
      <trkpt lat="49.83541" lon="4.78611">
        <ele>294</ele>
        <time>2022-08-19T07:04:22.000Z</time>
      </trkpt>
      <trkpt lat="49.83542" lon="4.78605">
        <ele>294</ele>
        <time>2022-08-19T07:04:23.000Z</time>
      </trkpt>
      <trkpt lat="49.83543" lon="4.78601">
        <ele>294</ele>
        <time>2022-08-19T07:04:24.000Z</time>
      </trkpt>
      <trkpt lat="49.83544" lon="4.78598">
        <ele>293</ele>
        <time>2022-08-19T07:04:25.000Z</time>
      </trkpt>
      <trkpt lat="49.83546" lon="4.78597">
        <ele>293</ele>
        <time>2022-08-19T07:04:26.000Z</time>
      </trkpt>
      <trkpt lat="49.83547" lon="4.78597">
        <ele>293</ele>
        <time>2022-08-19T07:04:27.000Z</time>
      </trkpt>
      <trkpt lat="49.83549" lon="4.78599">
        <ele>293</ele>
        <time>2022-08-19T07:04:28.000Z</time>
      </trkpt>
      <trkpt lat="49.83551" lon="4.786">
        <ele>293</ele>
        <time>2022-08-19T07:04:29.000Z</time>
      </trkpt>
      <trkpt lat="49.83553" lon="4.78602">
        <ele>293</ele>
        <time>2022-08-19T07:04:30.000Z</time>
      </trkpt>
      <trkpt lat="49.83555" lon="4.78605">
        <ele>293</ele>
        <time>2022-08-19T07:04:31.000Z</time>
      </trkpt>
      <trkpt lat="49.83557" lon="4.78608">
        <ele>293</ele>
        <time>2022-08-19T07:04:32.000Z</time>
      </trkpt>
      <trkpt lat="49.8356" lon="4.7861">
        <ele>293</ele>
        <time>2022-08-19T07:04:33.000Z</time>
      </trkpt>
      <trkpt lat="49.83562" lon="4.78612">
        <ele>293</ele>
        <time>2022-08-19T07:04:34.000Z</time>
      </trkpt>
      <trkpt lat="49.83565" lon="4.78614">
        <ele>293</ele>
        <time>2022-08-19T07:04:35.000Z</time>
      </trkpt>
      <trkpt lat="49.83568" lon="4.78615">
        <ele>293</ele>
        <time>2022-08-19T07:04:36.000Z</time>
      </trkpt>
      <trkpt lat="49.83571" lon="4.78617">
        <ele>293</ele>
        <time>2022-08-19T07:04:37.000Z</time>
      </trkpt>
      <trkpt lat="49.83574" lon="4.78618">
        <ele>294</ele>
        <time>2022-08-19T07:04:38.000Z</time>
      </trkpt>
      <trkpt lat="49.83577" lon="4.7862">
        <ele>294</ele>
        <time>2022-08-19T07:04:39.000Z</time>
      </trkpt>
      <trkpt lat="49.83579" lon="4.78621">
        <ele>294</ele>
        <time>2022-08-19T07:04:40.000Z</time>
      </trkpt>
      <trkpt lat="49.83582" lon="4.78621">
        <ele>294</ele>
        <time>2022-08-19T07:04:41.000Z</time>
      </trkpt>
      <trkpt lat="49.83585" lon="4.78623">
        <ele>294</ele>
        <time>2022-08-19T07:04:42.000Z</time>
      </trkpt>
      <trkpt lat="49.83588" lon="4.78624">
        <ele>294</ele>
        <time>2022-08-19T07:04:43.000Z</time>
      </trkpt>
      <trkpt lat="49.83591" lon="4.78625">
        <ele>294</ele>
        <time>2022-08-19T07:04:44.000Z</time>
      </trkpt>
      <trkpt lat="49.83594" lon="4.78626">
        <ele>294</ele>
        <time>2022-08-19T07:04:45.000Z</time>
      </trkpt>
      <trkpt lat="49.83596" lon="4.78628">
        <ele>294</ele>
        <time>2022-08-19T07:04:46.000Z</time>
      </trkpt>
      <trkpt lat="49.83599" lon="4.78629">
        <ele>295</ele>
        <time>2022-08-19T07:04:47.000Z</time>
      </trkpt>
      <trkpt lat="49.83601" lon="4.7863">
        <ele>295</ele>
        <time>2022-08-19T07:04:48.000Z</time>
      </trkpt>
      <trkpt lat="49.83604" lon="4.7863">
        <ele>295</ele>
        <time>2022-08-19T07:04:49.000Z</time>
      </trkpt>
      <trkpt lat="49.83607" lon="4.78631">
        <ele>295</ele>
        <time>2022-08-19T07:04:50.000Z</time>
      </trkpt>
      <trkpt lat="49.8361" lon="4.78632">
        <ele>295</ele>
        <time>2022-08-19T07:04:51.000Z</time>
      </trkpt>
      <trkpt lat="49.83612" lon="4.78633">
        <ele>295</ele>
        <time>2022-08-19T07:04:52.000Z</time>
      </trkpt>
      <trkpt lat="49.83615" lon="4.78634">
        <ele>296</ele>
        <time>2022-08-19T07:04:53.000Z</time>
      </trkpt>
      <trkpt lat="49.83617" lon="4.78635">
        <ele>296</ele>
        <time>2022-08-19T07:04:54.000Z</time>
      </trkpt>
      <trkpt lat="49.8362" lon="4.78635">
        <ele>296</ele>
        <time>2022-08-19T07:04:55.000Z</time>
      </trkpt>
      <trkpt lat="49.83622" lon="4.78635">
        <ele>296</ele>
        <time>2022-08-19T07:04:56.000Z</time>
      </trkpt>
      <trkpt lat="49.83624" lon="4.78636">
        <ele>296</ele>
        <time>2022-08-19T07:04:57.000Z</time>
      </trkpt>
      <trkpt lat="49.83626" lon="4.78637">
        <ele>296</ele>
        <time>2022-08-19T07:04:58.000Z</time>
      </trkpt>
      <trkpt lat="49.83628" lon="4.78637">
        <ele>297</ele>
        <time>2022-08-19T07:04:59.000Z</time>
      </trkpt>
      <trkpt lat="49.8363" lon="4.78638">
        <ele>297</ele>
        <time>2022-08-19T07:05:00.000Z</time>
      </trkpt>
      <trkpt lat="49.83632" lon="4.78638">
        <ele>297</ele>
        <time>2022-08-19T07:05:01.000Z</time>
      </trkpt>
      <trkpt lat="49.83634" lon="4.78639">
        <ele>297</ele>
        <time>2022-08-19T07:05:02.000Z</time>
      </trkpt>
      <trkpt lat="49.83636" lon="4.78639">
        <ele>297</ele>
        <time>2022-08-19T07:05:03.000Z</time>
      </trkpt>
      <trkpt lat="49.83638" lon="4.7864">
        <ele>297</ele>
        <time>2022-08-19T07:05:04.000Z</time>
      </trkpt>
      <trkpt lat="49.8364" lon="4.78641">
        <ele>298</ele>
        <time>2022-08-19T07:05:05.000Z</time>
      </trkpt>
      <trkpt lat="49.83642" lon="4.78641">
        <ele>298</ele>
        <time>2022-08-19T07:05:06.000Z</time>
      </trkpt>
      <trkpt lat="49.83644" lon="4.78642">
        <ele>298</ele>
        <time>2022-08-19T07:05:07.000Z</time>
      </trkpt>
      <trkpt lat="49.83647" lon="4.78643">
        <ele>298</ele>
        <time>2022-08-19T07:05:08.000Z</time>
      </trkpt>
      <trkpt lat="49.83649" lon="4.78643">
        <ele>298</ele>
        <time>2022-08-19T07:05:09.000Z</time>
      </trkpt>
      <trkpt lat="49.83651" lon="4.78644">
        <ele>299</ele>
        <time>2022-08-19T07:05:10.000Z</time>
      </trkpt>
      <trkpt lat="49.83653" lon="4.78645">
        <ele>299</ele>
        <time>2022-08-19T07:05:11.000Z</time>
      </trkpt>
      <trkpt lat="49.83655" lon="4.78645">
        <ele>299</ele>
        <time>2022-08-19T07:05:12.000Z</time>
      </trkpt>
      <trkpt lat="49.83657" lon="4.78646">
        <ele>299</ele>
        <time>2022-08-19T07:05:13.000Z</time>
      </trkpt>
      <trkpt lat="49.83659" lon="4.78646">
        <ele>299</ele>
        <time>2022-08-19T07:05:14.000Z</time>
      </trkpt>
      <trkpt lat="49.83662" lon="4.78648">
        <ele>300</ele>
        <time>2022-08-19T07:05:15.000Z</time>
      </trkpt>
      <trkpt lat="49.83664" lon="4.78649">
        <ele>300</ele>
        <time>2022-08-19T07:05:16.000Z</time>
      </trkpt>
      <trkpt lat="49.83666" lon="4.7865">
        <ele>300</ele>
        <time>2022-08-19T07:05:17.000Z</time>
      </trkpt>
      <trkpt lat="49.83668" lon="4.78651">
        <ele>300</ele>
        <time>2022-08-19T07:05:18.000Z</time>
      </trkpt>
      <trkpt lat="49.83671" lon="4.78652">
        <ele>301</ele>
        <time>2022-08-19T07:05:19.000Z</time>
      </trkpt>
      <trkpt lat="49.83673" lon="4.78653">
        <ele>301</ele>
        <time>2022-08-19T07:05:20.000Z</time>
      </trkpt>
      <trkpt lat="49.83676" lon="4.78654">
        <ele>301</ele>
        <time>2022-08-19T07:05:21.000Z</time>
      </trkpt>
      <trkpt lat="49.83678" lon="4.78655">
        <ele>301</ele>
        <time>2022-08-19T07:05:22.000Z</time>
      </trkpt>
      <trkpt lat="49.8368" lon="4.78655">
        <ele>302</ele>
        <time>2022-08-19T07:05:23.000Z</time>
      </trkpt>
      <trkpt lat="49.83683" lon="4.78656">
        <ele>302</ele>
        <time>2022-08-19T07:05:24.000Z</time>
      </trkpt>
      <trkpt lat="49.83685" lon="4.78658">
        <ele>302</ele>
        <time>2022-08-19T07:05:25.000Z</time>
      </trkpt>
      <trkpt lat="49.83686" lon="4.78659">
        <ele>302</ele>
        <time>2022-08-19T07:05:26.000Z</time>
      </trkpt>
      <trkpt lat="49.83688" lon="4.7866">
        <ele>302</ele>
        <time>2022-08-19T07:05:27.000Z</time>
      </trkpt>
      <trkpt lat="49.8369" lon="4.78661">
        <ele>303</ele>
        <time>2022-08-19T07:05:28.000Z</time>
      </trkpt>
      <trkpt lat="49.83692" lon="4.78662">
        <ele>303</ele>
        <time>2022-08-19T07:05:29.000Z</time>
      </trkpt>
      <trkpt lat="49.83694" lon="4.78662">
        <ele>303</ele>
        <time>2022-08-19T07:05:30.000Z</time>
      </trkpt>
      <trkpt lat="49.83696" lon="4.78663">
        <ele>303</ele>
        <time>2022-08-19T07:05:31.000Z</time>
      </trkpt>
      <trkpt lat="49.83698" lon="4.78664">
        <ele>304</ele>
        <time>2022-08-19T07:05:32.000Z</time>
      </trkpt>
      <trkpt lat="49.837" lon="4.78665">
        <ele>304</ele>
        <time>2022-08-19T07:05:33.000Z</time>
      </trkpt>
      <trkpt lat="49.83701" lon="4.78666">
        <ele>304</ele>
        <time>2022-08-19T07:05:34.000Z</time>
      </trkpt>
      <trkpt lat="49.83703" lon="4.78666">
        <ele>304</ele>
        <time>2022-08-19T07:05:35.000Z</time>
      </trkpt>
      <trkpt lat="49.83705" lon="4.78668">
        <ele>305</ele>
        <time>2022-08-19T07:05:36.000Z</time>
      </trkpt>
      <trkpt lat="49.83707" lon="4.78669">
        <ele>305</ele>
        <time>2022-08-19T07:05:37.000Z</time>
      </trkpt>
      <trkpt lat="49.83709" lon="4.7867">
        <ele>305</ele>
        <time>2022-08-19T07:05:38.000Z</time>
      </trkpt>
      <trkpt lat="49.83711" lon="4.7867">
        <ele>305</ele>
        <time>2022-08-19T07:05:39.000Z</time>
      </trkpt>
      <trkpt lat="49.83713" lon="4.78671">
        <ele>306</ele>
        <time>2022-08-19T07:05:40.000Z</time>
      </trkpt>
      <trkpt lat="49.83715" lon="4.78672">
        <ele>306</ele>
        <time>2022-08-19T07:05:41.000Z</time>
      </trkpt>
      <trkpt lat="49.83717" lon="4.78672">
        <ele>306</ele>
        <time>2022-08-19T07:05:42.000Z</time>
      </trkpt>
      <trkpt lat="49.83719" lon="4.78673">
        <ele>307</ele>
        <time>2022-08-19T07:05:43.000Z</time>
      </trkpt>
      <trkpt lat="49.83721" lon="4.78674">
        <ele>307</ele>
        <time>2022-08-19T07:05:44.000Z</time>
      </trkpt>
      <trkpt lat="49.83723" lon="4.78675">
        <ele>307</ele>
        <time>2022-08-19T07:05:45.000Z</time>
      </trkpt>
      <trkpt lat="49.83725" lon="4.78675">
        <ele>307</ele>
        <time>2022-08-19T07:05:46.000Z</time>
      </trkpt>
      <trkpt lat="49.83727" lon="4.78676">
        <ele>308</ele>
        <time>2022-08-19T07:05:47.000Z</time>
      </trkpt>
      <trkpt lat="49.83728" lon="4.78677">
        <ele>308</ele>
        <time>2022-08-19T07:05:48.000Z</time>
      </trkpt>
      <trkpt lat="49.8373" lon="4.78678">
        <ele>308</ele>
        <time>2022-08-19T07:05:49.000Z</time>
      </trkpt>
      <trkpt lat="49.83732" lon="4.78679">
        <ele>308</ele>
        <time>2022-08-19T07:05:50.000Z</time>
      </trkpt>
      <trkpt lat="49.83734" lon="4.7868">
        <ele>309</ele>
        <time>2022-08-19T07:05:51.000Z</time>
      </trkpt>
      <trkpt lat="49.83736" lon="4.78681">
        <ele>309</ele>
        <time>2022-08-19T07:05:52.000Z</time>
      </trkpt>
      <trkpt lat="49.83738" lon="4.78681">
        <ele>309</ele>
        <time>2022-08-19T07:05:53.000Z</time>
      </trkpt>
      <trkpt lat="49.83739" lon="4.78682">
        <ele>309</ele>
        <time>2022-08-19T07:05:54.000Z</time>
      </trkpt>
      <trkpt lat="49.83741" lon="4.78683">
        <ele>310</ele>
        <time>2022-08-19T07:05:55.000Z</time>
      </trkpt>
      <trkpt lat="49.83743" lon="4.78684">
        <ele>310</ele>
        <time>2022-08-19T07:05:56.000Z</time>
      </trkpt>
      <trkpt lat="49.83745" lon="4.78684">
        <ele>310</ele>
        <time>2022-08-19T07:05:57.000Z</time>
      </trkpt>
      <trkpt lat="49.83747" lon="4.78685">
        <ele>310</ele>
        <time>2022-08-19T07:05:58.000Z</time>
      </trkpt>
      <trkpt lat="49.83749" lon="4.78686">
        <ele>310</ele>
        <time>2022-08-19T07:05:59.000Z</time>
      </trkpt>
      <trkpt lat="49.83752" lon="4.78687">
        <ele>311</ele>
        <time>2022-08-19T07:06:00.000Z</time>
      </trkpt>
      <trkpt lat="49.83754" lon="4.78687">
        <ele>311</ele>
        <time>2022-08-19T07:06:01.000Z</time>
      </trkpt>
      <trkpt lat="49.83756" lon="4.78688">
        <ele>311</ele>
        <time>2022-08-19T07:06:02.000Z</time>
      </trkpt>
      <trkpt lat="49.83757" lon="4.78688">
        <ele>311</ele>
        <time>2022-08-19T07:06:03.000Z</time>
      </trkpt>
      <trkpt lat="49.83759" lon="4.78689">
        <ele>311</ele>
        <time>2022-08-19T07:06:04.000Z</time>
      </trkpt>
      <trkpt lat="49.83761" lon="4.78689">
        <ele>311</ele>
        <time>2022-08-19T07:06:05.000Z</time>
      </trkpt>
      <trkpt lat="49.83763" lon="4.7869">
        <ele>312</ele>
        <time>2022-08-19T07:06:06.000Z</time>
      </trkpt>
      <trkpt lat="49.83765" lon="4.78691">
        <ele>312</ele>
        <time>2022-08-19T07:06:07.000Z</time>
      </trkpt>
      <trkpt lat="49.83767" lon="4.78691">
        <ele>312</ele>
        <time>2022-08-19T07:06:08.000Z</time>
      </trkpt>
      <trkpt lat="49.83768" lon="4.78692">
        <ele>312</ele>
        <time>2022-08-19T07:06:09.000Z</time>
      </trkpt>
      <trkpt lat="49.8377" lon="4.78693">
        <ele>312</ele>
        <time>2022-08-19T07:06:10.000Z</time>
      </trkpt>
      <trkpt lat="49.83772" lon="4.78694">
        <ele>313</ele>
        <time>2022-08-19T07:06:11.000Z</time>
      </trkpt>
      <trkpt lat="49.83773" lon="4.78694">
        <ele>313</ele>
        <time>2022-08-19T07:06:12.000Z</time>
      </trkpt>
      <trkpt lat="49.83775" lon="4.78695">
        <ele>313</ele>
        <time>2022-08-19T07:06:13.000Z</time>
      </trkpt>
      <trkpt lat="49.83777" lon="4.78696">
        <ele>313</ele>
        <time>2022-08-19T07:06:14.000Z</time>
      </trkpt>
      <trkpt lat="49.83778" lon="4.78697">
        <ele>314</ele>
        <time>2022-08-19T07:06:15.000Z</time>
      </trkpt>
      <trkpt lat="49.8378" lon="4.78698">
        <ele>314</ele>
        <time>2022-08-19T07:06:16.000Z</time>
      </trkpt>
      <trkpt lat="49.83781" lon="4.78699">
        <ele>314</ele>
        <time>2022-08-19T07:06:17.000Z</time>
      </trkpt>
      <trkpt lat="49.83782" lon="4.78699">
        <ele>314</ele>
        <time>2022-08-19T07:06:18.000Z</time>
      </trkpt>
      <trkpt lat="49.83784" lon="4.787">
        <ele>315</ele>
        <time>2022-08-19T07:06:19.000Z</time>
      </trkpt>
      <trkpt lat="49.83785" lon="4.787">
        <ele>315</ele>
        <time>2022-08-19T07:06:20.000Z</time>
      </trkpt>
      <trkpt lat="49.83786" lon="4.78701">
        <ele>315</ele>
        <time>2022-08-19T07:06:21.000Z</time>
      </trkpt>
      <trkpt lat="49.83788" lon="4.78702">
        <ele>316</ele>
        <time>2022-08-19T07:06:22.000Z</time>
      </trkpt>
      <trkpt lat="49.8379" lon="4.78703">
        <ele>316</ele>
        <time>2022-08-19T07:06:23.000Z</time>
      </trkpt>
      <trkpt lat="49.83792" lon="4.78704">
        <ele>316</ele>
        <time>2022-08-19T07:06:24.000Z</time>
      </trkpt>
      <trkpt lat="49.83794" lon="4.78704">
        <ele>317</ele>
        <time>2022-08-19T07:06:25.000Z</time>
      </trkpt>
      <trkpt lat="49.83796" lon="4.78705">
        <ele>317</ele>
        <time>2022-08-19T07:06:26.000Z</time>
      </trkpt>
      <trkpt lat="49.83798" lon="4.78706">
        <ele>317</ele>
        <time>2022-08-19T07:06:27.000Z</time>
      </trkpt>
      <trkpt lat="49.838" lon="4.78707">
        <ele>317</ele>
        <time>2022-08-19T07:06:28.000Z</time>
      </trkpt>
      <trkpt lat="49.83802" lon="4.78708">
        <ele>318</ele>
        <time>2022-08-19T07:06:29.000Z</time>
      </trkpt>
      <trkpt lat="49.83805" lon="4.78709">
        <ele>318</ele>
        <time>2022-08-19T07:06:30.000Z</time>
      </trkpt>
      <trkpt lat="49.83807" lon="4.7871">
        <ele>318</ele>
        <time>2022-08-19T07:06:31.000Z</time>
      </trkpt>
      <trkpt lat="49.83809" lon="4.7871">
        <ele>318</ele>
        <time>2022-08-19T07:06:32.000Z</time>
      </trkpt>
      <trkpt lat="49.83812" lon="4.78711">
        <ele>318</ele>
        <time>2022-08-19T07:06:33.000Z</time>
      </trkpt>
      <trkpt lat="49.83814" lon="4.78712">
        <ele>319</ele>
        <time>2022-08-19T07:06:34.000Z</time>
      </trkpt>
      <trkpt lat="49.83817" lon="4.78712">
        <ele>319</ele>
        <time>2022-08-19T07:06:35.000Z</time>
      </trkpt>
      <trkpt lat="49.83819" lon="4.78713">
        <ele>319</ele>
        <time>2022-08-19T07:06:36.000Z</time>
      </trkpt>
      <trkpt lat="49.83821" lon="4.78713">
        <ele>319</ele>
        <time>2022-08-19T07:06:37.000Z</time>
      </trkpt>
      <trkpt lat="49.83823" lon="4.78713">
        <ele>319</ele>
        <time>2022-08-19T07:06:38.000Z</time>
      </trkpt>
      <trkpt lat="49.83826" lon="4.78712">
        <ele>319</ele>
        <time>2022-08-19T07:06:39.000Z</time>
      </trkpt>
      <trkpt lat="49.83828" lon="4.78712">
        <ele>319</ele>
        <time>2022-08-19T07:06:40.000Z</time>
      </trkpt>
      <trkpt lat="49.83831" lon="4.78712">
        <ele>320</ele>
        <time>2022-08-19T07:06:41.000Z</time>
      </trkpt>
      <trkpt lat="49.83833" lon="4.78711">
        <ele>320</ele>
        <time>2022-08-19T07:06:42.000Z</time>
      </trkpt>
      <trkpt lat="49.83835" lon="4.7871">
        <ele>320</ele>
        <time>2022-08-19T07:06:43.000Z</time>
      </trkpt>
      <trkpt lat="49.83837" lon="4.78709">
        <ele>320</ele>
        <time>2022-08-19T07:06:44.000Z</time>
      </trkpt>
      <trkpt lat="49.83839" lon="4.78709">
        <ele>320</ele>
        <time>2022-08-19T07:06:45.000Z</time>
      </trkpt>
      <trkpt lat="49.83842" lon="4.78709">
        <ele>320</ele>
        <time>2022-08-19T07:06:46.000Z</time>
      </trkpt>
      <trkpt lat="49.83845" lon="4.78708">
        <ele>321</ele>
        <time>2022-08-19T07:06:47.000Z</time>
      </trkpt>
      <trkpt lat="49.83848" lon="4.78708">
        <ele>321</ele>
        <time>2022-08-19T07:06:48.000Z</time>
      </trkpt>
      <trkpt lat="49.83851" lon="4.78707">
        <ele>321</ele>
        <time>2022-08-19T07:06:49.000Z</time>
      </trkpt>
      <trkpt lat="49.83854" lon="4.78706">
        <ele>321</ele>
        <time>2022-08-19T07:06:50.000Z</time>
      </trkpt>
      <trkpt lat="49.83858" lon="4.78704">
        <ele>321</ele>
        <time>2022-08-19T07:06:51.000Z</time>
      </trkpt>
      <trkpt lat="49.83861" lon="4.78703">
        <ele>321</ele>
        <time>2022-08-19T07:06:52.000Z</time>
      </trkpt>
      <trkpt lat="49.83864" lon="4.78702">
        <ele>321</ele>
        <time>2022-08-19T07:06:53.000Z</time>
      </trkpt>
      <trkpt lat="49.83868" lon="4.787">
        <ele>321</ele>
        <time>2022-08-19T07:06:54.000Z</time>
      </trkpt>
      <trkpt lat="49.83871" lon="4.78698">
        <ele>322</ele>
        <time>2022-08-19T07:06:55.000Z</time>
      </trkpt>
      <trkpt lat="49.83875" lon="4.78697">
        <ele>322</ele>
        <time>2022-08-19T07:06:56.000Z</time>
      </trkpt>
      <trkpt lat="49.83878" lon="4.78695">
        <ele>322</ele>
        <time>2022-08-19T07:06:57.000Z</time>
      </trkpt>
      <trkpt lat="49.83881" lon="4.78694">
        <ele>322</ele>
        <time>2022-08-19T07:06:58.000Z</time>
      </trkpt>
      <trkpt lat="49.83885" lon="4.78693">
        <ele>322</ele>
        <time>2022-08-19T07:06:59.000Z</time>
      </trkpt>
      <trkpt lat="49.83888" lon="4.78693">
        <ele>322</ele>
        <time>2022-08-19T07:07:00.000Z</time>
      </trkpt>
      <trkpt lat="49.83891" lon="4.78693">
        <ele>321</ele>
        <time>2022-08-19T07:07:01.000Z</time>
      </trkpt>
      <trkpt lat="49.83894" lon="4.78692">
        <ele>321</ele>
        <time>2022-08-19T07:07:02.000Z</time>
      </trkpt>
      <trkpt lat="49.83897" lon="4.78692">
        <ele>321</ele>
        <time>2022-08-19T07:07:03.000Z</time>
      </trkpt>
      <trkpt lat="49.83899" lon="4.78692">
        <ele>322</ele>
        <time>2022-08-19T07:07:04.000Z</time>
      </trkpt>
      <trkpt lat="49.83901" lon="4.78692">
        <ele>322</ele>
        <time>2022-08-19T07:07:05.000Z</time>
      </trkpt>
      <trkpt lat="49.83903" lon="4.78692">
        <ele>322</ele>
        <time>2022-08-19T07:07:06.000Z</time>
      </trkpt>
      <trkpt lat="49.83905" lon="4.78693">
        <ele>322</ele>
        <time>2022-08-19T07:07:07.000Z</time>
      </trkpt>
      <trkpt lat="49.83906" lon="4.78693">
        <ele>322</ele>
        <time>2022-08-19T07:07:08.000Z</time>
      </trkpt>
      <trkpt lat="49.83908" lon="4.78694">
        <ele>322</ele>
        <time>2022-08-19T07:07:09.000Z</time>
      </trkpt>
      <trkpt lat="49.83909" lon="4.78695">
        <ele>322</ele>
        <time>2022-08-19T07:07:10.000Z</time>
      </trkpt>
      <trkpt lat="49.83911" lon="4.78695">
        <ele>322</ele>
        <time>2022-08-19T07:07:11.000Z</time>
      </trkpt>
      <trkpt lat="49.83913" lon="4.78696">
        <ele>322</ele>
        <time>2022-08-19T07:07:12.000Z</time>
      </trkpt>
      <trkpt lat="49.83915" lon="4.78697">
        <ele>322</ele>
        <time>2022-08-19T07:07:13.000Z</time>
      </trkpt>
      <trkpt lat="49.83917" lon="4.78698">
        <ele>322</ele>
        <time>2022-08-19T07:07:14.000Z</time>
      </trkpt>
      <trkpt lat="49.83919" lon="4.78698">
        <ele>323</ele>
        <time>2022-08-19T07:07:15.000Z</time>
      </trkpt>
      <trkpt lat="49.8392" lon="4.78699">
        <ele>323</ele>
        <time>2022-08-19T07:07:16.000Z</time>
      </trkpt>
      <trkpt lat="49.83922" lon="4.787">
        <ele>323</ele>
        <time>2022-08-19T07:07:17.000Z</time>
      </trkpt>
      <trkpt lat="49.83924" lon="4.78701">
        <ele>323</ele>
        <time>2022-08-19T07:07:18.000Z</time>
      </trkpt>
      <trkpt lat="49.83926" lon="4.78701">
        <ele>323</ele>
        <time>2022-08-19T07:07:19.000Z</time>
      </trkpt>
      <trkpt lat="49.83927" lon="4.78701">
        <ele>324</ele>
        <time>2022-08-19T07:07:20.000Z</time>
      </trkpt>
      <trkpt lat="49.83929" lon="4.78702">
        <ele>324</ele>
        <time>2022-08-19T07:07:21.000Z</time>
      </trkpt>
      <trkpt lat="49.8393" lon="4.78703">
        <ele>324</ele>
        <time>2022-08-19T07:07:22.000Z</time>
      </trkpt>
      <trkpt lat="49.83931" lon="4.78704">
        <ele>324</ele>
        <time>2022-08-19T07:07:23.000Z</time>
      </trkpt>
      <trkpt lat="49.83933" lon="4.78704">
        <ele>324</ele>
        <time>2022-08-19T07:07:24.000Z</time>
      </trkpt>
      <trkpt lat="49.83935" lon="4.78705">
        <ele>324</ele>
        <time>2022-08-19T07:07:25.000Z</time>
      </trkpt>
      <trkpt lat="49.83936" lon="4.78705">
        <ele>325</ele>
        <time>2022-08-19T07:07:26.000Z</time>
      </trkpt>
      <trkpt lat="49.83938" lon="4.78706">
        <ele>325</ele>
        <time>2022-08-19T07:07:27.000Z</time>
      </trkpt>
      <trkpt lat="49.8394" lon="4.78706">
        <ele>325</ele>
        <time>2022-08-19T07:07:28.000Z</time>
      </trkpt>
      <trkpt lat="49.83942" lon="4.78707">
        <ele>325</ele>
        <time>2022-08-19T07:07:29.000Z</time>
      </trkpt>
      <trkpt lat="49.83943" lon="4.78708">
        <ele>325</ele>
        <time>2022-08-19T07:07:30.000Z</time>
      </trkpt>
      <trkpt lat="49.83945" lon="4.78708">
        <ele>326</ele>
        <time>2022-08-19T07:07:31.000Z</time>
      </trkpt>
      <trkpt lat="49.83946" lon="4.78708">
        <ele>326</ele>
        <time>2022-08-19T07:07:32.000Z</time>
      </trkpt>
      <trkpt lat="49.83948" lon="4.78709">
        <ele>326</ele>
        <time>2022-08-19T07:07:33.000Z</time>
      </trkpt>
      <trkpt lat="49.8395" lon="4.78709">
        <ele>326</ele>
        <time>2022-08-19T07:07:34.000Z</time>
      </trkpt>
      <trkpt lat="49.83952" lon="4.7871">
        <ele>326</ele>
        <time>2022-08-19T07:07:35.000Z</time>
      </trkpt>
      <trkpt lat="49.83953" lon="4.7871">
        <ele>327</ele>
        <time>2022-08-19T07:07:36.000Z</time>
      </trkpt>
      <trkpt lat="49.83955" lon="4.78711">
        <ele>327</ele>
        <time>2022-08-19T07:07:37.000Z</time>
      </trkpt>
      <trkpt lat="49.83957" lon="4.78712">
        <ele>327</ele>
        <time>2022-08-19T07:07:38.000Z</time>
      </trkpt>
      <trkpt lat="49.83959" lon="4.78712">
        <ele>327</ele>
        <time>2022-08-19T07:07:39.000Z</time>
      </trkpt>
      <trkpt lat="49.83961" lon="4.78712">
        <ele>327</ele>
        <time>2022-08-19T07:07:40.000Z</time>
      </trkpt>
      <trkpt lat="49.83963" lon="4.78713">
        <ele>328</ele>
        <time>2022-08-19T07:07:41.000Z</time>
      </trkpt>
      <trkpt lat="49.83964" lon="4.78714">
        <ele>328</ele>
        <time>2022-08-19T07:07:42.000Z</time>
      </trkpt>
      <trkpt lat="49.83966" lon="4.78714">
        <ele>328</ele>
        <time>2022-08-19T07:07:43.000Z</time>
      </trkpt>
      <trkpt lat="49.83968" lon="4.78714">
        <ele>328</ele>
        <time>2022-08-19T07:07:44.000Z</time>
      </trkpt>
      <trkpt lat="49.8397" lon="4.78714">
        <ele>328</ele>
        <time>2022-08-19T07:07:45.000Z</time>
      </trkpt>
      <trkpt lat="49.83972" lon="4.78715">
        <ele>328</ele>
        <time>2022-08-19T07:07:46.000Z</time>
      </trkpt>
      <trkpt lat="49.83974" lon="4.78716">
        <ele>329</ele>
        <time>2022-08-19T07:07:47.000Z</time>
      </trkpt>
      <trkpt lat="49.83976" lon="4.78716">
        <ele>329</ele>
        <time>2022-08-19T07:07:48.000Z</time>
      </trkpt>
      <trkpt lat="49.83978" lon="4.78716">
        <ele>329</ele>
        <time>2022-08-19T07:07:49.000Z</time>
      </trkpt>
      <trkpt lat="49.83979" lon="4.78717">
        <ele>329</ele>
        <time>2022-08-19T07:07:50.000Z</time>
      </trkpt>
      <trkpt lat="49.83981" lon="4.78717">
        <ele>330</ele>
        <time>2022-08-19T07:07:51.000Z</time>
      </trkpt>
      <trkpt lat="49.83983" lon="4.78718">
        <ele>330</ele>
        <time>2022-08-19T07:07:52.000Z</time>
      </trkpt>
      <trkpt lat="49.83986" lon="4.78718">
        <ele>330</ele>
        <time>2022-08-19T07:07:53.000Z</time>
      </trkpt>
      <trkpt lat="49.83988" lon="4.78719">
        <ele>331</ele>
        <time>2022-08-19T07:07:54.000Z</time>
      </trkpt>
      <trkpt lat="49.83989" lon="4.7872">
        <ele>331</ele>
        <time>2022-08-19T07:07:55.000Z</time>
      </trkpt>
      <trkpt lat="49.83991" lon="4.7872">
        <ele>331</ele>
        <time>2022-08-19T07:07:56.000Z</time>
      </trkpt>
      <trkpt lat="49.83993" lon="4.78721">
        <ele>332</ele>
        <time>2022-08-19T07:07:57.000Z</time>
      </trkpt>
      <trkpt lat="49.83995" lon="4.78721">
        <ele>332</ele>
        <time>2022-08-19T07:07:58.000Z</time>
      </trkpt>
      <trkpt lat="49.83997" lon="4.78721">
        <ele>332</ele>
        <time>2022-08-19T07:07:59.000Z</time>
      </trkpt>
      <trkpt lat="49.83999" lon="4.78722">
        <ele>333</ele>
        <time>2022-08-19T07:08:00.000Z</time>
      </trkpt>
      <trkpt lat="49.84001" lon="4.78723">
        <ele>333</ele>
        <time>2022-08-19T07:08:01.000Z</time>
      </trkpt>
      <trkpt lat="49.84004" lon="4.78724">
        <ele>333</ele>
        <time>2022-08-19T07:08:02.000Z</time>
      </trkpt>
      <trkpt lat="49.84006" lon="4.78725">
        <ele>333</ele>
        <time>2022-08-19T07:08:03.000Z</time>
      </trkpt>
      <trkpt lat="49.84008" lon="4.78726">
        <ele>334</ele>
        <time>2022-08-19T07:08:04.000Z</time>
      </trkpt>
      <trkpt lat="49.84011" lon="4.78727">
        <ele>334</ele>
        <time>2022-08-19T07:08:05.000Z</time>
      </trkpt>
      <trkpt lat="49.84013" lon="4.78727">
        <ele>334</ele>
        <time>2022-08-19T07:08:06.000Z</time>
      </trkpt>
      <trkpt lat="49.84016" lon="4.78728">
        <ele>334</ele>
        <time>2022-08-19T07:08:07.000Z</time>
      </trkpt>
      <trkpt lat="49.84019" lon="4.7873">
        <ele>334</ele>
        <time>2022-08-19T07:08:08.000Z</time>
      </trkpt>
      <trkpt lat="49.84022" lon="4.78731">
        <ele>334</ele>
        <time>2022-08-19T07:08:09.000Z</time>
      </trkpt>
      <trkpt lat="49.84024" lon="4.78731">
        <ele>334</ele>
        <time>2022-08-19T07:08:10.000Z</time>
      </trkpt>
      <trkpt lat="49.84027" lon="4.78732">
        <ele>334</ele>
        <time>2022-08-19T07:08:11.000Z</time>
      </trkpt>
      <trkpt lat="49.8403" lon="4.78732">
        <ele>334</ele>
        <time>2022-08-19T07:08:12.000Z</time>
      </trkpt>
      <trkpt lat="49.84033" lon="4.78733">
        <ele>334</ele>
        <time>2022-08-19T07:08:13.000Z</time>
      </trkpt>
      <trkpt lat="49.84035" lon="4.78734">
        <ele>334</ele>
        <time>2022-08-19T07:08:14.000Z</time>
      </trkpt>
      <trkpt lat="49.84038" lon="4.78735">
        <ele>335</ele>
        <time>2022-08-19T07:08:15.000Z</time>
      </trkpt>
      <trkpt lat="49.84041" lon="4.78736">
        <ele>335</ele>
        <time>2022-08-19T07:08:16.000Z</time>
      </trkpt>
      <trkpt lat="49.84044" lon="4.78737">
        <ele>335</ele>
        <time>2022-08-19T07:08:17.000Z</time>
      </trkpt>
      <trkpt lat="49.84047" lon="4.78739">
        <ele>335</ele>
        <time>2022-08-19T07:08:18.000Z</time>
      </trkpt>
      <trkpt lat="49.8405" lon="4.7874">
        <ele>335</ele>
        <time>2022-08-19T07:08:19.000Z</time>
      </trkpt>
      <trkpt lat="49.84052" lon="4.7874">
        <ele>335</ele>
        <time>2022-08-19T07:08:20.000Z</time>
      </trkpt>
      <trkpt lat="49.84055" lon="4.78742">
        <ele>336</ele>
        <time>2022-08-19T07:08:21.000Z</time>
      </trkpt>
      <trkpt lat="49.84058" lon="4.78743">
        <ele>336</ele>
        <time>2022-08-19T07:08:22.000Z</time>
      </trkpt>
      <trkpt lat="49.84061" lon="4.78743">
        <ele>336</ele>
        <time>2022-08-19T07:08:23.000Z</time>
      </trkpt>
      <trkpt lat="49.84064" lon="4.78744">
        <ele>336</ele>
        <time>2022-08-19T07:08:24.000Z</time>
      </trkpt>
      <trkpt lat="49.84067" lon="4.78745">
        <ele>336</ele>
        <time>2022-08-19T07:08:25.000Z</time>
      </trkpt>
      <trkpt lat="49.8407" lon="4.78746">
        <ele>337</ele>
        <time>2022-08-19T07:08:26.000Z</time>
      </trkpt>
      <trkpt lat="49.84072" lon="4.78747">
        <ele>337</ele>
        <time>2022-08-19T07:08:27.000Z</time>
      </trkpt>
      <trkpt lat="49.84074" lon="4.78748">
        <ele>337</ele>
        <time>2022-08-19T07:08:28.000Z</time>
      </trkpt>
      <trkpt lat="49.84076" lon="4.78748">
        <ele>337</ele>
        <time>2022-08-19T07:08:29.000Z</time>
      </trkpt>
      <trkpt lat="49.84079" lon="4.78748">
        <ele>337</ele>
        <time>2022-08-19T07:08:30.000Z</time>
      </trkpt>
      <trkpt lat="49.84081" lon="4.78749">
        <ele>337</ele>
        <time>2022-08-19T07:08:31.000Z</time>
      </trkpt>
      <trkpt lat="49.84083" lon="4.7875">
        <ele>337</ele>
        <time>2022-08-19T07:08:32.000Z</time>
      </trkpt>
      <trkpt lat="49.84085" lon="4.78751">
        <ele>337</ele>
        <time>2022-08-19T07:08:33.000Z</time>
      </trkpt>
      <trkpt lat="49.84086" lon="4.78752">
        <ele>337</ele>
        <time>2022-08-19T07:08:34.000Z</time>
      </trkpt>
      <trkpt lat="49.84088" lon="4.78752">
        <ele>338</ele>
        <time>2022-08-19T07:08:35.000Z</time>
      </trkpt>
      <trkpt lat="49.84091" lon="4.78753">
        <ele>338</ele>
        <time>2022-08-19T07:08:36.000Z</time>
      </trkpt>
      <trkpt lat="49.84093" lon="4.78753">
        <ele>338</ele>
        <time>2022-08-19T07:08:37.000Z</time>
      </trkpt>
      <trkpt lat="49.84096" lon="4.78754">
        <ele>338</ele>
        <time>2022-08-19T07:08:38.000Z</time>
      </trkpt>
      <trkpt lat="49.84099" lon="4.78755">
        <ele>338</ele>
        <time>2022-08-19T07:08:39.000Z</time>
      </trkpt>
      <trkpt lat="49.84102" lon="4.78756">
        <ele>338</ele>
        <time>2022-08-19T07:08:40.000Z</time>
      </trkpt>
      <trkpt lat="49.84104" lon="4.78757">
        <ele>338</ele>
        <time>2022-08-19T07:08:41.000Z</time>
      </trkpt>
      <trkpt lat="49.84108" lon="4.78758">
        <ele>338</ele>
        <time>2022-08-19T07:08:42.000Z</time>
      </trkpt>
      <trkpt lat="49.84111" lon="4.78758">
        <ele>338</ele>
        <time>2022-08-19T07:08:43.000Z</time>
      </trkpt>
      <trkpt lat="49.84115" lon="4.78759">
        <ele>338</ele>
        <time>2022-08-19T07:08:44.000Z</time>
      </trkpt>
      <trkpt lat="49.84119" lon="4.7876">
        <ele>338</ele>
        <time>2022-08-19T07:08:45.000Z</time>
      </trkpt>
      <trkpt lat="49.84122" lon="4.78761">
        <ele>338</ele>
        <time>2022-08-19T07:08:46.000Z</time>
      </trkpt>
      <trkpt lat="49.84126" lon="4.78762">
        <ele>338</ele>
        <time>2022-08-19T07:08:47.000Z</time>
      </trkpt>
      <trkpt lat="49.8413" lon="4.78763">
        <ele>338</ele>
        <time>2022-08-19T07:08:48.000Z</time>
      </trkpt>
      <trkpt lat="49.84134" lon="4.78764">
        <ele>338</ele>
        <time>2022-08-19T07:08:49.000Z</time>
      </trkpt>
      <trkpt lat="49.84138" lon="4.78765">
        <ele>338</ele>
        <time>2022-08-19T07:08:50.000Z</time>
      </trkpt>
      <trkpt lat="49.84141" lon="4.78766">
        <ele>338</ele>
        <time>2022-08-19T07:08:51.000Z</time>
      </trkpt>
      <trkpt lat="49.84145" lon="4.78767">
        <ele>338</ele>
        <time>2022-08-19T07:08:52.000Z</time>
      </trkpt>
      <trkpt lat="49.84149" lon="4.78768">
        <ele>338</ele>
        <time>2022-08-19T07:08:53.000Z</time>
      </trkpt>
      <trkpt lat="49.84153" lon="4.78769">
        <ele>338</ele>
        <time>2022-08-19T07:08:54.000Z</time>
      </trkpt>
      <trkpt lat="49.84157" lon="4.7877">
        <ele>338</ele>
        <time>2022-08-19T07:08:55.000Z</time>
      </trkpt>
      <trkpt lat="49.8416" lon="4.78771">
        <ele>338</ele>
        <time>2022-08-19T07:08:56.000Z</time>
      </trkpt>
      <trkpt lat="49.84164" lon="4.78772">
        <ele>338</ele>
        <time>2022-08-19T07:08:57.000Z</time>
      </trkpt>
      <trkpt lat="49.84168" lon="4.78773">
        <ele>338</ele>
        <time>2022-08-19T07:08:58.000Z</time>
      </trkpt>
      <trkpt lat="49.84172" lon="4.78774">
        <ele>338</ele>
        <time>2022-08-19T07:08:59.000Z</time>
      </trkpt>
      <trkpt lat="49.84175" lon="4.78776">
        <ele>338</ele>
        <time>2022-08-19T07:09:00.000Z</time>
      </trkpt>
      <trkpt lat="49.84179" lon="4.78777">
        <ele>338</ele>
        <time>2022-08-19T07:09:01.000Z</time>
      </trkpt>
      <trkpt lat="49.84182" lon="4.78778">
        <ele>338</ele>
        <time>2022-08-19T07:09:02.000Z</time>
      </trkpt>
      <trkpt lat="49.84185" lon="4.78779">
        <ele>338</ele>
        <time>2022-08-19T07:09:03.000Z</time>
      </trkpt>
      <trkpt lat="49.84189" lon="4.7878">
        <ele>338</ele>
        <time>2022-08-19T07:09:04.000Z</time>
      </trkpt>
      <trkpt lat="49.84192" lon="4.78781">
        <ele>339</ele>
        <time>2022-08-19T07:09:05.000Z</time>
      </trkpt>
      <trkpt lat="49.84195" lon="4.78782">
        <ele>339</ele>
        <time>2022-08-19T07:09:06.000Z</time>
      </trkpt>
      <trkpt lat="49.84197" lon="4.78782">
        <ele>339</ele>
        <time>2022-08-19T07:09:07.000Z</time>
      </trkpt>
      <trkpt lat="49.842" lon="4.78783">
        <ele>339</ele>
        <time>2022-08-19T07:09:08.000Z</time>
      </trkpt>
      <trkpt lat="49.84203" lon="4.78784">
        <ele>339</ele>
        <time>2022-08-19T07:09:09.000Z</time>
      </trkpt>
      <trkpt lat="49.84207" lon="4.78785">
        <ele>340</ele>
        <time>2022-08-19T07:09:10.000Z</time>
      </trkpt>
      <trkpt lat="49.8421" lon="4.78785">
        <ele>340</ele>
        <time>2022-08-19T07:09:11.000Z</time>
      </trkpt>
      <trkpt lat="49.84213" lon="4.78786">
        <ele>340</ele>
        <time>2022-08-19T07:09:12.000Z</time>
      </trkpt>
      <trkpt lat="49.84216" lon="4.78786">
        <ele>341</ele>
        <time>2022-08-19T07:09:13.000Z</time>
      </trkpt>
      <trkpt lat="49.8422" lon="4.78786">
        <ele>341</ele>
        <time>2022-08-19T07:09:14.000Z</time>
      </trkpt>
      <trkpt lat="49.84223" lon="4.78787">
        <ele>341</ele>
        <time>2022-08-19T07:09:15.000Z</time>
      </trkpt>
      <trkpt lat="49.84226" lon="4.78787">
        <ele>341</ele>
        <time>2022-08-19T07:09:16.000Z</time>
      </trkpt>
      <trkpt lat="49.84229" lon="4.78787">
        <ele>342</ele>
        <time>2022-08-19T07:09:17.000Z</time>
      </trkpt>
      <trkpt lat="49.84233" lon="4.78788">
        <ele>342</ele>
        <time>2022-08-19T07:09:18.000Z</time>
      </trkpt>
      <trkpt lat="49.84236" lon="4.78789">
        <ele>342</ele>
        <time>2022-08-19T07:09:19.000Z</time>
      </trkpt>
      <trkpt lat="49.8424" lon="4.7879">
        <ele>343</ele>
        <time>2022-08-19T07:09:20.000Z</time>
      </trkpt>
      <trkpt lat="49.84243" lon="4.7879">
        <ele>343</ele>
        <time>2022-08-19T07:09:21.000Z</time>
      </trkpt>
      <trkpt lat="49.84246" lon="4.7879">
        <ele>343</ele>
        <time>2022-08-19T07:09:22.000Z</time>
      </trkpt>
      <trkpt lat="49.8425" lon="4.7879">
        <ele>343</ele>
        <time>2022-08-19T07:09:23.000Z</time>
      </trkpt>
      <trkpt lat="49.84253" lon="4.78791">
        <ele>343</ele>
        <time>2022-08-19T07:09:24.000Z</time>
      </trkpt>
      <trkpt lat="49.84256" lon="4.78791">
        <ele>344</ele>
        <time>2022-08-19T07:09:25.000Z</time>
      </trkpt>
      <trkpt lat="49.8426" lon="4.78791">
        <ele>344</ele>
        <time>2022-08-19T07:09:26.000Z</time>
      </trkpt>
      <trkpt lat="49.84264" lon="4.78791">
        <ele>344</ele>
        <time>2022-08-19T07:09:27.000Z</time>
      </trkpt>
      <trkpt lat="49.84269" lon="4.78791">
        <ele>344</ele>
        <time>2022-08-19T07:09:28.000Z</time>
      </trkpt>
      <trkpt lat="49.84273" lon="4.78789">
        <ele>344</ele>
        <time>2022-08-19T07:09:29.000Z</time>
      </trkpt>
      <trkpt lat="49.84278" lon="4.78788">
        <ele>344</ele>
        <time>2022-08-19T07:09:30.000Z</time>
      </trkpt>
      <trkpt lat="49.84283" lon="4.78788">
        <ele>344</ele>
        <time>2022-08-19T07:09:31.000Z</time>
      </trkpt>
      <trkpt lat="49.84288" lon="4.78786">
        <ele>344</ele>
        <time>2022-08-19T07:09:32.000Z</time>
      </trkpt>
      <trkpt lat="49.84292" lon="4.78785">
        <ele>343</ele>
        <time>2022-08-19T07:09:33.000Z</time>
      </trkpt>
      <trkpt lat="49.84297" lon="4.78784">
        <ele>343</ele>
        <time>2022-08-19T07:09:34.000Z</time>
      </trkpt>
      <trkpt lat="49.84302" lon="4.78784">
        <ele>343</ele>
        <time>2022-08-19T07:09:35.000Z</time>
      </trkpt>
      <trkpt lat="49.84307" lon="4.78784">
        <ele>343</ele>
        <time>2022-08-19T07:09:36.000Z</time>
      </trkpt>
      <trkpt lat="49.84312" lon="4.78784">
        <ele>343</ele>
        <time>2022-08-19T07:09:37.000Z</time>
      </trkpt>
      <trkpt lat="49.84317" lon="4.78784">
        <ele>343</ele>
        <time>2022-08-19T07:09:38.000Z</time>
      </trkpt>
      <trkpt lat="49.84322" lon="4.78784">
        <ele>343</ele>
        <time>2022-08-19T07:09:39.000Z</time>
      </trkpt>
      <trkpt lat="49.84326" lon="4.78784">
        <ele>342</ele>
        <time>2022-08-19T07:09:40.000Z</time>
      </trkpt>
      <trkpt lat="49.8433" lon="4.78783">
        <ele>342</ele>
        <time>2022-08-19T07:09:41.000Z</time>
      </trkpt>
      <trkpt lat="49.84334" lon="4.78782">
        <ele>342</ele>
        <time>2022-08-19T07:09:42.000Z</time>
      </trkpt>
      <trkpt lat="49.84339" lon="4.78781">
        <ele>341</ele>
        <time>2022-08-19T07:09:43.000Z</time>
      </trkpt>
      <trkpt lat="49.84343" lon="4.78781">
        <ele>341</ele>
        <time>2022-08-19T07:09:44.000Z</time>
      </trkpt>
      <trkpt lat="49.84347" lon="4.78781">
        <ele>340</ele>
        <time>2022-08-19T07:09:45.000Z</time>
      </trkpt>
      <trkpt lat="49.84352" lon="4.78781">
        <ele>340</ele>
        <time>2022-08-19T07:09:46.000Z</time>
      </trkpt>
      <trkpt lat="49.84357" lon="4.7878">
        <ele>339</ele>
        <time>2022-08-19T07:09:47.000Z</time>
      </trkpt>
      <trkpt lat="49.84361" lon="4.78778">
        <ele>339</ele>
        <time>2022-08-19T07:09:48.000Z</time>
      </trkpt>
      <trkpt lat="49.84367" lon="4.78777">
        <ele>338</ele>
        <time>2022-08-19T07:09:49.000Z</time>
      </trkpt>
      <trkpt lat="49.84372" lon="4.78775">
        <ele>338</ele>
        <time>2022-08-19T07:09:50.000Z</time>
      </trkpt>
      <trkpt lat="49.84378" lon="4.78773">
        <ele>337</ele>
        <time>2022-08-19T07:09:51.000Z</time>
      </trkpt>
      <trkpt lat="49.84383" lon="4.7877">
        <ele>337</ele>
        <time>2022-08-19T07:09:52.000Z</time>
      </trkpt>
      <trkpt lat="49.84388" lon="4.78767">
        <ele>337</ele>
        <time>2022-08-19T07:09:53.000Z</time>
      </trkpt>
      <trkpt lat="49.84392" lon="4.78764">
        <ele>336</ele>
        <time>2022-08-19T07:09:54.000Z</time>
      </trkpt>
      <trkpt lat="49.84397" lon="4.78762">
        <ele>336</ele>
        <time>2022-08-19T07:09:55.000Z</time>
      </trkpt>
      <trkpt lat="49.84402" lon="4.7876">
        <ele>336</ele>
        <time>2022-08-19T07:09:56.000Z</time>
      </trkpt>
      <trkpt lat="49.84407" lon="4.78759">
        <ele>336</ele>
        <time>2022-08-19T07:09:57.000Z</time>
      </trkpt>
      <trkpt lat="49.84411" lon="4.78759">
        <ele>336</ele>
        <time>2022-08-19T07:09:58.000Z</time>
      </trkpt>
      <trkpt lat="49.84416" lon="4.78759">
        <ele>335</ele>
        <time>2022-08-19T07:09:59.000Z</time>
      </trkpt>
      <trkpt lat="49.84421" lon="4.78759">
        <ele>335</ele>
        <time>2022-08-19T07:10:00.000Z</time>
      </trkpt>
      <trkpt lat="49.84425" lon="4.7876">
        <ele>335</ele>
        <time>2022-08-19T07:10:01.000Z</time>
      </trkpt>
      <trkpt lat="49.8443" lon="4.78759">
        <ele>335</ele>
        <time>2022-08-19T07:10:02.000Z</time>
      </trkpt>
      <trkpt lat="49.84434" lon="4.78757">
        <ele>335</ele>
        <time>2022-08-19T07:10:03.000Z</time>
      </trkpt>
      <trkpt lat="49.84438" lon="4.78755">
        <ele>335</ele>
        <time>2022-08-19T07:10:04.000Z</time>
      </trkpt>
      <trkpt lat="49.84442" lon="4.78752">
        <ele>334</ele>
        <time>2022-08-19T07:10:05.000Z</time>
      </trkpt>
      <trkpt lat="49.84445" lon="4.78746">
        <ele>334</ele>
        <time>2022-08-19T07:10:06.000Z</time>
      </trkpt>
      <trkpt lat="49.84448" lon="4.7874">
        <ele>334</ele>
        <time>2022-08-19T07:10:07.000Z</time>
      </trkpt>
      <trkpt lat="49.84451" lon="4.78732">
        <ele>333</ele>
        <time>2022-08-19T07:10:08.000Z</time>
      </trkpt>
      <trkpt lat="49.84453" lon="4.78724">
        <ele>333</ele>
        <time>2022-08-19T07:10:09.000Z</time>
      </trkpt>
      <trkpt lat="49.84455" lon="4.78715">
        <ele>333</ele>
        <time>2022-08-19T07:10:10.000Z</time>
      </trkpt>
      <trkpt lat="49.84456" lon="4.78708">
        <ele>333</ele>
        <time>2022-08-19T07:10:11.000Z</time>
      </trkpt>
      <trkpt lat="49.84457" lon="4.78702">
        <ele>332</ele>
        <time>2022-08-19T07:10:12.000Z</time>
      </trkpt>
      <trkpt lat="49.84458" lon="4.78697">
        <ele>332</ele>
        <time>2022-08-19T07:10:13.000Z</time>
      </trkpt>
      <trkpt lat="49.84458" lon="4.78694">
        <ele>332</ele>
        <time>2022-08-19T07:10:14.000Z</time>
      </trkpt>
      <trkpt lat="49.84459" lon="4.78691">
        <ele>332</ele>
        <time>2022-08-19T07:10:15.000Z</time>
      </trkpt>
      <trkpt lat="49.84459" lon="4.78688">
        <ele>331</ele>
        <time>2022-08-19T07:10:16.000Z</time>
      </trkpt>
      <trkpt lat="49.84459" lon="4.78686">
        <ele>331</ele>
        <time>2022-08-19T07:10:17.000Z</time>
      </trkpt>
      <trkpt lat="49.84459" lon="4.78682">
        <ele>331</ele>
        <time>2022-08-19T07:10:18.000Z</time>
      </trkpt>
      <trkpt lat="49.84459" lon="4.78677">
        <ele>331</ele>
        <time>2022-08-19T07:10:19.000Z</time>
      </trkpt>
      <trkpt lat="49.8446" lon="4.78671">
        <ele>330</ele>
        <time>2022-08-19T07:10:20.000Z</time>
      </trkpt>
      <trkpt lat="49.8446" lon="4.78665">
        <ele>330</ele>
        <time>2022-08-19T07:10:21.000Z</time>
      </trkpt>
      <trkpt lat="49.84461" lon="4.78661">
        <ele>330</ele>
        <time>2022-08-19T07:10:22.000Z</time>
      </trkpt>
      <trkpt lat="49.84463" lon="4.78656">
        <ele>330</ele>
        <time>2022-08-19T07:10:23.000Z</time>
      </trkpt>
      <trkpt lat="49.84464" lon="4.78653">
        <ele>329</ele>
        <time>2022-08-19T07:10:24.000Z</time>
      </trkpt>
      <trkpt lat="49.84467" lon="4.7865">
        <ele>329</ele>
        <time>2022-08-19T07:10:25.000Z</time>
      </trkpt>
      <trkpt lat="49.84469" lon="4.78647">
        <ele>329</ele>
        <time>2022-08-19T07:10:26.000Z</time>
      </trkpt>
      <trkpt lat="49.84471" lon="4.78645">
        <ele>329</ele>
        <time>2022-08-19T07:10:27.000Z</time>
      </trkpt>
      <trkpt lat="49.84473" lon="4.78644">
        <ele>329</ele>
        <time>2022-08-19T07:10:28.000Z</time>
      </trkpt>
      <trkpt lat="49.84475" lon="4.78643">
        <ele>328</ele>
        <time>2022-08-19T07:10:29.000Z</time>
      </trkpt>
      <trkpt lat="49.84476" lon="4.78642">
        <ele>328</ele>
        <time>2022-08-19T07:10:30.000Z</time>
      </trkpt>
      <trkpt lat="49.84478" lon="4.7864">
        <ele>328</ele>
        <time>2022-08-19T07:10:31.000Z</time>
      </trkpt>
      <trkpt lat="49.8448" lon="4.78638">
        <ele>328</ele>
        <time>2022-08-19T07:10:32.000Z</time>
      </trkpt>
      <trkpt lat="49.84482" lon="4.78636">
        <ele>328</ele>
        <time>2022-08-19T07:10:33.000Z</time>
      </trkpt>
      <trkpt lat="49.84485" lon="4.78635">
        <ele>327</ele>
        <time>2022-08-19T07:10:34.000Z</time>
      </trkpt>
      <trkpt lat="49.84488" lon="4.78634">
        <ele>327</ele>
        <time>2022-08-19T07:10:35.000Z</time>
      </trkpt>
      <trkpt lat="49.8449" lon="4.78633">
        <ele>327</ele>
        <time>2022-08-19T07:10:36.000Z</time>
      </trkpt>
      <trkpt lat="49.84493" lon="4.78631">
        <ele>327</ele>
        <time>2022-08-19T07:10:37.000Z</time>
      </trkpt>
      <trkpt lat="49.84495" lon="4.78631">
        <ele>327</ele>
        <time>2022-08-19T07:10:38.000Z</time>
      </trkpt>
      <trkpt lat="49.84498" lon="4.78629">
        <ele>327</ele>
        <time>2022-08-19T07:10:39.000Z</time>
      </trkpt>
      <trkpt lat="49.845" lon="4.78628">
        <ele>327</ele>
        <time>2022-08-19T07:10:40.000Z</time>
      </trkpt>
      <trkpt lat="49.84503" lon="4.78627">
        <ele>327</ele>
        <time>2022-08-19T07:10:41.000Z</time>
      </trkpt>
      <trkpt lat="49.84505" lon="4.78626">
        <ele>327</ele>
        <time>2022-08-19T07:10:42.000Z</time>
      </trkpt>
      <trkpt lat="49.84508" lon="4.78624">
        <ele>327</ele>
        <time>2022-08-19T07:10:43.000Z</time>
      </trkpt>
      <trkpt lat="49.8451" lon="4.78622">
        <ele>328</ele>
        <time>2022-08-19T07:10:44.000Z</time>
      </trkpt>
      <trkpt lat="49.84512" lon="4.7862">
        <ele>328</ele>
        <time>2022-08-19T07:10:45.000Z</time>
      </trkpt>
      <trkpt lat="49.84515" lon="4.78618">
        <ele>328</ele>
        <time>2022-08-19T07:10:46.000Z</time>
      </trkpt>
      <trkpt lat="49.84517" lon="4.78617">
        <ele>328</ele>
        <time>2022-08-19T07:10:47.000Z</time>
      </trkpt>
      <trkpt lat="49.84519" lon="4.78615">
        <ele>328</ele>
        <time>2022-08-19T07:10:48.000Z</time>
      </trkpt>
      <trkpt lat="49.84521" lon="4.78613">
        <ele>328</ele>
        <time>2022-08-19T07:10:49.000Z</time>
      </trkpt>
      <trkpt lat="49.84523" lon="4.78612">
        <ele>329</ele>
        <time>2022-08-19T07:10:50.000Z</time>
      </trkpt>
      <trkpt lat="49.84526" lon="4.7861">
        <ele>329</ele>
        <time>2022-08-19T07:10:51.000Z</time>
      </trkpt>
      <trkpt lat="49.84528" lon="4.78609">
        <ele>329</ele>
        <time>2022-08-19T07:10:52.000Z</time>
      </trkpt>
      <trkpt lat="49.8453" lon="4.78608">
        <ele>329</ele>
        <time>2022-08-19T07:10:53.000Z</time>
      </trkpt>
      <trkpt lat="49.84532" lon="4.78607">
        <ele>330</ele>
        <time>2022-08-19T07:10:54.000Z</time>
      </trkpt>
      <trkpt lat="49.84534" lon="4.78606">
        <ele>330</ele>
        <time>2022-08-19T07:10:55.000Z</time>
      </trkpt>
      <trkpt lat="49.84537" lon="4.78604">
        <ele>330</ele>
        <time>2022-08-19T07:10:56.000Z</time>
      </trkpt>
      <trkpt lat="49.84539" lon="4.78602">
        <ele>330</ele>
        <time>2022-08-19T07:10:57.000Z</time>
      </trkpt>
      <trkpt lat="49.84541" lon="4.786">
        <ele>330</ele>
        <time>2022-08-19T07:10:58.000Z</time>
      </trkpt>
      <trkpt lat="49.84543" lon="4.78598">
        <ele>331</ele>
        <time>2022-08-19T07:10:59.000Z</time>
      </trkpt>
      <trkpt lat="49.84545" lon="4.78596">
        <ele>331</ele>
        <time>2022-08-19T07:11:00.000Z</time>
      </trkpt>
      <trkpt lat="49.84548" lon="4.78594">
        <ele>331</ele>
        <time>2022-08-19T07:11:01.000Z</time>
      </trkpt>
      <trkpt lat="49.8455" lon="4.78593">
        <ele>331</ele>
        <time>2022-08-19T07:11:02.000Z</time>
      </trkpt>
      <trkpt lat="49.84552" lon="4.78592">
        <ele>331</ele>
        <time>2022-08-19T07:11:03.000Z</time>
      </trkpt>
      <trkpt lat="49.84554" lon="4.78591">
        <ele>331</ele>
        <time>2022-08-19T07:11:04.000Z</time>
      </trkpt>
      <trkpt lat="49.84556" lon="4.7859">
        <ele>331</ele>
        <time>2022-08-19T07:11:05.000Z</time>
      </trkpt>
      <trkpt lat="49.84558" lon="4.78589">
        <ele>332</ele>
        <time>2022-08-19T07:11:06.000Z</time>
      </trkpt>
      <trkpt lat="49.84561" lon="4.78588">
        <ele>332</ele>
        <time>2022-08-19T07:11:07.000Z</time>
      </trkpt>
      <trkpt lat="49.84563" lon="4.78587">
        <ele>332</ele>
        <time>2022-08-19T07:11:08.000Z</time>
      </trkpt>
      <trkpt lat="49.84565" lon="4.78587">
        <ele>332</ele>
        <time>2022-08-19T07:11:09.000Z</time>
      </trkpt>
      <trkpt lat="49.84567" lon="4.78587">
        <ele>332</ele>
        <time>2022-08-19T07:11:10.000Z</time>
      </trkpt>
      <trkpt lat="49.8457" lon="4.78587">
        <ele>332</ele>
        <time>2022-08-19T07:11:11.000Z</time>
      </trkpt>
      <trkpt lat="49.84572" lon="4.78587">
        <ele>332</ele>
        <time>2022-08-19T07:11:12.000Z</time>
      </trkpt>
      <trkpt lat="49.84574" lon="4.78587">
        <ele>332</ele>
        <time>2022-08-19T07:11:13.000Z</time>
      </trkpt>
      <trkpt lat="49.84576" lon="4.78588">
        <ele>332</ele>
        <time>2022-08-19T07:11:14.000Z</time>
      </trkpt>
      <trkpt lat="49.84578" lon="4.78588">
        <ele>333</ele>
        <time>2022-08-19T07:11:15.000Z</time>
      </trkpt>
      <trkpt lat="49.84581" lon="4.78589">
        <ele>333</ele>
        <time>2022-08-19T07:11:16.000Z</time>
      </trkpt>
      <trkpt lat="49.84583" lon="4.7859">
        <ele>333</ele>
        <time>2022-08-19T07:11:17.000Z</time>
      </trkpt>
      <trkpt lat="49.84586" lon="4.78591">
        <ele>333</ele>
        <time>2022-08-19T07:11:18.000Z</time>
      </trkpt>
      <trkpt lat="49.84588" lon="4.78592">
        <ele>333</ele>
        <time>2022-08-19T07:11:19.000Z</time>
      </trkpt>
      <trkpt lat="49.84591" lon="4.78592">
        <ele>333</ele>
        <time>2022-08-19T07:11:20.000Z</time>
      </trkpt>
      <trkpt lat="49.84593" lon="4.78593">
        <ele>333</ele>
        <time>2022-08-19T07:11:21.000Z</time>
      </trkpt>
      <trkpt lat="49.84595" lon="4.78595">
        <ele>333</ele>
        <time>2022-08-19T07:11:22.000Z</time>
      </trkpt>
      <trkpt lat="49.84598" lon="4.78596">
        <ele>333</ele>
        <time>2022-08-19T07:11:23.000Z</time>
      </trkpt>
      <trkpt lat="49.846" lon="4.78597">
        <ele>333</ele>
        <time>2022-08-19T07:11:24.000Z</time>
      </trkpt>
      <trkpt lat="49.84602" lon="4.78598">
        <ele>333</ele>
        <time>2022-08-19T07:11:25.000Z</time>
      </trkpt>
      <trkpt lat="49.84604" lon="4.78599">
        <ele>333</ele>
        <time>2022-08-19T07:11:26.000Z</time>
      </trkpt>
      <trkpt lat="49.84606" lon="4.78601">
        <ele>333</ele>
        <time>2022-08-19T07:11:27.000Z</time>
      </trkpt>
      <trkpt lat="49.84608" lon="4.78602">
        <ele>333</ele>
        <time>2022-08-19T07:11:28.000Z</time>
      </trkpt>
      <trkpt lat="49.84611" lon="4.78604">
        <ele>333</ele>
        <time>2022-08-19T07:11:29.000Z</time>
      </trkpt>
      <trkpt lat="49.84613" lon="4.78606">
        <ele>333</ele>
        <time>2022-08-19T07:11:30.000Z</time>
      </trkpt>
      <trkpt lat="49.84616" lon="4.78607">
        <ele>333</ele>
        <time>2022-08-19T07:11:31.000Z</time>
      </trkpt>
      <trkpt lat="49.84618" lon="4.78608">
        <ele>333</ele>
        <time>2022-08-19T07:11:32.000Z</time>
      </trkpt>
      <trkpt lat="49.84621" lon="4.78609">
        <ele>333</ele>
        <time>2022-08-19T07:11:33.000Z</time>
      </trkpt>
      <trkpt lat="49.84624" lon="4.78611">
        <ele>333</ele>
        <time>2022-08-19T07:11:34.000Z</time>
      </trkpt>
      <trkpt lat="49.84626" lon="4.78613">
        <ele>333</ele>
        <time>2022-08-19T07:11:35.000Z</time>
      </trkpt>
      <trkpt lat="49.8463" lon="4.78616">
        <ele>333</ele>
        <time>2022-08-19T07:11:36.000Z</time>
      </trkpt>
      <trkpt lat="49.84633" lon="4.78618">
        <ele>333</ele>
        <time>2022-08-19T07:11:37.000Z</time>
      </trkpt>
      <trkpt lat="49.84637" lon="4.78619">
        <ele>333</ele>
        <time>2022-08-19T07:11:38.000Z</time>
      </trkpt>
      <trkpt lat="49.8464" lon="4.7862">
        <ele>333</ele>
        <time>2022-08-19T07:11:39.000Z</time>
      </trkpt>
      <trkpt lat="49.84644" lon="4.78622">
        <ele>333</ele>
        <time>2022-08-19T07:11:40.000Z</time>
      </trkpt>
      <trkpt lat="49.84649" lon="4.78623">
        <ele>333</ele>
        <time>2022-08-19T07:11:41.000Z</time>
      </trkpt>
      <trkpt lat="49.84653" lon="4.78624">
        <ele>333</ele>
        <time>2022-08-19T07:11:42.000Z</time>
      </trkpt>
      <trkpt lat="49.84657" lon="4.78625">
        <ele>333</ele>
        <time>2022-08-19T07:11:43.000Z</time>
      </trkpt>
      <trkpt lat="49.84661" lon="4.78627">
        <ele>333</ele>
        <time>2022-08-19T07:11:44.000Z</time>
      </trkpt>
      <trkpt lat="49.84665" lon="4.7863">
        <ele>333</ele>
        <time>2022-08-19T07:11:45.000Z</time>
      </trkpt>
      <trkpt lat="49.84668" lon="4.78634">
        <ele>333</ele>
        <time>2022-08-19T07:11:46.000Z</time>
      </trkpt>
      <trkpt lat="49.84671" lon="4.78637">
        <ele>333</ele>
        <time>2022-08-19T07:11:47.000Z</time>
      </trkpt>
      <trkpt lat="49.84675" lon="4.7864">
        <ele>333</ele>
        <time>2022-08-19T07:11:48.000Z</time>
      </trkpt>
      <trkpt lat="49.84678" lon="4.78644">
        <ele>333</ele>
        <time>2022-08-19T07:11:49.000Z</time>
      </trkpt>
      <trkpt lat="49.84682" lon="4.78647">
        <ele>332</ele>
        <time>2022-08-19T07:11:50.000Z</time>
      </trkpt>
      <trkpt lat="49.84686" lon="4.7865">
        <ele>332</ele>
        <time>2022-08-19T07:11:51.000Z</time>
      </trkpt>
      <trkpt lat="49.8469" lon="4.78653">
        <ele>332</ele>
        <time>2022-08-19T07:11:52.000Z</time>
      </trkpt>
      <trkpt lat="49.84693" lon="4.78655">
        <ele>332</ele>
        <time>2022-08-19T07:11:53.000Z</time>
      </trkpt>
      <trkpt lat="49.84695" lon="4.78658">
        <ele>332</ele>
        <time>2022-08-19T07:11:54.000Z</time>
      </trkpt>
      <trkpt lat="49.84696" lon="4.78661">
        <ele>332</ele>
        <time>2022-08-19T07:11:55.000Z</time>
      </trkpt>
      <trkpt lat="49.84696" lon="4.78664">
        <ele>332</ele>
        <time>2022-08-19T07:11:56.000Z</time>
      </trkpt>
      <trkpt lat="49.84697" lon="4.78666">
        <ele>332</ele>
        <time>2022-08-19T07:11:57.000Z</time>
      </trkpt>
      <trkpt lat="49.84697" lon="4.7867">
        <ele>332</ele>
        <time>2022-08-19T07:11:58.000Z</time>
      </trkpt>
      <trkpt lat="49.84698" lon="4.78673">
        <ele>332</ele>
        <time>2022-08-19T07:11:59.000Z</time>
      </trkpt>
      <trkpt lat="49.84699" lon="4.78676">
        <ele>332</ele>
        <time>2022-08-19T07:12:00.000Z</time>
      </trkpt>
      <trkpt lat="49.847" lon="4.78678">
        <ele>333</ele>
        <time>2022-08-19T07:12:01.000Z</time>
      </trkpt>
      <trkpt lat="49.84701" lon="4.78678">
        <ele>333</ele>
        <time>2022-08-19T07:12:02.000Z</time>
      </trkpt>
      <trkpt lat="49.84702" lon="4.7868">
        <ele>333</ele>
        <time>2022-08-19T07:12:03.000Z</time>
      </trkpt>
      <trkpt lat="49.84702" lon="4.78681">
        <ele>334</ele>
        <time>2022-08-19T07:12:04.000Z</time>
      </trkpt>
      <trkpt lat="49.84703" lon="4.78684">
        <ele>334</ele>
        <time>2022-08-19T07:12:05.000Z</time>
      </trkpt>
      <trkpt lat="49.84703" lon="4.78686">
        <ele>334</ele>
        <time>2022-08-19T07:12:06.000Z</time>
      </trkpt>
      <trkpt lat="49.84704" lon="4.78688">
        <ele>334</ele>
        <time>2022-08-19T07:12:07.000Z</time>
      </trkpt>
      <trkpt lat="49.84704" lon="4.78691">
        <ele>335</ele>
        <time>2022-08-19T07:12:08.000Z</time>
      </trkpt>
      <trkpt lat="49.84705" lon="4.78694">
        <ele>335</ele>
        <time>2022-08-19T07:12:09.000Z</time>
      </trkpt>
      <trkpt lat="49.84705" lon="4.78697">
        <ele>335</ele>
        <time>2022-08-19T07:12:10.000Z</time>
      </trkpt>
      <trkpt lat="49.84706" lon="4.78701">
        <ele>335</ele>
        <time>2022-08-19T07:12:11.000Z</time>
      </trkpt>
      <trkpt lat="49.84707" lon="4.78704">
        <ele>335</ele>
        <time>2022-08-19T07:12:12.000Z</time>
      </trkpt>
      <trkpt lat="49.84707" lon="4.78707">
        <ele>336</ele>
        <time>2022-08-19T07:12:13.000Z</time>
      </trkpt>
      <trkpt lat="49.84708" lon="4.78711">
        <ele>336</ele>
        <time>2022-08-19T07:12:14.000Z</time>
      </trkpt>
      <trkpt lat="49.84709" lon="4.78714">
        <ele>336</ele>
        <time>2022-08-19T07:12:15.000Z</time>
      </trkpt>
      <trkpt lat="49.84709" lon="4.78718">
        <ele>336</ele>
        <time>2022-08-19T07:12:16.000Z</time>
      </trkpt>
      <trkpt lat="49.8471" lon="4.78722">
        <ele>336</ele>
        <time>2022-08-19T07:12:17.000Z</time>
      </trkpt>
      <trkpt lat="49.84711" lon="4.78725">
        <ele>336</ele>
        <time>2022-08-19T07:12:18.000Z</time>
      </trkpt>
      <trkpt lat="49.84711" lon="4.78729">
        <ele>337</ele>
        <time>2022-08-19T07:12:19.000Z</time>
      </trkpt>
      <trkpt lat="49.84711" lon="4.78733">
        <ele>337</ele>
        <time>2022-08-19T07:12:20.000Z</time>
      </trkpt>
      <trkpt lat="49.84712" lon="4.78737">
        <ele>337</ele>
        <time>2022-08-19T07:12:21.000Z</time>
      </trkpt>
      <trkpt lat="49.84712" lon="4.78741">
        <ele>337</ele>
        <time>2022-08-19T07:12:22.000Z</time>
      </trkpt>
      <trkpt lat="49.84713" lon="4.78745">
        <ele>337</ele>
        <time>2022-08-19T07:12:23.000Z</time>
      </trkpt>
      <trkpt lat="49.84713" lon="4.78749">
        <ele>337</ele>
        <time>2022-08-19T07:12:24.000Z</time>
      </trkpt>
      <trkpt lat="49.84713" lon="4.78753">
        <ele>338</ele>
        <time>2022-08-19T07:12:25.000Z</time>
      </trkpt>
      <trkpt lat="49.84714" lon="4.78757">
        <ele>338</ele>
        <time>2022-08-19T07:12:26.000Z</time>
      </trkpt>
      <trkpt lat="49.84714" lon="4.78761">
        <ele>338</ele>
        <time>2022-08-19T07:12:27.000Z</time>
      </trkpt>
      <trkpt lat="49.84714" lon="4.78765">
        <ele>338</ele>
        <time>2022-08-19T07:12:28.000Z</time>
      </trkpt>
      <trkpt lat="49.84715" lon="4.7877">
        <ele>339</ele>
        <time>2022-08-19T07:12:29.000Z</time>
      </trkpt>
      <trkpt lat="49.84715" lon="4.78774">
        <ele>339</ele>
        <time>2022-08-19T07:12:30.000Z</time>
      </trkpt>
      <trkpt lat="49.84715" lon="4.78778">
        <ele>339</ele>
        <time>2022-08-19T07:12:31.000Z</time>
      </trkpt>
      <trkpt lat="49.84715" lon="4.78783">
        <ele>339</ele>
        <time>2022-08-19T07:12:32.000Z</time>
      </trkpt>
      <trkpt lat="49.84716" lon="4.78787">
        <ele>340</ele>
        <time>2022-08-19T07:12:33.000Z</time>
      </trkpt>
      <trkpt lat="49.84717" lon="4.78792">
        <ele>340</ele>
        <time>2022-08-19T07:12:34.000Z</time>
      </trkpt>
      <trkpt lat="49.84717" lon="4.78797">
        <ele>340</ele>
        <time>2022-08-19T07:12:35.000Z</time>
      </trkpt>
      <trkpt lat="49.84718" lon="4.78802">
        <ele>340</ele>
        <time>2022-08-19T07:12:36.000Z</time>
      </trkpt>
      <trkpt lat="49.84717" lon="4.78807">
        <ele>340</ele>
        <time>2022-08-19T07:12:37.000Z</time>
      </trkpt>
      <trkpt lat="49.84717" lon="4.78811">
        <ele>341</ele>
        <time>2022-08-19T07:12:38.000Z</time>
      </trkpt>
      <trkpt lat="49.84717" lon="4.78816">
        <ele>341</ele>
        <time>2022-08-19T07:12:39.000Z</time>
      </trkpt>
      <trkpt lat="49.84717" lon="4.78821">
        <ele>341</ele>
        <time>2022-08-19T07:12:40.000Z</time>
      </trkpt>
      <trkpt lat="49.84717" lon="4.78827">
        <ele>341</ele>
        <time>2022-08-19T07:12:41.000Z</time>
      </trkpt>
      <trkpt lat="49.84718" lon="4.78833">
        <ele>341</ele>
        <time>2022-08-19T07:12:42.000Z</time>
      </trkpt>
      <trkpt lat="49.84718" lon="4.78839">
        <ele>341</ele>
        <time>2022-08-19T07:12:43.000Z</time>
      </trkpt>
      <trkpt lat="49.84718" lon="4.78845">
        <ele>341</ele>
        <time>2022-08-19T07:12:44.000Z</time>
      </trkpt>
      <trkpt lat="49.84719" lon="4.78852">
        <ele>341</ele>
        <time>2022-08-19T07:12:45.000Z</time>
      </trkpt>
      <trkpt lat="49.8472" lon="4.78859">
        <ele>341</ele>
        <time>2022-08-19T07:12:46.000Z</time>
      </trkpt>
      <trkpt lat="49.84721" lon="4.78866">
        <ele>341</ele>
        <time>2022-08-19T07:12:47.000Z</time>
      </trkpt>
      <trkpt lat="49.84722" lon="4.78873">
        <ele>341</ele>
        <time>2022-08-19T07:12:48.000Z</time>
      </trkpt>
      <trkpt lat="49.84722" lon="4.7888">
        <ele>340</ele>
        <time>2022-08-19T07:12:49.000Z</time>
      </trkpt>
      <trkpt lat="49.84723" lon="4.78887">
        <ele>340</ele>
        <time>2022-08-19T07:12:50.000Z</time>
      </trkpt>
      <trkpt lat="49.84724" lon="4.78893">
        <ele>340</ele>
        <time>2022-08-19T07:12:51.000Z</time>
      </trkpt>
      <trkpt lat="49.84725" lon="4.78898">
        <ele>340</ele>
        <time>2022-08-19T07:12:52.000Z</time>
      </trkpt>
      <trkpt lat="49.84725" lon="4.78904">
        <ele>340</ele>
        <time>2022-08-19T07:12:53.000Z</time>
      </trkpt>
      <trkpt lat="49.84726" lon="4.78909">
        <ele>340</ele>
        <time>2022-08-19T07:12:54.000Z</time>
      </trkpt>
      <trkpt lat="49.84726" lon="4.78914">
        <ele>340</ele>
        <time>2022-08-19T07:12:55.000Z</time>
      </trkpt>
      <trkpt lat="49.84727" lon="4.78919">
        <ele>340</ele>
        <time>2022-08-19T07:12:56.000Z</time>
      </trkpt>
      <trkpt lat="49.84727" lon="4.78925">
        <ele>340</ele>
        <time>2022-08-19T07:12:57.000Z</time>
      </trkpt>
      <trkpt lat="49.84728" lon="4.78931">
        <ele>340</ele>
        <time>2022-08-19T07:12:58.000Z</time>
      </trkpt>
      <trkpt lat="49.84728" lon="4.78936">
        <ele>340</ele>
        <time>2022-08-19T07:12:59.000Z</time>
      </trkpt>
      <trkpt lat="49.84728" lon="4.78943">
        <ele>339</ele>
        <time>2022-08-19T07:13:00.000Z</time>
      </trkpt>
      <trkpt lat="49.84729" lon="4.78949">
        <ele>339</ele>
        <time>2022-08-19T07:13:01.000Z</time>
      </trkpt>
      <trkpt lat="49.84729" lon="4.78955">
        <ele>339</ele>
        <time>2022-08-19T07:13:02.000Z</time>
      </trkpt>
      <trkpt lat="49.8473" lon="4.78961">
        <ele>339</ele>
        <time>2022-08-19T07:13:03.000Z</time>
      </trkpt>
      <trkpt lat="49.84731" lon="4.78966">
        <ele>339</ele>
        <time>2022-08-19T07:13:04.000Z</time>
      </trkpt>
      <trkpt lat="49.84731" lon="4.78973">
        <ele>339</ele>
        <time>2022-08-19T07:13:05.000Z</time>
      </trkpt>
      <trkpt lat="49.84731" lon="4.7898">
        <ele>339</ele>
        <time>2022-08-19T07:13:06.000Z</time>
      </trkpt>
      <trkpt lat="49.84731" lon="4.78987">
        <ele>339</ele>
        <time>2022-08-19T07:13:07.000Z</time>
      </trkpt>
      <trkpt lat="49.84731" lon="4.78993">
        <ele>339</ele>
        <time>2022-08-19T07:13:08.000Z</time>
      </trkpt>
      <trkpt lat="49.84731" lon="4.78999">
        <ele>339</ele>
        <time>2022-08-19T07:13:09.000Z</time>
      </trkpt>
      <trkpt lat="49.8473" lon="4.79003">
        <ele>339</ele>
        <time>2022-08-19T07:13:10.000Z</time>
      </trkpt>
      <trkpt lat="49.84729" lon="4.79008">
        <ele>339</ele>
        <time>2022-08-19T07:13:11.000Z</time>
      </trkpt>
      <trkpt lat="49.84728" lon="4.79014">
        <ele>339</ele>
        <time>2022-08-19T07:13:12.000Z</time>
      </trkpt>
      <trkpt lat="49.84726" lon="4.79019">
        <ele>339</ele>
        <time>2022-08-19T07:13:13.000Z</time>
      </trkpt>
      <trkpt lat="49.84725" lon="4.79025">
        <ele>339</ele>
        <time>2022-08-19T07:13:14.000Z</time>
      </trkpt>
      <trkpt lat="49.84724" lon="4.79031">
        <ele>339</ele>
        <time>2022-08-19T07:13:15.000Z</time>
      </trkpt>
      <trkpt lat="49.84722" lon="4.79036">
        <ele>339</ele>
        <time>2022-08-19T07:13:16.000Z</time>
      </trkpt>
      <trkpt lat="49.8472" lon="4.79041">
        <ele>339</ele>
        <time>2022-08-19T07:13:17.000Z</time>
      </trkpt>
      <trkpt lat="49.84719" lon="4.79047">
        <ele>339</ele>
        <time>2022-08-19T07:13:18.000Z</time>
      </trkpt>
      <trkpt lat="49.84717" lon="4.79052">
        <ele>340</ele>
        <time>2022-08-19T07:13:19.000Z</time>
      </trkpt>
      <trkpt lat="49.84716" lon="4.79058">
        <ele>340</ele>
        <time>2022-08-19T07:13:20.000Z</time>
      </trkpt>
      <trkpt lat="49.84715" lon="4.79063">
        <ele>340</ele>
        <time>2022-08-19T07:13:21.000Z</time>
      </trkpt>
      <trkpt lat="49.84715" lon="4.79068">
        <ele>340</ele>
        <time>2022-08-19T07:13:22.000Z</time>
      </trkpt>
      <trkpt lat="49.84713" lon="4.79072">
        <ele>341</ele>
        <time>2022-08-19T07:13:23.000Z</time>
      </trkpt>
      <trkpt lat="49.84713" lon="4.79077">
        <ele>341</ele>
        <time>2022-08-19T07:13:24.000Z</time>
      </trkpt>
      <trkpt lat="49.84712" lon="4.79082">
        <ele>341</ele>
        <time>2022-08-19T07:13:25.000Z</time>
      </trkpt>
      <trkpt lat="49.84712" lon="4.79087">
        <ele>341</ele>
        <time>2022-08-19T07:13:26.000Z</time>
      </trkpt>
      <trkpt lat="49.84711" lon="4.79091">
        <ele>341</ele>
        <time>2022-08-19T07:13:27.000Z</time>
      </trkpt>
      <trkpt lat="49.84712" lon="4.79096">
        <ele>341</ele>
        <time>2022-08-19T07:13:28.000Z</time>
      </trkpt>
      <trkpt lat="49.84713" lon="4.79101">
        <ele>341</ele>
        <time>2022-08-19T07:13:29.000Z</time>
      </trkpt>
      <trkpt lat="49.84713" lon="4.79106">
        <ele>341</ele>
        <time>2022-08-19T07:13:30.000Z</time>
      </trkpt>
      <trkpt lat="49.84714" lon="4.79111">
        <ele>342</ele>
        <time>2022-08-19T07:13:31.000Z</time>
      </trkpt>
      <trkpt lat="49.84715" lon="4.79116">
        <ele>342</ele>
        <time>2022-08-19T07:13:32.000Z</time>
      </trkpt>
      <trkpt lat="49.84716" lon="4.79121">
        <ele>342</ele>
        <time>2022-08-19T07:13:33.000Z</time>
      </trkpt>
      <trkpt lat="49.84716" lon="4.79126">
        <ele>342</ele>
        <time>2022-08-19T07:13:34.000Z</time>
      </trkpt>
      <trkpt lat="49.84717" lon="4.7913">
        <ele>342</ele>
        <time>2022-08-19T07:13:35.000Z</time>
      </trkpt>
      <trkpt lat="49.84718" lon="4.79133">
        <ele>342</ele>
        <time>2022-08-19T07:13:36.000Z</time>
      </trkpt>
      <trkpt lat="49.84719" lon="4.79136">
        <ele>342</ele>
        <time>2022-08-19T07:13:37.000Z</time>
      </trkpt>
      <trkpt lat="49.8472" lon="4.79139">
        <ele>342</ele>
        <time>2022-08-19T07:13:38.000Z</time>
      </trkpt>
      <trkpt lat="49.84722" lon="4.79141">
        <ele>342</ele>
        <time>2022-08-19T07:13:39.000Z</time>
      </trkpt>
      <trkpt lat="49.84725" lon="4.79142">
        <ele>342</ele>
        <time>2022-08-19T07:13:40.000Z</time>
      </trkpt>
      <trkpt lat="49.84728" lon="4.79144">
        <ele>343</ele>
        <time>2022-08-19T07:13:41.000Z</time>
      </trkpt>
      <trkpt lat="49.8473" lon="4.79146">
        <ele>343</ele>
        <time>2022-08-19T07:13:42.000Z</time>
      </trkpt>
      <trkpt lat="49.84733" lon="4.79148">
        <ele>343</ele>
        <time>2022-08-19T07:13:43.000Z</time>
      </trkpt>
      <trkpt lat="49.84737" lon="4.79149">
        <ele>343</ele>
        <time>2022-08-19T07:13:44.000Z</time>
      </trkpt>
      <trkpt lat="49.84741" lon="4.7915">
        <ele>343</ele>
        <time>2022-08-19T07:13:45.000Z</time>
      </trkpt>
      <trkpt lat="49.84745" lon="4.79151">
        <ele>343</ele>
        <time>2022-08-19T07:13:46.000Z</time>
      </trkpt>
      <trkpt lat="49.8475" lon="4.79153">
        <ele>343</ele>
        <time>2022-08-19T07:13:47.000Z</time>
      </trkpt>
      <trkpt lat="49.84755" lon="4.79155">
        <ele>343</ele>
        <time>2022-08-19T07:13:48.000Z</time>
      </trkpt>
      <trkpt lat="49.8476" lon="4.79156">
        <ele>343</ele>
        <time>2022-08-19T07:13:49.000Z</time>
      </trkpt>
      <trkpt lat="49.84765" lon="4.79157">
        <ele>344</ele>
        <time>2022-08-19T07:13:50.000Z</time>
      </trkpt>
      <trkpt lat="49.84771" lon="4.79158">
        <ele>344</ele>
        <time>2022-08-19T07:13:51.000Z</time>
      </trkpt>
      <trkpt lat="49.84776" lon="4.79158">
        <ele>344</ele>
        <time>2022-08-19T07:13:52.000Z</time>
      </trkpt>
      <trkpt lat="49.84781" lon="4.79158">
        <ele>344</ele>
        <time>2022-08-19T07:13:53.000Z</time>
      </trkpt>
      <trkpt lat="49.84787" lon="4.79157">
        <ele>344</ele>
        <time>2022-08-19T07:13:54.000Z</time>
      </trkpt>
      <trkpt lat="49.84791" lon="4.79155">
        <ele>344</ele>
        <time>2022-08-19T07:13:55.000Z</time>
      </trkpt>
      <trkpt lat="49.84795" lon="4.79154">
        <ele>345</ele>
        <time>2022-08-19T07:13:56.000Z</time>
      </trkpt>
      <trkpt lat="49.84799" lon="4.79151">
        <ele>345</ele>
        <time>2022-08-19T07:13:57.000Z</time>
      </trkpt>
      <trkpt lat="49.84802" lon="4.79148">
        <ele>345</ele>
        <time>2022-08-19T07:13:58.000Z</time>
      </trkpt>
      <trkpt lat="49.84805" lon="4.79143">
        <ele>345</ele>
        <time>2022-08-19T07:13:59.000Z</time>
      </trkpt>
      <trkpt lat="49.84808" lon="4.79138">
        <ele>345</ele>
        <time>2022-08-19T07:14:00.000Z</time>
      </trkpt>
      <trkpt lat="49.84812" lon="4.79133">
        <ele>345</ele>
        <time>2022-08-19T07:14:01.000Z</time>
      </trkpt>
      <trkpt lat="49.84816" lon="4.79128">
        <ele>345</ele>
        <time>2022-08-19T07:14:02.000Z</time>
      </trkpt>
      <trkpt lat="49.8482" lon="4.79123">
        <ele>345</ele>
        <time>2022-08-19T07:14:03.000Z</time>
      </trkpt>
      <trkpt lat="49.84824" lon="4.79118">
        <ele>345</ele>
        <time>2022-08-19T07:14:04.000Z</time>
      </trkpt>
      <trkpt lat="49.84827" lon="4.79113">
        <ele>345</ele>
        <time>2022-08-19T07:14:05.000Z</time>
      </trkpt>
      <trkpt lat="49.84831" lon="4.79109">
        <ele>345</ele>
        <time>2022-08-19T07:14:06.000Z</time>
      </trkpt>
      <trkpt lat="49.84834" lon="4.79105">
        <ele>345</ele>
        <time>2022-08-19T07:14:07.000Z</time>
      </trkpt>
      <trkpt lat="49.84837" lon="4.791">
        <ele>345</ele>
        <time>2022-08-19T07:14:08.000Z</time>
      </trkpt>
      <trkpt lat="49.8484" lon="4.79096">
        <ele>345</ele>
        <time>2022-08-19T07:14:09.000Z</time>
      </trkpt>
      <trkpt lat="49.84843" lon="4.79093">
        <ele>345</ele>
        <time>2022-08-19T07:14:10.000Z</time>
      </trkpt>
      <trkpt lat="49.84845" lon="4.7909">
        <ele>345</ele>
        <time>2022-08-19T07:14:11.000Z</time>
      </trkpt>
      <trkpt lat="49.84847" lon="4.79088">
        <ele>345</ele>
        <time>2022-08-19T07:14:12.000Z</time>
      </trkpt>
      <trkpt lat="49.84849" lon="4.79085">
        <ele>345</ele>
        <time>2022-08-19T07:14:13.000Z</time>
      </trkpt>
      <trkpt lat="49.84851" lon="4.79082">
        <ele>345</ele>
        <time>2022-08-19T07:14:14.000Z</time>
      </trkpt>
      <trkpt lat="49.84852" lon="4.79079">
        <ele>345</ele>
        <time>2022-08-19T07:14:15.000Z</time>
      </trkpt>
      <trkpt lat="49.84854" lon="4.79076">
        <ele>345</ele>
        <time>2022-08-19T07:14:16.000Z</time>
      </trkpt>
      <trkpt lat="49.84856" lon="4.79073">
        <ele>345</ele>
        <time>2022-08-19T07:14:17.000Z</time>
      </trkpt>
      <trkpt lat="49.84858" lon="4.7907">
        <ele>345</ele>
        <time>2022-08-19T07:14:18.000Z</time>
      </trkpt>
      <trkpt lat="49.84859" lon="4.79068">
        <ele>345</ele>
        <time>2022-08-19T07:14:19.000Z</time>
      </trkpt>
      <trkpt lat="49.84862" lon="4.79067">
        <ele>345</ele>
        <time>2022-08-19T07:14:20.000Z</time>
      </trkpt>
      <trkpt lat="49.84864" lon="4.79065">
        <ele>345</ele>
        <time>2022-08-19T07:14:21.000Z</time>
      </trkpt>
      <trkpt lat="49.84866" lon="4.79063">
        <ele>345</ele>
        <time>2022-08-19T07:14:22.000Z</time>
      </trkpt>
      <trkpt lat="49.84869" lon="4.7906">
        <ele>345</ele>
        <time>2022-08-19T07:14:23.000Z</time>
      </trkpt>
      <trkpt lat="49.84871" lon="4.79058">
        <ele>345</ele>
        <time>2022-08-19T07:14:24.000Z</time>
      </trkpt>
      <trkpt lat="49.84873" lon="4.79056">
        <ele>345</ele>
        <time>2022-08-19T07:14:25.000Z</time>
      </trkpt>
      <trkpt lat="49.84875" lon="4.79054">
        <ele>345</ele>
        <time>2022-08-19T07:14:26.000Z</time>
      </trkpt>
      <trkpt lat="49.84878" lon="4.79052">
        <ele>345</ele>
        <time>2022-08-19T07:14:27.000Z</time>
      </trkpt>
      <trkpt lat="49.8488" lon="4.79049">
        <ele>345</ele>
        <time>2022-08-19T07:14:28.000Z</time>
      </trkpt>
      <trkpt lat="49.84883" lon="4.79046">
        <ele>345</ele>
        <time>2022-08-19T07:14:29.000Z</time>
      </trkpt>
      <trkpt lat="49.84884" lon="4.79041">
        <ele>345</ele>
        <time>2022-08-19T07:14:30.000Z</time>
      </trkpt>
      <trkpt lat="49.84887" lon="4.79038">
        <ele>345</ele>
        <time>2022-08-19T07:14:31.000Z</time>
      </trkpt>
      <trkpt lat="49.84889" lon="4.79035">
        <ele>345</ele>
        <time>2022-08-19T07:14:32.000Z</time>
      </trkpt>
      <trkpt lat="49.84892" lon="4.79034">
        <ele>345</ele>
        <time>2022-08-19T07:14:33.000Z</time>
      </trkpt>
      <trkpt lat="49.84895" lon="4.79032">
        <ele>345</ele>
        <time>2022-08-19T07:14:34.000Z</time>
      </trkpt>
      <trkpt lat="49.84897" lon="4.79031">
        <ele>345</ele>
        <time>2022-08-19T07:14:35.000Z</time>
      </trkpt>
      <trkpt lat="49.849" lon="4.7903">
        <ele>345</ele>
        <time>2022-08-19T07:14:36.000Z</time>
      </trkpt>
      <trkpt lat="49.84903" lon="4.79027">
        <ele>346</ele>
        <time>2022-08-19T07:14:37.000Z</time>
      </trkpt>
      <trkpt lat="49.84905" lon="4.79024">
        <ele>346</ele>
        <time>2022-08-19T07:14:38.000Z</time>
      </trkpt>
      <trkpt lat="49.84907" lon="4.79021">
        <ele>346</ele>
        <time>2022-08-19T07:14:39.000Z</time>
      </trkpt>
      <trkpt lat="49.84909" lon="4.79017">
        <ele>346</ele>
        <time>2022-08-19T07:14:40.000Z</time>
      </trkpt>
      <trkpt lat="49.84911" lon="4.79013">
        <ele>346</ele>
        <time>2022-08-19T07:14:41.000Z</time>
      </trkpt>
      <trkpt lat="49.84915" lon="4.7901">
        <ele>346</ele>
        <time>2022-08-19T07:14:42.000Z</time>
      </trkpt>
      <trkpt lat="49.84918" lon="4.79005">
        <ele>346</ele>
        <time>2022-08-19T07:14:43.000Z</time>
      </trkpt>
      <trkpt lat="49.84921" lon="4.79001">
        <ele>346</ele>
        <time>2022-08-19T07:14:44.000Z</time>
      </trkpt>
      <trkpt lat="49.84924" lon="4.78997">
        <ele>346</ele>
        <time>2022-08-19T07:14:45.000Z</time>
      </trkpt>
      <trkpt lat="49.84927" lon="4.78995">
        <ele>346</ele>
        <time>2022-08-19T07:14:46.000Z</time>
      </trkpt>
      <trkpt lat="49.8493" lon="4.78992">
        <ele>346</ele>
        <time>2022-08-19T07:14:47.000Z</time>
      </trkpt>
      <trkpt lat="49.84933" lon="4.78989">
        <ele>346</ele>
        <time>2022-08-19T07:14:48.000Z</time>
      </trkpt>
      <trkpt lat="49.84935" lon="4.78984">
        <ele>346</ele>
        <time>2022-08-19T07:14:49.000Z</time>
      </trkpt>
      <trkpt lat="49.84938" lon="4.78979">
        <ele>346</ele>
        <time>2022-08-19T07:14:50.000Z</time>
      </trkpt>
      <trkpt lat="49.8494" lon="4.78975">
        <ele>346</ele>
        <time>2022-08-19T07:14:51.000Z</time>
      </trkpt>
      <trkpt lat="49.84943" lon="4.7897">
        <ele>346</ele>
        <time>2022-08-19T07:14:52.000Z</time>
      </trkpt>
      <trkpt lat="49.84945" lon="4.78964">
        <ele>346</ele>
        <time>2022-08-19T07:14:53.000Z</time>
      </trkpt>
      <trkpt lat="49.84947" lon="4.78958">
        <ele>346</ele>
        <time>2022-08-19T07:14:54.000Z</time>
      </trkpt>
      <trkpt lat="49.84949" lon="4.78951">
        <ele>346</ele>
        <time>2022-08-19T07:14:55.000Z</time>
      </trkpt>
      <trkpt lat="49.84952" lon="4.78945">
        <ele>346</ele>
        <time>2022-08-19T07:14:56.000Z</time>
      </trkpt>
      <trkpt lat="49.84955" lon="4.78939">
        <ele>346</ele>
        <time>2022-08-19T07:14:57.000Z</time>
      </trkpt>
      <trkpt lat="49.84958" lon="4.78932">
        <ele>346</ele>
        <time>2022-08-19T07:14:58.000Z</time>
      </trkpt>
      <trkpt lat="49.84962" lon="4.78924">
        <ele>346</ele>
        <time>2022-08-19T07:14:59.000Z</time>
      </trkpt>
      <trkpt lat="49.84966" lon="4.78917">
        <ele>346</ele>
        <time>2022-08-19T07:15:00.000Z</time>
      </trkpt>
      <trkpt lat="49.8497" lon="4.7891">
        <ele>346</ele>
        <time>2022-08-19T07:15:01.000Z</time>
      </trkpt>
      <trkpt lat="49.84975" lon="4.78905">
        <ele>346</ele>
        <time>2022-08-19T07:15:02.000Z</time>
      </trkpt>
      <trkpt lat="49.84981" lon="4.78899">
        <ele>346</ele>
        <time>2022-08-19T07:15:03.000Z</time>
      </trkpt>
      <trkpt lat="49.84985" lon="4.78893">
        <ele>345</ele>
        <time>2022-08-19T07:15:04.000Z</time>
      </trkpt>
      <trkpt lat="49.8499" lon="4.78887">
        <ele>345</ele>
        <time>2022-08-19T07:15:05.000Z</time>
      </trkpt>
      <trkpt lat="49.84994" lon="4.78883">
        <ele>345</ele>
        <time>2022-08-19T07:15:06.000Z</time>
      </trkpt>
      <trkpt lat="49.84999" lon="4.78878">
        <ele>345</ele>
        <time>2022-08-19T07:15:07.000Z</time>
      </trkpt>
      <trkpt lat="49.85003" lon="4.78873">
        <ele>345</ele>
        <time>2022-08-19T07:15:08.000Z</time>
      </trkpt>
      <trkpt lat="49.85007" lon="4.78867">
        <ele>345</ele>
        <time>2022-08-19T07:15:09.000Z</time>
      </trkpt>
      <trkpt lat="49.85011" lon="4.78862">
        <ele>344</ele>
        <time>2022-08-19T07:15:10.000Z</time>
      </trkpt>
      <trkpt lat="49.85015" lon="4.78856">
        <ele>344</ele>
        <time>2022-08-19T07:15:11.000Z</time>
      </trkpt>
      <trkpt lat="49.85019" lon="4.7885">
        <ele>344</ele>
        <time>2022-08-19T07:15:12.000Z</time>
      </trkpt>
      <trkpt lat="49.85023" lon="4.78846">
        <ele>344</ele>
        <time>2022-08-19T07:15:13.000Z</time>
      </trkpt>
      <trkpt lat="49.85027" lon="4.78842">
        <ele>343</ele>
        <time>2022-08-19T07:15:14.000Z</time>
      </trkpt>
      <trkpt lat="49.8503" lon="4.78837">
        <ele>343</ele>
        <time>2022-08-19T07:15:15.000Z</time>
      </trkpt>
      <trkpt lat="49.85034" lon="4.78833">
        <ele>343</ele>
        <time>2022-08-19T07:15:16.000Z</time>
      </trkpt>
      <trkpt lat="49.85038" lon="4.78828">
        <ele>343</ele>
        <time>2022-08-19T07:15:17.000Z</time>
      </trkpt>
      <trkpt lat="49.85041" lon="4.78821">
        <ele>343</ele>
        <time>2022-08-19T07:15:18.000Z</time>
      </trkpt>
      <trkpt lat="49.85045" lon="4.78815">
        <ele>343</ele>
        <time>2022-08-19T07:15:19.000Z</time>
      </trkpt>
      <trkpt lat="49.85048" lon="4.78807">
        <ele>343</ele>
        <time>2022-08-19T07:15:20.000Z</time>
      </trkpt>
      <trkpt lat="49.85051" lon="4.788">
        <ele>342</ele>
        <time>2022-08-19T07:15:21.000Z</time>
      </trkpt>
      <trkpt lat="49.85055" lon="4.78792">
        <ele>342</ele>
        <time>2022-08-19T07:15:22.000Z</time>
      </trkpt>
      <trkpt lat="49.85059" lon="4.78784">
        <ele>342</ele>
        <time>2022-08-19T07:15:23.000Z</time>
      </trkpt>
      <trkpt lat="49.85062" lon="4.78777">
        <ele>342</ele>
        <time>2022-08-19T07:15:24.000Z</time>
      </trkpt>
      <trkpt lat="49.85066" lon="4.7877">
        <ele>343</ele>
        <time>2022-08-19T07:15:25.000Z</time>
      </trkpt>
      <trkpt lat="49.85069" lon="4.78763">
        <ele>343</ele>
        <time>2022-08-19T07:15:26.000Z</time>
      </trkpt>
      <trkpt lat="49.85072" lon="4.78757">
        <ele>343</ele>
        <time>2022-08-19T07:15:27.000Z</time>
      </trkpt>
      <trkpt lat="49.85076" lon="4.78751">
        <ele>343</ele>
        <time>2022-08-19T07:15:28.000Z</time>
      </trkpt>
      <trkpt lat="49.85079" lon="4.78745">
        <ele>343</ele>
        <time>2022-08-19T07:15:29.000Z</time>
      </trkpt>
      <trkpt lat="49.85082" lon="4.7874">
        <ele>343</ele>
        <time>2022-08-19T07:15:30.000Z</time>
      </trkpt>
      <trkpt lat="49.85086" lon="4.78735">
        <ele>342</ele>
        <time>2022-08-19T07:15:31.000Z</time>
      </trkpt>
      <trkpt lat="49.8509" lon="4.7873">
        <ele>342</ele>
        <time>2022-08-19T07:15:32.000Z</time>
      </trkpt>
      <trkpt lat="49.85094" lon="4.78725">
        <ele>342</ele>
        <time>2022-08-19T07:15:33.000Z</time>
      </trkpt>
      <trkpt lat="49.85099" lon="4.7872">
        <ele>342</ele>
        <time>2022-08-19T07:15:34.000Z</time>
      </trkpt>
      <trkpt lat="49.85103" lon="4.78715">
        <ele>342</ele>
        <time>2022-08-19T07:15:35.000Z</time>
      </trkpt>
      <trkpt lat="49.85107" lon="4.7871">
        <ele>342</ele>
        <time>2022-08-19T07:15:36.000Z</time>
      </trkpt>
      <trkpt lat="49.8511" lon="4.78704">
        <ele>342</ele>
        <time>2022-08-19T07:15:37.000Z</time>
      </trkpt>
      <trkpt lat="49.85113" lon="4.78698">
        <ele>341</ele>
        <time>2022-08-19T07:15:38.000Z</time>
      </trkpt>
      <trkpt lat="49.85117" lon="4.78693">
        <ele>341</ele>
        <time>2022-08-19T07:15:39.000Z</time>
      </trkpt>
      <trkpt lat="49.8512" lon="4.78687">
        <ele>341</ele>
        <time>2022-08-19T07:15:40.000Z</time>
      </trkpt>
      <trkpt lat="49.85124" lon="4.78681">
        <ele>341</ele>
        <time>2022-08-19T07:15:41.000Z</time>
      </trkpt>
      <trkpt lat="49.85127" lon="4.78675">
        <ele>341</ele>
        <time>2022-08-19T07:15:42.000Z</time>
      </trkpt>
      <trkpt lat="49.85131" lon="4.78669">
        <ele>340</ele>
        <time>2022-08-19T07:15:43.000Z</time>
      </trkpt>
      <trkpt lat="49.85134" lon="4.78662">
        <ele>340</ele>
        <time>2022-08-19T07:15:44.000Z</time>
      </trkpt>
      <trkpt lat="49.85138" lon="4.78656">
        <ele>340</ele>
        <time>2022-08-19T07:15:45.000Z</time>
      </trkpt>
      <trkpt lat="49.85141" lon="4.78651">
        <ele>340</ele>
        <time>2022-08-19T07:15:46.000Z</time>
      </trkpt>
      <trkpt lat="49.85144" lon="4.78646">
        <ele>340</ele>
        <time>2022-08-19T07:15:47.000Z</time>
      </trkpt>
      <trkpt lat="49.85148" lon="4.78641">
        <ele>340</ele>
        <time>2022-08-19T07:15:48.000Z</time>
      </trkpt>
      <trkpt lat="49.85151" lon="4.78635">
        <ele>340</ele>
        <time>2022-08-19T07:15:49.000Z</time>
      </trkpt>
      <trkpt lat="49.85156" lon="4.7863">
        <ele>339</ele>
        <time>2022-08-19T07:15:50.000Z</time>
      </trkpt>
      <trkpt lat="49.8516" lon="4.78625">
        <ele>339</ele>
        <time>2022-08-19T07:15:51.000Z</time>
      </trkpt>
      <trkpt lat="49.85164" lon="4.7862">
        <ele>339</ele>
        <time>2022-08-19T07:15:52.000Z</time>
      </trkpt>
      <trkpt lat="49.85169" lon="4.78615">
        <ele>339</ele>
        <time>2022-08-19T07:15:53.000Z</time>
      </trkpt>
      <trkpt lat="49.85173" lon="4.7861">
        <ele>339</ele>
        <time>2022-08-19T07:15:54.000Z</time>
      </trkpt>
      <trkpt lat="49.85178" lon="4.78605">
        <ele>338</ele>
        <time>2022-08-19T07:15:55.000Z</time>
      </trkpt>
      <trkpt lat="49.85183" lon="4.78598">
        <ele>338</ele>
        <time>2022-08-19T07:15:56.000Z</time>
      </trkpt>
      <trkpt lat="49.85188" lon="4.78592">
        <ele>338</ele>
        <time>2022-08-19T07:15:57.000Z</time>
      </trkpt>
      <trkpt lat="49.85193" lon="4.78587">
        <ele>338</ele>
        <time>2022-08-19T07:15:58.000Z</time>
      </trkpt>
      <trkpt lat="49.85197" lon="4.78582">
        <ele>338</ele>
        <time>2022-08-19T07:15:59.000Z</time>
      </trkpt>
      <trkpt lat="49.85202" lon="4.78577">
        <ele>338</ele>
        <time>2022-08-19T07:16:00.000Z</time>
      </trkpt>
      <trkpt lat="49.85205" lon="4.78572">
        <ele>338</ele>
        <time>2022-08-19T07:16:01.000Z</time>
      </trkpt>
      <trkpt lat="49.85209" lon="4.78568">
        <ele>337</ele>
        <time>2022-08-19T07:16:02.000Z</time>
      </trkpt>
      <trkpt lat="49.85213" lon="4.78562">
        <ele>337</ele>
        <time>2022-08-19T07:16:03.000Z</time>
      </trkpt>
      <trkpt lat="49.85218" lon="4.78556">
        <ele>337</ele>
        <time>2022-08-19T07:16:04.000Z</time>
      </trkpt>
      <trkpt lat="49.85223" lon="4.78549">
        <ele>337</ele>
        <time>2022-08-19T07:16:05.000Z</time>
      </trkpt>
      <trkpt lat="49.85227" lon="4.78543">
        <ele>337</ele>
        <time>2022-08-19T07:16:06.000Z</time>
      </trkpt>
      <trkpt lat="49.85231" lon="4.78537">
        <ele>337</ele>
        <time>2022-08-19T07:16:07.000Z</time>
      </trkpt>
      <trkpt lat="49.85235" lon="4.7853">
        <ele>337</ele>
        <time>2022-08-19T07:16:08.000Z</time>
      </trkpt>
      <trkpt lat="49.85238" lon="4.78524">
        <ele>337</ele>
        <time>2022-08-19T07:16:09.000Z</time>
      </trkpt>
      <trkpt lat="49.85242" lon="4.78518">
        <ele>337</ele>
        <time>2022-08-19T07:16:10.000Z</time>
      </trkpt>
      <trkpt lat="49.85246" lon="4.78512">
        <ele>337</ele>
        <time>2022-08-19T07:16:11.000Z</time>
      </trkpt>
      <trkpt lat="49.85249" lon="4.78506">
        <ele>337</ele>
        <time>2022-08-19T07:16:12.000Z</time>
      </trkpt>
      <trkpt lat="49.85252" lon="4.78501">
        <ele>337</ele>
        <time>2022-08-19T07:16:13.000Z</time>
      </trkpt>
      <trkpt lat="49.85255" lon="4.78495">
        <ele>337</ele>
        <time>2022-08-19T07:16:14.000Z</time>
      </trkpt>
      <trkpt lat="49.85259" lon="4.7849">
        <ele>337</ele>
        <time>2022-08-19T07:16:15.000Z</time>
      </trkpt>
      <trkpt lat="49.85263" lon="4.78485">
        <ele>337</ele>
        <time>2022-08-19T07:16:16.000Z</time>
      </trkpt>
      <trkpt lat="49.85266" lon="4.7848">
        <ele>337</ele>
        <time>2022-08-19T07:16:17.000Z</time>
      </trkpt>
      <trkpt lat="49.8527" lon="4.78474">
        <ele>337</ele>
        <time>2022-08-19T07:16:18.000Z</time>
      </trkpt>
      <trkpt lat="49.85273" lon="4.78466">
        <ele>337</ele>
        <time>2022-08-19T07:16:19.000Z</time>
      </trkpt>
      <trkpt lat="49.85276" lon="4.78459">
        <ele>337</ele>
        <time>2022-08-19T07:16:20.000Z</time>
      </trkpt>
      <trkpt lat="49.85279" lon="4.78451">
        <ele>337</ele>
        <time>2022-08-19T07:16:21.000Z</time>
      </trkpt>
      <trkpt lat="49.85283" lon="4.78443">
        <ele>337</ele>
        <time>2022-08-19T07:16:22.000Z</time>
      </trkpt>
      <trkpt lat="49.85287" lon="4.78436">
        <ele>336</ele>
        <time>2022-08-19T07:16:23.000Z</time>
      </trkpt>
      <trkpt lat="49.85291" lon="4.78427">
        <ele>336</ele>
        <time>2022-08-19T07:16:24.000Z</time>
      </trkpt>
      <trkpt lat="49.85296" lon="4.78418">
        <ele>336</ele>
        <time>2022-08-19T07:16:25.000Z</time>
      </trkpt>
      <trkpt lat="49.853" lon="4.7841">
        <ele>336</ele>
        <time>2022-08-19T07:16:26.000Z</time>
      </trkpt>
      <trkpt lat="49.85305" lon="4.78401">
        <ele>335</ele>
        <time>2022-08-19T07:16:27.000Z</time>
      </trkpt>
      <trkpt lat="49.8531" lon="4.78394">
        <ele>335</ele>
        <time>2022-08-19T07:16:28.000Z</time>
      </trkpt>
      <trkpt lat="49.85315" lon="4.78385">
        <ele>335</ele>
        <time>2022-08-19T07:16:29.000Z</time>
      </trkpt>
      <trkpt lat="49.8532" lon="4.78377">
        <ele>334</ele>
        <time>2022-08-19T07:16:30.000Z</time>
      </trkpt>
      <trkpt lat="49.85326" lon="4.78369">
        <ele>334</ele>
        <time>2022-08-19T07:16:31.000Z</time>
      </trkpt>
      <trkpt lat="49.85331" lon="4.78362">
        <ele>333</ele>
        <time>2022-08-19T07:16:32.000Z</time>
      </trkpt>
      <trkpt lat="49.85336" lon="4.78356">
        <ele>333</ele>
        <time>2022-08-19T07:16:33.000Z</time>
      </trkpt>
      <trkpt lat="49.8534" lon="4.78349">
        <ele>332</ele>
        <time>2022-08-19T07:16:34.000Z</time>
      </trkpt>
      <trkpt lat="49.85344" lon="4.78342">
        <ele>332</ele>
        <time>2022-08-19T07:16:35.000Z</time>
      </trkpt>
      <trkpt lat="49.85349" lon="4.78336">
        <ele>332</ele>
        <time>2022-08-19T07:16:36.000Z</time>
      </trkpt>
      <trkpt lat="49.85354" lon="4.7833">
        <ele>331</ele>
        <time>2022-08-19T07:16:37.000Z</time>
      </trkpt>
      <trkpt lat="49.85359" lon="4.78322">
        <ele>331</ele>
        <time>2022-08-19T07:16:38.000Z</time>
      </trkpt>
      <trkpt lat="49.85364" lon="4.78315">
        <ele>330</ele>
        <time>2022-08-19T07:16:39.000Z</time>
      </trkpt>
      <trkpt lat="49.85369" lon="4.78308">
        <ele>330</ele>
        <time>2022-08-19T07:16:40.000Z</time>
      </trkpt>
      <trkpt lat="49.85375" lon="4.78299">
        <ele>329</ele>
        <time>2022-08-19T07:16:41.000Z</time>
      </trkpt>
      <trkpt lat="49.85381" lon="4.78291">
        <ele>329</ele>
        <time>2022-08-19T07:16:42.000Z</time>
      </trkpt>
      <trkpt lat="49.85386" lon="4.78284">
        <ele>328</ele>
        <time>2022-08-19T07:16:43.000Z</time>
      </trkpt>
      <trkpt lat="49.85393" lon="4.78277">
        <ele>327</ele>
        <time>2022-08-19T07:16:44.000Z</time>
      </trkpt>
      <trkpt lat="49.85399" lon="4.78269">
        <ele>326</ele>
        <time>2022-08-19T07:16:45.000Z</time>
      </trkpt>
      <trkpt lat="49.85406" lon="4.78261">
        <ele>326</ele>
        <time>2022-08-19T07:16:46.000Z</time>
      </trkpt>
      <trkpt lat="49.85412" lon="4.78254">
        <ele>325</ele>
        <time>2022-08-19T07:16:47.000Z</time>
      </trkpt>
      <trkpt lat="49.85419" lon="4.78247">
        <ele>324</ele>
        <time>2022-08-19T07:16:48.000Z</time>
      </trkpt>
      <trkpt lat="49.85424" lon="4.78241">
        <ele>323</ele>
        <time>2022-08-19T07:16:49.000Z</time>
      </trkpt>
      <trkpt lat="49.8543" lon="4.78233">
        <ele>322</ele>
        <time>2022-08-19T07:16:50.000Z</time>
      </trkpt>
      <trkpt lat="49.85434" lon="4.78226">
        <ele>321</ele>
        <time>2022-08-19T07:16:51.000Z</time>
      </trkpt>
      <trkpt lat="49.85439" lon="4.7822">
        <ele>321</ele>
        <time>2022-08-19T07:16:52.000Z</time>
      </trkpt>
      <trkpt lat="49.85443" lon="4.78212">
        <ele>320</ele>
        <time>2022-08-19T07:16:53.000Z</time>
      </trkpt>
      <trkpt lat="49.85447" lon="4.78206">
        <ele>320</ele>
        <time>2022-08-19T07:16:54.000Z</time>
      </trkpt>
      <trkpt lat="49.85451" lon="4.78199">
        <ele>319</ele>
        <time>2022-08-19T07:16:55.000Z</time>
      </trkpt>
      <trkpt lat="49.85456" lon="4.78192">
        <ele>318</ele>
        <time>2022-08-19T07:16:56.000Z</time>
      </trkpt>
      <trkpt lat="49.8546" lon="4.78185">
        <ele>318</ele>
        <time>2022-08-19T07:16:57.000Z</time>
      </trkpt>
      <trkpt lat="49.85464" lon="4.78178">
        <ele>317</ele>
        <time>2022-08-19T07:16:58.000Z</time>
      </trkpt>
      <trkpt lat="49.85467" lon="4.78172">
        <ele>316</ele>
        <time>2022-08-19T07:16:59.000Z</time>
      </trkpt>
      <trkpt lat="49.8547" lon="4.78165">
        <ele>316</ele>
        <time>2022-08-19T07:17:00.000Z</time>
      </trkpt>
      <trkpt lat="49.85472" lon="4.78157">
        <ele>315</ele>
        <time>2022-08-19T07:17:01.000Z</time>
      </trkpt>
      <trkpt lat="49.85476" lon="4.7815">
        <ele>315</ele>
        <time>2022-08-19T07:17:02.000Z</time>
      </trkpt>
      <trkpt lat="49.85479" lon="4.78142">
        <ele>314</ele>
        <time>2022-08-19T07:17:03.000Z</time>
      </trkpt>
      <trkpt lat="49.85483" lon="4.78134">
        <ele>314</ele>
        <time>2022-08-19T07:17:04.000Z</time>
      </trkpt>
      <trkpt lat="49.85486" lon="4.78126">
        <ele>314</ele>
        <time>2022-08-19T07:17:05.000Z</time>
      </trkpt>
      <trkpt lat="49.85488" lon="4.78118">
        <ele>313</ele>
        <time>2022-08-19T07:17:06.000Z</time>
      </trkpt>
      <trkpt lat="49.85491" lon="4.7811">
        <ele>313</ele>
        <time>2022-08-19T07:17:07.000Z</time>
      </trkpt>
      <trkpt lat="49.85495" lon="4.78104">
        <ele>313</ele>
        <time>2022-08-19T07:17:08.000Z</time>
      </trkpt>
      <trkpt lat="49.85498" lon="4.78097">
        <ele>313</ele>
        <time>2022-08-19T07:17:09.000Z</time>
      </trkpt>
      <trkpt lat="49.85502" lon="4.78091">
        <ele>313</ele>
        <time>2022-08-19T07:17:10.000Z</time>
      </trkpt>
      <trkpt lat="49.85506" lon="4.78085">
        <ele>313</ele>
        <time>2022-08-19T07:17:11.000Z</time>
      </trkpt>
      <trkpt lat="49.8551" lon="4.7808">
        <ele>313</ele>
        <time>2022-08-19T07:17:12.000Z</time>
      </trkpt>
      <trkpt lat="49.85514" lon="4.78075">
        <ele>312</ele>
        <time>2022-08-19T07:17:13.000Z</time>
      </trkpt>
      <trkpt lat="49.85519" lon="4.78069">
        <ele>312</ele>
        <time>2022-08-19T07:17:14.000Z</time>
      </trkpt>
      <trkpt lat="49.85523" lon="4.78063">
        <ele>312</ele>
        <time>2022-08-19T07:17:15.000Z</time>
      </trkpt>
      <trkpt lat="49.85526" lon="4.78057">
        <ele>312</ele>
        <time>2022-08-19T07:17:16.000Z</time>
      </trkpt>
      <trkpt lat="49.85528" lon="4.78051">
        <ele>312</ele>
        <time>2022-08-19T07:17:17.000Z</time>
      </trkpt>
      <trkpt lat="49.85529" lon="4.78045">
        <ele>312</ele>
        <time>2022-08-19T07:17:18.000Z</time>
      </trkpt>
      <trkpt lat="49.8553" lon="4.78038">
        <ele>312</ele>
        <time>2022-08-19T07:17:19.000Z</time>
      </trkpt>
      <trkpt lat="49.8553" lon="4.78031">
        <ele>312</ele>
        <time>2022-08-19T07:17:20.000Z</time>
      </trkpt>
      <trkpt lat="49.85531" lon="4.78024">
        <ele>312</ele>
        <time>2022-08-19T07:17:21.000Z</time>
      </trkpt>
      <trkpt lat="49.85532" lon="4.78018">
        <ele>312</ele>
        <time>2022-08-19T07:17:22.000Z</time>
      </trkpt>
      <trkpt lat="49.85532" lon="4.7801">
        <ele>312</ele>
        <time>2022-08-19T07:17:23.000Z</time>
      </trkpt>
      <trkpt lat="49.85533" lon="4.78003">
        <ele>312</ele>
        <time>2022-08-19T07:17:24.000Z</time>
      </trkpt>
      <trkpt lat="49.85535" lon="4.77996">
        <ele>312</ele>
        <time>2022-08-19T07:17:25.000Z</time>
      </trkpt>
      <trkpt lat="49.85538" lon="4.77989">
        <ele>312</ele>
        <time>2022-08-19T07:17:26.000Z</time>
      </trkpt>
      <trkpt lat="49.8554" lon="4.77983">
        <ele>312</ele>
        <time>2022-08-19T07:17:27.000Z</time>
      </trkpt>
      <trkpt lat="49.85543" lon="4.77976">
        <ele>312</ele>
        <time>2022-08-19T07:17:28.000Z</time>
      </trkpt>
      <trkpt lat="49.85545" lon="4.77969">
        <ele>312</ele>
        <time>2022-08-19T07:17:29.000Z</time>
      </trkpt>
      <trkpt lat="49.85547" lon="4.77962">
        <ele>312</ele>
        <time>2022-08-19T07:17:30.000Z</time>
      </trkpt>
      <trkpt lat="49.85549" lon="4.77955">
        <ele>312</ele>
        <time>2022-08-19T07:17:31.000Z</time>
      </trkpt>
      <trkpt lat="49.85551" lon="4.77948">
        <ele>312</ele>
        <time>2022-08-19T07:17:32.000Z</time>
      </trkpt>
      <trkpt lat="49.85553" lon="4.7794">
        <ele>312</ele>
        <time>2022-08-19T07:17:33.000Z</time>
      </trkpt>
      <trkpt lat="49.85555" lon="4.77932">
        <ele>312</ele>
        <time>2022-08-19T07:17:34.000Z</time>
      </trkpt>
      <trkpt lat="49.85557" lon="4.77925">
        <ele>312</ele>
        <time>2022-08-19T07:17:35.000Z</time>
      </trkpt>
      <trkpt lat="49.85558" lon="4.77917">
        <ele>312</ele>
        <time>2022-08-19T07:17:36.000Z</time>
      </trkpt>
      <trkpt lat="49.85559" lon="4.77909">
        <ele>312</ele>
        <time>2022-08-19T07:17:37.000Z</time>
      </trkpt>
      <trkpt lat="49.8556" lon="4.77902">
        <ele>312</ele>
        <time>2022-08-19T07:17:38.000Z</time>
      </trkpt>
      <trkpt lat="49.85561" lon="4.77896">
        <ele>312</ele>
        <time>2022-08-19T07:17:39.000Z</time>
      </trkpt>
      <trkpt lat="49.85564" lon="4.7789">
        <ele>312</ele>
        <time>2022-08-19T07:17:40.000Z</time>
      </trkpt>
      <trkpt lat="49.85567" lon="4.77884">
        <ele>312</ele>
        <time>2022-08-19T07:17:41.000Z</time>
      </trkpt>
      <trkpt lat="49.85568" lon="4.77879">
        <ele>312</ele>
        <time>2022-08-19T07:17:42.000Z</time>
      </trkpt>
      <trkpt lat="49.8557" lon="4.77872">
        <ele>312</ele>
        <time>2022-08-19T07:17:43.000Z</time>
      </trkpt>
      <trkpt lat="49.85571" lon="4.77865">
        <ele>312</ele>
        <time>2022-08-19T07:17:44.000Z</time>
      </trkpt>
      <trkpt lat="49.85572" lon="4.77858">
        <ele>312</ele>
        <time>2022-08-19T07:17:45.000Z</time>
      </trkpt>
      <trkpt lat="49.85575" lon="4.77852">
        <ele>312</ele>
        <time>2022-08-19T07:17:46.000Z</time>
      </trkpt>
      <trkpt lat="49.85578" lon="4.77847">
        <ele>312</ele>
        <time>2022-08-19T07:17:47.000Z</time>
      </trkpt>
      <trkpt lat="49.85581" lon="4.77843">
        <ele>312</ele>
        <time>2022-08-19T07:17:48.000Z</time>
      </trkpt>
      <trkpt lat="49.85585" lon="4.7784">
        <ele>312</ele>
        <time>2022-08-19T07:17:49.000Z</time>
      </trkpt>
      <trkpt lat="49.85589" lon="4.77837">
        <ele>312</ele>
        <time>2022-08-19T07:17:50.000Z</time>
      </trkpt>
      <trkpt lat="49.85593" lon="4.77835">
        <ele>312</ele>
        <time>2022-08-19T07:17:51.000Z</time>
      </trkpt>
      <trkpt lat="49.85597" lon="4.77832">
        <ele>312</ele>
        <time>2022-08-19T07:17:52.000Z</time>
      </trkpt>
      <trkpt lat="49.856" lon="4.77829">
        <ele>311</ele>
        <time>2022-08-19T07:17:53.000Z</time>
      </trkpt>
      <trkpt lat="49.85603" lon="4.77826">
        <ele>311</ele>
        <time>2022-08-19T07:17:54.000Z</time>
      </trkpt>
      <trkpt lat="49.85606" lon="4.77825">
        <ele>311</ele>
        <time>2022-08-19T07:17:55.000Z</time>
      </trkpt>
      <trkpt lat="49.85609" lon="4.77824">
        <ele>311</ele>
        <time>2022-08-19T07:17:56.000Z</time>
      </trkpt>
      <trkpt lat="49.8561" lon="4.77822">
        <ele>311</ele>
        <time>2022-08-19T07:17:57.000Z</time>
      </trkpt>
      <trkpt lat="49.85611" lon="4.77821">
        <ele>311</ele>
        <time>2022-08-19T07:17:58.000Z</time>
      </trkpt>
      <trkpt lat="49.8561" lon="4.7782">
        <ele>311</ele>
        <time>2022-08-19T07:17:59.000Z</time>
      </trkpt>
      <trkpt lat="49.8561" lon="4.77816">
        <ele>311</ele>
        <time>2022-08-19T07:18:00.000Z</time>
      </trkpt>
      <trkpt lat="49.85609" lon="4.77813">
        <ele>312</ele>
        <time>2022-08-19T07:18:01.000Z</time>
      </trkpt>
      <trkpt lat="49.85608" lon="4.77809">
        <ele>312</ele>
        <time>2022-08-19T07:18:02.000Z</time>
      </trkpt>
      <trkpt lat="49.85608" lon="4.77806">
        <ele>312</ele>
        <time>2022-08-19T07:18:03.000Z</time>
      </trkpt>
      <trkpt lat="49.85607" lon="4.77803">
        <ele>312</ele>
        <time>2022-08-19T07:18:04.000Z</time>
      </trkpt>
      <trkpt lat="49.85607" lon="4.778">
        <ele>312</ele>
        <time>2022-08-19T07:18:05.000Z</time>
      </trkpt>
      <trkpt lat="49.85606" lon="4.77797">
        <ele>312</ele>
        <time>2022-08-19T07:18:06.000Z</time>
      </trkpt>
      <trkpt lat="49.85605" lon="4.77794">
        <ele>312</ele>
        <time>2022-08-19T07:18:07.000Z</time>
      </trkpt>
      <trkpt lat="49.85603" lon="4.7779">
        <ele>312</ele>
        <time>2022-08-19T07:18:08.000Z</time>
      </trkpt>
      <trkpt lat="49.85602" lon="4.77785">
        <ele>312</ele>
        <time>2022-08-19T07:18:09.000Z</time>
      </trkpt>
      <trkpt lat="49.856" lon="4.77781">
        <ele>312</ele>
        <time>2022-08-19T07:18:10.000Z</time>
      </trkpt>
      <trkpt lat="49.85599" lon="4.77775">
        <ele>312</ele>
        <time>2022-08-19T07:18:11.000Z</time>
      </trkpt>
      <trkpt lat="49.85597" lon="4.7777">
        <ele>312</ele>
        <time>2022-08-19T07:18:12.000Z</time>
      </trkpt>
      <trkpt lat="49.85596" lon="4.77765">
        <ele>312</ele>
        <time>2022-08-19T07:18:13.000Z</time>
      </trkpt>
      <trkpt lat="49.85594" lon="4.7776">
        <ele>312</ele>
        <time>2022-08-19T07:18:14.000Z</time>
      </trkpt>
      <trkpt lat="49.85593" lon="4.77755">
        <ele>312</ele>
        <time>2022-08-19T07:18:15.000Z</time>
      </trkpt>
      <trkpt lat="49.85593" lon="4.77751">
        <ele>312</ele>
        <time>2022-08-19T07:18:16.000Z</time>
      </trkpt>
      <trkpt lat="49.85593" lon="4.77746">
        <ele>312</ele>
        <time>2022-08-19T07:18:17.000Z</time>
      </trkpt>
      <trkpt lat="49.85594" lon="4.77742">
        <ele>312</ele>
        <time>2022-08-19T07:18:18.000Z</time>
      </trkpt>
      <trkpt lat="49.85596" lon="4.77738">
        <ele>312</ele>
        <time>2022-08-19T07:18:19.000Z</time>
      </trkpt>
      <trkpt lat="49.85598" lon="4.77735">
        <ele>312</ele>
        <time>2022-08-19T07:18:20.000Z</time>
      </trkpt>
      <trkpt lat="49.856" lon="4.77732">
        <ele>312</ele>
        <time>2022-08-19T07:18:21.000Z</time>
      </trkpt>
      <trkpt lat="49.85604" lon="4.77729">
        <ele>312</ele>
        <time>2022-08-19T07:18:22.000Z</time>
      </trkpt>
      <trkpt lat="49.85607" lon="4.77726">
        <ele>312</ele>
        <time>2022-08-19T07:18:23.000Z</time>
      </trkpt>
      <trkpt lat="49.85611" lon="4.77724">
        <ele>311</ele>
        <time>2022-08-19T07:18:24.000Z</time>
      </trkpt>
      <trkpt lat="49.85614" lon="4.77721">
        <ele>311</ele>
        <time>2022-08-19T07:18:25.000Z</time>
      </trkpt>
      <trkpt lat="49.85618" lon="4.77718">
        <ele>311</ele>
        <time>2022-08-19T07:18:26.000Z</time>
      </trkpt>
      <trkpt lat="49.85622" lon="4.77715">
        <ele>311</ele>
        <time>2022-08-19T07:18:27.000Z</time>
      </trkpt>
      <trkpt lat="49.85626" lon="4.77711">
        <ele>311</ele>
        <time>2022-08-19T07:18:28.000Z</time>
      </trkpt>
      <trkpt lat="49.8563" lon="4.77707">
        <ele>311</ele>
        <time>2022-08-19T07:18:29.000Z</time>
      </trkpt>
      <trkpt lat="49.85634" lon="4.77704">
        <ele>311</ele>
        <time>2022-08-19T07:18:30.000Z</time>
      </trkpt>
      <trkpt lat="49.85638" lon="4.77699">
        <ele>310</ele>
        <time>2022-08-19T07:18:31.000Z</time>
      </trkpt>
      <trkpt lat="49.85642" lon="4.77695">
        <ele>310</ele>
        <time>2022-08-19T07:18:32.000Z</time>
      </trkpt>
      <trkpt lat="49.85647" lon="4.77691">
        <ele>310</ele>
        <time>2022-08-19T07:18:33.000Z</time>
      </trkpt>
      <trkpt lat="49.85652" lon="4.77689">
        <ele>310</ele>
        <time>2022-08-19T07:18:34.000Z</time>
      </trkpt>
      <trkpt lat="49.85656" lon="4.77686">
        <ele>310</ele>
        <time>2022-08-19T07:18:35.000Z</time>
      </trkpt>
      <trkpt lat="49.8566" lon="4.77682">
        <ele>310</ele>
        <time>2022-08-19T07:18:36.000Z</time>
      </trkpt>
      <trkpt lat="49.85664" lon="4.77679">
        <ele>310</ele>
        <time>2022-08-19T07:18:37.000Z</time>
      </trkpt>
      <trkpt lat="49.85668" lon="4.77677">
        <ele>310</ele>
        <time>2022-08-19T07:18:38.000Z</time>
      </trkpt>
      <trkpt lat="49.85671" lon="4.77673">
        <ele>310</ele>
        <time>2022-08-19T07:18:39.000Z</time>
      </trkpt>
      <trkpt lat="49.85675" lon="4.7767">
        <ele>309</ele>
        <time>2022-08-19T07:18:40.000Z</time>
      </trkpt>
      <trkpt lat="49.85679" lon="4.77668">
        <ele>309</ele>
        <time>2022-08-19T07:18:41.000Z</time>
      </trkpt>
      <trkpt lat="49.85681" lon="4.77666">
        <ele>309</ele>
        <time>2022-08-19T07:18:42.000Z</time>
      </trkpt>
      <trkpt lat="49.85683" lon="4.77665">
        <ele>309</ele>
        <time>2022-08-19T07:18:43.000Z</time>
      </trkpt>
      <trkpt lat="49.85686" lon="4.77663">
        <ele>309</ele>
        <time>2022-08-19T07:18:44.000Z</time>
      </trkpt>
      <trkpt lat="49.85689" lon="4.7766">
        <ele>309</ele>
        <time>2022-08-19T07:18:45.000Z</time>
      </trkpt>
      <trkpt lat="49.85691" lon="4.77657">
        <ele>309</ele>
        <time>2022-08-19T07:18:46.000Z</time>
      </trkpt>
      <trkpt lat="49.85694" lon="4.77654">
        <ele>308</ele>
        <time>2022-08-19T07:18:47.000Z</time>
      </trkpt>
      <trkpt lat="49.85697" lon="4.77651">
        <ele>308</ele>
        <time>2022-08-19T07:18:48.000Z</time>
      </trkpt>
      <trkpt lat="49.85701" lon="4.77648">
        <ele>308</ele>
        <time>2022-08-19T07:18:49.000Z</time>
      </trkpt>
      <trkpt lat="49.85704" lon="4.77646">
        <ele>308</ele>
        <time>2022-08-19T07:18:50.000Z</time>
      </trkpt>
      <trkpt lat="49.85708" lon="4.77643">
        <ele>307</ele>
        <time>2022-08-19T07:18:51.000Z</time>
      </trkpt>
      <trkpt lat="49.85711" lon="4.77639">
        <ele>307</ele>
        <time>2022-08-19T07:18:52.000Z</time>
      </trkpt>
      <trkpt lat="49.85714" lon="4.77636">
        <ele>307</ele>
        <time>2022-08-19T07:18:53.000Z</time>
      </trkpt>
      <trkpt lat="49.85717" lon="4.77633">
        <ele>306</ele>
        <time>2022-08-19T07:18:54.000Z</time>
      </trkpt>
      <trkpt lat="49.8572" lon="4.77631">
        <ele>306</ele>
        <time>2022-08-19T07:18:55.000Z</time>
      </trkpt>
      <trkpt lat="49.85722" lon="4.77629">
        <ele>305</ele>
        <time>2022-08-19T07:18:56.000Z</time>
      </trkpt>
      <trkpt lat="49.85723" lon="4.77626">
        <ele>305</ele>
        <time>2022-08-19T07:18:57.000Z</time>
      </trkpt>
      <trkpt lat="49.85725" lon="4.77622">
        <ele>305</ele>
        <time>2022-08-19T07:18:58.000Z</time>
      </trkpt>
      <trkpt lat="49.85725" lon="4.77619">
        <ele>304</ele>
        <time>2022-08-19T07:18:59.000Z</time>
      </trkpt>
      <trkpt lat="49.85725" lon="4.77615">
        <ele>304</ele>
        <time>2022-08-19T07:19:00.000Z</time>
      </trkpt>
      <trkpt lat="49.85724" lon="4.77611">
        <ele>303</ele>
        <time>2022-08-19T07:19:01.000Z</time>
      </trkpt>
      <trkpt lat="49.85724" lon="4.77607">
        <ele>303</ele>
        <time>2022-08-19T07:19:02.000Z</time>
      </trkpt>
      <trkpt lat="49.85724" lon="4.77604">
        <ele>303</ele>
        <time>2022-08-19T07:19:03.000Z</time>
      </trkpt>
      <trkpt lat="49.85723" lon="4.77602">
        <ele>302</ele>
        <time>2022-08-19T07:19:04.000Z</time>
      </trkpt>
      <trkpt lat="49.85723" lon="4.77599">
        <ele>302</ele>
        <time>2022-08-19T07:19:05.000Z</time>
      </trkpt>
      <trkpt lat="49.85722" lon="4.77597">
        <ele>301</ele>
        <time>2022-08-19T07:19:06.000Z</time>
      </trkpt>
      <trkpt lat="49.85722" lon="4.77595">
        <ele>301</ele>
        <time>2022-08-19T07:19:07.000Z</time>
      </trkpt>
      <trkpt lat="49.85721" lon="4.77592">
        <ele>300</ele>
        <time>2022-08-19T07:19:08.000Z</time>
      </trkpt>
      <trkpt lat="49.85721" lon="4.7759">
        <ele>300</ele>
        <time>2022-08-19T07:19:09.000Z</time>
      </trkpt>
      <trkpt lat="49.8572" lon="4.77587">
        <ele>300</ele>
        <time>2022-08-19T07:19:10.000Z</time>
      </trkpt>
      <trkpt lat="49.85719" lon="4.77584">
        <ele>299</ele>
        <time>2022-08-19T07:19:11.000Z</time>
      </trkpt>
      <trkpt lat="49.8572" lon="4.77582">
        <ele>299</ele>
        <time>2022-08-19T07:19:12.000Z</time>
      </trkpt>
      <trkpt lat="49.8572" lon="4.77579">
        <ele>298</ele>
        <time>2022-08-19T07:19:13.000Z</time>
      </trkpt>
      <trkpt lat="49.8572" lon="4.77576">
        <ele>298</ele>
        <time>2022-08-19T07:19:14.000Z</time>
      </trkpt>
      <trkpt lat="49.85719" lon="4.77573">
        <ele>298</ele>
        <time>2022-08-19T07:19:15.000Z</time>
      </trkpt>
      <trkpt lat="49.85718" lon="4.77568">
        <ele>297</ele>
        <time>2022-08-19T07:19:16.000Z</time>
      </trkpt>
      <trkpt lat="49.85717" lon="4.77563">
        <ele>297</ele>
        <time>2022-08-19T07:19:17.000Z</time>
      </trkpt>
      <trkpt lat="49.85715" lon="4.77557">
        <ele>296</ele>
        <time>2022-08-19T07:19:18.000Z</time>
      </trkpt>
      <trkpt lat="49.85714" lon="4.77552">
        <ele>296</ele>
        <time>2022-08-19T07:19:19.000Z</time>
      </trkpt>
      <trkpt lat="49.85712" lon="4.77546">
        <ele>295</ele>
        <time>2022-08-19T07:19:20.000Z</time>
      </trkpt>
      <trkpt lat="49.85711" lon="4.77542">
        <ele>295</ele>
        <time>2022-08-19T07:19:21.000Z</time>
      </trkpt>
      <trkpt lat="49.85709" lon="4.77537">
        <ele>294</ele>
        <time>2022-08-19T07:19:22.000Z</time>
      </trkpt>
      <trkpt lat="49.85708" lon="4.77532">
        <ele>294</ele>
        <time>2022-08-19T07:19:23.000Z</time>
      </trkpt>
      <trkpt lat="49.85707" lon="4.77527">
        <ele>294</ele>
        <time>2022-08-19T07:19:24.000Z</time>
      </trkpt>
      <trkpt lat="49.85706" lon="4.77522">
        <ele>293</ele>
        <time>2022-08-19T07:19:25.000Z</time>
      </trkpt>
      <trkpt lat="49.85704" lon="4.77516">
        <ele>293</ele>
        <time>2022-08-19T07:19:26.000Z</time>
      </trkpt>
      <trkpt lat="49.85702" lon="4.7751">
        <ele>292</ele>
        <time>2022-08-19T07:19:27.000Z</time>
      </trkpt>
      <trkpt lat="49.857" lon="4.77504">
        <ele>292</ele>
        <time>2022-08-19T07:19:28.000Z</time>
      </trkpt>
      <trkpt lat="49.85698" lon="4.77498">
        <ele>291</ele>
        <time>2022-08-19T07:19:29.000Z</time>
      </trkpt>
      <trkpt lat="49.85696" lon="4.77492">
        <ele>291</ele>
        <time>2022-08-19T07:19:30.000Z</time>
      </trkpt>
      <trkpt lat="49.85693" lon="4.77486">
        <ele>290</ele>
        <time>2022-08-19T07:19:31.000Z</time>
      </trkpt>
      <trkpt lat="49.85691" lon="4.77478">
        <ele>290</ele>
        <time>2022-08-19T07:19:32.000Z</time>
      </trkpt>
      <trkpt lat="49.85688" lon="4.77471">
        <ele>289</ele>
        <time>2022-08-19T07:19:33.000Z</time>
      </trkpt>
      <trkpt lat="49.85686" lon="4.77463">
        <ele>288</ele>
        <time>2022-08-19T07:19:34.000Z</time>
      </trkpt>
      <trkpt lat="49.85683" lon="4.77455">
        <ele>288</ele>
        <time>2022-08-19T07:19:35.000Z</time>
      </trkpt>
      <trkpt lat="49.85681" lon="4.77448">
        <ele>287</ele>
        <time>2022-08-19T07:19:36.000Z</time>
      </trkpt>
      <trkpt lat="49.85679" lon="4.77441">
        <ele>287</ele>
        <time>2022-08-19T07:19:37.000Z</time>
      </trkpt>
      <trkpt lat="49.85677" lon="4.77434">
        <ele>286</ele>
        <time>2022-08-19T07:19:38.000Z</time>
      </trkpt>
      <trkpt lat="49.85675" lon="4.77428">
        <ele>285</ele>
        <time>2022-08-19T07:19:39.000Z</time>
      </trkpt>
      <trkpt lat="49.85673" lon="4.77421">
        <ele>284</ele>
        <time>2022-08-19T07:19:40.000Z</time>
      </trkpt>
      <trkpt lat="49.85671" lon="4.77415">
        <ele>284</ele>
        <time>2022-08-19T07:19:41.000Z</time>
      </trkpt>
      <trkpt lat="49.85669" lon="4.77409">
        <ele>283</ele>
        <time>2022-08-19T07:19:42.000Z</time>
      </trkpt>
      <trkpt lat="49.85666" lon="4.77403">
        <ele>282</ele>
        <time>2022-08-19T07:19:43.000Z</time>
      </trkpt>
      <trkpt lat="49.85664" lon="4.77397">
        <ele>281</ele>
        <time>2022-08-19T07:19:44.000Z</time>
      </trkpt>
      <trkpt lat="49.85662" lon="4.77392">
        <ele>281</ele>
        <time>2022-08-19T07:19:45.000Z</time>
      </trkpt>
      <trkpt lat="49.8566" lon="4.77388">
        <ele>280</ele>
        <time>2022-08-19T07:19:46.000Z</time>
      </trkpt>
      <trkpt lat="49.85659" lon="4.77382">
        <ele>279</ele>
        <time>2022-08-19T07:19:47.000Z</time>
      </trkpt>
      <trkpt lat="49.85658" lon="4.77377">
        <ele>278</ele>
        <time>2022-08-19T07:19:48.000Z</time>
      </trkpt>
      <trkpt lat="49.85657" lon="4.77372">
        <ele>277</ele>
        <time>2022-08-19T07:19:49.000Z</time>
      </trkpt>
      <trkpt lat="49.85656" lon="4.77368">
        <ele>277</ele>
        <time>2022-08-19T07:19:50.000Z</time>
      </trkpt>
      <trkpt lat="49.85655" lon="4.77364">
        <ele>276</ele>
        <time>2022-08-19T07:19:51.000Z</time>
      </trkpt>
      <trkpt lat="49.85655" lon="4.77362">
        <ele>276</ele>
        <time>2022-08-19T07:19:52.000Z</time>
      </trkpt>
      <trkpt lat="49.85657" lon="4.7736">
        <ele>275</ele>
        <time>2022-08-19T07:19:53.000Z</time>
      </trkpt>
      <trkpt lat="49.85659" lon="4.77359">
        <ele>275</ele>
        <time>2022-08-19T07:19:54.000Z</time>
      </trkpt>
      <trkpt lat="49.85661" lon="4.77359">
        <ele>274</ele>
        <time>2022-08-19T07:19:55.000Z</time>
      </trkpt>
      <trkpt lat="49.85664" lon="4.77359">
        <ele>274</ele>
        <time>2022-08-19T07:19:56.000Z</time>
      </trkpt>
      <trkpt lat="49.85667" lon="4.77359">
        <ele>273</ele>
        <time>2022-08-19T07:19:57.000Z</time>
      </trkpt>
      <trkpt lat="49.85671" lon="4.7736">
        <ele>273</ele>
        <time>2022-08-19T07:19:58.000Z</time>
      </trkpt>
      <trkpt lat="49.85675" lon="4.77361">
        <ele>272</ele>
        <time>2022-08-19T07:19:59.000Z</time>
      </trkpt>
      <trkpt lat="49.85678" lon="4.77362">
        <ele>272</ele>
        <time>2022-08-19T07:20:00.000Z</time>
      </trkpt>
      <trkpt lat="49.85681" lon="4.77363">
        <ele>271</ele>
        <time>2022-08-19T07:20:01.000Z</time>
      </trkpt>
      <trkpt lat="49.85684" lon="4.77365">
        <ele>271</ele>
        <time>2022-08-19T07:20:02.000Z</time>
      </trkpt>
      <trkpt lat="49.85687" lon="4.77366">
        <ele>271</ele>
        <time>2022-08-19T07:20:03.000Z</time>
      </trkpt>
      <trkpt lat="49.85689" lon="4.77368">
        <ele>270</ele>
        <time>2022-08-19T07:20:04.000Z</time>
      </trkpt>
      <trkpt lat="49.85692" lon="4.7737">
        <ele>270</ele>
        <time>2022-08-19T07:20:05.000Z</time>
      </trkpt>
      <trkpt lat="49.85695" lon="4.77373">
        <ele>269</ele>
        <time>2022-08-19T07:20:06.000Z</time>
      </trkpt>
      <trkpt lat="49.85697" lon="4.77375">
        <ele>269</ele>
        <time>2022-08-19T07:20:07.000Z</time>
      </trkpt>
      <trkpt lat="49.857" lon="4.77379">
        <ele>268</ele>
        <time>2022-08-19T07:20:08.000Z</time>
      </trkpt>
      <trkpt lat="49.85704" lon="4.77381">
        <ele>268</ele>
        <time>2022-08-19T07:20:09.000Z</time>
      </trkpt>
      <trkpt lat="49.85707" lon="4.77383">
        <ele>268</ele>
        <time>2022-08-19T07:20:10.000Z</time>
      </trkpt>
      <trkpt lat="49.8571" lon="4.77385">
        <ele>267</ele>
        <time>2022-08-19T07:20:11.000Z</time>
      </trkpt>
      <trkpt lat="49.85713" lon="4.77387">
        <ele>267</ele>
        <time>2022-08-19T07:20:12.000Z</time>
      </trkpt>
      <trkpt lat="49.85717" lon="4.77389">
        <ele>266</ele>
        <time>2022-08-19T07:20:13.000Z</time>
      </trkpt>
      <trkpt lat="49.85721" lon="4.7739">
        <ele>266</ele>
        <time>2022-08-19T07:20:14.000Z</time>
      </trkpt>
      <trkpt lat="49.85724" lon="4.77391">
        <ele>266</ele>
        <time>2022-08-19T07:20:15.000Z</time>
      </trkpt>
      <trkpt lat="49.85727" lon="4.77393">
        <ele>265</ele>
        <time>2022-08-19T07:20:16.000Z</time>
      </trkpt>
      <trkpt lat="49.85729" lon="4.77393">
        <ele>265</ele>
        <time>2022-08-19T07:20:17.000Z</time>
      </trkpt>
      <trkpt lat="49.8573" lon="4.77393">
        <ele>265</ele>
        <time>2022-08-19T07:20:18.000Z</time>
      </trkpt>
      <trkpt lat="49.85732" lon="4.77393">
        <ele>265</ele>
        <time>2022-08-19T07:20:19.000Z</time>
      </trkpt>
      <trkpt lat="49.85733" lon="4.77391">
        <ele>265</ele>
        <time>2022-08-19T07:20:20.000Z</time>
      </trkpt>
      <trkpt lat="49.85734" lon="4.77388">
        <ele>264</ele>
        <time>2022-08-19T07:20:21.000Z</time>
      </trkpt>
      <trkpt lat="49.85735" lon="4.77385">
        <ele>264</ele>
        <time>2022-08-19T07:20:22.000Z</time>
      </trkpt>
      <trkpt lat="49.85734" lon="4.77379">
        <ele>264</ele>
        <time>2022-08-19T07:20:23.000Z</time>
      </trkpt>
      <trkpt lat="49.85734" lon="4.77372">
        <ele>264</ele>
        <time>2022-08-19T07:20:24.000Z</time>
      </trkpt>
      <trkpt lat="49.85733" lon="4.77365">
        <ele>263</ele>
        <time>2022-08-19T07:20:25.000Z</time>
      </trkpt>
      <trkpt lat="49.85733" lon="4.77359">
        <ele>263</ele>
        <time>2022-08-19T07:20:26.000Z</time>
      </trkpt>
      <trkpt lat="49.85733" lon="4.77351">
        <ele>263</ele>
        <time>2022-08-19T07:20:27.000Z</time>
      </trkpt>
      <trkpt lat="49.85733" lon="4.77344">
        <ele>262</ele>
        <time>2022-08-19T07:20:28.000Z</time>
      </trkpt>
      <trkpt lat="49.85732" lon="4.77338">
        <ele>262</ele>
        <time>2022-08-19T07:20:29.000Z</time>
      </trkpt>
      <trkpt lat="49.85732" lon="4.77332">
        <ele>262</ele>
        <time>2022-08-19T07:20:30.000Z</time>
      </trkpt>
      <trkpt lat="49.8573" lon="4.77326">
        <ele>261</ele>
        <time>2022-08-19T07:20:31.000Z</time>
      </trkpt>
      <trkpt lat="49.85729" lon="4.7732">
        <ele>261</ele>
        <time>2022-08-19T07:20:32.000Z</time>
      </trkpt>
      <trkpt lat="49.85727" lon="4.77314">
        <ele>260</ele>
        <time>2022-08-19T07:20:33.000Z</time>
      </trkpt>
      <trkpt lat="49.85726" lon="4.77308">
        <ele>260</ele>
        <time>2022-08-19T07:20:34.000Z</time>
      </trkpt>
      <trkpt lat="49.85725" lon="4.77302">
        <ele>259</ele>
        <time>2022-08-19T07:20:35.000Z</time>
      </trkpt>
      <trkpt lat="49.85724" lon="4.77296">
        <ele>259</ele>
        <time>2022-08-19T07:20:36.000Z</time>
      </trkpt>
      <trkpt lat="49.85723" lon="4.7729">
        <ele>259</ele>
        <time>2022-08-19T07:20:37.000Z</time>
      </trkpt>
      <trkpt lat="49.85722" lon="4.77282">
        <ele>258</ele>
        <time>2022-08-19T07:20:38.000Z</time>
      </trkpt>
      <trkpt lat="49.8572" lon="4.77274">
        <ele>258</ele>
        <time>2022-08-19T07:20:39.000Z</time>
      </trkpt>
      <trkpt lat="49.85717" lon="4.77268">
        <ele>257</ele>
        <time>2022-08-19T07:20:40.000Z</time>
      </trkpt>
      <trkpt lat="49.85715" lon="4.77261">
        <ele>257</ele>
        <time>2022-08-19T07:20:41.000Z</time>
      </trkpt>
      <trkpt lat="49.85713" lon="4.77254">
        <ele>256</ele>
        <time>2022-08-19T07:20:42.000Z</time>
      </trkpt>
      <trkpt lat="49.85712" lon="4.77248">
        <ele>256</ele>
        <time>2022-08-19T07:20:43.000Z</time>
      </trkpt>
      <trkpt lat="49.85711" lon="4.77242">
        <ele>255</ele>
        <time>2022-08-19T07:20:44.000Z</time>
      </trkpt>
      <trkpt lat="49.85712" lon="4.77235">
        <ele>255</ele>
        <time>2022-08-19T07:20:45.000Z</time>
      </trkpt>
      <trkpt lat="49.85713" lon="4.7723">
        <ele>254</ele>
        <time>2022-08-19T07:20:46.000Z</time>
      </trkpt>
      <trkpt lat="49.85715" lon="4.77224">
        <ele>254</ele>
        <time>2022-08-19T07:20:47.000Z</time>
      </trkpt>
      <trkpt lat="49.85716" lon="4.77219">
        <ele>253</ele>
        <time>2022-08-19T07:20:48.000Z</time>
      </trkpt>
      <trkpt lat="49.85717" lon="4.77213">
        <ele>253</ele>
        <time>2022-08-19T07:20:49.000Z</time>
      </trkpt>
      <trkpt lat="49.85717" lon="4.77207">
        <ele>253</ele>
        <time>2022-08-19T07:20:50.000Z</time>
      </trkpt>
      <trkpt lat="49.85718" lon="4.77201">
        <ele>252</ele>
        <time>2022-08-19T07:20:51.000Z</time>
      </trkpt>
      <trkpt lat="49.85718" lon="4.77197">
        <ele>252</ele>
        <time>2022-08-19T07:20:52.000Z</time>
      </trkpt>
      <trkpt lat="49.85718" lon="4.77192">
        <ele>251</ele>
        <time>2022-08-19T07:20:53.000Z</time>
      </trkpt>
      <trkpt lat="49.85717" lon="4.77189">
        <ele>251</ele>
        <time>2022-08-19T07:20:54.000Z</time>
      </trkpt>
      <trkpt lat="49.85716" lon="4.77184">
        <ele>250</ele>
        <time>2022-08-19T07:20:55.000Z</time>
      </trkpt>
      <trkpt lat="49.85714" lon="4.77178">
        <ele>249</ele>
        <time>2022-08-19T07:20:56.000Z</time>
      </trkpt>
      <trkpt lat="49.85712" lon="4.77171">
        <ele>249</ele>
        <time>2022-08-19T07:20:57.000Z</time>
      </trkpt>
      <trkpt lat="49.85709" lon="4.77164">
        <ele>248</ele>
        <time>2022-08-19T07:20:58.000Z</time>
      </trkpt>
      <trkpt lat="49.85707" lon="4.77156">
        <ele>248</ele>
        <time>2022-08-19T07:20:59.000Z</time>
      </trkpt>
      <trkpt lat="49.85705" lon="4.77148">
        <ele>247</ele>
        <time>2022-08-19T07:21:00.000Z</time>
      </trkpt>
      <trkpt lat="49.85703" lon="4.7714">
        <ele>247</ele>
        <time>2022-08-19T07:21:01.000Z</time>
      </trkpt>
      <trkpt lat="49.857" lon="4.77131">
        <ele>246</ele>
        <time>2022-08-19T07:21:02.000Z</time>
      </trkpt>
      <trkpt lat="49.85697" lon="4.77122">
        <ele>245</ele>
        <time>2022-08-19T07:21:03.000Z</time>
      </trkpt>
      <trkpt lat="49.85695" lon="4.77114">
        <ele>245</ele>
        <time>2022-08-19T07:21:04.000Z</time>
      </trkpt>
      <trkpt lat="49.85692" lon="4.77105">
        <ele>244</ele>
        <time>2022-08-19T07:21:05.000Z</time>
      </trkpt>
      <trkpt lat="49.8569" lon="4.77097">
        <ele>243</ele>
        <time>2022-08-19T07:21:06.000Z</time>
      </trkpt>
      <trkpt lat="49.85687" lon="4.77089">
        <ele>243</ele>
        <time>2022-08-19T07:21:07.000Z</time>
      </trkpt>
      <trkpt lat="49.85683" lon="4.7708">
        <ele>242</ele>
        <time>2022-08-19T07:21:08.000Z</time>
      </trkpt>
      <trkpt lat="49.8568" lon="4.77071">
        <ele>241</ele>
        <time>2022-08-19T07:21:09.000Z</time>
      </trkpt>
      <trkpt lat="49.85676" lon="4.77062">
        <ele>240</ele>
        <time>2022-08-19T07:21:10.000Z</time>
      </trkpt>
      <trkpt lat="49.85673" lon="4.77053">
        <ele>239</ele>
        <time>2022-08-19T07:21:11.000Z</time>
      </trkpt>
      <trkpt lat="49.85669" lon="4.77044">
        <ele>239</ele>
        <time>2022-08-19T07:21:12.000Z</time>
      </trkpt>
      <trkpt lat="49.85666" lon="4.77035">
        <ele>238</ele>
        <time>2022-08-19T07:21:13.000Z</time>
      </trkpt>
      <trkpt lat="49.85662" lon="4.77025">
        <ele>237</ele>
        <time>2022-08-19T07:21:14.000Z</time>
      </trkpt>
      <trkpt lat="49.85658" lon="4.77017">
        <ele>236</ele>
        <time>2022-08-19T07:21:15.000Z</time>
      </trkpt>
      <trkpt lat="49.85654" lon="4.77008">
        <ele>235</ele>
        <time>2022-08-19T07:21:16.000Z</time>
      </trkpt>
      <trkpt lat="49.8565" lon="4.76999">
        <ele>234</ele>
        <time>2022-08-19T07:21:17.000Z</time>
      </trkpt>
      <trkpt lat="49.85647" lon="4.76991">
        <ele>233</ele>
        <time>2022-08-19T07:21:18.000Z</time>
      </trkpt>
      <trkpt lat="49.85643" lon="4.76983">
        <ele>232</ele>
        <time>2022-08-19T07:21:19.000Z</time>
      </trkpt>
      <trkpt lat="49.85639" lon="4.76974">
        <ele>231</ele>
        <time>2022-08-19T07:21:20.000Z</time>
      </trkpt>
      <trkpt lat="49.85635" lon="4.76964">
        <ele>230</ele>
        <time>2022-08-19T07:21:21.000Z</time>
      </trkpt>
      <trkpt lat="49.85631" lon="4.76954">
        <ele>228</ele>
        <time>2022-08-19T07:21:22.000Z</time>
      </trkpt>
      <trkpt lat="49.85627" lon="4.76944">
        <ele>227</ele>
        <time>2022-08-19T07:21:23.000Z</time>
      </trkpt>
      <trkpt lat="49.85624" lon="4.76933">
        <ele>225</ele>
        <time>2022-08-19T07:21:24.000Z</time>
      </trkpt>
      <trkpt lat="49.85621" lon="4.76922">
        <ele>224</ele>
        <time>2022-08-19T07:21:25.000Z</time>
      </trkpt>
      <trkpt lat="49.8562" lon="4.76912">
        <ele>222</ele>
        <time>2022-08-19T07:21:26.000Z</time>
      </trkpt>
      <trkpt lat="49.85619" lon="4.76902">
        <ele>221</ele>
        <time>2022-08-19T07:21:27.000Z</time>
      </trkpt>
      <trkpt lat="49.85619" lon="4.76892">
        <ele>219</ele>
        <time>2022-08-19T07:21:28.000Z</time>
      </trkpt>
      <trkpt lat="49.85618" lon="4.76883">
        <ele>218</ele>
        <time>2022-08-19T07:21:29.000Z</time>
      </trkpt>
      <trkpt lat="49.85618" lon="4.76873">
        <ele>217</ele>
        <time>2022-08-19T07:21:30.000Z</time>
      </trkpt>
      <trkpt lat="49.85617" lon="4.76864">
        <ele>215</ele>
        <time>2022-08-19T07:21:31.000Z</time>
      </trkpt>
      <trkpt lat="49.85617" lon="4.76856">
        <ele>214</ele>
        <time>2022-08-19T07:21:32.000Z</time>
      </trkpt>
      <trkpt lat="49.85617" lon="4.76848">
        <ele>213</ele>
        <time>2022-08-19T07:21:33.000Z</time>
      </trkpt>
      <trkpt lat="49.85616" lon="4.76841">
        <ele>212</ele>
        <time>2022-08-19T07:21:34.000Z</time>
      </trkpt>
      <trkpt lat="49.85616" lon="4.76834">
        <ele>211</ele>
        <time>2022-08-19T07:21:35.000Z</time>
      </trkpt>
      <trkpt lat="49.85616" lon="4.76828">
        <ele>210</ele>
        <time>2022-08-19T07:21:36.000Z</time>
      </trkpt>
      <trkpt lat="49.85616" lon="4.76821">
        <ele>209</ele>
        <time>2022-08-19T07:21:37.000Z</time>
      </trkpt>
      <trkpt lat="49.85617" lon="4.76816">
        <ele>208</ele>
        <time>2022-08-19T07:21:38.000Z</time>
      </trkpt>
      <trkpt lat="49.85617" lon="4.76811">
        <ele>207</ele>
        <time>2022-08-19T07:21:39.000Z</time>
      </trkpt>
      <trkpt lat="49.85617" lon="4.76805">
        <ele>205</ele>
        <time>2022-08-19T07:21:40.000Z</time>
      </trkpt>
      <trkpt lat="49.85617" lon="4.76799">
        <ele>204</ele>
        <time>2022-08-19T07:21:41.000Z</time>
      </trkpt>
      <trkpt lat="49.85618" lon="4.76794">
        <ele>203</ele>
        <time>2022-08-19T07:21:42.000Z</time>
      </trkpt>
      <trkpt lat="49.85619" lon="4.76788">
        <ele>202</ele>
        <time>2022-08-19T07:21:43.000Z</time>
      </trkpt>
      <trkpt lat="49.85621" lon="4.76783">
        <ele>201</ele>
        <time>2022-08-19T07:21:44.000Z</time>
      </trkpt>
      <trkpt lat="49.85623" lon="4.76779">
        <ele>200</ele>
        <time>2022-08-19T07:21:45.000Z</time>
      </trkpt>
      <trkpt lat="49.85627" lon="4.76775">
        <ele>199</ele>
        <time>2022-08-19T07:21:46.000Z</time>
      </trkpt>
      <trkpt lat="49.85632" lon="4.76771">
        <ele>198</ele>
        <time>2022-08-19T07:21:47.000Z</time>
      </trkpt>
      <trkpt lat="49.85636" lon="4.76766">
        <ele>197</ele>
        <time>2022-08-19T07:21:48.000Z</time>
      </trkpt>
      <trkpt lat="49.8564" lon="4.76761">
        <ele>196</ele>
        <time>2022-08-19T07:21:49.000Z</time>
      </trkpt>
      <trkpt lat="49.85645" lon="4.76757">
        <ele>195</ele>
        <time>2022-08-19T07:21:50.000Z</time>
      </trkpt>
      <trkpt lat="49.85649" lon="4.76753">
        <ele>194</ele>
        <time>2022-08-19T07:21:51.000Z</time>
      </trkpt>
      <trkpt lat="49.85654" lon="4.76749">
        <ele>193</ele>
        <time>2022-08-19T07:21:52.000Z</time>
      </trkpt>
      <trkpt lat="49.85658" lon="4.76745">
        <ele>193</ele>
        <time>2022-08-19T07:21:53.000Z</time>
      </trkpt>
      <trkpt lat="49.85663" lon="4.7674">
        <ele>192</ele>
        <time>2022-08-19T07:21:54.000Z</time>
      </trkpt>
      <trkpt lat="49.85667" lon="4.76734">
        <ele>191</ele>
        <time>2022-08-19T07:21:55.000Z</time>
      </trkpt>
      <trkpt lat="49.85671" lon="4.76729">
        <ele>191</ele>
        <time>2022-08-19T07:21:56.000Z</time>
      </trkpt>
      <trkpt lat="49.85674" lon="4.76725">
        <ele>190</ele>
        <time>2022-08-19T07:21:57.000Z</time>
      </trkpt>
      <trkpt lat="49.85677" lon="4.76721">
        <ele>190</ele>
        <time>2022-08-19T07:21:58.000Z</time>
      </trkpt>
      <trkpt lat="49.8568" lon="4.76718">
        <ele>190</ele>
        <time>2022-08-19T07:21:59.000Z</time>
      </trkpt>
      <trkpt lat="49.85683" lon="4.76715">
        <ele>189</ele>
        <time>2022-08-19T07:22:00.000Z</time>
      </trkpt>
      <trkpt lat="49.85686" lon="4.76712">
        <ele>189</ele>
        <time>2022-08-19T07:22:01.000Z</time>
      </trkpt>
      <trkpt lat="49.85689" lon="4.7671">
        <ele>189</ele>
        <time>2022-08-19T07:22:02.000Z</time>
      </trkpt>
      <trkpt lat="49.85693" lon="4.76708">
        <ele>189</ele>
        <time>2022-08-19T07:22:03.000Z</time>
      </trkpt>
      <trkpt lat="49.85697" lon="4.76706">
        <ele>188</ele>
        <time>2022-08-19T07:22:04.000Z</time>
      </trkpt>
      <trkpt lat="49.85701" lon="4.76704">
        <ele>188</ele>
        <time>2022-08-19T07:22:05.000Z</time>
      </trkpt>
      <trkpt lat="49.85705" lon="4.76703">
        <ele>188</ele>
        <time>2022-08-19T07:22:06.000Z</time>
      </trkpt>
      <trkpt lat="49.85709" lon="4.76701">
        <ele>187</ele>
        <time>2022-08-19T07:22:07.000Z</time>
      </trkpt>
      <trkpt lat="49.85714" lon="4.767">
        <ele>187</ele>
        <time>2022-08-19T07:22:08.000Z</time>
      </trkpt>
      <trkpt lat="49.85718" lon="4.76698">
        <ele>187</ele>
        <time>2022-08-19T07:22:09.000Z</time>
      </trkpt>
      <trkpt lat="49.85722" lon="4.76697">
        <ele>187</ele>
        <time>2022-08-19T07:22:10.000Z</time>
      </trkpt>
      <trkpt lat="49.85727" lon="4.76696">
        <ele>186</ele>
        <time>2022-08-19T07:22:11.000Z</time>
      </trkpt>
      <trkpt lat="49.85731" lon="4.76696">
        <ele>186</ele>
        <time>2022-08-19T07:22:12.000Z</time>
      </trkpt>
      <trkpt lat="49.85736" lon="4.76695">
        <ele>186</ele>
        <time>2022-08-19T07:22:13.000Z</time>
      </trkpt>
      <trkpt lat="49.85739" lon="4.76694">
        <ele>186</ele>
        <time>2022-08-19T07:22:14.000Z</time>
      </trkpt>
      <trkpt lat="49.85743" lon="4.76693">
        <ele>186</ele>
        <time>2022-08-19T07:22:15.000Z</time>
      </trkpt>
      <trkpt lat="49.85748" lon="4.76691">
        <ele>186</ele>
        <time>2022-08-19T07:22:16.000Z</time>
      </trkpt>
      <trkpt lat="49.85752" lon="4.76689">
        <ele>186</ele>
        <time>2022-08-19T07:22:17.000Z</time>
      </trkpt>
      <trkpt lat="49.85757" lon="4.76688">
        <ele>186</ele>
        <time>2022-08-19T07:22:18.000Z</time>
      </trkpt>
      <trkpt lat="49.85763" lon="4.76687">
        <ele>186</ele>
        <time>2022-08-19T07:22:19.000Z</time>
      </trkpt>
      <trkpt lat="49.85769" lon="4.76687">
        <ele>186</ele>
        <time>2022-08-19T07:22:20.000Z</time>
      </trkpt>
      <trkpt lat="49.85774" lon="4.76685">
        <ele>186</ele>
        <time>2022-08-19T07:22:21.000Z</time>
      </trkpt>
      <trkpt lat="49.85778" lon="4.76684">
        <ele>186</ele>
        <time>2022-08-19T07:22:22.000Z</time>
      </trkpt>
      <trkpt lat="49.85782" lon="4.76682">
        <ele>186</ele>
        <time>2022-08-19T07:22:23.000Z</time>
      </trkpt>
      <trkpt lat="49.85785" lon="4.76681">
        <ele>186</ele>
        <time>2022-08-19T07:22:24.000Z</time>
      </trkpt>
      <trkpt lat="49.85789" lon="4.76679">
        <ele>186</ele>
        <time>2022-08-19T07:22:25.000Z</time>
      </trkpt>
      <trkpt lat="49.85793" lon="4.76676">
        <ele>186</ele>
        <time>2022-08-19T07:22:26.000Z</time>
      </trkpt>
      <trkpt lat="49.85798" lon="4.76673">
        <ele>186</ele>
        <time>2022-08-19T07:22:27.000Z</time>
      </trkpt>
      <trkpt lat="49.85803" lon="4.7667">
        <ele>186</ele>
        <time>2022-08-19T07:22:28.000Z</time>
      </trkpt>
      <trkpt lat="49.85808" lon="4.76667">
        <ele>186</ele>
        <time>2022-08-19T07:22:29.000Z</time>
      </trkpt>
      <trkpt lat="49.85813" lon="4.76664">
        <ele>186</ele>
        <time>2022-08-19T07:22:30.000Z</time>
      </trkpt>
      <trkpt lat="49.85817" lon="4.76662">
        <ele>186</ele>
        <time>2022-08-19T07:22:31.000Z</time>
      </trkpt>
      <trkpt lat="49.85821" lon="4.76661">
        <ele>186</ele>
        <time>2022-08-19T07:22:32.000Z</time>
      </trkpt>
      <trkpt lat="49.85824" lon="4.76661">
        <ele>186</ele>
        <time>2022-08-19T07:22:33.000Z</time>
      </trkpt>
      <trkpt lat="49.85827" lon="4.76661">
        <ele>186</ele>
        <time>2022-08-19T07:22:34.000Z</time>
      </trkpt>
      <trkpt lat="49.85829" lon="4.76661">
        <ele>187</ele>
        <time>2022-08-19T07:22:35.000Z</time>
      </trkpt>
      <trkpt lat="49.85831" lon="4.76661">
        <ele>187</ele>
        <time>2022-08-19T07:22:36.000Z</time>
      </trkpt>
      <trkpt lat="49.85834" lon="4.76661">
        <ele>187</ele>
        <time>2022-08-19T07:22:37.000Z</time>
      </trkpt>
      <trkpt lat="49.85835" lon="4.76661">
        <ele>187</ele>
        <time>2022-08-19T07:22:38.000Z</time>
      </trkpt>
      <trkpt lat="49.85837" lon="4.7666">
        <ele>187</ele>
        <time>2022-08-19T07:22:39.000Z</time>
      </trkpt>
      <trkpt lat="49.85839" lon="4.7666">
        <ele>187</ele>
        <time>2022-08-19T07:22:40.000Z</time>
      </trkpt>
      <trkpt lat="49.85842" lon="4.7666">
        <ele>187</ele>
        <time>2022-08-19T07:22:41.000Z</time>
      </trkpt>
      <trkpt lat="49.85843" lon="4.7666">
        <ele>187</ele>
        <time>2022-08-19T07:22:42.000Z</time>
      </trkpt>
      <trkpt lat="49.85845" lon="4.7666">
        <ele>188</ele>
        <time>2022-08-19T07:22:43.000Z</time>
      </trkpt>
      <trkpt lat="49.85847" lon="4.76661">
        <ele>188</ele>
        <time>2022-08-19T07:22:44.000Z</time>
      </trkpt>
      <trkpt lat="49.85849" lon="4.76661">
        <ele>188</ele>
        <time>2022-08-19T07:22:45.000Z</time>
      </trkpt>
      <trkpt lat="49.85851" lon="4.76662">
        <ele>188</ele>
        <time>2022-08-19T07:22:46.000Z</time>
      </trkpt>
      <trkpt lat="49.85853" lon="4.76662">
        <ele>189</ele>
        <time>2022-08-19T07:22:47.000Z</time>
      </trkpt>
      <trkpt lat="49.85855" lon="4.76662">
        <ele>189</ele>
        <time>2022-08-19T07:22:48.000Z</time>
      </trkpt>
      <trkpt lat="49.85856" lon="4.76662">
        <ele>189</ele>
        <time>2022-08-19T07:22:49.000Z</time>
      </trkpt>
      <trkpt lat="49.85858" lon="4.76662">
        <ele>189</ele>
        <time>2022-08-19T07:22:50.000Z</time>
      </trkpt>
      <trkpt lat="49.85861" lon="4.76662">
        <ele>190</ele>
        <time>2022-08-19T07:22:51.000Z</time>
      </trkpt>
      <trkpt lat="49.85863" lon="4.76662">
        <ele>190</ele>
        <time>2022-08-19T07:22:52.000Z</time>
      </trkpt>
      <trkpt lat="49.85865" lon="4.76662">
        <ele>190</ele>
        <time>2022-08-19T07:22:53.000Z</time>
      </trkpt>
      <trkpt lat="49.85868" lon="4.76662">
        <ele>190</ele>
        <time>2022-08-19T07:22:54.000Z</time>
      </trkpt>
      <trkpt lat="49.8587" lon="4.76662">
        <ele>191</ele>
        <time>2022-08-19T07:22:55.000Z</time>
      </trkpt>
      <trkpt lat="49.85873" lon="4.76662">
        <ele>191</ele>
        <time>2022-08-19T07:22:56.000Z</time>
      </trkpt>
      <trkpt lat="49.85876" lon="4.76663">
        <ele>191</ele>
        <time>2022-08-19T07:22:57.000Z</time>
      </trkpt>
      <trkpt lat="49.85878" lon="4.76664">
        <ele>191</ele>
        <time>2022-08-19T07:22:58.000Z</time>
      </trkpt>
      <trkpt lat="49.8588" lon="4.76665">
        <ele>191</ele>
        <time>2022-08-19T07:22:59.000Z</time>
      </trkpt>
      <trkpt lat="49.85883" lon="4.76665">
        <ele>192</ele>
        <time>2022-08-19T07:23:00.000Z</time>
      </trkpt>
      <trkpt lat="49.85885" lon="4.76665">
        <ele>192</ele>
        <time>2022-08-19T07:23:01.000Z</time>
      </trkpt>
      <trkpt lat="49.85888" lon="4.76666">
        <ele>192</ele>
        <time>2022-08-19T07:23:02.000Z</time>
      </trkpt>
      <trkpt lat="49.8589" lon="4.76667">
        <ele>192</ele>
        <time>2022-08-19T07:23:03.000Z</time>
      </trkpt>
      <trkpt lat="49.85893" lon="4.76668">
        <ele>193</ele>
        <time>2022-08-19T07:23:04.000Z</time>
      </trkpt>
      <trkpt lat="49.85896" lon="4.76669">
        <ele>193</ele>
        <time>2022-08-19T07:23:05.000Z</time>
      </trkpt>
      <trkpt lat="49.85899" lon="4.7667">
        <ele>193</ele>
        <time>2022-08-19T07:23:06.000Z</time>
      </trkpt>
      <trkpt lat="49.85902" lon="4.76671">
        <ele>193</ele>
        <time>2022-08-19T07:23:07.000Z</time>
      </trkpt>
      <trkpt lat="49.85904" lon="4.76671">
        <ele>193</ele>
        <time>2022-08-19T07:23:08.000Z</time>
      </trkpt>
      <trkpt lat="49.85907" lon="4.76672">
        <ele>194</ele>
        <time>2022-08-19T07:23:09.000Z</time>
      </trkpt>
      <trkpt lat="49.85909" lon="4.76672">
        <ele>194</ele>
        <time>2022-08-19T07:23:10.000Z</time>
      </trkpt>
      <trkpt lat="49.85912" lon="4.76673">
        <ele>194</ele>
        <time>2022-08-19T07:23:11.000Z</time>
      </trkpt>
      <trkpt lat="49.85914" lon="4.76673">
        <ele>194</ele>
        <time>2022-08-19T07:23:12.000Z</time>
      </trkpt>
      <trkpt lat="49.85917" lon="4.76675">
        <ele>195</ele>
        <time>2022-08-19T07:23:13.000Z</time>
      </trkpt>
      <trkpt lat="49.85919" lon="4.76675">
        <ele>195</ele>
        <time>2022-08-19T07:23:14.000Z</time>
      </trkpt>
      <trkpt lat="49.85921" lon="4.76676">
        <ele>195</ele>
        <time>2022-08-19T07:23:15.000Z</time>
      </trkpt>
      <trkpt lat="49.85924" lon="4.76676">
        <ele>195</ele>
        <time>2022-08-19T07:23:16.000Z</time>
      </trkpt>
      <trkpt lat="49.85925" lon="4.76676">
        <ele>196</ele>
        <time>2022-08-19T07:23:17.000Z</time>
      </trkpt>
      <trkpt lat="49.85926" lon="4.76676">
        <ele>196</ele>
        <time>2022-08-19T07:23:18.000Z</time>
      </trkpt>
      <trkpt lat="49.85926" lon="4.76676">
        <ele>196</ele>
        <time>2022-08-19T07:23:19.000Z</time>
      </trkpt>
      <trkpt lat="49.85926" lon="4.76676">
        <ele>196</ele>
        <time>2022-08-19T07:23:20.000Z</time>
      </trkpt>
      <trkpt lat="49.85927" lon="4.76675">
        <ele>196</ele>
        <time>2022-08-19T07:23:21.000Z</time>
      </trkpt>
      <trkpt lat="49.85927" lon="4.76675">
        <ele>196</ele>
        <time>2022-08-19T07:23:22.000Z</time>
      </trkpt>
      <trkpt lat="49.85927" lon="4.76675">
        <ele>196</ele>
        <time>2022-08-19T07:23:23.000Z</time>
      </trkpt>
      <trkpt lat="49.85927" lon="4.76675">
        <ele>197</ele>
        <time>2022-08-19T07:23:24.000Z</time>
      </trkpt>
      <trkpt lat="49.85928" lon="4.76675">
        <ele>197</ele>
        <time>2022-08-19T07:23:25.000Z</time>
      </trkpt>
      <trkpt lat="49.85928" lon="4.76675">
        <ele>197</ele>
        <time>2022-08-19T07:23:26.000Z</time>
      </trkpt>
      <trkpt lat="49.85929" lon="4.76675">
        <ele>197</ele>
        <time>2022-08-19T07:23:27.000Z</time>
      </trkpt>
      <trkpt lat="49.85929" lon="4.76676">
        <ele>197</ele>
        <time>2022-08-19T07:23:28.000Z</time>
      </trkpt>
      <trkpt lat="49.85929" lon="4.76676">
        <ele>197</ele>
        <time>2022-08-19T07:23:29.000Z</time>
      </trkpt>
      <trkpt lat="49.85929" lon="4.76676">
        <ele>197</ele>
        <time>2022-08-19T07:23:30.000Z</time>
      </trkpt>
      <trkpt lat="49.8593" lon="4.76677">
        <ele>198</ele>
        <time>2022-08-19T07:23:31.000Z</time>
      </trkpt>
      <trkpt lat="49.8593" lon="4.76677">
        <ele>198</ele>
        <time>2022-08-19T07:23:32.000Z</time>
      </trkpt>
      <trkpt lat="49.85931" lon="4.76677">
        <ele>198</ele>
        <time>2022-08-19T07:23:33.000Z</time>
      </trkpt>
      <trkpt lat="49.85931" lon="4.76677">
        <ele>198</ele>
        <time>2022-08-19T07:23:34.000Z</time>
      </trkpt>
      <trkpt lat="49.85931" lon="4.76677">
        <ele>198</ele>
        <time>2022-08-19T07:23:35.000Z</time>
      </trkpt>
      <trkpt lat="49.85931" lon="4.76677">
        <ele>198</ele>
        <time>2022-08-19T07:23:36.000Z</time>
      </trkpt>
      <trkpt lat="49.85931" lon="4.76677">
        <ele>198</ele>
        <time>2022-08-19T07:23:37.000Z</time>
      </trkpt>
      <trkpt lat="49.85932" lon="4.76678">
        <ele>198</ele>
        <time>2022-08-19T07:23:38.000Z</time>
      </trkpt>
      <trkpt lat="49.85933" lon="4.76678">
        <ele>199</ele>
        <time>2022-08-19T07:23:39.000Z</time>
      </trkpt>
      <trkpt lat="49.85934" lon="4.76678">
        <ele>199</ele>
        <time>2022-08-19T07:23:40.000Z</time>
      </trkpt>
      <trkpt lat="49.85936" lon="4.76679">
        <ele>199</ele>
        <time>2022-08-19T07:23:41.000Z</time>
      </trkpt>
      <trkpt lat="49.85938" lon="4.7668">
        <ele>199</ele>
        <time>2022-08-19T07:23:42.000Z</time>
      </trkpt>
      <trkpt lat="49.8594" lon="4.7668">
        <ele>199</ele>
        <time>2022-08-19T07:23:43.000Z</time>
      </trkpt>
      <trkpt lat="49.85942" lon="4.7668">
        <ele>200</ele>
        <time>2022-08-19T07:23:44.000Z</time>
      </trkpt>
      <trkpt lat="49.85944" lon="4.76681">
        <ele>200</ele>
        <time>2022-08-19T07:23:45.000Z</time>
      </trkpt>
      <trkpt lat="49.85946" lon="4.76682">
        <ele>200</ele>
        <time>2022-08-19T07:23:46.000Z</time>
      </trkpt>
      <trkpt lat="49.85948" lon="4.76683">
        <ele>200</ele>
        <time>2022-08-19T07:23:47.000Z</time>
      </trkpt>
      <trkpt lat="49.8595" lon="4.76684">
        <ele>201</ele>
        <time>2022-08-19T07:23:48.000Z</time>
      </trkpt>
      <trkpt lat="49.85951" lon="4.76684">
        <ele>201</ele>
        <time>2022-08-19T07:23:49.000Z</time>
      </trkpt>
      <trkpt lat="49.85953" lon="4.76685">
        <ele>201</ele>
        <time>2022-08-19T07:23:50.000Z</time>
      </trkpt>
      <trkpt lat="49.85956" lon="4.76686">
        <ele>201</ele>
        <time>2022-08-19T07:23:51.000Z</time>
      </trkpt>
      <trkpt lat="49.85958" lon="4.76686">
        <ele>202</ele>
        <time>2022-08-19T07:23:52.000Z</time>
      </trkpt>
      <trkpt lat="49.8596" lon="4.76686">
        <ele>202</ele>
        <time>2022-08-19T07:23:53.000Z</time>
      </trkpt>
      <trkpt lat="49.85961" lon="4.76685">
        <ele>202</ele>
        <time>2022-08-19T07:23:54.000Z</time>
      </trkpt>
      <trkpt lat="49.85963" lon="4.76683">
        <ele>202</ele>
        <time>2022-08-19T07:23:55.000Z</time>
      </trkpt>
      <trkpt lat="49.85964" lon="4.76681">
        <ele>202</ele>
        <time>2022-08-19T07:23:56.000Z</time>
      </trkpt>
      <trkpt lat="49.85966" lon="4.76679">
        <ele>203</ele>
        <time>2022-08-19T07:23:57.000Z</time>
      </trkpt>
      <trkpt lat="49.85969" lon="4.76677">
        <ele>203</ele>
        <time>2022-08-19T07:23:58.000Z</time>
      </trkpt>
      <trkpt lat="49.85971" lon="4.76675">
        <ele>203</ele>
        <time>2022-08-19T07:23:59.000Z</time>
      </trkpt>
      <trkpt lat="49.85975" lon="4.76673">
        <ele>203</ele>
        <time>2022-08-19T07:24:00.000Z</time>
      </trkpt>
      <trkpt lat="49.85979" lon="4.76671">
        <ele>203</ele>
        <time>2022-08-19T07:24:01.000Z</time>
      </trkpt>
      <trkpt lat="49.85984" lon="4.7667">
        <ele>203</ele>
        <time>2022-08-19T07:24:02.000Z</time>
      </trkpt>
      <trkpt lat="49.8599" lon="4.76668">
        <ele>203</ele>
        <time>2022-08-19T07:24:03.000Z</time>
      </trkpt>
      <trkpt lat="49.85997" lon="4.76667">
        <ele>203</ele>
        <time>2022-08-19T07:24:04.000Z</time>
      </trkpt>
      <trkpt lat="49.86003" lon="4.76664">
        <ele>203</ele>
        <time>2022-08-19T07:24:05.000Z</time>
      </trkpt>
      <trkpt lat="49.86011" lon="4.76661">
        <ele>203</ele>
        <time>2022-08-19T07:24:06.000Z</time>
      </trkpt>
      <trkpt lat="49.86018" lon="4.76659">
        <ele>202</ele>
        <time>2022-08-19T07:24:07.000Z</time>
      </trkpt>
      <trkpt lat="49.86026" lon="4.76658">
        <ele>202</ele>
        <time>2022-08-19T07:24:08.000Z</time>
      </trkpt>
      <trkpt lat="49.86034" lon="4.76658">
        <ele>202</ele>
        <time>2022-08-19T07:24:09.000Z</time>
      </trkpt>
      <trkpt lat="49.86044" lon="4.76659">
        <ele>201</ele>
        <time>2022-08-19T07:24:10.000Z</time>
      </trkpt>
      <trkpt lat="49.86053" lon="4.76661">
        <ele>201</ele>
        <time>2022-08-19T07:24:11.000Z</time>
      </trkpt>
      <trkpt lat="49.86062" lon="4.76663">
        <ele>200</ele>
        <time>2022-08-19T07:24:12.000Z</time>
      </trkpt>
      <trkpt lat="49.86071" lon="4.76667">
        <ele>200</ele>
        <time>2022-08-19T07:24:13.000Z</time>
      </trkpt>
      <trkpt lat="49.8608" lon="4.76669">
        <ele>199</ele>
        <time>2022-08-19T07:24:14.000Z</time>
      </trkpt>
      <trkpt lat="49.8609" lon="4.76671">
        <ele>198</ele>
        <time>2022-08-19T07:24:15.000Z</time>
      </trkpt>
      <trkpt lat="49.86099" lon="4.76672">
        <ele>197</ele>
        <time>2022-08-19T07:24:16.000Z</time>
      </trkpt>
      <trkpt lat="49.86108" lon="4.76673">
        <ele>195</ele>
        <time>2022-08-19T07:24:17.000Z</time>
      </trkpt>
      <trkpt lat="49.86117" lon="4.76672">
        <ele>194</ele>
        <time>2022-08-19T07:24:18.000Z</time>
      </trkpt>
      <trkpt lat="49.86125" lon="4.76669">
        <ele>193</ele>
        <time>2022-08-19T07:24:19.000Z</time>
      </trkpt>
      <trkpt lat="49.86133" lon="4.76666">
        <ele>192</ele>
        <time>2022-08-19T07:24:20.000Z</time>
      </trkpt>
      <trkpt lat="49.8614" lon="4.76663">
        <ele>191</ele>
        <time>2022-08-19T07:24:21.000Z</time>
      </trkpt>
      <trkpt lat="49.86145" lon="4.76658">
        <ele>190</ele>
        <time>2022-08-19T07:24:22.000Z</time>
      </trkpt>
      <trkpt lat="49.86149" lon="4.76649">
        <ele>189</ele>
        <time>2022-08-19T07:24:23.000Z</time>
      </trkpt>
      <trkpt lat="49.86151" lon="4.76639">
        <ele>188</ele>
        <time>2022-08-19T07:24:24.000Z</time>
      </trkpt>
      <trkpt lat="49.86151" lon="4.76628">
        <ele>187</ele>
        <time>2022-08-19T07:24:25.000Z</time>
      </trkpt>
      <trkpt lat="49.8615" lon="4.76617">
        <ele>186</ele>
        <time>2022-08-19T07:24:26.000Z</time>
      </trkpt>
      <trkpt lat="49.86147" lon="4.76605">
        <ele>185</ele>
        <time>2022-08-19T07:24:27.000Z</time>
      </trkpt>
      <trkpt lat="49.86144" lon="4.76592">
        <ele>184</ele>
        <time>2022-08-19T07:24:28.000Z</time>
      </trkpt>
      <trkpt lat="49.8614" lon="4.7658">
        <ele>183</ele>
        <time>2022-08-19T07:24:29.000Z</time>
      </trkpt>
      <trkpt lat="49.86137" lon="4.76567">
        <ele>181</ele>
        <time>2022-08-19T07:24:30.000Z</time>
      </trkpt>
      <trkpt lat="49.86135" lon="4.76554">
        <ele>180</ele>
        <time>2022-08-19T07:24:31.000Z</time>
      </trkpt>
      <trkpt lat="49.86134" lon="4.7654">
        <ele>179</ele>
        <time>2022-08-19T07:24:32.000Z</time>
      </trkpt>
      <trkpt lat="49.86132" lon="4.76525">
        <ele>177</ele>
        <time>2022-08-19T07:24:33.000Z</time>
      </trkpt>
      <trkpt lat="49.8613" lon="4.76511">
        <ele>176</ele>
        <time>2022-08-19T07:24:34.000Z</time>
      </trkpt>
      <trkpt lat="49.86128" lon="4.76497">
        <ele>174</ele>
        <time>2022-08-19T07:24:35.000Z</time>
      </trkpt>
      <trkpt lat="49.86127" lon="4.76483">
        <ele>173</ele>
        <time>2022-08-19T07:24:36.000Z</time>
      </trkpt>
      <trkpt lat="49.86124" lon="4.7647">
        <ele>172</ele>
        <time>2022-08-19T07:24:37.000Z</time>
      </trkpt>
      <trkpt lat="49.86122" lon="4.76457">
        <ele>171</ele>
        <time>2022-08-19T07:24:38.000Z</time>
      </trkpt>
      <trkpt lat="49.8612" lon="4.76444">
        <ele>169</ele>
        <time>2022-08-19T07:24:39.000Z</time>
      </trkpt>
      <trkpt lat="49.86117" lon="4.76433">
        <ele>168</ele>
        <time>2022-08-19T07:24:40.000Z</time>
      </trkpt>
      <trkpt lat="49.86115" lon="4.76422">
        <ele>167</ele>
        <time>2022-08-19T07:24:41.000Z</time>
      </trkpt>
      <trkpt lat="49.86114" lon="4.76412">
        <ele>166</ele>
        <time>2022-08-19T07:24:42.000Z</time>
      </trkpt>
      <trkpt lat="49.86112" lon="4.76403">
        <ele>166</ele>
        <time>2022-08-19T07:24:43.000Z</time>
      </trkpt>
      <trkpt lat="49.8611" lon="4.76396">
        <ele>165</ele>
        <time>2022-08-19T07:24:44.000Z</time>
      </trkpt>
      <trkpt lat="49.86108" lon="4.76391">
        <ele>164</ele>
        <time>2022-08-19T07:24:45.000Z</time>
      </trkpt>
      <trkpt lat="49.86107" lon="4.76387">
        <ele>164</ele>
        <time>2022-08-19T07:24:46.000Z</time>
      </trkpt>
      <trkpt lat="49.86106" lon="4.76382">
        <ele>163</ele>
        <time>2022-08-19T07:24:47.000Z</time>
      </trkpt>
      <trkpt lat="49.86105" lon="4.76377">
        <ele>163</ele>
        <time>2022-08-19T07:24:48.000Z</time>
      </trkpt>
      <trkpt lat="49.86104" lon="4.76372">
        <ele>163</ele>
        <time>2022-08-19T07:24:49.000Z</time>
      </trkpt>
      <trkpt lat="49.86102" lon="4.76368">
        <ele>162</ele>
        <time>2022-08-19T07:24:50.000Z</time>
      </trkpt>
      <trkpt lat="49.86101" lon="4.76363">
        <ele>162</ele>
        <time>2022-08-19T07:24:51.000Z</time>
      </trkpt>
      <trkpt lat="49.861" lon="4.76358">
        <ele>161</ele>
        <time>2022-08-19T07:24:52.000Z</time>
      </trkpt>
      <trkpt lat="49.86099" lon="4.76353">
        <ele>161</ele>
        <time>2022-08-19T07:24:53.000Z</time>
      </trkpt>
      <trkpt lat="49.86097" lon="4.76348">
        <ele>160</ele>
        <time>2022-08-19T07:24:54.000Z</time>
      </trkpt>
      <trkpt lat="49.86096" lon="4.76344">
        <ele>160</ele>
        <time>2022-08-19T07:24:55.000Z</time>
      </trkpt>
      <trkpt lat="49.86096" lon="4.76341">
        <ele>160</ele>
        <time>2022-08-19T07:24:56.000Z</time>
      </trkpt>
      <trkpt lat="49.86096" lon="4.76338">
        <ele>160</ele>
        <time>2022-08-19T07:24:57.000Z</time>
      </trkpt>
      <trkpt lat="49.86095" lon="4.76334">
        <ele>159</ele>
        <time>2022-08-19T07:24:58.000Z</time>
      </trkpt>
      <trkpt lat="49.86093" lon="4.76331">
        <ele>159</ele>
        <time>2022-08-19T07:24:59.000Z</time>
      </trkpt>
      <trkpt lat="49.86092" lon="4.76327">
        <ele>159</ele>
        <time>2022-08-19T07:25:00.000Z</time>
      </trkpt>
      <trkpt lat="49.86093" lon="4.76324">
        <ele>159</ele>
        <time>2022-08-19T07:25:01.000Z</time>
      </trkpt>
      <trkpt lat="49.86095" lon="4.76324">
        <ele>159</ele>
        <time>2022-08-19T07:25:02.000Z</time>
      </trkpt>
      <trkpt lat="49.86097" lon="4.76324">
        <ele>159</ele>
        <time>2022-08-19T07:25:03.000Z</time>
      </trkpt>
      <trkpt lat="49.861" lon="4.76323">
        <ele>159</ele>
        <time>2022-08-19T07:25:04.000Z</time>
      </trkpt>
      <trkpt lat="49.86103" lon="4.76323">
        <ele>159</ele>
        <time>2022-08-19T07:25:05.000Z</time>
      </trkpt>
      <trkpt lat="49.86107" lon="4.76323">
        <ele>159</ele>
        <time>2022-08-19T07:25:06.000Z</time>
      </trkpt>
      <trkpt lat="49.86111" lon="4.76323">
        <ele>159</ele>
        <time>2022-08-19T07:25:07.000Z</time>
      </trkpt>
      <trkpt lat="49.86114" lon="4.76324">
        <ele>159</ele>
        <time>2022-08-19T07:25:08.000Z</time>
      </trkpt>
      <trkpt lat="49.86118" lon="4.76324">
        <ele>158</ele>
        <time>2022-08-19T07:25:09.000Z</time>
      </trkpt>
      <trkpt lat="49.86121" lon="4.76324">
        <ele>158</ele>
        <time>2022-08-19T07:25:10.000Z</time>
      </trkpt>
      <trkpt lat="49.86125" lon="4.76325">
        <ele>158</ele>
        <time>2022-08-19T07:25:11.000Z</time>
      </trkpt>
      <trkpt lat="49.86128" lon="4.76325">
        <ele>158</ele>
        <time>2022-08-19T07:25:12.000Z</time>
      </trkpt>
      <trkpt lat="49.86131" lon="4.76326">
        <ele>158</ele>
        <time>2022-08-19T07:25:13.000Z</time>
      </trkpt>
      <trkpt lat="49.86134" lon="4.76326">
        <ele>158</ele>
        <time>2022-08-19T07:25:14.000Z</time>
      </trkpt>
      <trkpt lat="49.86137" lon="4.76326">
        <ele>158</ele>
        <time>2022-08-19T07:25:15.000Z</time>
      </trkpt>
      <trkpt lat="49.8614" lon="4.76327">
        <ele>158</ele>
        <time>2022-08-19T07:25:16.000Z</time>
      </trkpt>
      <trkpt lat="49.86143" lon="4.76327">
        <ele>158</ele>
        <time>2022-08-19T07:25:17.000Z</time>
      </trkpt>
      <trkpt lat="49.86146" lon="4.76327">
        <ele>158</ele>
        <time>2022-08-19T07:25:18.000Z</time>
      </trkpt>
      <trkpt lat="49.8615" lon="4.76328">
        <ele>158</ele>
        <time>2022-08-19T07:25:19.000Z</time>
      </trkpt>
      <trkpt lat="49.86153" lon="4.76328">
        <ele>158</ele>
        <time>2022-08-19T07:25:20.000Z</time>
      </trkpt>
      <trkpt lat="49.86156" lon="4.76329">
        <ele>157</ele>
        <time>2022-08-19T07:25:21.000Z</time>
      </trkpt>
      <trkpt lat="49.8616" lon="4.76329">
        <ele>157</ele>
        <time>2022-08-19T07:25:22.000Z</time>
      </trkpt>
      <trkpt lat="49.86163" lon="4.7633">
        <ele>157</ele>
        <time>2022-08-19T07:25:23.000Z</time>
      </trkpt>
      <trkpt lat="49.86167" lon="4.76329">
        <ele>157</ele>
        <time>2022-08-19T07:25:24.000Z</time>
      </trkpt>
      <trkpt lat="49.8617" lon="4.76328">
        <ele>157</ele>
        <time>2022-08-19T07:25:25.000Z</time>
      </trkpt>
      <trkpt lat="49.86174" lon="4.76327">
        <ele>157</ele>
        <time>2022-08-19T07:25:26.000Z</time>
      </trkpt>
      <trkpt lat="49.86178" lon="4.76326">
        <ele>157</ele>
        <time>2022-08-19T07:25:27.000Z</time>
      </trkpt>
      <trkpt lat="49.86182" lon="4.76325">
        <ele>157</ele>
        <time>2022-08-19T07:25:28.000Z</time>
      </trkpt>
      <trkpt lat="49.86186" lon="4.76325">
        <ele>157</ele>
        <time>2022-08-19T07:25:29.000Z</time>
      </trkpt>
      <trkpt lat="49.86191" lon="4.76325">
        <ele>157</ele>
        <time>2022-08-19T07:25:30.000Z</time>
      </trkpt>
      <trkpt lat="49.86195" lon="4.76325">
        <ele>156</ele>
        <time>2022-08-19T07:25:31.000Z</time>
      </trkpt>
      <trkpt lat="49.86199" lon="4.76326">
        <ele>156</ele>
        <time>2022-08-19T07:25:32.000Z</time>
      </trkpt>
      <trkpt lat="49.86203" lon="4.76326">
        <ele>156</ele>
        <time>2022-08-19T07:25:33.000Z</time>
      </trkpt>
      <trkpt lat="49.86206" lon="4.76327">
        <ele>156</ele>
        <time>2022-08-19T07:25:34.000Z</time>
      </trkpt>
      <trkpt lat="49.8621" lon="4.76327">
        <ele>156</ele>
        <time>2022-08-19T07:25:35.000Z</time>
      </trkpt>
      <trkpt lat="49.86214" lon="4.76328">
        <ele>156</ele>
        <time>2022-08-19T07:25:36.000Z</time>
      </trkpt>
      <trkpt lat="49.86219" lon="4.76328">
        <ele>156</ele>
        <time>2022-08-19T07:25:37.000Z</time>
      </trkpt>
      <trkpt lat="49.86223" lon="4.76328">
        <ele>156</ele>
        <time>2022-08-19T07:25:38.000Z</time>
      </trkpt>
      <trkpt lat="49.86228" lon="4.76327">
        <ele>156</ele>
        <time>2022-08-19T07:25:39.000Z</time>
      </trkpt>
      <trkpt lat="49.86232" lon="4.76326">
        <ele>156</ele>
        <time>2022-08-19T07:25:40.000Z</time>
      </trkpt>
      <trkpt lat="49.86237" lon="4.76325">
        <ele>156</ele>
        <time>2022-08-19T07:25:41.000Z</time>
      </trkpt>
      <trkpt lat="49.86242" lon="4.76324">
        <ele>156</ele>
        <time>2022-08-19T07:25:42.000Z</time>
      </trkpt>
      <trkpt lat="49.86246" lon="4.76322">
        <ele>156</ele>
        <time>2022-08-19T07:25:43.000Z</time>
      </trkpt>
      <trkpt lat="49.86251" lon="4.7632">
        <ele>156</ele>
        <time>2022-08-19T07:25:44.000Z</time>
      </trkpt>
      <trkpt lat="49.86255" lon="4.76319">
        <ele>156</ele>
        <time>2022-08-19T07:25:45.000Z</time>
      </trkpt>
      <trkpt lat="49.86259" lon="4.76317">
        <ele>156</ele>
        <time>2022-08-19T07:25:46.000Z</time>
      </trkpt>
      <trkpt lat="49.86263" lon="4.76314">
        <ele>156</ele>
        <time>2022-08-19T07:25:47.000Z</time>
      </trkpt>
      <trkpt lat="49.86267" lon="4.76312">
        <ele>156</ele>
        <time>2022-08-19T07:25:48.000Z</time>
      </trkpt>
      <trkpt lat="49.86271" lon="4.76311">
        <ele>157</ele>
        <time>2022-08-19T07:25:49.000Z</time>
      </trkpt>
      <trkpt lat="49.86274" lon="4.76311">
        <ele>157</ele>
        <time>2022-08-19T07:25:50.000Z</time>
      </trkpt>
      <trkpt lat="49.86276" lon="4.76312">
        <ele>157</ele>
        <time>2022-08-19T07:25:51.000Z</time>
      </trkpt>
      <trkpt lat="49.86278" lon="4.76313">
        <ele>157</ele>
        <time>2022-08-19T07:25:52.000Z</time>
      </trkpt>
      <trkpt lat="49.86279" lon="4.76314">
        <ele>157</ele>
        <time>2022-08-19T07:25:53.000Z</time>
      </trkpt>
      <trkpt lat="49.86281" lon="4.76315">
        <ele>157</ele>
        <time>2022-08-19T07:25:54.000Z</time>
      </trkpt>
      <trkpt lat="49.86282" lon="4.76319">
        <ele>157</ele>
        <time>2022-08-19T07:25:55.000Z</time>
      </trkpt>
      <trkpt lat="49.86281" lon="4.76322">
        <ele>157</ele>
        <time>2022-08-19T07:25:56.000Z</time>
      </trkpt>
      <trkpt lat="49.86281" lon="4.76326">
        <ele>157</ele>
        <time>2022-08-19T07:25:57.000Z</time>
      </trkpt>
      <trkpt lat="49.86281" lon="4.76327">
        <ele>157</ele>
        <time>2022-08-19T07:25:58.000Z</time>
      </trkpt>
      <trkpt lat="49.86281" lon="4.76328">
        <ele>157</ele>
        <time>2022-08-19T07:25:59.000Z</time>
      </trkpt>
      <trkpt lat="49.86282" lon="4.76327">
        <ele>157</ele>
        <time>2022-08-19T07:26:00.000Z</time>
      </trkpt>
      <trkpt lat="49.86282" lon="4.76328">
        <ele>158</ele>
        <time>2022-08-19T07:26:01.000Z</time>
      </trkpt>
      <trkpt lat="49.86282" lon="4.76328">
        <ele>158</ele>
        <time>2022-08-19T07:26:02.000Z</time>
      </trkpt>
      <trkpt lat="49.86282" lon="4.76327">
        <ele>158</ele>
        <time>2022-08-19T07:26:03.000Z</time>
      </trkpt>
      <trkpt lat="49.86283" lon="4.76327">
        <ele>158</ele>
        <time>2022-08-19T07:26:04.000Z</time>
      </trkpt>
      <trkpt lat="49.86282" lon="4.76328">
        <ele>158</ele>
        <time>2022-08-19T07:26:05.000Z</time>
      </trkpt>
      <trkpt lat="49.86282" lon="4.76329">
        <ele>158</ele>
        <time>2022-08-19T07:26:06.000Z</time>
      </trkpt>
      <trkpt lat="49.86282" lon="4.76329">
        <ele>158</ele>
        <time>2022-08-19T07:26:07.000Z</time>
      </trkpt>
      <trkpt lat="49.86282" lon="4.7633">
        <ele>158</ele>
        <time>2022-08-19T07:26:08.000Z</time>
      </trkpt>
      <trkpt lat="49.86282" lon="4.7633">
        <ele>158</ele>
        <time>2022-08-19T07:26:09.000Z</time>
      </trkpt>
      <trkpt lat="49.86282" lon="4.7633">
        <ele>158</ele>
        <time>2022-08-19T07:26:10.000Z</time>
      </trkpt>
      <trkpt lat="49.86282" lon="4.7633">
        <ele>158</ele>
        <time>2022-08-19T07:26:11.000Z</time>
      </trkpt>
      <trkpt lat="49.86283" lon="4.7633">
        <ele>158</ele>
        <time>2022-08-19T07:26:12.000Z</time>
      </trkpt>
      <trkpt lat="49.86283" lon="4.76331">
        <ele>158</ele>
        <time>2022-08-19T07:26:13.000Z</time>
      </trkpt>
      <trkpt lat="49.86284" lon="4.76332">
        <ele>158</ele>
        <time>2022-08-19T07:26:14.000Z</time>
      </trkpt>
      <trkpt lat="49.86284" lon="4.76333">
        <ele>158</ele>
        <time>2022-08-19T07:26:15.000Z</time>
      </trkpt>
      <trkpt lat="49.86285" lon="4.76334">
        <ele>158</ele>
        <time>2022-08-19T07:26:16.000Z</time>
      </trkpt>
      <trkpt lat="49.86285" lon="4.76335">
        <ele>158</ele>
        <time>2022-08-19T07:26:17.000Z</time>
      </trkpt>
      <trkpt lat="49.86286" lon="4.76336">
        <ele>158</ele>
        <time>2022-08-19T07:26:18.000Z</time>
      </trkpt>
      <trkpt lat="49.86287" lon="4.76337">
        <ele>158</ele>
        <time>2022-08-19T07:26:19.000Z</time>
      </trkpt>
      <trkpt lat="49.86288" lon="4.76336">
        <ele>159</ele>
        <time>2022-08-19T07:26:20.000Z</time>
      </trkpt>
      <trkpt lat="49.86289" lon="4.76335">
        <ele>159</ele>
        <time>2022-08-19T07:26:21.000Z</time>
      </trkpt>
      <trkpt lat="49.8629" lon="4.76334">
        <ele>159</ele>
        <time>2022-08-19T07:26:22.000Z</time>
      </trkpt>
      <trkpt lat="49.86291" lon="4.76333">
        <ele>159</ele>
        <time>2022-08-19T07:26:23.000Z</time>
      </trkpt>
      <trkpt lat="49.86291" lon="4.76332">
        <ele>159</ele>
        <time>2022-08-19T07:26:24.000Z</time>
      </trkpt>
      <trkpt lat="49.86292" lon="4.7633">
        <ele>159</ele>
        <time>2022-08-19T07:26:25.000Z</time>
      </trkpt>
      <trkpt lat="49.86293" lon="4.76329">
        <ele>159</ele>
        <time>2022-08-19T07:26:26.000Z</time>
      </trkpt>
      <trkpt lat="49.86293" lon="4.76328">
        <ele>159</ele>
        <time>2022-08-19T07:26:27.000Z</time>
      </trkpt>
      <trkpt lat="49.86294" lon="4.76327">
        <ele>159</ele>
        <time>2022-08-19T07:26:28.000Z</time>
      </trkpt>
      <trkpt lat="49.86295" lon="4.76326">
        <ele>160</ele>
        <time>2022-08-19T07:26:29.000Z</time>
      </trkpt>
      <trkpt lat="49.86295" lon="4.76325">
        <ele>160</ele>
        <time>2022-08-19T07:26:30.000Z</time>
      </trkpt>
      <trkpt lat="49.86295" lon="4.76324">
        <ele>160</ele>
        <time>2022-08-19T07:26:31.000Z</time>
      </trkpt>
      <trkpt lat="49.86295" lon="4.76323">
        <ele>160</ele>
        <time>2022-08-19T07:26:32.000Z</time>
      </trkpt>
      <trkpt lat="49.86295" lon="4.76323">
        <ele>160</ele>
        <time>2022-08-19T07:26:33.000Z</time>
      </trkpt>
      <trkpt lat="49.86295" lon="4.76324">
        <ele>160</ele>
        <time>2022-08-19T07:26:34.000Z</time>
      </trkpt>
      <trkpt lat="49.86295" lon="4.76324">
        <ele>160</ele>
        <time>2022-08-19T07:26:35.000Z</time>
      </trkpt>
      <trkpt lat="49.86295" lon="4.76324">
        <ele>160</ele>
        <time>2022-08-19T07:26:36.000Z</time>
      </trkpt>
      <trkpt lat="49.86295" lon="4.76324">
        <ele>160</ele>
        <time>2022-08-19T07:26:37.000Z</time>
      </trkpt>
      <trkpt lat="49.86296" lon="4.76325">
        <ele>160</ele>
        <time>2022-08-19T07:26:38.000Z</time>
      </trkpt>
      <trkpt lat="49.86295" lon="4.76327">
        <ele>160</ele>
        <time>2022-08-19T07:26:39.000Z</time>
      </trkpt>
      <trkpt lat="49.86294" lon="4.76329">
        <ele>160</ele>
        <time>2022-08-19T07:26:40.000Z</time>
      </trkpt>
      <trkpt lat="49.86293" lon="4.7633">
        <ele>160</ele>
        <time>2022-08-19T07:26:41.000Z</time>
      </trkpt>
      <trkpt lat="49.86292" lon="4.76332">
        <ele>160</ele>
        <time>2022-08-19T07:26:42.000Z</time>
      </trkpt>
      <trkpt lat="49.86291" lon="4.76333">
        <ele>160</ele>
        <time>2022-08-19T07:26:43.000Z</time>
      </trkpt>
      <trkpt lat="49.8629" lon="4.76335">
        <ele>160</ele>
        <time>2022-08-19T07:26:44.000Z</time>
      </trkpt>
      <trkpt lat="49.8629" lon="4.76336">
        <ele>160</ele>
        <time>2022-08-19T07:26:45.000Z</time>
      </trkpt>
      <trkpt lat="49.86288" lon="4.76338">
        <ele>160</ele>
        <time>2022-08-19T07:26:46.000Z</time>
      </trkpt>
      <trkpt lat="49.86287" lon="4.76337">
        <ele>159</ele>
        <time>2022-08-19T07:26:47.000Z</time>
      </trkpt>
      <trkpt lat="49.86286" lon="4.76336">
        <ele>159</ele>
        <time>2022-08-19T07:26:48.000Z</time>
      </trkpt>
      <trkpt lat="49.86285" lon="4.76335">
        <ele>159</ele>
        <time>2022-08-19T07:26:49.000Z</time>
      </trkpt>
      <trkpt lat="49.86284" lon="4.76334">
        <ele>159</ele>
        <time>2022-08-19T07:26:50.000Z</time>
      </trkpt>
      <trkpt lat="49.86282" lon="4.76333">
        <ele>159</ele>
        <time>2022-08-19T07:26:51.000Z</time>
      </trkpt>
      <trkpt lat="49.86282" lon="4.76331">
        <ele>159</ele>
        <time>2022-08-19T07:26:52.000Z</time>
      </trkpt>
      <trkpt lat="49.86282" lon="4.76331">
        <ele>159</ele>
        <time>2022-08-19T07:26:53.000Z</time>
      </trkpt>
      <trkpt lat="49.86281" lon="4.7633">
        <ele>159</ele>
        <time>2022-08-19T07:26:54.000Z</time>
      </trkpt>
      <trkpt lat="49.86281" lon="4.7633">
        <ele>159</ele>
        <time>2022-08-19T07:26:55.000Z</time>
      </trkpt>
      <trkpt lat="49.86281" lon="4.7633">
        <ele>159</ele>
        <time>2022-08-19T07:26:56.000Z</time>
      </trkpt>
      <trkpt lat="49.86281" lon="4.76329">
        <ele>159</ele>
        <time>2022-08-19T07:26:57.000Z</time>
      </trkpt>
      <trkpt lat="49.86281" lon="4.76328">
        <ele>159</ele>
        <time>2022-08-19T07:26:58.000Z</time>
      </trkpt>
      <trkpt lat="49.86281" lon="4.76329">
        <ele>159</ele>
        <time>2022-08-19T07:26:59.000Z</time>
      </trkpt>
      <trkpt lat="49.86281" lon="4.76329">
        <ele>159</ele>
        <time>2022-08-19T07:27:00.000Z</time>
      </trkpt>
      <trkpt lat="49.86282" lon="4.76328">
        <ele>159</ele>
        <time>2022-08-19T07:27:01.000Z</time>
      </trkpt>
      <trkpt lat="49.86281" lon="4.76328">
        <ele>159</ele>
        <time>2022-08-19T07:27:02.000Z</time>
      </trkpt>
      <trkpt lat="49.86281" lon="4.76328">
        <ele>159</ele>
        <time>2022-08-19T07:27:03.000Z</time>
      </trkpt>
      <trkpt lat="49.86281" lon="4.76328">
        <ele>159</ele>
        <time>2022-08-19T07:27:04.000Z</time>
      </trkpt>
      <trkpt lat="49.86281" lon="4.76328">
        <ele>159</ele>
        <time>2022-08-19T07:27:05.000Z</time>
      </trkpt>
      <trkpt lat="49.86281" lon="4.76327">
        <ele>159</ele>
        <time>2022-08-19T07:27:06.000Z</time>
      </trkpt>
      <trkpt lat="49.86281" lon="4.76327">
        <ele>159</ele>
        <time>2022-08-19T07:27:07.000Z</time>
      </trkpt>
      <trkpt lat="49.86281" lon="4.76327">
        <ele>159</ele>
        <time>2022-08-19T07:27:08.000Z</time>
      </trkpt>
      <trkpt lat="49.86281" lon="4.76327">
        <ele>159</ele>
        <time>2022-08-19T07:27:09.000Z</time>
      </trkpt>
      <trkpt lat="49.86281" lon="4.76327">
        <ele>159</ele>
        <time>2022-08-19T07:27:10.000Z</time>
      </trkpt>
      <trkpt lat="49.86281" lon="4.76327">
        <ele>159</ele>
        <time>2022-08-19T07:27:11.000Z</time>
      </trkpt>
      <trkpt lat="49.86281" lon="4.76327">
        <ele>159</ele>
        <time>2022-08-19T07:27:12.000Z</time>
      </trkpt>
      <trkpt lat="49.86281" lon="4.76327">
        <ele>159</ele>
        <time>2022-08-19T07:27:13.000Z</time>
      </trkpt>
      <trkpt lat="49.86281" lon="4.76327">
        <ele>159</ele>
        <time>2022-08-19T07:27:14.000Z</time>
      </trkpt>
      <trkpt lat="49.86281" lon="4.76327">
        <ele>159</ele>
        <time>2022-08-19T07:27:15.000Z</time>
      </trkpt>
      <trkpt lat="49.86281" lon="4.76327">
        <ele>159</ele>
        <time>2022-08-19T07:27:16.000Z</time>
      </trkpt>
      <trkpt lat="49.86281" lon="4.76327">
        <ele>159</ele>
        <time>2022-08-19T07:27:17.000Z</time>
      </trkpt>
      <trkpt lat="49.86281" lon="4.76327">
        <ele>159</ele>
        <time>2022-08-19T07:27:18.000Z</time>
      </trkpt>
      <trkpt lat="49.86281" lon="4.76327">
        <ele>159</ele>
        <time>2022-08-19T07:27:19.000Z</time>
      </trkpt>
      <trkpt lat="49.86281" lon="4.76327">
        <ele>160</ele>
        <time>2022-08-19T07:27:20.000Z</time>
      </trkpt>
      <trkpt lat="49.86281" lon="4.76327">
        <ele>160</ele>
        <time>2022-08-19T07:27:21.000Z</time>
      </trkpt>
      <trkpt lat="49.86281" lon="4.76327">
        <ele>160</ele>
        <time>2022-08-19T07:27:22.000Z</time>
      </trkpt>
      <trkpt lat="49.8628" lon="4.76327">
        <ele>160</ele>
        <time>2022-08-19T07:27:23.000Z</time>
      </trkpt>
      <trkpt lat="49.8628" lon="4.76327">
        <ele>160</ele>
        <time>2022-08-19T07:27:24.000Z</time>
      </trkpt>
      <trkpt lat="49.8628" lon="4.76327">
        <ele>160</ele>
        <time>2022-08-19T07:27:25.000Z</time>
      </trkpt>
      <trkpt lat="49.8628" lon="4.76327">
        <ele>160</ele>
        <time>2022-08-19T07:27:26.000Z</time>
      </trkpt>
      <trkpt lat="49.8628" lon="4.76327">
        <ele>160</ele>
        <time>2022-08-19T07:27:27.000Z</time>
      </trkpt>
      <trkpt lat="49.8628" lon="4.76327">
        <ele>160</ele>
        <time>2022-08-19T07:27:28.000Z</time>
      </trkpt>
      <trkpt lat="49.8628" lon="4.76327">
        <ele>160</ele>
        <time>2022-08-19T07:27:29.000Z</time>
      </trkpt>
      <trkpt lat="49.8628" lon="4.76327">
        <ele>160</ele>
        <time>2022-08-19T07:27:30.000Z</time>
      </trkpt>
      <trkpt lat="49.8628" lon="4.76327">
        <ele>160</ele>
        <time>2022-08-19T07:27:31.000Z</time>
      </trkpt>
      <trkpt lat="49.8628" lon="4.76327">
        <ele>160</ele>
        <time>2022-08-19T07:27:32.000Z</time>
      </trkpt>
      <trkpt lat="49.8628" lon="4.76327">
        <ele>160</ele>
        <time>2022-08-19T07:27:33.000Z</time>
      </trkpt>
      <trkpt lat="49.8628" lon="4.76327">
        <ele>160</ele>
        <time>2022-08-19T07:27:34.000Z</time>
      </trkpt>
      <trkpt lat="49.8628" lon="4.76327">
        <ele>160</ele>
        <time>2022-08-19T07:27:35.000Z</time>
      </trkpt>
      <trkpt lat="49.8628" lon="4.76327">
        <ele>160</ele>
        <time>2022-08-19T07:27:36.000Z</time>
      </trkpt>
      <trkpt lat="49.8628" lon="4.76327">
        <ele>160</ele>
        <time>2022-08-19T07:27:37.000Z</time>
      </trkpt>
      <trkpt lat="49.8628" lon="4.76327">
        <ele>160</ele>
        <time>2022-08-19T07:27:38.000Z</time>
      </trkpt>
      <trkpt lat="49.8628" lon="4.76327">
        <ele>160</ele>
        <time>2022-08-19T07:27:39.000Z</time>
      </trkpt>
      <trkpt lat="49.8628" lon="4.76327">
        <ele>160</ele>
        <time>2022-08-19T07:27:40.000Z</time>
      </trkpt>
      <trkpt lat="49.8628" lon="4.76327">
        <ele>160</ele>
        <time>2022-08-19T07:27:41.000Z</time>
      </trkpt>
      <trkpt lat="49.8628" lon="4.76327">
        <ele>160</ele>
        <time>2022-08-19T07:27:42.000Z</time>
      </trkpt>
      <trkpt lat="49.8628" lon="4.76327">
        <ele>160</ele>
        <time>2022-08-19T07:27:43.000Z</time>
      </trkpt>
      <trkpt lat="49.8628" lon="4.76327">
        <ele>160</ele>
        <time>2022-08-19T07:27:44.000Z</time>
      </trkpt>
      <trkpt lat="49.8628" lon="4.76327">
        <ele>160</ele>
        <time>2022-08-19T07:27:45.000Z</time>
      </trkpt>
      <trkpt lat="49.8628" lon="4.76327">
        <ele>159</ele>
        <time>2022-08-19T07:27:46.000Z</time>
      </trkpt>
      <trkpt lat="49.8628" lon="4.76327">
        <ele>159</ele>
        <time>2022-08-19T07:27:47.000Z</time>
      </trkpt>
      <trkpt lat="49.8628" lon="4.76327">
        <ele>159</ele>
        <time>2022-08-19T07:27:48.000Z</time>
      </trkpt>
      <trkpt lat="49.8628" lon="4.76327">
        <ele>159</ele>
        <time>2022-08-19T07:27:49.000Z</time>
      </trkpt>
      <trkpt lat="49.8628" lon="4.76327">
        <ele>159</ele>
        <time>2022-08-19T07:27:50.000Z</time>
      </trkpt>
      <trkpt lat="49.8628" lon="4.76327">
        <ele>159</ele>
        <time>2022-08-19T07:27:51.000Z</time>
      </trkpt>
      <trkpt lat="49.8628" lon="4.76327">
        <ele>159</ele>
        <time>2022-08-19T07:27:52.000Z</time>
      </trkpt>
      <trkpt lat="49.8628" lon="4.76327">
        <ele>159</ele>
        <time>2022-08-19T07:27:53.000Z</time>
      </trkpt>
      <trkpt lat="49.8628" lon="4.76327">
        <ele>159</ele>
        <time>2022-08-19T07:27:54.000Z</time>
      </trkpt>
      <trkpt lat="49.8628" lon="4.76327">
        <ele>159</ele>
        <time>2022-08-19T07:27:55.000Z</time>
      </trkpt>
      <trkpt lat="49.8628" lon="4.76327">
        <ele>159</ele>
        <time>2022-08-19T07:27:56.000Z</time>
      </trkpt>
      <trkpt lat="49.8628" lon="4.76327">
        <ele>159</ele>
        <time>2022-08-19T07:27:57.000Z</time>
      </trkpt>
      <trkpt lat="49.8628" lon="4.76327">
        <ele>159</ele>
        <time>2022-08-19T07:27:58.000Z</time>
      </trkpt>
      <trkpt lat="49.8628" lon="4.76327">
        <ele>159</ele>
        <time>2022-08-19T07:27:59.000Z</time>
      </trkpt>
      <trkpt lat="49.8628" lon="4.76327">
        <ele>159</ele>
        <time>2022-08-19T07:28:00.000Z</time>
      </trkpt>
      <trkpt lat="49.8628" lon="4.76327">
        <ele>159</ele>
        <time>2022-08-19T07:28:01.000Z</time>
      </trkpt>
      <trkpt lat="49.8628" lon="4.76326">
        <ele>159</ele>
        <time>2022-08-19T07:28:02.000Z</time>
      </trkpt>
      <trkpt lat="49.8628" lon="4.76326">
        <ele>159</ele>
        <time>2022-08-19T07:28:03.000Z</time>
      </trkpt>
      <trkpt lat="49.8628" lon="4.76326">
        <ele>159</ele>
        <time>2022-08-19T07:28:04.000Z</time>
      </trkpt>
      <trkpt lat="49.8628" lon="4.76326">
        <ele>159</ele>
        <time>2022-08-19T07:28:05.000Z</time>
      </trkpt>
      <trkpt lat="49.8628" lon="4.76326">
        <ele>159</ele>
        <time>2022-08-19T07:28:06.000Z</time>
      </trkpt>
      <trkpt lat="49.8628" lon="4.76326">
        <ele>159</ele>
        <time>2022-08-19T07:28:07.000Z</time>
      </trkpt>
      <trkpt lat="49.8628" lon="4.76326">
        <ele>159</ele>
        <time>2022-08-19T07:28:08.000Z</time>
      </trkpt>
      <trkpt lat="49.8628" lon="4.76326">
        <ele>159</ele>
        <time>2022-08-19T07:28:09.000Z</time>
      </trkpt>
      <trkpt lat="49.8628" lon="4.76326">
        <ele>159</ele>
        <time>2022-08-19T07:28:10.000Z</time>
      </trkpt>
      <trkpt lat="49.8628" lon="4.76326">
        <ele>159</ele>
        <time>2022-08-19T07:28:11.000Z</time>
      </trkpt>
      <trkpt lat="49.8628" lon="4.76326">
        <ele>159</ele>
        <time>2022-08-19T07:28:12.000Z</time>
      </trkpt>
      <trkpt lat="49.8628" lon="4.76326">
        <ele>159</ele>
        <time>2022-08-19T07:28:13.000Z</time>
      </trkpt>
      <trkpt lat="49.8628" lon="4.76326">
        <ele>159</ele>
        <time>2022-08-19T07:28:14.000Z</time>
      </trkpt>
      <trkpt lat="49.8628" lon="4.76326">
        <ele>159</ele>
        <time>2022-08-19T07:28:15.000Z</time>
      </trkpt>
      <trkpt lat="49.8628" lon="4.76326">
        <ele>159</ele>
        <time>2022-08-19T07:28:16.000Z</time>
      </trkpt>
      <trkpt lat="49.8628" lon="4.76326">
        <ele>159</ele>
        <time>2022-08-19T07:28:17.000Z</time>
      </trkpt>
      <trkpt lat="49.8628" lon="4.76326">
        <ele>159</ele>
        <time>2022-08-19T07:28:18.000Z</time>
      </trkpt>
      <trkpt lat="49.8628" lon="4.76326">
        <ele>159</ele>
        <time>2022-08-19T07:28:19.000Z</time>
      </trkpt>
      <trkpt lat="49.8628" lon="4.76326">
        <ele>159</ele>
        <time>2022-08-19T07:28:20.000Z</time>
      </trkpt>
      <trkpt lat="49.8628" lon="4.76326">
        <ele>159</ele>
        <time>2022-08-19T07:28:21.000Z</time>
      </trkpt>
      <trkpt lat="49.8628" lon="4.76326">
        <ele>159</ele>
        <time>2022-08-19T07:28:22.000Z</time>
      </trkpt>
      <trkpt lat="49.8628" lon="4.76326">
        <ele>159</ele>
        <time>2022-08-19T07:28:23.000Z</time>
      </trkpt>
      <trkpt lat="49.8628" lon="4.76326">
        <ele>159</ele>
        <time>2022-08-19T07:28:24.000Z</time>
      </trkpt>
      <trkpt lat="49.8628" lon="4.76326">
        <ele>159</ele>
        <time>2022-08-19T07:28:25.000Z</time>
      </trkpt>
      <trkpt lat="49.8628" lon="4.76327">
        <ele>159</ele>
        <time>2022-08-19T07:28:26.000Z</time>
      </trkpt>
      <trkpt lat="49.8628" lon="4.76327">
        <ele>159</ele>
        <time>2022-08-19T07:28:27.000Z</time>
      </trkpt>
      <trkpt lat="49.8628" lon="4.76327">
        <ele>159</ele>
        <time>2022-08-19T07:28:28.000Z</time>
      </trkpt>
      <trkpt lat="49.8628" lon="4.76327">
        <ele>159</ele>
        <time>2022-08-19T07:28:29.000Z</time>
      </trkpt>
      <trkpt lat="49.8628" lon="4.76327">
        <ele>159</ele>
        <time>2022-08-19T07:28:30.000Z</time>
      </trkpt>
      <trkpt lat="49.8628" lon="4.76327">
        <ele>160</ele>
        <time>2022-08-19T07:28:31.000Z</time>
      </trkpt>
      <trkpt lat="49.86279" lon="4.76326">
        <ele>160</ele>
        <time>2022-08-19T07:28:32.000Z</time>
      </trkpt>
      <trkpt lat="49.86279" lon="4.76326">
        <ele>160</ele>
        <time>2022-08-19T07:28:33.000Z</time>
      </trkpt>
      <trkpt lat="49.86279" lon="4.76326">
        <ele>160</ele>
        <time>2022-08-19T07:28:34.000Z</time>
      </trkpt>
      <trkpt lat="49.86279" lon="4.76326">
        <ele>160</ele>
        <time>2022-08-19T07:28:35.000Z</time>
      </trkpt>
      <trkpt lat="49.86279" lon="4.76326">
        <ele>160</ele>
        <time>2022-08-19T07:28:36.000Z</time>
      </trkpt>
      <trkpt lat="49.86279" lon="4.76326">
        <ele>160</ele>
        <time>2022-08-19T07:28:37.000Z</time>
      </trkpt>
      <trkpt lat="49.86279" lon="4.76325">
        <ele>160</ele>
        <time>2022-08-19T07:28:38.000Z</time>
      </trkpt>
      <trkpt lat="49.86279" lon="4.76325">
        <ele>160</ele>
        <time>2022-08-19T07:28:39.000Z</time>
      </trkpt>
      <trkpt lat="49.86279" lon="4.76325">
        <ele>160</ele>
        <time>2022-08-19T07:28:40.000Z</time>
      </trkpt>
      <trkpt lat="49.86279" lon="4.76325">
        <ele>160</ele>
        <time>2022-08-19T07:28:41.000Z</time>
      </trkpt>
      <trkpt lat="49.86279" lon="4.76325">
        <ele>160</ele>
        <time>2022-08-19T07:28:42.000Z</time>
      </trkpt>
      <trkpt lat="49.86279" lon="4.76325">
        <ele>160</ele>
        <time>2022-08-19T07:28:43.000Z</time>
      </trkpt>
      <trkpt lat="49.86279" lon="4.76325">
        <ele>160</ele>
        <time>2022-08-19T07:28:44.000Z</time>
      </trkpt>
      <trkpt lat="49.86279" lon="4.76325">
        <ele>160</ele>
        <time>2022-08-19T07:28:45.000Z</time>
      </trkpt>
      <trkpt lat="49.86279" lon="4.76325">
        <ele>160</ele>
        <time>2022-08-19T07:28:46.000Z</time>
      </trkpt>
      <trkpt lat="49.86279" lon="4.76325">
        <ele>160</ele>
        <time>2022-08-19T07:28:47.000Z</time>
      </trkpt>
      <trkpt lat="49.8628" lon="4.76325">
        <ele>160</ele>
        <time>2022-08-19T07:28:48.000Z</time>
      </trkpt>
      <trkpt lat="49.8628" lon="4.76325">
        <ele>160</ele>
        <time>2022-08-19T07:28:49.000Z</time>
      </trkpt>
      <trkpt lat="49.8628" lon="4.76325">
        <ele>160</ele>
        <time>2022-08-19T07:28:50.000Z</time>
      </trkpt>
      <trkpt lat="49.8628" lon="4.76325">
        <ele>160</ele>
        <time>2022-08-19T07:28:51.000Z</time>
      </trkpt>
      <trkpt lat="49.8628" lon="4.76325">
        <ele>160</ele>
        <time>2022-08-19T07:28:52.000Z</time>
      </trkpt>
      <trkpt lat="49.8628" lon="4.76325">
        <ele>160</ele>
        <time>2022-08-19T07:28:53.000Z</time>
      </trkpt>
      <trkpt lat="49.8628" lon="4.76325">
        <ele>160</ele>
        <time>2022-08-19T07:28:54.000Z</time>
      </trkpt>
      <trkpt lat="49.8628" lon="4.76325">
        <ele>160</ele>
        <time>2022-08-19T07:28:55.000Z</time>
      </trkpt>
      <trkpt lat="49.8628" lon="4.76325">
        <ele>160</ele>
        <time>2022-08-19T07:28:56.000Z</time>
      </trkpt>
      <trkpt lat="49.8628" lon="4.76324">
        <ele>160</ele>
        <time>2022-08-19T07:28:57.000Z</time>
      </trkpt>
      <trkpt lat="49.8628" lon="4.76324">
        <ele>160</ele>
        <time>2022-08-19T07:28:58.000Z</time>
      </trkpt>
      <trkpt lat="49.8628" lon="4.76324">
        <ele>160</ele>
        <time>2022-08-19T07:28:59.000Z</time>
      </trkpt>
      <trkpt lat="49.8628" lon="4.76324">
        <ele>160</ele>
        <time>2022-08-19T07:29:00.000Z</time>
      </trkpt>
      <trkpt lat="49.8628" lon="4.76324">
        <ele>160</ele>
        <time>2022-08-19T07:29:01.000Z</time>
      </trkpt>
      <trkpt lat="49.8628" lon="4.76324">
        <ele>160</ele>
        <time>2022-08-19T07:29:02.000Z</time>
      </trkpt>
      <trkpt lat="49.8628" lon="4.76324">
        <ele>160</ele>
        <time>2022-08-19T07:29:03.000Z</time>
      </trkpt>
      <trkpt lat="49.8628" lon="4.76324">
        <ele>160</ele>
        <time>2022-08-19T07:29:04.000Z</time>
      </trkpt>
      <trkpt lat="49.8628" lon="4.76324">
        <ele>160</ele>
        <time>2022-08-19T07:29:05.000Z</time>
      </trkpt>
      <trkpt lat="49.8628" lon="4.76324">
        <ele>160</ele>
        <time>2022-08-19T07:29:06.000Z</time>
      </trkpt>
      <trkpt lat="49.8628" lon="4.76324">
        <ele>160</ele>
        <time>2022-08-19T07:29:07.000Z</time>
      </trkpt>
      <trkpt lat="49.8628" lon="4.76324">
        <ele>160</ele>
        <time>2022-08-19T07:29:08.000Z</time>
      </trkpt>
      <trkpt lat="49.8628" lon="4.76324">
        <ele>160</ele>
        <time>2022-08-19T07:29:09.000Z</time>
      </trkpt>
      <trkpt lat="49.8628" lon="4.76324">
        <ele>160</ele>
        <time>2022-08-19T07:29:10.000Z</time>
      </trkpt>
      <trkpt lat="49.8628" lon="4.76324">
        <ele>160</ele>
        <time>2022-08-19T07:29:11.000Z</time>
      </trkpt>
      <trkpt lat="49.8628" lon="4.76324">
        <ele>160</ele>
        <time>2022-08-19T07:29:12.000Z</time>
      </trkpt>
      <trkpt lat="49.8628" lon="4.76324">
        <ele>160</ele>
        <time>2022-08-19T07:29:13.000Z</time>
      </trkpt>
      <trkpt lat="49.8628" lon="4.76324">
        <ele>160</ele>
        <time>2022-08-19T07:29:14.000Z</time>
      </trkpt>
      <trkpt lat="49.8628" lon="4.76324">
        <ele>160</ele>
        <time>2022-08-19T07:29:15.000Z</time>
      </trkpt>
      <trkpt lat="49.8628" lon="4.76324">
        <ele>160</ele>
        <time>2022-08-19T07:29:16.000Z</time>
      </trkpt>
      <trkpt lat="49.8628" lon="4.76324">
        <ele>160</ele>
        <time>2022-08-19T07:29:17.000Z</time>
      </trkpt>
      <trkpt lat="49.8628" lon="4.76324">
        <ele>160</ele>
        <time>2022-08-19T07:29:18.000Z</time>
      </trkpt>
      <trkpt lat="49.8628" lon="4.76324">
        <ele>160</ele>
        <time>2022-08-19T07:29:19.000Z</time>
      </trkpt>
      <trkpt lat="49.8628" lon="4.76323">
        <ele>160</ele>
        <time>2022-08-19T07:29:20.000Z</time>
      </trkpt>
      <trkpt lat="49.8628" lon="4.76323">
        <ele>160</ele>
        <time>2022-08-19T07:29:21.000Z</time>
      </trkpt>
      <trkpt lat="49.8628" lon="4.76321">
        <ele>160</ele>
        <time>2022-08-19T07:29:22.000Z</time>
      </trkpt>
      <trkpt lat="49.8628" lon="4.76318">
        <ele>160</ele>
        <time>2022-08-19T07:29:23.000Z</time>
      </trkpt>
      <trkpt lat="49.8628" lon="4.76315">
        <ele>160</ele>
        <time>2022-08-19T07:29:24.000Z</time>
      </trkpt>
      <trkpt lat="49.8628" lon="4.76311">
        <ele>159</ele>
        <time>2022-08-19T07:29:25.000Z</time>
      </trkpt>
      <trkpt lat="49.8628" lon="4.76307">
        <ele>159</ele>
        <time>2022-08-19T07:29:26.000Z</time>
      </trkpt>
      <trkpt lat="49.86279" lon="4.76302">
        <ele>159</ele>
        <time>2022-08-19T07:29:27.000Z</time>
      </trkpt>
      <trkpt lat="49.86278" lon="4.76297">
        <ele>159</ele>
        <time>2022-08-19T07:29:28.000Z</time>
      </trkpt>
      <trkpt lat="49.86276" lon="4.76292">
        <ele>159</ele>
        <time>2022-08-19T07:29:29.000Z</time>
      </trkpt>
      <trkpt lat="49.86273" lon="4.76288">
        <ele>159</ele>
        <time>2022-08-19T07:29:30.000Z</time>
      </trkpt>
      <trkpt lat="49.8627" lon="4.76282">
        <ele>159</ele>
        <time>2022-08-19T07:29:31.000Z</time>
      </trkpt>
      <trkpt lat="49.86266" lon="4.76277">
        <ele>158</ele>
        <time>2022-08-19T07:29:32.000Z</time>
      </trkpt>
      <trkpt lat="49.86261" lon="4.76272">
        <ele>158</ele>
        <time>2022-08-19T07:29:33.000Z</time>
      </trkpt>
      <trkpt lat="49.86257" lon="4.76266">
        <ele>158</ele>
        <time>2022-08-19T07:29:34.000Z</time>
      </trkpt>
      <trkpt lat="49.86252" lon="4.7626">
        <ele>157</ele>
        <time>2022-08-19T07:29:35.000Z</time>
      </trkpt>
      <trkpt lat="49.86247" lon="4.76254">
        <ele>157</ele>
        <time>2022-08-19T07:29:36.000Z</time>
      </trkpt>
      <trkpt lat="49.86241" lon="4.76248">
        <ele>156</ele>
        <time>2022-08-19T07:29:37.000Z</time>
      </trkpt>
      <trkpt lat="49.86235" lon="4.76241">
        <ele>156</ele>
        <time>2022-08-19T07:29:38.000Z</time>
      </trkpt>
      <trkpt lat="49.86229" lon="4.76234">
        <ele>155</ele>
        <time>2022-08-19T07:29:39.000Z</time>
      </trkpt>
      <trkpt lat="49.86224" lon="4.76227">
        <ele>155</ele>
        <time>2022-08-19T07:29:40.000Z</time>
      </trkpt>
      <trkpt lat="49.86219" lon="4.76222">
        <ele>154</ele>
        <time>2022-08-19T07:29:41.000Z</time>
      </trkpt>
      <trkpt lat="49.86214" lon="4.76217">
        <ele>154</ele>
        <time>2022-08-19T07:29:42.000Z</time>
      </trkpt>
      <trkpt lat="49.8621" lon="4.76212">
        <ele>153</ele>
        <time>2022-08-19T07:29:43.000Z</time>
      </trkpt>
      <trkpt lat="49.86207" lon="4.76207">
        <ele>153</ele>
        <time>2022-08-19T07:29:44.000Z</time>
      </trkpt>
      <trkpt lat="49.86204" lon="4.76205">
        <ele>153</ele>
        <time>2022-08-19T07:29:45.000Z</time>
      </trkpt>
      <trkpt lat="49.86202" lon="4.76203">
        <ele>153</ele>
        <time>2022-08-19T07:29:46.000Z</time>
      </trkpt>
      <trkpt lat="49.86202" lon="4.762">
        <ele>152</ele>
        <time>2022-08-19T07:29:47.000Z</time>
      </trkpt>
      <trkpt lat="49.86203" lon="4.76198">
        <ele>152</ele>
        <time>2022-08-19T07:29:48.000Z</time>
      </trkpt>
      <trkpt lat="49.86204" lon="4.76197">
        <ele>152</ele>
        <time>2022-08-19T07:29:49.000Z</time>
      </trkpt>
      <trkpt lat="49.86207" lon="4.76198">
        <ele>152</ele>
        <time>2022-08-19T07:29:50.000Z</time>
      </trkpt>
      <trkpt lat="49.86209" lon="4.76198">
        <ele>152</ele>
        <time>2022-08-19T07:29:51.000Z</time>
      </trkpt>
      <trkpt lat="49.86213" lon="4.76198">
        <ele>152</ele>
        <time>2022-08-19T07:29:52.000Z</time>
      </trkpt>
      <trkpt lat="49.86216" lon="4.76197">
        <ele>152</ele>
        <time>2022-08-19T07:29:53.000Z</time>
      </trkpt>
      <trkpt lat="49.86219" lon="4.76196">
        <ele>152</ele>
        <time>2022-08-19T07:29:54.000Z</time>
      </trkpt>
      <trkpt lat="49.86222" lon="4.76194">
        <ele>152</ele>
        <time>2022-08-19T07:29:55.000Z</time>
      </trkpt>
      <trkpt lat="49.86226" lon="4.76191">
        <ele>152</ele>
        <time>2022-08-19T07:29:56.000Z</time>
      </trkpt>
      <trkpt lat="49.86229" lon="4.76189">
        <ele>152</ele>
        <time>2022-08-19T07:29:57.000Z</time>
      </trkpt>
      <trkpt lat="49.86232" lon="4.76186">
        <ele>152</ele>
        <time>2022-08-19T07:29:58.000Z</time>
      </trkpt>
      <trkpt lat="49.86236" lon="4.76183">
        <ele>152</ele>
        <time>2022-08-19T07:29:59.000Z</time>
      </trkpt>
      <trkpt lat="49.86239" lon="4.7618">
        <ele>152</ele>
        <time>2022-08-19T07:30:00.000Z</time>
      </trkpt>
      <trkpt lat="49.86242" lon="4.76178">
        <ele>153</ele>
        <time>2022-08-19T07:30:01.000Z</time>
      </trkpt>
      <trkpt lat="49.86245" lon="4.76175">
        <ele>153</ele>
        <time>2022-08-19T07:30:02.000Z</time>
      </trkpt>
      <trkpt lat="49.86247" lon="4.76172">
        <ele>153</ele>
        <time>2022-08-19T07:30:03.000Z</time>
      </trkpt>
      <trkpt lat="49.8625" lon="4.76169">
        <ele>153</ele>
        <time>2022-08-19T07:30:04.000Z</time>
      </trkpt>
      <trkpt lat="49.86253" lon="4.76166">
        <ele>153</ele>
        <time>2022-08-19T07:30:05.000Z</time>
      </trkpt>
      <trkpt lat="49.86256" lon="4.76162">
        <ele>153</ele>
        <time>2022-08-19T07:30:06.000Z</time>
      </trkpt>
      <trkpt lat="49.86259" lon="4.76159">
        <ele>154</ele>
        <time>2022-08-19T07:30:07.000Z</time>
      </trkpt>
      <trkpt lat="49.86261" lon="4.76156">
        <ele>154</ele>
        <time>2022-08-19T07:30:08.000Z</time>
      </trkpt>
      <trkpt lat="49.86264" lon="4.76153">
        <ele>154</ele>
        <time>2022-08-19T07:30:09.000Z</time>
      </trkpt>
      <trkpt lat="49.86267" lon="4.7615">
        <ele>154</ele>
        <time>2022-08-19T07:30:10.000Z</time>
      </trkpt>
      <trkpt lat="49.8627" lon="4.76148">
        <ele>154</ele>
        <time>2022-08-19T07:30:11.000Z</time>
      </trkpt>
      <trkpt lat="49.86272" lon="4.76145">
        <ele>155</ele>
        <time>2022-08-19T07:30:12.000Z</time>
      </trkpt>
      <trkpt lat="49.86275" lon="4.76142">
        <ele>155</ele>
        <time>2022-08-19T07:30:13.000Z</time>
      </trkpt>
      <trkpt lat="49.86277" lon="4.7614">
        <ele>155</ele>
        <time>2022-08-19T07:30:14.000Z</time>
      </trkpt>
      <trkpt lat="49.86279" lon="4.76137">
        <ele>155</ele>
        <time>2022-08-19T07:30:15.000Z</time>
      </trkpt>
      <trkpt lat="49.86282" lon="4.76134">
        <ele>155</ele>
        <time>2022-08-19T07:30:16.000Z</time>
      </trkpt>
      <trkpt lat="49.86284" lon="4.76131">
        <ele>155</ele>
        <time>2022-08-19T07:30:17.000Z</time>
      </trkpt>
      <trkpt lat="49.86287" lon="4.76128">
        <ele>155</ele>
        <time>2022-08-19T07:30:18.000Z</time>
      </trkpt>
      <trkpt lat="49.86289" lon="4.76126">
        <ele>156</ele>
        <time>2022-08-19T07:30:19.000Z</time>
      </trkpt>
      <trkpt lat="49.86292" lon="4.76123">
        <ele>156</ele>
        <time>2022-08-19T07:30:20.000Z</time>
      </trkpt>
      <trkpt lat="49.86294" lon="4.76121">
        <ele>156</ele>
        <time>2022-08-19T07:30:21.000Z</time>
      </trkpt>
      <trkpt lat="49.86297" lon="4.76118">
        <ele>156</ele>
        <time>2022-08-19T07:30:22.000Z</time>
      </trkpt>
      <trkpt lat="49.86299" lon="4.76116">
        <ele>157</ele>
        <time>2022-08-19T07:30:23.000Z</time>
      </trkpt>
      <trkpt lat="49.86302" lon="4.76113">
        <ele>157</ele>
        <time>2022-08-19T07:30:24.000Z</time>
      </trkpt>
      <trkpt lat="49.86304" lon="4.76111">
        <ele>157</ele>
        <time>2022-08-19T07:30:25.000Z</time>
      </trkpt>
      <trkpt lat="49.86306" lon="4.76108">
        <ele>157</ele>
        <time>2022-08-19T07:30:26.000Z</time>
      </trkpt>
      <trkpt lat="49.86309" lon="4.76105">
        <ele>157</ele>
        <time>2022-08-19T07:30:27.000Z</time>
      </trkpt>
      <trkpt lat="49.86311" lon="4.76103">
        <ele>158</ele>
        <time>2022-08-19T07:30:28.000Z</time>
      </trkpt>
      <trkpt lat="49.86313" lon="4.761">
        <ele>158</ele>
        <time>2022-08-19T07:30:29.000Z</time>
      </trkpt>
      <trkpt lat="49.86315" lon="4.76098">
        <ele>158</ele>
        <time>2022-08-19T07:30:30.000Z</time>
      </trkpt>
      <trkpt lat="49.86317" lon="4.76095">
        <ele>159</ele>
        <time>2022-08-19T07:30:31.000Z</time>
      </trkpt>
      <trkpt lat="49.8632" lon="4.76092">
        <ele>159</ele>
        <time>2022-08-19T07:30:32.000Z</time>
      </trkpt>
      <trkpt lat="49.86322" lon="4.7609">
        <ele>159</ele>
        <time>2022-08-19T07:30:33.000Z</time>
      </trkpt>
      <trkpt lat="49.86324" lon="4.76087">
        <ele>159</ele>
        <time>2022-08-19T07:30:34.000Z</time>
      </trkpt>
      <trkpt lat="49.86326" lon="4.76085">
        <ele>160</ele>
        <time>2022-08-19T07:30:35.000Z</time>
      </trkpt>
      <trkpt lat="49.86329" lon="4.76083">
        <ele>160</ele>
        <time>2022-08-19T07:30:36.000Z</time>
      </trkpt>
      <trkpt lat="49.86331" lon="4.7608">
        <ele>160</ele>
        <time>2022-08-19T07:30:37.000Z</time>
      </trkpt>
      <trkpt lat="49.86333" lon="4.76078">
        <ele>161</ele>
        <time>2022-08-19T07:30:38.000Z</time>
      </trkpt>
      <trkpt lat="49.86335" lon="4.76075">
        <ele>161</ele>
        <time>2022-08-19T07:30:39.000Z</time>
      </trkpt>
      <trkpt lat="49.86337" lon="4.76073">
        <ele>161</ele>
        <time>2022-08-19T07:30:40.000Z</time>
      </trkpt>
      <trkpt lat="49.86339" lon="4.76071">
        <ele>162</ele>
        <time>2022-08-19T07:30:41.000Z</time>
      </trkpt>
      <trkpt lat="49.86341" lon="4.76068">
        <ele>162</ele>
        <time>2022-08-19T07:30:42.000Z</time>
      </trkpt>
      <trkpt lat="49.86343" lon="4.76065">
        <ele>162</ele>
        <time>2022-08-19T07:30:43.000Z</time>
      </trkpt>
      <trkpt lat="49.86345" lon="4.76063">
        <ele>162</ele>
        <time>2022-08-19T07:30:44.000Z</time>
      </trkpt>
      <trkpt lat="49.86347" lon="4.7606">
        <ele>163</ele>
        <time>2022-08-19T07:30:45.000Z</time>
      </trkpt>
      <trkpt lat="49.86349" lon="4.76058">
        <ele>163</ele>
        <time>2022-08-19T07:30:46.000Z</time>
      </trkpt>
      <trkpt lat="49.86351" lon="4.76056">
        <ele>163</ele>
        <time>2022-08-19T07:30:47.000Z</time>
      </trkpt>
      <trkpt lat="49.86352" lon="4.76053">
        <ele>163</ele>
        <time>2022-08-19T07:30:48.000Z</time>
      </trkpt>
      <trkpt lat="49.86354" lon="4.76051">
        <ele>164</ele>
        <time>2022-08-19T07:30:49.000Z</time>
      </trkpt>
      <trkpt lat="49.86355" lon="4.76048">
        <ele>164</ele>
        <time>2022-08-19T07:30:50.000Z</time>
      </trkpt>
      <trkpt lat="49.86357" lon="4.76045">
        <ele>164</ele>
        <time>2022-08-19T07:30:51.000Z</time>
      </trkpt>
      <trkpt lat="49.86359" lon="4.76043">
        <ele>164</ele>
        <time>2022-08-19T07:30:52.000Z</time>
      </trkpt>
      <trkpt lat="49.8636" lon="4.7604">
        <ele>165</ele>
        <time>2022-08-19T07:30:53.000Z</time>
      </trkpt>
      <trkpt lat="49.86362" lon="4.76038">
        <ele>165</ele>
        <time>2022-08-19T07:30:54.000Z</time>
      </trkpt>
      <trkpt lat="49.86363" lon="4.76035">
        <ele>165</ele>
        <time>2022-08-19T07:30:55.000Z</time>
      </trkpt>
      <trkpt lat="49.86365" lon="4.76032">
        <ele>165</ele>
        <time>2022-08-19T07:30:56.000Z</time>
      </trkpt>
      <trkpt lat="49.86366" lon="4.7603">
        <ele>166</ele>
        <time>2022-08-19T07:30:57.000Z</time>
      </trkpt>
      <trkpt lat="49.86368" lon="4.76027">
        <ele>166</ele>
        <time>2022-08-19T07:30:58.000Z</time>
      </trkpt>
      <trkpt lat="49.86369" lon="4.76024">
        <ele>166</ele>
        <time>2022-08-19T07:30:59.000Z</time>
      </trkpt>
      <trkpt lat="49.86371" lon="4.76022">
        <ele>166</ele>
        <time>2022-08-19T07:31:00.000Z</time>
      </trkpt>
      <trkpt lat="49.86373" lon="4.76019">
        <ele>167</ele>
        <time>2022-08-19T07:31:01.000Z</time>
      </trkpt>
      <trkpt lat="49.86374" lon="4.76017">
        <ele>167</ele>
        <time>2022-08-19T07:31:02.000Z</time>
      </trkpt>
      <trkpt lat="49.86376" lon="4.76014">
        <ele>167</ele>
        <time>2022-08-19T07:31:03.000Z</time>
      </trkpt>
      <trkpt lat="49.86377" lon="4.76012">
        <ele>167</ele>
        <time>2022-08-19T07:31:04.000Z</time>
      </trkpt>
      <trkpt lat="49.86379" lon="4.76009">
        <ele>168</ele>
        <time>2022-08-19T07:31:05.000Z</time>
      </trkpt>
      <trkpt lat="49.86381" lon="4.76006">
        <ele>168</ele>
        <time>2022-08-19T07:31:06.000Z</time>
      </trkpt>
      <trkpt lat="49.86382" lon="4.76004">
        <ele>168</ele>
        <time>2022-08-19T07:31:07.000Z</time>
      </trkpt>
      <trkpt lat="49.86384" lon="4.76001">
        <ele>168</ele>
        <time>2022-08-19T07:31:08.000Z</time>
      </trkpt>
      <trkpt lat="49.86385" lon="4.75998">
        <ele>168</ele>
        <time>2022-08-19T07:31:09.000Z</time>
      </trkpt>
      <trkpt lat="49.86387" lon="4.75996">
        <ele>169</ele>
        <time>2022-08-19T07:31:10.000Z</time>
      </trkpt>
      <trkpt lat="49.86388" lon="4.75993">
        <ele>169</ele>
        <time>2022-08-19T07:31:11.000Z</time>
      </trkpt>
      <trkpt lat="49.8639" lon="4.7599">
        <ele>169</ele>
        <time>2022-08-19T07:31:12.000Z</time>
      </trkpt>
      <trkpt lat="49.86391" lon="4.75988">
        <ele>169</ele>
        <time>2022-08-19T07:31:13.000Z</time>
      </trkpt>
      <trkpt lat="49.86392" lon="4.75985">
        <ele>169</ele>
        <time>2022-08-19T07:31:14.000Z</time>
      </trkpt>
      <trkpt lat="49.86394" lon="4.75983">
        <ele>170</ele>
        <time>2022-08-19T07:31:15.000Z</time>
      </trkpt>
      <trkpt lat="49.86395" lon="4.7598">
        <ele>170</ele>
        <time>2022-08-19T07:31:16.000Z</time>
      </trkpt>
      <trkpt lat="49.86397" lon="4.75977">
        <ele>170</ele>
        <time>2022-08-19T07:31:17.000Z</time>
      </trkpt>
      <trkpt lat="49.86398" lon="4.75974">
        <ele>171</ele>
        <time>2022-08-19T07:31:18.000Z</time>
      </trkpt>
      <trkpt lat="49.864" lon="4.75972">
        <ele>171</ele>
        <time>2022-08-19T07:31:19.000Z</time>
      </trkpt>
      <trkpt lat="49.86402" lon="4.7597">
        <ele>171</ele>
        <time>2022-08-19T07:31:20.000Z</time>
      </trkpt>
      <trkpt lat="49.86403" lon="4.75967">
        <ele>171</ele>
        <time>2022-08-19T07:31:21.000Z</time>
      </trkpt>
      <trkpt lat="49.86405" lon="4.75965">
        <ele>172</ele>
        <time>2022-08-19T07:31:22.000Z</time>
      </trkpt>
      <trkpt lat="49.86407" lon="4.75963">
        <ele>172</ele>
        <time>2022-08-19T07:31:23.000Z</time>
      </trkpt>
      <trkpt lat="49.86408" lon="4.7596">
        <ele>172</ele>
        <time>2022-08-19T07:31:24.000Z</time>
      </trkpt>
      <trkpt lat="49.8641" lon="4.75958">
        <ele>173</ele>
        <time>2022-08-19T07:31:25.000Z</time>
      </trkpt>
      <trkpt lat="49.86411" lon="4.75956">
        <ele>173</ele>
        <time>2022-08-19T07:31:26.000Z</time>
      </trkpt>
      <trkpt lat="49.86413" lon="4.75953">
        <ele>173</ele>
        <time>2022-08-19T07:31:27.000Z</time>
      </trkpt>
      <trkpt lat="49.86415" lon="4.75951">
        <ele>174</ele>
        <time>2022-08-19T07:31:28.000Z</time>
      </trkpt>
      <trkpt lat="49.86417" lon="4.7595">
        <ele>174</ele>
        <time>2022-08-19T07:31:29.000Z</time>
      </trkpt>
      <trkpt lat="49.86418" lon="4.75948">
        <ele>175</ele>
        <time>2022-08-19T07:31:30.000Z</time>
      </trkpt>
      <trkpt lat="49.8642" lon="4.75946">
        <ele>175</ele>
        <time>2022-08-19T07:31:31.000Z</time>
      </trkpt>
      <trkpt lat="49.86422" lon="4.75945">
        <ele>175</ele>
        <time>2022-08-19T07:31:32.000Z</time>
      </trkpt>
      <trkpt lat="49.86424" lon="4.75944">
        <ele>176</ele>
        <time>2022-08-19T07:31:33.000Z</time>
      </trkpt>
      <trkpt lat="49.86426" lon="4.75943">
        <ele>176</ele>
        <time>2022-08-19T07:31:34.000Z</time>
      </trkpt>
      <trkpt lat="49.86429" lon="4.75943">
        <ele>176</ele>
        <time>2022-08-19T07:31:35.000Z</time>
      </trkpt>
      <trkpt lat="49.86431" lon="4.75942">
        <ele>176</ele>
        <time>2022-08-19T07:31:36.000Z</time>
      </trkpt>
      <trkpt lat="49.86433" lon="4.75942">
        <ele>177</ele>
        <time>2022-08-19T07:31:37.000Z</time>
      </trkpt>
      <trkpt lat="49.86435" lon="4.75942">
        <ele>177</ele>
        <time>2022-08-19T07:31:38.000Z</time>
      </trkpt>
      <trkpt lat="49.86437" lon="4.75942">
        <ele>177</ele>
        <time>2022-08-19T07:31:39.000Z</time>
      </trkpt>
      <trkpt lat="49.86438" lon="4.75943">
        <ele>177</ele>
        <time>2022-08-19T07:31:40.000Z</time>
      </trkpt>
      <trkpt lat="49.8644" lon="4.75944">
        <ele>178</ele>
        <time>2022-08-19T07:31:41.000Z</time>
      </trkpt>
      <trkpt lat="49.86442" lon="4.75946">
        <ele>178</ele>
        <time>2022-08-19T07:31:42.000Z</time>
      </trkpt>
      <trkpt lat="49.86443" lon="4.75947">
        <ele>178</ele>
        <time>2022-08-19T07:31:43.000Z</time>
      </trkpt>
      <trkpt lat="49.86445" lon="4.75949">
        <ele>179</ele>
        <time>2022-08-19T07:31:44.000Z</time>
      </trkpt>
      <trkpt lat="49.86447" lon="4.75951">
        <ele>179</ele>
        <time>2022-08-19T07:31:45.000Z</time>
      </trkpt>
      <trkpt lat="49.86448" lon="4.75952">
        <ele>179</ele>
        <time>2022-08-19T07:31:46.000Z</time>
      </trkpt>
      <trkpt lat="49.86449" lon="4.75954">
        <ele>179</ele>
        <time>2022-08-19T07:31:47.000Z</time>
      </trkpt>
      <trkpt lat="49.86451" lon="4.75956">
        <ele>180</ele>
        <time>2022-08-19T07:31:48.000Z</time>
      </trkpt>
      <trkpt lat="49.86452" lon="4.75958">
        <ele>180</ele>
        <time>2022-08-19T07:31:49.000Z</time>
      </trkpt>
      <trkpt lat="49.86454" lon="4.7596">
        <ele>180</ele>
        <time>2022-08-19T07:31:50.000Z</time>
      </trkpt>
      <trkpt lat="49.86456" lon="4.75962">
        <ele>180</ele>
        <time>2022-08-19T07:31:51.000Z</time>
      </trkpt>
      <trkpt lat="49.86457" lon="4.75964">
        <ele>181</ele>
        <time>2022-08-19T07:31:52.000Z</time>
      </trkpt>
      <trkpt lat="49.86459" lon="4.75966">
        <ele>181</ele>
        <time>2022-08-19T07:31:53.000Z</time>
      </trkpt>
      <trkpt lat="49.8646" lon="4.75968">
        <ele>181</ele>
        <time>2022-08-19T07:31:54.000Z</time>
      </trkpt>
      <trkpt lat="49.86462" lon="4.7597">
        <ele>181</ele>
        <time>2022-08-19T07:31:55.000Z</time>
      </trkpt>
      <trkpt lat="49.86464" lon="4.75972">
        <ele>182</ele>
        <time>2022-08-19T07:31:56.000Z</time>
      </trkpt>
      <trkpt lat="49.86465" lon="4.75975">
        <ele>182</ele>
        <time>2022-08-19T07:31:57.000Z</time>
      </trkpt>
      <trkpt lat="49.86466" lon="4.75977">
        <ele>182</ele>
        <time>2022-08-19T07:31:58.000Z</time>
      </trkpt>
      <trkpt lat="49.86468" lon="4.75979">
        <ele>183</ele>
        <time>2022-08-19T07:31:59.000Z</time>
      </trkpt>
      <trkpt lat="49.8647" lon="4.75981">
        <ele>183</ele>
        <time>2022-08-19T07:32:00.000Z</time>
      </trkpt>
      <trkpt lat="49.86471" lon="4.75983">
        <ele>183</ele>
        <time>2022-08-19T07:32:01.000Z</time>
      </trkpt>
      <trkpt lat="49.86473" lon="4.75986">
        <ele>184</ele>
        <time>2022-08-19T07:32:02.000Z</time>
      </trkpt>
      <trkpt lat="49.86474" lon="4.75988">
        <ele>184</ele>
        <time>2022-08-19T07:32:03.000Z</time>
      </trkpt>
      <trkpt lat="49.86476" lon="4.7599">
        <ele>184</ele>
        <time>2022-08-19T07:32:04.000Z</time>
      </trkpt>
      <trkpt lat="49.86478" lon="4.75991">
        <ele>185</ele>
        <time>2022-08-19T07:32:05.000Z</time>
      </trkpt>
      <trkpt lat="49.8648" lon="4.75993">
        <ele>185</ele>
        <time>2022-08-19T07:32:06.000Z</time>
      </trkpt>
      <trkpt lat="49.86481" lon="4.75996">
        <ele>185</ele>
        <time>2022-08-19T07:32:07.000Z</time>
      </trkpt>
      <trkpt lat="49.86483" lon="4.75998">
        <ele>186</ele>
        <time>2022-08-19T07:32:08.000Z</time>
      </trkpt>
      <trkpt lat="49.86484" lon="4.76">
        <ele>186</ele>
        <time>2022-08-19T07:32:09.000Z</time>
      </trkpt>
      <trkpt lat="49.86486" lon="4.76002">
        <ele>186</ele>
        <time>2022-08-19T07:32:10.000Z</time>
      </trkpt>
      <trkpt lat="49.86487" lon="4.76004">
        <ele>187</ele>
        <time>2022-08-19T07:32:11.000Z</time>
      </trkpt>
      <trkpt lat="49.86489" lon="4.76006">
        <ele>187</ele>
        <time>2022-08-19T07:32:12.000Z</time>
      </trkpt>
      <trkpt lat="49.8649" lon="4.76008">
        <ele>187</ele>
        <time>2022-08-19T07:32:13.000Z</time>
      </trkpt>
      <trkpt lat="49.86492" lon="4.7601">
        <ele>187</ele>
        <time>2022-08-19T07:32:14.000Z</time>
      </trkpt>
      <trkpt lat="49.86493" lon="4.76012">
        <ele>188</ele>
        <time>2022-08-19T07:32:15.000Z</time>
      </trkpt>
      <trkpt lat="49.86495" lon="4.76014">
        <ele>188</ele>
        <time>2022-08-19T07:32:16.000Z</time>
      </trkpt>
      <trkpt lat="49.86496" lon="4.76017">
        <ele>188</ele>
        <time>2022-08-19T07:32:17.000Z</time>
      </trkpt>
      <trkpt lat="49.86498" lon="4.76019">
        <ele>188</ele>
        <time>2022-08-19T07:32:18.000Z</time>
      </trkpt>
      <trkpt lat="49.86499" lon="4.76021">
        <ele>189</ele>
        <time>2022-08-19T07:32:19.000Z</time>
      </trkpt>
      <trkpt lat="49.86501" lon="4.76023">
        <ele>189</ele>
        <time>2022-08-19T07:32:20.000Z</time>
      </trkpt>
      <trkpt lat="49.86502" lon="4.76026">
        <ele>189</ele>
        <time>2022-08-19T07:32:21.000Z</time>
      </trkpt>
      <trkpt lat="49.86503" lon="4.76028">
        <ele>190</ele>
        <time>2022-08-19T07:32:22.000Z</time>
      </trkpt>
      <trkpt lat="49.86505" lon="4.7603">
        <ele>190</ele>
        <time>2022-08-19T07:32:23.000Z</time>
      </trkpt>
      <trkpt lat="49.86506" lon="4.76032">
        <ele>190</ele>
        <time>2022-08-19T07:32:24.000Z</time>
      </trkpt>
      <trkpt lat="49.86508" lon="4.76035">
        <ele>191</ele>
        <time>2022-08-19T07:32:25.000Z</time>
      </trkpt>
      <trkpt lat="49.86509" lon="4.76037">
        <ele>191</ele>
        <time>2022-08-19T07:32:26.000Z</time>
      </trkpt>
      <trkpt lat="49.86511" lon="4.76039">
        <ele>191</ele>
        <time>2022-08-19T07:32:27.000Z</time>
      </trkpt>
      <trkpt lat="49.86513" lon="4.76041">
        <ele>192</ele>
        <time>2022-08-19T07:32:28.000Z</time>
      </trkpt>
      <trkpt lat="49.86514" lon="4.76043">
        <ele>192</ele>
        <time>2022-08-19T07:32:29.000Z</time>
      </trkpt>
      <trkpt lat="49.86516" lon="4.76045">
        <ele>192</ele>
        <time>2022-08-19T07:32:30.000Z</time>
      </trkpt>
      <trkpt lat="49.86518" lon="4.76047">
        <ele>193</ele>
        <time>2022-08-19T07:32:31.000Z</time>
      </trkpt>
      <trkpt lat="49.86519" lon="4.76049">
        <ele>193</ele>
        <time>2022-08-19T07:32:32.000Z</time>
      </trkpt>
      <trkpt lat="49.86521" lon="4.76051">
        <ele>193</ele>
        <time>2022-08-19T07:32:33.000Z</time>
      </trkpt>
      <trkpt lat="49.86523" lon="4.76053">
        <ele>193</ele>
        <time>2022-08-19T07:32:34.000Z</time>
      </trkpt>
      <trkpt lat="49.86524" lon="4.76055">
        <ele>193</ele>
        <time>2022-08-19T07:32:35.000Z</time>
      </trkpt>
      <trkpt lat="49.86526" lon="4.76057">
        <ele>194</ele>
        <time>2022-08-19T07:32:36.000Z</time>
      </trkpt>
      <trkpt lat="49.86527" lon="4.76059">
        <ele>194</ele>
        <time>2022-08-19T07:32:37.000Z</time>
      </trkpt>
      <trkpt lat="49.86529" lon="4.76062">
        <ele>194</ele>
        <time>2022-08-19T07:32:38.000Z</time>
      </trkpt>
      <trkpt lat="49.8653" lon="4.76064">
        <ele>194</ele>
        <time>2022-08-19T07:32:39.000Z</time>
      </trkpt>
      <trkpt lat="49.86531" lon="4.76066">
        <ele>194</ele>
        <time>2022-08-19T07:32:40.000Z</time>
      </trkpt>
      <trkpt lat="49.86533" lon="4.76069">
        <ele>194</ele>
        <time>2022-08-19T07:32:41.000Z</time>
      </trkpt>
      <trkpt lat="49.86534" lon="4.76071">
        <ele>195</ele>
        <time>2022-08-19T07:32:42.000Z</time>
      </trkpt>
      <trkpt lat="49.86536" lon="4.76073">
        <ele>195</ele>
        <time>2022-08-19T07:32:43.000Z</time>
      </trkpt>
      <trkpt lat="49.86537" lon="4.76076">
        <ele>195</ele>
        <time>2022-08-19T07:32:44.000Z</time>
      </trkpt>
      <trkpt lat="49.86538" lon="4.76078">
        <ele>195</ele>
        <time>2022-08-19T07:32:45.000Z</time>
      </trkpt>
      <trkpt lat="49.8654" lon="4.7608">
        <ele>196</ele>
        <time>2022-08-19T07:32:46.000Z</time>
      </trkpt>
      <trkpt lat="49.86542" lon="4.76082">
        <ele>196</ele>
        <time>2022-08-19T07:32:47.000Z</time>
      </trkpt>
      <trkpt lat="49.86543" lon="4.76084">
        <ele>196</ele>
        <time>2022-08-19T07:32:48.000Z</time>
      </trkpt>
      <trkpt lat="49.86545" lon="4.76087">
        <ele>196</ele>
        <time>2022-08-19T07:32:49.000Z</time>
      </trkpt>
      <trkpt lat="49.86546" lon="4.76089">
        <ele>197</ele>
        <time>2022-08-19T07:32:50.000Z</time>
      </trkpt>
      <trkpt lat="49.86548" lon="4.76091">
        <ele>197</ele>
        <time>2022-08-19T07:32:51.000Z</time>
      </trkpt>
      <trkpt lat="49.86549" lon="4.76093">
        <ele>197</ele>
        <time>2022-08-19T07:32:52.000Z</time>
      </trkpt>
      <trkpt lat="49.86551" lon="4.76096">
        <ele>197</ele>
        <time>2022-08-19T07:32:53.000Z</time>
      </trkpt>
      <trkpt lat="49.86552" lon="4.76098">
        <ele>198</ele>
        <time>2022-08-19T07:32:54.000Z</time>
      </trkpt>
      <trkpt lat="49.86554" lon="4.761">
        <ele>198</ele>
        <time>2022-08-19T07:32:55.000Z</time>
      </trkpt>
      <trkpt lat="49.86555" lon="4.76102">
        <ele>198</ele>
        <time>2022-08-19T07:32:56.000Z</time>
      </trkpt>
      <trkpt lat="49.86557" lon="4.76104">
        <ele>199</ele>
        <time>2022-08-19T07:32:57.000Z</time>
      </trkpt>
      <trkpt lat="49.86558" lon="4.76106">
        <ele>199</ele>
        <time>2022-08-19T07:32:58.000Z</time>
      </trkpt>
      <trkpt lat="49.8656" lon="4.76108">
        <ele>199</ele>
        <time>2022-08-19T07:32:59.000Z</time>
      </trkpt>
      <trkpt lat="49.86561" lon="4.7611">
        <ele>199</ele>
        <time>2022-08-19T07:33:00.000Z</time>
      </trkpt>
      <trkpt lat="49.86563" lon="4.76112">
        <ele>200</ele>
        <time>2022-08-19T07:33:01.000Z</time>
      </trkpt>
      <trkpt lat="49.86565" lon="4.76114">
        <ele>200</ele>
        <time>2022-08-19T07:33:02.000Z</time>
      </trkpt>
      <trkpt lat="49.86566" lon="4.76116">
        <ele>200</ele>
        <time>2022-08-19T07:33:03.000Z</time>
      </trkpt>
      <trkpt lat="49.86568" lon="4.76118">
        <ele>200</ele>
        <time>2022-08-19T07:33:04.000Z</time>
      </trkpt>
      <trkpt lat="49.8657" lon="4.7612">
        <ele>201</ele>
        <time>2022-08-19T07:33:05.000Z</time>
      </trkpt>
      <trkpt lat="49.86571" lon="4.76122">
        <ele>201</ele>
        <time>2022-08-19T07:33:06.000Z</time>
      </trkpt>
      <trkpt lat="49.86573" lon="4.76125">
        <ele>202</ele>
        <time>2022-08-19T07:33:07.000Z</time>
      </trkpt>
      <trkpt lat="49.86574" lon="4.76127">
        <ele>202</ele>
        <time>2022-08-19T07:33:08.000Z</time>
      </trkpt>
      <trkpt lat="49.86576" lon="4.76129">
        <ele>202</ele>
        <time>2022-08-19T07:33:09.000Z</time>
      </trkpt>
      <trkpt lat="49.86577" lon="4.76131">
        <ele>203</ele>
        <time>2022-08-19T07:33:10.000Z</time>
      </trkpt>
      <trkpt lat="49.86579" lon="4.76133">
        <ele>203</ele>
        <time>2022-08-19T07:33:11.000Z</time>
      </trkpt>
      <trkpt lat="49.86581" lon="4.76135">
        <ele>204</ele>
        <time>2022-08-19T07:33:12.000Z</time>
      </trkpt>
      <trkpt lat="49.86582" lon="4.76136">
        <ele>204</ele>
        <time>2022-08-19T07:33:13.000Z</time>
      </trkpt>
      <trkpt lat="49.86584" lon="4.76138">
        <ele>204</ele>
        <time>2022-08-19T07:33:14.000Z</time>
      </trkpt>
      <trkpt lat="49.86586" lon="4.76139">
        <ele>205</ele>
        <time>2022-08-19T07:33:15.000Z</time>
      </trkpt>
      <trkpt lat="49.86588" lon="4.76141">
        <ele>205</ele>
        <time>2022-08-19T07:33:16.000Z</time>
      </trkpt>
      <trkpt lat="49.86589" lon="4.76143">
        <ele>205</ele>
        <time>2022-08-19T07:33:17.000Z</time>
      </trkpt>
      <trkpt lat="49.8659" lon="4.76144">
        <ele>206</ele>
        <time>2022-08-19T07:33:18.000Z</time>
      </trkpt>
      <trkpt lat="49.86592" lon="4.76146">
        <ele>206</ele>
        <time>2022-08-19T07:33:19.000Z</time>
      </trkpt>
      <trkpt lat="49.86593" lon="4.76148">
        <ele>207</ele>
        <time>2022-08-19T07:33:20.000Z</time>
      </trkpt>
      <trkpt lat="49.86594" lon="4.76149">
        <ele>207</ele>
        <time>2022-08-19T07:33:21.000Z</time>
      </trkpt>
      <trkpt lat="49.86595" lon="4.76151">
        <ele>208</ele>
        <time>2022-08-19T07:33:22.000Z</time>
      </trkpt>
      <trkpt lat="49.86596" lon="4.76152">
        <ele>208</ele>
        <time>2022-08-19T07:33:23.000Z</time>
      </trkpt>
      <trkpt lat="49.86598" lon="4.76153">
        <ele>209</ele>
        <time>2022-08-19T07:33:24.000Z</time>
      </trkpt>
      <trkpt lat="49.86599" lon="4.76153">
        <ele>209</ele>
        <time>2022-08-19T07:33:25.000Z</time>
      </trkpt>
      <trkpt lat="49.866" lon="4.76154">
        <ele>210</ele>
        <time>2022-08-19T07:33:26.000Z</time>
      </trkpt>
      <trkpt lat="49.86602" lon="4.76155">
        <ele>210</ele>
        <time>2022-08-19T07:33:27.000Z</time>
      </trkpt>
      <trkpt lat="49.86602" lon="4.76155">
        <ele>211</ele>
        <time>2022-08-19T07:33:28.000Z</time>
      </trkpt>
      <trkpt lat="49.86603" lon="4.76156">
        <ele>212</ele>
        <time>2022-08-19T07:33:29.000Z</time>
      </trkpt>
      <trkpt lat="49.86605" lon="4.76156">
        <ele>212</ele>
        <time>2022-08-19T07:33:30.000Z</time>
      </trkpt>
      <trkpt lat="49.86606" lon="4.76156">
        <ele>213</ele>
        <time>2022-08-19T07:33:31.000Z</time>
      </trkpt>
      <trkpt lat="49.86607" lon="4.76155">
        <ele>214</ele>
        <time>2022-08-19T07:33:32.000Z</time>
      </trkpt>
      <trkpt lat="49.86608" lon="4.76153">
        <ele>214</ele>
        <time>2022-08-19T07:33:33.000Z</time>
      </trkpt>
      <trkpt lat="49.86608" lon="4.7615">
        <ele>215</ele>
        <time>2022-08-19T07:33:34.000Z</time>
      </trkpt>
      <trkpt lat="49.86608" lon="4.76147">
        <ele>215</ele>
        <time>2022-08-19T07:33:35.000Z</time>
      </trkpt>
      <trkpt lat="49.86609" lon="4.76145">
        <ele>216</ele>
        <time>2022-08-19T07:33:36.000Z</time>
      </trkpt>
      <trkpt lat="49.86609" lon="4.76143">
        <ele>217</ele>
        <time>2022-08-19T07:33:37.000Z</time>
      </trkpt>
      <trkpt lat="49.86609" lon="4.76141">
        <ele>217</ele>
        <time>2022-08-19T07:33:38.000Z</time>
      </trkpt>
      <trkpt lat="49.86609" lon="4.76139">
        <ele>218</ele>
        <time>2022-08-19T07:33:39.000Z</time>
      </trkpt>
      <trkpt lat="49.86608" lon="4.76136">
        <ele>218</ele>
        <time>2022-08-19T07:33:40.000Z</time>
      </trkpt>
      <trkpt lat="49.86607" lon="4.76133">
        <ele>218</ele>
        <time>2022-08-19T07:33:41.000Z</time>
      </trkpt>
      <trkpt lat="49.86607" lon="4.7613">
        <ele>219</ele>
        <time>2022-08-19T07:33:42.000Z</time>
      </trkpt>
      <trkpt lat="49.86607" lon="4.76127">
        <ele>219</ele>
        <time>2022-08-19T07:33:43.000Z</time>
      </trkpt>
      <trkpt lat="49.86606" lon="4.76123">
        <ele>219</ele>
        <time>2022-08-19T07:33:44.000Z</time>
      </trkpt>
      <trkpt lat="49.86606" lon="4.7612">
        <ele>220</ele>
        <time>2022-08-19T07:33:45.000Z</time>
      </trkpt>
      <trkpt lat="49.86605" lon="4.76116">
        <ele>220</ele>
        <time>2022-08-19T07:33:46.000Z</time>
      </trkpt>
      <trkpt lat="49.86605" lon="4.76111">
        <ele>220</ele>
        <time>2022-08-19T07:33:47.000Z</time>
      </trkpt>
      <trkpt lat="49.86604" lon="4.76108">
        <ele>221</ele>
        <time>2022-08-19T07:33:48.000Z</time>
      </trkpt>
      <trkpt lat="49.86603" lon="4.76103">
        <ele>221</ele>
        <time>2022-08-19T07:33:49.000Z</time>
      </trkpt>
      <trkpt lat="49.86603" lon="4.76099">
        <ele>221</ele>
        <time>2022-08-19T07:33:50.000Z</time>
      </trkpt>
      <trkpt lat="49.86603" lon="4.76093">
        <ele>221</ele>
        <time>2022-08-19T07:33:51.000Z</time>
      </trkpt>
      <trkpt lat="49.86603" lon="4.76087">
        <ele>221</ele>
        <time>2022-08-19T07:33:52.000Z</time>
      </trkpt>
      <trkpt lat="49.86603" lon="4.76083">
        <ele>221</ele>
        <time>2022-08-19T07:33:53.000Z</time>
      </trkpt>
      <trkpt lat="49.86603" lon="4.76078">
        <ele>221</ele>
        <time>2022-08-19T07:33:54.000Z</time>
      </trkpt>
      <trkpt lat="49.86603" lon="4.76073">
        <ele>221</ele>
        <time>2022-08-19T07:33:55.000Z</time>
      </trkpt>
      <trkpt lat="49.86603" lon="4.76068">
        <ele>222</ele>
        <time>2022-08-19T07:33:56.000Z</time>
      </trkpt>
      <trkpt lat="49.86603" lon="4.76063">
        <ele>222</ele>
        <time>2022-08-19T07:33:57.000Z</time>
      </trkpt>
      <trkpt lat="49.86603" lon="4.76058">
        <ele>222</ele>
        <time>2022-08-19T07:33:58.000Z</time>
      </trkpt>
      <trkpt lat="49.86603" lon="4.76053">
        <ele>222</ele>
        <time>2022-08-19T07:33:59.000Z</time>
      </trkpt>
      <trkpt lat="49.86604" lon="4.76047">
        <ele>222</ele>
        <time>2022-08-19T07:34:00.000Z</time>
      </trkpt>
      <trkpt lat="49.86604" lon="4.76041">
        <ele>222</ele>
        <time>2022-08-19T07:34:01.000Z</time>
      </trkpt>
      <trkpt lat="49.86603" lon="4.76035">
        <ele>223</ele>
        <time>2022-08-19T07:34:02.000Z</time>
      </trkpt>
      <trkpt lat="49.86603" lon="4.76029">
        <ele>223</ele>
        <time>2022-08-19T07:34:03.000Z</time>
      </trkpt>
      <trkpt lat="49.86603" lon="4.76023">
        <ele>223</ele>
        <time>2022-08-19T07:34:04.000Z</time>
      </trkpt>
      <trkpt lat="49.86603" lon="4.76018">
        <ele>223</ele>
        <time>2022-08-19T07:34:05.000Z</time>
      </trkpt>
      <trkpt lat="49.86603" lon="4.76012">
        <ele>223</ele>
        <time>2022-08-19T07:34:06.000Z</time>
      </trkpt>
      <trkpt lat="49.86603" lon="4.76007">
        <ele>224</ele>
        <time>2022-08-19T07:34:07.000Z</time>
      </trkpt>
      <trkpt lat="49.86603" lon="4.76002">
        <ele>224</ele>
        <time>2022-08-19T07:34:08.000Z</time>
      </trkpt>
      <trkpt lat="49.86603" lon="4.75997">
        <ele>224</ele>
        <time>2022-08-19T07:34:09.000Z</time>
      </trkpt>
      <trkpt lat="49.86604" lon="4.75993">
        <ele>224</ele>
        <time>2022-08-19T07:34:10.000Z</time>
      </trkpt>
      <trkpt lat="49.86606" lon="4.75991">
        <ele>224</ele>
        <time>2022-08-19T07:34:11.000Z</time>
      </trkpt>
      <trkpt lat="49.86607" lon="4.75989">
        <ele>224</ele>
        <time>2022-08-19T07:34:12.000Z</time>
      </trkpt>
      <trkpt lat="49.86608" lon="4.75987">
        <ele>224</ele>
        <time>2022-08-19T07:34:13.000Z</time>
      </trkpt>
      <trkpt lat="49.86609" lon="4.75985">
        <ele>224</ele>
        <time>2022-08-19T07:34:14.000Z</time>
      </trkpt>
      <trkpt lat="49.8661" lon="4.75983">
        <ele>225</ele>
        <time>2022-08-19T07:34:15.000Z</time>
      </trkpt>
      <trkpt lat="49.86611" lon="4.75981">
        <ele>225</ele>
        <time>2022-08-19T07:34:16.000Z</time>
      </trkpt>
      <trkpt lat="49.86612" lon="4.7598">
        <ele>225</ele>
        <time>2022-08-19T07:34:17.000Z</time>
      </trkpt>
      <trkpt lat="49.86612" lon="4.75979">
        <ele>225</ele>
        <time>2022-08-19T07:34:18.000Z</time>
      </trkpt>
      <trkpt lat="49.86613" lon="4.75977">
        <ele>226</ele>
        <time>2022-08-19T07:34:19.000Z</time>
      </trkpt>
      <trkpt lat="49.86614" lon="4.75974">
        <ele>226</ele>
        <time>2022-08-19T07:34:20.000Z</time>
      </trkpt>
      <trkpt lat="49.86614" lon="4.75972">
        <ele>226</ele>
        <time>2022-08-19T07:34:21.000Z</time>
      </trkpt>
      <trkpt lat="49.86615" lon="4.75969">
        <ele>227</ele>
        <time>2022-08-19T07:34:22.000Z</time>
      </trkpt>
      <trkpt lat="49.86616" lon="4.75965">
        <ele>227</ele>
        <time>2022-08-19T07:34:23.000Z</time>
      </trkpt>
      <trkpt lat="49.86616" lon="4.75962">
        <ele>227</ele>
        <time>2022-08-19T07:34:24.000Z</time>
      </trkpt>
      <trkpt lat="49.86617" lon="4.75959">
        <ele>227</ele>
        <time>2022-08-19T07:34:25.000Z</time>
      </trkpt>
      <trkpt lat="49.86619" lon="4.75955">
        <ele>228</ele>
        <time>2022-08-19T07:34:26.000Z</time>
      </trkpt>
      <trkpt lat="49.86619" lon="4.75952">
        <ele>228</ele>
        <time>2022-08-19T07:34:27.000Z</time>
      </trkpt>
      <trkpt lat="49.8662" lon="4.75948">
        <ele>228</ele>
        <time>2022-08-19T07:34:28.000Z</time>
      </trkpt>
      <trkpt lat="49.86621" lon="4.75945">
        <ele>229</ele>
        <time>2022-08-19T07:34:29.000Z</time>
      </trkpt>
      <trkpt lat="49.86621" lon="4.75942">
        <ele>229</ele>
        <time>2022-08-19T07:34:30.000Z</time>
      </trkpt>
      <trkpt lat="49.86621" lon="4.75939">
        <ele>229</ele>
        <time>2022-08-19T07:34:31.000Z</time>
      </trkpt>
      <trkpt lat="49.86622" lon="4.75936">
        <ele>230</ele>
        <time>2022-08-19T07:34:32.000Z</time>
      </trkpt>
      <trkpt lat="49.86623" lon="4.75933">
        <ele>230</ele>
        <time>2022-08-19T07:34:33.000Z</time>
      </trkpt>
      <trkpt lat="49.86624" lon="4.75931">
        <ele>230</ele>
        <time>2022-08-19T07:34:34.000Z</time>
      </trkpt>
      <trkpt lat="49.86625" lon="4.75928">
        <ele>230</ele>
        <time>2022-08-19T07:34:35.000Z</time>
      </trkpt>
      <trkpt lat="49.86626" lon="4.75926">
        <ele>231</ele>
        <time>2022-08-19T07:34:36.000Z</time>
      </trkpt>
      <trkpt lat="49.86627" lon="4.75924">
        <ele>231</ele>
        <time>2022-08-19T07:34:37.000Z</time>
      </trkpt>
      <trkpt lat="49.86628" lon="4.75923">
        <ele>231</ele>
        <time>2022-08-19T07:34:38.000Z</time>
      </trkpt>
      <trkpt lat="49.86629" lon="4.75922">
        <ele>231</ele>
        <time>2022-08-19T07:34:39.000Z</time>
      </trkpt>
      <trkpt lat="49.86631" lon="4.75919">
        <ele>232</ele>
        <time>2022-08-19T07:34:40.000Z</time>
      </trkpt>
      <trkpt lat="49.86632" lon="4.75917">
        <ele>232</ele>
        <time>2022-08-19T07:34:41.000Z</time>
      </trkpt>
      <trkpt lat="49.86634" lon="4.75915">
        <ele>232</ele>
        <time>2022-08-19T07:34:42.000Z</time>
      </trkpt>
      <trkpt lat="49.86635" lon="4.75913">
        <ele>232</ele>
        <time>2022-08-19T07:34:43.000Z</time>
      </trkpt>
      <trkpt lat="49.86637" lon="4.75911">
        <ele>233</ele>
        <time>2022-08-19T07:34:44.000Z</time>
      </trkpt>
      <trkpt lat="49.86638" lon="4.75909">
        <ele>233</ele>
        <time>2022-08-19T07:34:45.000Z</time>
      </trkpt>
      <trkpt lat="49.86639" lon="4.75907">
        <ele>233</ele>
        <time>2022-08-19T07:34:46.000Z</time>
      </trkpt>
      <trkpt lat="49.8664" lon="4.75906">
        <ele>234</ele>
        <time>2022-08-19T07:34:47.000Z</time>
      </trkpt>
      <trkpt lat="49.86642" lon="4.75905">
        <ele>234</ele>
        <time>2022-08-19T07:34:48.000Z</time>
      </trkpt>
      <trkpt lat="49.86643" lon="4.75903">
        <ele>234</ele>
        <time>2022-08-19T07:34:49.000Z</time>
      </trkpt>
      <trkpt lat="49.86645" lon="4.75903">
        <ele>234</ele>
        <time>2022-08-19T07:34:50.000Z</time>
      </trkpt>
      <trkpt lat="49.86646" lon="4.75902">
        <ele>235</ele>
        <time>2022-08-19T07:34:51.000Z</time>
      </trkpt>
      <trkpt lat="49.86647" lon="4.75901">
        <ele>235</ele>
        <time>2022-08-19T07:34:52.000Z</time>
      </trkpt>
      <trkpt lat="49.86648" lon="4.759">
        <ele>235</ele>
        <time>2022-08-19T07:34:53.000Z</time>
      </trkpt>
      <trkpt lat="49.8665" lon="4.75899">
        <ele>236</ele>
        <time>2022-08-19T07:34:54.000Z</time>
      </trkpt>
      <trkpt lat="49.86651" lon="4.75898">
        <ele>236</ele>
        <time>2022-08-19T07:34:55.000Z</time>
      </trkpt>
      <trkpt lat="49.86652" lon="4.75898">
        <ele>236</ele>
        <time>2022-08-19T07:34:56.000Z</time>
      </trkpt>
      <trkpt lat="49.86654" lon="4.75897">
        <ele>236</ele>
        <time>2022-08-19T07:34:57.000Z</time>
      </trkpt>
      <trkpt lat="49.86655" lon="4.75896">
        <ele>237</ele>
        <time>2022-08-19T07:34:58.000Z</time>
      </trkpt>
      <trkpt lat="49.86656" lon="4.75894">
        <ele>237</ele>
        <time>2022-08-19T07:34:59.000Z</time>
      </trkpt>
      <trkpt lat="49.86657" lon="4.75893">
        <ele>237</ele>
        <time>2022-08-19T07:35:00.000Z</time>
      </trkpt>
      <trkpt lat="49.86659" lon="4.75892">
        <ele>238</ele>
        <time>2022-08-19T07:35:01.000Z</time>
      </trkpt>
      <trkpt lat="49.8666" lon="4.75891">
        <ele>238</ele>
        <time>2022-08-19T07:35:02.000Z</time>
      </trkpt>
      <trkpt lat="49.86661" lon="4.75889">
        <ele>238</ele>
        <time>2022-08-19T07:35:03.000Z</time>
      </trkpt>
      <trkpt lat="49.86662" lon="4.75888">
        <ele>238</ele>
        <time>2022-08-19T07:35:04.000Z</time>
      </trkpt>
      <trkpt lat="49.86664" lon="4.75886">
        <ele>239</ele>
        <time>2022-08-19T07:35:05.000Z</time>
      </trkpt>
      <trkpt lat="49.86665" lon="4.75886">
        <ele>239</ele>
        <time>2022-08-19T07:35:06.000Z</time>
      </trkpt>
      <trkpt lat="49.86667" lon="4.75884">
        <ele>239</ele>
        <time>2022-08-19T07:35:07.000Z</time>
      </trkpt>
      <trkpt lat="49.86668" lon="4.75883">
        <ele>240</ele>
        <time>2022-08-19T07:35:08.000Z</time>
      </trkpt>
      <trkpt lat="49.86669" lon="4.75882">
        <ele>240</ele>
        <time>2022-08-19T07:35:09.000Z</time>
      </trkpt>
      <trkpt lat="49.86671" lon="4.75881">
        <ele>240</ele>
        <time>2022-08-19T07:35:10.000Z</time>
      </trkpt>
      <trkpt lat="49.86672" lon="4.7588">
        <ele>240</ele>
        <time>2022-08-19T07:35:11.000Z</time>
      </trkpt>
      <trkpt lat="49.86673" lon="4.75879">
        <ele>241</ele>
        <time>2022-08-19T07:35:12.000Z</time>
      </trkpt>
      <trkpt lat="49.86675" lon="4.75877">
        <ele>241</ele>
        <time>2022-08-19T07:35:13.000Z</time>
      </trkpt>
      <trkpt lat="49.86676" lon="4.75877">
        <ele>241</ele>
        <time>2022-08-19T07:35:14.000Z</time>
      </trkpt>
      <trkpt lat="49.86677" lon="4.75876">
        <ele>241</ele>
        <time>2022-08-19T07:35:15.000Z</time>
      </trkpt>
      <trkpt lat="49.86678" lon="4.75874">
        <ele>242</ele>
        <time>2022-08-19T07:35:16.000Z</time>
      </trkpt>
      <trkpt lat="49.86679" lon="4.75872">
        <ele>242</ele>
        <time>2022-08-19T07:35:17.000Z</time>
      </trkpt>
      <trkpt lat="49.8668" lon="4.75871">
        <ele>243</ele>
        <time>2022-08-19T07:35:18.000Z</time>
      </trkpt>
      <trkpt lat="49.86681" lon="4.75869">
        <ele>243</ele>
        <time>2022-08-19T07:35:19.000Z</time>
      </trkpt>
      <trkpt lat="49.86682" lon="4.75868">
        <ele>244</ele>
        <time>2022-08-19T07:35:20.000Z</time>
      </trkpt>
      <trkpt lat="49.86683" lon="4.75868">
        <ele>244</ele>
        <time>2022-08-19T07:35:21.000Z</time>
      </trkpt>
      <trkpt lat="49.86684" lon="4.75867">
        <ele>244</ele>
        <time>2022-08-19T07:35:22.000Z</time>
      </trkpt>
      <trkpt lat="49.86685" lon="4.75865">
        <ele>245</ele>
        <time>2022-08-19T07:35:23.000Z</time>
      </trkpt>
      <trkpt lat="49.86686" lon="4.75864">
        <ele>245</ele>
        <time>2022-08-19T07:35:24.000Z</time>
      </trkpt>
      <trkpt lat="49.86687" lon="4.75862">
        <ele>246</ele>
        <time>2022-08-19T07:35:25.000Z</time>
      </trkpt>
      <trkpt lat="49.86688" lon="4.75862">
        <ele>246</ele>
        <time>2022-08-19T07:35:26.000Z</time>
      </trkpt>
      <trkpt lat="49.86689" lon="4.75861">
        <ele>246</ele>
        <time>2022-08-19T07:35:27.000Z</time>
      </trkpt>
      <trkpt lat="49.8669" lon="4.7586">
        <ele>247</ele>
        <time>2022-08-19T07:35:28.000Z</time>
      </trkpt>
      <trkpt lat="49.86691" lon="4.7586">
        <ele>247</ele>
        <time>2022-08-19T07:35:29.000Z</time>
      </trkpt>
      <trkpt lat="49.86693" lon="4.7586">
        <ele>248</ele>
        <time>2022-08-19T07:35:30.000Z</time>
      </trkpt>
      <trkpt lat="49.86694" lon="4.7586">
        <ele>248</ele>
        <time>2022-08-19T07:35:31.000Z</time>
      </trkpt>
      <trkpt lat="49.86695" lon="4.7586">
        <ele>248</ele>
        <time>2022-08-19T07:35:32.000Z</time>
      </trkpt>
      <trkpt lat="49.86697" lon="4.75859">
        <ele>249</ele>
        <time>2022-08-19T07:35:33.000Z</time>
      </trkpt>
      <trkpt lat="49.86698" lon="4.75858">
        <ele>249</ele>
        <time>2022-08-19T07:35:34.000Z</time>
      </trkpt>
      <trkpt lat="49.867" lon="4.75858">
        <ele>249</ele>
        <time>2022-08-19T07:35:35.000Z</time>
      </trkpt>
      <trkpt lat="49.86701" lon="4.75857">
        <ele>250</ele>
        <time>2022-08-19T07:35:36.000Z</time>
      </trkpt>
      <trkpt lat="49.86703" lon="4.75856">
        <ele>250</ele>
        <time>2022-08-19T07:35:37.000Z</time>
      </trkpt>
      <trkpt lat="49.86704" lon="4.75856">
        <ele>250</ele>
        <time>2022-08-19T07:35:38.000Z</time>
      </trkpt>
      <trkpt lat="49.86706" lon="4.75855">
        <ele>251</ele>
        <time>2022-08-19T07:35:39.000Z</time>
      </trkpt>
      <trkpt lat="49.86707" lon="4.75855">
        <ele>251</ele>
        <time>2022-08-19T07:35:40.000Z</time>
      </trkpt>
      <trkpt lat="49.86709" lon="4.75854">
        <ele>251</ele>
        <time>2022-08-19T07:35:41.000Z</time>
      </trkpt>
      <trkpt lat="49.8671" lon="4.75854">
        <ele>252</ele>
        <time>2022-08-19T07:35:42.000Z</time>
      </trkpt>
      <trkpt lat="49.8671" lon="4.75853">
        <ele>252</ele>
        <time>2022-08-19T07:35:43.000Z</time>
      </trkpt>
      <trkpt lat="49.8671" lon="4.75853">
        <ele>252</ele>
        <time>2022-08-19T07:35:44.000Z</time>
      </trkpt>
      <trkpt lat="49.86711" lon="4.75853">
        <ele>252</ele>
        <time>2022-08-19T07:35:45.000Z</time>
      </trkpt>
      <trkpt lat="49.86712" lon="4.75854">
        <ele>252</ele>
        <time>2022-08-19T07:35:46.000Z</time>
      </trkpt>
      <trkpt lat="49.86712" lon="4.75856">
        <ele>252</ele>
        <time>2022-08-19T07:35:47.000Z</time>
      </trkpt>
      <trkpt lat="49.86713" lon="4.75857">
        <ele>252</ele>
        <time>2022-08-19T07:35:48.000Z</time>
      </trkpt>
      <trkpt lat="49.86714" lon="4.75859">
        <ele>252</ele>
        <time>2022-08-19T07:35:49.000Z</time>
      </trkpt>
      <trkpt lat="49.86715" lon="4.75861">
        <ele>252</ele>
        <time>2022-08-19T07:35:50.000Z</time>
      </trkpt>
      <trkpt lat="49.86716" lon="4.75864">
        <ele>252</ele>
        <time>2022-08-19T07:35:51.000Z</time>
      </trkpt>
      <trkpt lat="49.86717" lon="4.75867">
        <ele>252</ele>
        <time>2022-08-19T07:35:52.000Z</time>
      </trkpt>
      <trkpt lat="49.86718" lon="4.75869">
        <ele>252</ele>
        <time>2022-08-19T07:35:53.000Z</time>
      </trkpt>
      <trkpt lat="49.86719" lon="4.75872">
        <ele>252</ele>
        <time>2022-08-19T07:35:54.000Z</time>
      </trkpt>
      <trkpt lat="49.8672" lon="4.75875">
        <ele>252</ele>
        <time>2022-08-19T07:35:55.000Z</time>
      </trkpt>
      <trkpt lat="49.86721" lon="4.75878">
        <ele>252</ele>
        <time>2022-08-19T07:35:56.000Z</time>
      </trkpt>
      <trkpt lat="49.86722" lon="4.75881">
        <ele>252</ele>
        <time>2022-08-19T07:35:57.000Z</time>
      </trkpt>
      <trkpt lat="49.86723" lon="4.75885">
        <ele>252</ele>
        <time>2022-08-19T07:35:58.000Z</time>
      </trkpt>
      <trkpt lat="49.86724" lon="4.75889">
        <ele>252</ele>
        <time>2022-08-19T07:35:59.000Z</time>
      </trkpt>
      <trkpt lat="49.86725" lon="4.75893">
        <ele>252</ele>
        <time>2022-08-19T07:36:00.000Z</time>
      </trkpt>
      <trkpt lat="49.86726" lon="4.75896">
        <ele>252</ele>
        <time>2022-08-19T07:36:01.000Z</time>
      </trkpt>
      <trkpt lat="49.86728" lon="4.759">
        <ele>252</ele>
        <time>2022-08-19T07:36:02.000Z</time>
      </trkpt>
      <trkpt lat="49.86729" lon="4.75903">
        <ele>252</ele>
        <time>2022-08-19T07:36:03.000Z</time>
      </trkpt>
      <trkpt lat="49.8673" lon="4.75906">
        <ele>252</ele>
        <time>2022-08-19T07:36:04.000Z</time>
      </trkpt>
      <trkpt lat="49.86731" lon="4.7591">
        <ele>252</ele>
        <time>2022-08-19T07:36:05.000Z</time>
      </trkpt>
      <trkpt lat="49.86732" lon="4.75914">
        <ele>252</ele>
        <time>2022-08-19T07:36:06.000Z</time>
      </trkpt>
      <trkpt lat="49.86733" lon="4.75918">
        <ele>252</ele>
        <time>2022-08-19T07:36:07.000Z</time>
      </trkpt>
      <trkpt lat="49.86734" lon="4.75921">
        <ele>252</ele>
        <time>2022-08-19T07:36:08.000Z</time>
      </trkpt>
      <trkpt lat="49.86734" lon="4.75924">
        <ele>252</ele>
        <time>2022-08-19T07:36:09.000Z</time>
      </trkpt>
      <trkpt lat="49.86735" lon="4.75927">
        <ele>252</ele>
        <time>2022-08-19T07:36:10.000Z</time>
      </trkpt>
      <trkpt lat="49.86736" lon="4.7593">
        <ele>252</ele>
        <time>2022-08-19T07:36:11.000Z</time>
      </trkpt>
      <trkpt lat="49.86736" lon="4.75934">
        <ele>252</ele>
        <time>2022-08-19T07:36:12.000Z</time>
      </trkpt>
      <trkpt lat="49.86737" lon="4.75938">
        <ele>252</ele>
        <time>2022-08-19T07:36:13.000Z</time>
      </trkpt>
      <trkpt lat="49.86738" lon="4.75941">
        <ele>252</ele>
        <time>2022-08-19T07:36:14.000Z</time>
      </trkpt>
      <trkpt lat="49.86739" lon="4.75945">
        <ele>253</ele>
        <time>2022-08-19T07:36:15.000Z</time>
      </trkpt>
      <trkpt lat="49.8674" lon="4.75949">
        <ele>253</ele>
        <time>2022-08-19T07:36:16.000Z</time>
      </trkpt>
      <trkpt lat="49.86741" lon="4.75952">
        <ele>253</ele>
        <time>2022-08-19T07:36:17.000Z</time>
      </trkpt>
      <trkpt lat="49.86741" lon="4.75956">
        <ele>253</ele>
        <time>2022-08-19T07:36:18.000Z</time>
      </trkpt>
      <trkpt lat="49.86742" lon="4.7596">
        <ele>253</ele>
        <time>2022-08-19T07:36:19.000Z</time>
      </trkpt>
      <trkpt lat="49.86744" lon="4.75963">
        <ele>253</ele>
        <time>2022-08-19T07:36:20.000Z</time>
      </trkpt>
      <trkpt lat="49.86745" lon="4.75967">
        <ele>253</ele>
        <time>2022-08-19T07:36:21.000Z</time>
      </trkpt>
      <trkpt lat="49.86746" lon="4.7597">
        <ele>253</ele>
        <time>2022-08-19T07:36:22.000Z</time>
      </trkpt>
      <trkpt lat="49.86746" lon="4.75974">
        <ele>253</ele>
        <time>2022-08-19T07:36:23.000Z</time>
      </trkpt>
      <trkpt lat="49.86747" lon="4.75979">
        <ele>253</ele>
        <time>2022-08-19T07:36:24.000Z</time>
      </trkpt>
      <trkpt lat="49.86748" lon="4.75983">
        <ele>253</ele>
        <time>2022-08-19T07:36:25.000Z</time>
      </trkpt>
      <trkpt lat="49.86748" lon="4.75987">
        <ele>253</ele>
        <time>2022-08-19T07:36:26.000Z</time>
      </trkpt>
      <trkpt lat="49.8675" lon="4.75991">
        <ele>253</ele>
        <time>2022-08-19T07:36:27.000Z</time>
      </trkpt>
      <trkpt lat="49.86751" lon="4.75995">
        <ele>253</ele>
        <time>2022-08-19T07:36:28.000Z</time>
      </trkpt>
      <trkpt lat="49.86752" lon="4.75998">
        <ele>253</ele>
        <time>2022-08-19T07:36:29.000Z</time>
      </trkpt>
      <trkpt lat="49.86754" lon="4.76002">
        <ele>253</ele>
        <time>2022-08-19T07:36:30.000Z</time>
      </trkpt>
      <trkpt lat="49.86755" lon="4.76006">
        <ele>253</ele>
        <time>2022-08-19T07:36:31.000Z</time>
      </trkpt>
      <trkpt lat="49.86757" lon="4.7601">
        <ele>253</ele>
        <time>2022-08-19T07:36:32.000Z</time>
      </trkpt>
      <trkpt lat="49.86758" lon="4.76014">
        <ele>253</ele>
        <time>2022-08-19T07:36:33.000Z</time>
      </trkpt>
      <trkpt lat="49.86759" lon="4.76018">
        <ele>253</ele>
        <time>2022-08-19T07:36:34.000Z</time>
      </trkpt>
      <trkpt lat="49.8676" lon="4.76022">
        <ele>253</ele>
        <time>2022-08-19T07:36:35.000Z</time>
      </trkpt>
      <trkpt lat="49.86761" lon="4.76026">
        <ele>253</ele>
        <time>2022-08-19T07:36:36.000Z</time>
      </trkpt>
      <trkpt lat="49.86762" lon="4.76031">
        <ele>253</ele>
        <time>2022-08-19T07:36:37.000Z</time>
      </trkpt>
      <trkpt lat="49.86763" lon="4.76036">
        <ele>253</ele>
        <time>2022-08-19T07:36:38.000Z</time>
      </trkpt>
      <trkpt lat="49.86764" lon="4.7604">
        <ele>253</ele>
        <time>2022-08-19T07:36:39.000Z</time>
      </trkpt>
      <trkpt lat="49.86765" lon="4.76045">
        <ele>253</ele>
        <time>2022-08-19T07:36:40.000Z</time>
      </trkpt>
      <trkpt lat="49.86766" lon="4.76048">
        <ele>254</ele>
        <time>2022-08-19T07:36:41.000Z</time>
      </trkpt>
      <trkpt lat="49.86767" lon="4.76052">
        <ele>254</ele>
        <time>2022-08-19T07:36:42.000Z</time>
      </trkpt>
      <trkpt lat="49.86768" lon="4.76055">
        <ele>254</ele>
        <time>2022-08-19T07:36:43.000Z</time>
      </trkpt>
      <trkpt lat="49.8677" lon="4.76059">
        <ele>254</ele>
        <time>2022-08-19T07:36:44.000Z</time>
      </trkpt>
      <trkpt lat="49.86772" lon="4.76063">
        <ele>254</ele>
        <time>2022-08-19T07:36:45.000Z</time>
      </trkpt>
      <trkpt lat="49.86773" lon="4.76067">
        <ele>254</ele>
        <time>2022-08-19T07:36:46.000Z</time>
      </trkpt>
      <trkpt lat="49.86774" lon="4.76072">
        <ele>254</ele>
        <time>2022-08-19T07:36:47.000Z</time>
      </trkpt>
      <trkpt lat="49.86775" lon="4.76076">
        <ele>254</ele>
        <time>2022-08-19T07:36:48.000Z</time>
      </trkpt>
      <trkpt lat="49.86776" lon="4.7608">
        <ele>254</ele>
        <time>2022-08-19T07:36:49.000Z</time>
      </trkpt>
      <trkpt lat="49.86777" lon="4.76085">
        <ele>254</ele>
        <time>2022-08-19T07:36:50.000Z</time>
      </trkpt>
      <trkpt lat="49.86778" lon="4.76089">
        <ele>255</ele>
        <time>2022-08-19T07:36:51.000Z</time>
      </trkpt>
      <trkpt lat="49.86778" lon="4.76094">
        <ele>255</ele>
        <time>2022-08-19T07:36:52.000Z</time>
      </trkpt>
      <trkpt lat="49.86779" lon="4.76099">
        <ele>255</ele>
        <time>2022-08-19T07:36:53.000Z</time>
      </trkpt>
      <trkpt lat="49.8678" lon="4.76103">
        <ele>255</ele>
        <time>2022-08-19T07:36:54.000Z</time>
      </trkpt>
      <trkpt lat="49.8678" lon="4.76108">
        <ele>255</ele>
        <time>2022-08-19T07:36:55.000Z</time>
      </trkpt>
      <trkpt lat="49.86781" lon="4.76112">
        <ele>255</ele>
        <time>2022-08-19T07:36:56.000Z</time>
      </trkpt>
      <trkpt lat="49.86782" lon="4.76116">
        <ele>255</ele>
        <time>2022-08-19T07:36:57.000Z</time>
      </trkpt>
      <trkpt lat="49.86783" lon="4.7612">
        <ele>256</ele>
        <time>2022-08-19T07:36:58.000Z</time>
      </trkpt>
      <trkpt lat="49.86783" lon="4.76124">
        <ele>256</ele>
        <time>2022-08-19T07:36:59.000Z</time>
      </trkpt>
      <trkpt lat="49.86784" lon="4.76127">
        <ele>256</ele>
        <time>2022-08-19T07:37:00.000Z</time>
      </trkpt>
      <trkpt lat="49.86785" lon="4.76131">
        <ele>256</ele>
        <time>2022-08-19T07:37:01.000Z</time>
      </trkpt>
      <trkpt lat="49.86787" lon="4.76134">
        <ele>256</ele>
        <time>2022-08-19T07:37:02.000Z</time>
      </trkpt>
      <trkpt lat="49.86788" lon="4.76137">
        <ele>255</ele>
        <time>2022-08-19T07:37:03.000Z</time>
      </trkpt>
      <trkpt lat="49.86789" lon="4.76141">
        <ele>255</ele>
        <time>2022-08-19T07:37:04.000Z</time>
      </trkpt>
      <trkpt lat="49.8679" lon="4.76145">
        <ele>255</ele>
        <time>2022-08-19T07:37:05.000Z</time>
      </trkpt>
      <trkpt lat="49.86791" lon="4.76149">
        <ele>255</ele>
        <time>2022-08-19T07:37:06.000Z</time>
      </trkpt>
      <trkpt lat="49.86792" lon="4.76153">
        <ele>255</ele>
        <time>2022-08-19T07:37:07.000Z</time>
      </trkpt>
      <trkpt lat="49.86792" lon="4.76155">
        <ele>255</ele>
        <time>2022-08-19T07:37:08.000Z</time>
      </trkpt>
      <trkpt lat="49.86793" lon="4.76158">
        <ele>255</ele>
        <time>2022-08-19T07:37:09.000Z</time>
      </trkpt>
      <trkpt lat="49.86794" lon="4.76162">
        <ele>255</ele>
        <time>2022-08-19T07:37:10.000Z</time>
      </trkpt>
      <trkpt lat="49.86795" lon="4.76165">
        <ele>255</ele>
        <time>2022-08-19T07:37:11.000Z</time>
      </trkpt>
      <trkpt lat="49.86797" lon="4.76169">
        <ele>255</ele>
        <time>2022-08-19T07:37:12.000Z</time>
      </trkpt>
      <trkpt lat="49.86797" lon="4.76172">
        <ele>255</ele>
        <time>2022-08-19T07:37:13.000Z</time>
      </trkpt>
      <trkpt lat="49.86798" lon="4.76176">
        <ele>255</ele>
        <time>2022-08-19T07:37:14.000Z</time>
      </trkpt>
      <trkpt lat="49.86799" lon="4.7618">
        <ele>255</ele>
        <time>2022-08-19T07:37:15.000Z</time>
      </trkpt>
      <trkpt lat="49.86799" lon="4.76183">
        <ele>255</ele>
        <time>2022-08-19T07:37:16.000Z</time>
      </trkpt>
      <trkpt lat="49.868" lon="4.76187">
        <ele>255</ele>
        <time>2022-08-19T07:37:17.000Z</time>
      </trkpt>
      <trkpt lat="49.86801" lon="4.7619">
        <ele>255</ele>
        <time>2022-08-19T07:37:18.000Z</time>
      </trkpt>
      <trkpt lat="49.86801" lon="4.76194">
        <ele>255</ele>
        <time>2022-08-19T07:37:19.000Z</time>
      </trkpt>
      <trkpt lat="49.86802" lon="4.76199">
        <ele>256</ele>
        <time>2022-08-19T07:37:20.000Z</time>
      </trkpt>
      <trkpt lat="49.86802" lon="4.76202">
        <ele>256</ele>
        <time>2022-08-19T07:37:21.000Z</time>
      </trkpt>
      <trkpt lat="49.86803" lon="4.76206">
        <ele>256</ele>
        <time>2022-08-19T07:37:22.000Z</time>
      </trkpt>
      <trkpt lat="49.86805" lon="4.76211">
        <ele>256</ele>
        <time>2022-08-19T07:37:23.000Z</time>
      </trkpt>
      <trkpt lat="49.86806" lon="4.76215">
        <ele>256</ele>
        <time>2022-08-19T07:37:24.000Z</time>
      </trkpt>
      <trkpt lat="49.86807" lon="4.76219">
        <ele>257</ele>
        <time>2022-08-19T07:37:25.000Z</time>
      </trkpt>
      <trkpt lat="49.86807" lon="4.76222">
        <ele>257</ele>
        <time>2022-08-19T07:37:26.000Z</time>
      </trkpt>
      <trkpt lat="49.86808" lon="4.76226">
        <ele>257</ele>
        <time>2022-08-19T07:37:27.000Z</time>
      </trkpt>
      <trkpt lat="49.8681" lon="4.7623">
        <ele>257</ele>
        <time>2022-08-19T07:37:28.000Z</time>
      </trkpt>
      <trkpt lat="49.86811" lon="4.76234">
        <ele>257</ele>
        <time>2022-08-19T07:37:29.000Z</time>
      </trkpt>
      <trkpt lat="49.86812" lon="4.76238">
        <ele>257</ele>
        <time>2022-08-19T07:37:30.000Z</time>
      </trkpt>
      <trkpt lat="49.86812" lon="4.76241">
        <ele>258</ele>
        <time>2022-08-19T07:37:31.000Z</time>
      </trkpt>
      <trkpt lat="49.86813" lon="4.76245">
        <ele>258</ele>
        <time>2022-08-19T07:37:32.000Z</time>
      </trkpt>
      <trkpt lat="49.86814" lon="4.7625">
        <ele>258</ele>
        <time>2022-08-19T07:37:33.000Z</time>
      </trkpt>
      <trkpt lat="49.86815" lon="4.76255">
        <ele>258</ele>
        <time>2022-08-19T07:37:34.000Z</time>
      </trkpt>
      <trkpt lat="49.86815" lon="4.7626">
        <ele>258</ele>
        <time>2022-08-19T07:37:35.000Z</time>
      </trkpt>
      <trkpt lat="49.86816" lon="4.76266">
        <ele>259</ele>
        <time>2022-08-19T07:37:36.000Z</time>
      </trkpt>
      <trkpt lat="49.86818" lon="4.76272">
        <ele>259</ele>
        <time>2022-08-19T07:37:37.000Z</time>
      </trkpt>
      <trkpt lat="49.86821" lon="4.76279">
        <ele>259</ele>
        <time>2022-08-19T07:37:38.000Z</time>
      </trkpt>
      <trkpt lat="49.86823" lon="4.76285">
        <ele>259</ele>
        <time>2022-08-19T07:37:39.000Z</time>
      </trkpt>
      <trkpt lat="49.86824" lon="4.7629">
        <ele>259</ele>
        <time>2022-08-19T07:37:40.000Z</time>
      </trkpt>
      <trkpt lat="49.86826" lon="4.76295">
        <ele>259</ele>
        <time>2022-08-19T07:37:41.000Z</time>
      </trkpt>
      <trkpt lat="49.86827" lon="4.76299">
        <ele>260</ele>
        <time>2022-08-19T07:37:42.000Z</time>
      </trkpt>
      <trkpt lat="49.86829" lon="4.76303">
        <ele>260</ele>
        <time>2022-08-19T07:37:43.000Z</time>
      </trkpt>
      <trkpt lat="49.8683" lon="4.76308">
        <ele>260</ele>
        <time>2022-08-19T07:37:44.000Z</time>
      </trkpt>
      <trkpt lat="49.86832" lon="4.76312">
        <ele>260</ele>
        <time>2022-08-19T07:37:45.000Z</time>
      </trkpt>
      <trkpt lat="49.86833" lon="4.76316">
        <ele>260</ele>
        <time>2022-08-19T07:37:46.000Z</time>
      </trkpt>
      <trkpt lat="49.86834" lon="4.7632">
        <ele>260</ele>
        <time>2022-08-19T07:37:47.000Z</time>
      </trkpt>
      <trkpt lat="49.86836" lon="4.76324">
        <ele>260</ele>
        <time>2022-08-19T07:37:48.000Z</time>
      </trkpt>
      <trkpt lat="49.86837" lon="4.76328">
        <ele>260</ele>
        <time>2022-08-19T07:37:49.000Z</time>
      </trkpt>
      <trkpt lat="49.86838" lon="4.76331">
        <ele>261</ele>
        <time>2022-08-19T07:37:50.000Z</time>
      </trkpt>
      <trkpt lat="49.86839" lon="4.76335">
        <ele>261</ele>
        <time>2022-08-19T07:37:51.000Z</time>
      </trkpt>
      <trkpt lat="49.86839" lon="4.76339">
        <ele>261</ele>
        <time>2022-08-19T07:37:52.000Z</time>
      </trkpt>
      <trkpt lat="49.86839" lon="4.76343">
        <ele>261</ele>
        <time>2022-08-19T07:37:53.000Z</time>
      </trkpt>
      <trkpt lat="49.86839" lon="4.76346">
        <ele>261</ele>
        <time>2022-08-19T07:37:54.000Z</time>
      </trkpt>
      <trkpt lat="49.86839" lon="4.7635">
        <ele>262</ele>
        <time>2022-08-19T07:37:55.000Z</time>
      </trkpt>
      <trkpt lat="49.8684" lon="4.76354">
        <ele>262</ele>
        <time>2022-08-19T07:37:56.000Z</time>
      </trkpt>
      <trkpt lat="49.86841" lon="4.76358">
        <ele>262</ele>
        <time>2022-08-19T07:37:57.000Z</time>
      </trkpt>
      <trkpt lat="49.86841" lon="4.76363">
        <ele>262</ele>
        <time>2022-08-19T07:37:58.000Z</time>
      </trkpt>
      <trkpt lat="49.86843" lon="4.76368">
        <ele>262</ele>
        <time>2022-08-19T07:37:59.000Z</time>
      </trkpt>
      <trkpt lat="49.86844" lon="4.76373">
        <ele>263</ele>
        <time>2022-08-19T07:38:00.000Z</time>
      </trkpt>
      <trkpt lat="49.86845" lon="4.76378">
        <ele>263</ele>
        <time>2022-08-19T07:38:01.000Z</time>
      </trkpt>
      <trkpt lat="49.86846" lon="4.76382">
        <ele>263</ele>
        <time>2022-08-19T07:38:02.000Z</time>
      </trkpt>
      <trkpt lat="49.86847" lon="4.76386">
        <ele>263</ele>
        <time>2022-08-19T07:38:03.000Z</time>
      </trkpt>
      <trkpt lat="49.86848" lon="4.76388">
        <ele>263</ele>
        <time>2022-08-19T07:38:04.000Z</time>
      </trkpt>
      <trkpt lat="49.86848" lon="4.76389">
        <ele>263</ele>
        <time>2022-08-19T07:38:05.000Z</time>
      </trkpt>
      <trkpt lat="49.86849" lon="4.7639">
        <ele>263</ele>
        <time>2022-08-19T07:38:06.000Z</time>
      </trkpt>
      <trkpt lat="49.86849" lon="4.7639">
        <ele>263</ele>
        <time>2022-08-19T07:38:07.000Z</time>
      </trkpt>
      <trkpt lat="49.86849" lon="4.76391">
        <ele>263</ele>
        <time>2022-08-19T07:38:08.000Z</time>
      </trkpt>
      <trkpt lat="49.86849" lon="4.76391">
        <ele>264</ele>
        <time>2022-08-19T07:38:09.000Z</time>
      </trkpt>
      <trkpt lat="49.8685" lon="4.76392">
        <ele>264</ele>
        <time>2022-08-19T07:38:10.000Z</time>
      </trkpt>
      <trkpt lat="49.86849" lon="4.76391">
        <ele>264</ele>
        <time>2022-08-19T07:38:11.000Z</time>
      </trkpt>
      <trkpt lat="49.86849" lon="4.7639">
        <ele>264</ele>
        <time>2022-08-19T07:38:12.000Z</time>
      </trkpt>
      <trkpt lat="49.86848" lon="4.76388">
        <ele>264</ele>
        <time>2022-08-19T07:38:13.000Z</time>
      </trkpt>
      <trkpt lat="49.86847" lon="4.76385">
        <ele>264</ele>
        <time>2022-08-19T07:38:14.000Z</time>
      </trkpt>
      <trkpt lat="49.86847" lon="4.76381">
        <ele>264</ele>
        <time>2022-08-19T07:38:15.000Z</time>
      </trkpt>
      <trkpt lat="49.86845" lon="4.76378">
        <ele>264</ele>
        <time>2022-08-19T07:38:16.000Z</time>
      </trkpt>
      <trkpt lat="49.86845" lon="4.76373">
        <ele>264</ele>
        <time>2022-08-19T07:38:17.000Z</time>
      </trkpt>
      <trkpt lat="49.86844" lon="4.76369">
        <ele>264</ele>
        <time>2022-08-19T07:38:18.000Z</time>
      </trkpt>
      <trkpt lat="49.86843" lon="4.76364">
        <ele>263</ele>
        <time>2022-08-19T07:38:19.000Z</time>
      </trkpt>
      <trkpt lat="49.86842" lon="4.7636">
        <ele>263</ele>
        <time>2022-08-19T07:38:20.000Z</time>
      </trkpt>
      <trkpt lat="49.8684" lon="4.76355">
        <ele>263</ele>
        <time>2022-08-19T07:38:21.000Z</time>
      </trkpt>
      <trkpt lat="49.86839" lon="4.7635">
        <ele>263</ele>
        <time>2022-08-19T07:38:22.000Z</time>
      </trkpt>
      <trkpt lat="49.86838" lon="4.76344">
        <ele>263</ele>
        <time>2022-08-19T07:38:23.000Z</time>
      </trkpt>
      <trkpt lat="49.86837" lon="4.76338">
        <ele>263</ele>
        <time>2022-08-19T07:38:24.000Z</time>
      </trkpt>
      <trkpt lat="49.86835" lon="4.76332">
        <ele>263</ele>
        <time>2022-08-19T07:38:25.000Z</time>
      </trkpt>
      <trkpt lat="49.86833" lon="4.76327">
        <ele>263</ele>
        <time>2022-08-19T07:38:26.000Z</time>
      </trkpt>
      <trkpt lat="49.86832" lon="4.76322">
        <ele>262</ele>
        <time>2022-08-19T07:38:27.000Z</time>
      </trkpt>
      <trkpt lat="49.86831" lon="4.76318">
        <ele>262</ele>
        <time>2022-08-19T07:38:28.000Z</time>
      </trkpt>
      <trkpt lat="49.86831" lon="4.76318">
        <ele>262</ele>
        <time>2022-08-19T07:38:29.000Z</time>
      </trkpt>
      <trkpt lat="49.86831" lon="4.76318">
        <ele>262</ele>
        <time>2022-08-19T07:38:30.000Z</time>
      </trkpt>
      <trkpt lat="49.86831" lon="4.76318">
        <ele>262</ele>
        <time>2022-08-19T07:38:31.000Z</time>
      </trkpt>
      <trkpt lat="49.86831" lon="4.76318">
        <ele>262</ele>
        <time>2022-08-19T07:38:32.000Z</time>
      </trkpt>
      <trkpt lat="49.8683" lon="4.76317">
        <ele>262</ele>
        <time>2022-08-19T07:38:33.000Z</time>
      </trkpt>
      <trkpt lat="49.8683" lon="4.76317">
        <ele>262</ele>
        <time>2022-08-19T07:38:34.000Z</time>
      </trkpt>
      <trkpt lat="49.8683" lon="4.76316">
        <ele>262</ele>
        <time>2022-08-19T07:38:35.000Z</time>
      </trkpt>
      <trkpt lat="49.86829" lon="4.76316">
        <ele>262</ele>
        <time>2022-08-19T07:38:36.000Z</time>
      </trkpt>
      <trkpt lat="49.86829" lon="4.76315">
        <ele>262</ele>
        <time>2022-08-19T07:38:37.000Z</time>
      </trkpt>
      <trkpt lat="49.86829" lon="4.76315">
        <ele>262</ele>
        <time>2022-08-19T07:38:38.000Z</time>
      </trkpt>
      <trkpt lat="49.86829" lon="4.76315">
        <ele>262</ele>
        <time>2022-08-19T07:38:39.000Z</time>
      </trkpt>
      <trkpt lat="49.86828" lon="4.76314">
        <ele>262</ele>
        <time>2022-08-19T07:38:40.000Z</time>
      </trkpt>
      <trkpt lat="49.86828" lon="4.76314">
        <ele>262</ele>
        <time>2022-08-19T07:38:41.000Z</time>
      </trkpt>
      <trkpt lat="49.86828" lon="4.76313">
        <ele>261</ele>
        <time>2022-08-19T07:38:42.000Z</time>
      </trkpt>
      <trkpt lat="49.86828" lon="4.76313">
        <ele>261</ele>
        <time>2022-08-19T07:38:43.000Z</time>
      </trkpt>
      <trkpt lat="49.86828" lon="4.76313">
        <ele>261</ele>
        <time>2022-08-19T07:38:44.000Z</time>
      </trkpt>
      <trkpt lat="49.86827" lon="4.76312">
        <ele>261</ele>
        <time>2022-08-19T07:38:45.000Z</time>
      </trkpt>
      <trkpt lat="49.86827" lon="4.76312">
        <ele>261</ele>
        <time>2022-08-19T07:38:46.000Z</time>
      </trkpt>
      <trkpt lat="49.86827" lon="4.76312">
        <ele>261</ele>
        <time>2022-08-19T07:38:47.000Z</time>
      </trkpt>
      <trkpt lat="49.86827" lon="4.76312">
        <ele>261</ele>
        <time>2022-08-19T07:38:48.000Z</time>
      </trkpt>
      <trkpt lat="49.86827" lon="4.76311">
        <ele>261</ele>
        <time>2022-08-19T07:38:49.000Z</time>
      </trkpt>
      <trkpt lat="49.86827" lon="4.76311">
        <ele>261</ele>
        <time>2022-08-19T07:38:50.000Z</time>
      </trkpt>
      <trkpt lat="49.86827" lon="4.76311">
        <ele>261</ele>
        <time>2022-08-19T07:38:51.000Z</time>
      </trkpt>
      <trkpt lat="49.86827" lon="4.76311">
        <ele>261</ele>
        <time>2022-08-19T07:38:52.000Z</time>
      </trkpt>
      <trkpt lat="49.86827" lon="4.76311">
        <ele>261</ele>
        <time>2022-08-19T07:38:53.000Z</time>
      </trkpt>
      <trkpt lat="49.86827" lon="4.7631">
        <ele>261</ele>
        <time>2022-08-19T07:38:54.000Z</time>
      </trkpt>
      <trkpt lat="49.86826" lon="4.7631">
        <ele>261</ele>
        <time>2022-08-19T07:38:55.000Z</time>
      </trkpt>
      <trkpt lat="49.86826" lon="4.7631">
        <ele>261</ele>
        <time>2022-08-19T07:38:56.000Z</time>
      </trkpt>
      <trkpt lat="49.86826" lon="4.7631">
        <ele>261</ele>
        <time>2022-08-19T07:38:57.000Z</time>
      </trkpt>
      <trkpt lat="49.86826" lon="4.7631">
        <ele>261</ele>
        <time>2022-08-19T07:38:58.000Z</time>
      </trkpt>
      <trkpt lat="49.86826" lon="4.7631">
        <ele>261</ele>
        <time>2022-08-19T07:38:59.000Z</time>
      </trkpt>
      <trkpt lat="49.86826" lon="4.7631">
        <ele>261</ele>
        <time>2022-08-19T07:39:00.000Z</time>
      </trkpt>
      <trkpt lat="49.86826" lon="4.7631">
        <ele>261</ele>
        <time>2022-08-19T07:39:01.000Z</time>
      </trkpt>
      <trkpt lat="49.86826" lon="4.7631">
        <ele>261</ele>
        <time>2022-08-19T07:39:02.000Z</time>
      </trkpt>
      <trkpt lat="49.86826" lon="4.7631">
        <ele>261</ele>
        <time>2022-08-19T07:39:03.000Z</time>
      </trkpt>
      <trkpt lat="49.86826" lon="4.7631">
        <ele>260</ele>
        <time>2022-08-19T07:39:04.000Z</time>
      </trkpt>
      <trkpt lat="49.86826" lon="4.7631">
        <ele>260</ele>
        <time>2022-08-19T07:39:05.000Z</time>
      </trkpt>
      <trkpt lat="49.86826" lon="4.7631">
        <ele>260</ele>
        <time>2022-08-19T07:39:06.000Z</time>
      </trkpt>
      <trkpt lat="49.86826" lon="4.76311">
        <ele>260</ele>
        <time>2022-08-19T07:39:07.000Z</time>
      </trkpt>
      <trkpt lat="49.86826" lon="4.76311">
        <ele>260</ele>
        <time>2022-08-19T07:39:08.000Z</time>
      </trkpt>
      <trkpt lat="49.86826" lon="4.76311">
        <ele>260</ele>
        <time>2022-08-19T07:39:09.000Z</time>
      </trkpt>
      <trkpt lat="49.86825" lon="4.76311">
        <ele>260</ele>
        <time>2022-08-19T07:39:10.000Z</time>
      </trkpt>
      <trkpt lat="49.86824" lon="4.7631">
        <ele>260</ele>
        <time>2022-08-19T07:39:11.000Z</time>
      </trkpt>
      <trkpt lat="49.86824" lon="4.7631">
        <ele>260</ele>
        <time>2022-08-19T07:39:12.000Z</time>
      </trkpt>
      <trkpt lat="49.86823" lon="4.76307">
        <ele>260</ele>
        <time>2022-08-19T07:39:13.000Z</time>
      </trkpt>
      <trkpt lat="49.86822" lon="4.76303">
        <ele>260</ele>
        <time>2022-08-19T07:39:14.000Z</time>
      </trkpt>
      <trkpt lat="49.86821" lon="4.76299">
        <ele>259</ele>
        <time>2022-08-19T07:39:15.000Z</time>
      </trkpt>
      <trkpt lat="49.8682" lon="4.76294">
        <ele>259</ele>
        <time>2022-08-19T07:39:16.000Z</time>
      </trkpt>
      <trkpt lat="49.86819" lon="4.76289">
        <ele>259</ele>
        <time>2022-08-19T07:39:17.000Z</time>
      </trkpt>
      <trkpt lat="49.86818" lon="4.76285">
        <ele>259</ele>
        <time>2022-08-19T07:39:18.000Z</time>
      </trkpt>
      <trkpt lat="49.86817" lon="4.7628">
        <ele>259</ele>
        <time>2022-08-19T07:39:19.000Z</time>
      </trkpt>
      <trkpt lat="49.86816" lon="4.76274">
        <ele>259</ele>
        <time>2022-08-19T07:39:20.000Z</time>
      </trkpt>
      <trkpt lat="49.86815" lon="4.7627">
        <ele>259</ele>
        <time>2022-08-19T07:39:21.000Z</time>
      </trkpt>
      <trkpt lat="49.86814" lon="4.76265">
        <ele>259</ele>
        <time>2022-08-19T07:39:22.000Z</time>
      </trkpt>
      <trkpt lat="49.86813" lon="4.76259">
        <ele>259</ele>
        <time>2022-08-19T07:39:23.000Z</time>
      </trkpt>
      <trkpt lat="49.86812" lon="4.76254">
        <ele>259</ele>
        <time>2022-08-19T07:39:24.000Z</time>
      </trkpt>
      <trkpt lat="49.8681" lon="4.76248">
        <ele>258</ele>
        <time>2022-08-19T07:39:25.000Z</time>
      </trkpt>
      <trkpt lat="49.86809" lon="4.76243">
        <ele>258</ele>
        <time>2022-08-19T07:39:26.000Z</time>
      </trkpt>
      <trkpt lat="49.86808" lon="4.76237">
        <ele>258</ele>
        <time>2022-08-19T07:39:27.000Z</time>
      </trkpt>
      <trkpt lat="49.86806" lon="4.76231">
        <ele>258</ele>
        <time>2022-08-19T07:39:28.000Z</time>
      </trkpt>
      <trkpt lat="49.86805" lon="4.76225">
        <ele>258</ele>
        <time>2022-08-19T07:39:29.000Z</time>
      </trkpt>
      <trkpt lat="49.86803" lon="4.76219">
        <ele>258</ele>
        <time>2022-08-19T07:39:30.000Z</time>
      </trkpt>
      <trkpt lat="49.86802" lon="4.76212">
        <ele>258</ele>
        <time>2022-08-19T07:39:31.000Z</time>
      </trkpt>
      <trkpt lat="49.86801" lon="4.76205">
        <ele>258</ele>
        <time>2022-08-19T07:39:32.000Z</time>
      </trkpt>
      <trkpt lat="49.868" lon="4.76199">
        <ele>258</ele>
        <time>2022-08-19T07:39:33.000Z</time>
      </trkpt>
      <trkpt lat="49.86798" lon="4.76192">
        <ele>258</ele>
        <time>2022-08-19T07:39:34.000Z</time>
      </trkpt>
      <trkpt lat="49.86797" lon="4.76186">
        <ele>258</ele>
        <time>2022-08-19T07:39:35.000Z</time>
      </trkpt>
      <trkpt lat="49.86795" lon="4.76179">
        <ele>258</ele>
        <time>2022-08-19T07:39:36.000Z</time>
      </trkpt>
      <trkpt lat="49.86793" lon="4.76173">
        <ele>258</ele>
        <time>2022-08-19T07:39:37.000Z</time>
      </trkpt>
      <trkpt lat="49.86791" lon="4.76166">
        <ele>258</ele>
        <time>2022-08-19T07:39:38.000Z</time>
      </trkpt>
      <trkpt lat="49.86789" lon="4.76158">
        <ele>258</ele>
        <time>2022-08-19T07:39:39.000Z</time>
      </trkpt>
      <trkpt lat="49.86787" lon="4.7615">
        <ele>258</ele>
        <time>2022-08-19T07:39:40.000Z</time>
      </trkpt>
      <trkpt lat="49.86785" lon="4.76143">
        <ele>258</ele>
        <time>2022-08-19T07:39:41.000Z</time>
      </trkpt>
      <trkpt lat="49.86783" lon="4.76136">
        <ele>258</ele>
        <time>2022-08-19T07:39:42.000Z</time>
      </trkpt>
      <trkpt lat="49.86781" lon="4.7613">
        <ele>257</ele>
        <time>2022-08-19T07:39:43.000Z</time>
      </trkpt>
      <trkpt lat="49.8678" lon="4.76123">
        <ele>257</ele>
        <time>2022-08-19T07:39:44.000Z</time>
      </trkpt>
      <trkpt lat="49.86779" lon="4.76116">
        <ele>257</ele>
        <time>2022-08-19T07:39:45.000Z</time>
      </trkpt>
      <trkpt lat="49.86777" lon="4.76108">
        <ele>257</ele>
        <time>2022-08-19T07:39:46.000Z</time>
      </trkpt>
      <trkpt lat="49.86776" lon="4.761">
        <ele>257</ele>
        <time>2022-08-19T07:39:47.000Z</time>
      </trkpt>
      <trkpt lat="49.86775" lon="4.76092">
        <ele>257</ele>
        <time>2022-08-19T07:39:48.000Z</time>
      </trkpt>
      <trkpt lat="49.86773" lon="4.76084">
        <ele>257</ele>
        <time>2022-08-19T07:39:49.000Z</time>
      </trkpt>
      <trkpt lat="49.86771" lon="4.76076">
        <ele>256</ele>
        <time>2022-08-19T07:39:50.000Z</time>
      </trkpt>
      <trkpt lat="49.86769" lon="4.76069">
        <ele>256</ele>
        <time>2022-08-19T07:39:51.000Z</time>
      </trkpt>
      <trkpt lat="49.86767" lon="4.76061">
        <ele>256</ele>
        <time>2022-08-19T07:39:52.000Z</time>
      </trkpt>
      <trkpt lat="49.86765" lon="4.76053">
        <ele>256</ele>
        <time>2022-08-19T07:39:53.000Z</time>
      </trkpt>
      <trkpt lat="49.86763" lon="4.76045">
        <ele>256</ele>
        <time>2022-08-19T07:39:54.000Z</time>
      </trkpt>
      <trkpt lat="49.86761" lon="4.76037">
        <ele>256</ele>
        <time>2022-08-19T07:39:55.000Z</time>
      </trkpt>
      <trkpt lat="49.8676" lon="4.7603">
        <ele>255</ele>
        <time>2022-08-19T07:39:56.000Z</time>
      </trkpt>
      <trkpt lat="49.86758" lon="4.76022">
        <ele>255</ele>
        <time>2022-08-19T07:39:57.000Z</time>
      </trkpt>
      <trkpt lat="49.86756" lon="4.76016">
        <ele>255</ele>
        <time>2022-08-19T07:39:58.000Z</time>
      </trkpt>
      <trkpt lat="49.86756" lon="4.76011">
        <ele>255</ele>
        <time>2022-08-19T07:39:59.000Z</time>
      </trkpt>
      <trkpt lat="49.86754" lon="4.76004">
        <ele>255</ele>
        <time>2022-08-19T07:40:00.000Z</time>
      </trkpt>
      <trkpt lat="49.86753" lon="4.75997">
        <ele>255</ele>
        <time>2022-08-19T07:40:01.000Z</time>
      </trkpt>
      <trkpt lat="49.86752" lon="4.7599">
        <ele>255</ele>
        <time>2022-08-19T07:40:02.000Z</time>
      </trkpt>
      <trkpt lat="49.86751" lon="4.75985">
        <ele>255</ele>
        <time>2022-08-19T07:40:03.000Z</time>
      </trkpt>
      <trkpt lat="49.86749" lon="4.75978">
        <ele>255</ele>
        <time>2022-08-19T07:40:04.000Z</time>
      </trkpt>
      <trkpt lat="49.86748" lon="4.75972">
        <ele>255</ele>
        <time>2022-08-19T07:40:05.000Z</time>
      </trkpt>
      <trkpt lat="49.86746" lon="4.75966">
        <ele>255</ele>
        <time>2022-08-19T07:40:06.000Z</time>
      </trkpt>
      <trkpt lat="49.86744" lon="4.7596">
        <ele>254</ele>
        <time>2022-08-19T07:40:07.000Z</time>
      </trkpt>
      <trkpt lat="49.86743" lon="4.75953">
        <ele>254</ele>
        <time>2022-08-19T07:40:08.000Z</time>
      </trkpt>
      <trkpt lat="49.86741" lon="4.75945">
        <ele>254</ele>
        <time>2022-08-19T07:40:09.000Z</time>
      </trkpt>
      <trkpt lat="49.86739" lon="4.75937">
        <ele>254</ele>
        <time>2022-08-19T07:40:10.000Z</time>
      </trkpt>
      <trkpt lat="49.86737" lon="4.75929">
        <ele>254</ele>
        <time>2022-08-19T07:40:11.000Z</time>
      </trkpt>
      <trkpt lat="49.86735" lon="4.75921">
        <ele>254</ele>
        <time>2022-08-19T07:40:12.000Z</time>
      </trkpt>
      <trkpt lat="49.86733" lon="4.75913">
        <ele>254</ele>
        <time>2022-08-19T07:40:13.000Z</time>
      </trkpt>
      <trkpt lat="49.86732" lon="4.75905">
        <ele>254</ele>
        <time>2022-08-19T07:40:14.000Z</time>
      </trkpt>
      <trkpt lat="49.8673" lon="4.75898">
        <ele>253</ele>
        <time>2022-08-19T07:40:15.000Z</time>
      </trkpt>
      <trkpt lat="49.86728" lon="4.75891">
        <ele>253</ele>
        <time>2022-08-19T07:40:16.000Z</time>
      </trkpt>
      <trkpt lat="49.86726" lon="4.75883">
        <ele>253</ele>
        <time>2022-08-19T07:40:17.000Z</time>
      </trkpt>
      <trkpt lat="49.86724" lon="4.75876">
        <ele>253</ele>
        <time>2022-08-19T07:40:18.000Z</time>
      </trkpt>
      <trkpt lat="49.86721" lon="4.75868">
        <ele>253</ele>
        <time>2022-08-19T07:40:19.000Z</time>
      </trkpt>
      <trkpt lat="49.86719" lon="4.75861">
        <ele>253</ele>
        <time>2022-08-19T07:40:20.000Z</time>
      </trkpt>
      <trkpt lat="49.86717" lon="4.75855">
        <ele>253</ele>
        <time>2022-08-19T07:40:21.000Z</time>
      </trkpt>
      <trkpt lat="49.86716" lon="4.75849">
        <ele>253</ele>
        <time>2022-08-19T07:40:22.000Z</time>
      </trkpt>
      <trkpt lat="49.86714" lon="4.75843">
        <ele>252</ele>
        <time>2022-08-19T07:40:23.000Z</time>
      </trkpt>
      <trkpt lat="49.86713" lon="4.75837">
        <ele>252</ele>
        <time>2022-08-19T07:40:24.000Z</time>
      </trkpt>
      <trkpt lat="49.86712" lon="4.7583">
        <ele>252</ele>
        <time>2022-08-19T07:40:25.000Z</time>
      </trkpt>
      <trkpt lat="49.8671" lon="4.75822">
        <ele>252</ele>
        <time>2022-08-19T07:40:26.000Z</time>
      </trkpt>
      <trkpt lat="49.86708" lon="4.75815">
        <ele>252</ele>
        <time>2022-08-19T07:40:27.000Z</time>
      </trkpt>
      <trkpt lat="49.86706" lon="4.75807">
        <ele>251</ele>
        <time>2022-08-19T07:40:28.000Z</time>
      </trkpt>
      <trkpt lat="49.86704" lon="4.75799">
        <ele>251</ele>
        <time>2022-08-19T07:40:29.000Z</time>
      </trkpt>
      <trkpt lat="49.86702" lon="4.75791">
        <ele>251</ele>
        <time>2022-08-19T07:40:30.000Z</time>
      </trkpt>
      <trkpt lat="49.867" lon="4.75784">
        <ele>251</ele>
        <time>2022-08-19T07:40:31.000Z</time>
      </trkpt>
      <trkpt lat="49.86698" lon="4.75777">
        <ele>251</ele>
        <time>2022-08-19T07:40:32.000Z</time>
      </trkpt>
      <trkpt lat="49.86696" lon="4.7577">
        <ele>250</ele>
        <time>2022-08-19T07:40:33.000Z</time>
      </trkpt>
      <trkpt lat="49.86694" lon="4.75764">
        <ele>250</ele>
        <time>2022-08-19T07:40:34.000Z</time>
      </trkpt>
      <trkpt lat="49.86693" lon="4.75757">
        <ele>250</ele>
        <time>2022-08-19T07:40:35.000Z</time>
      </trkpt>
      <trkpt lat="49.86691" lon="4.75752">
        <ele>250</ele>
        <time>2022-08-19T07:40:36.000Z</time>
      </trkpt>
      <trkpt lat="49.8669" lon="4.75747">
        <ele>250</ele>
        <time>2022-08-19T07:40:37.000Z</time>
      </trkpt>
      <trkpt lat="49.86689" lon="4.75744">
        <ele>249</ele>
        <time>2022-08-19T07:40:38.000Z</time>
      </trkpt>
      <trkpt lat="49.86688" lon="4.75741">
        <ele>249</ele>
        <time>2022-08-19T07:40:39.000Z</time>
      </trkpt>
      <trkpt lat="49.86687" lon="4.75737">
        <ele>249</ele>
        <time>2022-08-19T07:40:40.000Z</time>
      </trkpt>
      <trkpt lat="49.86687" lon="4.75732">
        <ele>249</ele>
        <time>2022-08-19T07:40:41.000Z</time>
      </trkpt>
      <trkpt lat="49.86685" lon="4.75726">
        <ele>249</ele>
        <time>2022-08-19T07:40:42.000Z</time>
      </trkpt>
      <trkpt lat="49.86684" lon="4.75721">
        <ele>249</ele>
        <time>2022-08-19T07:40:43.000Z</time>
      </trkpt>
      <trkpt lat="49.86684" lon="4.75716">
        <ele>249</ele>
        <time>2022-08-19T07:40:44.000Z</time>
      </trkpt>
      <trkpt lat="49.86683" lon="4.75711">
        <ele>249</ele>
        <time>2022-08-19T07:40:45.000Z</time>
      </trkpt>
      <trkpt lat="49.86683" lon="4.75707">
        <ele>248</ele>
        <time>2022-08-19T07:40:46.000Z</time>
      </trkpt>
      <trkpt lat="49.86683" lon="4.75702">
        <ele>248</ele>
        <time>2022-08-19T07:40:47.000Z</time>
      </trkpt>
      <trkpt lat="49.86682" lon="4.75698">
        <ele>249</ele>
        <time>2022-08-19T07:40:48.000Z</time>
      </trkpt>
      <trkpt lat="49.86682" lon="4.75694">
        <ele>249</ele>
        <time>2022-08-19T07:40:49.000Z</time>
      </trkpt>
      <trkpt lat="49.86681" lon="4.75691">
        <ele>249</ele>
        <time>2022-08-19T07:40:50.000Z</time>
      </trkpt>
      <trkpt lat="49.86681" lon="4.75687">
        <ele>249</ele>
        <time>2022-08-19T07:40:51.000Z</time>
      </trkpt>
      <trkpt lat="49.86681" lon="4.75683">
        <ele>249</ele>
        <time>2022-08-19T07:40:52.000Z</time>
      </trkpt>
      <trkpt lat="49.86681" lon="4.75678">
        <ele>249</ele>
        <time>2022-08-19T07:40:53.000Z</time>
      </trkpt>
      <trkpt lat="49.86681" lon="4.75674">
        <ele>249</ele>
        <time>2022-08-19T07:40:54.000Z</time>
      </trkpt>
      <trkpt lat="49.8668" lon="4.75669">
        <ele>249</ele>
        <time>2022-08-19T07:40:55.000Z</time>
      </trkpt>
      <trkpt lat="49.86678" lon="4.75664">
        <ele>249</ele>
        <time>2022-08-19T07:40:56.000Z</time>
      </trkpt>
      <trkpt lat="49.86677" lon="4.75659">
        <ele>250</ele>
        <time>2022-08-19T07:40:57.000Z</time>
      </trkpt>
      <trkpt lat="49.86676" lon="4.75655">
        <ele>250</ele>
        <time>2022-08-19T07:40:58.000Z</time>
      </trkpt>
      <trkpt lat="49.86676" lon="4.75651">
        <ele>250</ele>
        <time>2022-08-19T07:40:59.000Z</time>
      </trkpt>
      <trkpt lat="49.86675" lon="4.75647">
        <ele>250</ele>
        <time>2022-08-19T07:41:00.000Z</time>
      </trkpt>
      <trkpt lat="49.86675" lon="4.75643">
        <ele>250</ele>
        <time>2022-08-19T07:41:01.000Z</time>
      </trkpt>
      <trkpt lat="49.86674" lon="4.75639">
        <ele>250</ele>
        <time>2022-08-19T07:41:02.000Z</time>
      </trkpt>
      <trkpt lat="49.86674" lon="4.75636">
        <ele>250</ele>
        <time>2022-08-19T07:41:03.000Z</time>
      </trkpt>
      <trkpt lat="49.86674" lon="4.75633">
        <ele>250</ele>
        <time>2022-08-19T07:41:04.000Z</time>
      </trkpt>
      <trkpt lat="49.86674" lon="4.75629">
        <ele>250</ele>
        <time>2022-08-19T07:41:05.000Z</time>
      </trkpt>
      <trkpt lat="49.86673" lon="4.75625">
        <ele>250</ele>
        <time>2022-08-19T07:41:06.000Z</time>
      </trkpt>
      <trkpt lat="49.86672" lon="4.75621">
        <ele>250</ele>
        <time>2022-08-19T07:41:07.000Z</time>
      </trkpt>
      <trkpt lat="49.86672" lon="4.75616">
        <ele>250</ele>
        <time>2022-08-19T07:41:08.000Z</time>
      </trkpt>
      <trkpt lat="49.86671" lon="4.75613">
        <ele>250</ele>
        <time>2022-08-19T07:41:09.000Z</time>
      </trkpt>
      <trkpt lat="49.8667" lon="4.75609">
        <ele>250</ele>
        <time>2022-08-19T07:41:10.000Z</time>
      </trkpt>
      <trkpt lat="49.8667" lon="4.75605">
        <ele>250</ele>
        <time>2022-08-19T07:41:11.000Z</time>
      </trkpt>
      <trkpt lat="49.86669" lon="4.75602">
        <ele>250</ele>
        <time>2022-08-19T07:41:12.000Z</time>
      </trkpt>
      <trkpt lat="49.86669" lon="4.75598">
        <ele>250</ele>
        <time>2022-08-19T07:41:13.000Z</time>
      </trkpt>
      <trkpt lat="49.86668" lon="4.75595">
        <ele>250</ele>
        <time>2022-08-19T07:41:14.000Z</time>
      </trkpt>
      <trkpt lat="49.86668" lon="4.75593">
        <ele>250</ele>
        <time>2022-08-19T07:41:15.000Z</time>
      </trkpt>
      <trkpt lat="49.86667" lon="4.7559">
        <ele>250</ele>
        <time>2022-08-19T07:41:16.000Z</time>
      </trkpt>
      <trkpt lat="49.86665" lon="4.75587">
        <ele>250</ele>
        <time>2022-08-19T07:41:17.000Z</time>
      </trkpt>
      <trkpt lat="49.86664" lon="4.75583">
        <ele>250</ele>
        <time>2022-08-19T07:41:18.000Z</time>
      </trkpt>
      <trkpt lat="49.86663" lon="4.75579">
        <ele>250</ele>
        <time>2022-08-19T07:41:19.000Z</time>
      </trkpt>
      <trkpt lat="49.86663" lon="4.75575">
        <ele>250</ele>
        <time>2022-08-19T07:41:20.000Z</time>
      </trkpt>
      <trkpt lat="49.86663" lon="4.75571">
        <ele>250</ele>
        <time>2022-08-19T07:41:21.000Z</time>
      </trkpt>
      <trkpt lat="49.86663" lon="4.75567">
        <ele>250</ele>
        <time>2022-08-19T07:41:22.000Z</time>
      </trkpt>
      <trkpt lat="49.86662" lon="4.75562">
        <ele>250</ele>
        <time>2022-08-19T07:41:23.000Z</time>
      </trkpt>
      <trkpt lat="49.86662" lon="4.75557">
        <ele>250</ele>
        <time>2022-08-19T07:41:24.000Z</time>
      </trkpt>
      <trkpt lat="49.86662" lon="4.75552">
        <ele>250</ele>
        <time>2022-08-19T07:41:25.000Z</time>
      </trkpt>
      <trkpt lat="49.86661" lon="4.75547">
        <ele>250</ele>
        <time>2022-08-19T07:41:26.000Z</time>
      </trkpt>
      <trkpt lat="49.86661" lon="4.75543">
        <ele>251</ele>
        <time>2022-08-19T07:41:27.000Z</time>
      </trkpt>
      <trkpt lat="49.8666" lon="4.75538">
        <ele>251</ele>
        <time>2022-08-19T07:41:28.000Z</time>
      </trkpt>
      <trkpt lat="49.86659" lon="4.75532">
        <ele>251</ele>
        <time>2022-08-19T07:41:29.000Z</time>
      </trkpt>
      <trkpt lat="49.86659" lon="4.75527">
        <ele>251</ele>
        <time>2022-08-19T07:41:30.000Z</time>
      </trkpt>
      <trkpt lat="49.86658" lon="4.75522">
        <ele>251</ele>
        <time>2022-08-19T07:41:31.000Z</time>
      </trkpt>
      <trkpt lat="49.86657" lon="4.75516">
        <ele>251</ele>
        <time>2022-08-19T07:41:32.000Z</time>
      </trkpt>
      <trkpt lat="49.86657" lon="4.75511">
        <ele>251</ele>
        <time>2022-08-19T07:41:33.000Z</time>
      </trkpt>
      <trkpt lat="49.86655" lon="4.75505">
        <ele>251</ele>
        <time>2022-08-19T07:41:34.000Z</time>
      </trkpt>
      <trkpt lat="49.86655" lon="4.755">
        <ele>251</ele>
        <time>2022-08-19T07:41:35.000Z</time>
      </trkpt>
      <trkpt lat="49.86655" lon="4.75494">
        <ele>251</ele>
        <time>2022-08-19T07:41:36.000Z</time>
      </trkpt>
      <trkpt lat="49.86655" lon="4.75488">
        <ele>250</ele>
        <time>2022-08-19T07:41:37.000Z</time>
      </trkpt>
      <trkpt lat="49.86655" lon="4.75482">
        <ele>250</ele>
        <time>2022-08-19T07:41:38.000Z</time>
      </trkpt>
      <trkpt lat="49.86656" lon="4.75476">
        <ele>250</ele>
        <time>2022-08-19T07:41:39.000Z</time>
      </trkpt>
      <trkpt lat="49.86657" lon="4.75472">
        <ele>250</ele>
        <time>2022-08-19T07:41:40.000Z</time>
      </trkpt>
      <trkpt lat="49.86658" lon="4.75467">
        <ele>250</ele>
        <time>2022-08-19T07:41:41.000Z</time>
      </trkpt>
      <trkpt lat="49.86658" lon="4.75463">
        <ele>250</ele>
        <time>2022-08-19T07:41:42.000Z</time>
      </trkpt>
      <trkpt lat="49.86659" lon="4.75457">
        <ele>250</ele>
        <time>2022-08-19T07:41:43.000Z</time>
      </trkpt>
      <trkpt lat="49.86659" lon="4.75452">
        <ele>250</ele>
        <time>2022-08-19T07:41:44.000Z</time>
      </trkpt>
      <trkpt lat="49.86659" lon="4.75446">
        <ele>250</ele>
        <time>2022-08-19T07:41:45.000Z</time>
      </trkpt>
      <trkpt lat="49.86659" lon="4.75439">
        <ele>250</ele>
        <time>2022-08-19T07:41:46.000Z</time>
      </trkpt>
      <trkpt lat="49.86659" lon="4.75432">
        <ele>250</ele>
        <time>2022-08-19T07:41:47.000Z</time>
      </trkpt>
      <trkpt lat="49.8666" lon="4.75425">
        <ele>250</ele>
        <time>2022-08-19T07:41:48.000Z</time>
      </trkpt>
      <trkpt lat="49.8666" lon="4.75419">
        <ele>249</ele>
        <time>2022-08-19T07:41:49.000Z</time>
      </trkpt>
      <trkpt lat="49.8666" lon="4.75412">
        <ele>249</ele>
        <time>2022-08-19T07:41:50.000Z</time>
      </trkpt>
      <trkpt lat="49.8666" lon="4.75406">
        <ele>249</ele>
        <time>2022-08-19T07:41:51.000Z</time>
      </trkpt>
      <trkpt lat="49.86659" lon="4.754">
        <ele>249</ele>
        <time>2022-08-19T07:41:52.000Z</time>
      </trkpt>
      <trkpt lat="49.86659" lon="4.75393">
        <ele>249</ele>
        <time>2022-08-19T07:41:53.000Z</time>
      </trkpt>
      <trkpt lat="49.86658" lon="4.75387">
        <ele>248</ele>
        <time>2022-08-19T07:41:54.000Z</time>
      </trkpt>
      <trkpt lat="49.86657" lon="4.75381">
        <ele>248</ele>
        <time>2022-08-19T07:41:55.000Z</time>
      </trkpt>
      <trkpt lat="49.86657" lon="4.75374">
        <ele>248</ele>
        <time>2022-08-19T07:41:56.000Z</time>
      </trkpt>
      <trkpt lat="49.86656" lon="4.75367">
        <ele>248</ele>
        <time>2022-08-19T07:41:57.000Z</time>
      </trkpt>
      <trkpt lat="49.86656" lon="4.7536">
        <ele>247</ele>
        <time>2022-08-19T07:41:58.000Z</time>
      </trkpt>
      <trkpt lat="49.86655" lon="4.75353">
        <ele>247</ele>
        <time>2022-08-19T07:41:59.000Z</time>
      </trkpt>
      <trkpt lat="49.86654" lon="4.75347">
        <ele>247</ele>
        <time>2022-08-19T07:42:00.000Z</time>
      </trkpt>
      <trkpt lat="49.86654" lon="4.7534">
        <ele>246</ele>
        <time>2022-08-19T07:42:01.000Z</time>
      </trkpt>
      <trkpt lat="49.86654" lon="4.75333">
        <ele>246</ele>
        <time>2022-08-19T07:42:02.000Z</time>
      </trkpt>
      <trkpt lat="49.86654" lon="4.75326">
        <ele>246</ele>
        <time>2022-08-19T07:42:03.000Z</time>
      </trkpt>
      <trkpt lat="49.86654" lon="4.75319">
        <ele>246</ele>
        <time>2022-08-19T07:42:04.000Z</time>
      </trkpt>
      <trkpt lat="49.86654" lon="4.75311">
        <ele>246</ele>
        <time>2022-08-19T07:42:05.000Z</time>
      </trkpt>
      <trkpt lat="49.86655" lon="4.75303">
        <ele>246</ele>
        <time>2022-08-19T07:42:06.000Z</time>
      </trkpt>
      <trkpt lat="49.86655" lon="4.75296">
        <ele>245</ele>
        <time>2022-08-19T07:42:07.000Z</time>
      </trkpt>
      <trkpt lat="49.86656" lon="4.7529">
        <ele>245</ele>
        <time>2022-08-19T07:42:08.000Z</time>
      </trkpt>
      <trkpt lat="49.86657" lon="4.75287">
        <ele>245</ele>
        <time>2022-08-19T07:42:09.000Z</time>
      </trkpt>
      <trkpt lat="49.86657" lon="4.75283">
        <ele>245</ele>
        <time>2022-08-19T07:42:10.000Z</time>
      </trkpt>
      <trkpt lat="49.86657" lon="4.75281">
        <ele>245</ele>
        <time>2022-08-19T07:42:11.000Z</time>
      </trkpt>
      <trkpt lat="49.86658" lon="4.75278">
        <ele>245</ele>
        <time>2022-08-19T07:42:12.000Z</time>
      </trkpt>
      <trkpt lat="49.86658" lon="4.75276">
        <ele>246</ele>
        <time>2022-08-19T07:42:13.000Z</time>
      </trkpt>
      <trkpt lat="49.86658" lon="4.75273">
        <ele>246</ele>
        <time>2022-08-19T07:42:14.000Z</time>
      </trkpt>
      <trkpt lat="49.86658" lon="4.7527">
        <ele>246</ele>
        <time>2022-08-19T07:42:15.000Z</time>
      </trkpt>
      <trkpt lat="49.86657" lon="4.75266">
        <ele>246</ele>
        <time>2022-08-19T07:42:16.000Z</time>
      </trkpt>
      <trkpt lat="49.86656" lon="4.75264">
        <ele>246</ele>
        <time>2022-08-19T07:42:17.000Z</time>
      </trkpt>
      <trkpt lat="49.86657" lon="4.75261">
        <ele>246</ele>
        <time>2022-08-19T07:42:18.000Z</time>
      </trkpt>
      <trkpt lat="49.86657" lon="4.75258">
        <ele>246</ele>
        <time>2022-08-19T07:42:19.000Z</time>
      </trkpt>
      <trkpt lat="49.86657" lon="4.75255">
        <ele>246</ele>
        <time>2022-08-19T07:42:20.000Z</time>
      </trkpt>
      <trkpt lat="49.86658" lon="4.75253">
        <ele>246</ele>
        <time>2022-08-19T07:42:21.000Z</time>
      </trkpt>
      <trkpt lat="49.86658" lon="4.75251">
        <ele>247</ele>
        <time>2022-08-19T07:42:22.000Z</time>
      </trkpt>
      <trkpt lat="49.86659" lon="4.75248">
        <ele>247</ele>
        <time>2022-08-19T07:42:23.000Z</time>
      </trkpt>
      <trkpt lat="49.86659" lon="4.75245">
        <ele>247</ele>
        <time>2022-08-19T07:42:24.000Z</time>
      </trkpt>
      <trkpt lat="49.86659" lon="4.75241">
        <ele>247</ele>
        <time>2022-08-19T07:42:25.000Z</time>
      </trkpt>
      <trkpt lat="49.86659" lon="4.75238">
        <ele>247</ele>
        <time>2022-08-19T07:42:26.000Z</time>
      </trkpt>
      <trkpt lat="49.86659" lon="4.75234">
        <ele>248</ele>
        <time>2022-08-19T07:42:27.000Z</time>
      </trkpt>
      <trkpt lat="49.8666" lon="4.75231">
        <ele>248</ele>
        <time>2022-08-19T07:42:28.000Z</time>
      </trkpt>
      <trkpt lat="49.8666" lon="4.75227">
        <ele>248</ele>
        <time>2022-08-19T07:42:29.000Z</time>
      </trkpt>
      <trkpt lat="49.8666" lon="4.75224">
        <ele>248</ele>
        <time>2022-08-19T07:42:30.000Z</time>
      </trkpt>
      <trkpt lat="49.86661" lon="4.7522">
        <ele>249</ele>
        <time>2022-08-19T07:42:31.000Z</time>
      </trkpt>
      <trkpt lat="49.86661" lon="4.75217">
        <ele>249</ele>
        <time>2022-08-19T07:42:32.000Z</time>
      </trkpt>
      <trkpt lat="49.86661" lon="4.75213">
        <ele>250</ele>
        <time>2022-08-19T07:42:33.000Z</time>
      </trkpt>
      <trkpt lat="49.86661" lon="4.7521">
        <ele>250</ele>
        <time>2022-08-19T07:42:34.000Z</time>
      </trkpt>
      <trkpt lat="49.86661" lon="4.75206">
        <ele>250</ele>
        <time>2022-08-19T07:42:35.000Z</time>
      </trkpt>
      <trkpt lat="49.86661" lon="4.75203">
        <ele>250</ele>
        <time>2022-08-19T07:42:36.000Z</time>
      </trkpt>
      <trkpt lat="49.86661" lon="4.75199">
        <ele>251</ele>
        <time>2022-08-19T07:42:37.000Z</time>
      </trkpt>
      <trkpt lat="49.8666" lon="4.75195">
        <ele>251</ele>
        <time>2022-08-19T07:42:38.000Z</time>
      </trkpt>
      <trkpt lat="49.8666" lon="4.75191">
        <ele>251</ele>
        <time>2022-08-19T07:42:39.000Z</time>
      </trkpt>
      <trkpt lat="49.8666" lon="4.75188">
        <ele>251</ele>
        <time>2022-08-19T07:42:40.000Z</time>
      </trkpt>
      <trkpt lat="49.8666" lon="4.75184">
        <ele>252</ele>
        <time>2022-08-19T07:42:41.000Z</time>
      </trkpt>
      <trkpt lat="49.8666" lon="4.75181">
        <ele>252</ele>
        <time>2022-08-19T07:42:42.000Z</time>
      </trkpt>
      <trkpt lat="49.86659" lon="4.75177">
        <ele>252</ele>
        <time>2022-08-19T07:42:43.000Z</time>
      </trkpt>
      <trkpt lat="49.86659" lon="4.75174">
        <ele>252</ele>
        <time>2022-08-19T07:42:44.000Z</time>
      </trkpt>
      <trkpt lat="49.86659" lon="4.75171">
        <ele>252</ele>
        <time>2022-08-19T07:42:45.000Z</time>
      </trkpt>
      <trkpt lat="49.86659" lon="4.75167">
        <ele>252</ele>
        <time>2022-08-19T07:42:46.000Z</time>
      </trkpt>
      <trkpt lat="49.86659" lon="4.75164">
        <ele>252</ele>
        <time>2022-08-19T07:42:47.000Z</time>
      </trkpt>
      <trkpt lat="49.86658" lon="4.7516">
        <ele>252</ele>
        <time>2022-08-19T07:42:48.000Z</time>
      </trkpt>
      <trkpt lat="49.86658" lon="4.75157">
        <ele>252</ele>
        <time>2022-08-19T07:42:49.000Z</time>
      </trkpt>
      <trkpt lat="49.86658" lon="4.75153">
        <ele>252</ele>
        <time>2022-08-19T07:42:50.000Z</time>
      </trkpt>
      <trkpt lat="49.86658" lon="4.75149">
        <ele>252</ele>
        <time>2022-08-19T07:42:51.000Z</time>
      </trkpt>
      <trkpt lat="49.86658" lon="4.75146">
        <ele>252</ele>
        <time>2022-08-19T07:42:52.000Z</time>
      </trkpt>
      <trkpt lat="49.86657" lon="4.75142">
        <ele>252</ele>
        <time>2022-08-19T07:42:53.000Z</time>
      </trkpt>
      <trkpt lat="49.86657" lon="4.75139">
        <ele>252</ele>
        <time>2022-08-19T07:42:54.000Z</time>
      </trkpt>
      <trkpt lat="49.86656" lon="4.75136">
        <ele>252</ele>
        <time>2022-08-19T07:42:55.000Z</time>
      </trkpt>
      <trkpt lat="49.86657" lon="4.75133">
        <ele>252</ele>
        <time>2022-08-19T07:42:56.000Z</time>
      </trkpt>
      <trkpt lat="49.86657" lon="4.7513">
        <ele>252</ele>
        <time>2022-08-19T07:42:57.000Z</time>
      </trkpt>
      <trkpt lat="49.86656" lon="4.75126">
        <ele>252</ele>
        <time>2022-08-19T07:42:58.000Z</time>
      </trkpt>
      <trkpt lat="49.86656" lon="4.75123">
        <ele>252</ele>
        <time>2022-08-19T07:42:59.000Z</time>
      </trkpt>
      <trkpt lat="49.86656" lon="4.75119">
        <ele>252</ele>
        <time>2022-08-19T07:43:00.000Z</time>
      </trkpt>
      <trkpt lat="49.86657" lon="4.75115">
        <ele>252</ele>
        <time>2022-08-19T07:43:01.000Z</time>
      </trkpt>
      <trkpt lat="49.86657" lon="4.75111">
        <ele>253</ele>
        <time>2022-08-19T07:43:02.000Z</time>
      </trkpt>
      <trkpt lat="49.86656" lon="4.75107">
        <ele>253</ele>
        <time>2022-08-19T07:43:03.000Z</time>
      </trkpt>
      <trkpt lat="49.86656" lon="4.75103">
        <ele>253</ele>
        <time>2022-08-19T07:43:04.000Z</time>
      </trkpt>
      <trkpt lat="49.86656" lon="4.75099">
        <ele>253</ele>
        <time>2022-08-19T07:43:05.000Z</time>
      </trkpt>
      <trkpt lat="49.86656" lon="4.75095">
        <ele>254</ele>
        <time>2022-08-19T07:43:06.000Z</time>
      </trkpt>
      <trkpt lat="49.86655" lon="4.75092">
        <ele>254</ele>
        <time>2022-08-19T07:43:07.000Z</time>
      </trkpt>
      <trkpt lat="49.86655" lon="4.75088">
        <ele>254</ele>
        <time>2022-08-19T07:43:08.000Z</time>
      </trkpt>
      <trkpt lat="49.86655" lon="4.75086">
        <ele>254</ele>
        <time>2022-08-19T07:43:09.000Z</time>
      </trkpt>
      <trkpt lat="49.86655" lon="4.75083">
        <ele>255</ele>
        <time>2022-08-19T07:43:10.000Z</time>
      </trkpt>
      <trkpt lat="49.86655" lon="4.75081">
        <ele>255</ele>
        <time>2022-08-19T07:43:11.000Z</time>
      </trkpt>
      <trkpt lat="49.86655" lon="4.75079">
        <ele>255</ele>
        <time>2022-08-19T07:43:12.000Z</time>
      </trkpt>
      <trkpt lat="49.86654" lon="4.75076">
        <ele>255</ele>
        <time>2022-08-19T07:43:13.000Z</time>
      </trkpt>
      <trkpt lat="49.86654" lon="4.75073">
        <ele>256</ele>
        <time>2022-08-19T07:43:14.000Z</time>
      </trkpt>
      <trkpt lat="49.86654" lon="4.7507">
        <ele>256</ele>
        <time>2022-08-19T07:43:15.000Z</time>
      </trkpt>
      <trkpt lat="49.86653" lon="4.75067">
        <ele>256</ele>
        <time>2022-08-19T07:43:16.000Z</time>
      </trkpt>
      <trkpt lat="49.86653" lon="4.75064">
        <ele>257</ele>
        <time>2022-08-19T07:43:17.000Z</time>
      </trkpt>
      <trkpt lat="49.86653" lon="4.75061">
        <ele>257</ele>
        <time>2022-08-19T07:43:18.000Z</time>
      </trkpt>
      <trkpt lat="49.86653" lon="4.75056">
        <ele>257</ele>
        <time>2022-08-19T07:43:19.000Z</time>
      </trkpt>
      <trkpt lat="49.86654" lon="4.75052">
        <ele>258</ele>
        <time>2022-08-19T07:43:20.000Z</time>
      </trkpt>
      <trkpt lat="49.86655" lon="4.75048">
        <ele>258</ele>
        <time>2022-08-19T07:43:21.000Z</time>
      </trkpt>
      <trkpt lat="49.86656" lon="4.75045">
        <ele>258</ele>
        <time>2022-08-19T07:43:22.000Z</time>
      </trkpt>
      <trkpt lat="49.86657" lon="4.75041">
        <ele>259</ele>
        <time>2022-08-19T07:43:23.000Z</time>
      </trkpt>
      <trkpt lat="49.86658" lon="4.75037">
        <ele>259</ele>
        <time>2022-08-19T07:43:24.000Z</time>
      </trkpt>
      <trkpt lat="49.8666" lon="4.75034">
        <ele>259</ele>
        <time>2022-08-19T07:43:25.000Z</time>
      </trkpt>
      <trkpt lat="49.86661" lon="4.7503">
        <ele>259</ele>
        <time>2022-08-19T07:43:26.000Z</time>
      </trkpt>
      <trkpt lat="49.86662" lon="4.75026">
        <ele>260</ele>
        <time>2022-08-19T07:43:27.000Z</time>
      </trkpt>
      <trkpt lat="49.86663" lon="4.75023">
        <ele>260</ele>
        <time>2022-08-19T07:43:28.000Z</time>
      </trkpt>
      <trkpt lat="49.86664" lon="4.7502">
        <ele>260</ele>
        <time>2022-08-19T07:43:29.000Z</time>
      </trkpt>
      <trkpt lat="49.86664" lon="4.75017">
        <ele>261</ele>
        <time>2022-08-19T07:43:30.000Z</time>
      </trkpt>
      <trkpt lat="49.86665" lon="4.75014">
        <ele>261</ele>
        <time>2022-08-19T07:43:31.000Z</time>
      </trkpt>
      <trkpt lat="49.86666" lon="4.75011">
        <ele>262</ele>
        <time>2022-08-19T07:43:32.000Z</time>
      </trkpt>
      <trkpt lat="49.86666" lon="4.75009">
        <ele>262</ele>
        <time>2022-08-19T07:43:33.000Z</time>
      </trkpt>
      <trkpt lat="49.86666" lon="4.75006">
        <ele>262</ele>
        <time>2022-08-19T07:43:34.000Z</time>
      </trkpt>
      <trkpt lat="49.86667" lon="4.75003">
        <ele>263</ele>
        <time>2022-08-19T07:43:35.000Z</time>
      </trkpt>
      <trkpt lat="49.86667" lon="4.75001">
        <ele>263</ele>
        <time>2022-08-19T07:43:36.000Z</time>
      </trkpt>
      <trkpt lat="49.86667" lon="4.74997">
        <ele>264</ele>
        <time>2022-08-19T07:43:37.000Z</time>
      </trkpt>
      <trkpt lat="49.86668" lon="4.74994">
        <ele>264</ele>
        <time>2022-08-19T07:43:38.000Z</time>
      </trkpt>
      <trkpt lat="49.86668" lon="4.74991">
        <ele>264</ele>
        <time>2022-08-19T07:43:39.000Z</time>
      </trkpt>
      <trkpt lat="49.86669" lon="4.74988">
        <ele>265</ele>
        <time>2022-08-19T07:43:40.000Z</time>
      </trkpt>
      <trkpt lat="49.8667" lon="4.74985">
        <ele>265</ele>
        <time>2022-08-19T07:43:41.000Z</time>
      </trkpt>
      <trkpt lat="49.86671" lon="4.74983">
        <ele>266</ele>
        <time>2022-08-19T07:43:42.000Z</time>
      </trkpt>
      <trkpt lat="49.86671" lon="4.74979">
        <ele>266</ele>
        <time>2022-08-19T07:43:43.000Z</time>
      </trkpt>
      <trkpt lat="49.86672" lon="4.74976">
        <ele>266</ele>
        <time>2022-08-19T07:43:44.000Z</time>
      </trkpt>
      <trkpt lat="49.86672" lon="4.74973">
        <ele>267</ele>
        <time>2022-08-19T07:43:45.000Z</time>
      </trkpt>
      <trkpt lat="49.86672" lon="4.7497">
        <ele>267</ele>
        <time>2022-08-19T07:43:46.000Z</time>
      </trkpt>
      <trkpt lat="49.86672" lon="4.74967">
        <ele>268</ele>
        <time>2022-08-19T07:43:47.000Z</time>
      </trkpt>
      <trkpt lat="49.86672" lon="4.74964">
        <ele>268</ele>
        <time>2022-08-19T07:43:48.000Z</time>
      </trkpt>
      <trkpt lat="49.86673" lon="4.74961">
        <ele>269</ele>
        <time>2022-08-19T07:43:49.000Z</time>
      </trkpt>
      <trkpt lat="49.86673" lon="4.74958">
        <ele>269</ele>
        <time>2022-08-19T07:43:50.000Z</time>
      </trkpt>
      <trkpt lat="49.86673" lon="4.74954">
        <ele>269</ele>
        <time>2022-08-19T07:43:51.000Z</time>
      </trkpt>
      <trkpt lat="49.86673" lon="4.74951">
        <ele>270</ele>
        <time>2022-08-19T07:43:52.000Z</time>
      </trkpt>
      <trkpt lat="49.86673" lon="4.74948">
        <ele>270</ele>
        <time>2022-08-19T07:43:53.000Z</time>
      </trkpt>
      <trkpt lat="49.86673" lon="4.74946">
        <ele>271</ele>
        <time>2022-08-19T07:43:54.000Z</time>
      </trkpt>
      <trkpt lat="49.86673" lon="4.74943">
        <ele>271</ele>
        <time>2022-08-19T07:43:55.000Z</time>
      </trkpt>
      <trkpt lat="49.86673" lon="4.7494">
        <ele>271</ele>
        <time>2022-08-19T07:43:56.000Z</time>
      </trkpt>
      <trkpt lat="49.86673" lon="4.74937">
        <ele>271</ele>
        <time>2022-08-19T07:43:57.000Z</time>
      </trkpt>
      <trkpt lat="49.86673" lon="4.74934">
        <ele>272</ele>
        <time>2022-08-19T07:43:58.000Z</time>
      </trkpt>
      <trkpt lat="49.86673" lon="4.74931">
        <ele>272</ele>
        <time>2022-08-19T07:43:59.000Z</time>
      </trkpt>
      <trkpt lat="49.86673" lon="4.74928">
        <ele>272</ele>
        <time>2022-08-19T07:44:00.000Z</time>
      </trkpt>
      <trkpt lat="49.86673" lon="4.74926">
        <ele>272</ele>
        <time>2022-08-19T07:44:01.000Z</time>
      </trkpt>
      <trkpt lat="49.86673" lon="4.74923">
        <ele>272</ele>
        <time>2022-08-19T07:44:02.000Z</time>
      </trkpt>
      <trkpt lat="49.86673" lon="4.74921">
        <ele>272</ele>
        <time>2022-08-19T07:44:03.000Z</time>
      </trkpt>
      <trkpt lat="49.86672" lon="4.74918">
        <ele>272</ele>
        <time>2022-08-19T07:44:04.000Z</time>
      </trkpt>
      <trkpt lat="49.86671" lon="4.74915">
        <ele>272</ele>
        <time>2022-08-19T07:44:05.000Z</time>
      </trkpt>
      <trkpt lat="49.86671" lon="4.74912">
        <ele>272</ele>
        <time>2022-08-19T07:44:06.000Z</time>
      </trkpt>
      <trkpt lat="49.8667" lon="4.74908">
        <ele>272</ele>
        <time>2022-08-19T07:44:07.000Z</time>
      </trkpt>
      <trkpt lat="49.86669" lon="4.74905">
        <ele>273</ele>
        <time>2022-08-19T07:44:08.000Z</time>
      </trkpt>
      <trkpt lat="49.86668" lon="4.74902">
        <ele>273</ele>
        <time>2022-08-19T07:44:09.000Z</time>
      </trkpt>
      <trkpt lat="49.86667" lon="4.74898">
        <ele>273</ele>
        <time>2022-08-19T07:44:10.000Z</time>
      </trkpt>
      <trkpt lat="49.86665" lon="4.74895">
        <ele>273</ele>
        <time>2022-08-19T07:44:11.000Z</time>
      </trkpt>
      <trkpt lat="49.86665" lon="4.74892">
        <ele>273</ele>
        <time>2022-08-19T07:44:12.000Z</time>
      </trkpt>
      <trkpt lat="49.86664" lon="4.74889">
        <ele>273</ele>
        <time>2022-08-19T07:44:13.000Z</time>
      </trkpt>
      <trkpt lat="49.86664" lon="4.74886">
        <ele>273</ele>
        <time>2022-08-19T07:44:14.000Z</time>
      </trkpt>
      <trkpt lat="49.86664" lon="4.74883">
        <ele>273</ele>
        <time>2022-08-19T07:44:15.000Z</time>
      </trkpt>
      <trkpt lat="49.86664" lon="4.7488">
        <ele>273</ele>
        <time>2022-08-19T07:44:16.000Z</time>
      </trkpt>
      <trkpt lat="49.86664" lon="4.74878">
        <ele>273</ele>
        <time>2022-08-19T07:44:17.000Z</time>
      </trkpt>
      <trkpt lat="49.86664" lon="4.74875">
        <ele>274</ele>
        <time>2022-08-19T07:44:18.000Z</time>
      </trkpt>
      <trkpt lat="49.86664" lon="4.74873">
        <ele>274</ele>
        <time>2022-08-19T07:44:19.000Z</time>
      </trkpt>
      <trkpt lat="49.86664" lon="4.74871">
        <ele>274</ele>
        <time>2022-08-19T07:44:20.000Z</time>
      </trkpt>
      <trkpt lat="49.86663" lon="4.74868">
        <ele>274</ele>
        <time>2022-08-19T07:44:21.000Z</time>
      </trkpt>
      <trkpt lat="49.86661" lon="4.74866">
        <ele>274</ele>
        <time>2022-08-19T07:44:22.000Z</time>
      </trkpt>
      <trkpt lat="49.8666" lon="4.74864">
        <ele>275</ele>
        <time>2022-08-19T07:44:23.000Z</time>
      </trkpt>
      <trkpt lat="49.86658" lon="4.74861">
        <ele>275</ele>
        <time>2022-08-19T07:44:24.000Z</time>
      </trkpt>
      <trkpt lat="49.86657" lon="4.74857">
        <ele>275</ele>
        <time>2022-08-19T07:44:25.000Z</time>
      </trkpt>
      <trkpt lat="49.86655" lon="4.74854">
        <ele>275</ele>
        <time>2022-08-19T07:44:26.000Z</time>
      </trkpt>
      <trkpt lat="49.86653" lon="4.74852">
        <ele>275</ele>
        <time>2022-08-19T07:44:27.000Z</time>
      </trkpt>
      <trkpt lat="49.86651" lon="4.7485">
        <ele>275</ele>
        <time>2022-08-19T07:44:28.000Z</time>
      </trkpt>
      <trkpt lat="49.86649" lon="4.74847">
        <ele>275</ele>
        <time>2022-08-19T07:44:29.000Z</time>
      </trkpt>
      <trkpt lat="49.86647" lon="4.74845">
        <ele>276</ele>
        <time>2022-08-19T07:44:30.000Z</time>
      </trkpt>
      <trkpt lat="49.86644" lon="4.74842">
        <ele>276</ele>
        <time>2022-08-19T07:44:31.000Z</time>
      </trkpt>
      <trkpt lat="49.86642" lon="4.74839">
        <ele>276</ele>
        <time>2022-08-19T07:44:32.000Z</time>
      </trkpt>
      <trkpt lat="49.8664" lon="4.74835">
        <ele>276</ele>
        <time>2022-08-19T07:44:33.000Z</time>
      </trkpt>
      <trkpt lat="49.86638" lon="4.74832">
        <ele>276</ele>
        <time>2022-08-19T07:44:34.000Z</time>
      </trkpt>
      <trkpt lat="49.86636" lon="4.74829">
        <ele>276</ele>
        <time>2022-08-19T07:44:35.000Z</time>
      </trkpt>
      <trkpt lat="49.86634" lon="4.74826">
        <ele>276</ele>
        <time>2022-08-19T07:44:36.000Z</time>
      </trkpt>
      <trkpt lat="49.86632" lon="4.74824">
        <ele>276</ele>
        <time>2022-08-19T07:44:37.000Z</time>
      </trkpt>
      <trkpt lat="49.86629" lon="4.74821">
        <ele>276</ele>
        <time>2022-08-19T07:44:38.000Z</time>
      </trkpt>
      <trkpt lat="49.86627" lon="4.74819">
        <ele>276</ele>
        <time>2022-08-19T07:44:39.000Z</time>
      </trkpt>
      <trkpt lat="49.86626" lon="4.74817">
        <ele>276</ele>
        <time>2022-08-19T07:44:40.000Z</time>
      </trkpt>
      <trkpt lat="49.86625" lon="4.74816">
        <ele>276</ele>
        <time>2022-08-19T07:44:41.000Z</time>
      </trkpt>
      <trkpt lat="49.86625" lon="4.74816">
        <ele>276</ele>
        <time>2022-08-19T07:44:42.000Z</time>
      </trkpt>
      <trkpt lat="49.86625" lon="4.74815">
        <ele>277</ele>
        <time>2022-08-19T07:44:43.000Z</time>
      </trkpt>
      <trkpt lat="49.86624" lon="4.74816">
        <ele>277</ele>
        <time>2022-08-19T07:44:44.000Z</time>
      </trkpt>
      <trkpt lat="49.86624" lon="4.74815">
        <ele>276</ele>
        <time>2022-08-19T07:44:45.000Z</time>
      </trkpt>
      <trkpt lat="49.86624" lon="4.74815">
        <ele>276</ele>
        <time>2022-08-19T07:44:46.000Z</time>
      </trkpt>
      <trkpt lat="49.86623" lon="4.74814">
        <ele>277</ele>
        <time>2022-08-19T07:44:47.000Z</time>
      </trkpt>
      <trkpt lat="49.86623" lon="4.74814">
        <ele>277</ele>
        <time>2022-08-19T07:44:48.000Z</time>
      </trkpt>
      <trkpt lat="49.86622" lon="4.74813">
        <ele>277</ele>
        <time>2022-08-19T07:44:49.000Z</time>
      </trkpt>
      <trkpt lat="49.86621" lon="4.74812">
        <ele>277</ele>
        <time>2022-08-19T07:44:50.000Z</time>
      </trkpt>
      <trkpt lat="49.86621" lon="4.74811">
        <ele>277</ele>
        <time>2022-08-19T07:44:51.000Z</time>
      </trkpt>
      <trkpt lat="49.8662" lon="4.74811">
        <ele>277</ele>
        <time>2022-08-19T07:44:52.000Z</time>
      </trkpt>
      <trkpt lat="49.8662" lon="4.74811">
        <ele>277</ele>
        <time>2022-08-19T07:44:53.000Z</time>
      </trkpt>
      <trkpt lat="49.8662" lon="4.74811">
        <ele>278</ele>
        <time>2022-08-19T07:44:54.000Z</time>
      </trkpt>
      <trkpt lat="49.86619" lon="4.7481">
        <ele>278</ele>
        <time>2022-08-19T07:44:55.000Z</time>
      </trkpt>
      <trkpt lat="49.86618" lon="4.74809">
        <ele>278</ele>
        <time>2022-08-19T07:44:56.000Z</time>
      </trkpt>
      <trkpt lat="49.86617" lon="4.74807">
        <ele>278</ele>
        <time>2022-08-19T07:44:57.000Z</time>
      </trkpt>
      <trkpt lat="49.86615" lon="4.74806">
        <ele>278</ele>
        <time>2022-08-19T07:44:58.000Z</time>
      </trkpt>
      <trkpt lat="49.86614" lon="4.74803">
        <ele>278</ele>
        <time>2022-08-19T07:44:59.000Z</time>
      </trkpt>
      <trkpt lat="49.86613" lon="4.74801">
        <ele>278</ele>
        <time>2022-08-19T07:45:00.000Z</time>
      </trkpt>
      <trkpt lat="49.86612" lon="4.74798">
        <ele>278</ele>
        <time>2022-08-19T07:45:01.000Z</time>
      </trkpt>
      <trkpt lat="49.86611" lon="4.74794">
        <ele>278</ele>
        <time>2022-08-19T07:45:02.000Z</time>
      </trkpt>
      <trkpt lat="49.8661" lon="4.74791">
        <ele>278</ele>
        <time>2022-08-19T07:45:03.000Z</time>
      </trkpt>
      <trkpt lat="49.86609" lon="4.74788">
        <ele>278</ele>
        <time>2022-08-19T07:45:04.000Z</time>
      </trkpt>
      <trkpt lat="49.86609" lon="4.74784">
        <ele>278</ele>
        <time>2022-08-19T07:45:05.000Z</time>
      </trkpt>
      <trkpt lat="49.86608" lon="4.7478">
        <ele>278</ele>
        <time>2022-08-19T07:45:06.000Z</time>
      </trkpt>
      <trkpt lat="49.86607" lon="4.74777">
        <ele>278</ele>
        <time>2022-08-19T07:45:07.000Z</time>
      </trkpt>
      <trkpt lat="49.86606" lon="4.74772">
        <ele>277</ele>
        <time>2022-08-19T07:45:08.000Z</time>
      </trkpt>
      <trkpt lat="49.86604" lon="4.74768">
        <ele>277</ele>
        <time>2022-08-19T07:45:09.000Z</time>
      </trkpt>
      <trkpt lat="49.86603" lon="4.74762">
        <ele>277</ele>
        <time>2022-08-19T07:45:10.000Z</time>
      </trkpt>
      <trkpt lat="49.86602" lon="4.74757">
        <ele>277</ele>
        <time>2022-08-19T07:45:11.000Z</time>
      </trkpt>
      <trkpt lat="49.86602" lon="4.74752">
        <ele>277</ele>
        <time>2022-08-19T07:45:12.000Z</time>
      </trkpt>
      <trkpt lat="49.86601" lon="4.74747">
        <ele>277</ele>
        <time>2022-08-19T07:45:13.000Z</time>
      </trkpt>
      <trkpt lat="49.866" lon="4.74741">
        <ele>277</ele>
        <time>2022-08-19T07:45:14.000Z</time>
      </trkpt>
      <trkpt lat="49.866" lon="4.74736">
        <ele>277</ele>
        <time>2022-08-19T07:45:15.000Z</time>
      </trkpt>
      <trkpt lat="49.86599" lon="4.74731">
        <ele>277</ele>
        <time>2022-08-19T07:45:16.000Z</time>
      </trkpt>
      <trkpt lat="49.86598" lon="4.74726">
        <ele>277</ele>
        <time>2022-08-19T07:45:17.000Z</time>
      </trkpt>
      <trkpt lat="49.86597" lon="4.7472">
        <ele>277</ele>
        <time>2022-08-19T07:45:18.000Z</time>
      </trkpt>
      <trkpt lat="49.86596" lon="4.74713">
        <ele>277</ele>
        <time>2022-08-19T07:45:19.000Z</time>
      </trkpt>
      <trkpt lat="49.86594" lon="4.74706">
        <ele>277</ele>
        <time>2022-08-19T07:45:20.000Z</time>
      </trkpt>
      <trkpt lat="49.86592" lon="4.74699">
        <ele>277</ele>
        <time>2022-08-19T07:45:21.000Z</time>
      </trkpt>
      <trkpt lat="49.8659" lon="4.74691">
        <ele>277</ele>
        <time>2022-08-19T07:45:22.000Z</time>
      </trkpt>
      <trkpt lat="49.86588" lon="4.74684">
        <ele>277</ele>
        <time>2022-08-19T07:45:23.000Z</time>
      </trkpt>
      <trkpt lat="49.86585" lon="4.74677">
        <ele>277</ele>
        <time>2022-08-19T07:45:24.000Z</time>
      </trkpt>
      <trkpt lat="49.86583" lon="4.74669">
        <ele>277</ele>
        <time>2022-08-19T07:45:25.000Z</time>
      </trkpt>
      <trkpt lat="49.86581" lon="4.74661">
        <ele>277</ele>
        <time>2022-08-19T07:45:26.000Z</time>
      </trkpt>
      <trkpt lat="49.86579" lon="4.74652">
        <ele>277</ele>
        <time>2022-08-19T07:45:27.000Z</time>
      </trkpt>
      <trkpt lat="49.86577" lon="4.74643">
        <ele>277</ele>
        <time>2022-08-19T07:45:28.000Z</time>
      </trkpt>
      <trkpt lat="49.86575" lon="4.74634">
        <ele>276</ele>
        <time>2022-08-19T07:45:29.000Z</time>
      </trkpt>
      <trkpt lat="49.86573" lon="4.74626">
        <ele>276</ele>
        <time>2022-08-19T07:45:30.000Z</time>
      </trkpt>
      <trkpt lat="49.86571" lon="4.74617">
        <ele>276</ele>
        <time>2022-08-19T07:45:31.000Z</time>
      </trkpt>
      <trkpt lat="49.86567" lon="4.74609">
        <ele>276</ele>
        <time>2022-08-19T07:45:32.000Z</time>
      </trkpt>
      <trkpt lat="49.86564" lon="4.74601">
        <ele>276</ele>
        <time>2022-08-19T07:45:33.000Z</time>
      </trkpt>
      <trkpt lat="49.8656" lon="4.74593">
        <ele>276</ele>
        <time>2022-08-19T07:45:34.000Z</time>
      </trkpt>
      <trkpt lat="49.86556" lon="4.74586">
        <ele>276</ele>
        <time>2022-08-19T07:45:35.000Z</time>
      </trkpt>
      <trkpt lat="49.86553" lon="4.74579">
        <ele>275</ele>
        <time>2022-08-19T07:45:36.000Z</time>
      </trkpt>
      <trkpt lat="49.8655" lon="4.74573">
        <ele>275</ele>
        <time>2022-08-19T07:45:37.000Z</time>
      </trkpt>
      <trkpt lat="49.86548" lon="4.74569">
        <ele>275</ele>
        <time>2022-08-19T07:45:38.000Z</time>
      </trkpt>
      <trkpt lat="49.86547" lon="4.74565">
        <ele>275</ele>
        <time>2022-08-19T07:45:39.000Z</time>
      </trkpt>
      <trkpt lat="49.86546" lon="4.74563">
        <ele>275</ele>
        <time>2022-08-19T07:45:40.000Z</time>
      </trkpt>
      <trkpt lat="49.86546" lon="4.7456">
        <ele>275</ele>
        <time>2022-08-19T07:45:41.000Z</time>
      </trkpt>
      <trkpt lat="49.86546" lon="4.74558">
        <ele>275</ele>
        <time>2022-08-19T07:45:42.000Z</time>
      </trkpt>
      <trkpt lat="49.86547" lon="4.74557">
        <ele>274</ele>
        <time>2022-08-19T07:45:43.000Z</time>
      </trkpt>
      <trkpt lat="49.86548" lon="4.74555">
        <ele>274</ele>
        <time>2022-08-19T07:45:44.000Z</time>
      </trkpt>
      <trkpt lat="49.8655" lon="4.74553">
        <ele>274</ele>
        <time>2022-08-19T07:45:45.000Z</time>
      </trkpt>
      <trkpt lat="49.86552" lon="4.74551">
        <ele>274</ele>
        <time>2022-08-19T07:45:46.000Z</time>
      </trkpt>
      <trkpt lat="49.86553" lon="4.74549">
        <ele>274</ele>
        <time>2022-08-19T07:45:47.000Z</time>
      </trkpt>
      <trkpt lat="49.86553" lon="4.74548">
        <ele>274</ele>
        <time>2022-08-19T07:45:48.000Z</time>
      </trkpt>
      <trkpt lat="49.86553" lon="4.74547">
        <ele>274</ele>
        <time>2022-08-19T07:45:49.000Z</time>
      </trkpt>
      <trkpt lat="49.86554" lon="4.74546">
        <ele>274</ele>
        <time>2022-08-19T07:45:50.000Z</time>
      </trkpt>
      <trkpt lat="49.86554" lon="4.74546">
        <ele>274</ele>
        <time>2022-08-19T07:45:51.000Z</time>
      </trkpt>
      <trkpt lat="49.86554" lon="4.74546">
        <ele>274</ele>
        <time>2022-08-19T07:45:52.000Z</time>
      </trkpt>
      <trkpt lat="49.86555" lon="4.74545">
        <ele>274</ele>
        <time>2022-08-19T07:45:53.000Z</time>
      </trkpt>
      <trkpt lat="49.86556" lon="4.74545">
        <ele>274</ele>
        <time>2022-08-19T07:45:54.000Z</time>
      </trkpt>
      <trkpt lat="49.86558" lon="4.74546">
        <ele>274</ele>
        <time>2022-08-19T07:45:55.000Z</time>
      </trkpt>
      <trkpt lat="49.8656" lon="4.74546">
        <ele>274</ele>
        <time>2022-08-19T07:45:56.000Z</time>
      </trkpt>
      <trkpt lat="49.86562" lon="4.74547">
        <ele>274</ele>
        <time>2022-08-19T07:45:57.000Z</time>
      </trkpt>
      <trkpt lat="49.86564" lon="4.74548">
        <ele>274</ele>
        <time>2022-08-19T07:45:58.000Z</time>
      </trkpt>
      <trkpt lat="49.86566" lon="4.74548">
        <ele>274</ele>
        <time>2022-08-19T07:45:59.000Z</time>
      </trkpt>
      <trkpt lat="49.86568" lon="4.74549">
        <ele>274</ele>
        <time>2022-08-19T07:46:00.000Z</time>
      </trkpt>
      <trkpt lat="49.86572" lon="4.74549">
        <ele>274</ele>
        <time>2022-08-19T07:46:01.000Z</time>
      </trkpt>
      <trkpt lat="49.86575" lon="4.74549">
        <ele>274</ele>
        <time>2022-08-19T07:46:02.000Z</time>
      </trkpt>
      <trkpt lat="49.8658" lon="4.7455">
        <ele>274</ele>
        <time>2022-08-19T07:46:03.000Z</time>
      </trkpt>
      <trkpt lat="49.86584" lon="4.7455">
        <ele>274</ele>
        <time>2022-08-19T07:46:04.000Z</time>
      </trkpt>
      <trkpt lat="49.86589" lon="4.74552">
        <ele>274</ele>
        <time>2022-08-19T07:46:05.000Z</time>
      </trkpt>
      <trkpt lat="49.86594" lon="4.74554">
        <ele>274</ele>
        <time>2022-08-19T07:46:06.000Z</time>
      </trkpt>
      <trkpt lat="49.866" lon="4.74556">
        <ele>274</ele>
        <time>2022-08-19T07:46:07.000Z</time>
      </trkpt>
      <trkpt lat="49.86605" lon="4.74559">
        <ele>274</ele>
        <time>2022-08-19T07:46:08.000Z</time>
      </trkpt>
      <trkpt lat="49.8661" lon="4.74563">
        <ele>274</ele>
        <time>2022-08-19T07:46:09.000Z</time>
      </trkpt>
      <trkpt lat="49.86616" lon="4.74566">
        <ele>273</ele>
        <time>2022-08-19T07:46:10.000Z</time>
      </trkpt>
      <trkpt lat="49.86622" lon="4.74568">
        <ele>273</ele>
        <time>2022-08-19T07:46:11.000Z</time>
      </trkpt>
      <trkpt lat="49.86628" lon="4.74568">
        <ele>273</ele>
        <time>2022-08-19T07:46:12.000Z</time>
      </trkpt>
      <trkpt lat="49.86633" lon="4.74567">
        <ele>273</ele>
        <time>2022-08-19T07:46:13.000Z</time>
      </trkpt>
      <trkpt lat="49.86638" lon="4.74565">
        <ele>273</ele>
        <time>2022-08-19T07:46:14.000Z</time>
      </trkpt>
      <trkpt lat="49.86642" lon="4.74564">
        <ele>273</ele>
        <time>2022-08-19T07:46:15.000Z</time>
      </trkpt>
      <trkpt lat="49.86647" lon="4.74563">
        <ele>272</ele>
        <time>2022-08-19T07:46:16.000Z</time>
      </trkpt>
      <trkpt lat="49.86651" lon="4.74563">
        <ele>272</ele>
        <time>2022-08-19T07:46:17.000Z</time>
      </trkpt>
      <trkpt lat="49.86655" lon="4.74563">
        <ele>272</ele>
        <time>2022-08-19T07:46:18.000Z</time>
      </trkpt>
      <trkpt lat="49.86658" lon="4.74564">
        <ele>272</ele>
        <time>2022-08-19T07:46:19.000Z</time>
      </trkpt>
      <trkpt lat="49.86662" lon="4.74565">
        <ele>272</ele>
        <time>2022-08-19T07:46:20.000Z</time>
      </trkpt>
      <trkpt lat="49.86667" lon="4.74566">
        <ele>271</ele>
        <time>2022-08-19T07:46:21.000Z</time>
      </trkpt>
      <trkpt lat="49.86671" lon="4.74568">
        <ele>271</ele>
        <time>2022-08-19T07:46:22.000Z</time>
      </trkpt>
      <trkpt lat="49.86675" lon="4.74569">
        <ele>271</ele>
        <time>2022-08-19T07:46:23.000Z</time>
      </trkpt>
      <trkpt lat="49.8668" lon="4.7457">
        <ele>271</ele>
        <time>2022-08-19T07:46:24.000Z</time>
      </trkpt>
      <trkpt lat="49.86685" lon="4.74572">
        <ele>271</ele>
        <time>2022-08-19T07:46:25.000Z</time>
      </trkpt>
      <trkpt lat="49.8669" lon="4.74573">
        <ele>271</ele>
        <time>2022-08-19T07:46:26.000Z</time>
      </trkpt>
      <trkpt lat="49.86695" lon="4.74574">
        <ele>270</ele>
        <time>2022-08-19T07:46:27.000Z</time>
      </trkpt>
      <trkpt lat="49.867" lon="4.74575">
        <ele>270</ele>
        <time>2022-08-19T07:46:28.000Z</time>
      </trkpt>
      <trkpt lat="49.86705" lon="4.74575">
        <ele>270</ele>
        <time>2022-08-19T07:46:29.000Z</time>
      </trkpt>
      <trkpt lat="49.8671" lon="4.74575">
        <ele>270</ele>
        <time>2022-08-19T07:46:30.000Z</time>
      </trkpt>
      <trkpt lat="49.86715" lon="4.74575">
        <ele>269</ele>
        <time>2022-08-19T07:46:31.000Z</time>
      </trkpt>
      <trkpt lat="49.86719" lon="4.74575">
        <ele>269</ele>
        <time>2022-08-19T07:46:32.000Z</time>
      </trkpt>
      <trkpt lat="49.86724" lon="4.74576">
        <ele>269</ele>
        <time>2022-08-19T07:46:33.000Z</time>
      </trkpt>
      <trkpt lat="49.86729" lon="4.74576">
        <ele>269</ele>
        <time>2022-08-19T07:46:34.000Z</time>
      </trkpt>
      <trkpt lat="49.86734" lon="4.74578">
        <ele>269</ele>
        <time>2022-08-19T07:46:35.000Z</time>
      </trkpt>
      <trkpt lat="49.86738" lon="4.74579">
        <ele>269</ele>
        <time>2022-08-19T07:46:36.000Z</time>
      </trkpt>
      <trkpt lat="49.86742" lon="4.74581">
        <ele>268</ele>
        <time>2022-08-19T07:46:37.000Z</time>
      </trkpt>
      <trkpt lat="49.86746" lon="4.74583">
        <ele>268</ele>
        <time>2022-08-19T07:46:38.000Z</time>
      </trkpt>
      <trkpt lat="49.86751" lon="4.74584">
        <ele>268</ele>
        <time>2022-08-19T07:46:39.000Z</time>
      </trkpt>
      <trkpt lat="49.86755" lon="4.74585">
        <ele>268</ele>
        <time>2022-08-19T07:46:40.000Z</time>
      </trkpt>
      <trkpt lat="49.8676" lon="4.74585">
        <ele>268</ele>
        <time>2022-08-19T07:46:41.000Z</time>
      </trkpt>
      <trkpt lat="49.86765" lon="4.74586">
        <ele>268</ele>
        <time>2022-08-19T07:46:42.000Z</time>
      </trkpt>
      <trkpt lat="49.8677" lon="4.74585">
        <ele>268</ele>
        <time>2022-08-19T07:46:43.000Z</time>
      </trkpt>
      <trkpt lat="49.86776" lon="4.74585">
        <ele>267</ele>
        <time>2022-08-19T07:46:44.000Z</time>
      </trkpt>
      <trkpt lat="49.86783" lon="4.74584">
        <ele>267</ele>
        <time>2022-08-19T07:46:45.000Z</time>
      </trkpt>
      <trkpt lat="49.86789" lon="4.74582">
        <ele>267</ele>
        <time>2022-08-19T07:46:46.000Z</time>
      </trkpt>
      <trkpt lat="49.86796" lon="4.74579">
        <ele>266</ele>
        <time>2022-08-19T07:46:47.000Z</time>
      </trkpt>
      <trkpt lat="49.86802" lon="4.74576">
        <ele>266</ele>
        <time>2022-08-19T07:46:48.000Z</time>
      </trkpt>
      <trkpt lat="49.86809" lon="4.74573">
        <ele>266</ele>
        <time>2022-08-19T07:46:49.000Z</time>
      </trkpt>
      <trkpt lat="49.86816" lon="4.7457">
        <ele>265</ele>
        <time>2022-08-19T07:46:50.000Z</time>
      </trkpt>
      <trkpt lat="49.86823" lon="4.74565">
        <ele>265</ele>
        <time>2022-08-19T07:46:51.000Z</time>
      </trkpt>
      <trkpt lat="49.8683" lon="4.7456">
        <ele>265</ele>
        <time>2022-08-19T07:46:52.000Z</time>
      </trkpt>
      <trkpt lat="49.86837" lon="4.74555">
        <ele>264</ele>
        <time>2022-08-19T07:46:53.000Z</time>
      </trkpt>
      <trkpt lat="49.86842" lon="4.74551">
        <ele>264</ele>
        <time>2022-08-19T07:46:54.000Z</time>
      </trkpt>
      <trkpt lat="49.86847" lon="4.74549">
        <ele>264</ele>
        <time>2022-08-19T07:46:55.000Z</time>
      </trkpt>
      <trkpt lat="49.86851" lon="4.74548">
        <ele>263</ele>
        <time>2022-08-19T07:46:56.000Z</time>
      </trkpt>
      <trkpt lat="49.86855" lon="4.74549">
        <ele>263</ele>
        <time>2022-08-19T07:46:57.000Z</time>
      </trkpt>
      <trkpt lat="49.8686" lon="4.7455">
        <ele>262</ele>
        <time>2022-08-19T07:46:58.000Z</time>
      </trkpt>
      <trkpt lat="49.86864" lon="4.74552">
        <ele>262</ele>
        <time>2022-08-19T07:46:59.000Z</time>
      </trkpt>
      <trkpt lat="49.8687" lon="4.74554">
        <ele>261</ele>
        <time>2022-08-19T07:47:00.000Z</time>
      </trkpt>
      <trkpt lat="49.86876" lon="4.74558">
        <ele>261</ele>
        <time>2022-08-19T07:47:01.000Z</time>
      </trkpt>
      <trkpt lat="49.86882" lon="4.74561">
        <ele>260</ele>
        <time>2022-08-19T07:47:02.000Z</time>
      </trkpt>
      <trkpt lat="49.86888" lon="4.74566">
        <ele>260</ele>
        <time>2022-08-19T07:47:03.000Z</time>
      </trkpt>
      <trkpt lat="49.86894" lon="4.74569">
        <ele>259</ele>
        <time>2022-08-19T07:47:04.000Z</time>
      </trkpt>
      <trkpt lat="49.869" lon="4.74572">
        <ele>259</ele>
        <time>2022-08-19T07:47:05.000Z</time>
      </trkpt>
      <trkpt lat="49.86906" lon="4.74573">
        <ele>258</ele>
        <time>2022-08-19T07:47:06.000Z</time>
      </trkpt>
      <trkpt lat="49.86913" lon="4.74573">
        <ele>258</ele>
        <time>2022-08-19T07:47:07.000Z</time>
      </trkpt>
      <trkpt lat="49.86921" lon="4.74571">
        <ele>257</ele>
        <time>2022-08-19T07:47:08.000Z</time>
      </trkpt>
      <trkpt lat="49.86928" lon="4.74569">
        <ele>256</ele>
        <time>2022-08-19T07:47:09.000Z</time>
      </trkpt>
      <trkpt lat="49.86935" lon="4.74566">
        <ele>256</ele>
        <time>2022-08-19T07:47:10.000Z</time>
      </trkpt>
      <trkpt lat="49.86942" lon="4.74563">
        <ele>255</ele>
        <time>2022-08-19T07:47:11.000Z</time>
      </trkpt>
      <trkpt lat="49.86949" lon="4.74562">
        <ele>255</ele>
        <time>2022-08-19T07:47:12.000Z</time>
      </trkpt>
      <trkpt lat="49.86956" lon="4.7456">
        <ele>255</ele>
        <time>2022-08-19T07:47:13.000Z</time>
      </trkpt>
      <trkpt lat="49.86963" lon="4.74559">
        <ele>254</ele>
        <time>2022-08-19T07:47:14.000Z</time>
      </trkpt>
      <trkpt lat="49.8697" lon="4.7456">
        <ele>253</ele>
        <time>2022-08-19T07:47:15.000Z</time>
      </trkpt>
      <trkpt lat="49.86978" lon="4.74561">
        <ele>253</ele>
        <time>2022-08-19T07:47:16.000Z</time>
      </trkpt>
      <trkpt lat="49.86986" lon="4.74563">
        <ele>252</ele>
        <time>2022-08-19T07:47:17.000Z</time>
      </trkpt>
      <trkpt lat="49.86994" lon="4.74565">
        <ele>252</ele>
        <time>2022-08-19T07:47:18.000Z</time>
      </trkpt>
      <trkpt lat="49.87" lon="4.74565">
        <ele>251</ele>
        <time>2022-08-19T07:47:19.000Z</time>
      </trkpt>
      <trkpt lat="49.87008" lon="4.74566">
        <ele>250</ele>
        <time>2022-08-19T07:47:20.000Z</time>
      </trkpt>
      <trkpt lat="49.87016" lon="4.74567">
        <ele>250</ele>
        <time>2022-08-19T07:47:21.000Z</time>
      </trkpt>
      <trkpt lat="49.87025" lon="4.74568">
        <ele>249</ele>
        <time>2022-08-19T07:47:22.000Z</time>
      </trkpt>
      <trkpt lat="49.87034" lon="4.74569">
        <ele>248</ele>
        <time>2022-08-19T07:47:23.000Z</time>
      </trkpt>
      <trkpt lat="49.87043" lon="4.74569">
        <ele>247</ele>
        <time>2022-08-19T07:47:24.000Z</time>
      </trkpt>
      <trkpt lat="49.8705" lon="4.74569">
        <ele>247</ele>
        <time>2022-08-19T07:47:25.000Z</time>
      </trkpt>
      <trkpt lat="49.87058" lon="4.7457">
        <ele>246</ele>
        <time>2022-08-19T07:47:26.000Z</time>
      </trkpt>
      <trkpt lat="49.87065" lon="4.74573">
        <ele>245</ele>
        <time>2022-08-19T07:47:27.000Z</time>
      </trkpt>
      <trkpt lat="49.87073" lon="4.74576">
        <ele>244</ele>
        <time>2022-08-19T07:47:28.000Z</time>
      </trkpt>
      <trkpt lat="49.8708" lon="4.74578">
        <ele>243</ele>
        <time>2022-08-19T07:47:29.000Z</time>
      </trkpt>
      <trkpt lat="49.87087" lon="4.7458">
        <ele>242</ele>
        <time>2022-08-19T07:47:30.000Z</time>
      </trkpt>
      <trkpt lat="49.87094" lon="4.74581">
        <ele>241</ele>
        <time>2022-08-19T07:47:31.000Z</time>
      </trkpt>
      <trkpt lat="49.87101" lon="4.74581">
        <ele>241</ele>
        <time>2022-08-19T07:47:32.000Z</time>
      </trkpt>
      <trkpt lat="49.87108" lon="4.74582">
        <ele>240</ele>
        <time>2022-08-19T07:47:33.000Z</time>
      </trkpt>
      <trkpt lat="49.87116" lon="4.74583">
        <ele>239</ele>
        <time>2022-08-19T07:47:34.000Z</time>
      </trkpt>
      <trkpt lat="49.87124" lon="4.74583">
        <ele>238</ele>
        <time>2022-08-19T07:47:35.000Z</time>
      </trkpt>
      <trkpt lat="49.87131" lon="4.74583">
        <ele>237</ele>
        <time>2022-08-19T07:47:36.000Z</time>
      </trkpt>
      <trkpt lat="49.87137" lon="4.74583">
        <ele>237</ele>
        <time>2022-08-19T07:47:37.000Z</time>
      </trkpt>
      <trkpt lat="49.87141" lon="4.74583">
        <ele>236</ele>
        <time>2022-08-19T07:47:38.000Z</time>
      </trkpt>
      <trkpt lat="49.87145" lon="4.74584">
        <ele>235</ele>
        <time>2022-08-19T07:47:39.000Z</time>
      </trkpt>
      <trkpt lat="49.87149" lon="4.74586">
        <ele>235</ele>
        <time>2022-08-19T07:47:40.000Z</time>
      </trkpt>
      <trkpt lat="49.87152" lon="4.74589">
        <ele>234</ele>
        <time>2022-08-19T07:47:41.000Z</time>
      </trkpt>
      <trkpt lat="49.87156" lon="4.74592">
        <ele>233</ele>
        <time>2022-08-19T07:47:42.000Z</time>
      </trkpt>
      <trkpt lat="49.87159" lon="4.74593">
        <ele>233</ele>
        <time>2022-08-19T07:47:43.000Z</time>
      </trkpt>
      <trkpt lat="49.87162" lon="4.74594">
        <ele>232</ele>
        <time>2022-08-19T07:47:44.000Z</time>
      </trkpt>
      <trkpt lat="49.87166" lon="4.74595">
        <ele>231</ele>
        <time>2022-08-19T07:47:45.000Z</time>
      </trkpt>
      <trkpt lat="49.8717" lon="4.74596">
        <ele>231</ele>
        <time>2022-08-19T07:47:46.000Z</time>
      </trkpt>
      <trkpt lat="49.87175" lon="4.74597">
        <ele>230</ele>
        <time>2022-08-19T07:47:47.000Z</time>
      </trkpt>
      <trkpt lat="49.87179" lon="4.74599">
        <ele>230</ele>
        <time>2022-08-19T07:47:48.000Z</time>
      </trkpt>
      <trkpt lat="49.87182" lon="4.74601">
        <ele>229</ele>
        <time>2022-08-19T07:47:49.000Z</time>
      </trkpt>
      <trkpt lat="49.87185" lon="4.74604">
        <ele>228</ele>
        <time>2022-08-19T07:47:50.000Z</time>
      </trkpt>
      <trkpt lat="49.87187" lon="4.74606">
        <ele>228</ele>
        <time>2022-08-19T07:47:51.000Z</time>
      </trkpt>
      <trkpt lat="49.87189" lon="4.74607">
        <ele>227</ele>
        <time>2022-08-19T07:47:52.000Z</time>
      </trkpt>
      <trkpt lat="49.8719" lon="4.74608">
        <ele>227</ele>
        <time>2022-08-19T07:47:53.000Z</time>
      </trkpt>
      <trkpt lat="49.87192" lon="4.7461">
        <ele>227</ele>
        <time>2022-08-19T07:47:54.000Z</time>
      </trkpt>
      <trkpt lat="49.87194" lon="4.74612">
        <ele>226</ele>
        <time>2022-08-19T07:47:55.000Z</time>
      </trkpt>
      <trkpt lat="49.87195" lon="4.74613">
        <ele>226</ele>
        <time>2022-08-19T07:47:56.000Z</time>
      </trkpt>
      <trkpt lat="49.87197" lon="4.74615">
        <ele>226</ele>
        <time>2022-08-19T07:47:57.000Z</time>
      </trkpt>
      <trkpt lat="49.87199" lon="4.74616">
        <ele>225</ele>
        <time>2022-08-19T07:47:58.000Z</time>
      </trkpt>
      <trkpt lat="49.872" lon="4.74617">
        <ele>225</ele>
        <time>2022-08-19T07:47:59.000Z</time>
      </trkpt>
      <trkpt lat="49.87202" lon="4.74619">
        <ele>225</ele>
        <time>2022-08-19T07:48:00.000Z</time>
      </trkpt>
      <trkpt lat="49.87203" lon="4.7462">
        <ele>225</ele>
        <time>2022-08-19T07:48:01.000Z</time>
      </trkpt>
      <trkpt lat="49.87205" lon="4.74622">
        <ele>224</ele>
        <time>2022-08-19T07:48:02.000Z</time>
      </trkpt>
      <trkpt lat="49.87207" lon="4.74623">
        <ele>224</ele>
        <time>2022-08-19T07:48:03.000Z</time>
      </trkpt>
      <trkpt lat="49.87208" lon="4.74624">
        <ele>224</ele>
        <time>2022-08-19T07:48:04.000Z</time>
      </trkpt>
      <trkpt lat="49.8721" lon="4.74625">
        <ele>224</ele>
        <time>2022-08-19T07:48:05.000Z</time>
      </trkpt>
      <trkpt lat="49.87211" lon="4.74627">
        <ele>224</ele>
        <time>2022-08-19T07:48:06.000Z</time>
      </trkpt>
      <trkpt lat="49.87213" lon="4.74629">
        <ele>224</ele>
        <time>2022-08-19T07:48:07.000Z</time>
      </trkpt>
      <trkpt lat="49.87215" lon="4.74631">
        <ele>224</ele>
        <time>2022-08-19T07:48:08.000Z</time>
      </trkpt>
      <trkpt lat="49.87218" lon="4.74633">
        <ele>224</ele>
        <time>2022-08-19T07:48:09.000Z</time>
      </trkpt>
      <trkpt lat="49.87221" lon="4.74634">
        <ele>224</ele>
        <time>2022-08-19T07:48:10.000Z</time>
      </trkpt>
      <trkpt lat="49.87225" lon="4.74637">
        <ele>224</ele>
        <time>2022-08-19T07:48:11.000Z</time>
      </trkpt>
      <trkpt lat="49.87228" lon="4.7464">
        <ele>224</ele>
        <time>2022-08-19T07:48:12.000Z</time>
      </trkpt>
      <trkpt lat="49.87231" lon="4.74642">
        <ele>224</ele>
        <time>2022-08-19T07:48:13.000Z</time>
      </trkpt>
      <trkpt lat="49.87235" lon="4.74644">
        <ele>225</ele>
        <time>2022-08-19T07:48:14.000Z</time>
      </trkpt>
      <trkpt lat="49.87238" lon="4.74646">
        <ele>225</ele>
        <time>2022-08-19T07:48:15.000Z</time>
      </trkpt>
      <trkpt lat="49.87241" lon="4.74649">
        <ele>225</ele>
        <time>2022-08-19T07:48:16.000Z</time>
      </trkpt>
      <trkpt lat="49.87244" lon="4.74651">
        <ele>225</ele>
        <time>2022-08-19T07:48:17.000Z</time>
      </trkpt>
      <trkpt lat="49.87247" lon="4.74654">
        <ele>225</ele>
        <time>2022-08-19T07:48:18.000Z</time>
      </trkpt>
      <trkpt lat="49.8725" lon="4.74656">
        <ele>225</ele>
        <time>2022-08-19T07:48:19.000Z</time>
      </trkpt>
      <trkpt lat="49.87254" lon="4.74658">
        <ele>225</ele>
        <time>2022-08-19T07:48:20.000Z</time>
      </trkpt>
      <trkpt lat="49.87256" lon="4.7466">
        <ele>225</ele>
        <time>2022-08-19T07:48:21.000Z</time>
      </trkpt>
      <trkpt lat="49.87259" lon="4.74662">
        <ele>225</ele>
        <time>2022-08-19T07:48:22.000Z</time>
      </trkpt>
      <trkpt lat="49.87261" lon="4.74664">
        <ele>225</ele>
        <time>2022-08-19T07:48:23.000Z</time>
      </trkpt>
      <trkpt lat="49.87264" lon="4.74667">
        <ele>225</ele>
        <time>2022-08-19T07:48:24.000Z</time>
      </trkpt>
      <trkpt lat="49.87266" lon="4.74669">
        <ele>225</ele>
        <time>2022-08-19T07:48:25.000Z</time>
      </trkpt>
      <trkpt lat="49.87268" lon="4.74671">
        <ele>225</ele>
        <time>2022-08-19T07:48:26.000Z</time>
      </trkpt>
      <trkpt lat="49.87271" lon="4.74673">
        <ele>225</ele>
        <time>2022-08-19T07:48:27.000Z</time>
      </trkpt>
      <trkpt lat="49.87274" lon="4.74676">
        <ele>225</ele>
        <time>2022-08-19T07:48:28.000Z</time>
      </trkpt>
      <trkpt lat="49.87277" lon="4.74678">
        <ele>225</ele>
        <time>2022-08-19T07:48:29.000Z</time>
      </trkpt>
      <trkpt lat="49.8728" lon="4.7468">
        <ele>225</ele>
        <time>2022-08-19T07:48:30.000Z</time>
      </trkpt>
      <trkpt lat="49.87282" lon="4.74682">
        <ele>225</ele>
        <time>2022-08-19T07:48:31.000Z</time>
      </trkpt>
      <trkpt lat="49.87284" lon="4.74684">
        <ele>225</ele>
        <time>2022-08-19T07:48:32.000Z</time>
      </trkpt>
      <trkpt lat="49.87286" lon="4.74686">
        <ele>225</ele>
        <time>2022-08-19T07:48:33.000Z</time>
      </trkpt>
      <trkpt lat="49.87288" lon="4.74687">
        <ele>225</ele>
        <time>2022-08-19T07:48:34.000Z</time>
      </trkpt>
      <trkpt lat="49.8729" lon="4.7469">
        <ele>226</ele>
        <time>2022-08-19T07:48:35.000Z</time>
      </trkpt>
      <trkpt lat="49.87292" lon="4.74692">
        <ele>226</ele>
        <time>2022-08-19T07:48:36.000Z</time>
      </trkpt>
      <trkpt lat="49.87294" lon="4.74694">
        <ele>226</ele>
        <time>2022-08-19T07:48:37.000Z</time>
      </trkpt>
      <trkpt lat="49.87295" lon="4.74695">
        <ele>226</ele>
        <time>2022-08-19T07:48:38.000Z</time>
      </trkpt>
      <trkpt lat="49.87297" lon="4.74697">
        <ele>226</ele>
        <time>2022-08-19T07:48:39.000Z</time>
      </trkpt>
      <trkpt lat="49.87298" lon="4.74699">
        <ele>226</ele>
        <time>2022-08-19T07:48:40.000Z</time>
      </trkpt>
      <trkpt lat="49.873" lon="4.74701">
        <ele>226</ele>
        <time>2022-08-19T07:48:41.000Z</time>
      </trkpt>
      <trkpt lat="49.87302" lon="4.74703">
        <ele>226</ele>
        <time>2022-08-19T07:48:42.000Z</time>
      </trkpt>
      <trkpt lat="49.87304" lon="4.74705">
        <ele>226</ele>
        <time>2022-08-19T07:48:43.000Z</time>
      </trkpt>
      <trkpt lat="49.87306" lon="4.74707">
        <ele>227</ele>
        <time>2022-08-19T07:48:44.000Z</time>
      </trkpt>
      <trkpt lat="49.87307" lon="4.74708">
        <ele>227</ele>
        <time>2022-08-19T07:48:45.000Z</time>
      </trkpt>
      <trkpt lat="49.87309" lon="4.7471">
        <ele>227</ele>
        <time>2022-08-19T07:48:46.000Z</time>
      </trkpt>
      <trkpt lat="49.87311" lon="4.74713">
        <ele>227</ele>
        <time>2022-08-19T07:48:47.000Z</time>
      </trkpt>
      <trkpt lat="49.87312" lon="4.74715">
        <ele>227</ele>
        <time>2022-08-19T07:48:48.000Z</time>
      </trkpt>
      <trkpt lat="49.87313" lon="4.74717">
        <ele>228</ele>
        <time>2022-08-19T07:48:49.000Z</time>
      </trkpt>
      <trkpt lat="49.87315" lon="4.74719">
        <ele>228</ele>
        <time>2022-08-19T07:48:50.000Z</time>
      </trkpt>
      <trkpt lat="49.87316" lon="4.7472">
        <ele>228</ele>
        <time>2022-08-19T07:48:51.000Z</time>
      </trkpt>
      <trkpt lat="49.87317" lon="4.7472">
        <ele>228</ele>
        <time>2022-08-19T07:48:52.000Z</time>
      </trkpt>
      <trkpt lat="49.87318" lon="4.74719">
        <ele>228</ele>
        <time>2022-08-19T07:48:53.000Z</time>
      </trkpt>
      <trkpt lat="49.87319" lon="4.74719">
        <ele>229</ele>
        <time>2022-08-19T07:48:54.000Z</time>
      </trkpt>
      <trkpt lat="49.87319" lon="4.7472">
        <ele>229</ele>
        <time>2022-08-19T07:48:55.000Z</time>
      </trkpt>
      <trkpt lat="49.8732" lon="4.7472">
        <ele>229</ele>
        <time>2022-08-19T07:48:56.000Z</time>
      </trkpt>
      <trkpt lat="49.87321" lon="4.74721">
        <ele>229</ele>
        <time>2022-08-19T07:48:57.000Z</time>
      </trkpt>
      <trkpt lat="49.87321" lon="4.74721">
        <ele>230</ele>
        <time>2022-08-19T07:48:58.000Z</time>
      </trkpt>
      <trkpt lat="49.87322" lon="4.74722">
        <ele>230</ele>
        <time>2022-08-19T07:48:59.000Z</time>
      </trkpt>
      <trkpt lat="49.87323" lon="4.74722">
        <ele>230</ele>
        <time>2022-08-19T07:49:00.000Z</time>
      </trkpt>
      <trkpt lat="49.87325" lon="4.74722">
        <ele>230</ele>
        <time>2022-08-19T07:49:01.000Z</time>
      </trkpt>
      <trkpt lat="49.87326" lon="4.74722">
        <ele>231</ele>
        <time>2022-08-19T07:49:02.000Z</time>
      </trkpt>
      <trkpt lat="49.87326" lon="4.74722">
        <ele>231</ele>
        <time>2022-08-19T07:49:03.000Z</time>
      </trkpt>
      <trkpt lat="49.87327" lon="4.74722">
        <ele>231</ele>
        <time>2022-08-19T07:49:04.000Z</time>
      </trkpt>
      <trkpt lat="49.87328" lon="4.74722">
        <ele>231</ele>
        <time>2022-08-19T07:49:05.000Z</time>
      </trkpt>
      <trkpt lat="49.87328" lon="4.74722">
        <ele>231</ele>
        <time>2022-08-19T07:49:06.000Z</time>
      </trkpt>
      <trkpt lat="49.87329" lon="4.74723">
        <ele>231</ele>
        <time>2022-08-19T07:49:07.000Z</time>
      </trkpt>
      <trkpt lat="49.8733" lon="4.74724">
        <ele>231</ele>
        <time>2022-08-19T07:49:08.000Z</time>
      </trkpt>
      <trkpt lat="49.87331" lon="4.74725">
        <ele>231</ele>
        <time>2022-08-19T07:49:09.000Z</time>
      </trkpt>
      <trkpt lat="49.87332" lon="4.74725">
        <ele>231</ele>
        <time>2022-08-19T07:49:10.000Z</time>
      </trkpt>
      <trkpt lat="49.87332" lon="4.74725">
        <ele>232</ele>
        <time>2022-08-19T07:49:11.000Z</time>
      </trkpt>
      <trkpt lat="49.87332" lon="4.74725">
        <ele>232</ele>
        <time>2022-08-19T07:49:12.000Z</time>
      </trkpt>
      <trkpt lat="49.87333" lon="4.74726">
        <ele>232</ele>
        <time>2022-08-19T07:49:13.000Z</time>
      </trkpt>
      <trkpt lat="49.87335" lon="4.74727">
        <ele>232</ele>
        <time>2022-08-19T07:49:14.000Z</time>
      </trkpt>
      <trkpt lat="49.87336" lon="4.74727">
        <ele>232</ele>
        <time>2022-08-19T07:49:15.000Z</time>
      </trkpt>
      <trkpt lat="49.87338" lon="4.74728">
        <ele>232</ele>
        <time>2022-08-19T07:49:16.000Z</time>
      </trkpt>
      <trkpt lat="49.8734" lon="4.74729">
        <ele>232</ele>
        <time>2022-08-19T07:49:17.000Z</time>
      </trkpt>
      <trkpt lat="49.87342" lon="4.74731">
        <ele>232</ele>
        <time>2022-08-19T07:49:18.000Z</time>
      </trkpt>
      <trkpt lat="49.87345" lon="4.74732">
        <ele>232</ele>
        <time>2022-08-19T07:49:19.000Z</time>
      </trkpt>
      <trkpt lat="49.87349" lon="4.74733">
        <ele>232</ele>
        <time>2022-08-19T07:49:20.000Z</time>
      </trkpt>
      <trkpt lat="49.87352" lon="4.74734">
        <ele>232</ele>
        <time>2022-08-19T07:49:21.000Z</time>
      </trkpt>
      <trkpt lat="49.87354" lon="4.74736">
        <ele>232</ele>
        <time>2022-08-19T07:49:22.000Z</time>
      </trkpt>
      <trkpt lat="49.87357" lon="4.74737">
        <ele>232</ele>
        <time>2022-08-19T07:49:23.000Z</time>
      </trkpt>
      <trkpt lat="49.87359" lon="4.74738">
        <ele>232</ele>
        <time>2022-08-19T07:49:24.000Z</time>
      </trkpt>
      <trkpt lat="49.87362" lon="4.74739">
        <ele>232</ele>
        <time>2022-08-19T07:49:25.000Z</time>
      </trkpt>
      <trkpt lat="49.87364" lon="4.7474">
        <ele>232</ele>
        <time>2022-08-19T07:49:26.000Z</time>
      </trkpt>
      <trkpt lat="49.87365" lon="4.7474">
        <ele>232</ele>
        <time>2022-08-19T07:49:27.000Z</time>
      </trkpt>
      <trkpt lat="49.87367" lon="4.74741">
        <ele>233</ele>
        <time>2022-08-19T07:49:28.000Z</time>
      </trkpt>
      <trkpt lat="49.87369" lon="4.74742">
        <ele>233</ele>
        <time>2022-08-19T07:49:29.000Z</time>
      </trkpt>
      <trkpt lat="49.87371" lon="4.74743">
        <ele>233</ele>
        <time>2022-08-19T07:49:30.000Z</time>
      </trkpt>
      <trkpt lat="49.87374" lon="4.74743">
        <ele>233</ele>
        <time>2022-08-19T07:49:31.000Z</time>
      </trkpt>
      <trkpt lat="49.87375" lon="4.74744">
        <ele>233</ele>
        <time>2022-08-19T07:49:32.000Z</time>
      </trkpt>
      <trkpt lat="49.87377" lon="4.74746">
        <ele>233</ele>
        <time>2022-08-19T07:49:33.000Z</time>
      </trkpt>
      <trkpt lat="49.87378" lon="4.74746">
        <ele>233</ele>
        <time>2022-08-19T07:49:34.000Z</time>
      </trkpt>
      <trkpt lat="49.8738" lon="4.74746">
        <ele>233</ele>
        <time>2022-08-19T07:49:35.000Z</time>
      </trkpt>
      <trkpt lat="49.87381" lon="4.74746">
        <ele>233</ele>
        <time>2022-08-19T07:49:36.000Z</time>
      </trkpt>
      <trkpt lat="49.87383" lon="4.74746">
        <ele>233</ele>
        <time>2022-08-19T07:49:37.000Z</time>
      </trkpt>
      <trkpt lat="49.87386" lon="4.74746">
        <ele>233</ele>
        <time>2022-08-19T07:49:38.000Z</time>
      </trkpt>
      <trkpt lat="49.87389" lon="4.74746">
        <ele>233</ele>
        <time>2022-08-19T07:49:39.000Z</time>
      </trkpt>
      <trkpt lat="49.87391" lon="4.74746">
        <ele>233</ele>
        <time>2022-08-19T07:49:40.000Z</time>
      </trkpt>
      <trkpt lat="49.87394" lon="4.74745">
        <ele>232</ele>
        <time>2022-08-19T07:49:41.000Z</time>
      </trkpt>
      <trkpt lat="49.87396" lon="4.74744">
        <ele>232</ele>
        <time>2022-08-19T07:49:42.000Z</time>
      </trkpt>
      <trkpt lat="49.87398" lon="4.74744">
        <ele>232</ele>
        <time>2022-08-19T07:49:43.000Z</time>
      </trkpt>
      <trkpt lat="49.874" lon="4.74743">
        <ele>232</ele>
        <time>2022-08-19T07:49:44.000Z</time>
      </trkpt>
      <trkpt lat="49.87403" lon="4.74743">
        <ele>232</ele>
        <time>2022-08-19T07:49:45.000Z</time>
      </trkpt>
      <trkpt lat="49.87406" lon="4.74742">
        <ele>232</ele>
        <time>2022-08-19T07:49:46.000Z</time>
      </trkpt>
      <trkpt lat="49.87409" lon="4.74741">
        <ele>231</ele>
        <time>2022-08-19T07:49:47.000Z</time>
      </trkpt>
      <trkpt lat="49.87412" lon="4.74739">
        <ele>231</ele>
        <time>2022-08-19T07:49:48.000Z</time>
      </trkpt>
      <trkpt lat="49.87415" lon="4.74738">
        <ele>231</ele>
        <time>2022-08-19T07:49:49.000Z</time>
      </trkpt>
      <trkpt lat="49.87418" lon="4.74737">
        <ele>231</ele>
        <time>2022-08-19T07:49:50.000Z</time>
      </trkpt>
      <trkpt lat="49.87422" lon="4.74735">
        <ele>231</ele>
        <time>2022-08-19T07:49:51.000Z</time>
      </trkpt>
      <trkpt lat="49.87425" lon="4.74733">
        <ele>230</ele>
        <time>2022-08-19T07:49:52.000Z</time>
      </trkpt>
      <trkpt lat="49.87429" lon="4.74731">
        <ele>230</ele>
        <time>2022-08-19T07:49:53.000Z</time>
      </trkpt>
      <trkpt lat="49.87433" lon="4.7473">
        <ele>230</ele>
        <time>2022-08-19T07:49:54.000Z</time>
      </trkpt>
      <trkpt lat="49.87437" lon="4.74729">
        <ele>230</ele>
        <time>2022-08-19T07:49:55.000Z</time>
      </trkpt>
      <trkpt lat="49.8744" lon="4.7473">
        <ele>229</ele>
        <time>2022-08-19T07:49:56.000Z</time>
      </trkpt>
      <trkpt lat="49.87443" lon="4.7473">
        <ele>229</ele>
        <time>2022-08-19T07:49:57.000Z</time>
      </trkpt>
      <trkpt lat="49.87444" lon="4.7473">
        <ele>229</ele>
        <time>2022-08-19T07:49:58.000Z</time>
      </trkpt>
      <trkpt lat="49.87444" lon="4.7473">
        <ele>229</ele>
        <time>2022-08-19T07:49:59.000Z</time>
      </trkpt>
      <trkpt lat="49.87444" lon="4.7473">
        <ele>229</ele>
        <time>2022-08-19T07:50:00.000Z</time>
      </trkpt>
      <trkpt lat="49.87445" lon="4.7473">
        <ele>228</ele>
        <time>2022-08-19T07:50:01.000Z</time>
      </trkpt>
      <trkpt lat="49.87445" lon="4.7473">
        <ele>228</ele>
        <time>2022-08-19T07:50:02.000Z</time>
      </trkpt>
      <trkpt lat="49.87445" lon="4.7473">
        <ele>228</ele>
        <time>2022-08-19T07:50:03.000Z</time>
      </trkpt>
      <trkpt lat="49.87445" lon="4.7473">
        <ele>228</ele>
        <time>2022-08-19T07:50:04.000Z</time>
      </trkpt>
      <trkpt lat="49.87446" lon="4.74729">
        <ele>228</ele>
        <time>2022-08-19T07:50:05.000Z</time>
      </trkpt>
      <trkpt lat="49.87447" lon="4.74728">
        <ele>228</ele>
        <time>2022-08-19T07:50:06.000Z</time>
      </trkpt>
      <trkpt lat="49.87448" lon="4.74727">
        <ele>228</ele>
        <time>2022-08-19T07:50:07.000Z</time>
      </trkpt>
      <trkpt lat="49.87448" lon="4.74725">
        <ele>228</ele>
        <time>2022-08-19T07:50:08.000Z</time>
      </trkpt>
      <trkpt lat="49.87448" lon="4.74723">
        <ele>228</ele>
        <time>2022-08-19T07:50:09.000Z</time>
      </trkpt>
      <trkpt lat="49.87448" lon="4.7472">
        <ele>228</ele>
        <time>2022-08-19T07:50:10.000Z</time>
      </trkpt>
      <trkpt lat="49.87449" lon="4.74716">
        <ele>227</ele>
        <time>2022-08-19T07:50:11.000Z</time>
      </trkpt>
      <trkpt lat="49.87449" lon="4.7471">
        <ele>227</ele>
        <time>2022-08-19T07:50:12.000Z</time>
      </trkpt>
      <trkpt lat="49.87449" lon="4.74704">
        <ele>227</ele>
        <time>2022-08-19T07:50:13.000Z</time>
      </trkpt>
      <trkpt lat="49.87449" lon="4.74699">
        <ele>227</ele>
        <time>2022-08-19T07:50:14.000Z</time>
      </trkpt>
      <trkpt lat="49.87449" lon="4.74694">
        <ele>227</ele>
        <time>2022-08-19T07:50:15.000Z</time>
      </trkpt>
      <trkpt lat="49.87449" lon="4.7469">
        <ele>226</ele>
        <time>2022-08-19T07:50:16.000Z</time>
      </trkpt>
      <trkpt lat="49.87449" lon="4.74686">
        <ele>226</ele>
        <time>2022-08-19T07:50:17.000Z</time>
      </trkpt>
      <trkpt lat="49.87449" lon="4.74682">
        <ele>226</ele>
        <time>2022-08-19T07:50:18.000Z</time>
      </trkpt>
      <trkpt lat="49.87449" lon="4.74678">
        <ele>226</ele>
        <time>2022-08-19T07:50:19.000Z</time>
      </trkpt>
      <trkpt lat="49.8745" lon="4.74674">
        <ele>226</ele>
        <time>2022-08-19T07:50:20.000Z</time>
      </trkpt>
      <trkpt lat="49.87449" lon="4.7467">
        <ele>225</ele>
        <time>2022-08-19T07:50:21.000Z</time>
      </trkpt>
      <trkpt lat="49.87449" lon="4.74666">
        <ele>225</ele>
        <time>2022-08-19T07:50:22.000Z</time>
      </trkpt>
      <trkpt lat="49.87448" lon="4.74661">
        <ele>225</ele>
        <time>2022-08-19T07:50:23.000Z</time>
      </trkpt>
      <trkpt lat="49.87447" lon="4.74656">
        <ele>225</ele>
        <time>2022-08-19T07:50:24.000Z</time>
      </trkpt>
      <trkpt lat="49.87448" lon="4.74649">
        <ele>224</ele>
        <time>2022-08-19T07:50:25.000Z</time>
      </trkpt>
      <trkpt lat="49.87448" lon="4.74642">
        <ele>224</ele>
        <time>2022-08-19T07:50:26.000Z</time>
      </trkpt>
      <trkpt lat="49.87449" lon="4.74636">
        <ele>224</ele>
        <time>2022-08-19T07:50:27.000Z</time>
      </trkpt>
      <trkpt lat="49.8745" lon="4.7463">
        <ele>223</ele>
        <time>2022-08-19T07:50:28.000Z</time>
      </trkpt>
      <trkpt lat="49.87452" lon="4.74624">
        <ele>223</ele>
        <time>2022-08-19T07:50:29.000Z</time>
      </trkpt>
      <trkpt lat="49.87452" lon="4.74618">
        <ele>223</ele>
        <time>2022-08-19T07:50:30.000Z</time>
      </trkpt>
      <trkpt lat="49.87453" lon="4.74612">
        <ele>222</ele>
        <time>2022-08-19T07:50:31.000Z</time>
      </trkpt>
      <trkpt lat="49.87454" lon="4.74607">
        <ele>222</ele>
        <time>2022-08-19T07:50:32.000Z</time>
      </trkpt>
      <trkpt lat="49.87455" lon="4.74602">
        <ele>221</ele>
        <time>2022-08-19T07:50:33.000Z</time>
      </trkpt>
      <trkpt lat="49.87456" lon="4.74597">
        <ele>220</ele>
        <time>2022-08-19T07:50:34.000Z</time>
      </trkpt>
      <trkpt lat="49.87457" lon="4.74592">
        <ele>220</ele>
        <time>2022-08-19T07:50:35.000Z</time>
      </trkpt>
      <trkpt lat="49.87458" lon="4.74587">
        <ele>219</ele>
        <time>2022-08-19T07:50:36.000Z</time>
      </trkpt>
      <trkpt lat="49.87458" lon="4.74582">
        <ele>218</ele>
        <time>2022-08-19T07:50:37.000Z</time>
      </trkpt>
      <trkpt lat="49.87459" lon="4.74576">
        <ele>218</ele>
        <time>2022-08-19T07:50:38.000Z</time>
      </trkpt>
      <trkpt lat="49.8746" lon="4.74569">
        <ele>217</ele>
        <time>2022-08-19T07:50:39.000Z</time>
      </trkpt>
      <trkpt lat="49.87461" lon="4.74562">
        <ele>216</ele>
        <time>2022-08-19T07:50:40.000Z</time>
      </trkpt>
      <trkpt lat="49.87462" lon="4.74556">
        <ele>216</ele>
        <time>2022-08-19T07:50:41.000Z</time>
      </trkpt>
      <trkpt lat="49.87463" lon="4.74553">
        <ele>215</ele>
        <time>2022-08-19T07:50:42.000Z</time>
      </trkpt>
      <trkpt lat="49.87464" lon="4.7455">
        <ele>214</ele>
        <time>2022-08-19T07:50:43.000Z</time>
      </trkpt>
      <trkpt lat="49.87465" lon="4.74547">
        <ele>213</ele>
        <time>2022-08-19T07:50:44.000Z</time>
      </trkpt>
      <trkpt lat="49.87466" lon="4.74543">
        <ele>213</ele>
        <time>2022-08-19T07:50:45.000Z</time>
      </trkpt>
      <trkpt lat="49.87466" lon="4.74539">
        <ele>212</ele>
        <time>2022-08-19T07:50:46.000Z</time>
      </trkpt>
      <trkpt lat="49.87466" lon="4.74535">
        <ele>212</ele>
        <time>2022-08-19T07:50:47.000Z</time>
      </trkpt>
      <trkpt lat="49.87466" lon="4.74531">
        <ele>211</ele>
        <time>2022-08-19T07:50:48.000Z</time>
      </trkpt>
      <trkpt lat="49.87466" lon="4.74526">
        <ele>211</ele>
        <time>2022-08-19T07:50:49.000Z</time>
      </trkpt>
      <trkpt lat="49.87465" lon="4.74521">
        <ele>210</ele>
        <time>2022-08-19T07:50:50.000Z</time>
      </trkpt>
      <trkpt lat="49.87466" lon="4.74516">
        <ele>209</ele>
        <time>2022-08-19T07:50:51.000Z</time>
      </trkpt>
      <trkpt lat="49.87466" lon="4.74512">
        <ele>209</ele>
        <time>2022-08-19T07:50:52.000Z</time>
      </trkpt>
      <trkpt lat="49.87466" lon="4.74509">
        <ele>208</ele>
        <time>2022-08-19T07:50:53.000Z</time>
      </trkpt>
      <trkpt lat="49.87466" lon="4.74504">
        <ele>208</ele>
        <time>2022-08-19T07:50:54.000Z</time>
      </trkpt>
      <trkpt lat="49.87467" lon="4.745">
        <ele>207</ele>
        <time>2022-08-19T07:50:55.000Z</time>
      </trkpt>
      <trkpt lat="49.87467" lon="4.74495">
        <ele>207</ele>
        <time>2022-08-19T07:50:56.000Z</time>
      </trkpt>
      <trkpt lat="49.87467" lon="4.7449">
        <ele>206</ele>
        <time>2022-08-19T07:50:57.000Z</time>
      </trkpt>
      <trkpt lat="49.87467" lon="4.74484">
        <ele>205</ele>
        <time>2022-08-19T07:50:58.000Z</time>
      </trkpt>
      <trkpt lat="49.87468" lon="4.74479">
        <ele>205</ele>
        <time>2022-08-19T07:50:59.000Z</time>
      </trkpt>
      <trkpt lat="49.87469" lon="4.74473">
        <ele>204</ele>
        <time>2022-08-19T07:51:00.000Z</time>
      </trkpt>
      <trkpt lat="49.87469" lon="4.74467">
        <ele>203</ele>
        <time>2022-08-19T07:51:01.000Z</time>
      </trkpt>
      <trkpt lat="49.87468" lon="4.74461">
        <ele>203</ele>
        <time>2022-08-19T07:51:02.000Z</time>
      </trkpt>
      <trkpt lat="49.87469" lon="4.74454">
        <ele>202</ele>
        <time>2022-08-19T07:51:03.000Z</time>
      </trkpt>
      <trkpt lat="49.87469" lon="4.74447">
        <ele>201</ele>
        <time>2022-08-19T07:51:04.000Z</time>
      </trkpt>
      <trkpt lat="49.8747" lon="4.74441">
        <ele>201</ele>
        <time>2022-08-19T07:51:05.000Z</time>
      </trkpt>
      <trkpt lat="49.8747" lon="4.74435">
        <ele>200</ele>
        <time>2022-08-19T07:51:06.000Z</time>
      </trkpt>
      <trkpt lat="49.87471" lon="4.74429">
        <ele>200</ele>
        <time>2022-08-19T07:51:07.000Z</time>
      </trkpt>
      <trkpt lat="49.87471" lon="4.74425">
        <ele>199</ele>
        <time>2022-08-19T07:51:08.000Z</time>
      </trkpt>
      <trkpt lat="49.87471" lon="4.74421">
        <ele>198</ele>
        <time>2022-08-19T07:51:09.000Z</time>
      </trkpt>
      <trkpt lat="49.87471" lon="4.74418">
        <ele>198</ele>
        <time>2022-08-19T07:51:10.000Z</time>
      </trkpt>
      <trkpt lat="49.87472" lon="4.74417">
        <ele>197</ele>
        <time>2022-08-19T07:51:11.000Z</time>
      </trkpt>
      <trkpt lat="49.87473" lon="4.74415">
        <ele>196</ele>
        <time>2022-08-19T07:51:12.000Z</time>
      </trkpt>
      <trkpt lat="49.87474" lon="4.74412">
        <ele>196</ele>
        <time>2022-08-19T07:51:13.000Z</time>
      </trkpt>
      <trkpt lat="49.87476" lon="4.74409">
        <ele>195</ele>
        <time>2022-08-19T07:51:14.000Z</time>
      </trkpt>
      <trkpt lat="49.87479" lon="4.74407">
        <ele>194</ele>
        <time>2022-08-19T07:51:15.000Z</time>
      </trkpt>
      <trkpt lat="49.87482" lon="4.74405">
        <ele>194</ele>
        <time>2022-08-19T07:51:16.000Z</time>
      </trkpt>
      <trkpt lat="49.87485" lon="4.74403">
        <ele>193</ele>
        <time>2022-08-19T07:51:17.000Z</time>
      </trkpt>
      <trkpt lat="49.87489" lon="4.74402">
        <ele>192</ele>
        <time>2022-08-19T07:51:18.000Z</time>
      </trkpt>
      <trkpt lat="49.87492" lon="4.74399">
        <ele>191</ele>
        <time>2022-08-19T07:51:19.000Z</time>
      </trkpt>
      <trkpt lat="49.87495" lon="4.74396">
        <ele>191</ele>
        <time>2022-08-19T07:51:20.000Z</time>
      </trkpt>
      <trkpt lat="49.87497" lon="4.74395">
        <ele>190</ele>
        <time>2022-08-19T07:51:21.000Z</time>
      </trkpt>
      <trkpt lat="49.87499" lon="4.74393">
        <ele>189</ele>
        <time>2022-08-19T07:51:22.000Z</time>
      </trkpt>
      <trkpt lat="49.87501" lon="4.74392">
        <ele>188</ele>
        <time>2022-08-19T07:51:23.000Z</time>
      </trkpt>
      <trkpt lat="49.87502" lon="4.74392">
        <ele>187</ele>
        <time>2022-08-19T07:51:24.000Z</time>
      </trkpt>
      <trkpt lat="49.87504" lon="4.74393">
        <ele>187</ele>
        <time>2022-08-19T07:51:25.000Z</time>
      </trkpt>
      <trkpt lat="49.87505" lon="4.74394">
        <ele>186</ele>
        <time>2022-08-19T07:51:26.000Z</time>
      </trkpt>
      <trkpt lat="49.87507" lon="4.74394">
        <ele>185</ele>
        <time>2022-08-19T07:51:27.000Z</time>
      </trkpt>
      <trkpt lat="49.87509" lon="4.74395">
        <ele>184</ele>
        <time>2022-08-19T07:51:28.000Z</time>
      </trkpt>
      <trkpt lat="49.87512" lon="4.74395">
        <ele>183</ele>
        <time>2022-08-19T07:51:29.000Z</time>
      </trkpt>
      <trkpt lat="49.87516" lon="4.74396">
        <ele>183</ele>
        <time>2022-08-19T07:51:30.000Z</time>
      </trkpt>
      <trkpt lat="49.8752" lon="4.74396">
        <ele>182</ele>
        <time>2022-08-19T07:51:31.000Z</time>
      </trkpt>
      <trkpt lat="49.87523" lon="4.74397">
        <ele>181</ele>
        <time>2022-08-19T07:51:32.000Z</time>
      </trkpt>
      <trkpt lat="49.87526" lon="4.74398">
        <ele>181</ele>
        <time>2022-08-19T07:51:33.000Z</time>
      </trkpt>
      <trkpt lat="49.8753" lon="4.74398">
        <ele>180</ele>
        <time>2022-08-19T07:51:34.000Z</time>
      </trkpt>
      <trkpt lat="49.87534" lon="4.744">
        <ele>179</ele>
        <time>2022-08-19T07:51:35.000Z</time>
      </trkpt>
      <trkpt lat="49.87538" lon="4.744">
        <ele>179</ele>
        <time>2022-08-19T07:51:36.000Z</time>
      </trkpt>
      <trkpt lat="49.87543" lon="4.74401">
        <ele>178</ele>
        <time>2022-08-19T07:51:37.000Z</time>
      </trkpt>
      <trkpt lat="49.87547" lon="4.74401">
        <ele>178</ele>
        <time>2022-08-19T07:51:38.000Z</time>
      </trkpt>
      <trkpt lat="49.87552" lon="4.74402">
        <ele>177</ele>
        <time>2022-08-19T07:51:39.000Z</time>
      </trkpt>
      <trkpt lat="49.87557" lon="4.74403">
        <ele>177</ele>
        <time>2022-08-19T07:51:40.000Z</time>
      </trkpt>
      <trkpt lat="49.87562" lon="4.74404">
        <ele>176</ele>
        <time>2022-08-19T07:51:41.000Z</time>
      </trkpt>
      <trkpt lat="49.87567" lon="4.74406">
        <ele>176</ele>
        <time>2022-08-19T07:51:42.000Z</time>
      </trkpt>
      <trkpt lat="49.87572" lon="4.74407">
        <ele>175</ele>
        <time>2022-08-19T07:51:43.000Z</time>
      </trkpt>
      <trkpt lat="49.87577" lon="4.74408">
        <ele>174</ele>
        <time>2022-08-19T07:51:44.000Z</time>
      </trkpt>
      <trkpt lat="49.87581" lon="4.74409">
        <ele>174</ele>
        <time>2022-08-19T07:51:45.000Z</time>
      </trkpt>
      <trkpt lat="49.87586" lon="4.74409">
        <ele>174</ele>
        <time>2022-08-19T07:51:46.000Z</time>
      </trkpt>
      <trkpt lat="49.87591" lon="4.74409">
        <ele>173</ele>
        <time>2022-08-19T07:51:47.000Z</time>
      </trkpt>
      <trkpt lat="49.87595" lon="4.74409">
        <ele>173</ele>
        <time>2022-08-19T07:51:48.000Z</time>
      </trkpt>
      <trkpt lat="49.876" lon="4.7441">
        <ele>172</ele>
        <time>2022-08-19T07:51:49.000Z</time>
      </trkpt>
      <trkpt lat="49.87604" lon="4.7441">
        <ele>172</ele>
        <time>2022-08-19T07:51:50.000Z</time>
      </trkpt>
      <trkpt lat="49.87606" lon="4.74409">
        <ele>172</ele>
        <time>2022-08-19T07:51:51.000Z</time>
      </trkpt>
      <trkpt lat="49.87607" lon="4.7441">
        <ele>171</ele>
        <time>2022-08-19T07:51:52.000Z</time>
      </trkpt>
      <trkpt lat="49.87608" lon="4.7441">
        <ele>171</ele>
        <time>2022-08-19T07:51:53.000Z</time>
      </trkpt>
      <trkpt lat="49.87608" lon="4.7441">
        <ele>171</ele>
        <time>2022-08-19T07:51:54.000Z</time>
      </trkpt>
      <trkpt lat="49.87608" lon="4.7441">
        <ele>171</ele>
        <time>2022-08-19T07:51:55.000Z</time>
      </trkpt>
      <trkpt lat="49.8761" lon="4.7441">
        <ele>171</ele>
        <time>2022-08-19T07:51:56.000Z</time>
      </trkpt>
      <trkpt lat="49.87612" lon="4.74411">
        <ele>171</ele>
        <time>2022-08-19T07:51:57.000Z</time>
      </trkpt>
      <trkpt lat="49.87614" lon="4.74411">
        <ele>171</ele>
        <time>2022-08-19T07:51:58.000Z</time>
      </trkpt>
      <trkpt lat="49.87616" lon="4.74411">
        <ele>171</ele>
        <time>2022-08-19T07:51:59.000Z</time>
      </trkpt>
      <trkpt lat="49.87619" lon="4.74412">
        <ele>171</ele>
        <time>2022-08-19T07:52:00.000Z</time>
      </trkpt>
      <trkpt lat="49.87621" lon="4.74412">
        <ele>171</ele>
        <time>2022-08-19T07:52:01.000Z</time>
      </trkpt>
      <trkpt lat="49.87625" lon="4.74413">
        <ele>170</ele>
        <time>2022-08-19T07:52:02.000Z</time>
      </trkpt>
      <trkpt lat="49.87629" lon="4.74413">
        <ele>170</ele>
        <time>2022-08-19T07:52:03.000Z</time>
      </trkpt>
      <trkpt lat="49.87633" lon="4.74414">
        <ele>170</ele>
        <time>2022-08-19T07:52:04.000Z</time>
      </trkpt>
      <trkpt lat="49.87637" lon="4.74416">
        <ele>170</ele>
        <time>2022-08-19T07:52:05.000Z</time>
      </trkpt>
      <trkpt lat="49.87641" lon="4.74418">
        <ele>170</ele>
        <time>2022-08-19T07:52:06.000Z</time>
      </trkpt>
      <trkpt lat="49.87645" lon="4.7442">
        <ele>170</ele>
        <time>2022-08-19T07:52:07.000Z</time>
      </trkpt>
      <trkpt lat="49.87648" lon="4.74422">
        <ele>169</ele>
        <time>2022-08-19T07:52:08.000Z</time>
      </trkpt>
      <trkpt lat="49.8765" lon="4.74423">
        <ele>169</ele>
        <time>2022-08-19T07:52:09.000Z</time>
      </trkpt>
      <trkpt lat="49.87652" lon="4.74423">
        <ele>169</ele>
        <time>2022-08-19T07:52:10.000Z</time>
      </trkpt>
      <trkpt lat="49.87655" lon="4.74424">
        <ele>169</ele>
        <time>2022-08-19T07:52:11.000Z</time>
      </trkpt>
      <trkpt lat="49.87658" lon="4.74425">
        <ele>169</ele>
        <time>2022-08-19T07:52:12.000Z</time>
      </trkpt>
      <trkpt lat="49.87662" lon="4.74425">
        <ele>169</ele>
        <time>2022-08-19T07:52:13.000Z</time>
      </trkpt>
      <trkpt lat="49.87665" lon="4.74426">
        <ele>169</ele>
        <time>2022-08-19T07:52:14.000Z</time>
      </trkpt>
      <trkpt lat="49.87668" lon="4.74428">
        <ele>169</ele>
        <time>2022-08-19T07:52:15.000Z</time>
      </trkpt>
      <trkpt lat="49.8767" lon="4.7443">
        <ele>169</ele>
        <time>2022-08-19T07:52:16.000Z</time>
      </trkpt>
      <trkpt lat="49.87673" lon="4.74432">
        <ele>169</ele>
        <time>2022-08-19T07:52:17.000Z</time>
      </trkpt>
      <trkpt lat="49.87677" lon="4.74435">
        <ele>169</ele>
        <time>2022-08-19T07:52:18.000Z</time>
      </trkpt>
      <trkpt lat="49.8768" lon="4.74437">
        <ele>168</ele>
        <time>2022-08-19T07:52:19.000Z</time>
      </trkpt>
      <trkpt lat="49.87684" lon="4.74439">
        <ele>168</ele>
        <time>2022-08-19T07:52:20.000Z</time>
      </trkpt>
      <trkpt lat="49.87688" lon="4.74442">
        <ele>168</ele>
        <time>2022-08-19T07:52:21.000Z</time>
      </trkpt>
      <trkpt lat="49.87693" lon="4.74445">
        <ele>168</ele>
        <time>2022-08-19T07:52:22.000Z</time>
      </trkpt>
      <trkpt lat="49.87697" lon="4.74446">
        <ele>168</ele>
        <time>2022-08-19T07:52:23.000Z</time>
      </trkpt>
      <trkpt lat="49.87702" lon="4.74446">
        <ele>168</ele>
        <time>2022-08-19T07:52:24.000Z</time>
      </trkpt>
      <trkpt lat="49.87706" lon="4.74446">
        <ele>168</ele>
        <time>2022-08-19T07:52:25.000Z</time>
      </trkpt>
      <trkpt lat="49.87711" lon="4.74445">
        <ele>168</ele>
        <time>2022-08-19T07:52:26.000Z</time>
      </trkpt>
      <trkpt lat="49.87716" lon="4.74442">
        <ele>168</ele>
        <time>2022-08-19T07:52:27.000Z</time>
      </trkpt>
      <trkpt lat="49.87721" lon="4.74439">
        <ele>168</ele>
        <time>2022-08-19T07:52:28.000Z</time>
      </trkpt>
      <trkpt lat="49.87725" lon="4.74435">
        <ele>168</ele>
        <time>2022-08-19T07:52:29.000Z</time>
      </trkpt>
      <trkpt lat="49.87729" lon="4.7443">
        <ele>168</ele>
        <time>2022-08-19T07:52:30.000Z</time>
      </trkpt>
      <trkpt lat="49.87732" lon="4.74426">
        <ele>168</ele>
        <time>2022-08-19T07:52:31.000Z</time>
      </trkpt>
      <trkpt lat="49.87736" lon="4.74424">
        <ele>167</ele>
        <time>2022-08-19T07:52:32.000Z</time>
      </trkpt>
      <trkpt lat="49.8774" lon="4.74423">
        <ele>167</ele>
        <time>2022-08-19T07:52:33.000Z</time>
      </trkpt>
      <trkpt lat="49.87743" lon="4.74423">
        <ele>167</ele>
        <time>2022-08-19T07:52:34.000Z</time>
      </trkpt>
      <trkpt lat="49.87746" lon="4.74424">
        <ele>167</ele>
        <time>2022-08-19T07:52:35.000Z</time>
      </trkpt>
      <trkpt lat="49.87749" lon="4.74425">
        <ele>167</ele>
        <time>2022-08-19T07:52:36.000Z</time>
      </trkpt>
      <trkpt lat="49.87751" lon="4.74427">
        <ele>167</ele>
        <time>2022-08-19T07:52:37.000Z</time>
      </trkpt>
      <trkpt lat="49.87753" lon="4.74429">
        <ele>167</ele>
        <time>2022-08-19T07:52:38.000Z</time>
      </trkpt>
      <trkpt lat="49.87756" lon="4.74431">
        <ele>167</ele>
        <time>2022-08-19T07:52:39.000Z</time>
      </trkpt>
      <trkpt lat="49.87758" lon="4.74434">
        <ele>167</ele>
        <time>2022-08-19T07:52:40.000Z</time>
      </trkpt>
      <trkpt lat="49.8776" lon="4.74436">
        <ele>167</ele>
        <time>2022-08-19T07:52:41.000Z</time>
      </trkpt>
      <trkpt lat="49.87763" lon="4.74439">
        <ele>167</ele>
        <time>2022-08-19T07:52:42.000Z</time>
      </trkpt>
      <trkpt lat="49.87766" lon="4.74442">
        <ele>167</ele>
        <time>2022-08-19T07:52:43.000Z</time>
      </trkpt>
      <trkpt lat="49.87769" lon="4.74445">
        <ele>167</ele>
        <time>2022-08-19T07:52:44.000Z</time>
      </trkpt>
      <trkpt lat="49.87772" lon="4.74448">
        <ele>167</ele>
        <time>2022-08-19T07:52:45.000Z</time>
      </trkpt>
      <trkpt lat="49.87775" lon="4.74451">
        <ele>167</ele>
        <time>2022-08-19T07:52:46.000Z</time>
      </trkpt>
      <trkpt lat="49.87778" lon="4.74454">
        <ele>167</ele>
        <time>2022-08-19T07:52:47.000Z</time>
      </trkpt>
      <trkpt lat="49.87781" lon="4.74457">
        <ele>167</ele>
        <time>2022-08-19T07:52:48.000Z</time>
      </trkpt>
      <trkpt lat="49.87784" lon="4.7446">
        <ele>167</ele>
        <time>2022-08-19T07:52:49.000Z</time>
      </trkpt>
      <trkpt lat="49.87787" lon="4.74463">
        <ele>167</ele>
        <time>2022-08-19T07:52:50.000Z</time>
      </trkpt>
      <trkpt lat="49.8779" lon="4.74466">
        <ele>167</ele>
        <time>2022-08-19T07:52:51.000Z</time>
      </trkpt>
      <trkpt lat="49.87793" lon="4.74469">
        <ele>167</ele>
        <time>2022-08-19T07:52:52.000Z</time>
      </trkpt>
      <trkpt lat="49.87795" lon="4.74471">
        <ele>167</ele>
        <time>2022-08-19T07:52:53.000Z</time>
      </trkpt>
      <trkpt lat="49.87798" lon="4.74474">
        <ele>167</ele>
        <time>2022-08-19T07:52:54.000Z</time>
      </trkpt>
      <trkpt lat="49.878" lon="4.74476">
        <ele>167</ele>
        <time>2022-08-19T07:52:55.000Z</time>
      </trkpt>
      <trkpt lat="49.87803" lon="4.74478">
        <ele>167</ele>
        <time>2022-08-19T07:52:56.000Z</time>
      </trkpt>
      <trkpt lat="49.87805" lon="4.7448">
        <ele>167</ele>
        <time>2022-08-19T07:52:57.000Z</time>
      </trkpt>
      <trkpt lat="49.87808" lon="4.74483">
        <ele>167</ele>
        <time>2022-08-19T07:52:58.000Z</time>
      </trkpt>
      <trkpt lat="49.87812" lon="4.74486">
        <ele>167</ele>
        <time>2022-08-19T07:52:59.000Z</time>
      </trkpt>
      <trkpt lat="49.87814" lon="4.74487">
        <ele>167</ele>
        <time>2022-08-19T07:53:00.000Z</time>
      </trkpt>
      <trkpt lat="49.87817" lon="4.74489">
        <ele>167</ele>
        <time>2022-08-19T07:53:01.000Z</time>
      </trkpt>
      <trkpt lat="49.8782" lon="4.74491">
        <ele>168</ele>
        <time>2022-08-19T07:53:02.000Z</time>
      </trkpt>
      <trkpt lat="49.87823" lon="4.74493">
        <ele>168</ele>
        <time>2022-08-19T07:53:03.000Z</time>
      </trkpt>
      <trkpt lat="49.87825" lon="4.74495">
        <ele>168</ele>
        <time>2022-08-19T07:53:04.000Z</time>
      </trkpt>
      <trkpt lat="49.87828" lon="4.74496">
        <ele>168</ele>
        <time>2022-08-19T07:53:05.000Z</time>
      </trkpt>
      <trkpt lat="49.87831" lon="4.74497">
        <ele>168</ele>
        <time>2022-08-19T07:53:06.000Z</time>
      </trkpt>
      <trkpt lat="49.87834" lon="4.74499">
        <ele>169</ele>
        <time>2022-08-19T07:53:07.000Z</time>
      </trkpt>
      <trkpt lat="49.87837" lon="4.745">
        <ele>169</ele>
        <time>2022-08-19T07:53:08.000Z</time>
      </trkpt>
      <trkpt lat="49.87839" lon="4.74502">
        <ele>169</ele>
        <time>2022-08-19T07:53:09.000Z</time>
      </trkpt>
      <trkpt lat="49.87842" lon="4.74503">
        <ele>169</ele>
        <time>2022-08-19T07:53:10.000Z</time>
      </trkpt>
      <trkpt lat="49.87845" lon="4.74505">
        <ele>169</ele>
        <time>2022-08-19T07:53:11.000Z</time>
      </trkpt>
      <trkpt lat="49.87848" lon="4.74507">
        <ele>169</ele>
        <time>2022-08-19T07:53:12.000Z</time>
      </trkpt>
      <trkpt lat="49.87851" lon="4.7451">
        <ele>169</ele>
        <time>2022-08-19T07:53:13.000Z</time>
      </trkpt>
      <trkpt lat="49.87854" lon="4.74512">
        <ele>170</ele>
        <time>2022-08-19T07:53:14.000Z</time>
      </trkpt>
      <trkpt lat="49.87856" lon="4.74515">
        <ele>170</ele>
        <time>2022-08-19T07:53:15.000Z</time>
      </trkpt>
      <trkpt lat="49.8786" lon="4.74518">
        <ele>170</ele>
        <time>2022-08-19T07:53:16.000Z</time>
      </trkpt>
      <trkpt lat="49.87863" lon="4.74521">
        <ele>170</ele>
        <time>2022-08-19T07:53:17.000Z</time>
      </trkpt>
      <trkpt lat="49.87866" lon="4.74524">
        <ele>170</ele>
        <time>2022-08-19T07:53:18.000Z</time>
      </trkpt>
      <trkpt lat="49.87869" lon="4.74527">
        <ele>170</ele>
        <time>2022-08-19T07:53:19.000Z</time>
      </trkpt>
      <trkpt lat="49.87871" lon="4.74529">
        <ele>170</ele>
        <time>2022-08-19T07:53:20.000Z</time>
      </trkpt>
      <trkpt lat="49.87873" lon="4.74533">
        <ele>170</ele>
        <time>2022-08-19T07:53:21.000Z</time>
      </trkpt>
      <trkpt lat="49.87875" lon="4.74536">
        <ele>170</ele>
        <time>2022-08-19T07:53:22.000Z</time>
      </trkpt>
      <trkpt lat="49.87878" lon="4.74539">
        <ele>170</ele>
        <time>2022-08-19T07:53:23.000Z</time>
      </trkpt>
      <trkpt lat="49.8788" lon="4.74542">
        <ele>170</ele>
        <time>2022-08-19T07:53:24.000Z</time>
      </trkpt>
      <trkpt lat="49.87882" lon="4.74545">
        <ele>170</ele>
        <time>2022-08-19T07:53:25.000Z</time>
      </trkpt>
      <trkpt lat="49.87884" lon="4.74548">
        <ele>170</ele>
        <time>2022-08-19T07:53:26.000Z</time>
      </trkpt>
      <trkpt lat="49.87887" lon="4.74552">
        <ele>170</ele>
        <time>2022-08-19T07:53:27.000Z</time>
      </trkpt>
      <trkpt lat="49.87889" lon="4.74555">
        <ele>170</ele>
        <time>2022-08-19T07:53:28.000Z</time>
      </trkpt>
      <trkpt lat="49.87892" lon="4.74558">
        <ele>170</ele>
        <time>2022-08-19T07:53:29.000Z</time>
      </trkpt>
      <trkpt lat="49.87894" lon="4.74561">
        <ele>171</ele>
        <time>2022-08-19T07:53:30.000Z</time>
      </trkpt>
      <trkpt lat="49.87896" lon="4.74564">
        <ele>171</ele>
        <time>2022-08-19T07:53:31.000Z</time>
      </trkpt>
      <trkpt lat="49.87899" lon="4.74567">
        <ele>171</ele>
        <time>2022-08-19T07:53:32.000Z</time>
      </trkpt>
      <trkpt lat="49.87901" lon="4.7457">
        <ele>171</ele>
        <time>2022-08-19T07:53:33.000Z</time>
      </trkpt>
      <trkpt lat="49.87903" lon="4.74574">
        <ele>171</ele>
        <time>2022-08-19T07:53:34.000Z</time>
      </trkpt>
      <trkpt lat="49.87905" lon="4.74577">
        <ele>172</ele>
        <time>2022-08-19T07:53:35.000Z</time>
      </trkpt>
      <trkpt lat="49.87907" lon="4.7458">
        <ele>172</ele>
        <time>2022-08-19T07:53:36.000Z</time>
      </trkpt>
      <trkpt lat="49.87908" lon="4.74584">
        <ele>172</ele>
        <time>2022-08-19T07:53:37.000Z</time>
      </trkpt>
      <trkpt lat="49.8791" lon="4.74587">
        <ele>172</ele>
        <time>2022-08-19T07:53:38.000Z</time>
      </trkpt>
      <trkpt lat="49.87912" lon="4.7459">
        <ele>173</ele>
        <time>2022-08-19T07:53:39.000Z</time>
      </trkpt>
      <trkpt lat="49.87913" lon="4.74594">
        <ele>173</ele>
        <time>2022-08-19T07:53:40.000Z</time>
      </trkpt>
      <trkpt lat="49.87915" lon="4.74597">
        <ele>173</ele>
        <time>2022-08-19T07:53:41.000Z</time>
      </trkpt>
      <trkpt lat="49.87916" lon="4.74601">
        <ele>174</ele>
        <time>2022-08-19T07:53:42.000Z</time>
      </trkpt>
      <trkpt lat="49.87918" lon="4.74604">
        <ele>174</ele>
        <time>2022-08-19T07:53:43.000Z</time>
      </trkpt>
      <trkpt lat="49.87919" lon="4.74608">
        <ele>174</ele>
        <time>2022-08-19T07:53:44.000Z</time>
      </trkpt>
      <trkpt lat="49.8792" lon="4.74612">
        <ele>174</ele>
        <time>2022-08-19T07:53:45.000Z</time>
      </trkpt>
      <trkpt lat="49.87922" lon="4.74615">
        <ele>174</ele>
        <time>2022-08-19T07:53:46.000Z</time>
      </trkpt>
      <trkpt lat="49.87923" lon="4.74619">
        <ele>175</ele>
        <time>2022-08-19T07:53:47.000Z</time>
      </trkpt>
      <trkpt lat="49.87924" lon="4.74623">
        <ele>175</ele>
        <time>2022-08-19T07:53:48.000Z</time>
      </trkpt>
      <trkpt lat="49.87925" lon="4.74627">
        <ele>175</ele>
        <time>2022-08-19T07:53:49.000Z</time>
      </trkpt>
      <trkpt lat="49.87926" lon="4.74631">
        <ele>175</ele>
        <time>2022-08-19T07:53:50.000Z</time>
      </trkpt>
      <trkpt lat="49.87927" lon="4.74634">
        <ele>176</ele>
        <time>2022-08-19T07:53:51.000Z</time>
      </trkpt>
      <trkpt lat="49.87928" lon="4.74637">
        <ele>176</ele>
        <time>2022-08-19T07:53:52.000Z</time>
      </trkpt>
      <trkpt lat="49.8793" lon="4.7464">
        <ele>176</ele>
        <time>2022-08-19T07:53:53.000Z</time>
      </trkpt>
      <trkpt lat="49.87931" lon="4.74644">
        <ele>176</ele>
        <time>2022-08-19T07:53:54.000Z</time>
      </trkpt>
      <trkpt lat="49.87933" lon="4.74647">
        <ele>176</ele>
        <time>2022-08-19T07:53:55.000Z</time>
      </trkpt>
      <trkpt lat="49.87935" lon="4.7465">
        <ele>177</ele>
        <time>2022-08-19T07:53:56.000Z</time>
      </trkpt>
      <trkpt lat="49.87936" lon="4.74653">
        <ele>177</ele>
        <time>2022-08-19T07:53:57.000Z</time>
      </trkpt>
      <trkpt lat="49.87938" lon="4.74657">
        <ele>177</ele>
        <time>2022-08-19T07:53:58.000Z</time>
      </trkpt>
      <trkpt lat="49.8794" lon="4.7466">
        <ele>178</ele>
        <time>2022-08-19T07:53:59.000Z</time>
      </trkpt>
      <trkpt lat="49.87941" lon="4.74664">
        <ele>178</ele>
        <time>2022-08-19T07:54:00.000Z</time>
      </trkpt>
      <trkpt lat="49.87942" lon="4.74667">
        <ele>178</ele>
        <time>2022-08-19T07:54:01.000Z</time>
      </trkpt>
      <trkpt lat="49.87944" lon="4.7467">
        <ele>179</ele>
        <time>2022-08-19T07:54:02.000Z</time>
      </trkpt>
      <trkpt lat="49.87945" lon="4.74674">
        <ele>179</ele>
        <time>2022-08-19T07:54:03.000Z</time>
      </trkpt>
      <trkpt lat="49.87947" lon="4.74677">
        <ele>179</ele>
        <time>2022-08-19T07:54:04.000Z</time>
      </trkpt>
      <trkpt lat="49.87948" lon="4.74681">
        <ele>179</ele>
        <time>2022-08-19T07:54:05.000Z</time>
      </trkpt>
      <trkpt lat="49.87949" lon="4.74684">
        <ele>180</ele>
        <time>2022-08-19T07:54:06.000Z</time>
      </trkpt>
      <trkpt lat="49.8795" lon="4.74687">
        <ele>180</ele>
        <time>2022-08-19T07:54:07.000Z</time>
      </trkpt>
      <trkpt lat="49.87951" lon="4.74691">
        <ele>180</ele>
        <time>2022-08-19T07:54:08.000Z</time>
      </trkpt>
      <trkpt lat="49.87952" lon="4.74695">
        <ele>180</ele>
        <time>2022-08-19T07:54:09.000Z</time>
      </trkpt>
      <trkpt lat="49.87953" lon="4.74698">
        <ele>180</ele>
        <time>2022-08-19T07:54:10.000Z</time>
      </trkpt>
      <trkpt lat="49.87954" lon="4.74701">
        <ele>180</ele>
        <time>2022-08-19T07:54:11.000Z</time>
      </trkpt>
      <trkpt lat="49.87956" lon="4.74704">
        <ele>181</ele>
        <time>2022-08-19T07:54:12.000Z</time>
      </trkpt>
      <trkpt lat="49.87957" lon="4.74707">
        <ele>181</ele>
        <time>2022-08-19T07:54:13.000Z</time>
      </trkpt>
      <trkpt lat="49.87959" lon="4.74711">
        <ele>181</ele>
        <time>2022-08-19T07:54:14.000Z</time>
      </trkpt>
      <trkpt lat="49.8796" lon="4.74714">
        <ele>181</ele>
        <time>2022-08-19T07:54:15.000Z</time>
      </trkpt>
      <trkpt lat="49.87961" lon="4.74718">
        <ele>182</ele>
        <time>2022-08-19T07:54:16.000Z</time>
      </trkpt>
      <trkpt lat="49.87962" lon="4.74721">
        <ele>182</ele>
        <time>2022-08-19T07:54:17.000Z</time>
      </trkpt>
      <trkpt lat="49.87963" lon="4.74725">
        <ele>182</ele>
        <time>2022-08-19T07:54:18.000Z</time>
      </trkpt>
      <trkpt lat="49.87964" lon="4.74729">
        <ele>183</ele>
        <time>2022-08-19T07:54:19.000Z</time>
      </trkpt>
      <trkpt lat="49.87966" lon="4.74732">
        <ele>183</ele>
        <time>2022-08-19T07:54:20.000Z</time>
      </trkpt>
      <trkpt lat="49.87967" lon="4.74736">
        <ele>184</ele>
        <time>2022-08-19T07:54:21.000Z</time>
      </trkpt>
      <trkpt lat="49.87967" lon="4.74739">
        <ele>184</ele>
        <time>2022-08-19T07:54:22.000Z</time>
      </trkpt>
      <trkpt lat="49.87968" lon="4.74743">
        <ele>184</ele>
        <time>2022-08-19T07:54:23.000Z</time>
      </trkpt>
      <trkpt lat="49.87969" lon="4.74746">
        <ele>185</ele>
        <time>2022-08-19T07:54:24.000Z</time>
      </trkpt>
      <trkpt lat="49.87971" lon="4.74749">
        <ele>185</ele>
        <time>2022-08-19T07:54:25.000Z</time>
      </trkpt>
      <trkpt lat="49.87972" lon="4.74752">
        <ele>185</ele>
        <time>2022-08-19T07:54:26.000Z</time>
      </trkpt>
      <trkpt lat="49.87972" lon="4.74756">
        <ele>185</ele>
        <time>2022-08-19T07:54:27.000Z</time>
      </trkpt>
      <trkpt lat="49.87973" lon="4.7476">
        <ele>186</ele>
        <time>2022-08-19T07:54:28.000Z</time>
      </trkpt>
      <trkpt lat="49.87973" lon="4.74764">
        <ele>186</ele>
        <time>2022-08-19T07:54:29.000Z</time>
      </trkpt>
      <trkpt lat="49.87973" lon="4.74768">
        <ele>186</ele>
        <time>2022-08-19T07:54:30.000Z</time>
      </trkpt>
      <trkpt lat="49.87973" lon="4.74772">
        <ele>186</ele>
        <time>2022-08-19T07:54:31.000Z</time>
      </trkpt>
      <trkpt lat="49.87973" lon="4.74776">
        <ele>186</ele>
        <time>2022-08-19T07:54:32.000Z</time>
      </trkpt>
      <trkpt lat="49.87973" lon="4.74781">
        <ele>186</ele>
        <time>2022-08-19T07:54:33.000Z</time>
      </trkpt>
      <trkpt lat="49.87973" lon="4.74785">
        <ele>187</ele>
        <time>2022-08-19T07:54:34.000Z</time>
      </trkpt>
      <trkpt lat="49.87973" lon="4.74789">
        <ele>187</ele>
        <time>2022-08-19T07:54:35.000Z</time>
      </trkpt>
      <trkpt lat="49.87972" lon="4.74793">
        <ele>187</ele>
        <time>2022-08-19T07:54:36.000Z</time>
      </trkpt>
      <trkpt lat="49.87972" lon="4.74797">
        <ele>187</ele>
        <time>2022-08-19T07:54:37.000Z</time>
      </trkpt>
      <trkpt lat="49.87973" lon="4.748">
        <ele>187</ele>
        <time>2022-08-19T07:54:38.000Z</time>
      </trkpt>
      <trkpt lat="49.87973" lon="4.74804">
        <ele>187</ele>
        <time>2022-08-19T07:54:39.000Z</time>
      </trkpt>
      <trkpt lat="49.87973" lon="4.74808">
        <ele>188</ele>
        <time>2022-08-19T07:54:40.000Z</time>
      </trkpt>
      <trkpt lat="49.87973" lon="4.74812">
        <ele>188</ele>
        <time>2022-08-19T07:54:41.000Z</time>
      </trkpt>
      <trkpt lat="49.87974" lon="4.74816">
        <ele>188</ele>
        <time>2022-08-19T07:54:42.000Z</time>
      </trkpt>
      <trkpt lat="49.87974" lon="4.7482">
        <ele>188</ele>
        <time>2022-08-19T07:54:43.000Z</time>
      </trkpt>
      <trkpt lat="49.87975" lon="4.74825">
        <ele>188</ele>
        <time>2022-08-19T07:54:44.000Z</time>
      </trkpt>
      <trkpt lat="49.87976" lon="4.7483">
        <ele>188</ele>
        <time>2022-08-19T07:54:45.000Z</time>
      </trkpt>
      <trkpt lat="49.87977" lon="4.74834">
        <ele>188</ele>
        <time>2022-08-19T07:54:46.000Z</time>
      </trkpt>
      <trkpt lat="49.87978" lon="4.74839">
        <ele>188</ele>
        <time>2022-08-19T07:54:47.000Z</time>
      </trkpt>
      <trkpt lat="49.87979" lon="4.74844">
        <ele>189</ele>
        <time>2022-08-19T07:54:48.000Z</time>
      </trkpt>
      <trkpt lat="49.87981" lon="4.74848">
        <ele>189</ele>
        <time>2022-08-19T07:54:49.000Z</time>
      </trkpt>
      <trkpt lat="49.87982" lon="4.74853">
        <ele>189</ele>
        <time>2022-08-19T07:54:50.000Z</time>
      </trkpt>
      <trkpt lat="49.87983" lon="4.74857">
        <ele>189</ele>
        <time>2022-08-19T07:54:51.000Z</time>
      </trkpt>
      <trkpt lat="49.87985" lon="4.74861">
        <ele>189</ele>
        <time>2022-08-19T07:54:52.000Z</time>
      </trkpt>
      <trkpt lat="49.87986" lon="4.74865">
        <ele>189</ele>
        <time>2022-08-19T07:54:53.000Z</time>
      </trkpt>
      <trkpt lat="49.87988" lon="4.74869">
        <ele>189</ele>
        <time>2022-08-19T07:54:54.000Z</time>
      </trkpt>
      <trkpt lat="49.87989" lon="4.74874">
        <ele>189</ele>
        <time>2022-08-19T07:54:55.000Z</time>
      </trkpt>
      <trkpt lat="49.87989" lon="4.74879">
        <ele>189</ele>
        <time>2022-08-19T07:54:56.000Z</time>
      </trkpt>
      <trkpt lat="49.8799" lon="4.74883">
        <ele>189</ele>
        <time>2022-08-19T07:54:57.000Z</time>
      </trkpt>
      <trkpt lat="49.87991" lon="4.74888">
        <ele>189</ele>
        <time>2022-08-19T07:54:58.000Z</time>
      </trkpt>
      <trkpt lat="49.87991" lon="4.74892">
        <ele>189</ele>
        <time>2022-08-19T07:54:59.000Z</time>
      </trkpt>
      <trkpt lat="49.87991" lon="4.74895">
        <ele>189</ele>
        <time>2022-08-19T07:55:00.000Z</time>
      </trkpt>
      <trkpt lat="49.87992" lon="4.74899">
        <ele>189</ele>
        <time>2022-08-19T07:55:01.000Z</time>
      </trkpt>
      <trkpt lat="49.87992" lon="4.74903">
        <ele>189</ele>
        <time>2022-08-19T07:55:02.000Z</time>
      </trkpt>
      <trkpt lat="49.87993" lon="4.74906">
        <ele>189</ele>
        <time>2022-08-19T07:55:03.000Z</time>
      </trkpt>
      <trkpt lat="49.87994" lon="4.7491">
        <ele>190</ele>
        <time>2022-08-19T07:55:04.000Z</time>
      </trkpt>
      <trkpt lat="49.87995" lon="4.74915">
        <ele>190</ele>
        <time>2022-08-19T07:55:05.000Z</time>
      </trkpt>
      <trkpt lat="49.87995" lon="4.74919">
        <ele>190</ele>
        <time>2022-08-19T07:55:06.000Z</time>
      </trkpt>
      <trkpt lat="49.87996" lon="4.74924">
        <ele>190</ele>
        <time>2022-08-19T07:55:07.000Z</time>
      </trkpt>
      <trkpt lat="49.87997" lon="4.74929">
        <ele>190</ele>
        <time>2022-08-19T07:55:08.000Z</time>
      </trkpt>
      <trkpt lat="49.87997" lon="4.74933">
        <ele>191</ele>
        <time>2022-08-19T07:55:09.000Z</time>
      </trkpt>
      <trkpt lat="49.87998" lon="4.74937">
        <ele>191</ele>
        <time>2022-08-19T07:55:10.000Z</time>
      </trkpt>
      <trkpt lat="49.87998" lon="4.7494">
        <ele>191</ele>
        <time>2022-08-19T07:55:11.000Z</time>
      </trkpt>
      <trkpt lat="49.87999" lon="4.74943">
        <ele>191</ele>
        <time>2022-08-19T07:55:12.000Z</time>
      </trkpt>
      <trkpt lat="49.88" lon="4.74946">
        <ele>191</ele>
        <time>2022-08-19T07:55:13.000Z</time>
      </trkpt>
      <trkpt lat="49.88001" lon="4.74949">
        <ele>191</ele>
        <time>2022-08-19T07:55:14.000Z</time>
      </trkpt>
      <trkpt lat="49.88002" lon="4.74953">
        <ele>192</ele>
        <time>2022-08-19T07:55:15.000Z</time>
      </trkpt>
      <trkpt lat="49.88003" lon="4.74956">
        <ele>192</ele>
        <time>2022-08-19T07:55:16.000Z</time>
      </trkpt>
      <trkpt lat="49.88003" lon="4.74961">
        <ele>192</ele>
        <time>2022-08-19T07:55:17.000Z</time>
      </trkpt>
      <trkpt lat="49.88004" lon="4.74965">
        <ele>192</ele>
        <time>2022-08-19T07:55:18.000Z</time>
      </trkpt>
      <trkpt lat="49.88004" lon="4.74969">
        <ele>192</ele>
        <time>2022-08-19T07:55:19.000Z</time>
      </trkpt>
      <trkpt lat="49.88005" lon="4.74974">
        <ele>192</ele>
        <time>2022-08-19T07:55:20.000Z</time>
      </trkpt>
      <trkpt lat="49.88005" lon="4.74979">
        <ele>192</ele>
        <time>2022-08-19T07:55:21.000Z</time>
      </trkpt>
      <trkpt lat="49.88006" lon="4.74984">
        <ele>192</ele>
        <time>2022-08-19T07:55:22.000Z</time>
      </trkpt>
      <trkpt lat="49.88007" lon="4.74989">
        <ele>193</ele>
        <time>2022-08-19T07:55:23.000Z</time>
      </trkpt>
      <trkpt lat="49.88008" lon="4.74993">
        <ele>193</ele>
        <time>2022-08-19T07:55:24.000Z</time>
      </trkpt>
      <trkpt lat="49.88008" lon="4.74998">
        <ele>193</ele>
        <time>2022-08-19T07:55:25.000Z</time>
      </trkpt>
      <trkpt lat="49.88009" lon="4.75002">
        <ele>193</ele>
        <time>2022-08-19T07:55:26.000Z</time>
      </trkpt>
      <trkpt lat="49.88009" lon="4.75007">
        <ele>193</ele>
        <time>2022-08-19T07:55:27.000Z</time>
      </trkpt>
      <trkpt lat="49.8801" lon="4.75011">
        <ele>193</ele>
        <time>2022-08-19T07:55:28.000Z</time>
      </trkpt>
      <trkpt lat="49.88011" lon="4.75015">
        <ele>194</ele>
        <time>2022-08-19T07:55:29.000Z</time>
      </trkpt>
      <trkpt lat="49.88012" lon="4.75019">
        <ele>194</ele>
        <time>2022-08-19T07:55:30.000Z</time>
      </trkpt>
      <trkpt lat="49.88013" lon="4.75023">
        <ele>194</ele>
        <time>2022-08-19T07:55:31.000Z</time>
      </trkpt>
      <trkpt lat="49.88013" lon="4.75028">
        <ele>194</ele>
        <time>2022-08-19T07:55:32.000Z</time>
      </trkpt>
      <trkpt lat="49.88013" lon="4.75032">
        <ele>195</ele>
        <time>2022-08-19T07:55:33.000Z</time>
      </trkpt>
      <trkpt lat="49.88014" lon="4.75037">
        <ele>195</ele>
        <time>2022-08-19T07:55:34.000Z</time>
      </trkpt>
      <trkpt lat="49.88015" lon="4.75041">
        <ele>195</ele>
        <time>2022-08-19T07:55:35.000Z</time>
      </trkpt>
      <trkpt lat="49.88015" lon="4.75046">
        <ele>195</ele>
        <time>2022-08-19T07:55:36.000Z</time>
      </trkpt>
      <trkpt lat="49.88015" lon="4.7505">
        <ele>196</ele>
        <time>2022-08-19T07:55:37.000Z</time>
      </trkpt>
      <trkpt lat="49.88015" lon="4.75054">
        <ele>196</ele>
        <time>2022-08-19T07:55:38.000Z</time>
      </trkpt>
      <trkpt lat="49.88016" lon="4.75059">
        <ele>197</ele>
        <time>2022-08-19T07:55:39.000Z</time>
      </trkpt>
      <trkpt lat="49.88016" lon="4.75063">
        <ele>197</ele>
        <time>2022-08-19T07:55:40.000Z</time>
      </trkpt>
      <trkpt lat="49.88016" lon="4.75068">
        <ele>198</ele>
        <time>2022-08-19T07:55:41.000Z</time>
      </trkpt>
      <trkpt lat="49.88016" lon="4.75072">
        <ele>198</ele>
        <time>2022-08-19T07:55:42.000Z</time>
      </trkpt>
      <trkpt lat="49.88017" lon="4.75075">
        <ele>199</ele>
        <time>2022-08-19T07:55:43.000Z</time>
      </trkpt>
      <trkpt lat="49.88017" lon="4.75079">
        <ele>199</ele>
        <time>2022-08-19T07:55:44.000Z</time>
      </trkpt>
      <trkpt lat="49.88017" lon="4.75082">
        <ele>199</ele>
        <time>2022-08-19T07:55:45.000Z</time>
      </trkpt>
      <trkpt lat="49.88018" lon="4.75086">
        <ele>200</ele>
        <time>2022-08-19T07:55:46.000Z</time>
      </trkpt>
      <trkpt lat="49.88018" lon="4.7509">
        <ele>200</ele>
        <time>2022-08-19T07:55:47.000Z</time>
      </trkpt>
      <trkpt lat="49.88018" lon="4.75093">
        <ele>201</ele>
        <time>2022-08-19T07:55:48.000Z</time>
      </trkpt>
      <trkpt lat="49.88018" lon="4.75097">
        <ele>201</ele>
        <time>2022-08-19T07:55:49.000Z</time>
      </trkpt>
      <trkpt lat="49.88017" lon="4.751">
        <ele>201</ele>
        <time>2022-08-19T07:55:50.000Z</time>
      </trkpt>
      <trkpt lat="49.88017" lon="4.75104">
        <ele>201</ele>
        <time>2022-08-19T07:55:51.000Z</time>
      </trkpt>
      <trkpt lat="49.88017" lon="4.75108">
        <ele>202</ele>
        <time>2022-08-19T07:55:52.000Z</time>
      </trkpt>
      <trkpt lat="49.88017" lon="4.75112">
        <ele>202</ele>
        <time>2022-08-19T07:55:53.000Z</time>
      </trkpt>
      <trkpt lat="49.88017" lon="4.75115">
        <ele>203</ele>
        <time>2022-08-19T07:55:54.000Z</time>
      </trkpt>
      <trkpt lat="49.88017" lon="4.75119">
        <ele>203</ele>
        <time>2022-08-19T07:55:55.000Z</time>
      </trkpt>
      <trkpt lat="49.88017" lon="4.75123">
        <ele>203</ele>
        <time>2022-08-19T07:55:56.000Z</time>
      </trkpt>
      <trkpt lat="49.88017" lon="4.75127">
        <ele>203</ele>
        <time>2022-08-19T07:55:57.000Z</time>
      </trkpt>
      <trkpt lat="49.88016" lon="4.75131">
        <ele>204</ele>
        <time>2022-08-19T07:55:58.000Z</time>
      </trkpt>
      <trkpt lat="49.88016" lon="4.75136">
        <ele>204</ele>
        <time>2022-08-19T07:55:59.000Z</time>
      </trkpt>
      <trkpt lat="49.88016" lon="4.7514">
        <ele>204</ele>
        <time>2022-08-19T07:56:00.000Z</time>
      </trkpt>
      <trkpt lat="49.88016" lon="4.75145">
        <ele>204</ele>
        <time>2022-08-19T07:56:01.000Z</time>
      </trkpt>
      <trkpt lat="49.88016" lon="4.75149">
        <ele>204</ele>
        <time>2022-08-19T07:56:02.000Z</time>
      </trkpt>
      <trkpt lat="49.88016" lon="4.75154">
        <ele>205</ele>
        <time>2022-08-19T07:56:03.000Z</time>
      </trkpt>
      <trkpt lat="49.88017" lon="4.75158">
        <ele>205</ele>
        <time>2022-08-19T07:56:04.000Z</time>
      </trkpt>
      <trkpt lat="49.88017" lon="4.75162">
        <ele>205</ele>
        <time>2022-08-19T07:56:05.000Z</time>
      </trkpt>
      <trkpt lat="49.88018" lon="4.75167">
        <ele>205</ele>
        <time>2022-08-19T07:56:06.000Z</time>
      </trkpt>
      <trkpt lat="49.88019" lon="4.75171">
        <ele>206</ele>
        <time>2022-08-19T07:56:07.000Z</time>
      </trkpt>
      <trkpt lat="49.8802" lon="4.75175">
        <ele>206</ele>
        <time>2022-08-19T07:56:08.000Z</time>
      </trkpt>
      <trkpt lat="49.8802" lon="4.75179">
        <ele>206</ele>
        <time>2022-08-19T07:56:09.000Z</time>
      </trkpt>
      <trkpt lat="49.88021" lon="4.75183">
        <ele>206</ele>
        <time>2022-08-19T07:56:10.000Z</time>
      </trkpt>
      <trkpt lat="49.88022" lon="4.75187">
        <ele>206</ele>
        <time>2022-08-19T07:56:11.000Z</time>
      </trkpt>
      <trkpt lat="49.88022" lon="4.75192">
        <ele>206</ele>
        <time>2022-08-19T07:56:12.000Z</time>
      </trkpt>
      <trkpt lat="49.88023" lon="4.75196">
        <ele>206</ele>
        <time>2022-08-19T07:56:13.000Z</time>
      </trkpt>
      <trkpt lat="49.88025" lon="4.752">
        <ele>206</ele>
        <time>2022-08-19T07:56:14.000Z</time>
      </trkpt>
      <trkpt lat="49.88026" lon="4.75204">
        <ele>206</ele>
        <time>2022-08-19T07:56:15.000Z</time>
      </trkpt>
      <trkpt lat="49.88027" lon="4.75208">
        <ele>207</ele>
        <time>2022-08-19T07:56:16.000Z</time>
      </trkpt>
      <trkpt lat="49.88029" lon="4.75212">
        <ele>207</ele>
        <time>2022-08-19T07:56:17.000Z</time>
      </trkpt>
      <trkpt lat="49.88029" lon="4.75215">
        <ele>207</ele>
        <time>2022-08-19T07:56:18.000Z</time>
      </trkpt>
      <trkpt lat="49.88031" lon="4.75218">
        <ele>207</ele>
        <time>2022-08-19T07:56:19.000Z</time>
      </trkpt>
      <trkpt lat="49.88032" lon="4.75223">
        <ele>207</ele>
        <time>2022-08-19T07:56:20.000Z</time>
      </trkpt>
      <trkpt lat="49.88033" lon="4.75227">
        <ele>207</ele>
        <time>2022-08-19T07:56:21.000Z</time>
      </trkpt>
      <trkpt lat="49.88034" lon="4.75231">
        <ele>207</ele>
        <time>2022-08-19T07:56:22.000Z</time>
      </trkpt>
      <trkpt lat="49.88035" lon="4.75235">
        <ele>207</ele>
        <time>2022-08-19T07:56:23.000Z</time>
      </trkpt>
      <trkpt lat="49.88036" lon="4.75239">
        <ele>207</ele>
        <time>2022-08-19T07:56:24.000Z</time>
      </trkpt>
      <trkpt lat="49.88038" lon="4.75242">
        <ele>207</ele>
        <time>2022-08-19T07:56:25.000Z</time>
      </trkpt>
      <trkpt lat="49.88039" lon="4.75245">
        <ele>207</ele>
        <time>2022-08-19T07:56:26.000Z</time>
      </trkpt>
      <trkpt lat="49.8804" lon="4.75248">
        <ele>207</ele>
        <time>2022-08-19T07:56:27.000Z</time>
      </trkpt>
      <trkpt lat="49.88041" lon="4.75251">
        <ele>207</ele>
        <time>2022-08-19T07:56:28.000Z</time>
      </trkpt>
      <trkpt lat="49.88042" lon="4.75255">
        <ele>207</ele>
        <time>2022-08-19T07:56:29.000Z</time>
      </trkpt>
      <trkpt lat="49.88043" lon="4.75259">
        <ele>208</ele>
        <time>2022-08-19T07:56:30.000Z</time>
      </trkpt>
      <trkpt lat="49.88044" lon="4.75262">
        <ele>208</ele>
        <time>2022-08-19T07:56:31.000Z</time>
      </trkpt>
      <trkpt lat="49.88045" lon="4.75266">
        <ele>208</ele>
        <time>2022-08-19T07:56:32.000Z</time>
      </trkpt>
      <trkpt lat="49.88046" lon="4.75269">
        <ele>208</ele>
        <time>2022-08-19T07:56:33.000Z</time>
      </trkpt>
      <trkpt lat="49.88047" lon="4.75272">
        <ele>208</ele>
        <time>2022-08-19T07:56:34.000Z</time>
      </trkpt>
      <trkpt lat="49.88047" lon="4.75275">
        <ele>209</ele>
        <time>2022-08-19T07:56:35.000Z</time>
      </trkpt>
      <trkpt lat="49.88048" lon="4.75278">
        <ele>209</ele>
        <time>2022-08-19T07:56:36.000Z</time>
      </trkpt>
      <trkpt lat="49.88048" lon="4.75282">
        <ele>209</ele>
        <time>2022-08-19T07:56:37.000Z</time>
      </trkpt>
      <trkpt lat="49.88048" lon="4.75285">
        <ele>209</ele>
        <time>2022-08-19T07:56:38.000Z</time>
      </trkpt>
      <trkpt lat="49.88047" lon="4.75289">
        <ele>209</ele>
        <time>2022-08-19T07:56:39.000Z</time>
      </trkpt>
      <trkpt lat="49.88047" lon="4.75294">
        <ele>209</ele>
        <time>2022-08-19T07:56:40.000Z</time>
      </trkpt>
      <trkpt lat="49.88047" lon="4.75298">
        <ele>209</ele>
        <time>2022-08-19T07:56:41.000Z</time>
      </trkpt>
      <trkpt lat="49.88047" lon="4.75301">
        <ele>210</ele>
        <time>2022-08-19T07:56:42.000Z</time>
      </trkpt>
      <trkpt lat="49.88047" lon="4.75305">
        <ele>210</ele>
        <time>2022-08-19T07:56:43.000Z</time>
      </trkpt>
      <trkpt lat="49.88046" lon="4.75309">
        <ele>210</ele>
        <time>2022-08-19T07:56:44.000Z</time>
      </trkpt>
      <trkpt lat="49.88046" lon="4.75314">
        <ele>210</ele>
        <time>2022-08-19T07:56:45.000Z</time>
      </trkpt>
      <trkpt lat="49.88046" lon="4.75318">
        <ele>211</ele>
        <time>2022-08-19T07:56:46.000Z</time>
      </trkpt>
      <trkpt lat="49.88046" lon="4.75322">
        <ele>211</ele>
        <time>2022-08-19T07:56:47.000Z</time>
      </trkpt>
      <trkpt lat="49.88045" lon="4.75326">
        <ele>211</ele>
        <time>2022-08-19T07:56:48.000Z</time>
      </trkpt>
      <trkpt lat="49.88045" lon="4.7533">
        <ele>211</ele>
        <time>2022-08-19T07:56:49.000Z</time>
      </trkpt>
      <trkpt lat="49.88045" lon="4.75335">
        <ele>212</ele>
        <time>2022-08-19T07:56:50.000Z</time>
      </trkpt>
      <trkpt lat="49.88044" lon="4.75339">
        <ele>212</ele>
        <time>2022-08-19T07:56:51.000Z</time>
      </trkpt>
      <trkpt lat="49.88044" lon="4.75343">
        <ele>212</ele>
        <time>2022-08-19T07:56:52.000Z</time>
      </trkpt>
      <trkpt lat="49.88043" lon="4.75347">
        <ele>212</ele>
        <time>2022-08-19T07:56:53.000Z</time>
      </trkpt>
      <trkpt lat="49.88043" lon="4.75351">
        <ele>212</ele>
        <time>2022-08-19T07:56:54.000Z</time>
      </trkpt>
      <trkpt lat="49.88042" lon="4.75354">
        <ele>213</ele>
        <time>2022-08-19T07:56:55.000Z</time>
      </trkpt>
      <trkpt lat="49.88041" lon="4.75358">
        <ele>213</ele>
        <time>2022-08-19T07:56:56.000Z</time>
      </trkpt>
      <trkpt lat="49.8804" lon="4.75362">
        <ele>213</ele>
        <time>2022-08-19T07:56:57.000Z</time>
      </trkpt>
      <trkpt lat="49.8804" lon="4.75366">
        <ele>213</ele>
        <time>2022-08-19T07:56:58.000Z</time>
      </trkpt>
      <trkpt lat="49.88039" lon="4.7537">
        <ele>213</ele>
        <time>2022-08-19T07:56:59.000Z</time>
      </trkpt>
      <trkpt lat="49.88038" lon="4.75374">
        <ele>213</ele>
        <time>2022-08-19T07:57:00.000Z</time>
      </trkpt>
      <trkpt lat="49.88037" lon="4.75378">
        <ele>214</ele>
        <time>2022-08-19T07:57:01.000Z</time>
      </trkpt>
      <trkpt lat="49.88037" lon="4.75382">
        <ele>214</ele>
        <time>2022-08-19T07:57:02.000Z</time>
      </trkpt>
      <trkpt lat="49.88036" lon="4.75386">
        <ele>214</ele>
        <time>2022-08-19T07:57:03.000Z</time>
      </trkpt>
      <trkpt lat="49.88035" lon="4.7539">
        <ele>215</ele>
        <time>2022-08-19T07:57:04.000Z</time>
      </trkpt>
      <trkpt lat="49.88034" lon="4.75394">
        <ele>215</ele>
        <time>2022-08-19T07:57:05.000Z</time>
      </trkpt>
      <trkpt lat="49.88033" lon="4.75398">
        <ele>215</ele>
        <time>2022-08-19T07:57:06.000Z</time>
      </trkpt>
      <trkpt lat="49.88032" lon="4.75402">
        <ele>215</ele>
        <time>2022-08-19T07:57:07.000Z</time>
      </trkpt>
      <trkpt lat="49.88031" lon="4.75405">
        <ele>216</ele>
        <time>2022-08-19T07:57:08.000Z</time>
      </trkpt>
      <trkpt lat="49.8803" lon="4.75408">
        <ele>216</ele>
        <time>2022-08-19T07:57:09.000Z</time>
      </trkpt>
      <trkpt lat="49.88028" lon="4.75411">
        <ele>216</ele>
        <time>2022-08-19T07:57:10.000Z</time>
      </trkpt>
      <trkpt lat="49.88027" lon="4.75414">
        <ele>216</ele>
        <time>2022-08-19T07:57:11.000Z</time>
      </trkpt>
      <trkpt lat="49.88025" lon="4.75417">
        <ele>216</ele>
        <time>2022-08-19T07:57:12.000Z</time>
      </trkpt>
      <trkpt lat="49.88024" lon="4.75421">
        <ele>217</ele>
        <time>2022-08-19T07:57:13.000Z</time>
      </trkpt>
      <trkpt lat="49.88023" lon="4.75425">
        <ele>217</ele>
        <time>2022-08-19T07:57:14.000Z</time>
      </trkpt>
      <trkpt lat="49.88022" lon="4.75428">
        <ele>217</ele>
        <time>2022-08-19T07:57:15.000Z</time>
      </trkpt>
      <trkpt lat="49.88022" lon="4.75432">
        <ele>217</ele>
        <time>2022-08-19T07:57:16.000Z</time>
      </trkpt>
      <trkpt lat="49.88021" lon="4.75436">
        <ele>218</ele>
        <time>2022-08-19T07:57:17.000Z</time>
      </trkpt>
      <trkpt lat="49.8802" lon="4.75439">
        <ele>218</ele>
        <time>2022-08-19T07:57:18.000Z</time>
      </trkpt>
      <trkpt lat="49.88019" lon="4.75443">
        <ele>218</ele>
        <time>2022-08-19T07:57:19.000Z</time>
      </trkpt>
      <trkpt lat="49.88018" lon="4.75447">
        <ele>218</ele>
        <time>2022-08-19T07:57:20.000Z</time>
      </trkpt>
      <trkpt lat="49.88017" lon="4.7545">
        <ele>219</ele>
        <time>2022-08-19T07:57:21.000Z</time>
      </trkpt>
      <trkpt lat="49.88017" lon="4.75454">
        <ele>219</ele>
        <time>2022-08-19T07:57:22.000Z</time>
      </trkpt>
      <trkpt lat="49.88016" lon="4.75458">
        <ele>219</ele>
        <time>2022-08-19T07:57:23.000Z</time>
      </trkpt>
      <trkpt lat="49.88016" lon="4.75462">
        <ele>219</ele>
        <time>2022-08-19T07:57:24.000Z</time>
      </trkpt>
      <trkpt lat="49.88015" lon="4.75467">
        <ele>220</ele>
        <time>2022-08-19T07:57:25.000Z</time>
      </trkpt>
      <trkpt lat="49.88015" lon="4.75471">
        <ele>220</ele>
        <time>2022-08-19T07:57:26.000Z</time>
      </trkpt>
      <trkpt lat="49.88014" lon="4.75476">
        <ele>220</ele>
        <time>2022-08-19T07:57:27.000Z</time>
      </trkpt>
      <trkpt lat="49.88014" lon="4.7548">
        <ele>221</ele>
        <time>2022-08-19T07:57:28.000Z</time>
      </trkpt>
      <trkpt lat="49.88014" lon="4.75485">
        <ele>221</ele>
        <time>2022-08-19T07:57:29.000Z</time>
      </trkpt>
      <trkpt lat="49.88014" lon="4.75489">
        <ele>221</ele>
        <time>2022-08-19T07:57:30.000Z</time>
      </trkpt>
      <trkpt lat="49.88013" lon="4.75493">
        <ele>222</ele>
        <time>2022-08-19T07:57:31.000Z</time>
      </trkpt>
      <trkpt lat="49.88013" lon="4.75497">
        <ele>222</ele>
        <time>2022-08-19T07:57:32.000Z</time>
      </trkpt>
      <trkpt lat="49.88013" lon="4.75501">
        <ele>222</ele>
        <time>2022-08-19T07:57:33.000Z</time>
      </trkpt>
      <trkpt lat="49.88013" lon="4.75505">
        <ele>222</ele>
        <time>2022-08-19T07:57:34.000Z</time>
      </trkpt>
      <trkpt lat="49.88013" lon="4.75509">
        <ele>223</ele>
        <time>2022-08-19T07:57:35.000Z</time>
      </trkpt>
      <trkpt lat="49.88013" lon="4.75512">
        <ele>223</ele>
        <time>2022-08-19T07:57:36.000Z</time>
      </trkpt>
      <trkpt lat="49.88013" lon="4.75516">
        <ele>223</ele>
        <time>2022-08-19T07:57:37.000Z</time>
      </trkpt>
      <trkpt lat="49.88013" lon="4.7552">
        <ele>223</ele>
        <time>2022-08-19T07:57:38.000Z</time>
      </trkpt>
      <trkpt lat="49.88013" lon="4.75524">
        <ele>223</ele>
        <time>2022-08-19T07:57:39.000Z</time>
      </trkpt>
      <trkpt lat="49.88012" lon="4.75528">
        <ele>224</ele>
        <time>2022-08-19T07:57:40.000Z</time>
      </trkpt>
      <trkpt lat="49.88012" lon="4.75532">
        <ele>224</ele>
        <time>2022-08-19T07:57:41.000Z</time>
      </trkpt>
      <trkpt lat="49.88012" lon="4.75536">
        <ele>224</ele>
        <time>2022-08-19T07:57:42.000Z</time>
      </trkpt>
      <trkpt lat="49.88012" lon="4.7554">
        <ele>224</ele>
        <time>2022-08-19T07:57:43.000Z</time>
      </trkpt>
      <trkpt lat="49.88011" lon="4.75544">
        <ele>224</ele>
        <time>2022-08-19T07:57:44.000Z</time>
      </trkpt>
      <trkpt lat="49.88011" lon="4.75548">
        <ele>224</ele>
        <time>2022-08-19T07:57:45.000Z</time>
      </trkpt>
      <trkpt lat="49.88011" lon="4.75552">
        <ele>224</ele>
        <time>2022-08-19T07:57:46.000Z</time>
      </trkpt>
      <trkpt lat="49.8801" lon="4.75556">
        <ele>224</ele>
        <time>2022-08-19T07:57:47.000Z</time>
      </trkpt>
      <trkpt lat="49.88009" lon="4.7556">
        <ele>224</ele>
        <time>2022-08-19T07:57:48.000Z</time>
      </trkpt>
      <trkpt lat="49.88009" lon="4.75564">
        <ele>225</ele>
        <time>2022-08-19T07:57:49.000Z</time>
      </trkpt>
      <trkpt lat="49.88008" lon="4.75568">
        <ele>225</ele>
        <time>2022-08-19T07:57:50.000Z</time>
      </trkpt>
      <trkpt lat="49.88007" lon="4.75573">
        <ele>225</ele>
        <time>2022-08-19T07:57:51.000Z</time>
      </trkpt>
      <trkpt lat="49.88006" lon="4.75577">
        <ele>225</ele>
        <time>2022-08-19T07:57:52.000Z</time>
      </trkpt>
      <trkpt lat="49.88005" lon="4.75581">
        <ele>225</ele>
        <time>2022-08-19T07:57:53.000Z</time>
      </trkpt>
      <trkpt lat="49.88004" lon="4.75585">
        <ele>225</ele>
        <time>2022-08-19T07:57:54.000Z</time>
      </trkpt>
      <trkpt lat="49.88004" lon="4.75589">
        <ele>225</ele>
        <time>2022-08-19T07:57:55.000Z</time>
      </trkpt>
      <trkpt lat="49.88002" lon="4.75593">
        <ele>225</ele>
        <time>2022-08-19T07:57:56.000Z</time>
      </trkpt>
      <trkpt lat="49.88001" lon="4.75597">
        <ele>225</ele>
        <time>2022-08-19T07:57:57.000Z</time>
      </trkpt>
      <trkpt lat="49.88" lon="4.75601">
        <ele>226</ele>
        <time>2022-08-19T07:57:58.000Z</time>
      </trkpt>
      <trkpt lat="49.87999" lon="4.75605">
        <ele>226</ele>
        <time>2022-08-19T07:57:59.000Z</time>
      </trkpt>
      <trkpt lat="49.87998" lon="4.75608">
        <ele>226</ele>
        <time>2022-08-19T07:58:00.000Z</time>
      </trkpt>
      <trkpt lat="49.87997" lon="4.75612">
        <ele>226</ele>
        <time>2022-08-19T07:58:01.000Z</time>
      </trkpt>
      <trkpt lat="49.87996" lon="4.75616">
        <ele>227</ele>
        <time>2022-08-19T07:58:02.000Z</time>
      </trkpt>
      <trkpt lat="49.87995" lon="4.7562">
        <ele>227</ele>
        <time>2022-08-19T07:58:03.000Z</time>
      </trkpt>
      <trkpt lat="49.87994" lon="4.75623">
        <ele>227</ele>
        <time>2022-08-19T07:58:04.000Z</time>
      </trkpt>
      <trkpt lat="49.87993" lon="4.75627">
        <ele>227</ele>
        <time>2022-08-19T07:58:05.000Z</time>
      </trkpt>
      <trkpt lat="49.87991" lon="4.75631">
        <ele>228</ele>
        <time>2022-08-19T07:58:06.000Z</time>
      </trkpt>
      <trkpt lat="49.8799" lon="4.75635">
        <ele>228</ele>
        <time>2022-08-19T07:58:07.000Z</time>
      </trkpt>
      <trkpt lat="49.87989" lon="4.75639">
        <ele>228</ele>
        <time>2022-08-19T07:58:08.000Z</time>
      </trkpt>
      <trkpt lat="49.87988" lon="4.75643">
        <ele>228</ele>
        <time>2022-08-19T07:58:09.000Z</time>
      </trkpt>
      <trkpt lat="49.87986" lon="4.75647">
        <ele>228</ele>
        <time>2022-08-19T07:58:10.000Z</time>
      </trkpt>
      <trkpt lat="49.87985" lon="4.75651">
        <ele>229</ele>
        <time>2022-08-19T07:58:11.000Z</time>
      </trkpt>
      <trkpt lat="49.87984" lon="4.75656">
        <ele>229</ele>
        <time>2022-08-19T07:58:12.000Z</time>
      </trkpt>
      <trkpt lat="49.87982" lon="4.75659">
        <ele>229</ele>
        <time>2022-08-19T07:58:13.000Z</time>
      </trkpt>
      <trkpt lat="49.87981" lon="4.75663">
        <ele>229</ele>
        <time>2022-08-19T07:58:14.000Z</time>
      </trkpt>
      <trkpt lat="49.8798" lon="4.75667">
        <ele>229</ele>
        <time>2022-08-19T07:58:15.000Z</time>
      </trkpt>
      <trkpt lat="49.87979" lon="4.75671">
        <ele>229</ele>
        <time>2022-08-19T07:58:16.000Z</time>
      </trkpt>
      <trkpt lat="49.87978" lon="4.75676">
        <ele>229</ele>
        <time>2022-08-19T07:58:17.000Z</time>
      </trkpt>
      <trkpt lat="49.87978" lon="4.7568">
        <ele>229</ele>
        <time>2022-08-19T07:58:18.000Z</time>
      </trkpt>
      <trkpt lat="49.87977" lon="4.75685">
        <ele>229</ele>
        <time>2022-08-19T07:58:19.000Z</time>
      </trkpt>
      <trkpt lat="49.87977" lon="4.7569">
        <ele>229</ele>
        <time>2022-08-19T07:58:20.000Z</time>
      </trkpt>
      <trkpt lat="49.87977" lon="4.75695">
        <ele>230</ele>
        <time>2022-08-19T07:58:21.000Z</time>
      </trkpt>
      <trkpt lat="49.87976" lon="4.757">
        <ele>230</ele>
        <time>2022-08-19T07:58:22.000Z</time>
      </trkpt>
      <trkpt lat="49.87976" lon="4.75705">
        <ele>230</ele>
        <time>2022-08-19T07:58:23.000Z</time>
      </trkpt>
      <trkpt lat="49.87976" lon="4.7571">
        <ele>230</ele>
        <time>2022-08-19T07:58:24.000Z</time>
      </trkpt>
      <trkpt lat="49.87976" lon="4.75715">
        <ele>230</ele>
        <time>2022-08-19T07:58:25.000Z</time>
      </trkpt>
      <trkpt lat="49.87975" lon="4.7572">
        <ele>230</ele>
        <time>2022-08-19T07:58:26.000Z</time>
      </trkpt>
      <trkpt lat="49.87975" lon="4.75725">
        <ele>231</ele>
        <time>2022-08-19T07:58:27.000Z</time>
      </trkpt>
      <trkpt lat="49.87975" lon="4.7573">
        <ele>231</ele>
        <time>2022-08-19T07:58:28.000Z</time>
      </trkpt>
      <trkpt lat="49.87974" lon="4.75735">
        <ele>231</ele>
        <time>2022-08-19T07:58:29.000Z</time>
      </trkpt>
      <trkpt lat="49.87974" lon="4.75741">
        <ele>231</ele>
        <time>2022-08-19T07:58:30.000Z</time>
      </trkpt>
      <trkpt lat="49.87973" lon="4.75746">
        <ele>231</ele>
        <time>2022-08-19T07:58:31.000Z</time>
      </trkpt>
      <trkpt lat="49.87972" lon="4.75751">
        <ele>231</ele>
        <time>2022-08-19T07:58:32.000Z</time>
      </trkpt>
      <trkpt lat="49.8797" lon="4.75756">
        <ele>231</ele>
        <time>2022-08-19T07:58:33.000Z</time>
      </trkpt>
      <trkpt lat="49.87968" lon="4.7576">
        <ele>231</ele>
        <time>2022-08-19T07:58:34.000Z</time>
      </trkpt>
      <trkpt lat="49.87966" lon="4.75764">
        <ele>231</ele>
        <time>2022-08-19T07:58:35.000Z</time>
      </trkpt>
      <trkpt lat="49.87964" lon="4.75768">
        <ele>231</ele>
        <time>2022-08-19T07:58:36.000Z</time>
      </trkpt>
      <trkpt lat="49.87961" lon="4.7577">
        <ele>231</ele>
        <time>2022-08-19T07:58:37.000Z</time>
      </trkpt>
      <trkpt lat="49.87957" lon="4.75772">
        <ele>231</ele>
        <time>2022-08-19T07:58:38.000Z</time>
      </trkpt>
      <trkpt lat="49.87954" lon="4.75773">
        <ele>231</ele>
        <time>2022-08-19T07:58:39.000Z</time>
      </trkpt>
      <trkpt lat="49.87951" lon="4.75773">
        <ele>232</ele>
        <time>2022-08-19T07:58:40.000Z</time>
      </trkpt>
      <trkpt lat="49.87948" lon="4.75772">
        <ele>232</ele>
        <time>2022-08-19T07:58:41.000Z</time>
      </trkpt>
      <trkpt lat="49.87945" lon="4.7577">
        <ele>232</ele>
        <time>2022-08-19T07:58:42.000Z</time>
      </trkpt>
      <trkpt lat="49.87943" lon="4.75768">
        <ele>232</ele>
        <time>2022-08-19T07:58:43.000Z</time>
      </trkpt>
      <trkpt lat="49.87941" lon="4.75765">
        <ele>233</ele>
        <time>2022-08-19T07:58:44.000Z</time>
      </trkpt>
      <trkpt lat="49.87939" lon="4.75762">
        <ele>233</ele>
        <time>2022-08-19T07:58:45.000Z</time>
      </trkpt>
      <trkpt lat="49.87938" lon="4.75758">
        <ele>233</ele>
        <time>2022-08-19T07:58:46.000Z</time>
      </trkpt>
      <trkpt lat="49.87937" lon="4.75754">
        <ele>233</ele>
        <time>2022-08-19T07:58:47.000Z</time>
      </trkpt>
      <trkpt lat="49.87936" lon="4.75749">
        <ele>233</ele>
        <time>2022-08-19T07:58:48.000Z</time>
      </trkpt>
      <trkpt lat="49.87935" lon="4.75744">
        <ele>233</ele>
        <time>2022-08-19T07:58:49.000Z</time>
      </trkpt>
      <trkpt lat="49.87936" lon="4.75739">
        <ele>234</ele>
        <time>2022-08-19T07:58:50.000Z</time>
      </trkpt>
      <trkpt lat="49.87936" lon="4.75734">
        <ele>234</ele>
        <time>2022-08-19T07:58:51.000Z</time>
      </trkpt>
      <trkpt lat="49.87937" lon="4.75729">
        <ele>234</ele>
        <time>2022-08-19T07:58:52.000Z</time>
      </trkpt>
      <trkpt lat="49.87938" lon="4.75724">
        <ele>234</ele>
        <time>2022-08-19T07:58:53.000Z</time>
      </trkpt>
      <trkpt lat="49.8794" lon="4.75719">
        <ele>234</ele>
        <time>2022-08-19T07:58:54.000Z</time>
      </trkpt>
      <trkpt lat="49.87941" lon="4.75714">
        <ele>234</ele>
        <time>2022-08-19T07:58:55.000Z</time>
      </trkpt>
      <trkpt lat="49.87943" lon="4.75709">
        <ele>234</ele>
        <time>2022-08-19T07:58:56.000Z</time>
      </trkpt>
      <trkpt lat="49.87944" lon="4.75705">
        <ele>234</ele>
        <time>2022-08-19T07:58:57.000Z</time>
      </trkpt>
      <trkpt lat="49.87946" lon="4.757">
        <ele>234</ele>
        <time>2022-08-19T07:58:58.000Z</time>
      </trkpt>
      <trkpt lat="49.87947" lon="4.75695">
        <ele>234</ele>
        <time>2022-08-19T07:58:59.000Z</time>
      </trkpt>
      <trkpt lat="49.87948" lon="4.7569">
        <ele>234</ele>
        <time>2022-08-19T07:59:00.000Z</time>
      </trkpt>
      <trkpt lat="49.87948" lon="4.75685">
        <ele>234</ele>
        <time>2022-08-19T07:59:01.000Z</time>
      </trkpt>
      <trkpt lat="49.87949" lon="4.75679">
        <ele>235</ele>
        <time>2022-08-19T07:59:02.000Z</time>
      </trkpt>
      <trkpt lat="49.87949" lon="4.75674">
        <ele>235</ele>
        <time>2022-08-19T07:59:03.000Z</time>
      </trkpt>
      <trkpt lat="49.87949" lon="4.75668">
        <ele>235</ele>
        <time>2022-08-19T07:59:04.000Z</time>
      </trkpt>
      <trkpt lat="49.87949" lon="4.75663">
        <ele>235</ele>
        <time>2022-08-19T07:59:05.000Z</time>
      </trkpt>
      <trkpt lat="49.87949" lon="4.75658">
        <ele>236</ele>
        <time>2022-08-19T07:59:06.000Z</time>
      </trkpt>
      <trkpt lat="49.8795" lon="4.75653">
        <ele>236</ele>
        <time>2022-08-19T07:59:07.000Z</time>
      </trkpt>
      <trkpt lat="49.8795" lon="4.75648">
        <ele>236</ele>
        <time>2022-08-19T07:59:08.000Z</time>
      </trkpt>
      <trkpt lat="49.8795" lon="4.75644">
        <ele>236</ele>
        <time>2022-08-19T07:59:09.000Z</time>
      </trkpt>
      <trkpt lat="49.87949" lon="4.7564">
        <ele>237</ele>
        <time>2022-08-19T07:59:10.000Z</time>
      </trkpt>
      <trkpt lat="49.87949" lon="4.75636">
        <ele>237</ele>
        <time>2022-08-19T07:59:11.000Z</time>
      </trkpt>
      <trkpt lat="49.87949" lon="4.75632">
        <ele>238</ele>
        <time>2022-08-19T07:59:12.000Z</time>
      </trkpt>
      <trkpt lat="49.87949" lon="4.75628">
        <ele>238</ele>
        <time>2022-08-19T07:59:13.000Z</time>
      </trkpt>
      <trkpt lat="49.87948" lon="4.75625">
        <ele>238</ele>
        <time>2022-08-19T07:59:14.000Z</time>
      </trkpt>
      <trkpt lat="49.87948" lon="4.75621">
        <ele>239</ele>
        <time>2022-08-19T07:59:15.000Z</time>
      </trkpt>
      <trkpt lat="49.87949" lon="4.75618">
        <ele>239</ele>
        <time>2022-08-19T07:59:16.000Z</time>
      </trkpt>
      <trkpt lat="49.8795" lon="4.75614">
        <ele>239</ele>
        <time>2022-08-19T07:59:17.000Z</time>
      </trkpt>
      <trkpt lat="49.8795" lon="4.7561">
        <ele>240</ele>
        <time>2022-08-19T07:59:18.000Z</time>
      </trkpt>
      <trkpt lat="49.87951" lon="4.75607">
        <ele>240</ele>
        <time>2022-08-19T07:59:19.000Z</time>
      </trkpt>
      <trkpt lat="49.87951" lon="4.75603">
        <ele>240</ele>
        <time>2022-08-19T07:59:20.000Z</time>
      </trkpt>
      <trkpt lat="49.87951" lon="4.75599">
        <ele>241</ele>
        <time>2022-08-19T07:59:21.000Z</time>
      </trkpt>
      <trkpt lat="49.87951" lon="4.75595">
        <ele>241</ele>
        <time>2022-08-19T07:59:22.000Z</time>
      </trkpt>
      <trkpt lat="49.8795" lon="4.75591">
        <ele>241</ele>
        <time>2022-08-19T07:59:23.000Z</time>
      </trkpt>
      <trkpt lat="49.87949" lon="4.75587">
        <ele>242</ele>
        <time>2022-08-19T07:59:24.000Z</time>
      </trkpt>
      <trkpt lat="49.87949" lon="4.75583">
        <ele>242</ele>
        <time>2022-08-19T07:59:25.000Z</time>
      </trkpt>
      <trkpt lat="49.87949" lon="4.75579">
        <ele>242</ele>
        <time>2022-08-19T07:59:26.000Z</time>
      </trkpt>
      <trkpt lat="49.87948" lon="4.75574">
        <ele>243</ele>
        <time>2022-08-19T07:59:27.000Z</time>
      </trkpt>
      <trkpt lat="49.87948" lon="4.7557">
        <ele>243</ele>
        <time>2022-08-19T07:59:28.000Z</time>
      </trkpt>
      <trkpt lat="49.87948" lon="4.75566">
        <ele>244</ele>
        <time>2022-08-19T07:59:29.000Z</time>
      </trkpt>
      <trkpt lat="49.87948" lon="4.75562">
        <ele>244</ele>
        <time>2022-08-19T07:59:30.000Z</time>
      </trkpt>
      <trkpt lat="49.87947" lon="4.75558">
        <ele>244</ele>
        <time>2022-08-19T07:59:31.000Z</time>
      </trkpt>
      <trkpt lat="49.87946" lon="4.75554">
        <ele>245</ele>
        <time>2022-08-19T07:59:32.000Z</time>
      </trkpt>
      <trkpt lat="49.87945" lon="4.7555">
        <ele>245</ele>
        <time>2022-08-19T07:59:33.000Z</time>
      </trkpt>
      <trkpt lat="49.87945" lon="4.75546">
        <ele>246</ele>
        <time>2022-08-19T07:59:34.000Z</time>
      </trkpt>
      <trkpt lat="49.87944" lon="4.75542">
        <ele>246</ele>
        <time>2022-08-19T07:59:35.000Z</time>
      </trkpt>
      <trkpt lat="49.87943" lon="4.75539">
        <ele>246</ele>
        <time>2022-08-19T07:59:36.000Z</time>
      </trkpt>
      <trkpt lat="49.87942" lon="4.75535">
        <ele>247</ele>
        <time>2022-08-19T07:59:37.000Z</time>
      </trkpt>
      <trkpt lat="49.87941" lon="4.75532">
        <ele>247</ele>
        <time>2022-08-19T07:59:38.000Z</time>
      </trkpt>
      <trkpt lat="49.8794" lon="4.75528">
        <ele>247</ele>
        <time>2022-08-19T07:59:39.000Z</time>
      </trkpt>
      <trkpt lat="49.87938" lon="4.75524">
        <ele>248</ele>
        <time>2022-08-19T07:59:40.000Z</time>
      </trkpt>
      <trkpt lat="49.87937" lon="4.75521">
        <ele>248</ele>
        <time>2022-08-19T07:59:41.000Z</time>
      </trkpt>
      <trkpt lat="49.87936" lon="4.75517">
        <ele>248</ele>
        <time>2022-08-19T07:59:42.000Z</time>
      </trkpt>
      <trkpt lat="49.87935" lon="4.75514">
        <ele>249</ele>
        <time>2022-08-19T07:59:43.000Z</time>
      </trkpt>
      <trkpt lat="49.87933" lon="4.75511">
        <ele>249</ele>
        <time>2022-08-19T07:59:44.000Z</time>
      </trkpt>
      <trkpt lat="49.87931" lon="4.75507">
        <ele>249</ele>
        <time>2022-08-19T07:59:45.000Z</time>
      </trkpt>
      <trkpt lat="49.8793" lon="4.75504">
        <ele>249</ele>
        <time>2022-08-19T07:59:46.000Z</time>
      </trkpt>
      <trkpt lat="49.87929" lon="4.75501">
        <ele>249</ele>
        <time>2022-08-19T07:59:47.000Z</time>
      </trkpt>
      <trkpt lat="49.87927" lon="4.75497">
        <ele>250</ele>
        <time>2022-08-19T07:59:48.000Z</time>
      </trkpt>
      <trkpt lat="49.87926" lon="4.75494">
        <ele>250</ele>
        <time>2022-08-19T07:59:49.000Z</time>
      </trkpt>
      <trkpt lat="49.87925" lon="4.7549">
        <ele>250</ele>
        <time>2022-08-19T07:59:50.000Z</time>
      </trkpt>
      <trkpt lat="49.87924" lon="4.75487">
        <ele>250</ele>
        <time>2022-08-19T07:59:51.000Z</time>
      </trkpt>
      <trkpt lat="49.87923" lon="4.75483">
        <ele>251</ele>
        <time>2022-08-19T07:59:52.000Z</time>
      </trkpt>
      <trkpt lat="49.87921" lon="4.7548">
        <ele>251</ele>
        <time>2022-08-19T07:59:53.000Z</time>
      </trkpt>
      <trkpt lat="49.87919" lon="4.75476">
        <ele>251</ele>
        <time>2022-08-19T07:59:54.000Z</time>
      </trkpt>
      <trkpt lat="49.87918" lon="4.75472">
        <ele>251</ele>
        <time>2022-08-19T07:59:55.000Z</time>
      </trkpt>
      <trkpt lat="49.87916" lon="4.75468">
        <ele>251</ele>
        <time>2022-08-19T07:59:56.000Z</time>
      </trkpt>
      <trkpt lat="49.87915" lon="4.75465">
        <ele>251</ele>
        <time>2022-08-19T07:59:57.000Z</time>
      </trkpt>
      <trkpt lat="49.87913" lon="4.75461">
        <ele>252</ele>
        <time>2022-08-19T07:59:58.000Z</time>
      </trkpt>
      <trkpt lat="49.87912" lon="4.75458">
        <ele>252</ele>
        <time>2022-08-19T07:59:59.000Z</time>
      </trkpt>
      <trkpt lat="49.8791" lon="4.75454">
        <ele>252</ele>
        <time>2022-08-19T08:00:00.000Z</time>
      </trkpt>
      <trkpt lat="49.87909" lon="4.75451">
        <ele>252</ele>
        <time>2022-08-19T08:00:01.000Z</time>
      </trkpt>
      <trkpt lat="49.87907" lon="4.75447">
        <ele>253</ele>
        <time>2022-08-19T08:00:02.000Z</time>
      </trkpt>
      <trkpt lat="49.87906" lon="4.75443">
        <ele>253</ele>
        <time>2022-08-19T08:00:03.000Z</time>
      </trkpt>
      <trkpt lat="49.87904" lon="4.75439">
        <ele>253</ele>
        <time>2022-08-19T08:00:04.000Z</time>
      </trkpt>
      <trkpt lat="49.87902" lon="4.75436">
        <ele>253</ele>
        <time>2022-08-19T08:00:05.000Z</time>
      </trkpt>
      <trkpt lat="49.87901" lon="4.75432">
        <ele>253</ele>
        <time>2022-08-19T08:00:06.000Z</time>
      </trkpt>
      <trkpt lat="49.87899" lon="4.75428">
        <ele>254</ele>
        <time>2022-08-19T08:00:07.000Z</time>
      </trkpt>
      <trkpt lat="49.87898" lon="4.75424">
        <ele>254</ele>
        <time>2022-08-19T08:00:08.000Z</time>
      </trkpt>
      <trkpt lat="49.87897" lon="4.75419">
        <ele>254</ele>
        <time>2022-08-19T08:00:09.000Z</time>
      </trkpt>
      <trkpt lat="49.87896" lon="4.75414">
        <ele>254</ele>
        <time>2022-08-19T08:00:10.000Z</time>
      </trkpt>
      <trkpt lat="49.87895" lon="4.7541">
        <ele>254</ele>
        <time>2022-08-19T08:00:11.000Z</time>
      </trkpt>
      <trkpt lat="49.87894" lon="4.75405">
        <ele>255</ele>
        <time>2022-08-19T08:00:12.000Z</time>
      </trkpt>
      <trkpt lat="49.87893" lon="4.75401">
        <ele>255</ele>
        <time>2022-08-19T08:00:13.000Z</time>
      </trkpt>
      <trkpt lat="49.87892" lon="4.75397">
        <ele>255</ele>
        <time>2022-08-19T08:00:14.000Z</time>
      </trkpt>
      <trkpt lat="49.8789" lon="4.75393">
        <ele>255</ele>
        <time>2022-08-19T08:00:15.000Z</time>
      </trkpt>
      <trkpt lat="49.87889" lon="4.75388">
        <ele>255</ele>
        <time>2022-08-19T08:00:16.000Z</time>
      </trkpt>
      <trkpt lat="49.87888" lon="4.75384">
        <ele>255</ele>
        <time>2022-08-19T08:00:17.000Z</time>
      </trkpt>
      <trkpt lat="49.87887" lon="4.7538">
        <ele>256</ele>
        <time>2022-08-19T08:00:18.000Z</time>
      </trkpt>
      <trkpt lat="49.87886" lon="4.75377">
        <ele>256</ele>
        <time>2022-08-19T08:00:19.000Z</time>
      </trkpt>
      <trkpt lat="49.87885" lon="4.75374">
        <ele>256</ele>
        <time>2022-08-19T08:00:20.000Z</time>
      </trkpt>
      <trkpt lat="49.87884" lon="4.7537">
        <ele>257</ele>
        <time>2022-08-19T08:00:21.000Z</time>
      </trkpt>
      <trkpt lat="49.87883" lon="4.75367">
        <ele>257</ele>
        <time>2022-08-19T08:00:22.000Z</time>
      </trkpt>
      <trkpt lat="49.87882" lon="4.75363">
        <ele>257</ele>
        <time>2022-08-19T08:00:23.000Z</time>
      </trkpt>
      <trkpt lat="49.87881" lon="4.75359">
        <ele>257</ele>
        <time>2022-08-19T08:00:24.000Z</time>
      </trkpt>
      <trkpt lat="49.8788" lon="4.75355">
        <ele>258</ele>
        <time>2022-08-19T08:00:25.000Z</time>
      </trkpt>
      <trkpt lat="49.87878" lon="4.75351">
        <ele>258</ele>
        <time>2022-08-19T08:00:26.000Z</time>
      </trkpt>
      <trkpt lat="49.87877" lon="4.75346">
        <ele>258</ele>
        <time>2022-08-19T08:00:27.000Z</time>
      </trkpt>
      <trkpt lat="49.87875" lon="4.75342">
        <ele>259</ele>
        <time>2022-08-19T08:00:28.000Z</time>
      </trkpt>
      <trkpt lat="49.87874" lon="4.75338">
        <ele>259</ele>
        <time>2022-08-19T08:00:29.000Z</time>
      </trkpt>
      <trkpt lat="49.87872" lon="4.75334">
        <ele>259</ele>
        <time>2022-08-19T08:00:30.000Z</time>
      </trkpt>
      <trkpt lat="49.87871" lon="4.7533">
        <ele>259</ele>
        <time>2022-08-19T08:00:31.000Z</time>
      </trkpt>
      <trkpt lat="49.8787" lon="4.75326">
        <ele>260</ele>
        <time>2022-08-19T08:00:32.000Z</time>
      </trkpt>
      <trkpt lat="49.87868" lon="4.75322">
        <ele>260</ele>
        <time>2022-08-19T08:00:33.000Z</time>
      </trkpt>
      <trkpt lat="49.87867" lon="4.75318">
        <ele>260</ele>
        <time>2022-08-19T08:00:34.000Z</time>
      </trkpt>
      <trkpt lat="49.87865" lon="4.75314">
        <ele>261</ele>
        <time>2022-08-19T08:00:35.000Z</time>
      </trkpt>
      <trkpt lat="49.87863" lon="4.7531">
        <ele>261</ele>
        <time>2022-08-19T08:00:36.000Z</time>
      </trkpt>
      <trkpt lat="49.87862" lon="4.75307">
        <ele>261</ele>
        <time>2022-08-19T08:00:37.000Z</time>
      </trkpt>
      <trkpt lat="49.87861" lon="4.75304">
        <ele>261</ele>
        <time>2022-08-19T08:00:38.000Z</time>
      </trkpt>
      <trkpt lat="49.8786" lon="4.753">
        <ele>261</ele>
        <time>2022-08-19T08:00:39.000Z</time>
      </trkpt>
      <trkpt lat="49.87859" lon="4.75297">
        <ele>262</ele>
        <time>2022-08-19T08:00:40.000Z</time>
      </trkpt>
      <trkpt lat="49.87858" lon="4.75293">
        <ele>262</ele>
        <time>2022-08-19T08:00:41.000Z</time>
      </trkpt>
      <trkpt lat="49.87857" lon="4.7529">
        <ele>262</ele>
        <time>2022-08-19T08:00:42.000Z</time>
      </trkpt>
      <trkpt lat="49.87856" lon="4.75287">
        <ele>262</ele>
        <time>2022-08-19T08:00:43.000Z</time>
      </trkpt>
      <trkpt lat="49.87854" lon="4.75283">
        <ele>263</ele>
        <time>2022-08-19T08:00:44.000Z</time>
      </trkpt>
      <trkpt lat="49.87853" lon="4.7528">
        <ele>263</ele>
        <time>2022-08-19T08:00:45.000Z</time>
      </trkpt>
      <trkpt lat="49.87851" lon="4.75277">
        <ele>263</ele>
        <time>2022-08-19T08:00:46.000Z</time>
      </trkpt>
      <trkpt lat="49.8785" lon="4.75272">
        <ele>263</ele>
        <time>2022-08-19T08:00:47.000Z</time>
      </trkpt>
      <trkpt lat="49.87848" lon="4.75268">
        <ele>263</ele>
        <time>2022-08-19T08:00:48.000Z</time>
      </trkpt>
      <trkpt lat="49.87846" lon="4.75264">
        <ele>263</ele>
        <time>2022-08-19T08:00:49.000Z</time>
      </trkpt>
      <trkpt lat="49.87844" lon="4.7526">
        <ele>263</ele>
        <time>2022-08-19T08:00:50.000Z</time>
      </trkpt>
      <trkpt lat="49.87842" lon="4.75256">
        <ele>263</ele>
        <time>2022-08-19T08:00:51.000Z</time>
      </trkpt>
      <trkpt lat="49.8784" lon="4.75252">
        <ele>263</ele>
        <time>2022-08-19T08:00:52.000Z</time>
      </trkpt>
      <trkpt lat="49.87838" lon="4.75247">
        <ele>263</ele>
        <time>2022-08-19T08:00:53.000Z</time>
      </trkpt>
      <trkpt lat="49.87836" lon="4.75243">
        <ele>262</ele>
        <time>2022-08-19T08:00:54.000Z</time>
      </trkpt>
      <trkpt lat="49.87834" lon="4.7524">
        <ele>262</ele>
        <time>2022-08-19T08:00:55.000Z</time>
      </trkpt>
      <trkpt lat="49.87832" lon="4.75236">
        <ele>262</ele>
        <time>2022-08-19T08:00:56.000Z</time>
      </trkpt>
      <trkpt lat="49.8783" lon="4.75233">
        <ele>262</ele>
        <time>2022-08-19T08:00:57.000Z</time>
      </trkpt>
      <trkpt lat="49.87827" lon="4.7523">
        <ele>262</ele>
        <time>2022-08-19T08:00:58.000Z</time>
      </trkpt>
      <trkpt lat="49.87824" lon="4.75227">
        <ele>262</ele>
        <time>2022-08-19T08:00:59.000Z</time>
      </trkpt>
      <trkpt lat="49.87822" lon="4.75225">
        <ele>262</ele>
        <time>2022-08-19T08:01:00.000Z</time>
      </trkpt>
      <trkpt lat="49.87819" lon="4.75223">
        <ele>262</ele>
        <time>2022-08-19T08:01:01.000Z</time>
      </trkpt>
      <trkpt lat="49.87816" lon="4.75221">
        <ele>262</ele>
        <time>2022-08-19T08:01:02.000Z</time>
      </trkpt>
      <trkpt lat="49.87812" lon="4.7522">
        <ele>262</ele>
        <time>2022-08-19T08:01:03.000Z</time>
      </trkpt>
      <trkpt lat="49.87809" lon="4.75219">
        <ele>262</ele>
        <time>2022-08-19T08:01:04.000Z</time>
      </trkpt>
      <trkpt lat="49.87806" lon="4.75219">
        <ele>262</ele>
        <time>2022-08-19T08:01:05.000Z</time>
      </trkpt>
      <trkpt lat="49.87803" lon="4.75219">
        <ele>262</ele>
        <time>2022-08-19T08:01:06.000Z</time>
      </trkpt>
      <trkpt lat="49.878" lon="4.7522">
        <ele>262</ele>
        <time>2022-08-19T08:01:07.000Z</time>
      </trkpt>
      <trkpt lat="49.87798" lon="4.7522">
        <ele>262</ele>
        <time>2022-08-19T08:01:08.000Z</time>
      </trkpt>
      <trkpt lat="49.87795" lon="4.75221">
        <ele>262</ele>
        <time>2022-08-19T08:01:09.000Z</time>
      </trkpt>
      <trkpt lat="49.87793" lon="4.75221">
        <ele>262</ele>
        <time>2022-08-19T08:01:10.000Z</time>
      </trkpt>
      <trkpt lat="49.87791" lon="4.75221">
        <ele>262</ele>
        <time>2022-08-19T08:01:11.000Z</time>
      </trkpt>
      <trkpt lat="49.87788" lon="4.75221">
        <ele>262</ele>
        <time>2022-08-19T08:01:12.000Z</time>
      </trkpt>
      <trkpt lat="49.87786" lon="4.75222">
        <ele>263</ele>
        <time>2022-08-19T08:01:13.000Z</time>
      </trkpt>
      <trkpt lat="49.87784" lon="4.75223">
        <ele>263</ele>
        <time>2022-08-19T08:01:14.000Z</time>
      </trkpt>
      <trkpt lat="49.87782" lon="4.75223">
        <ele>263</ele>
        <time>2022-08-19T08:01:15.000Z</time>
      </trkpt>
      <trkpt lat="49.87779" lon="4.75224">
        <ele>263</ele>
        <time>2022-08-19T08:01:16.000Z</time>
      </trkpt>
      <trkpt lat="49.87776" lon="4.75224">
        <ele>263</ele>
        <time>2022-08-19T08:01:17.000Z</time>
      </trkpt>
      <trkpt lat="49.87774" lon="4.75225">
        <ele>263</ele>
        <time>2022-08-19T08:01:18.000Z</time>
      </trkpt>
      <trkpt lat="49.87771" lon="4.75225">
        <ele>264</ele>
        <time>2022-08-19T08:01:19.000Z</time>
      </trkpt>
      <trkpt lat="49.87769" lon="4.75225">
        <ele>264</ele>
        <time>2022-08-19T08:01:20.000Z</time>
      </trkpt>
      <trkpt lat="49.87766" lon="4.75226">
        <ele>264</ele>
        <time>2022-08-19T08:01:21.000Z</time>
      </trkpt>
      <trkpt lat="49.87764" lon="4.75227">
        <ele>264</ele>
        <time>2022-08-19T08:01:22.000Z</time>
      </trkpt>
      <trkpt lat="49.87761" lon="4.75228">
        <ele>265</ele>
        <time>2022-08-19T08:01:23.000Z</time>
      </trkpt>
      <trkpt lat="49.87759" lon="4.75229">
        <ele>265</ele>
        <time>2022-08-19T08:01:24.000Z</time>
      </trkpt>
      <trkpt lat="49.87756" lon="4.75229">
        <ele>265</ele>
        <time>2022-08-19T08:01:25.000Z</time>
      </trkpt>
      <trkpt lat="49.87753" lon="4.7523">
        <ele>266</ele>
        <time>2022-08-19T08:01:26.000Z</time>
      </trkpt>
      <trkpt lat="49.87751" lon="4.7523">
        <ele>266</ele>
        <time>2022-08-19T08:01:27.000Z</time>
      </trkpt>
      <trkpt lat="49.87748" lon="4.75231">
        <ele>266</ele>
        <time>2022-08-19T08:01:28.000Z</time>
      </trkpt>
      <trkpt lat="49.87745" lon="4.75231">
        <ele>267</ele>
        <time>2022-08-19T08:01:29.000Z</time>
      </trkpt>
      <trkpt lat="49.87743" lon="4.75232">
        <ele>267</ele>
        <time>2022-08-19T08:01:30.000Z</time>
      </trkpt>
      <trkpt lat="49.8774" lon="4.75233">
        <ele>268</ele>
        <time>2022-08-19T08:01:31.000Z</time>
      </trkpt>
      <trkpt lat="49.87738" lon="4.75234">
        <ele>268</ele>
        <time>2022-08-19T08:01:32.000Z</time>
      </trkpt>
      <trkpt lat="49.87735" lon="4.75236">
        <ele>268</ele>
        <time>2022-08-19T08:01:33.000Z</time>
      </trkpt>
      <trkpt lat="49.87732" lon="4.75237">
        <ele>268</ele>
        <time>2022-08-19T08:01:34.000Z</time>
      </trkpt>
      <trkpt lat="49.87729" lon="4.75237">
        <ele>269</ele>
        <time>2022-08-19T08:01:35.000Z</time>
      </trkpt>
      <trkpt lat="49.87727" lon="4.75238">
        <ele>269</ele>
        <time>2022-08-19T08:01:36.000Z</time>
      </trkpt>
      <trkpt lat="49.87724" lon="4.75238">
        <ele>269</ele>
        <time>2022-08-19T08:01:37.000Z</time>
      </trkpt>
      <trkpt lat="49.87721" lon="4.75239">
        <ele>269</ele>
        <time>2022-08-19T08:01:38.000Z</time>
      </trkpt>
      <trkpt lat="49.87718" lon="4.7524">
        <ele>270</ele>
        <time>2022-08-19T08:01:39.000Z</time>
      </trkpt>
      <trkpt lat="49.87716" lon="4.7524">
        <ele>270</ele>
        <time>2022-08-19T08:01:40.000Z</time>
      </trkpt>
      <trkpt lat="49.87713" lon="4.75241">
        <ele>270</ele>
        <time>2022-08-19T08:01:41.000Z</time>
      </trkpt>
      <trkpt lat="49.8771" lon="4.75243">
        <ele>271</ele>
        <time>2022-08-19T08:01:42.000Z</time>
      </trkpt>
      <trkpt lat="49.87707" lon="4.75243">
        <ele>271</ele>
        <time>2022-08-19T08:01:43.000Z</time>
      </trkpt>
      <trkpt lat="49.87704" lon="4.75243">
        <ele>271</ele>
        <time>2022-08-19T08:01:44.000Z</time>
      </trkpt>
      <trkpt lat="49.87702" lon="4.75244">
        <ele>271</ele>
        <time>2022-08-19T08:01:45.000Z</time>
      </trkpt>
      <trkpt lat="49.87699" lon="4.75245">
        <ele>272</ele>
        <time>2022-08-19T08:01:46.000Z</time>
      </trkpt>
      <trkpt lat="49.87696" lon="4.75245">
        <ele>272</ele>
        <time>2022-08-19T08:01:47.000Z</time>
      </trkpt>
      <trkpt lat="49.87694" lon="4.75246">
        <ele>272</ele>
        <time>2022-08-19T08:01:48.000Z</time>
      </trkpt>
      <trkpt lat="49.87691" lon="4.75246">
        <ele>273</ele>
        <time>2022-08-19T08:01:49.000Z</time>
      </trkpt>
      <trkpt lat="49.87689" lon="4.75246">
        <ele>273</ele>
        <time>2022-08-19T08:01:50.000Z</time>
      </trkpt>
      <trkpt lat="49.87686" lon="4.75247">
        <ele>273</ele>
        <time>2022-08-19T08:01:51.000Z</time>
      </trkpt>
      <trkpt lat="49.87683" lon="4.75246">
        <ele>274</ele>
        <time>2022-08-19T08:01:52.000Z</time>
      </trkpt>
      <trkpt lat="49.8768" lon="4.75247">
        <ele>274</ele>
        <time>2022-08-19T08:01:53.000Z</time>
      </trkpt>
      <trkpt lat="49.87677" lon="4.75247">
        <ele>274</ele>
        <time>2022-08-19T08:01:54.000Z</time>
      </trkpt>
      <trkpt lat="49.87675" lon="4.75247">
        <ele>275</ele>
        <time>2022-08-19T08:01:55.000Z</time>
      </trkpt>
      <trkpt lat="49.87672" lon="4.75247">
        <ele>275</ele>
        <time>2022-08-19T08:01:56.000Z</time>
      </trkpt>
      <trkpt lat="49.87669" lon="4.75247">
        <ele>275</ele>
        <time>2022-08-19T08:01:57.000Z</time>
      </trkpt>
      <trkpt lat="49.87666" lon="4.75247">
        <ele>275</ele>
        <time>2022-08-19T08:01:58.000Z</time>
      </trkpt>
      <trkpt lat="49.87664" lon="4.75247">
        <ele>276</ele>
        <time>2022-08-19T08:01:59.000Z</time>
      </trkpt>
      <trkpt lat="49.87661" lon="4.75247">
        <ele>276</ele>
        <time>2022-08-19T08:02:00.000Z</time>
      </trkpt>
      <trkpt lat="49.87659" lon="4.75247">
        <ele>276</ele>
        <time>2022-08-19T08:02:01.000Z</time>
      </trkpt>
      <trkpt lat="49.87656" lon="4.75246">
        <ele>276</ele>
        <time>2022-08-19T08:02:02.000Z</time>
      </trkpt>
      <trkpt lat="49.87653" lon="4.75246">
        <ele>276</ele>
        <time>2022-08-19T08:02:03.000Z</time>
      </trkpt>
      <trkpt lat="49.87651" lon="4.75246">
        <ele>277</ele>
        <time>2022-08-19T08:02:04.000Z</time>
      </trkpt>
      <trkpt lat="49.87648" lon="4.75246">
        <ele>277</ele>
        <time>2022-08-19T08:02:05.000Z</time>
      </trkpt>
      <trkpt lat="49.87646" lon="4.75245">
        <ele>277</ele>
        <time>2022-08-19T08:02:06.000Z</time>
      </trkpt>
      <trkpt lat="49.87643" lon="4.75246">
        <ele>277</ele>
        <time>2022-08-19T08:02:07.000Z</time>
      </trkpt>
      <trkpt lat="49.87641" lon="4.75245">
        <ele>277</ele>
        <time>2022-08-19T08:02:08.000Z</time>
      </trkpt>
      <trkpt lat="49.87638" lon="4.75245">
        <ele>278</ele>
        <time>2022-08-19T08:02:09.000Z</time>
      </trkpt>
      <trkpt lat="49.87636" lon="4.75244">
        <ele>278</ele>
        <time>2022-08-19T08:02:10.000Z</time>
      </trkpt>
      <trkpt lat="49.87633" lon="4.75244">
        <ele>278</ele>
        <time>2022-08-19T08:02:11.000Z</time>
      </trkpt>
      <trkpt lat="49.87631" lon="4.75244">
        <ele>278</ele>
        <time>2022-08-19T08:02:12.000Z</time>
      </trkpt>
      <trkpt lat="49.87628" lon="4.75244">
        <ele>278</ele>
        <time>2022-08-19T08:02:13.000Z</time>
      </trkpt>
      <trkpt lat="49.87626" lon="4.75244">
        <ele>278</ele>
        <time>2022-08-19T08:02:14.000Z</time>
      </trkpt>
      <trkpt lat="49.87623" lon="4.75243">
        <ele>278</ele>
        <time>2022-08-19T08:02:15.000Z</time>
      </trkpt>
      <trkpt lat="49.87621" lon="4.75243">
        <ele>279</ele>
        <time>2022-08-19T08:02:16.000Z</time>
      </trkpt>
      <trkpt lat="49.87618" lon="4.75243">
        <ele>279</ele>
        <time>2022-08-19T08:02:17.000Z</time>
      </trkpt>
      <trkpt lat="49.87615" lon="4.75243">
        <ele>279</ele>
        <time>2022-08-19T08:02:18.000Z</time>
      </trkpt>
      <trkpt lat="49.87613" lon="4.75243">
        <ele>279</ele>
        <time>2022-08-19T08:02:19.000Z</time>
      </trkpt>
      <trkpt lat="49.8761" lon="4.75243">
        <ele>279</ele>
        <time>2022-08-19T08:02:20.000Z</time>
      </trkpt>
      <trkpt lat="49.87607" lon="4.75243">
        <ele>279</ele>
        <time>2022-08-19T08:02:21.000Z</time>
      </trkpt>
      <trkpt lat="49.87605" lon="4.75242">
        <ele>279</ele>
        <time>2022-08-19T08:02:22.000Z</time>
      </trkpt>
      <trkpt lat="49.87602" lon="4.75242">
        <ele>279</ele>
        <time>2022-08-19T08:02:23.000Z</time>
      </trkpt>
      <trkpt lat="49.87599" lon="4.75242">
        <ele>279</ele>
        <time>2022-08-19T08:02:24.000Z</time>
      </trkpt>
      <trkpt lat="49.87596" lon="4.75242">
        <ele>280</ele>
        <time>2022-08-19T08:02:25.000Z</time>
      </trkpt>
      <trkpt lat="49.87593" lon="4.75243">
        <ele>280</ele>
        <time>2022-08-19T08:02:26.000Z</time>
      </trkpt>
      <trkpt lat="49.8759" lon="4.75243">
        <ele>280</ele>
        <time>2022-08-19T08:02:27.000Z</time>
      </trkpt>
      <trkpt lat="49.87588" lon="4.75243">
        <ele>280</ele>
        <time>2022-08-19T08:02:28.000Z</time>
      </trkpt>
      <trkpt lat="49.87585" lon="4.75243">
        <ele>280</ele>
        <time>2022-08-19T08:02:29.000Z</time>
      </trkpt>
      <trkpt lat="49.87582" lon="4.75243">
        <ele>280</ele>
        <time>2022-08-19T08:02:30.000Z</time>
      </trkpt>
      <trkpt lat="49.8758" lon="4.75243">
        <ele>280</ele>
        <time>2022-08-19T08:02:31.000Z</time>
      </trkpt>
      <trkpt lat="49.87577" lon="4.75241">
        <ele>281</ele>
        <time>2022-08-19T08:02:32.000Z</time>
      </trkpt>
      <trkpt lat="49.87574" lon="4.75241">
        <ele>281</ele>
        <time>2022-08-19T08:02:33.000Z</time>
      </trkpt>
      <trkpt lat="49.87571" lon="4.75241">
        <ele>281</ele>
        <time>2022-08-19T08:02:34.000Z</time>
      </trkpt>
      <trkpt lat="49.87568" lon="4.7524">
        <ele>281</ele>
        <time>2022-08-19T08:02:35.000Z</time>
      </trkpt>
      <trkpt lat="49.87565" lon="4.7524">
        <ele>281</ele>
        <time>2022-08-19T08:02:36.000Z</time>
      </trkpt>
      <trkpt lat="49.87563" lon="4.75239">
        <ele>281</ele>
        <time>2022-08-19T08:02:37.000Z</time>
      </trkpt>
      <trkpt lat="49.8756" lon="4.75239">
        <ele>281</ele>
        <time>2022-08-19T08:02:38.000Z</time>
      </trkpt>
      <trkpt lat="49.87557" lon="4.75238">
        <ele>282</ele>
        <time>2022-08-19T08:02:39.000Z</time>
      </trkpt>
      <trkpt lat="49.87554" lon="4.75237">
        <ele>282</ele>
        <time>2022-08-19T08:02:40.000Z</time>
      </trkpt>
      <trkpt lat="49.87551" lon="4.75236">
        <ele>282</ele>
        <time>2022-08-19T08:02:41.000Z</time>
      </trkpt>
      <trkpt lat="49.87548" lon="4.75236">
        <ele>282</ele>
        <time>2022-08-19T08:02:42.000Z</time>
      </trkpt>
      <trkpt lat="49.87546" lon="4.75235">
        <ele>282</ele>
        <time>2022-08-19T08:02:43.000Z</time>
      </trkpt>
      <trkpt lat="49.87543" lon="4.75234">
        <ele>283</ele>
        <time>2022-08-19T08:02:44.000Z</time>
      </trkpt>
      <trkpt lat="49.8754" lon="4.75233">
        <ele>283</ele>
        <time>2022-08-19T08:02:45.000Z</time>
      </trkpt>
      <trkpt lat="49.87538" lon="4.75232">
        <ele>283</ele>
        <time>2022-08-19T08:02:46.000Z</time>
      </trkpt>
      <trkpt lat="49.87536" lon="4.75232">
        <ele>283</ele>
        <time>2022-08-19T08:02:47.000Z</time>
      </trkpt>
      <trkpt lat="49.87534" lon="4.75231">
        <ele>284</ele>
        <time>2022-08-19T08:02:48.000Z</time>
      </trkpt>
      <trkpt lat="49.87531" lon="4.75231">
        <ele>284</ele>
        <time>2022-08-19T08:02:49.000Z</time>
      </trkpt>
      <trkpt lat="49.87529" lon="4.7523">
        <ele>284</ele>
        <time>2022-08-19T08:02:50.000Z</time>
      </trkpt>
      <trkpt lat="49.87526" lon="4.7523">
        <ele>284</ele>
        <time>2022-08-19T08:02:51.000Z</time>
      </trkpt>
      <trkpt lat="49.87523" lon="4.75229">
        <ele>285</ele>
        <time>2022-08-19T08:02:52.000Z</time>
      </trkpt>
      <trkpt lat="49.87521" lon="4.75229">
        <ele>285</ele>
        <time>2022-08-19T08:02:53.000Z</time>
      </trkpt>
      <trkpt lat="49.87518" lon="4.75228">
        <ele>285</ele>
        <time>2022-08-19T08:02:54.000Z</time>
      </trkpt>
      <trkpt lat="49.87515" lon="4.75227">
        <ele>285</ele>
        <time>2022-08-19T08:02:55.000Z</time>
      </trkpt>
      <trkpt lat="49.87512" lon="4.75226">
        <ele>285</ele>
        <time>2022-08-19T08:02:56.000Z</time>
      </trkpt>
      <trkpt lat="49.87509" lon="4.75225">
        <ele>286</ele>
        <time>2022-08-19T08:02:57.000Z</time>
      </trkpt>
      <trkpt lat="49.87506" lon="4.75225">
        <ele>286</ele>
        <time>2022-08-19T08:02:58.000Z</time>
      </trkpt>
      <trkpt lat="49.87504" lon="4.75224">
        <ele>286</ele>
        <time>2022-08-19T08:02:59.000Z</time>
      </trkpt>
      <trkpt lat="49.87501" lon="4.75223">
        <ele>286</ele>
        <time>2022-08-19T08:03:00.000Z</time>
      </trkpt>
      <trkpt lat="49.87498" lon="4.75222">
        <ele>286</ele>
        <time>2022-08-19T08:03:01.000Z</time>
      </trkpt>
      <trkpt lat="49.87495" lon="4.75222">
        <ele>287</ele>
        <time>2022-08-19T08:03:02.000Z</time>
      </trkpt>
      <trkpt lat="49.87493" lon="4.75221">
        <ele>287</ele>
        <time>2022-08-19T08:03:03.000Z</time>
      </trkpt>
      <trkpt lat="49.8749" lon="4.75221">
        <ele>287</ele>
        <time>2022-08-19T08:03:04.000Z</time>
      </trkpt>
      <trkpt lat="49.87488" lon="4.7522">
        <ele>287</ele>
        <time>2022-08-19T08:03:05.000Z</time>
      </trkpt>
      <trkpt lat="49.87485" lon="4.75218">
        <ele>287</ele>
        <time>2022-08-19T08:03:06.000Z</time>
      </trkpt>
      <trkpt lat="49.87483" lon="4.75217">
        <ele>288</ele>
        <time>2022-08-19T08:03:07.000Z</time>
      </trkpt>
      <trkpt lat="49.87481" lon="4.75215">
        <ele>288</ele>
        <time>2022-08-19T08:03:08.000Z</time>
      </trkpt>
      <trkpt lat="49.87479" lon="4.75214">
        <ele>288</ele>
        <time>2022-08-19T08:03:09.000Z</time>
      </trkpt>
      <trkpt lat="49.87476" lon="4.75213">
        <ele>288</ele>
        <time>2022-08-19T08:03:10.000Z</time>
      </trkpt>
      <trkpt lat="49.87473" lon="4.75212">
        <ele>288</ele>
        <time>2022-08-19T08:03:11.000Z</time>
      </trkpt>
      <trkpt lat="49.8747" lon="4.7521">
        <ele>288</ele>
        <time>2022-08-19T08:03:12.000Z</time>
      </trkpt>
      <trkpt lat="49.87467" lon="4.75208">
        <ele>288</ele>
        <time>2022-08-19T08:03:13.000Z</time>
      </trkpt>
      <trkpt lat="49.87464" lon="4.75207">
        <ele>289</ele>
        <time>2022-08-19T08:03:14.000Z</time>
      </trkpt>
      <trkpt lat="49.87461" lon="4.75205">
        <ele>289</ele>
        <time>2022-08-19T08:03:15.000Z</time>
      </trkpt>
      <trkpt lat="49.87458" lon="4.75205">
        <ele>289</ele>
        <time>2022-08-19T08:03:16.000Z</time>
      </trkpt>
      <trkpt lat="49.87455" lon="4.75204">
        <ele>289</ele>
        <time>2022-08-19T08:03:17.000Z</time>
      </trkpt>
      <trkpt lat="49.87453" lon="4.75204">
        <ele>289</ele>
        <time>2022-08-19T08:03:18.000Z</time>
      </trkpt>
      <trkpt lat="49.87451" lon="4.75205">
        <ele>290</ele>
        <time>2022-08-19T08:03:19.000Z</time>
      </trkpt>
      <trkpt lat="49.87449" lon="4.75206">
        <ele>290</ele>
        <time>2022-08-19T08:03:20.000Z</time>
      </trkpt>
      <trkpt lat="49.87447" lon="4.75209">
        <ele>290</ele>
        <time>2022-08-19T08:03:21.000Z</time>
      </trkpt>
      <trkpt lat="49.87446" lon="4.75212">
        <ele>290</ele>
        <time>2022-08-19T08:03:22.000Z</time>
      </trkpt>
      <trkpt lat="49.87445" lon="4.75215">
        <ele>291</ele>
        <time>2022-08-19T08:03:23.000Z</time>
      </trkpt>
      <trkpt lat="49.87444" lon="4.75219">
        <ele>291</ele>
        <time>2022-08-19T08:03:24.000Z</time>
      </trkpt>
      <trkpt lat="49.87443" lon="4.75223">
        <ele>291</ele>
        <time>2022-08-19T08:03:25.000Z</time>
      </trkpt>
      <trkpt lat="49.87443" lon="4.75226">
        <ele>291</ele>
        <time>2022-08-19T08:03:26.000Z</time>
      </trkpt>
      <trkpt lat="49.87444" lon="4.7523">
        <ele>291</ele>
        <time>2022-08-19T08:03:27.000Z</time>
      </trkpt>
      <trkpt lat="49.87445" lon="4.75234">
        <ele>292</ele>
        <time>2022-08-19T08:03:28.000Z</time>
      </trkpt>
      <trkpt lat="49.87447" lon="4.75236">
        <ele>292</ele>
        <time>2022-08-19T08:03:29.000Z</time>
      </trkpt>
      <trkpt lat="49.87449" lon="4.75239">
        <ele>292</ele>
        <time>2022-08-19T08:03:30.000Z</time>
      </trkpt>
      <trkpt lat="49.87451" lon="4.75241">
        <ele>293</ele>
        <time>2022-08-19T08:03:31.000Z</time>
      </trkpt>
      <trkpt lat="49.87453" lon="4.75243">
        <ele>293</ele>
        <time>2022-08-19T08:03:32.000Z</time>
      </trkpt>
      <trkpt lat="49.87455" lon="4.75245">
        <ele>293</ele>
        <time>2022-08-19T08:03:33.000Z</time>
      </trkpt>
      <trkpt lat="49.87457" lon="4.75247">
        <ele>293</ele>
        <time>2022-08-19T08:03:34.000Z</time>
      </trkpt>
      <trkpt lat="49.87459" lon="4.75248">
        <ele>294</ele>
        <time>2022-08-19T08:03:35.000Z</time>
      </trkpt>
      <trkpt lat="49.87461" lon="4.7525">
        <ele>294</ele>
        <time>2022-08-19T08:03:36.000Z</time>
      </trkpt>
      <trkpt lat="49.87464" lon="4.75251">
        <ele>294</ele>
        <time>2022-08-19T08:03:37.000Z</time>
      </trkpt>
      <trkpt lat="49.87467" lon="4.75253">
        <ele>294</ele>
        <time>2022-08-19T08:03:38.000Z</time>
      </trkpt>
      <trkpt lat="49.87469" lon="4.75254">
        <ele>295</ele>
        <time>2022-08-19T08:03:39.000Z</time>
      </trkpt>
      <trkpt lat="49.87473" lon="4.75256">
        <ele>295</ele>
        <time>2022-08-19T08:03:40.000Z</time>
      </trkpt>
      <trkpt lat="49.87476" lon="4.75259">
        <ele>295</ele>
        <time>2022-08-19T08:03:41.000Z</time>
      </trkpt>
      <trkpt lat="49.8748" lon="4.75261">
        <ele>296</ele>
        <time>2022-08-19T08:03:42.000Z</time>
      </trkpt>
      <trkpt lat="49.87483" lon="4.75263">
        <ele>296</ele>
        <time>2022-08-19T08:03:43.000Z</time>
      </trkpt>
      <trkpt lat="49.87485" lon="4.75265">
        <ele>297</ele>
        <time>2022-08-19T08:03:44.000Z</time>
      </trkpt>
      <trkpt lat="49.87487" lon="4.75266">
        <ele>297</ele>
        <time>2022-08-19T08:03:45.000Z</time>
      </trkpt>
      <trkpt lat="49.87489" lon="4.75268">
        <ele>297</ele>
        <time>2022-08-19T08:03:46.000Z</time>
      </trkpt>
      <trkpt lat="49.87491" lon="4.7527">
        <ele>298</ele>
        <time>2022-08-19T08:03:47.000Z</time>
      </trkpt>
      <trkpt lat="49.87493" lon="4.75271">
        <ele>298</ele>
        <time>2022-08-19T08:03:48.000Z</time>
      </trkpt>
      <trkpt lat="49.87495" lon="4.75272">
        <ele>298</ele>
        <time>2022-08-19T08:03:49.000Z</time>
      </trkpt>
      <trkpt lat="49.87497" lon="4.75274">
        <ele>298</ele>
        <time>2022-08-19T08:03:50.000Z</time>
      </trkpt>
      <trkpt lat="49.87499" lon="4.75275">
        <ele>299</ele>
        <time>2022-08-19T08:03:51.000Z</time>
      </trkpt>
      <trkpt lat="49.87501" lon="4.75277">
        <ele>299</ele>
        <time>2022-08-19T08:03:52.000Z</time>
      </trkpt>
      <trkpt lat="49.87504" lon="4.75279">
        <ele>299</ele>
        <time>2022-08-19T08:03:53.000Z</time>
      </trkpt>
      <trkpt lat="49.87505" lon="4.75281">
        <ele>299</ele>
        <time>2022-08-19T08:03:54.000Z</time>
      </trkpt>
      <trkpt lat="49.87507" lon="4.75282">
        <ele>300</ele>
        <time>2022-08-19T08:03:55.000Z</time>
      </trkpt>
      <trkpt lat="49.8751" lon="4.75285">
        <ele>300</ele>
        <time>2022-08-19T08:03:56.000Z</time>
      </trkpt>
      <trkpt lat="49.87512" lon="4.75287">
        <ele>300</ele>
        <time>2022-08-19T08:03:57.000Z</time>
      </trkpt>
      <trkpt lat="49.87515" lon="4.75289">
        <ele>300</ele>
        <time>2022-08-19T08:03:58.000Z</time>
      </trkpt>
      <trkpt lat="49.87518" lon="4.75292">
        <ele>300</ele>
        <time>2022-08-19T08:03:59.000Z</time>
      </trkpt>
      <trkpt lat="49.8752" lon="4.75294">
        <ele>301</ele>
        <time>2022-08-19T08:04:00.000Z</time>
      </trkpt>
      <trkpt lat="49.87523" lon="4.75297">
        <ele>301</ele>
        <time>2022-08-19T08:04:01.000Z</time>
      </trkpt>
      <trkpt lat="49.87525" lon="4.753">
        <ele>301</ele>
        <time>2022-08-19T08:04:02.000Z</time>
      </trkpt>
      <trkpt lat="49.87527" lon="4.75303">
        <ele>301</ele>
        <time>2022-08-19T08:04:03.000Z</time>
      </trkpt>
      <trkpt lat="49.87529" lon="4.75306">
        <ele>301</ele>
        <time>2022-08-19T08:04:04.000Z</time>
      </trkpt>
      <trkpt lat="49.87531" lon="4.75309">
        <ele>302</ele>
        <time>2022-08-19T08:04:05.000Z</time>
      </trkpt>
      <trkpt lat="49.87533" lon="4.75311">
        <ele>302</ele>
        <time>2022-08-19T08:04:06.000Z</time>
      </trkpt>
      <trkpt lat="49.87535" lon="4.75314">
        <ele>302</ele>
        <time>2022-08-19T08:04:07.000Z</time>
      </trkpt>
      <trkpt lat="49.87537" lon="4.75317">
        <ele>303</ele>
        <time>2022-08-19T08:04:08.000Z</time>
      </trkpt>
      <trkpt lat="49.87539" lon="4.7532">
        <ele>303</ele>
        <time>2022-08-19T08:04:09.000Z</time>
      </trkpt>
      <trkpt lat="49.87541" lon="4.75324">
        <ele>303</ele>
        <time>2022-08-19T08:04:10.000Z</time>
      </trkpt>
      <trkpt lat="49.87542" lon="4.75327">
        <ele>304</ele>
        <time>2022-08-19T08:04:11.000Z</time>
      </trkpt>
      <trkpt lat="49.87544" lon="4.7533">
        <ele>304</ele>
        <time>2022-08-19T08:04:12.000Z</time>
      </trkpt>
      <trkpt lat="49.87545" lon="4.75333">
        <ele>304</ele>
        <time>2022-08-19T08:04:13.000Z</time>
      </trkpt>
      <trkpt lat="49.87547" lon="4.75337">
        <ele>305</ele>
        <time>2022-08-19T08:04:14.000Z</time>
      </trkpt>
      <trkpt lat="49.87548" lon="4.7534">
        <ele>305</ele>
        <time>2022-08-19T08:04:15.000Z</time>
      </trkpt>
      <trkpt lat="49.87549" lon="4.75344">
        <ele>305</ele>
        <time>2022-08-19T08:04:16.000Z</time>
      </trkpt>
      <trkpt lat="49.8755" lon="4.75347">
        <ele>306</ele>
        <time>2022-08-19T08:04:17.000Z</time>
      </trkpt>
      <trkpt lat="49.87551" lon="4.7535">
        <ele>306</ele>
        <time>2022-08-19T08:04:18.000Z</time>
      </trkpt>
      <trkpt lat="49.87552" lon="4.75353">
        <ele>306</ele>
        <time>2022-08-19T08:04:19.000Z</time>
      </trkpt>
      <trkpt lat="49.87553" lon="4.75357">
        <ele>307</ele>
        <time>2022-08-19T08:04:20.000Z</time>
      </trkpt>
      <trkpt lat="49.87555" lon="4.7536">
        <ele>307</ele>
        <time>2022-08-19T08:04:21.000Z</time>
      </trkpt>
      <trkpt lat="49.87556" lon="4.75363">
        <ele>307</ele>
        <time>2022-08-19T08:04:22.000Z</time>
      </trkpt>
      <trkpt lat="49.87557" lon="4.75367">
        <ele>307</ele>
        <time>2022-08-19T08:04:23.000Z</time>
      </trkpt>
      <trkpt lat="49.87558" lon="4.7537">
        <ele>308</ele>
        <time>2022-08-19T08:04:24.000Z</time>
      </trkpt>
      <trkpt lat="49.87559" lon="4.75373">
        <ele>308</ele>
        <time>2022-08-19T08:04:25.000Z</time>
      </trkpt>
      <trkpt lat="49.8756" lon="4.75376">
        <ele>308</ele>
        <time>2022-08-19T08:04:26.000Z</time>
      </trkpt>
      <trkpt lat="49.8756" lon="4.75379">
        <ele>308</ele>
        <time>2022-08-19T08:04:27.000Z</time>
      </trkpt>
      <trkpt lat="49.87561" lon="4.75382">
        <ele>308</ele>
        <time>2022-08-19T08:04:28.000Z</time>
      </trkpt>
      <trkpt lat="49.87562" lon="4.75385">
        <ele>308</ele>
        <time>2022-08-19T08:04:29.000Z</time>
      </trkpt>
      <trkpt lat="49.87563" lon="4.75388">
        <ele>309</ele>
        <time>2022-08-19T08:04:30.000Z</time>
      </trkpt>
      <trkpt lat="49.87565" lon="4.75392">
        <ele>309</ele>
        <time>2022-08-19T08:04:31.000Z</time>
      </trkpt>
      <trkpt lat="49.87566" lon="4.75395">
        <ele>309</ele>
        <time>2022-08-19T08:04:32.000Z</time>
      </trkpt>
      <trkpt lat="49.87567" lon="4.75398">
        <ele>309</ele>
        <time>2022-08-19T08:04:33.000Z</time>
      </trkpt>
      <trkpt lat="49.87569" lon="4.75402">
        <ele>309</ele>
        <time>2022-08-19T08:04:34.000Z</time>
      </trkpt>
      <trkpt lat="49.8757" lon="4.75405">
        <ele>309</ele>
        <time>2022-08-19T08:04:35.000Z</time>
      </trkpt>
      <trkpt lat="49.87571" lon="4.75408">
        <ele>309</ele>
        <time>2022-08-19T08:04:36.000Z</time>
      </trkpt>
      <trkpt lat="49.87572" lon="4.75411">
        <ele>309</ele>
        <time>2022-08-19T08:04:37.000Z</time>
      </trkpt>
      <trkpt lat="49.87573" lon="4.75415">
        <ele>309</ele>
        <time>2022-08-19T08:04:38.000Z</time>
      </trkpt>
      <trkpt lat="49.87574" lon="4.75419">
        <ele>309</ele>
        <time>2022-08-19T08:04:39.000Z</time>
      </trkpt>
      <trkpt lat="49.87576" lon="4.75421">
        <ele>310</ele>
        <time>2022-08-19T08:04:40.000Z</time>
      </trkpt>
      <trkpt lat="49.87577" lon="4.75423">
        <ele>310</ele>
        <time>2022-08-19T08:04:41.000Z</time>
      </trkpt>
      <trkpt lat="49.87579" lon="4.75426">
        <ele>310</ele>
        <time>2022-08-19T08:04:42.000Z</time>
      </trkpt>
      <trkpt lat="49.87581" lon="4.75428">
        <ele>310</ele>
        <time>2022-08-19T08:04:43.000Z</time>
      </trkpt>
      <trkpt lat="49.87583" lon="4.75431">
        <ele>310</ele>
        <time>2022-08-19T08:04:44.000Z</time>
      </trkpt>
      <trkpt lat="49.87585" lon="4.75433">
        <ele>311</ele>
        <time>2022-08-19T08:04:45.000Z</time>
      </trkpt>
      <trkpt lat="49.87587" lon="4.75435">
        <ele>311</ele>
        <time>2022-08-19T08:04:46.000Z</time>
      </trkpt>
      <trkpt lat="49.87589" lon="4.75437">
        <ele>311</ele>
        <time>2022-08-19T08:04:47.000Z</time>
      </trkpt>
      <trkpt lat="49.87591" lon="4.75439">
        <ele>311</ele>
        <time>2022-08-19T08:04:48.000Z</time>
      </trkpt>
      <trkpt lat="49.87593" lon="4.75442">
        <ele>312</ele>
        <time>2022-08-19T08:04:49.000Z</time>
      </trkpt>
      <trkpt lat="49.87595" lon="4.75444">
        <ele>312</ele>
        <time>2022-08-19T08:04:50.000Z</time>
      </trkpt>
      <trkpt lat="49.87597" lon="4.75447">
        <ele>312</ele>
        <time>2022-08-19T08:04:51.000Z</time>
      </trkpt>
      <trkpt lat="49.87599" lon="4.75449">
        <ele>312</ele>
        <time>2022-08-19T08:04:52.000Z</time>
      </trkpt>
      <trkpt lat="49.87601" lon="4.75452">
        <ele>312</ele>
        <time>2022-08-19T08:04:53.000Z</time>
      </trkpt>
      <trkpt lat="49.87602" lon="4.75455">
        <ele>312</ele>
        <time>2022-08-19T08:04:54.000Z</time>
      </trkpt>
      <trkpt lat="49.87605" lon="4.75457">
        <ele>313</ele>
        <time>2022-08-19T08:04:55.000Z</time>
      </trkpt>
      <trkpt lat="49.87607" lon="4.7546">
        <ele>313</ele>
        <time>2022-08-19T08:04:56.000Z</time>
      </trkpt>
      <trkpt lat="49.87609" lon="4.75462">
        <ele>313</ele>
        <time>2022-08-19T08:04:57.000Z</time>
      </trkpt>
      <trkpt lat="49.87611" lon="4.75465">
        <ele>314</ele>
        <time>2022-08-19T08:04:58.000Z</time>
      </trkpt>
      <trkpt lat="49.87612" lon="4.75468">
        <ele>314</ele>
        <time>2022-08-19T08:04:59.000Z</time>
      </trkpt>
      <trkpt lat="49.87613" lon="4.75471">
        <ele>314</ele>
        <time>2022-08-19T08:05:00.000Z</time>
      </trkpt>
      <trkpt lat="49.87613" lon="4.75475">
        <ele>314</ele>
        <time>2022-08-19T08:05:01.000Z</time>
      </trkpt>
      <trkpt lat="49.87611" lon="4.75477">
        <ele>314</ele>
        <time>2022-08-19T08:05:02.000Z</time>
      </trkpt>
      <trkpt lat="49.8761" lon="4.75478">
        <ele>314</ele>
        <time>2022-08-19T08:05:03.000Z</time>
      </trkpt>
      <trkpt lat="49.87608" lon="4.75479">
        <ele>314</ele>
        <time>2022-08-19T08:05:04.000Z</time>
      </trkpt>
      <trkpt lat="49.87605" lon="4.75479">
        <ele>314</ele>
        <time>2022-08-19T08:05:05.000Z</time>
      </trkpt>
      <trkpt lat="49.87603" lon="4.75479">
        <ele>314</ele>
        <time>2022-08-19T08:05:06.000Z</time>
      </trkpt>
      <trkpt lat="49.876" lon="4.75478">
        <ele>314</ele>
        <time>2022-08-19T08:05:07.000Z</time>
      </trkpt>
      <trkpt lat="49.87597" lon="4.75477">
        <ele>314</ele>
        <time>2022-08-19T08:05:08.000Z</time>
      </trkpt>
      <trkpt lat="49.87595" lon="4.75475">
        <ele>314</ele>
        <time>2022-08-19T08:05:09.000Z</time>
      </trkpt>
      <trkpt lat="49.87593" lon="4.75473">
        <ele>314</ele>
        <time>2022-08-19T08:05:10.000Z</time>
      </trkpt>
      <trkpt lat="49.87591" lon="4.75471">
        <ele>314</ele>
        <time>2022-08-19T08:05:11.000Z</time>
      </trkpt>
      <trkpt lat="49.87588" lon="4.75469">
        <ele>314</ele>
        <time>2022-08-19T08:05:12.000Z</time>
      </trkpt>
      <trkpt lat="49.87585" lon="4.75468">
        <ele>314</ele>
        <time>2022-08-19T08:05:13.000Z</time>
      </trkpt>
      <trkpt lat="49.87582" lon="4.75466">
        <ele>314</ele>
        <time>2022-08-19T08:05:14.000Z</time>
      </trkpt>
      <trkpt lat="49.87579" lon="4.75465">
        <ele>314</ele>
        <time>2022-08-19T08:05:15.000Z</time>
      </trkpt>
      <trkpt lat="49.87575" lon="4.75464">
        <ele>314</ele>
        <time>2022-08-19T08:05:16.000Z</time>
      </trkpt>
      <trkpt lat="49.87572" lon="4.75463">
        <ele>314</ele>
        <time>2022-08-19T08:05:17.000Z</time>
      </trkpt>
      <trkpt lat="49.87569" lon="4.75462">
        <ele>314</ele>
        <time>2022-08-19T08:05:18.000Z</time>
      </trkpt>
      <trkpt lat="49.87566" lon="4.75461">
        <ele>314</ele>
        <time>2022-08-19T08:05:19.000Z</time>
      </trkpt>
      <trkpt lat="49.87563" lon="4.7546">
        <ele>314</ele>
        <time>2022-08-19T08:05:20.000Z</time>
      </trkpt>
      <trkpt lat="49.8756" lon="4.75459">
        <ele>315</ele>
        <time>2022-08-19T08:05:21.000Z</time>
      </trkpt>
      <trkpt lat="49.87557" lon="4.75457">
        <ele>315</ele>
        <time>2022-08-19T08:05:22.000Z</time>
      </trkpt>
      <trkpt lat="49.87554" lon="4.75457">
        <ele>315</ele>
        <time>2022-08-19T08:05:23.000Z</time>
      </trkpt>
      <trkpt lat="49.87551" lon="4.75455">
        <ele>315</ele>
        <time>2022-08-19T08:05:24.000Z</time>
      </trkpt>
      <trkpt lat="49.87548" lon="4.75454">
        <ele>315</ele>
        <time>2022-08-19T08:05:25.000Z</time>
      </trkpt>
      <trkpt lat="49.87546" lon="4.75454">
        <ele>315</ele>
        <time>2022-08-19T08:05:26.000Z</time>
      </trkpt>
      <trkpt lat="49.87544" lon="4.75453">
        <ele>315</ele>
        <time>2022-08-19T08:05:27.000Z</time>
      </trkpt>
      <trkpt lat="49.87542" lon="4.75453">
        <ele>315</ele>
        <time>2022-08-19T08:05:28.000Z</time>
      </trkpt>
      <trkpt lat="49.8754" lon="4.75452">
        <ele>315</ele>
        <time>2022-08-19T08:05:29.000Z</time>
      </trkpt>
      <trkpt lat="49.87538" lon="4.75452">
        <ele>315</ele>
        <time>2022-08-19T08:05:30.000Z</time>
      </trkpt>
      <trkpt lat="49.87537" lon="4.75451">
        <ele>316</ele>
        <time>2022-08-19T08:05:31.000Z</time>
      </trkpt>
      <trkpt lat="49.87535" lon="4.7545">
        <ele>316</ele>
        <time>2022-08-19T08:05:32.000Z</time>
      </trkpt>
      <trkpt lat="49.87533" lon="4.75449">
        <ele>316</ele>
        <time>2022-08-19T08:05:33.000Z</time>
      </trkpt>
      <trkpt lat="49.87531" lon="4.75447">
        <ele>316</ele>
        <time>2022-08-19T08:05:34.000Z</time>
      </trkpt>
      <trkpt lat="49.87529" lon="4.75444">
        <ele>317</ele>
        <time>2022-08-19T08:05:35.000Z</time>
      </trkpt>
      <trkpt lat="49.87527" lon="4.75442">
        <ele>317</ele>
        <time>2022-08-19T08:05:36.000Z</time>
      </trkpt>
      <trkpt lat="49.87525" lon="4.7544">
        <ele>317</ele>
        <time>2022-08-19T08:05:37.000Z</time>
      </trkpt>
      <trkpt lat="49.87523" lon="4.75438">
        <ele>318</ele>
        <time>2022-08-19T08:05:38.000Z</time>
      </trkpt>
      <trkpt lat="49.87521" lon="4.75435">
        <ele>318</ele>
        <time>2022-08-19T08:05:39.000Z</time>
      </trkpt>
      <trkpt lat="49.87519" lon="4.75433">
        <ele>318</ele>
        <time>2022-08-19T08:05:40.000Z</time>
      </trkpt>
      <trkpt lat="49.87517" lon="4.7543">
        <ele>318</ele>
        <time>2022-08-19T08:05:41.000Z</time>
      </trkpt>
      <trkpt lat="49.87515" lon="4.75428">
        <ele>319</ele>
        <time>2022-08-19T08:05:42.000Z</time>
      </trkpt>
      <trkpt lat="49.87513" lon="4.75426">
        <ele>319</ele>
        <time>2022-08-19T08:05:43.000Z</time>
      </trkpt>
      <trkpt lat="49.87511" lon="4.75425">
        <ele>320</ele>
        <time>2022-08-19T08:05:44.000Z</time>
      </trkpt>
      <trkpt lat="49.8751" lon="4.75424">
        <ele>320</ele>
        <time>2022-08-19T08:05:45.000Z</time>
      </trkpt>
      <trkpt lat="49.87508" lon="4.75424">
        <ele>320</ele>
        <time>2022-08-19T08:05:46.000Z</time>
      </trkpt>
      <trkpt lat="49.87507" lon="4.75424">
        <ele>320</ele>
        <time>2022-08-19T08:05:47.000Z</time>
      </trkpt>
      <trkpt lat="49.87505" lon="4.75424">
        <ele>321</ele>
        <time>2022-08-19T08:05:48.000Z</time>
      </trkpt>
      <trkpt lat="49.87504" lon="4.75425">
        <ele>321</ele>
        <time>2022-08-19T08:05:49.000Z</time>
      </trkpt>
      <trkpt lat="49.87503" lon="4.75425">
        <ele>321</ele>
        <time>2022-08-19T08:05:50.000Z</time>
      </trkpt>
      <trkpt lat="49.87502" lon="4.75425">
        <ele>322</ele>
        <time>2022-08-19T08:05:51.000Z</time>
      </trkpt>
      <trkpt lat="49.875" lon="4.75425">
        <ele>322</ele>
        <time>2022-08-19T08:05:52.000Z</time>
      </trkpt>
      <trkpt lat="49.87499" lon="4.75424">
        <ele>322</ele>
        <time>2022-08-19T08:05:53.000Z</time>
      </trkpt>
      <trkpt lat="49.87498" lon="4.75424">
        <ele>322</ele>
        <time>2022-08-19T08:05:54.000Z</time>
      </trkpt>
      <trkpt lat="49.87496" lon="4.75424">
        <ele>323</ele>
        <time>2022-08-19T08:05:55.000Z</time>
      </trkpt>
      <trkpt lat="49.87495" lon="4.75423">
        <ele>323</ele>
        <time>2022-08-19T08:05:56.000Z</time>
      </trkpt>
      <trkpt lat="49.87494" lon="4.75423">
        <ele>323</ele>
        <time>2022-08-19T08:05:57.000Z</time>
      </trkpt>
      <trkpt lat="49.87492" lon="4.75423">
        <ele>323</ele>
        <time>2022-08-19T08:05:58.000Z</time>
      </trkpt>
      <trkpt lat="49.87491" lon="4.75423">
        <ele>324</ele>
        <time>2022-08-19T08:05:59.000Z</time>
      </trkpt>
      <trkpt lat="49.8749" lon="4.75423">
        <ele>324</ele>
        <time>2022-08-19T08:06:00.000Z</time>
      </trkpt>
      <trkpt lat="49.87488" lon="4.75423">
        <ele>324</ele>
        <time>2022-08-19T08:06:01.000Z</time>
      </trkpt>
      <trkpt lat="49.87487" lon="4.75423">
        <ele>324</ele>
        <time>2022-08-19T08:06:02.000Z</time>
      </trkpt>
      <trkpt lat="49.87486" lon="4.75423">
        <ele>324</ele>
        <time>2022-08-19T08:06:03.000Z</time>
      </trkpt>
      <trkpt lat="49.87485" lon="4.75422">
        <ele>325</ele>
        <time>2022-08-19T08:06:04.000Z</time>
      </trkpt>
      <trkpt lat="49.87483" lon="4.75421">
        <ele>325</ele>
        <time>2022-08-19T08:06:05.000Z</time>
      </trkpt>
      <trkpt lat="49.87482" lon="4.75421">
        <ele>325</ele>
        <time>2022-08-19T08:06:06.000Z</time>
      </trkpt>
      <trkpt lat="49.87481" lon="4.7542">
        <ele>326</ele>
        <time>2022-08-19T08:06:07.000Z</time>
      </trkpt>
      <trkpt lat="49.8748" lon="4.7542">
        <ele>326</ele>
        <time>2022-08-19T08:06:08.000Z</time>
      </trkpt>
      <trkpt lat="49.87479" lon="4.75419">
        <ele>326</ele>
        <time>2022-08-19T08:06:09.000Z</time>
      </trkpt>
      <trkpt lat="49.87478" lon="4.75418">
        <ele>326</ele>
        <time>2022-08-19T08:06:10.000Z</time>
      </trkpt>
      <trkpt lat="49.87477" lon="4.75416">
        <ele>327</ele>
        <time>2022-08-19T08:06:11.000Z</time>
      </trkpt>
      <trkpt lat="49.87476" lon="4.75415">
        <ele>327</ele>
        <time>2022-08-19T08:06:12.000Z</time>
      </trkpt>
      <trkpt lat="49.87475" lon="4.75414">
        <ele>327</ele>
        <time>2022-08-19T08:06:13.000Z</time>
      </trkpt>
      <trkpt lat="49.87474" lon="4.75413">
        <ele>327</ele>
        <time>2022-08-19T08:06:14.000Z</time>
      </trkpt>
      <trkpt lat="49.87473" lon="4.75412">
        <ele>328</ele>
        <time>2022-08-19T08:06:15.000Z</time>
      </trkpt>
      <trkpt lat="49.87472" lon="4.75413">
        <ele>328</ele>
        <time>2022-08-19T08:06:16.000Z</time>
      </trkpt>
      <trkpt lat="49.87472" lon="4.75412">
        <ele>328</ele>
        <time>2022-08-19T08:06:17.000Z</time>
      </trkpt>
      <trkpt lat="49.87471" lon="4.75412">
        <ele>328</ele>
        <time>2022-08-19T08:06:18.000Z</time>
      </trkpt>
      <trkpt lat="49.87471" lon="4.75412">
        <ele>329</ele>
        <time>2022-08-19T08:06:19.000Z</time>
      </trkpt>
      <trkpt lat="49.87471" lon="4.75411">
        <ele>329</ele>
        <time>2022-08-19T08:06:20.000Z</time>
      </trkpt>
      <trkpt lat="49.8747" lon="4.75411">
        <ele>329</ele>
        <time>2022-08-19T08:06:21.000Z</time>
      </trkpt>
      <trkpt lat="49.87469" lon="4.7541">
        <ele>330</ele>
        <time>2022-08-19T08:06:22.000Z</time>
      </trkpt>
      <trkpt lat="49.87468" lon="4.7541">
        <ele>330</ele>
        <time>2022-08-19T08:06:23.000Z</time>
      </trkpt>
      <trkpt lat="49.87468" lon="4.75409">
        <ele>330</ele>
        <time>2022-08-19T08:06:24.000Z</time>
      </trkpt>
      <trkpt lat="49.87467" lon="4.75409">
        <ele>331</ele>
        <time>2022-08-19T08:06:25.000Z</time>
      </trkpt>
      <trkpt lat="49.87466" lon="4.75409">
        <ele>331</ele>
        <time>2022-08-19T08:06:26.000Z</time>
      </trkpt>
      <trkpt lat="49.87465" lon="4.75408">
        <ele>331</ele>
        <time>2022-08-19T08:06:27.000Z</time>
      </trkpt>
      <trkpt lat="49.87463" lon="4.75408">
        <ele>332</ele>
        <time>2022-08-19T08:06:28.000Z</time>
      </trkpt>
      <trkpt lat="49.87462" lon="4.75407">
        <ele>332</ele>
        <time>2022-08-19T08:06:29.000Z</time>
      </trkpt>
      <trkpt lat="49.87462" lon="4.75407">
        <ele>332</ele>
        <time>2022-08-19T08:06:30.000Z</time>
      </trkpt>
      <trkpt lat="49.8746" lon="4.75407">
        <ele>332</ele>
        <time>2022-08-19T08:06:31.000Z</time>
      </trkpt>
      <trkpt lat="49.87459" lon="4.75407">
        <ele>333</ele>
        <time>2022-08-19T08:06:32.000Z</time>
      </trkpt>
      <trkpt lat="49.87458" lon="4.75407">
        <ele>333</ele>
        <time>2022-08-19T08:06:33.000Z</time>
      </trkpt>
      <trkpt lat="49.87457" lon="4.75407">
        <ele>333</ele>
        <time>2022-08-19T08:06:34.000Z</time>
      </trkpt>
      <trkpt lat="49.87456" lon="4.75408">
        <ele>333</ele>
        <time>2022-08-19T08:06:35.000Z</time>
      </trkpt>
      <trkpt lat="49.87455" lon="4.75408">
        <ele>333</ele>
        <time>2022-08-19T08:06:36.000Z</time>
      </trkpt>
      <trkpt lat="49.87454" lon="4.75408">
        <ele>334</ele>
        <time>2022-08-19T08:06:37.000Z</time>
      </trkpt>
      <trkpt lat="49.87452" lon="4.75408">
        <ele>334</ele>
        <time>2022-08-19T08:06:38.000Z</time>
      </trkpt>
      <trkpt lat="49.87451" lon="4.75409">
        <ele>334</ele>
        <time>2022-08-19T08:06:39.000Z</time>
      </trkpt>
      <trkpt lat="49.8745" lon="4.75409">
        <ele>334</ele>
        <time>2022-08-19T08:06:40.000Z</time>
      </trkpt>
      <trkpt lat="49.87449" lon="4.7541">
        <ele>334</ele>
        <time>2022-08-19T08:06:41.000Z</time>
      </trkpt>
      <trkpt lat="49.87448" lon="4.7541">
        <ele>334</ele>
        <time>2022-08-19T08:06:42.000Z</time>
      </trkpt>
      <trkpt lat="49.87446" lon="4.75411">
        <ele>334</ele>
        <time>2022-08-19T08:06:43.000Z</time>
      </trkpt>
      <trkpt lat="49.87445" lon="4.75412">
        <ele>334</ele>
        <time>2022-08-19T08:06:44.000Z</time>
      </trkpt>
      <trkpt lat="49.87444" lon="4.75412">
        <ele>334</ele>
        <time>2022-08-19T08:06:45.000Z</time>
      </trkpt>
      <trkpt lat="49.87443" lon="4.75413">
        <ele>334</ele>
        <time>2022-08-19T08:06:46.000Z</time>
      </trkpt>
      <trkpt lat="49.87442" lon="4.75414">
        <ele>335</ele>
        <time>2022-08-19T08:06:47.000Z</time>
      </trkpt>
      <trkpt lat="49.87441" lon="4.75415">
        <ele>335</ele>
        <time>2022-08-19T08:06:48.000Z</time>
      </trkpt>
      <trkpt lat="49.8744" lon="4.75416">
        <ele>335</ele>
        <time>2022-08-19T08:06:49.000Z</time>
      </trkpt>
      <trkpt lat="49.87439" lon="4.75417">
        <ele>335</ele>
        <time>2022-08-19T08:06:50.000Z</time>
      </trkpt>
      <trkpt lat="49.87438" lon="4.75418">
        <ele>335</ele>
        <time>2022-08-19T08:06:51.000Z</time>
      </trkpt>
      <trkpt lat="49.87437" lon="4.75418">
        <ele>336</ele>
        <time>2022-08-19T08:06:52.000Z</time>
      </trkpt>
      <trkpt lat="49.87436" lon="4.75419">
        <ele>336</ele>
        <time>2022-08-19T08:06:53.000Z</time>
      </trkpt>
      <trkpt lat="49.87435" lon="4.75421">
        <ele>336</ele>
        <time>2022-08-19T08:06:54.000Z</time>
      </trkpt>
      <trkpt lat="49.87435" lon="4.75422">
        <ele>336</ele>
        <time>2022-08-19T08:06:55.000Z</time>
      </trkpt>
      <trkpt lat="49.87434" lon="4.75423">
        <ele>337</ele>
        <time>2022-08-19T08:06:56.000Z</time>
      </trkpt>
      <trkpt lat="49.87434" lon="4.75424">
        <ele>337</ele>
        <time>2022-08-19T08:06:57.000Z</time>
      </trkpt>
      <trkpt lat="49.87433" lon="4.75425">
        <ele>337</ele>
        <time>2022-08-19T08:06:58.000Z</time>
      </trkpt>
      <trkpt lat="49.87432" lon="4.75426">
        <ele>338</ele>
        <time>2022-08-19T08:06:59.000Z</time>
      </trkpt>
      <trkpt lat="49.87432" lon="4.75428">
        <ele>338</ele>
        <time>2022-08-19T08:07:00.000Z</time>
      </trkpt>
      <trkpt lat="49.87431" lon="4.75429">
        <ele>338</ele>
        <time>2022-08-19T08:07:01.000Z</time>
      </trkpt>
      <trkpt lat="49.8743" lon="4.7543">
        <ele>338</ele>
        <time>2022-08-19T08:07:02.000Z</time>
      </trkpt>
      <trkpt lat="49.8743" lon="4.75432">
        <ele>339</ele>
        <time>2022-08-19T08:07:03.000Z</time>
      </trkpt>
      <trkpt lat="49.87429" lon="4.75434">
        <ele>339</ele>
        <time>2022-08-19T08:07:04.000Z</time>
      </trkpt>
      <trkpt lat="49.87428" lon="4.75435">
        <ele>339</ele>
        <time>2022-08-19T08:07:05.000Z</time>
      </trkpt>
      <trkpt lat="49.87428" lon="4.75436">
        <ele>340</ele>
        <time>2022-08-19T08:07:06.000Z</time>
      </trkpt>
      <trkpt lat="49.87427" lon="4.75437">
        <ele>340</ele>
        <time>2022-08-19T08:07:07.000Z</time>
      </trkpt>
      <trkpt lat="49.87426" lon="4.75438">
        <ele>340</ele>
        <time>2022-08-19T08:07:08.000Z</time>
      </trkpt>
      <trkpt lat="49.87426" lon="4.75438">
        <ele>341</ele>
        <time>2022-08-19T08:07:09.000Z</time>
      </trkpt>
      <trkpt lat="49.87425" lon="4.75439">
        <ele>341</ele>
        <time>2022-08-19T08:07:10.000Z</time>
      </trkpt>
      <trkpt lat="49.87425" lon="4.7544">
        <ele>341</ele>
        <time>2022-08-19T08:07:11.000Z</time>
      </trkpt>
      <trkpt lat="49.87424" lon="4.7544">
        <ele>342</ele>
        <time>2022-08-19T08:07:12.000Z</time>
      </trkpt>
      <trkpt lat="49.87423" lon="4.7544">
        <ele>342</ele>
        <time>2022-08-19T08:07:13.000Z</time>
      </trkpt>
      <trkpt lat="49.87423" lon="4.75441">
        <ele>342</ele>
        <time>2022-08-19T08:07:14.000Z</time>
      </trkpt>
      <trkpt lat="49.87422" lon="4.75441">
        <ele>343</ele>
        <time>2022-08-19T08:07:15.000Z</time>
      </trkpt>
      <trkpt lat="49.87422" lon="4.75441">
        <ele>343</ele>
        <time>2022-08-19T08:07:16.000Z</time>
      </trkpt>
      <trkpt lat="49.87421" lon="4.75441">
        <ele>343</ele>
        <time>2022-08-19T08:07:17.000Z</time>
      </trkpt>
      <trkpt lat="49.87421" lon="4.75442">
        <ele>343</ele>
        <time>2022-08-19T08:07:18.000Z</time>
      </trkpt>
      <trkpt lat="49.8742" lon="4.75443">
        <ele>343</ele>
        <time>2022-08-19T08:07:19.000Z</time>
      </trkpt>
      <trkpt lat="49.87419" lon="4.75444">
        <ele>344</ele>
        <time>2022-08-19T08:07:20.000Z</time>
      </trkpt>
      <trkpt lat="49.87417" lon="4.75444">
        <ele>344</ele>
        <time>2022-08-19T08:07:21.000Z</time>
      </trkpt>
      <trkpt lat="49.87416" lon="4.75446">
        <ele>344</ele>
        <time>2022-08-19T08:07:22.000Z</time>
      </trkpt>
      <trkpt lat="49.87414" lon="4.75447">
        <ele>344</ele>
        <time>2022-08-19T08:07:23.000Z</time>
      </trkpt>
      <trkpt lat="49.87413" lon="4.75448">
        <ele>345</ele>
        <time>2022-08-19T08:07:24.000Z</time>
      </trkpt>
      <trkpt lat="49.87411" lon="4.75449">
        <ele>345</ele>
        <time>2022-08-19T08:07:25.000Z</time>
      </trkpt>
      <trkpt lat="49.87409" lon="4.75449">
        <ele>345</ele>
        <time>2022-08-19T08:07:26.000Z</time>
      </trkpt>
      <trkpt lat="49.87408" lon="4.75451">
        <ele>345</ele>
        <time>2022-08-19T08:07:27.000Z</time>
      </trkpt>
      <trkpt lat="49.87406" lon="4.75452">
        <ele>346</ele>
        <time>2022-08-19T08:07:28.000Z</time>
      </trkpt>
      <trkpt lat="49.87404" lon="4.75453">
        <ele>346</ele>
        <time>2022-08-19T08:07:29.000Z</time>
      </trkpt>
      <trkpt lat="49.87403" lon="4.75455">
        <ele>346</ele>
        <time>2022-08-19T08:07:30.000Z</time>
      </trkpt>
      <trkpt lat="49.87401" lon="4.75456">
        <ele>346</ele>
        <time>2022-08-19T08:07:31.000Z</time>
      </trkpt>
      <trkpt lat="49.87399" lon="4.75458">
        <ele>346</ele>
        <time>2022-08-19T08:07:32.000Z</time>
      </trkpt>
      <trkpt lat="49.87398" lon="4.75458">
        <ele>346</ele>
        <time>2022-08-19T08:07:33.000Z</time>
      </trkpt>
      <trkpt lat="49.87396" lon="4.75459">
        <ele>347</ele>
        <time>2022-08-19T08:07:34.000Z</time>
      </trkpt>
      <trkpt lat="49.87394" lon="4.7546">
        <ele>347</ele>
        <time>2022-08-19T08:07:35.000Z</time>
      </trkpt>
      <trkpt lat="49.87393" lon="4.75462">
        <ele>347</ele>
        <time>2022-08-19T08:07:36.000Z</time>
      </trkpt>
      <trkpt lat="49.87391" lon="4.75463">
        <ele>347</ele>
        <time>2022-08-19T08:07:37.000Z</time>
      </trkpt>
      <trkpt lat="49.87389" lon="4.75464">
        <ele>347</ele>
        <time>2022-08-19T08:07:38.000Z</time>
      </trkpt>
      <trkpt lat="49.87388" lon="4.75465">
        <ele>347</ele>
        <time>2022-08-19T08:07:39.000Z</time>
      </trkpt>
      <trkpt lat="49.87386" lon="4.75465">
        <ele>348</ele>
        <time>2022-08-19T08:07:40.000Z</time>
      </trkpt>
      <trkpt lat="49.87384" lon="4.75466">
        <ele>348</ele>
        <time>2022-08-19T08:07:41.000Z</time>
      </trkpt>
      <trkpt lat="49.87381" lon="4.75467">
        <ele>348</ele>
        <time>2022-08-19T08:07:42.000Z</time>
      </trkpt>
      <trkpt lat="49.87379" lon="4.75468">
        <ele>348</ele>
        <time>2022-08-19T08:07:43.000Z</time>
      </trkpt>
      <trkpt lat="49.87376" lon="4.75468">
        <ele>348</ele>
        <time>2022-08-19T08:07:44.000Z</time>
      </trkpt>
      <trkpt lat="49.87373" lon="4.75469">
        <ele>348</ele>
        <time>2022-08-19T08:07:45.000Z</time>
      </trkpt>
      <trkpt lat="49.8737" lon="4.75469">
        <ele>348</ele>
        <time>2022-08-19T08:07:46.000Z</time>
      </trkpt>
      <trkpt lat="49.87368" lon="4.75469">
        <ele>348</ele>
        <time>2022-08-19T08:07:47.000Z</time>
      </trkpt>
      <trkpt lat="49.87366" lon="4.7547">
        <ele>348</ele>
        <time>2022-08-19T08:07:48.000Z</time>
      </trkpt>
      <trkpt lat="49.87363" lon="4.7547">
        <ele>349</ele>
        <time>2022-08-19T08:07:49.000Z</time>
      </trkpt>
      <trkpt lat="49.8736" lon="4.7547">
        <ele>349</ele>
        <time>2022-08-19T08:07:50.000Z</time>
      </trkpt>
      <trkpt lat="49.87357" lon="4.7547">
        <ele>349</ele>
        <time>2022-08-19T08:07:51.000Z</time>
      </trkpt>
      <trkpt lat="49.87354" lon="4.7547">
        <ele>349</ele>
        <time>2022-08-19T08:07:52.000Z</time>
      </trkpt>
      <trkpt lat="49.87351" lon="4.7547">
        <ele>349</ele>
        <time>2022-08-19T08:07:53.000Z</time>
      </trkpt>
      <trkpt lat="49.87348" lon="4.75471">
        <ele>349</ele>
        <time>2022-08-19T08:07:54.000Z</time>
      </trkpt>
      <trkpt lat="49.87345" lon="4.75472">
        <ele>349</ele>
        <time>2022-08-19T08:07:55.000Z</time>
      </trkpt>
      <trkpt lat="49.87342" lon="4.75473">
        <ele>350</ele>
        <time>2022-08-19T08:07:56.000Z</time>
      </trkpt>
      <trkpt lat="49.87339" lon="4.75474">
        <ele>350</ele>
        <time>2022-08-19T08:07:57.000Z</time>
      </trkpt>
      <trkpt lat="49.87335" lon="4.75475">
        <ele>350</ele>
        <time>2022-08-19T08:07:58.000Z</time>
      </trkpt>
      <trkpt lat="49.87332" lon="4.75475">
        <ele>350</ele>
        <time>2022-08-19T08:07:59.000Z</time>
      </trkpt>
      <trkpt lat="49.87328" lon="4.75475">
        <ele>350</ele>
        <time>2022-08-19T08:08:00.000Z</time>
      </trkpt>
      <trkpt lat="49.87325" lon="4.75476">
        <ele>350</ele>
        <time>2022-08-19T08:08:01.000Z</time>
      </trkpt>
      <trkpt lat="49.87321" lon="4.75475">
        <ele>350</ele>
        <time>2022-08-19T08:08:02.000Z</time>
      </trkpt>
      <trkpt lat="49.87317" lon="4.75475">
        <ele>350</ele>
        <time>2022-08-19T08:08:03.000Z</time>
      </trkpt>
      <trkpt lat="49.87313" lon="4.75475">
        <ele>350</ele>
        <time>2022-08-19T08:08:04.000Z</time>
      </trkpt>
      <trkpt lat="49.87309" lon="4.75474">
        <ele>350</ele>
        <time>2022-08-19T08:08:05.000Z</time>
      </trkpt>
      <trkpt lat="49.87304" lon="4.75473">
        <ele>350</ele>
        <time>2022-08-19T08:08:06.000Z</time>
      </trkpt>
      <trkpt lat="49.87299" lon="4.75474">
        <ele>350</ele>
        <time>2022-08-19T08:08:07.000Z</time>
      </trkpt>
      <trkpt lat="49.87294" lon="4.75475">
        <ele>350</ele>
        <time>2022-08-19T08:08:08.000Z</time>
      </trkpt>
      <trkpt lat="49.8729" lon="4.75477">
        <ele>350</ele>
        <time>2022-08-19T08:08:09.000Z</time>
      </trkpt>
      <trkpt lat="49.87286" lon="4.75478">
        <ele>350</ele>
        <time>2022-08-19T08:08:10.000Z</time>
      </trkpt>
      <trkpt lat="49.87282" lon="4.75479">
        <ele>350</ele>
        <time>2022-08-19T08:08:11.000Z</time>
      </trkpt>
      <trkpt lat="49.87278" lon="4.7548">
        <ele>350</ele>
        <time>2022-08-19T08:08:12.000Z</time>
      </trkpt>
      <trkpt lat="49.87275" lon="4.75482">
        <ele>350</ele>
        <time>2022-08-19T08:08:13.000Z</time>
      </trkpt>
      <trkpt lat="49.87271" lon="4.75483">
        <ele>350</ele>
        <time>2022-08-19T08:08:14.000Z</time>
      </trkpt>
      <trkpt lat="49.87267" lon="4.75484">
        <ele>350</ele>
        <time>2022-08-19T08:08:15.000Z</time>
      </trkpt>
      <trkpt lat="49.87264" lon="4.75485">
        <ele>350</ele>
        <time>2022-08-19T08:08:16.000Z</time>
      </trkpt>
      <trkpt lat="49.8726" lon="4.75486">
        <ele>350</ele>
        <time>2022-08-19T08:08:17.000Z</time>
      </trkpt>
      <trkpt lat="49.87257" lon="4.75487">
        <ele>350</ele>
        <time>2022-08-19T08:08:18.000Z</time>
      </trkpt>
      <trkpt lat="49.87254" lon="4.75488">
        <ele>350</ele>
        <time>2022-08-19T08:08:19.000Z</time>
      </trkpt>
      <trkpt lat="49.8725" lon="4.75489">
        <ele>350</ele>
        <time>2022-08-19T08:08:20.000Z</time>
      </trkpt>
      <trkpt lat="49.87246" lon="4.75491">
        <ele>350</ele>
        <time>2022-08-19T08:08:21.000Z</time>
      </trkpt>
      <trkpt lat="49.87243" lon="4.75492">
        <ele>350</ele>
        <time>2022-08-19T08:08:22.000Z</time>
      </trkpt>
      <trkpt lat="49.87239" lon="4.75493">
        <ele>350</ele>
        <time>2022-08-19T08:08:23.000Z</time>
      </trkpt>
      <trkpt lat="49.87235" lon="4.75494">
        <ele>350</ele>
        <time>2022-08-19T08:08:24.000Z</time>
      </trkpt>
      <trkpt lat="49.87231" lon="4.75495">
        <ele>350</ele>
        <time>2022-08-19T08:08:25.000Z</time>
      </trkpt>
      <trkpt lat="49.87227" lon="4.75496">
        <ele>350</ele>
        <time>2022-08-19T08:08:26.000Z</time>
      </trkpt>
      <trkpt lat="49.87224" lon="4.75496">
        <ele>350</ele>
        <time>2022-08-19T08:08:27.000Z</time>
      </trkpt>
      <trkpt lat="49.87221" lon="4.75497">
        <ele>350</ele>
        <time>2022-08-19T08:08:28.000Z</time>
      </trkpt>
      <trkpt lat="49.87218" lon="4.75497">
        <ele>350</ele>
        <time>2022-08-19T08:08:29.000Z</time>
      </trkpt>
      <trkpt lat="49.87214" lon="4.75498">
        <ele>350</ele>
        <time>2022-08-19T08:08:30.000Z</time>
      </trkpt>
      <trkpt lat="49.8721" lon="4.75498">
        <ele>350</ele>
        <time>2022-08-19T08:08:31.000Z</time>
      </trkpt>
      <trkpt lat="49.87207" lon="4.75498">
        <ele>349</ele>
        <time>2022-08-19T08:08:32.000Z</time>
      </trkpt>
      <trkpt lat="49.87204" lon="4.75499">
        <ele>349</ele>
        <time>2022-08-19T08:08:33.000Z</time>
      </trkpt>
      <trkpt lat="49.87201" lon="4.75499">
        <ele>349</ele>
        <time>2022-08-19T08:08:34.000Z</time>
      </trkpt>
      <trkpt lat="49.87197" lon="4.755">
        <ele>349</ele>
        <time>2022-08-19T08:08:35.000Z</time>
      </trkpt>
      <trkpt lat="49.87195" lon="4.75501">
        <ele>349</ele>
        <time>2022-08-19T08:08:36.000Z</time>
      </trkpt>
      <trkpt lat="49.87192" lon="4.75503">
        <ele>349</ele>
        <time>2022-08-19T08:08:37.000Z</time>
      </trkpt>
      <trkpt lat="49.8719" lon="4.75505">
        <ele>349</ele>
        <time>2022-08-19T08:08:38.000Z</time>
      </trkpt>
      <trkpt lat="49.87188" lon="4.75508">
        <ele>349</ele>
        <time>2022-08-19T08:08:39.000Z</time>
      </trkpt>
      <trkpt lat="49.87186" lon="4.75511">
        <ele>349</ele>
        <time>2022-08-19T08:08:40.000Z</time>
      </trkpt>
      <trkpt lat="49.87184" lon="4.75514">
        <ele>349</ele>
        <time>2022-08-19T08:08:41.000Z</time>
      </trkpt>
      <trkpt lat="49.87183" lon="4.75516">
        <ele>349</ele>
        <time>2022-08-19T08:08:42.000Z</time>
      </trkpt>
      <trkpt lat="49.87181" lon="4.75519">
        <ele>349</ele>
        <time>2022-08-19T08:08:43.000Z</time>
      </trkpt>
      <trkpt lat="49.87179" lon="4.75521">
        <ele>350</ele>
        <time>2022-08-19T08:08:44.000Z</time>
      </trkpt>
      <trkpt lat="49.87177" lon="4.75523">
        <ele>350</ele>
        <time>2022-08-19T08:08:45.000Z</time>
      </trkpt>
      <trkpt lat="49.87175" lon="4.75524">
        <ele>350</ele>
        <time>2022-08-19T08:08:46.000Z</time>
      </trkpt>
      <trkpt lat="49.87172" lon="4.75526">
        <ele>350</ele>
        <time>2022-08-19T08:08:47.000Z</time>
      </trkpt>
      <trkpt lat="49.8717" lon="4.75527">
        <ele>350</ele>
        <time>2022-08-19T08:08:48.000Z</time>
      </trkpt>
      <trkpt lat="49.87168" lon="4.75528">
        <ele>350</ele>
        <time>2022-08-19T08:08:49.000Z</time>
      </trkpt>
      <trkpt lat="49.87165" lon="4.75528">
        <ele>350</ele>
        <time>2022-08-19T08:08:50.000Z</time>
      </trkpt>
      <trkpt lat="49.87163" lon="4.75529">
        <ele>350</ele>
        <time>2022-08-19T08:08:51.000Z</time>
      </trkpt>
      <trkpt lat="49.87161" lon="4.75529">
        <ele>350</ele>
        <time>2022-08-19T08:08:52.000Z</time>
      </trkpt>
      <trkpt lat="49.87158" lon="4.7553">
        <ele>350</ele>
        <time>2022-08-19T08:08:53.000Z</time>
      </trkpt>
      <trkpt lat="49.87156" lon="4.7553">
        <ele>351</ele>
        <time>2022-08-19T08:08:54.000Z</time>
      </trkpt>
      <trkpt lat="49.87154" lon="4.75531">
        <ele>351</ele>
        <time>2022-08-19T08:08:55.000Z</time>
      </trkpt>
      <trkpt lat="49.87153" lon="4.75532">
        <ele>351</ele>
        <time>2022-08-19T08:08:56.000Z</time>
      </trkpt>
      <trkpt lat="49.87151" lon="4.75533">
        <ele>351</ele>
        <time>2022-08-19T08:08:57.000Z</time>
      </trkpt>
      <trkpt lat="49.87149" lon="4.75534">
        <ele>352</ele>
        <time>2022-08-19T08:08:58.000Z</time>
      </trkpt>
      <trkpt lat="49.87147" lon="4.75534">
        <ele>352</ele>
        <time>2022-08-19T08:08:59.000Z</time>
      </trkpt>
      <trkpt lat="49.87146" lon="4.75534">
        <ele>352</ele>
        <time>2022-08-19T08:09:00.000Z</time>
      </trkpt>
      <trkpt lat="49.87144" lon="4.75535">
        <ele>352</ele>
        <time>2022-08-19T08:09:01.000Z</time>
      </trkpt>
      <trkpt lat="49.87143" lon="4.75536">
        <ele>353</ele>
        <time>2022-08-19T08:09:02.000Z</time>
      </trkpt>
      <trkpt lat="49.8714" lon="4.75538">
        <ele>353</ele>
        <time>2022-08-19T08:09:03.000Z</time>
      </trkpt>
      <trkpt lat="49.87138" lon="4.7554">
        <ele>354</ele>
        <time>2022-08-19T08:09:04.000Z</time>
      </trkpt>
      <trkpt lat="49.87137" lon="4.75542">
        <ele>354</ele>
        <time>2022-08-19T08:09:05.000Z</time>
      </trkpt>
      <trkpt lat="49.87135" lon="4.75543">
        <ele>354</ele>
        <time>2022-08-19T08:09:06.000Z</time>
      </trkpt>
      <trkpt lat="49.87133" lon="4.75544">
        <ele>355</ele>
        <time>2022-08-19T08:09:07.000Z</time>
      </trkpt>
      <trkpt lat="49.87131" lon="4.75545">
        <ele>355</ele>
        <time>2022-08-19T08:09:08.000Z</time>
      </trkpt>
      <trkpt lat="49.87129" lon="4.75545">
        <ele>355</ele>
        <time>2022-08-19T08:09:09.000Z</time>
      </trkpt>
      <trkpt lat="49.87128" lon="4.75545">
        <ele>355</ele>
        <time>2022-08-19T08:09:10.000Z</time>
      </trkpt>
      <trkpt lat="49.87126" lon="4.75545">
        <ele>356</ele>
        <time>2022-08-19T08:09:11.000Z</time>
      </trkpt>
      <trkpt lat="49.87124" lon="4.75544">
        <ele>356</ele>
        <time>2022-08-19T08:09:12.000Z</time>
      </trkpt>
      <trkpt lat="49.87122" lon="4.75544">
        <ele>356</ele>
        <time>2022-08-19T08:09:13.000Z</time>
      </trkpt>
      <trkpt lat="49.8712" lon="4.75544">
        <ele>356</ele>
        <time>2022-08-19T08:09:14.000Z</time>
      </trkpt>
      <trkpt lat="49.8712" lon="4.75545">
        <ele>356</ele>
        <time>2022-08-19T08:09:15.000Z</time>
      </trkpt>
      <trkpt lat="49.87119" lon="4.75544">
        <ele>356</ele>
        <time>2022-08-19T08:09:16.000Z</time>
      </trkpt>
      <trkpt lat="49.87119" lon="4.75544">
        <ele>357</ele>
        <time>2022-08-19T08:09:17.000Z</time>
      </trkpt>
      <trkpt lat="49.87119" lon="4.75544">
        <ele>357</ele>
        <time>2022-08-19T08:09:18.000Z</time>
      </trkpt>
      <trkpt lat="49.87119" lon="4.75544">
        <ele>357</ele>
        <time>2022-08-19T08:09:19.000Z</time>
      </trkpt>
      <trkpt lat="49.87119" lon="4.75545">
        <ele>358</ele>
        <time>2022-08-19T08:09:20.000Z</time>
      </trkpt>
      <trkpt lat="49.87119" lon="4.75545">
        <ele>358</ele>
        <time>2022-08-19T08:09:21.000Z</time>
      </trkpt>
      <trkpt lat="49.87118" lon="4.75545">
        <ele>358</ele>
        <time>2022-08-19T08:09:22.000Z</time>
      </trkpt>
      <trkpt lat="49.87118" lon="4.75545">
        <ele>358</ele>
        <time>2022-08-19T08:09:23.000Z</time>
      </trkpt>
      <trkpt lat="49.87118" lon="4.75545">
        <ele>358</ele>
        <time>2022-08-19T08:09:24.000Z</time>
      </trkpt>
      <trkpt lat="49.87118" lon="4.75545">
        <ele>359</ele>
        <time>2022-08-19T08:09:25.000Z</time>
      </trkpt>
      <trkpt lat="49.87118" lon="4.75545">
        <ele>359</ele>
        <time>2022-08-19T08:09:26.000Z</time>
      </trkpt>
      <trkpt lat="49.87117" lon="4.75545">
        <ele>359</ele>
        <time>2022-08-19T08:09:27.000Z</time>
      </trkpt>
      <trkpt lat="49.87117" lon="4.75545">
        <ele>359</ele>
        <time>2022-08-19T08:09:28.000Z</time>
      </trkpt>
      <trkpt lat="49.87117" lon="4.75545">
        <ele>359</ele>
        <time>2022-08-19T08:09:29.000Z</time>
      </trkpt>
      <trkpt lat="49.87117" lon="4.75545">
        <ele>359</ele>
        <time>2022-08-19T08:09:30.000Z</time>
      </trkpt>
      <trkpt lat="49.87117" lon="4.75545">
        <ele>360</ele>
        <time>2022-08-19T08:09:31.000Z</time>
      </trkpt>
      <trkpt lat="49.87117" lon="4.75545">
        <ele>360</ele>
        <time>2022-08-19T08:09:32.000Z</time>
      </trkpt>
      <trkpt lat="49.87117" lon="4.75545">
        <ele>360</ele>
        <time>2022-08-19T08:09:33.000Z</time>
      </trkpt>
      <trkpt lat="49.87117" lon="4.75545">
        <ele>360</ele>
        <time>2022-08-19T08:09:34.000Z</time>
      </trkpt>
      <trkpt lat="49.87117" lon="4.75545">
        <ele>360</ele>
        <time>2022-08-19T08:09:35.000Z</time>
      </trkpt>
      <trkpt lat="49.87116" lon="4.75545">
        <ele>360</ele>
        <time>2022-08-19T08:09:36.000Z</time>
      </trkpt>
      <trkpt lat="49.87116" lon="4.75545">
        <ele>360</ele>
        <time>2022-08-19T08:09:37.000Z</time>
      </trkpt>
      <trkpt lat="49.87116" lon="4.75545">
        <ele>360</ele>
        <time>2022-08-19T08:09:38.000Z</time>
      </trkpt>
      <trkpt lat="49.87116" lon="4.75545">
        <ele>360</ele>
        <time>2022-08-19T08:09:39.000Z</time>
      </trkpt>
      <trkpt lat="49.87116" lon="4.75545">
        <ele>360</ele>
        <time>2022-08-19T08:09:40.000Z</time>
      </trkpt>
      <trkpt lat="49.87116" lon="4.75545">
        <ele>360</ele>
        <time>2022-08-19T08:09:41.000Z</time>
      </trkpt>
      <trkpt lat="49.87116" lon="4.75545">
        <ele>360</ele>
        <time>2022-08-19T08:09:42.000Z</time>
      </trkpt>
      <trkpt lat="49.87116" lon="4.75545">
        <ele>361</ele>
        <time>2022-08-19T08:09:43.000Z</time>
      </trkpt>
      <trkpt lat="49.87116" lon="4.75545">
        <ele>361</ele>
        <time>2022-08-19T08:09:44.000Z</time>
      </trkpt>
      <trkpt lat="49.87116" lon="4.75545">
        <ele>361</ele>
        <time>2022-08-19T08:09:45.000Z</time>
      </trkpt>
      <trkpt lat="49.87116" lon="4.75545">
        <ele>361</ele>
        <time>2022-08-19T08:09:46.000Z</time>
      </trkpt>
      <trkpt lat="49.87115" lon="4.75545">
        <ele>361</ele>
        <time>2022-08-19T08:09:47.000Z</time>
      </trkpt>
      <trkpt lat="49.87115" lon="4.75545">
        <ele>361</ele>
        <time>2022-08-19T08:09:48.000Z</time>
      </trkpt>
      <trkpt lat="49.87115" lon="4.75545">
        <ele>361</ele>
        <time>2022-08-19T08:09:49.000Z</time>
      </trkpt>
      <trkpt lat="49.87115" lon="4.75545">
        <ele>361</ele>
        <time>2022-08-19T08:09:50.000Z</time>
      </trkpt>
      <trkpt lat="49.87115" lon="4.75545">
        <ele>361</ele>
        <time>2022-08-19T08:09:51.000Z</time>
      </trkpt>
      <trkpt lat="49.87115" lon="4.75545">
        <ele>361</ele>
        <time>2022-08-19T08:09:52.000Z</time>
      </trkpt>
      <trkpt lat="49.87115" lon="4.75545">
        <ele>361</ele>
        <time>2022-08-19T08:09:53.000Z</time>
      </trkpt>
      <trkpt lat="49.87115" lon="4.75545">
        <ele>361</ele>
        <time>2022-08-19T08:09:54.000Z</time>
      </trkpt>
      <trkpt lat="49.87115" lon="4.75545">
        <ele>361</ele>
        <time>2022-08-19T08:09:55.000Z</time>
      </trkpt>
      <trkpt lat="49.87115" lon="4.75545">
        <ele>361</ele>
        <time>2022-08-19T08:09:56.000Z</time>
      </trkpt>
      <trkpt lat="49.87115" lon="4.75545">
        <ele>361</ele>
        <time>2022-08-19T08:09:57.000Z</time>
      </trkpt>
      <trkpt lat="49.87114" lon="4.75545">
        <ele>361</ele>
        <time>2022-08-19T08:09:58.000Z</time>
      </trkpt>
      <trkpt lat="49.87114" lon="4.75545">
        <ele>361</ele>
        <time>2022-08-19T08:09:59.000Z</time>
      </trkpt>
      <trkpt lat="49.87114" lon="4.75545">
        <ele>361</ele>
        <time>2022-08-19T08:10:00.000Z</time>
      </trkpt>
      <trkpt lat="49.87114" lon="4.75545">
        <ele>361</ele>
        <time>2022-08-19T08:10:01.000Z</time>
      </trkpt>
      <trkpt lat="49.87114" lon="4.75545">
        <ele>361</ele>
        <time>2022-08-19T08:10:02.000Z</time>
      </trkpt>
      <trkpt lat="49.87114" lon="4.75545">
        <ele>361</ele>
        <time>2022-08-19T08:10:03.000Z</time>
      </trkpt>
      <trkpt lat="49.87114" lon="4.75545">
        <ele>361</ele>
        <time>2022-08-19T08:10:04.000Z</time>
      </trkpt>
      <trkpt lat="49.87114" lon="4.75545">
        <ele>361</ele>
        <time>2022-08-19T08:10:05.000Z</time>
      </trkpt>
      <trkpt lat="49.87114" lon="4.75545">
        <ele>361</ele>
        <time>2022-08-19T08:10:06.000Z</time>
      </trkpt>
      <trkpt lat="49.87114" lon="4.75545">
        <ele>361</ele>
        <time>2022-08-19T08:10:07.000Z</time>
      </trkpt>
      <trkpt lat="49.87114" lon="4.75546">
        <ele>361</ele>
        <time>2022-08-19T08:10:08.000Z</time>
      </trkpt>
      <trkpt lat="49.87114" lon="4.75547">
        <ele>361</ele>
        <time>2022-08-19T08:10:09.000Z</time>
      </trkpt>
      <trkpt lat="49.87114" lon="4.75549">
        <ele>361</ele>
        <time>2022-08-19T08:10:10.000Z</time>
      </trkpt>
      <trkpt lat="49.87114" lon="4.7555">
        <ele>361</ele>
        <time>2022-08-19T08:10:11.000Z</time>
      </trkpt>
      <trkpt lat="49.87115" lon="4.75552">
        <ele>362</ele>
        <time>2022-08-19T08:10:12.000Z</time>
      </trkpt>
      <trkpt lat="49.87115" lon="4.75555">
        <ele>362</ele>
        <time>2022-08-19T08:10:13.000Z</time>
      </trkpt>
      <trkpt lat="49.87115" lon="4.75558">
        <ele>362</ele>
        <time>2022-08-19T08:10:14.000Z</time>
      </trkpt>
      <trkpt lat="49.87115" lon="4.75561">
        <ele>362</ele>
        <time>2022-08-19T08:10:15.000Z</time>
      </trkpt>
      <trkpt lat="49.87116" lon="4.75564">
        <ele>362</ele>
        <time>2022-08-19T08:10:16.000Z</time>
      </trkpt>
      <trkpt lat="49.87117" lon="4.75565">
        <ele>362</ele>
        <time>2022-08-19T08:10:17.000Z</time>
      </trkpt>
      <trkpt lat="49.87117" lon="4.75568">
        <ele>362</ele>
        <time>2022-08-19T08:10:18.000Z</time>
      </trkpt>
      <trkpt lat="49.87116" lon="4.7557">
        <ele>362</ele>
        <time>2022-08-19T08:10:19.000Z</time>
      </trkpt>
      <trkpt lat="49.87116" lon="4.75572">
        <ele>362</ele>
        <time>2022-08-19T08:10:20.000Z</time>
      </trkpt>
      <trkpt lat="49.87115" lon="4.75575">
        <ele>362</ele>
        <time>2022-08-19T08:10:21.000Z</time>
      </trkpt>
      <trkpt lat="49.87114" lon="4.75578">
        <ele>362</ele>
        <time>2022-08-19T08:10:22.000Z</time>
      </trkpt>
      <trkpt lat="49.87113" lon="4.75579">
        <ele>362</ele>
        <time>2022-08-19T08:10:23.000Z</time>
      </trkpt>
      <trkpt lat="49.87112" lon="4.75581">
        <ele>362</ele>
        <time>2022-08-19T08:10:24.000Z</time>
      </trkpt>
      <trkpt lat="49.8711" lon="4.75583">
        <ele>363</ele>
        <time>2022-08-19T08:10:25.000Z</time>
      </trkpt>
      <trkpt lat="49.87109" lon="4.75584">
        <ele>363</ele>
        <time>2022-08-19T08:10:26.000Z</time>
      </trkpt>
      <trkpt lat="49.87107" lon="4.75585">
        <ele>363</ele>
        <time>2022-08-19T08:10:27.000Z</time>
      </trkpt>
      <trkpt lat="49.87106" lon="4.75586">
        <ele>363</ele>
        <time>2022-08-19T08:10:28.000Z</time>
      </trkpt>
      <trkpt lat="49.87105" lon="4.75587">
        <ele>363</ele>
        <time>2022-08-19T08:10:29.000Z</time>
      </trkpt>
      <trkpt lat="49.87103" lon="4.75589">
        <ele>363</ele>
        <time>2022-08-19T08:10:30.000Z</time>
      </trkpt>
      <trkpt lat="49.87102" lon="4.75591">
        <ele>363</ele>
        <time>2022-08-19T08:10:31.000Z</time>
      </trkpt>
      <trkpt lat="49.871" lon="4.75593">
        <ele>364</ele>
        <time>2022-08-19T08:10:32.000Z</time>
      </trkpt>
      <trkpt lat="49.87099" lon="4.75596">
        <ele>364</ele>
        <time>2022-08-19T08:10:33.000Z</time>
      </trkpt>
      <trkpt lat="49.87097" lon="4.75598">
        <ele>364</ele>
        <time>2022-08-19T08:10:34.000Z</time>
      </trkpt>
      <trkpt lat="49.87095" lon="4.756">
        <ele>364</ele>
        <time>2022-08-19T08:10:35.000Z</time>
      </trkpt>
      <trkpt lat="49.87093" lon="4.75602">
        <ele>364</ele>
        <time>2022-08-19T08:10:36.000Z</time>
      </trkpt>
      <trkpt lat="49.87091" lon="4.75605">
        <ele>364</ele>
        <time>2022-08-19T08:10:37.000Z</time>
      </trkpt>
      <trkpt lat="49.87089" lon="4.75608">
        <ele>364</ele>
        <time>2022-08-19T08:10:38.000Z</time>
      </trkpt>
      <trkpt lat="49.87086" lon="4.7561">
        <ele>364</ele>
        <time>2022-08-19T08:10:39.000Z</time>
      </trkpt>
      <trkpt lat="49.87084" lon="4.75612">
        <ele>364</ele>
        <time>2022-08-19T08:10:40.000Z</time>
      </trkpt>
      <trkpt lat="49.87082" lon="4.75614">
        <ele>364</ele>
        <time>2022-08-19T08:10:41.000Z</time>
      </trkpt>
      <trkpt lat="49.87081" lon="4.75617">
        <ele>364</ele>
        <time>2022-08-19T08:10:42.000Z</time>
      </trkpt>
      <trkpt lat="49.87078" lon="4.7562">
        <ele>364</ele>
        <time>2022-08-19T08:10:43.000Z</time>
      </trkpt>
      <trkpt lat="49.87076" lon="4.75623">
        <ele>364</ele>
        <time>2022-08-19T08:10:44.000Z</time>
      </trkpt>
      <trkpt lat="49.87074" lon="4.75626">
        <ele>364</ele>
        <time>2022-08-19T08:10:45.000Z</time>
      </trkpt>
      <trkpt lat="49.87071" lon="4.75628">
        <ele>364</ele>
        <time>2022-08-19T08:10:46.000Z</time>
      </trkpt>
      <trkpt lat="49.87068" lon="4.75631">
        <ele>364</ele>
        <time>2022-08-19T08:10:47.000Z</time>
      </trkpt>
      <trkpt lat="49.87064" lon="4.75635">
        <ele>364</ele>
        <time>2022-08-19T08:10:48.000Z</time>
      </trkpt>
      <trkpt lat="49.8706" lon="4.75639">
        <ele>364</ele>
        <time>2022-08-19T08:10:49.000Z</time>
      </trkpt>
      <trkpt lat="49.87057" lon="4.75644">
        <ele>364</ele>
        <time>2022-08-19T08:10:50.000Z</time>
      </trkpt>
      <trkpt lat="49.87054" lon="4.75649">
        <ele>364</ele>
        <time>2022-08-19T08:10:51.000Z</time>
      </trkpt>
      <trkpt lat="49.87051" lon="4.75654">
        <ele>364</ele>
        <time>2022-08-19T08:10:52.000Z</time>
      </trkpt>
      <trkpt lat="49.87049" lon="4.75659">
        <ele>364</ele>
        <time>2022-08-19T08:10:53.000Z</time>
      </trkpt>
      <trkpt lat="49.87048" lon="4.75663">
        <ele>365</ele>
        <time>2022-08-19T08:10:54.000Z</time>
      </trkpt>
      <trkpt lat="49.87049" lon="4.75668">
        <ele>365</ele>
        <time>2022-08-19T08:10:55.000Z</time>
      </trkpt>
      <trkpt lat="49.8705" lon="4.75673">
        <ele>365</ele>
        <time>2022-08-19T08:10:56.000Z</time>
      </trkpt>
      <trkpt lat="49.8705" lon="4.75678">
        <ele>365</ele>
        <time>2022-08-19T08:10:57.000Z</time>
      </trkpt>
      <trkpt lat="49.87052" lon="4.75682">
        <ele>365</ele>
        <time>2022-08-19T08:10:58.000Z</time>
      </trkpt>
      <trkpt lat="49.87053" lon="4.75686">
        <ele>365</ele>
        <time>2022-08-19T08:10:59.000Z</time>
      </trkpt>
      <trkpt lat="49.87054" lon="4.75691">
        <ele>365</ele>
        <time>2022-08-19T08:11:00.000Z</time>
      </trkpt>
      <trkpt lat="49.87055" lon="4.75695">
        <ele>365</ele>
        <time>2022-08-19T08:11:01.000Z</time>
      </trkpt>
      <trkpt lat="49.87056" lon="4.75699">
        <ele>366</ele>
        <time>2022-08-19T08:11:02.000Z</time>
      </trkpt>
      <trkpt lat="49.87057" lon="4.75703">
        <ele>366</ele>
        <time>2022-08-19T08:11:03.000Z</time>
      </trkpt>
      <trkpt lat="49.87058" lon="4.75706">
        <ele>366</ele>
        <time>2022-08-19T08:11:04.000Z</time>
      </trkpt>
      <trkpt lat="49.87059" lon="4.75709">
        <ele>366</ele>
        <time>2022-08-19T08:11:05.000Z</time>
      </trkpt>
      <trkpt lat="49.8706" lon="4.75712">
        <ele>366</ele>
        <time>2022-08-19T08:11:06.000Z</time>
      </trkpt>
      <trkpt lat="49.87061" lon="4.75713">
        <ele>366</ele>
        <time>2022-08-19T08:11:07.000Z</time>
      </trkpt>
      <trkpt lat="49.87061" lon="4.75714">
        <ele>366</ele>
        <time>2022-08-19T08:11:08.000Z</time>
      </trkpt>
      <trkpt lat="49.87061" lon="4.75716">
        <ele>366</ele>
        <time>2022-08-19T08:11:09.000Z</time>
      </trkpt>
      <trkpt lat="49.87062" lon="4.75717">
        <ele>366</ele>
        <time>2022-08-19T08:11:10.000Z</time>
      </trkpt>
      <trkpt lat="49.87062" lon="4.75718">
        <ele>366</ele>
        <time>2022-08-19T08:11:11.000Z</time>
      </trkpt>
      <trkpt lat="49.87062" lon="4.75718">
        <ele>366</ele>
        <time>2022-08-19T08:11:12.000Z</time>
      </trkpt>
      <trkpt lat="49.87062" lon="4.75719">
        <ele>366</ele>
        <time>2022-08-19T08:11:13.000Z</time>
      </trkpt>
      <trkpt lat="49.87062" lon="4.75719">
        <ele>366</ele>
        <time>2022-08-19T08:11:14.000Z</time>
      </trkpt>
      <trkpt lat="49.87062" lon="4.7572">
        <ele>366</ele>
        <time>2022-08-19T08:11:15.000Z</time>
      </trkpt>
      <trkpt lat="49.87063" lon="4.75721">
        <ele>366</ele>
        <time>2022-08-19T08:11:16.000Z</time>
      </trkpt>
      <trkpt lat="49.87063" lon="4.75721">
        <ele>366</ele>
        <time>2022-08-19T08:11:17.000Z</time>
      </trkpt>
      <trkpt lat="49.87063" lon="4.75722">
        <ele>366</ele>
        <time>2022-08-19T08:11:18.000Z</time>
      </trkpt>
      <trkpt lat="49.87063" lon="4.75722">
        <ele>366</ele>
        <time>2022-08-19T08:11:19.000Z</time>
      </trkpt>
      <trkpt lat="49.87063" lon="4.75723">
        <ele>366</ele>
        <time>2022-08-19T08:11:20.000Z</time>
      </trkpt>
      <trkpt lat="49.87063" lon="4.75723">
        <ele>366</ele>
        <time>2022-08-19T08:11:21.000Z</time>
      </trkpt>
      <trkpt lat="49.87063" lon="4.75724">
        <ele>366</ele>
        <time>2022-08-19T08:11:22.000Z</time>
      </trkpt>
      <trkpt lat="49.87063" lon="4.75724">
        <ele>366</ele>
        <time>2022-08-19T08:11:23.000Z</time>
      </trkpt>
      <trkpt lat="49.87063" lon="4.75724">
        <ele>366</ele>
        <time>2022-08-19T08:11:24.000Z</time>
      </trkpt>
      <trkpt lat="49.87064" lon="4.75725">
        <ele>366</ele>
        <time>2022-08-19T08:11:25.000Z</time>
      </trkpt>
      <trkpt lat="49.87064" lon="4.75725">
        <ele>366</ele>
        <time>2022-08-19T08:11:26.000Z</time>
      </trkpt>
      <trkpt lat="49.87064" lon="4.75725">
        <ele>366</ele>
        <time>2022-08-19T08:11:27.000Z</time>
      </trkpt>
      <trkpt lat="49.87064" lon="4.75725">
        <ele>366</ele>
        <time>2022-08-19T08:11:28.000Z</time>
      </trkpt>
      <trkpt lat="49.87064" lon="4.75726">
        <ele>366</ele>
        <time>2022-08-19T08:11:29.000Z</time>
      </trkpt>
      <trkpt lat="49.87064" lon="4.75726">
        <ele>366</ele>
        <time>2022-08-19T08:11:30.000Z</time>
      </trkpt>
      <trkpt lat="49.87064" lon="4.75726">
        <ele>366</ele>
        <time>2022-08-19T08:11:31.000Z</time>
      </trkpt>
      <trkpt lat="49.87064" lon="4.75726">
        <ele>366</ele>
        <time>2022-08-19T08:11:32.000Z</time>
      </trkpt>
      <trkpt lat="49.87064" lon="4.75726">
        <ele>366</ele>
        <time>2022-08-19T08:11:33.000Z</time>
      </trkpt>
      <trkpt lat="49.87064" lon="4.75727">
        <ele>366</ele>
        <time>2022-08-19T08:11:34.000Z</time>
      </trkpt>
      <trkpt lat="49.87064" lon="4.75727">
        <ele>366</ele>
        <time>2022-08-19T08:11:35.000Z</time>
      </trkpt>
      <trkpt lat="49.87064" lon="4.75727">
        <ele>366</ele>
        <time>2022-08-19T08:11:36.000Z</time>
      </trkpt>
      <trkpt lat="49.87064" lon="4.75727">
        <ele>366</ele>
        <time>2022-08-19T08:11:37.000Z</time>
      </trkpt>
      <trkpt lat="49.87064" lon="4.75727">
        <ele>366</ele>
        <time>2022-08-19T08:11:38.000Z</time>
      </trkpt>
      <trkpt lat="49.87064" lon="4.75727">
        <ele>366</ele>
        <time>2022-08-19T08:11:39.000Z</time>
      </trkpt>
      <trkpt lat="49.87064" lon="4.75727">
        <ele>366</ele>
        <time>2022-08-19T08:11:40.000Z</time>
      </trkpt>
      <trkpt lat="49.87064" lon="4.75727">
        <ele>366</ele>
        <time>2022-08-19T08:11:41.000Z</time>
      </trkpt>
      <trkpt lat="49.87064" lon="4.75728">
        <ele>366</ele>
        <time>2022-08-19T08:11:42.000Z</time>
      </trkpt>
      <trkpt lat="49.87064" lon="4.75728">
        <ele>365</ele>
        <time>2022-08-19T08:11:43.000Z</time>
      </trkpt>
      <trkpt lat="49.87064" lon="4.75728">
        <ele>365</ele>
        <time>2022-08-19T08:11:44.000Z</time>
      </trkpt>
      <trkpt lat="49.87064" lon="4.75728">
        <ele>365</ele>
        <time>2022-08-19T08:11:45.000Z</time>
      </trkpt>
      <trkpt lat="49.87064" lon="4.75728">
        <ele>365</ele>
        <time>2022-08-19T08:11:46.000Z</time>
      </trkpt>
      <trkpt lat="49.87064" lon="4.75728">
        <ele>365</ele>
        <time>2022-08-19T08:11:47.000Z</time>
      </trkpt>
      <trkpt lat="49.87064" lon="4.75728">
        <ele>365</ele>
        <time>2022-08-19T08:11:48.000Z</time>
      </trkpt>
      <trkpt lat="49.87064" lon="4.75729">
        <ele>365</ele>
        <time>2022-08-19T08:11:49.000Z</time>
      </trkpt>
      <trkpt lat="49.87064" lon="4.7573">
        <ele>365</ele>
        <time>2022-08-19T08:11:50.000Z</time>
      </trkpt>
      <trkpt lat="49.87064" lon="4.75731">
        <ele>365</ele>
        <time>2022-08-19T08:11:51.000Z</time>
      </trkpt>
      <trkpt lat="49.87065" lon="4.75734">
        <ele>365</ele>
        <time>2022-08-19T08:11:52.000Z</time>
      </trkpt>
      <trkpt lat="49.87066" lon="4.75736">
        <ele>365</ele>
        <time>2022-08-19T08:11:53.000Z</time>
      </trkpt>
      <trkpt lat="49.87067" lon="4.7574">
        <ele>366</ele>
        <time>2022-08-19T08:11:54.000Z</time>
      </trkpt>
      <trkpt lat="49.87067" lon="4.75743">
        <ele>366</ele>
        <time>2022-08-19T08:11:55.000Z</time>
      </trkpt>
      <trkpt lat="49.87068" lon="4.75746">
        <ele>366</ele>
        <time>2022-08-19T08:11:56.000Z</time>
      </trkpt>
      <trkpt lat="49.8707" lon="4.7575">
        <ele>366</ele>
        <time>2022-08-19T08:11:57.000Z</time>
      </trkpt>
      <trkpt lat="49.8707" lon="4.75753">
        <ele>366</ele>
        <time>2022-08-19T08:11:58.000Z</time>
      </trkpt>
      <trkpt lat="49.8707" lon="4.75757">
        <ele>366</ele>
        <time>2022-08-19T08:11:59.000Z</time>
      </trkpt>
      <trkpt lat="49.87071" lon="4.75761">
        <ele>366</ele>
        <time>2022-08-19T08:12:00.000Z</time>
      </trkpt>
      <trkpt lat="49.87073" lon="4.75765">
        <ele>367</ele>
        <time>2022-08-19T08:12:01.000Z</time>
      </trkpt>
      <trkpt lat="49.87074" lon="4.75768">
        <ele>367</ele>
        <time>2022-08-19T08:12:02.000Z</time>
      </trkpt>
      <trkpt lat="49.87076" lon="4.75772">
        <ele>367</ele>
        <time>2022-08-19T08:12:03.000Z</time>
      </trkpt>
      <trkpt lat="49.87078" lon="4.75775">
        <ele>367</ele>
        <time>2022-08-19T08:12:04.000Z</time>
      </trkpt>
      <trkpt lat="49.87079" lon="4.75779">
        <ele>368</ele>
        <time>2022-08-19T08:12:05.000Z</time>
      </trkpt>
      <trkpt lat="49.87079" lon="4.75782">
        <ele>368</ele>
        <time>2022-08-19T08:12:06.000Z</time>
      </trkpt>
      <trkpt lat="49.8708" lon="4.75785">
        <ele>368</ele>
        <time>2022-08-19T08:12:07.000Z</time>
      </trkpt>
      <trkpt lat="49.87081" lon="4.75789">
        <ele>369</ele>
        <time>2022-08-19T08:12:08.000Z</time>
      </trkpt>
      <trkpt lat="49.87082" lon="4.75792">
        <ele>369</ele>
        <time>2022-08-19T08:12:09.000Z</time>
      </trkpt>
      <trkpt lat="49.87083" lon="4.75796">
        <ele>369</ele>
        <time>2022-08-19T08:12:10.000Z</time>
      </trkpt>
      <trkpt lat="49.87084" lon="4.75798">
        <ele>369</ele>
        <time>2022-08-19T08:12:11.000Z</time>
      </trkpt>
      <trkpt lat="49.87085" lon="4.75801">
        <ele>370</ele>
        <time>2022-08-19T08:12:12.000Z</time>
      </trkpt>
      <trkpt lat="49.87086" lon="4.75804">
        <ele>370</ele>
        <time>2022-08-19T08:12:13.000Z</time>
      </trkpt>
      <trkpt lat="49.87086" lon="4.75807">
        <ele>370</ele>
        <time>2022-08-19T08:12:14.000Z</time>
      </trkpt>
      <trkpt lat="49.87087" lon="4.75809">
        <ele>370</ele>
        <time>2022-08-19T08:12:15.000Z</time>
      </trkpt>
      <trkpt lat="49.87087" lon="4.75809">
        <ele>370</ele>
        <time>2022-08-19T08:12:16.000Z</time>
      </trkpt>
      <trkpt lat="49.87088" lon="4.75809">
        <ele>371</ele>
        <time>2022-08-19T08:12:17.000Z</time>
      </trkpt>
      <trkpt lat="49.87088" lon="4.75808">
        <ele>371</ele>
        <time>2022-08-19T08:12:18.000Z</time>
      </trkpt>
      <trkpt lat="49.87087" lon="4.75807">
        <ele>371</ele>
        <time>2022-08-19T08:12:19.000Z</time>
      </trkpt>
      <trkpt lat="49.87087" lon="4.75805">
        <ele>371</ele>
        <time>2022-08-19T08:12:20.000Z</time>
      </trkpt>
      <trkpt lat="49.87085" lon="4.75801">
        <ele>372</ele>
        <time>2022-08-19T08:12:21.000Z</time>
      </trkpt>
      <trkpt lat="49.87083" lon="4.75797">
        <ele>372</ele>
        <time>2022-08-19T08:12:22.000Z</time>
      </trkpt>
      <trkpt lat="49.87082" lon="4.75792">
        <ele>372</ele>
        <time>2022-08-19T08:12:23.000Z</time>
      </trkpt>
      <trkpt lat="49.87079" lon="4.75786">
        <ele>372</ele>
        <time>2022-08-19T08:12:24.000Z</time>
      </trkpt>
      <trkpt lat="49.87077" lon="4.7578">
        <ele>372</ele>
        <time>2022-08-19T08:12:25.000Z</time>
      </trkpt>
      <trkpt lat="49.87075" lon="4.75773">
        <ele>372</ele>
        <time>2022-08-19T08:12:26.000Z</time>
      </trkpt>
      <trkpt lat="49.87072" lon="4.75766">
        <ele>373</ele>
        <time>2022-08-19T08:12:27.000Z</time>
      </trkpt>
      <trkpt lat="49.8707" lon="4.75758">
        <ele>373</ele>
        <time>2022-08-19T08:12:28.000Z</time>
      </trkpt>
      <trkpt lat="49.87067" lon="4.7575">
        <ele>373</ele>
        <time>2022-08-19T08:12:29.000Z</time>
      </trkpt>
      <trkpt lat="49.87064" lon="4.75741">
        <ele>373</ele>
        <time>2022-08-19T08:12:30.000Z</time>
      </trkpt>
      <trkpt lat="49.87061" lon="4.75733">
        <ele>373</ele>
        <time>2022-08-19T08:12:31.000Z</time>
      </trkpt>
      <trkpt lat="49.87059" lon="4.75725">
        <ele>373</ele>
        <time>2022-08-19T08:12:32.000Z</time>
      </trkpt>
      <trkpt lat="49.87056" lon="4.75717">
        <ele>373</ele>
        <time>2022-08-19T08:12:33.000Z</time>
      </trkpt>
      <trkpt lat="49.87053" lon="4.75709">
        <ele>373</ele>
        <time>2022-08-19T08:12:34.000Z</time>
      </trkpt>
      <trkpt lat="49.8705" lon="4.75702">
        <ele>373</ele>
        <time>2022-08-19T08:12:35.000Z</time>
      </trkpt>
      <trkpt lat="49.87048" lon="4.75695">
        <ele>373</ele>
        <time>2022-08-19T08:12:36.000Z</time>
      </trkpt>
      <trkpt lat="49.87046" lon="4.75688">
        <ele>373</ele>
        <time>2022-08-19T08:12:37.000Z</time>
      </trkpt>
      <trkpt lat="49.87045" lon="4.75684">
        <ele>373</ele>
        <time>2022-08-19T08:12:38.000Z</time>
      </trkpt>
      <trkpt lat="49.87044" lon="4.75681">
        <ele>373</ele>
        <time>2022-08-19T08:12:39.000Z</time>
      </trkpt>
      <trkpt lat="49.87043" lon="4.75679">
        <ele>372</ele>
        <time>2022-08-19T08:12:40.000Z</time>
      </trkpt>
      <trkpt lat="49.87042" lon="4.75677">
        <ele>372</ele>
        <time>2022-08-19T08:12:41.000Z</time>
      </trkpt>
      <trkpt lat="49.87041" lon="4.75675">
        <ele>372</ele>
        <time>2022-08-19T08:12:42.000Z</time>
      </trkpt>
      <trkpt lat="49.8704" lon="4.75672">
        <ele>372</ele>
        <time>2022-08-19T08:12:43.000Z</time>
      </trkpt>
      <trkpt lat="49.87038" lon="4.75669">
        <ele>372</ele>
        <time>2022-08-19T08:12:44.000Z</time>
      </trkpt>
      <trkpt lat="49.87037" lon="4.75666">
        <ele>371</ele>
        <time>2022-08-19T08:12:45.000Z</time>
      </trkpt>
      <trkpt lat="49.87036" lon="4.75662">
        <ele>371</ele>
        <time>2022-08-19T08:12:46.000Z</time>
      </trkpt>
      <trkpt lat="49.87036" lon="4.75659">
        <ele>371</ele>
        <time>2022-08-19T08:12:47.000Z</time>
      </trkpt>
      <trkpt lat="49.87035" lon="4.75656">
        <ele>371</ele>
        <time>2022-08-19T08:12:48.000Z</time>
      </trkpt>
      <trkpt lat="49.87035" lon="4.75653">
        <ele>371</ele>
        <time>2022-08-19T08:12:49.000Z</time>
      </trkpt>
      <trkpt lat="49.87034" lon="4.7565">
        <ele>371</ele>
        <time>2022-08-19T08:12:50.000Z</time>
      </trkpt>
      <trkpt lat="49.87032" lon="4.75646">
        <ele>371</ele>
        <time>2022-08-19T08:12:51.000Z</time>
      </trkpt>
      <trkpt lat="49.87031" lon="4.75643">
        <ele>370</ele>
        <time>2022-08-19T08:12:52.000Z</time>
      </trkpt>
      <trkpt lat="49.8703" lon="4.7564">
        <ele>370</ele>
        <time>2022-08-19T08:12:53.000Z</time>
      </trkpt>
      <trkpt lat="49.8703" lon="4.75637">
        <ele>370</ele>
        <time>2022-08-19T08:12:54.000Z</time>
      </trkpt>
      <trkpt lat="49.87029" lon="4.75633">
        <ele>370</ele>
        <time>2022-08-19T08:12:55.000Z</time>
      </trkpt>
      <trkpt lat="49.87027" lon="4.7563">
        <ele>370</ele>
        <time>2022-08-19T08:12:56.000Z</time>
      </trkpt>
      <trkpt lat="49.87027" lon="4.75627">
        <ele>370</ele>
        <time>2022-08-19T08:12:57.000Z</time>
      </trkpt>
      <trkpt lat="49.87026" lon="4.75624">
        <ele>370</ele>
        <time>2022-08-19T08:12:58.000Z</time>
      </trkpt>
      <trkpt lat="49.87026" lon="4.75622">
        <ele>370</ele>
        <time>2022-08-19T08:12:59.000Z</time>
      </trkpt>
      <trkpt lat="49.87026" lon="4.7562">
        <ele>369</ele>
        <time>2022-08-19T08:13:00.000Z</time>
      </trkpt>
      <trkpt lat="49.87025" lon="4.75618">
        <ele>369</ele>
        <time>2022-08-19T08:13:01.000Z</time>
      </trkpt>
      <trkpt lat="49.87025" lon="4.75617">
        <ele>369</ele>
        <time>2022-08-19T08:13:02.000Z</time>
      </trkpt>
      <trkpt lat="49.87025" lon="4.75616">
        <ele>369</ele>
        <time>2022-08-19T08:13:03.000Z</time>
      </trkpt>
      <trkpt lat="49.87025" lon="4.75616">
        <ele>369</ele>
        <time>2022-08-19T08:13:04.000Z</time>
      </trkpt>
      <trkpt lat="49.87025" lon="4.75615">
        <ele>369</ele>
        <time>2022-08-19T08:13:05.000Z</time>
      </trkpt>
      <trkpt lat="49.87025" lon="4.75615">
        <ele>369</ele>
        <time>2022-08-19T08:13:06.000Z</time>
      </trkpt>
      <trkpt lat="49.87025" lon="4.75615">
        <ele>368</ele>
        <time>2022-08-19T08:13:07.000Z</time>
      </trkpt>
      <trkpt lat="49.87026" lon="4.75615">
        <ele>368</ele>
        <time>2022-08-19T08:13:08.000Z</time>
      </trkpt>
      <trkpt lat="49.87026" lon="4.75615">
        <ele>368</ele>
        <time>2022-08-19T08:13:09.000Z</time>
      </trkpt>
      <trkpt lat="49.87026" lon="4.75615">
        <ele>368</ele>
        <time>2022-08-19T08:13:10.000Z</time>
      </trkpt>
      <trkpt lat="49.87026" lon="4.75614">
        <ele>368</ele>
        <time>2022-08-19T08:13:11.000Z</time>
      </trkpt>
      <trkpt lat="49.87026" lon="4.75614">
        <ele>368</ele>
        <time>2022-08-19T08:13:12.000Z</time>
      </trkpt>
      <trkpt lat="49.87026" lon="4.75613">
        <ele>368</ele>
        <time>2022-08-19T08:13:13.000Z</time>
      </trkpt>
      <trkpt lat="49.87026" lon="4.75613">
        <ele>368</ele>
        <time>2022-08-19T08:13:14.000Z</time>
      </trkpt>
      <trkpt lat="49.87026" lon="4.75612">
        <ele>368</ele>
        <time>2022-08-19T08:13:15.000Z</time>
      </trkpt>
      <trkpt lat="49.87026" lon="4.75612">
        <ele>368</ele>
        <time>2022-08-19T08:13:16.000Z</time>
      </trkpt>
      <trkpt lat="49.87026" lon="4.75611">
        <ele>368</ele>
        <time>2022-08-19T08:13:17.000Z</time>
      </trkpt>
      <trkpt lat="49.87026" lon="4.75611">
        <ele>368</ele>
        <time>2022-08-19T08:13:18.000Z</time>
      </trkpt>
      <trkpt lat="49.87026" lon="4.75611">
        <ele>367</ele>
        <time>2022-08-19T08:13:19.000Z</time>
      </trkpt>
      <trkpt lat="49.87026" lon="4.75611">
        <ele>367</ele>
        <time>2022-08-19T08:13:20.000Z</time>
      </trkpt>
      <trkpt lat="49.87026" lon="4.7561">
        <ele>367</ele>
        <time>2022-08-19T08:13:21.000Z</time>
      </trkpt>
      <trkpt lat="49.87026" lon="4.7561">
        <ele>367</ele>
        <time>2022-08-19T08:13:22.000Z</time>
      </trkpt>
      <trkpt lat="49.87026" lon="4.7561">
        <ele>367</ele>
        <time>2022-08-19T08:13:23.000Z</time>
      </trkpt>
      <trkpt lat="49.87026" lon="4.75609">
        <ele>367</ele>
        <time>2022-08-19T08:13:24.000Z</time>
      </trkpt>
      <trkpt lat="49.87026" lon="4.75609">
        <ele>367</ele>
        <time>2022-08-19T08:13:25.000Z</time>
      </trkpt>
      <trkpt lat="49.87026" lon="4.75609">
        <ele>367</ele>
        <time>2022-08-19T08:13:26.000Z</time>
      </trkpt>
      <trkpt lat="49.87026" lon="4.75608">
        <ele>367</ele>
        <time>2022-08-19T08:13:27.000Z</time>
      </trkpt>
      <trkpt lat="49.87026" lon="4.75608">
        <ele>367</ele>
        <time>2022-08-19T08:13:28.000Z</time>
      </trkpt>
      <trkpt lat="49.87026" lon="4.75608">
        <ele>367</ele>
        <time>2022-08-19T08:13:29.000Z</time>
      </trkpt>
      <trkpt lat="49.87026" lon="4.75607">
        <ele>367</ele>
        <time>2022-08-19T08:13:30.000Z</time>
      </trkpt>
      <trkpt lat="49.87026" lon="4.75607">
        <ele>367</ele>
        <time>2022-08-19T08:13:31.000Z</time>
      </trkpt>
      <trkpt lat="49.87026" lon="4.75607">
        <ele>367</ele>
        <time>2022-08-19T08:13:32.000Z</time>
      </trkpt>
      <trkpt lat="49.87026" lon="4.75607">
        <ele>367</ele>
        <time>2022-08-19T08:13:33.000Z</time>
      </trkpt>
      <trkpt lat="49.87026" lon="4.75607">
        <ele>367</ele>
        <time>2022-08-19T08:13:34.000Z</time>
      </trkpt>
      <trkpt lat="49.87026" lon="4.75606">
        <ele>367</ele>
        <time>2022-08-19T08:13:35.000Z</time>
      </trkpt>
      <trkpt lat="49.87026" lon="4.75606">
        <ele>367</ele>
        <time>2022-08-19T08:13:36.000Z</time>
      </trkpt>
      <trkpt lat="49.87026" lon="4.75606">
        <ele>367</ele>
        <time>2022-08-19T08:13:37.000Z</time>
      </trkpt>
      <trkpt lat="49.87026" lon="4.75606">
        <ele>367</ele>
        <time>2022-08-19T08:13:38.000Z</time>
      </trkpt>
      <trkpt lat="49.87026" lon="4.75606">
        <ele>367</ele>
        <time>2022-08-19T08:13:39.000Z</time>
      </trkpt>
      <trkpt lat="49.87026" lon="4.75606">
        <ele>367</ele>
        <time>2022-08-19T08:13:40.000Z</time>
      </trkpt>
      <trkpt lat="49.87026" lon="4.75605">
        <ele>367</ele>
        <time>2022-08-19T08:13:41.000Z</time>
      </trkpt>
      <trkpt lat="49.87026" lon="4.75605">
        <ele>367</ele>
        <time>2022-08-19T08:13:42.000Z</time>
      </trkpt>
      <trkpt lat="49.87026" lon="4.75605">
        <ele>367</ele>
        <time>2022-08-19T08:13:43.000Z</time>
      </trkpt>
      <trkpt lat="49.87026" lon="4.75605">
        <ele>367</ele>
        <time>2022-08-19T08:13:44.000Z</time>
      </trkpt>
      <trkpt lat="49.87026" lon="4.75604">
        <ele>367</ele>
        <time>2022-08-19T08:13:45.000Z</time>
      </trkpt>
      <trkpt lat="49.87026" lon="4.75604">
        <ele>367</ele>
        <time>2022-08-19T08:13:46.000Z</time>
      </trkpt>
      <trkpt lat="49.87025" lon="4.75604">
        <ele>367</ele>
        <time>2022-08-19T08:13:47.000Z</time>
      </trkpt>
      <trkpt lat="49.87025" lon="4.75604">
        <ele>367</ele>
        <time>2022-08-19T08:13:48.000Z</time>
      </trkpt>
      <trkpt lat="49.87025" lon="4.75603">
        <ele>367</ele>
        <time>2022-08-19T08:13:49.000Z</time>
      </trkpt>
      <trkpt lat="49.87025" lon="4.75603">
        <ele>367</ele>
        <time>2022-08-19T08:13:50.000Z</time>
      </trkpt>
      <trkpt lat="49.87025" lon="4.75603">
        <ele>367</ele>
        <time>2022-08-19T08:13:51.000Z</time>
      </trkpt>
      <trkpt lat="49.87025" lon="4.75603">
        <ele>367</ele>
        <time>2022-08-19T08:13:52.000Z</time>
      </trkpt>
      <trkpt lat="49.87025" lon="4.75603">
        <ele>367</ele>
        <time>2022-08-19T08:13:53.000Z</time>
      </trkpt>
      <trkpt lat="49.87024" lon="4.75603">
        <ele>367</ele>
        <time>2022-08-19T08:13:54.000Z</time>
      </trkpt>
      <trkpt lat="49.87024" lon="4.75603">
        <ele>366</ele>
        <time>2022-08-19T08:13:55.000Z</time>
      </trkpt>
      <trkpt lat="49.87023" lon="4.75603">
        <ele>366</ele>
        <time>2022-08-19T08:13:56.000Z</time>
      </trkpt>
      <trkpt lat="49.87022" lon="4.75603">
        <ele>366</ele>
        <time>2022-08-19T08:13:57.000Z</time>
      </trkpt>
      <trkpt lat="49.8702" lon="4.75604">
        <ele>366</ele>
        <time>2022-08-19T08:13:58.000Z</time>
      </trkpt>
      <trkpt lat="49.87018" lon="4.75605">
        <ele>366</ele>
        <time>2022-08-19T08:13:59.000Z</time>
      </trkpt>
      <trkpt lat="49.87016" lon="4.75606">
        <ele>366</ele>
        <time>2022-08-19T08:14:00.000Z</time>
      </trkpt>
      <trkpt lat="49.87014" lon="4.75606">
        <ele>365</ele>
        <time>2022-08-19T08:14:01.000Z</time>
      </trkpt>
      <trkpt lat="49.87012" lon="4.75607">
        <ele>365</ele>
        <time>2022-08-19T08:14:02.000Z</time>
      </trkpt>
      <trkpt lat="49.87009" lon="4.75608">
        <ele>365</ele>
        <time>2022-08-19T08:14:03.000Z</time>
      </trkpt>
      <trkpt lat="49.87007" lon="4.75609">
        <ele>365</ele>
        <time>2022-08-19T08:14:04.000Z</time>
      </trkpt>
      <trkpt lat="49.87005" lon="4.7561">
        <ele>364</ele>
        <time>2022-08-19T08:14:05.000Z</time>
      </trkpt>
      <trkpt lat="49.87003" lon="4.75611">
        <ele>364</ele>
        <time>2022-08-19T08:14:06.000Z</time>
      </trkpt>
      <trkpt lat="49.87" lon="4.75612">
        <ele>364</ele>
        <time>2022-08-19T08:14:07.000Z</time>
      </trkpt>
      <trkpt lat="49.86997" lon="4.75613">
        <ele>364</ele>
        <time>2022-08-19T08:14:08.000Z</time>
      </trkpt>
      <trkpt lat="49.86994" lon="4.75614">
        <ele>364</ele>
        <time>2022-08-19T08:14:09.000Z</time>
      </trkpt>
      <trkpt lat="49.86992" lon="4.75615">
        <ele>363</ele>
        <time>2022-08-19T08:14:10.000Z</time>
      </trkpt>
      <trkpt lat="49.86989" lon="4.75617">
        <ele>363</ele>
        <time>2022-08-19T08:14:11.000Z</time>
      </trkpt>
      <trkpt lat="49.86986" lon="4.75618">
        <ele>363</ele>
        <time>2022-08-19T08:14:12.000Z</time>
      </trkpt>
      <trkpt lat="49.86983" lon="4.75619">
        <ele>362</ele>
        <time>2022-08-19T08:14:13.000Z</time>
      </trkpt>
      <trkpt lat="49.8698" lon="4.7562">
        <ele>362</ele>
        <time>2022-08-19T08:14:14.000Z</time>
      </trkpt>
      <trkpt lat="49.86978" lon="4.75621">
        <ele>362</ele>
        <time>2022-08-19T08:14:15.000Z</time>
      </trkpt>
      <trkpt lat="49.86975" lon="4.75623">
        <ele>361</ele>
        <time>2022-08-19T08:14:16.000Z</time>
      </trkpt>
      <trkpt lat="49.86972" lon="4.75624">
        <ele>361</ele>
        <time>2022-08-19T08:14:17.000Z</time>
      </trkpt>
      <trkpt lat="49.86969" lon="4.75626">
        <ele>360</ele>
        <time>2022-08-19T08:14:18.000Z</time>
      </trkpt>
      <trkpt lat="49.86966" lon="4.75628">
        <ele>360</ele>
        <time>2022-08-19T08:14:19.000Z</time>
      </trkpt>
      <trkpt lat="49.86963" lon="4.75629">
        <ele>359</ele>
        <time>2022-08-19T08:14:20.000Z</time>
      </trkpt>
      <trkpt lat="49.8696" lon="4.7563">
        <ele>359</ele>
        <time>2022-08-19T08:14:21.000Z</time>
      </trkpt>
      <trkpt lat="49.86957" lon="4.75631">
        <ele>358</ele>
        <time>2022-08-19T08:14:22.000Z</time>
      </trkpt>
      <trkpt lat="49.86953" lon="4.75632">
        <ele>358</ele>
        <time>2022-08-19T08:14:23.000Z</time>
      </trkpt>
      <trkpt lat="49.8695" lon="4.75633">
        <ele>357</ele>
        <time>2022-08-19T08:14:24.000Z</time>
      </trkpt>
      <trkpt lat="49.86948" lon="4.75635">
        <ele>356</ele>
        <time>2022-08-19T08:14:25.000Z</time>
      </trkpt>
      <trkpt lat="49.86945" lon="4.75636">
        <ele>356</ele>
        <time>2022-08-19T08:14:26.000Z</time>
      </trkpt>
      <trkpt lat="49.86942" lon="4.75637">
        <ele>355</ele>
        <time>2022-08-19T08:14:27.000Z</time>
      </trkpt>
      <trkpt lat="49.86939" lon="4.75638">
        <ele>354</ele>
        <time>2022-08-19T08:14:28.000Z</time>
      </trkpt>
      <trkpt lat="49.86935" lon="4.75639">
        <ele>354</ele>
        <time>2022-08-19T08:14:29.000Z</time>
      </trkpt>
      <trkpt lat="49.86932" lon="4.7564">
        <ele>353</ele>
        <time>2022-08-19T08:14:30.000Z</time>
      </trkpt>
      <trkpt lat="49.86929" lon="4.75642">
        <ele>352</ele>
        <time>2022-08-19T08:14:31.000Z</time>
      </trkpt>
      <trkpt lat="49.86927" lon="4.75643">
        <ele>352</ele>
        <time>2022-08-19T08:14:32.000Z</time>
      </trkpt>
      <trkpt lat="49.86925" lon="4.75645">
        <ele>351</ele>
        <time>2022-08-19T08:14:33.000Z</time>
      </trkpt>
      <trkpt lat="49.86922" lon="4.75646">
        <ele>351</ele>
        <time>2022-08-19T08:14:34.000Z</time>
      </trkpt>
      <trkpt lat="49.86919" lon="4.75647">
        <ele>350</ele>
        <time>2022-08-19T08:14:35.000Z</time>
      </trkpt>
      <trkpt lat="49.86916" lon="4.75649">
        <ele>350</ele>
        <time>2022-08-19T08:14:36.000Z</time>
      </trkpt>
      <trkpt lat="49.86913" lon="4.7565">
        <ele>349</ele>
        <time>2022-08-19T08:14:37.000Z</time>
      </trkpt>
      <trkpt lat="49.8691" lon="4.75651">
        <ele>349</ele>
        <time>2022-08-19T08:14:38.000Z</time>
      </trkpt>
      <trkpt lat="49.86908" lon="4.75653">
        <ele>348</ele>
        <time>2022-08-19T08:14:39.000Z</time>
      </trkpt>
      <trkpt lat="49.86906" lon="4.75654">
        <ele>348</ele>
        <time>2022-08-19T08:14:40.000Z</time>
      </trkpt>
      <trkpt lat="49.86904" lon="4.75655">
        <ele>347</ele>
        <time>2022-08-19T08:14:41.000Z</time>
      </trkpt>
      <trkpt lat="49.86901" lon="4.75656">
        <ele>347</ele>
        <time>2022-08-19T08:14:42.000Z</time>
      </trkpt>
      <trkpt lat="49.86899" lon="4.75658">
        <ele>346</ele>
        <time>2022-08-19T08:14:43.000Z</time>
      </trkpt>
      <trkpt lat="49.86896" lon="4.7566">
        <ele>345</ele>
        <time>2022-08-19T08:14:44.000Z</time>
      </trkpt>
      <trkpt lat="49.86894" lon="4.75662">
        <ele>345</ele>
        <time>2022-08-19T08:14:45.000Z</time>
      </trkpt>
      <trkpt lat="49.86892" lon="4.75664">
        <ele>344</ele>
        <time>2022-08-19T08:14:46.000Z</time>
      </trkpt>
      <trkpt lat="49.8689" lon="4.75666">
        <ele>344</ele>
        <time>2022-08-19T08:14:47.000Z</time>
      </trkpt>
      <trkpt lat="49.86887" lon="4.75667">
        <ele>343</ele>
        <time>2022-08-19T08:14:48.000Z</time>
      </trkpt>
      <trkpt lat="49.86883" lon="4.75667">
        <ele>342</ele>
        <time>2022-08-19T08:14:49.000Z</time>
      </trkpt>
      <trkpt lat="49.8688" lon="4.75668">
        <ele>342</ele>
        <time>2022-08-19T08:14:50.000Z</time>
      </trkpt>
      <trkpt lat="49.86878" lon="4.75668">
        <ele>341</ele>
        <time>2022-08-19T08:14:51.000Z</time>
      </trkpt>
      <trkpt lat="49.86876" lon="4.75668">
        <ele>340</ele>
        <time>2022-08-19T08:14:52.000Z</time>
      </trkpt>
      <trkpt lat="49.86875" lon="4.75668">
        <ele>340</ele>
        <time>2022-08-19T08:14:53.000Z</time>
      </trkpt>
      <trkpt lat="49.86874" lon="4.75667">
        <ele>339</ele>
        <time>2022-08-19T08:14:54.000Z</time>
      </trkpt>
      <trkpt lat="49.86872" lon="4.75666">
        <ele>338</ele>
        <time>2022-08-19T08:14:55.000Z</time>
      </trkpt>
      <trkpt lat="49.86872" lon="4.75666">
        <ele>338</ele>
        <time>2022-08-19T08:14:56.000Z</time>
      </trkpt>
      <trkpt lat="49.86871" lon="4.75667">
        <ele>337</ele>
        <time>2022-08-19T08:14:57.000Z</time>
      </trkpt>
      <trkpt lat="49.86871" lon="4.75667">
        <ele>337</ele>
        <time>2022-08-19T08:14:58.000Z</time>
      </trkpt>
      <trkpt lat="49.8687" lon="4.75667">
        <ele>336</ele>
        <time>2022-08-19T08:14:59.000Z</time>
      </trkpt>
      <trkpt lat="49.8687" lon="4.75667">
        <ele>336</ele>
        <time>2022-08-19T08:15:00.000Z</time>
      </trkpt>
      <trkpt lat="49.8687" lon="4.75668">
        <ele>335</ele>
        <time>2022-08-19T08:15:01.000Z</time>
      </trkpt>
      <trkpt lat="49.8687" lon="4.75668">
        <ele>335</ele>
        <time>2022-08-19T08:15:02.000Z</time>
      </trkpt>
      <trkpt lat="49.8687" lon="4.75667">
        <ele>334</ele>
        <time>2022-08-19T08:15:03.000Z</time>
      </trkpt>
      <trkpt lat="49.86869" lon="4.75666">
        <ele>334</ele>
        <time>2022-08-19T08:15:04.000Z</time>
      </trkpt>
      <trkpt lat="49.86869" lon="4.75665">
        <ele>333</ele>
        <time>2022-08-19T08:15:05.000Z</time>
      </trkpt>
      <trkpt lat="49.86869" lon="4.75663">
        <ele>333</ele>
        <time>2022-08-19T08:15:06.000Z</time>
      </trkpt>
      <trkpt lat="49.86869" lon="4.75661">
        <ele>333</ele>
        <time>2022-08-19T08:15:07.000Z</time>
      </trkpt>
      <trkpt lat="49.86869" lon="4.75658">
        <ele>332</ele>
        <time>2022-08-19T08:15:08.000Z</time>
      </trkpt>
      <trkpt lat="49.8687" lon="4.75655">
        <ele>332</ele>
        <time>2022-08-19T08:15:09.000Z</time>
      </trkpt>
      <trkpt lat="49.8687" lon="4.75652">
        <ele>332</ele>
        <time>2022-08-19T08:15:10.000Z</time>
      </trkpt>
      <trkpt lat="49.8687" lon="4.75649">
        <ele>332</ele>
        <time>2022-08-19T08:15:11.000Z</time>
      </trkpt>
      <trkpt lat="49.8687" lon="4.75646">
        <ele>332</ele>
        <time>2022-08-19T08:15:12.000Z</time>
      </trkpt>
      <trkpt lat="49.8687" lon="4.75643">
        <ele>332</ele>
        <time>2022-08-19T08:15:13.000Z</time>
      </trkpt>
      <trkpt lat="49.8687" lon="4.75641">
        <ele>332</ele>
        <time>2022-08-19T08:15:14.000Z</time>
      </trkpt>
      <trkpt lat="49.8687" lon="4.75639">
        <ele>331</ele>
        <time>2022-08-19T08:15:15.000Z</time>
      </trkpt>
      <trkpt lat="49.8687" lon="4.75637">
        <ele>331</ele>
        <time>2022-08-19T08:15:16.000Z</time>
      </trkpt>
      <trkpt lat="49.8687" lon="4.75634">
        <ele>331</ele>
        <time>2022-08-19T08:15:17.000Z</time>
      </trkpt>
      <trkpt lat="49.86871" lon="4.75631">
        <ele>331</ele>
        <time>2022-08-19T08:15:18.000Z</time>
      </trkpt>
      <trkpt lat="49.86871" lon="4.75628">
        <ele>331</ele>
        <time>2022-08-19T08:15:19.000Z</time>
      </trkpt>
      <trkpt lat="49.86871" lon="4.75625">
        <ele>331</ele>
        <time>2022-08-19T08:15:20.000Z</time>
      </trkpt>
      <trkpt lat="49.86871" lon="4.75622">
        <ele>331</ele>
        <time>2022-08-19T08:15:21.000Z</time>
      </trkpt>
      <trkpt lat="49.86871" lon="4.7562">
        <ele>330</ele>
        <time>2022-08-19T08:15:22.000Z</time>
      </trkpt>
      <trkpt lat="49.86872" lon="4.75617">
        <ele>330</ele>
        <time>2022-08-19T08:15:23.000Z</time>
      </trkpt>
      <trkpt lat="49.86872" lon="4.75614">
        <ele>330</ele>
        <time>2022-08-19T08:15:24.000Z</time>
      </trkpt>
      <trkpt lat="49.86873" lon="4.75611">
        <ele>330</ele>
        <time>2022-08-19T08:15:25.000Z</time>
      </trkpt>
      <trkpt lat="49.86874" lon="4.75607">
        <ele>331</ele>
        <time>2022-08-19T08:15:26.000Z</time>
      </trkpt>
      <trkpt lat="49.86874" lon="4.75604">
        <ele>331</ele>
        <time>2022-08-19T08:15:27.000Z</time>
      </trkpt>
      <trkpt lat="49.86875" lon="4.756">
        <ele>331</ele>
        <time>2022-08-19T08:15:28.000Z</time>
      </trkpt>
      <trkpt lat="49.86875" lon="4.75596">
        <ele>331</ele>
        <time>2022-08-19T08:15:29.000Z</time>
      </trkpt>
      <trkpt lat="49.86875" lon="4.75593">
        <ele>331</ele>
        <time>2022-08-19T08:15:30.000Z</time>
      </trkpt>
      <trkpt lat="49.86876" lon="4.75589">
        <ele>331</ele>
        <time>2022-08-19T08:15:31.000Z</time>
      </trkpt>
      <trkpt lat="49.86876" lon="4.75586">
        <ele>330</ele>
        <time>2022-08-19T08:15:32.000Z</time>
      </trkpt>
      <trkpt lat="49.86876" lon="4.75582">
        <ele>330</ele>
        <time>2022-08-19T08:15:33.000Z</time>
      </trkpt>
      <trkpt lat="49.86877" lon="4.75579">
        <ele>330</ele>
        <time>2022-08-19T08:15:34.000Z</time>
      </trkpt>
      <trkpt lat="49.86878" lon="4.75577">
        <ele>330</ele>
        <time>2022-08-19T08:15:35.000Z</time>
      </trkpt>
      <trkpt lat="49.86878" lon="4.75573">
        <ele>331</ele>
        <time>2022-08-19T08:15:36.000Z</time>
      </trkpt>
      <trkpt lat="49.86878" lon="4.7557">
        <ele>331</ele>
        <time>2022-08-19T08:15:37.000Z</time>
      </trkpt>
      <trkpt lat="49.86879" lon="4.75567">
        <ele>331</ele>
        <time>2022-08-19T08:15:38.000Z</time>
      </trkpt>
      <trkpt lat="49.86879" lon="4.75565">
        <ele>331</ele>
        <time>2022-08-19T08:15:39.000Z</time>
      </trkpt>
      <trkpt lat="49.86879" lon="4.75565">
        <ele>331</ele>
        <time>2022-08-19T08:15:40.000Z</time>
      </trkpt>
      <trkpt lat="49.86879" lon="4.75565">
        <ele>331</ele>
        <time>2022-08-19T08:15:41.000Z</time>
      </trkpt>
      <trkpt lat="49.86879" lon="4.75565">
        <ele>331</ele>
        <time>2022-08-19T08:15:42.000Z</time>
      </trkpt>
      <trkpt lat="49.86879" lon="4.75564">
        <ele>331</ele>
        <time>2022-08-19T08:15:43.000Z</time>
      </trkpt>
      <trkpt lat="49.86878" lon="4.75563">
        <ele>332</ele>
        <time>2022-08-19T08:15:44.000Z</time>
      </trkpt>
      <trkpt lat="49.86878" lon="4.75563">
        <ele>332</ele>
        <time>2022-08-19T08:15:45.000Z</time>
      </trkpt>
      <trkpt lat="49.86878" lon="4.75562">
        <ele>332</ele>
        <time>2022-08-19T08:15:46.000Z</time>
      </trkpt>
      <trkpt lat="49.86878" lon="4.75562">
        <ele>332</ele>
        <time>2022-08-19T08:15:47.000Z</time>
      </trkpt>
      <trkpt lat="49.86878" lon="4.75562">
        <ele>332</ele>
        <time>2022-08-19T08:15:48.000Z</time>
      </trkpt>
      <trkpt lat="49.86878" lon="4.75562">
        <ele>332</ele>
        <time>2022-08-19T08:15:49.000Z</time>
      </trkpt>
      <trkpt lat="49.86878" lon="4.75561">
        <ele>332</ele>
        <time>2022-08-19T08:15:50.000Z</time>
      </trkpt>
      <trkpt lat="49.86878" lon="4.75561">
        <ele>333</ele>
        <time>2022-08-19T08:15:51.000Z</time>
      </trkpt>
      <trkpt lat="49.86878" lon="4.75561">
        <ele>333</ele>
        <time>2022-08-19T08:15:52.000Z</time>
      </trkpt>
      <trkpt lat="49.86878" lon="4.75561">
        <ele>333</ele>
        <time>2022-08-19T08:15:53.000Z</time>
      </trkpt>
      <trkpt lat="49.86877" lon="4.75561">
        <ele>333</ele>
        <time>2022-08-19T08:15:54.000Z</time>
      </trkpt>
      <trkpt lat="49.86877" lon="4.7556">
        <ele>333</ele>
        <time>2022-08-19T08:15:55.000Z</time>
      </trkpt>
      <trkpt lat="49.86877" lon="4.7556">
        <ele>333</ele>
        <time>2022-08-19T08:15:56.000Z</time>
      </trkpt>
      <trkpt lat="49.86877" lon="4.7556">
        <ele>333</ele>
        <time>2022-08-19T08:15:57.000Z</time>
      </trkpt>
      <trkpt lat="49.86877" lon="4.7556">
        <ele>333</ele>
        <time>2022-08-19T08:15:58.000Z</time>
      </trkpt>
      <trkpt lat="49.86877" lon="4.7556">
        <ele>333</ele>
        <time>2022-08-19T08:15:59.000Z</time>
      </trkpt>
      <trkpt lat="49.86877" lon="4.7556">
        <ele>333</ele>
        <time>2022-08-19T08:16:00.000Z</time>
      </trkpt>
      <trkpt lat="49.86877" lon="4.7556">
        <ele>333</ele>
        <time>2022-08-19T08:16:01.000Z</time>
      </trkpt>
      <trkpt lat="49.86877" lon="4.7556">
        <ele>333</ele>
        <time>2022-08-19T08:16:02.000Z</time>
      </trkpt>
      <trkpt lat="49.86877" lon="4.75559">
        <ele>333</ele>
        <time>2022-08-19T08:16:03.000Z</time>
      </trkpt>
      <trkpt lat="49.86877" lon="4.75559">
        <ele>333</ele>
        <time>2022-08-19T08:16:04.000Z</time>
      </trkpt>
      <trkpt lat="49.86877" lon="4.75559">
        <ele>333</ele>
        <time>2022-08-19T08:16:05.000Z</time>
      </trkpt>
      <trkpt lat="49.86877" lon="4.75559">
        <ele>334</ele>
        <time>2022-08-19T08:16:06.000Z</time>
      </trkpt>
      <trkpt lat="49.86877" lon="4.75559">
        <ele>334</ele>
        <time>2022-08-19T08:16:07.000Z</time>
      </trkpt>
      <trkpt lat="49.86877" lon="4.75559">
        <ele>334</ele>
        <time>2022-08-19T08:16:08.000Z</time>
      </trkpt>
      <trkpt lat="49.86877" lon="4.75559">
        <ele>334</ele>
        <time>2022-08-19T08:16:09.000Z</time>
      </trkpt>
      <trkpt lat="49.86877" lon="4.75559">
        <ele>334</ele>
        <time>2022-08-19T08:16:10.000Z</time>
      </trkpt>
      <trkpt lat="49.86877" lon="4.75559">
        <ele>334</ele>
        <time>2022-08-19T08:16:11.000Z</time>
      </trkpt>
      <trkpt lat="49.86877" lon="4.75559">
        <ele>334</ele>
        <time>2022-08-19T08:16:12.000Z</time>
      </trkpt>
      <trkpt lat="49.86877" lon="4.75559">
        <ele>334</ele>
        <time>2022-08-19T08:16:13.000Z</time>
      </trkpt>
      <trkpt lat="49.86877" lon="4.75559">
        <ele>334</ele>
        <time>2022-08-19T08:16:14.000Z</time>
      </trkpt>
      <trkpt lat="49.86877" lon="4.75559">
        <ele>334</ele>
        <time>2022-08-19T08:16:15.000Z</time>
      </trkpt>
      <trkpt lat="49.86877" lon="4.75559">
        <ele>334</ele>
        <time>2022-08-19T08:16:16.000Z</time>
      </trkpt>
      <trkpt lat="49.86877" lon="4.75559">
        <ele>334</ele>
        <time>2022-08-19T08:16:17.000Z</time>
      </trkpt>
      <trkpt lat="49.86877" lon="4.75559">
        <ele>334</ele>
        <time>2022-08-19T08:16:18.000Z</time>
      </trkpt>
      <trkpt lat="49.86877" lon="4.75559">
        <ele>334</ele>
        <time>2022-08-19T08:16:19.000Z</time>
      </trkpt>
      <trkpt lat="49.86877" lon="4.75559">
        <ele>334</ele>
        <time>2022-08-19T08:16:20.000Z</time>
      </trkpt>
      <trkpt lat="49.86877" lon="4.75559">
        <ele>334</ele>
        <time>2022-08-19T08:16:21.000Z</time>
      </trkpt>
      <trkpt lat="49.86877" lon="4.75559">
        <ele>334</ele>
        <time>2022-08-19T08:16:22.000Z</time>
      </trkpt>
      <trkpt lat="49.86877" lon="4.75558">
        <ele>334</ele>
        <time>2022-08-19T08:16:23.000Z</time>
      </trkpt>
      <trkpt lat="49.86877" lon="4.75559">
        <ele>334</ele>
        <time>2022-08-19T08:16:24.000Z</time>
      </trkpt>
      <trkpt lat="49.86877" lon="4.75559">
        <ele>334</ele>
        <time>2022-08-19T08:16:25.000Z</time>
      </trkpt>
      <trkpt lat="49.86877" lon="4.75559">
        <ele>334</ele>
        <time>2022-08-19T08:16:26.000Z</time>
      </trkpt>
      <trkpt lat="49.86877" lon="4.75559">
        <ele>334</ele>
        <time>2022-08-19T08:16:27.000Z</time>
      </trkpt>
      <trkpt lat="49.86877" lon="4.75558">
        <ele>334</ele>
        <time>2022-08-19T08:16:28.000Z</time>
      </trkpt>
      <trkpt lat="49.86877" lon="4.75558">
        <ele>334</ele>
        <time>2022-08-19T08:16:29.000Z</time>
      </trkpt>
      <trkpt lat="49.86877" lon="4.75558">
        <ele>334</ele>
        <time>2022-08-19T08:16:30.000Z</time>
      </trkpt>
      <trkpt lat="49.86876" lon="4.75558">
        <ele>334</ele>
        <time>2022-08-19T08:16:31.000Z</time>
      </trkpt>
      <trkpt lat="49.86876" lon="4.75558">
        <ele>334</ele>
        <time>2022-08-19T08:16:32.000Z</time>
      </trkpt>
      <trkpt lat="49.86876" lon="4.75558">
        <ele>334</ele>
        <time>2022-08-19T08:16:33.000Z</time>
      </trkpt>
      <trkpt lat="49.86876" lon="4.75558">
        <ele>334</ele>
        <time>2022-08-19T08:16:34.000Z</time>
      </trkpt>
      <trkpt lat="49.86876" lon="4.75558">
        <ele>334</ele>
        <time>2022-08-19T08:16:35.000Z</time>
      </trkpt>
      <trkpt lat="49.86876" lon="4.75558">
        <ele>334</ele>
        <time>2022-08-19T08:16:36.000Z</time>
      </trkpt>
      <trkpt lat="49.86876" lon="4.75558">
        <ele>334</ele>
        <time>2022-08-19T08:16:37.000Z</time>
      </trkpt>
      <trkpt lat="49.86875" lon="4.75559">
        <ele>335</ele>
        <time>2022-08-19T08:16:38.000Z</time>
      </trkpt>
      <trkpt lat="49.86875" lon="4.75559">
        <ele>335</ele>
        <time>2022-08-19T08:16:39.000Z</time>
      </trkpt>
      <trkpt lat="49.86875" lon="4.75558">
        <ele>335</ele>
        <time>2022-08-19T08:16:40.000Z</time>
      </trkpt>
      <trkpt lat="49.86875" lon="4.75558">
        <ele>335</ele>
        <time>2022-08-19T08:16:41.000Z</time>
      </trkpt>
      <trkpt lat="49.86874" lon="4.75556">
        <ele>335</ele>
        <time>2022-08-19T08:16:42.000Z</time>
      </trkpt>
      <trkpt lat="49.86874" lon="4.75554">
        <ele>335</ele>
        <time>2022-08-19T08:16:43.000Z</time>
      </trkpt>
      <trkpt lat="49.86875" lon="4.75551">
        <ele>336</ele>
        <time>2022-08-19T08:16:44.000Z</time>
      </trkpt>
      <trkpt lat="49.86875" lon="4.75549">
        <ele>336</ele>
        <time>2022-08-19T08:16:45.000Z</time>
      </trkpt>
      <trkpt lat="49.86875" lon="4.75546">
        <ele>336</ele>
        <time>2022-08-19T08:16:46.000Z</time>
      </trkpt>
      <trkpt lat="49.86876" lon="4.75543">
        <ele>336</ele>
        <time>2022-08-19T08:16:47.000Z</time>
      </trkpt>
      <trkpt lat="49.86876" lon="4.7554">
        <ele>336</ele>
        <time>2022-08-19T08:16:48.000Z</time>
      </trkpt>
      <trkpt lat="49.86875" lon="4.75537">
        <ele>336</ele>
        <time>2022-08-19T08:16:49.000Z</time>
      </trkpt>
      <trkpt lat="49.86876" lon="4.75534">
        <ele>336</ele>
        <time>2022-08-19T08:16:50.000Z</time>
      </trkpt>
      <trkpt lat="49.86876" lon="4.75531">
        <ele>336</ele>
        <time>2022-08-19T08:16:51.000Z</time>
      </trkpt>
      <trkpt lat="49.86877" lon="4.75528">
        <ele>337</ele>
        <time>2022-08-19T08:16:52.000Z</time>
      </trkpt>
      <trkpt lat="49.86877" lon="4.75524">
        <ele>337</ele>
        <time>2022-08-19T08:16:53.000Z</time>
      </trkpt>
      <trkpt lat="49.86877" lon="4.7552">
        <ele>337</ele>
        <time>2022-08-19T08:16:54.000Z</time>
      </trkpt>
      <trkpt lat="49.86877" lon="4.75517">
        <ele>337</ele>
        <time>2022-08-19T08:16:55.000Z</time>
      </trkpt>
      <trkpt lat="49.86878" lon="4.75514">
        <ele>337</ele>
        <time>2022-08-19T08:16:56.000Z</time>
      </trkpt>
      <trkpt lat="49.86879" lon="4.75512">
        <ele>337</ele>
        <time>2022-08-19T08:16:57.000Z</time>
      </trkpt>
      <trkpt lat="49.86879" lon="4.75508">
        <ele>337</ele>
        <time>2022-08-19T08:16:58.000Z</time>
      </trkpt>
      <trkpt lat="49.8688" lon="4.75504">
        <ele>337</ele>
        <time>2022-08-19T08:16:59.000Z</time>
      </trkpt>
      <trkpt lat="49.86881" lon="4.755">
        <ele>337</ele>
        <time>2022-08-19T08:17:00.000Z</time>
      </trkpt>
      <trkpt lat="49.86881" lon="4.75496">
        <ele>337</ele>
        <time>2022-08-19T08:17:01.000Z</time>
      </trkpt>
      <trkpt lat="49.86881" lon="4.75493">
        <ele>337</ele>
        <time>2022-08-19T08:17:02.000Z</time>
      </trkpt>
      <trkpt lat="49.86881" lon="4.75489">
        <ele>337</ele>
        <time>2022-08-19T08:17:03.000Z</time>
      </trkpt>
      <trkpt lat="49.86881" lon="4.75485">
        <ele>337</ele>
        <time>2022-08-19T08:17:04.000Z</time>
      </trkpt>
      <trkpt lat="49.86881" lon="4.75481">
        <ele>337</ele>
        <time>2022-08-19T08:17:05.000Z</time>
      </trkpt>
      <trkpt lat="49.86882" lon="4.75478">
        <ele>338</ele>
        <time>2022-08-19T08:17:06.000Z</time>
      </trkpt>
      <trkpt lat="49.86882" lon="4.75474">
        <ele>338</ele>
        <time>2022-08-19T08:17:07.000Z</time>
      </trkpt>
      <trkpt lat="49.86883" lon="4.75471">
        <ele>338</ele>
        <time>2022-08-19T08:17:08.000Z</time>
      </trkpt>
      <trkpt lat="49.86883" lon="4.75467">
        <ele>338</ele>
        <time>2022-08-19T08:17:09.000Z</time>
      </trkpt>
      <trkpt lat="49.86884" lon="4.75463">
        <ele>338</ele>
        <time>2022-08-19T08:17:10.000Z</time>
      </trkpt>
      <trkpt lat="49.86884" lon="4.75459">
        <ele>338</ele>
        <time>2022-08-19T08:17:11.000Z</time>
      </trkpt>
      <trkpt lat="49.86885" lon="4.75455">
        <ele>338</ele>
        <time>2022-08-19T08:17:12.000Z</time>
      </trkpt>
      <trkpt lat="49.86886" lon="4.75452">
        <ele>338</ele>
        <time>2022-08-19T08:17:13.000Z</time>
      </trkpt>
      <trkpt lat="49.86887" lon="4.75448">
        <ele>339</ele>
        <time>2022-08-19T08:17:14.000Z</time>
      </trkpt>
      <trkpt lat="49.86889" lon="4.75444">
        <ele>339</ele>
        <time>2022-08-19T08:17:15.000Z</time>
      </trkpt>
      <trkpt lat="49.8689" lon="4.7544">
        <ele>339</ele>
        <time>2022-08-19T08:17:16.000Z</time>
      </trkpt>
      <trkpt lat="49.86891" lon="4.75436">
        <ele>339</ele>
        <time>2022-08-19T08:17:17.000Z</time>
      </trkpt>
      <trkpt lat="49.86892" lon="4.75431">
        <ele>339</ele>
        <time>2022-08-19T08:17:18.000Z</time>
      </trkpt>
      <trkpt lat="49.86892" lon="4.75427">
        <ele>339</ele>
        <time>2022-08-19T08:17:19.000Z</time>
      </trkpt>
      <trkpt lat="49.86893" lon="4.75424">
        <ele>339</ele>
        <time>2022-08-19T08:17:20.000Z</time>
      </trkpt>
      <trkpt lat="49.86893" lon="4.75421">
        <ele>339</ele>
        <time>2022-08-19T08:17:21.000Z</time>
      </trkpt>
      <trkpt lat="49.86893" lon="4.75417">
        <ele>339</ele>
        <time>2022-08-19T08:17:22.000Z</time>
      </trkpt>
      <trkpt lat="49.86893" lon="4.75413">
        <ele>339</ele>
        <time>2022-08-19T08:17:23.000Z</time>
      </trkpt>
      <trkpt lat="49.86892" lon="4.75409">
        <ele>339</ele>
        <time>2022-08-19T08:17:24.000Z</time>
      </trkpt>
      <trkpt lat="49.86892" lon="4.75405">
        <ele>339</ele>
        <time>2022-08-19T08:17:25.000Z</time>
      </trkpt>
      <trkpt lat="49.86892" lon="4.75402">
        <ele>339</ele>
        <time>2022-08-19T08:17:26.000Z</time>
      </trkpt>
      <trkpt lat="49.86892" lon="4.75399">
        <ele>339</ele>
        <time>2022-08-19T08:17:27.000Z</time>
      </trkpt>
      <trkpt lat="49.86892" lon="4.75396">
        <ele>340</ele>
        <time>2022-08-19T08:17:28.000Z</time>
      </trkpt>
      <trkpt lat="49.86891" lon="4.75393">
        <ele>340</ele>
        <time>2022-08-19T08:17:29.000Z</time>
      </trkpt>
      <trkpt lat="49.86891" lon="4.7539">
        <ele>340</ele>
        <time>2022-08-19T08:17:30.000Z</time>
      </trkpt>
      <trkpt lat="49.8689" lon="4.75387">
        <ele>340</ele>
        <time>2022-08-19T08:17:31.000Z</time>
      </trkpt>
      <trkpt lat="49.8689" lon="4.75383">
        <ele>340</ele>
        <time>2022-08-19T08:17:32.000Z</time>
      </trkpt>
      <trkpt lat="49.86889" lon="4.7538">
        <ele>340</ele>
        <time>2022-08-19T08:17:33.000Z</time>
      </trkpt>
      <trkpt lat="49.86889" lon="4.75376">
        <ele>340</ele>
        <time>2022-08-19T08:17:34.000Z</time>
      </trkpt>
      <trkpt lat="49.86889" lon="4.75373">
        <ele>340</ele>
        <time>2022-08-19T08:17:35.000Z</time>
      </trkpt>
      <trkpt lat="49.86889" lon="4.75369">
        <ele>340</ele>
        <time>2022-08-19T08:17:36.000Z</time>
      </trkpt>
      <trkpt lat="49.86888" lon="4.75366">
        <ele>340</ele>
        <time>2022-08-19T08:17:37.000Z</time>
      </trkpt>
      <trkpt lat="49.86888" lon="4.75363">
        <ele>340</ele>
        <time>2022-08-19T08:17:38.000Z</time>
      </trkpt>
      <trkpt lat="49.86888" lon="4.7536">
        <ele>340</ele>
        <time>2022-08-19T08:17:39.000Z</time>
      </trkpt>
      <trkpt lat="49.86887" lon="4.75356">
        <ele>340</ele>
        <time>2022-08-19T08:17:40.000Z</time>
      </trkpt>
      <trkpt lat="49.86887" lon="4.75353">
        <ele>340</ele>
        <time>2022-08-19T08:17:41.000Z</time>
      </trkpt>
      <trkpt lat="49.86886" lon="4.7535">
        <ele>340</ele>
        <time>2022-08-19T08:17:42.000Z</time>
      </trkpt>
      <trkpt lat="49.86886" lon="4.75347">
        <ele>340</ele>
        <time>2022-08-19T08:17:43.000Z</time>
      </trkpt>
      <trkpt lat="49.86885" lon="4.75343">
        <ele>340</ele>
        <time>2022-08-19T08:17:44.000Z</time>
      </trkpt>
      <trkpt lat="49.86884" lon="4.7534">
        <ele>340</ele>
        <time>2022-08-19T08:17:45.000Z</time>
      </trkpt>
      <trkpt lat="49.86884" lon="4.75336">
        <ele>340</ele>
        <time>2022-08-19T08:17:46.000Z</time>
      </trkpt>
      <trkpt lat="49.86883" lon="4.75332">
        <ele>341</ele>
        <time>2022-08-19T08:17:47.000Z</time>
      </trkpt>
      <trkpt lat="49.86883" lon="4.75329">
        <ele>341</ele>
        <time>2022-08-19T08:17:48.000Z</time>
      </trkpt>
      <trkpt lat="49.86883" lon="4.75325">
        <ele>341</ele>
        <time>2022-08-19T08:17:49.000Z</time>
      </trkpt>
      <trkpt lat="49.86882" lon="4.75322">
        <ele>341</ele>
        <time>2022-08-19T08:17:50.000Z</time>
      </trkpt>
      <trkpt lat="49.86881" lon="4.75317">
        <ele>341</ele>
        <time>2022-08-19T08:17:51.000Z</time>
      </trkpt>
      <trkpt lat="49.86881" lon="4.75314">
        <ele>341</ele>
        <time>2022-08-19T08:17:52.000Z</time>
      </trkpt>
      <trkpt lat="49.86881" lon="4.7531">
        <ele>342</ele>
        <time>2022-08-19T08:17:53.000Z</time>
      </trkpt>
      <trkpt lat="49.8688" lon="4.75306">
        <ele>342</ele>
        <time>2022-08-19T08:17:54.000Z</time>
      </trkpt>
      <trkpt lat="49.8688" lon="4.75302">
        <ele>342</ele>
        <time>2022-08-19T08:17:55.000Z</time>
      </trkpt>
      <trkpt lat="49.8688" lon="4.75298">
        <ele>342</ele>
        <time>2022-08-19T08:17:56.000Z</time>
      </trkpt>
      <trkpt lat="49.8688" lon="4.75295">
        <ele>342</ele>
        <time>2022-08-19T08:17:57.000Z</time>
      </trkpt>
      <trkpt lat="49.86881" lon="4.75292">
        <ele>343</ele>
        <time>2022-08-19T08:17:58.000Z</time>
      </trkpt>
      <trkpt lat="49.86881" lon="4.75288">
        <ele>343</ele>
        <time>2022-08-19T08:17:59.000Z</time>
      </trkpt>
      <trkpt lat="49.8688" lon="4.75285">
        <ele>343</ele>
        <time>2022-08-19T08:18:00.000Z</time>
      </trkpt>
      <trkpt lat="49.86879" lon="4.75281">
        <ele>343</ele>
        <time>2022-08-19T08:18:01.000Z</time>
      </trkpt>
      <trkpt lat="49.86879" lon="4.75277">
        <ele>343</ele>
        <time>2022-08-19T08:18:02.000Z</time>
      </trkpt>
      <trkpt lat="49.86879" lon="4.75274">
        <ele>343</ele>
        <time>2022-08-19T08:18:03.000Z</time>
      </trkpt>
      <trkpt lat="49.86878" lon="4.7527">
        <ele>344</ele>
        <time>2022-08-19T08:18:04.000Z</time>
      </trkpt>
      <trkpt lat="49.86878" lon="4.75267">
        <ele>344</ele>
        <time>2022-08-19T08:18:05.000Z</time>
      </trkpt>
      <trkpt lat="49.86878" lon="4.75263">
        <ele>344</ele>
        <time>2022-08-19T08:18:06.000Z</time>
      </trkpt>
      <trkpt lat="49.86879" lon="4.7526">
        <ele>344</ele>
        <time>2022-08-19T08:18:07.000Z</time>
      </trkpt>
      <trkpt lat="49.86879" lon="4.75257">
        <ele>344</ele>
        <time>2022-08-19T08:18:08.000Z</time>
      </trkpt>
      <trkpt lat="49.8688" lon="4.75253">
        <ele>344</ele>
        <time>2022-08-19T08:18:09.000Z</time>
      </trkpt>
      <trkpt lat="49.86881" lon="4.7525">
        <ele>344</ele>
        <time>2022-08-19T08:18:10.000Z</time>
      </trkpt>
      <trkpt lat="49.86882" lon="4.75247">
        <ele>344</ele>
        <time>2022-08-19T08:18:11.000Z</time>
      </trkpt>
      <trkpt lat="49.86884" lon="4.75245">
        <ele>344</ele>
        <time>2022-08-19T08:18:12.000Z</time>
      </trkpt>
      <trkpt lat="49.86885" lon="4.75244">
        <ele>344</ele>
        <time>2022-08-19T08:18:13.000Z</time>
      </trkpt>
      <trkpt lat="49.86887" lon="4.75244">
        <ele>345</ele>
        <time>2022-08-19T08:18:14.000Z</time>
      </trkpt>
      <trkpt lat="49.86889" lon="4.75244">
        <ele>345</ele>
        <time>2022-08-19T08:18:15.000Z</time>
      </trkpt>
      <trkpt lat="49.86891" lon="4.75245">
        <ele>345</ele>
        <time>2022-08-19T08:18:16.000Z</time>
      </trkpt>
      <trkpt lat="49.86892" lon="4.75247">
        <ele>345</ele>
        <time>2022-08-19T08:18:17.000Z</time>
      </trkpt>
      <trkpt lat="49.86893" lon="4.75249">
        <ele>345</ele>
        <time>2022-08-19T08:18:18.000Z</time>
      </trkpt>
      <trkpt lat="49.86894" lon="4.75252">
        <ele>345</ele>
        <time>2022-08-19T08:18:19.000Z</time>
      </trkpt>
      <trkpt lat="49.86896" lon="4.75254">
        <ele>346</ele>
        <time>2022-08-19T08:18:20.000Z</time>
      </trkpt>
      <trkpt lat="49.86897" lon="4.75256">
        <ele>346</ele>
        <time>2022-08-19T08:18:21.000Z</time>
      </trkpt>
      <trkpt lat="49.86897" lon="4.75258">
        <ele>346</ele>
        <time>2022-08-19T08:18:22.000Z</time>
      </trkpt>
      <trkpt lat="49.86898" lon="4.75261">
        <ele>346</ele>
        <time>2022-08-19T08:18:23.000Z</time>
      </trkpt>
      <trkpt lat="49.86899" lon="4.75264">
        <ele>346</ele>
        <time>2022-08-19T08:18:24.000Z</time>
      </trkpt>
      <trkpt lat="49.869" lon="4.75267">
        <ele>347</ele>
        <time>2022-08-19T08:18:25.000Z</time>
      </trkpt>
      <trkpt lat="49.86901" lon="4.7527">
        <ele>347</ele>
        <time>2022-08-19T08:18:26.000Z</time>
      </trkpt>
      <trkpt lat="49.86902" lon="4.75273">
        <ele>347</ele>
        <time>2022-08-19T08:18:27.000Z</time>
      </trkpt>
      <trkpt lat="49.86904" lon="4.75275">
        <ele>347</ele>
        <time>2022-08-19T08:18:28.000Z</time>
      </trkpt>
      <trkpt lat="49.86905" lon="4.75277">
        <ele>347</ele>
        <time>2022-08-19T08:18:29.000Z</time>
      </trkpt>
      <trkpt lat="49.86906" lon="4.7528">
        <ele>348</ele>
        <time>2022-08-19T08:18:30.000Z</time>
      </trkpt>
      <trkpt lat="49.86908" lon="4.75283">
        <ele>348</ele>
        <time>2022-08-19T08:18:31.000Z</time>
      </trkpt>
      <trkpt lat="49.86909" lon="4.75286">
        <ele>348</ele>
        <time>2022-08-19T08:18:32.000Z</time>
      </trkpt>
      <trkpt lat="49.8691" lon="4.75288">
        <ele>348</ele>
        <time>2022-08-19T08:18:33.000Z</time>
      </trkpt>
      <trkpt lat="49.86911" lon="4.75291">
        <ele>348</ele>
        <time>2022-08-19T08:18:34.000Z</time>
      </trkpt>
      <trkpt lat="49.86913" lon="4.75293">
        <ele>348</ele>
        <time>2022-08-19T08:18:35.000Z</time>
      </trkpt>
      <trkpt lat="49.86914" lon="4.75296">
        <ele>349</ele>
        <time>2022-08-19T08:18:36.000Z</time>
      </trkpt>
      <trkpt lat="49.86915" lon="4.75299">
        <ele>349</ele>
        <time>2022-08-19T08:18:37.000Z</time>
      </trkpt>
      <trkpt lat="49.86915" lon="4.75302">
        <ele>349</ele>
        <time>2022-08-19T08:18:38.000Z</time>
      </trkpt>
      <trkpt lat="49.86916" lon="4.75304">
        <ele>349</ele>
        <time>2022-08-19T08:18:39.000Z</time>
      </trkpt>
      <trkpt lat="49.86917" lon="4.75306">
        <ele>349</ele>
        <time>2022-08-19T08:18:40.000Z</time>
      </trkpt>
      <trkpt lat="49.86918" lon="4.75308">
        <ele>350</ele>
        <time>2022-08-19T08:18:41.000Z</time>
      </trkpt>
      <trkpt lat="49.8692" lon="4.7531">
        <ele>350</ele>
        <time>2022-08-19T08:18:42.000Z</time>
      </trkpt>
      <trkpt lat="49.86921" lon="4.75312">
        <ele>350</ele>
        <time>2022-08-19T08:18:43.000Z</time>
      </trkpt>
      <trkpt lat="49.86923" lon="4.75314">
        <ele>350</ele>
        <time>2022-08-19T08:18:44.000Z</time>
      </trkpt>
      <trkpt lat="49.86925" lon="4.75316">
        <ele>350</ele>
        <time>2022-08-19T08:18:45.000Z</time>
      </trkpt>
      <trkpt lat="49.86926" lon="4.75318">
        <ele>350</ele>
        <time>2022-08-19T08:18:46.000Z</time>
      </trkpt>
      <trkpt lat="49.86928" lon="4.75319">
        <ele>350</ele>
        <time>2022-08-19T08:18:47.000Z</time>
      </trkpt>
      <trkpt lat="49.8693" lon="4.75322">
        <ele>351</ele>
        <time>2022-08-19T08:18:48.000Z</time>
      </trkpt>
      <trkpt lat="49.86932" lon="4.75323">
        <ele>351</ele>
        <time>2022-08-19T08:18:49.000Z</time>
      </trkpt>
      <trkpt lat="49.86934" lon="4.75325">
        <ele>351</ele>
        <time>2022-08-19T08:18:50.000Z</time>
      </trkpt>
      <trkpt lat="49.86936" lon="4.75327">
        <ele>351</ele>
        <time>2022-08-19T08:18:51.000Z</time>
      </trkpt>
      <trkpt lat="49.86937" lon="4.75329">
        <ele>351</ele>
        <time>2022-08-19T08:18:52.000Z</time>
      </trkpt>
      <trkpt lat="49.86937" lon="4.75329">
        <ele>352</ele>
        <time>2022-08-19T08:18:53.000Z</time>
      </trkpt>
      <trkpt lat="49.86938" lon="4.75329">
        <ele>352</ele>
        <time>2022-08-19T08:18:54.000Z</time>
      </trkpt>
      <trkpt lat="49.86938" lon="4.75329">
        <ele>352</ele>
        <time>2022-08-19T08:18:55.000Z</time>
      </trkpt>
      <trkpt lat="49.86938" lon="4.75329">
        <ele>352</ele>
        <time>2022-08-19T08:18:56.000Z</time>
      </trkpt>
      <trkpt lat="49.86939" lon="4.75329">
        <ele>352</ele>
        <time>2022-08-19T08:18:57.000Z</time>
      </trkpt>
      <trkpt lat="49.86939" lon="4.7533">
        <ele>353</ele>
        <time>2022-08-19T08:18:58.000Z</time>
      </trkpt>
      <trkpt lat="49.86941" lon="4.75331">
        <ele>353</ele>
        <time>2022-08-19T08:18:59.000Z</time>
      </trkpt>
      <trkpt lat="49.86942" lon="4.75332">
        <ele>353</ele>
        <time>2022-08-19T08:19:00.000Z</time>
      </trkpt>
      <trkpt lat="49.86944" lon="4.75334">
        <ele>353</ele>
        <time>2022-08-19T08:19:01.000Z</time>
      </trkpt>
      <trkpt lat="49.86946" lon="4.75335">
        <ele>353</ele>
        <time>2022-08-19T08:19:02.000Z</time>
      </trkpt>
      <trkpt lat="49.86948" lon="4.75337">
        <ele>353</ele>
        <time>2022-08-19T08:19:03.000Z</time>
      </trkpt>
      <trkpt lat="49.8695" lon="4.75339">
        <ele>353</ele>
        <time>2022-08-19T08:19:04.000Z</time>
      </trkpt>
      <trkpt lat="49.86952" lon="4.75341">
        <ele>354</ele>
        <time>2022-08-19T08:19:05.000Z</time>
      </trkpt>
      <trkpt lat="49.86955" lon="4.75342">
        <ele>354</ele>
        <time>2022-08-19T08:19:06.000Z</time>
      </trkpt>
      <trkpt lat="49.86957" lon="4.75344">
        <ele>354</ele>
        <time>2022-08-19T08:19:07.000Z</time>
      </trkpt>
      <trkpt lat="49.86959" lon="4.75346">
        <ele>354</ele>
        <time>2022-08-19T08:19:08.000Z</time>
      </trkpt>
      <trkpt lat="49.8696" lon="4.75347">
        <ele>354</ele>
        <time>2022-08-19T08:19:09.000Z</time>
      </trkpt>
      <trkpt lat="49.86963" lon="4.75348">
        <ele>354</ele>
        <time>2022-08-19T08:19:10.000Z</time>
      </trkpt>
      <trkpt lat="49.86965" lon="4.7535">
        <ele>354</ele>
        <time>2022-08-19T08:19:11.000Z</time>
      </trkpt>
      <trkpt lat="49.86968" lon="4.75353">
        <ele>354</ele>
        <time>2022-08-19T08:19:12.000Z</time>
      </trkpt>
      <trkpt lat="49.86971" lon="4.75356">
        <ele>354</ele>
        <time>2022-08-19T08:19:13.000Z</time>
      </trkpt>
      <trkpt lat="49.86974" lon="4.75359">
        <ele>354</ele>
        <time>2022-08-19T08:19:14.000Z</time>
      </trkpt>
      <trkpt lat="49.86976" lon="4.75362">
        <ele>354</ele>
        <time>2022-08-19T08:19:15.000Z</time>
      </trkpt>
      <trkpt lat="49.86978" lon="4.75365">
        <ele>354</ele>
        <time>2022-08-19T08:19:16.000Z</time>
      </trkpt>
      <trkpt lat="49.8698" lon="4.75369">
        <ele>354</ele>
        <time>2022-08-19T08:19:17.000Z</time>
      </trkpt>
      <trkpt lat="49.86982" lon="4.75372">
        <ele>354</ele>
        <time>2022-08-19T08:19:18.000Z</time>
      </trkpt>
      <trkpt lat="49.86985" lon="4.75376">
        <ele>354</ele>
        <time>2022-08-19T08:19:19.000Z</time>
      </trkpt>
      <trkpt lat="49.86987" lon="4.7538">
        <ele>354</ele>
        <time>2022-08-19T08:19:20.000Z</time>
      </trkpt>
      <trkpt lat="49.8699" lon="4.75383">
        <ele>355</ele>
        <time>2022-08-19T08:19:21.000Z</time>
      </trkpt>
      <trkpt lat="49.86992" lon="4.75386">
        <ele>355</ele>
        <time>2022-08-19T08:19:22.000Z</time>
      </trkpt>
      <trkpt lat="49.86995" lon="4.75389">
        <ele>355</ele>
        <time>2022-08-19T08:19:23.000Z</time>
      </trkpt>
      <trkpt lat="49.86998" lon="4.75392">
        <ele>355</ele>
        <time>2022-08-19T08:19:24.000Z</time>
      </trkpt>
      <trkpt lat="49.87001" lon="4.75395">
        <ele>355</ele>
        <time>2022-08-19T08:19:25.000Z</time>
      </trkpt>
      <trkpt lat="49.87004" lon="4.75398">
        <ele>355</ele>
        <time>2022-08-19T08:19:26.000Z</time>
      </trkpt>
      <trkpt lat="49.87007" lon="4.75402">
        <ele>355</ele>
        <time>2022-08-19T08:19:27.000Z</time>
      </trkpt>
      <trkpt lat="49.87011" lon="4.75407">
        <ele>355</ele>
        <time>2022-08-19T08:19:28.000Z</time>
      </trkpt>
      <trkpt lat="49.87014" lon="4.75411">
        <ele>355</ele>
        <time>2022-08-19T08:19:29.000Z</time>
      </trkpt>
      <trkpt lat="49.87017" lon="4.75415">
        <ele>355</ele>
        <time>2022-08-19T08:19:30.000Z</time>
      </trkpt>
      <trkpt lat="49.8702" lon="4.75419">
        <ele>355</ele>
        <time>2022-08-19T08:19:31.000Z</time>
      </trkpt>
      <trkpt lat="49.87023" lon="4.75424">
        <ele>356</ele>
        <time>2022-08-19T08:19:32.000Z</time>
      </trkpt>
      <trkpt lat="49.87026" lon="4.75428">
        <ele>356</ele>
        <time>2022-08-19T08:19:33.000Z</time>
      </trkpt>
      <trkpt lat="49.87029" lon="4.75433">
        <ele>356</ele>
        <time>2022-08-19T08:19:34.000Z</time>
      </trkpt>
      <trkpt lat="49.87032" lon="4.75437">
        <ele>356</ele>
        <time>2022-08-19T08:19:35.000Z</time>
      </trkpt>
      <trkpt lat="49.87034" lon="4.75442">
        <ele>356</ele>
        <time>2022-08-19T08:19:36.000Z</time>
      </trkpt>
      <trkpt lat="49.87037" lon="4.75446">
        <ele>357</ele>
        <time>2022-08-19T08:19:37.000Z</time>
      </trkpt>
      <trkpt lat="49.8704" lon="4.75451">
        <ele>357</ele>
        <time>2022-08-19T08:19:38.000Z</time>
      </trkpt>
      <trkpt lat="49.87043" lon="4.75455">
        <ele>357</ele>
        <time>2022-08-19T08:19:39.000Z</time>
      </trkpt>
      <trkpt lat="49.87046" lon="4.75459">
        <ele>357</ele>
        <time>2022-08-19T08:19:40.000Z</time>
      </trkpt>
      <trkpt lat="49.87048" lon="4.75463">
        <ele>357</ele>
        <time>2022-08-19T08:19:41.000Z</time>
      </trkpt>
      <trkpt lat="49.8705" lon="4.75467">
        <ele>357</ele>
        <time>2022-08-19T08:19:42.000Z</time>
      </trkpt>
      <trkpt lat="49.87053" lon="4.75471">
        <ele>357</ele>
        <time>2022-08-19T08:19:43.000Z</time>
      </trkpt>
      <trkpt lat="49.87056" lon="4.75476">
        <ele>358</ele>
        <time>2022-08-19T08:19:44.000Z</time>
      </trkpt>
      <trkpt lat="49.87059" lon="4.7548">
        <ele>358</ele>
        <time>2022-08-19T08:19:45.000Z</time>
      </trkpt>
      <trkpt lat="49.87062" lon="4.75484">
        <ele>358</ele>
        <time>2022-08-19T08:19:46.000Z</time>
      </trkpt>
      <trkpt lat="49.87065" lon="4.75488">
        <ele>358</ele>
        <time>2022-08-19T08:19:47.000Z</time>
      </trkpt>
      <trkpt lat="49.87068" lon="4.75492">
        <ele>358</ele>
        <time>2022-08-19T08:19:48.000Z</time>
      </trkpt>
      <trkpt lat="49.87071" lon="4.75496">
        <ele>358</ele>
        <time>2022-08-19T08:19:49.000Z</time>
      </trkpt>
      <trkpt lat="49.87075" lon="4.75499">
        <ele>358</ele>
        <time>2022-08-19T08:19:50.000Z</time>
      </trkpt>
      <trkpt lat="49.87078" lon="4.75502">
        <ele>358</ele>
        <time>2022-08-19T08:19:51.000Z</time>
      </trkpt>
      <trkpt lat="49.87081" lon="4.75504">
        <ele>359</ele>
        <time>2022-08-19T08:19:52.000Z</time>
      </trkpt>
      <trkpt lat="49.87084" lon="4.75506">
        <ele>359</ele>
        <time>2022-08-19T08:19:53.000Z</time>
      </trkpt>
      <trkpt lat="49.87086" lon="4.75507">
        <ele>359</ele>
        <time>2022-08-19T08:19:54.000Z</time>
      </trkpt>
      <trkpt lat="49.87088" lon="4.75509">
        <ele>359</ele>
        <time>2022-08-19T08:19:55.000Z</time>
      </trkpt>
      <trkpt lat="49.8709" lon="4.75511">
        <ele>359</ele>
        <time>2022-08-19T08:19:56.000Z</time>
      </trkpt>
      <trkpt lat="49.87092" lon="4.75513">
        <ele>359</ele>
        <time>2022-08-19T08:19:57.000Z</time>
      </trkpt>
      <trkpt lat="49.87095" lon="4.75516">
        <ele>359</ele>
        <time>2022-08-19T08:19:58.000Z</time>
      </trkpt>
      <trkpt lat="49.87097" lon="4.75518">
        <ele>359</ele>
        <time>2022-08-19T08:19:59.000Z</time>
      </trkpt>
      <trkpt lat="49.871" lon="4.7552">
        <ele>359</ele>
        <time>2022-08-19T08:20:00.000Z</time>
      </trkpt>
      <trkpt lat="49.87103" lon="4.75522">
        <ele>359</ele>
        <time>2022-08-19T08:20:01.000Z</time>
      </trkpt>
      <trkpt lat="49.87105" lon="4.75524">
        <ele>359</ele>
        <time>2022-08-19T08:20:02.000Z</time>
      </trkpt>
      <trkpt lat="49.87108" lon="4.75527">
        <ele>360</ele>
        <time>2022-08-19T08:20:03.000Z</time>
      </trkpt>
      <trkpt lat="49.87111" lon="4.75531">
        <ele>360</ele>
        <time>2022-08-19T08:20:04.000Z</time>
      </trkpt>
      <trkpt lat="49.87113" lon="4.75535">
        <ele>360</ele>
        <time>2022-08-19T08:20:05.000Z</time>
      </trkpt>
      <trkpt lat="49.87115" lon="4.75538">
        <ele>360</ele>
        <time>2022-08-19T08:20:06.000Z</time>
      </trkpt>
      <trkpt lat="49.87116" lon="4.7554">
        <ele>360</ele>
        <time>2022-08-19T08:20:07.000Z</time>
      </trkpt>
      <trkpt lat="49.87117" lon="4.75542">
        <ele>361</ele>
        <time>2022-08-19T08:20:08.000Z</time>
      </trkpt>
      <trkpt lat="49.87118" lon="4.75542">
        <ele>361</ele>
        <time>2022-08-19T08:20:09.000Z</time>
      </trkpt>
      <trkpt lat="49.87118" lon="4.75542">
        <ele>361</ele>
        <time>2022-08-19T08:20:10.000Z</time>
      </trkpt>
      <trkpt lat="49.87118" lon="4.75542">
        <ele>362</ele>
        <time>2022-08-19T08:20:11.000Z</time>
      </trkpt>
      <trkpt lat="49.87118" lon="4.75543">
        <ele>362</ele>
        <time>2022-08-19T08:20:12.000Z</time>
      </trkpt>
      <trkpt lat="49.87119" lon="4.75543">
        <ele>362</ele>
        <time>2022-08-19T08:20:13.000Z</time>
      </trkpt>
      <trkpt lat="49.87119" lon="4.75543">
        <ele>362</ele>
        <time>2022-08-19T08:20:14.000Z</time>
      </trkpt>
      <trkpt lat="49.87119" lon="4.75543">
        <ele>362</ele>
        <time>2022-08-19T08:20:15.000Z</time>
      </trkpt>
      <trkpt lat="49.87119" lon="4.75543">
        <ele>362</ele>
        <time>2022-08-19T08:20:16.000Z</time>
      </trkpt>
      <trkpt lat="49.87119" lon="4.75543">
        <ele>363</ele>
        <time>2022-08-19T08:20:17.000Z</time>
      </trkpt>
      <trkpt lat="49.8712" lon="4.75543">
        <ele>363</ele>
        <time>2022-08-19T08:20:18.000Z</time>
      </trkpt>
      <trkpt lat="49.8712" lon="4.75543">
        <ele>363</ele>
        <time>2022-08-19T08:20:19.000Z</time>
      </trkpt>
      <trkpt lat="49.8712" lon="4.75544">
        <ele>363</ele>
        <time>2022-08-19T08:20:20.000Z</time>
      </trkpt>
      <trkpt lat="49.8712" lon="4.75544">
        <ele>363</ele>
        <time>2022-08-19T08:20:21.000Z</time>
      </trkpt>
      <trkpt lat="49.8712" lon="4.75544">
        <ele>363</ele>
        <time>2022-08-19T08:20:22.000Z</time>
      </trkpt>
      <trkpt lat="49.8712" lon="4.75544">
        <ele>363</ele>
        <time>2022-08-19T08:20:23.000Z</time>
      </trkpt>
      <trkpt lat="49.8712" lon="4.75544">
        <ele>363</ele>
        <time>2022-08-19T08:20:24.000Z</time>
      </trkpt>
      <trkpt lat="49.8712" lon="4.75544">
        <ele>363</ele>
        <time>2022-08-19T08:20:25.000Z</time>
      </trkpt>
      <trkpt lat="49.8712" lon="4.75544">
        <ele>364</ele>
        <time>2022-08-19T08:20:26.000Z</time>
      </trkpt>
      <trkpt lat="49.8712" lon="4.75544">
        <ele>364</ele>
        <time>2022-08-19T08:20:27.000Z</time>
      </trkpt>
      <trkpt lat="49.8712" lon="4.75544">
        <ele>364</ele>
        <time>2022-08-19T08:20:28.000Z</time>
      </trkpt>
      <trkpt lat="49.87121" lon="4.75544">
        <ele>364</ele>
        <time>2022-08-19T08:20:29.000Z</time>
      </trkpt>
      <trkpt lat="49.87121" lon="4.75544">
        <ele>364</ele>
        <time>2022-08-19T08:20:30.000Z</time>
      </trkpt>
      <trkpt lat="49.87121" lon="4.75544">
        <ele>364</ele>
        <time>2022-08-19T08:20:31.000Z</time>
      </trkpt>
      <trkpt lat="49.87121" lon="4.75544">
        <ele>364</ele>
        <time>2022-08-19T08:20:32.000Z</time>
      </trkpt>
      <trkpt lat="49.87121" lon="4.75545">
        <ele>364</ele>
        <time>2022-08-19T08:20:33.000Z</time>
      </trkpt>
      <trkpt lat="49.87121" lon="4.75544">
        <ele>364</ele>
        <time>2022-08-19T08:20:34.000Z</time>
      </trkpt>
      <trkpt lat="49.87121" lon="4.75544">
        <ele>364</ele>
        <time>2022-08-19T08:20:35.000Z</time>
      </trkpt>
      <trkpt lat="49.87121" lon="4.75545">
        <ele>364</ele>
        <time>2022-08-19T08:20:36.000Z</time>
      </trkpt>
      <trkpt lat="49.87121" lon="4.75544">
        <ele>364</ele>
        <time>2022-08-19T08:20:37.000Z</time>
      </trkpt>
      <trkpt lat="49.87121" lon="4.75544">
        <ele>364</ele>
        <time>2022-08-19T08:20:38.000Z</time>
      </trkpt>
      <trkpt lat="49.87121" lon="4.75544">
        <ele>364</ele>
        <time>2022-08-19T08:20:39.000Z</time>
      </trkpt>
      <trkpt lat="49.87122" lon="4.75544">
        <ele>364</ele>
        <time>2022-08-19T08:20:40.000Z</time>
      </trkpt>
      <trkpt lat="49.87121" lon="4.75544">
        <ele>364</ele>
        <time>2022-08-19T08:20:41.000Z</time>
      </trkpt>
      <trkpt lat="49.87121" lon="4.75544">
        <ele>364</ele>
        <time>2022-08-19T08:20:42.000Z</time>
      </trkpt>
      <trkpt lat="49.87121" lon="4.75543">
        <ele>364</ele>
        <time>2022-08-19T08:20:43.000Z</time>
      </trkpt>
      <trkpt lat="49.87121" lon="4.75543">
        <ele>364</ele>
        <time>2022-08-19T08:20:44.000Z</time>
      </trkpt>
      <trkpt lat="49.8712" lon="4.75544">
        <ele>365</ele>
        <time>2022-08-19T08:20:45.000Z</time>
      </trkpt>
      <trkpt lat="49.8712" lon="4.75543">
        <ele>365</ele>
        <time>2022-08-19T08:20:46.000Z</time>
      </trkpt>
      <trkpt lat="49.87119" lon="4.75542">
        <ele>365</ele>
        <time>2022-08-19T08:20:47.000Z</time>
      </trkpt>
      <trkpt lat="49.87119" lon="4.75541">
        <ele>365</ele>
        <time>2022-08-19T08:20:48.000Z</time>
      </trkpt>
      <trkpt lat="49.87117" lon="4.75538">
        <ele>365</ele>
        <time>2022-08-19T08:20:49.000Z</time>
      </trkpt>
      <trkpt lat="49.87115" lon="4.75535">
        <ele>365</ele>
        <time>2022-08-19T08:20:50.000Z</time>
      </trkpt>
      <trkpt lat="49.87113" lon="4.75531">
        <ele>365</ele>
        <time>2022-08-19T08:20:51.000Z</time>
      </trkpt>
      <trkpt lat="49.87111" lon="4.75528">
        <ele>364</ele>
        <time>2022-08-19T08:20:52.000Z</time>
      </trkpt>
      <trkpt lat="49.87108" lon="4.75526">
        <ele>364</ele>
        <time>2022-08-19T08:20:53.000Z</time>
      </trkpt>
      <trkpt lat="49.87104" lon="4.75523">
        <ele>364</ele>
        <time>2022-08-19T08:20:54.000Z</time>
      </trkpt>
      <trkpt lat="49.87101" lon="4.7552">
        <ele>364</ele>
        <time>2022-08-19T08:20:55.000Z</time>
      </trkpt>
      <trkpt lat="49.87098" lon="4.75518">
        <ele>364</ele>
        <time>2022-08-19T08:20:56.000Z</time>
      </trkpt>
      <trkpt lat="49.87094" lon="4.75515">
        <ele>364</ele>
        <time>2022-08-19T08:20:57.000Z</time>
      </trkpt>
      <trkpt lat="49.87091" lon="4.75512">
        <ele>363</ele>
        <time>2022-08-19T08:20:58.000Z</time>
      </trkpt>
      <trkpt lat="49.87088" lon="4.75509">
        <ele>363</ele>
        <time>2022-08-19T08:20:59.000Z</time>
      </trkpt>
      <trkpt lat="49.87085" lon="4.75507">
        <ele>363</ele>
        <time>2022-08-19T08:21:00.000Z</time>
      </trkpt>
      <trkpt lat="49.87082" lon="4.75505">
        <ele>362</ele>
        <time>2022-08-19T08:21:01.000Z</time>
      </trkpt>
      <trkpt lat="49.87079" lon="4.75504">
        <ele>362</ele>
        <time>2022-08-19T08:21:02.000Z</time>
      </trkpt>
      <trkpt lat="49.87077" lon="4.75503">
        <ele>362</ele>
        <time>2022-08-19T08:21:03.000Z</time>
      </trkpt>
      <trkpt lat="49.87074" lon="4.755">
        <ele>362</ele>
        <time>2022-08-19T08:21:04.000Z</time>
      </trkpt>
      <trkpt lat="49.87072" lon="4.75496">
        <ele>362</ele>
        <time>2022-08-19T08:21:05.000Z</time>
      </trkpt>
      <trkpt lat="49.87068" lon="4.75492">
        <ele>362</ele>
        <time>2022-08-19T08:21:06.000Z</time>
      </trkpt>
      <trkpt lat="49.87065" lon="4.75488">
        <ele>361</ele>
        <time>2022-08-19T08:21:07.000Z</time>
      </trkpt>
      <trkpt lat="49.87062" lon="4.75483">
        <ele>361</ele>
        <time>2022-08-19T08:21:08.000Z</time>
      </trkpt>
      <trkpt lat="49.87058" lon="4.75478">
        <ele>361</ele>
        <time>2022-08-19T08:21:09.000Z</time>
      </trkpt>
      <trkpt lat="49.87054" lon="4.75472">
        <ele>361</ele>
        <time>2022-08-19T08:21:10.000Z</time>
      </trkpt>
      <trkpt lat="49.8705" lon="4.75466">
        <ele>361</ele>
        <time>2022-08-19T08:21:11.000Z</time>
      </trkpt>
      <trkpt lat="49.87047" lon="4.75461">
        <ele>361</ele>
        <time>2022-08-19T08:21:12.000Z</time>
      </trkpt>
      <trkpt lat="49.87043" lon="4.75454">
        <ele>361</ele>
        <time>2022-08-19T08:21:13.000Z</time>
      </trkpt>
      <trkpt lat="49.87038" lon="4.75448">
        <ele>361</ele>
        <time>2022-08-19T08:21:14.000Z</time>
      </trkpt>
      <trkpt lat="49.87034" lon="4.75441">
        <ele>361</ele>
        <time>2022-08-19T08:21:15.000Z</time>
      </trkpt>
      <trkpt lat="49.87029" lon="4.75434">
        <ele>360</ele>
        <time>2022-08-19T08:21:16.000Z</time>
      </trkpt>
      <trkpt lat="49.87025" lon="4.75427">
        <ele>360</ele>
        <time>2022-08-19T08:21:17.000Z</time>
      </trkpt>
      <trkpt lat="49.8702" lon="4.75421">
        <ele>360</ele>
        <time>2022-08-19T08:21:18.000Z</time>
      </trkpt>
      <trkpt lat="49.87015" lon="4.75415">
        <ele>360</ele>
        <time>2022-08-19T08:21:19.000Z</time>
      </trkpt>
      <trkpt lat="49.87011" lon="4.75409">
        <ele>359</ele>
        <time>2022-08-19T08:21:20.000Z</time>
      </trkpt>
      <trkpt lat="49.87006" lon="4.75403">
        <ele>359</ele>
        <time>2022-08-19T08:21:21.000Z</time>
      </trkpt>
      <trkpt lat="49.87001" lon="4.75398">
        <ele>359</ele>
        <time>2022-08-19T08:21:22.000Z</time>
      </trkpt>
      <trkpt lat="49.86997" lon="4.75392">
        <ele>359</ele>
        <time>2022-08-19T08:21:23.000Z</time>
      </trkpt>
      <trkpt lat="49.86992" lon="4.75387">
        <ele>359</ele>
        <time>2022-08-19T08:21:24.000Z</time>
      </trkpt>
      <trkpt lat="49.86988" lon="4.75381">
        <ele>358</ele>
        <time>2022-08-19T08:21:25.000Z</time>
      </trkpt>
      <trkpt lat="49.86985" lon="4.75375">
        <ele>358</ele>
        <time>2022-08-19T08:21:26.000Z</time>
      </trkpt>
      <trkpt lat="49.86983" lon="4.7537">
        <ele>358</ele>
        <time>2022-08-19T08:21:27.000Z</time>
      </trkpt>
      <trkpt lat="49.8698" lon="4.75365">
        <ele>358</ele>
        <time>2022-08-19T08:21:28.000Z</time>
      </trkpt>
      <trkpt lat="49.86977" lon="4.75361">
        <ele>358</ele>
        <time>2022-08-19T08:21:29.000Z</time>
      </trkpt>
      <trkpt lat="49.86974" lon="4.75357">
        <ele>358</ele>
        <time>2022-08-19T08:21:30.000Z</time>
      </trkpt>
      <trkpt lat="49.8697" lon="4.75353">
        <ele>357</ele>
        <time>2022-08-19T08:21:31.000Z</time>
      </trkpt>
      <trkpt lat="49.86965" lon="4.75349">
        <ele>357</ele>
        <time>2022-08-19T08:21:32.000Z</time>
      </trkpt>
      <trkpt lat="49.8696" lon="4.75346">
        <ele>357</ele>
        <time>2022-08-19T08:21:33.000Z</time>
      </trkpt>
      <trkpt lat="49.86957" lon="4.75343">
        <ele>357</ele>
        <time>2022-08-19T08:21:34.000Z</time>
      </trkpt>
      <trkpt lat="49.86953" lon="4.7534">
        <ele>357</ele>
        <time>2022-08-19T08:21:35.000Z</time>
      </trkpt>
      <trkpt lat="49.86948" lon="4.75337">
        <ele>357</ele>
        <time>2022-08-19T08:21:36.000Z</time>
      </trkpt>
      <trkpt lat="49.86943" lon="4.75332">
        <ele>356</ele>
        <time>2022-08-19T08:21:37.000Z</time>
      </trkpt>
      <trkpt lat="49.86938" lon="4.75328">
        <ele>356</ele>
        <time>2022-08-19T08:21:38.000Z</time>
      </trkpt>
      <trkpt lat="49.86932" lon="4.75323">
        <ele>356</ele>
        <time>2022-08-19T08:21:39.000Z</time>
      </trkpt>
      <trkpt lat="49.86928" lon="4.75318">
        <ele>356</ele>
        <time>2022-08-19T08:21:40.000Z</time>
      </trkpt>
      <trkpt lat="49.86924" lon="4.75312">
        <ele>356</ele>
        <time>2022-08-19T08:21:41.000Z</time>
      </trkpt>
      <trkpt lat="49.8692" lon="4.75304">
        <ele>356</ele>
        <time>2022-08-19T08:21:42.000Z</time>
      </trkpt>
      <trkpt lat="49.86916" lon="4.75295">
        <ele>355</ele>
        <time>2022-08-19T08:21:43.000Z</time>
      </trkpt>
      <trkpt lat="49.86911" lon="4.75286">
        <ele>355</ele>
        <time>2022-08-19T08:21:44.000Z</time>
      </trkpt>
      <trkpt lat="49.86907" lon="4.75276">
        <ele>355</ele>
        <time>2022-08-19T08:21:45.000Z</time>
      </trkpt>
      <trkpt lat="49.86902" lon="4.75265">
        <ele>355</ele>
        <time>2022-08-19T08:21:46.000Z</time>
      </trkpt>
      <trkpt lat="49.86897" lon="4.75255">
        <ele>354</ele>
        <time>2022-08-19T08:21:47.000Z</time>
      </trkpt>
      <trkpt lat="49.86893" lon="4.75247">
        <ele>354</ele>
        <time>2022-08-19T08:21:48.000Z</time>
      </trkpt>
      <trkpt lat="49.86889" lon="4.75241">
        <ele>354</ele>
        <time>2022-08-19T08:21:49.000Z</time>
      </trkpt>
      <trkpt lat="49.86887" lon="4.7524">
        <ele>353</ele>
        <time>2022-08-19T08:21:50.000Z</time>
      </trkpt>
      <trkpt lat="49.86884" lon="4.75242">
        <ele>353</ele>
        <time>2022-08-19T08:21:51.000Z</time>
      </trkpt>
      <trkpt lat="49.86882" lon="4.75248">
        <ele>353</ele>
        <time>2022-08-19T08:21:52.000Z</time>
      </trkpt>
      <trkpt lat="49.86881" lon="4.75255">
        <ele>352</ele>
        <time>2022-08-19T08:21:53.000Z</time>
      </trkpt>
      <trkpt lat="49.8688" lon="4.75263">
        <ele>352</ele>
        <time>2022-08-19T08:21:54.000Z</time>
      </trkpt>
      <trkpt lat="49.8688" lon="4.75272">
        <ele>352</ele>
        <time>2022-08-19T08:21:55.000Z</time>
      </trkpt>
      <trkpt lat="49.8688" lon="4.75282">
        <ele>352</ele>
        <time>2022-08-19T08:21:56.000Z</time>
      </trkpt>
      <trkpt lat="49.8688" lon="4.75293">
        <ele>351</ele>
        <time>2022-08-19T08:21:57.000Z</time>
      </trkpt>
      <trkpt lat="49.86881" lon="4.75305">
        <ele>351</ele>
        <time>2022-08-19T08:21:58.000Z</time>
      </trkpt>
      <trkpt lat="49.86882" lon="4.75316">
        <ele>350</ele>
        <time>2022-08-19T08:21:59.000Z</time>
      </trkpt>
      <trkpt lat="49.86883" lon="4.75328">
        <ele>350</ele>
        <time>2022-08-19T08:22:00.000Z</time>
      </trkpt>
      <trkpt lat="49.86885" lon="4.75339">
        <ele>349</ele>
        <time>2022-08-19T08:22:01.000Z</time>
      </trkpt>
      <trkpt lat="49.86887" lon="4.75351">
        <ele>349</ele>
        <time>2022-08-19T08:22:02.000Z</time>
      </trkpt>
      <trkpt lat="49.86888" lon="4.75363">
        <ele>348</ele>
        <time>2022-08-19T08:22:03.000Z</time>
      </trkpt>
      <trkpt lat="49.86889" lon="4.75374">
        <ele>348</ele>
        <time>2022-08-19T08:22:04.000Z</time>
      </trkpt>
      <trkpt lat="49.8689" lon="4.75386">
        <ele>347</ele>
        <time>2022-08-19T08:22:05.000Z</time>
      </trkpt>
      <trkpt lat="49.86891" lon="4.75398">
        <ele>346</ele>
        <time>2022-08-19T08:22:06.000Z</time>
      </trkpt>
      <trkpt lat="49.86891" lon="4.7541">
        <ele>346</ele>
        <time>2022-08-19T08:22:07.000Z</time>
      </trkpt>
      <trkpt lat="49.86891" lon="4.75422">
        <ele>345</ele>
        <time>2022-08-19T08:22:08.000Z</time>
      </trkpt>
      <trkpt lat="49.86891" lon="4.75435">
        <ele>344</ele>
        <time>2022-08-19T08:22:09.000Z</time>
      </trkpt>
      <trkpt lat="49.86889" lon="4.75446">
        <ele>344</ele>
        <time>2022-08-19T08:22:10.000Z</time>
      </trkpt>
      <trkpt lat="49.86888" lon="4.75457">
        <ele>343</ele>
        <time>2022-08-19T08:22:11.000Z</time>
      </trkpt>
      <trkpt lat="49.86887" lon="4.75469">
        <ele>342</ele>
        <time>2022-08-19T08:22:12.000Z</time>
      </trkpt>
      <trkpt lat="49.86886" lon="4.75482">
        <ele>342</ele>
        <time>2022-08-19T08:22:13.000Z</time>
      </trkpt>
      <trkpt lat="49.86884" lon="4.75494">
        <ele>341</ele>
        <time>2022-08-19T08:22:14.000Z</time>
      </trkpt>
      <trkpt lat="49.86882" lon="4.75508">
        <ele>341</ele>
        <time>2022-08-19T08:22:15.000Z</time>
      </trkpt>
      <trkpt lat="49.86881" lon="4.7552">
        <ele>340</ele>
        <time>2022-08-19T08:22:16.000Z</time>
      </trkpt>
      <trkpt lat="49.86879" lon="4.75533">
        <ele>339</ele>
        <time>2022-08-19T08:22:17.000Z</time>
      </trkpt>
      <trkpt lat="49.86878" lon="4.75544">
        <ele>339</ele>
        <time>2022-08-19T08:22:18.000Z</time>
      </trkpt>
      <trkpt lat="49.86878" lon="4.75555">
        <ele>338</ele>
        <time>2022-08-19T08:22:19.000Z</time>
      </trkpt>
      <trkpt lat="49.86877" lon="4.75561">
        <ele>338</ele>
        <time>2022-08-19T08:22:20.000Z</time>
      </trkpt>
      <trkpt lat="49.86876" lon="4.75566">
        <ele>338</ele>
        <time>2022-08-19T08:22:21.000Z</time>
      </trkpt>
      <trkpt lat="49.86876" lon="4.75572">
        <ele>337</ele>
        <time>2022-08-19T08:22:22.000Z</time>
      </trkpt>
      <trkpt lat="49.86875" lon="4.75578">
        <ele>337</ele>
        <time>2022-08-19T08:22:23.000Z</time>
      </trkpt>
      <trkpt lat="49.86874" lon="4.75584">
        <ele>336</ele>
        <time>2022-08-19T08:22:24.000Z</time>
      </trkpt>
      <trkpt lat="49.86873" lon="4.7559">
        <ele>336</ele>
        <time>2022-08-19T08:22:25.000Z</time>
      </trkpt>
      <trkpt lat="49.86873" lon="4.75597">
        <ele>336</ele>
        <time>2022-08-19T08:22:26.000Z</time>
      </trkpt>
      <trkpt lat="49.86871" lon="4.75605">
        <ele>335</ele>
        <time>2022-08-19T08:22:27.000Z</time>
      </trkpt>
      <trkpt lat="49.86869" lon="4.75612">
        <ele>335</ele>
        <time>2022-08-19T08:22:28.000Z</time>
      </trkpt>
      <trkpt lat="49.86868" lon="4.7562">
        <ele>334</ele>
        <time>2022-08-19T08:22:29.000Z</time>
      </trkpt>
      <trkpt lat="49.86867" lon="4.75629">
        <ele>334</ele>
        <time>2022-08-19T08:22:30.000Z</time>
      </trkpt>
      <trkpt lat="49.86866" lon="4.75638">
        <ele>333</ele>
        <time>2022-08-19T08:22:31.000Z</time>
      </trkpt>
      <trkpt lat="49.86865" lon="4.75646">
        <ele>333</ele>
        <time>2022-08-19T08:22:32.000Z</time>
      </trkpt>
      <trkpt lat="49.86865" lon="4.75655">
        <ele>332</ele>
        <time>2022-08-19T08:22:33.000Z</time>
      </trkpt>
      <trkpt lat="49.86864" lon="4.7566">
        <ele>332</ele>
        <time>2022-08-19T08:22:34.000Z</time>
      </trkpt>
      <trkpt lat="49.86864" lon="4.75664">
        <ele>331</ele>
        <time>2022-08-19T08:22:35.000Z</time>
      </trkpt>
      <trkpt lat="49.86864" lon="4.75668">
        <ele>331</ele>
        <time>2022-08-19T08:22:36.000Z</time>
      </trkpt>
      <trkpt lat="49.86864" lon="4.7567">
        <ele>331</ele>
        <time>2022-08-19T08:22:37.000Z</time>
      </trkpt>
      <trkpt lat="49.86864" lon="4.75673">
        <ele>331</ele>
        <time>2022-08-19T08:22:38.000Z</time>
      </trkpt>
      <trkpt lat="49.86864" lon="4.75677">
        <ele>330</ele>
        <time>2022-08-19T08:22:39.000Z</time>
      </trkpt>
      <trkpt lat="49.86863" lon="4.7568">
        <ele>330</ele>
        <time>2022-08-19T08:22:40.000Z</time>
      </trkpt>
      <trkpt lat="49.86863" lon="4.75684">
        <ele>330</ele>
        <time>2022-08-19T08:22:41.000Z</time>
      </trkpt>
      <trkpt lat="49.86863" lon="4.75687">
        <ele>329</ele>
        <time>2022-08-19T08:22:42.000Z</time>
      </trkpt>
      <trkpt lat="49.86862" lon="4.7569">
        <ele>329</ele>
        <time>2022-08-19T08:22:43.000Z</time>
      </trkpt>
      <trkpt lat="49.86862" lon="4.75693">
        <ele>329</ele>
        <time>2022-08-19T08:22:44.000Z</time>
      </trkpt>
      <trkpt lat="49.86862" lon="4.75697">
        <ele>329</ele>
        <time>2022-08-19T08:22:45.000Z</time>
      </trkpt>
      <trkpt lat="49.86862" lon="4.757">
        <ele>328</ele>
        <time>2022-08-19T08:22:46.000Z</time>
      </trkpt>
      <trkpt lat="49.86862" lon="4.75704">
        <ele>328</ele>
        <time>2022-08-19T08:22:47.000Z</time>
      </trkpt>
      <trkpt lat="49.86862" lon="4.75706">
        <ele>328</ele>
        <time>2022-08-19T08:22:48.000Z</time>
      </trkpt>
      <trkpt lat="49.86862" lon="4.75708">
        <ele>328</ele>
        <time>2022-08-19T08:22:49.000Z</time>
      </trkpt>
      <trkpt lat="49.86863" lon="4.75709">
        <ele>327</ele>
        <time>2022-08-19T08:22:50.000Z</time>
      </trkpt>
      <trkpt lat="49.86863" lon="4.7571">
        <ele>327</ele>
        <time>2022-08-19T08:22:51.000Z</time>
      </trkpt>
      <trkpt lat="49.86863" lon="4.75713">
        <ele>327</ele>
        <time>2022-08-19T08:22:52.000Z</time>
      </trkpt>
      <trkpt lat="49.86862" lon="4.75716">
        <ele>327</ele>
        <time>2022-08-19T08:22:53.000Z</time>
      </trkpt>
      <trkpt lat="49.86862" lon="4.75719">
        <ele>326</ele>
        <time>2022-08-19T08:22:54.000Z</time>
      </trkpt>
      <trkpt lat="49.86863" lon="4.75723">
        <ele>326</ele>
        <time>2022-08-19T08:22:55.000Z</time>
      </trkpt>
      <trkpt lat="49.86863" lon="4.75726">
        <ele>326</ele>
        <time>2022-08-19T08:22:56.000Z</time>
      </trkpt>
      <trkpt lat="49.86863" lon="4.7573">
        <ele>326</ele>
        <time>2022-08-19T08:22:57.000Z</time>
      </trkpt>
      <trkpt lat="49.86864" lon="4.75734">
        <ele>325</ele>
        <time>2022-08-19T08:22:58.000Z</time>
      </trkpt>
      <trkpt lat="49.86864" lon="4.75739">
        <ele>325</ele>
        <time>2022-08-19T08:22:59.000Z</time>
      </trkpt>
      <trkpt lat="49.86865" lon="4.75742">
        <ele>325</ele>
        <time>2022-08-19T08:23:00.000Z</time>
      </trkpt>
      <trkpt lat="49.86866" lon="4.75745">
        <ele>324</ele>
        <time>2022-08-19T08:23:01.000Z</time>
      </trkpt>
      <trkpt lat="49.86867" lon="4.75748">
        <ele>324</ele>
        <time>2022-08-19T08:23:02.000Z</time>
      </trkpt>
      <trkpt lat="49.86868" lon="4.75751">
        <ele>324</ele>
        <time>2022-08-19T08:23:03.000Z</time>
      </trkpt>
      <trkpt lat="49.86869" lon="4.75754">
        <ele>323</ele>
        <time>2022-08-19T08:23:04.000Z</time>
      </trkpt>
      <trkpt lat="49.8687" lon="4.75757">
        <ele>323</ele>
        <time>2022-08-19T08:23:05.000Z</time>
      </trkpt>
      <trkpt lat="49.86871" lon="4.75759">
        <ele>323</ele>
        <time>2022-08-19T08:23:06.000Z</time>
      </trkpt>
      <trkpt lat="49.86872" lon="4.75761">
        <ele>322</ele>
        <time>2022-08-19T08:23:07.000Z</time>
      </trkpt>
      <trkpt lat="49.86874" lon="4.75763">
        <ele>322</ele>
        <time>2022-08-19T08:23:08.000Z</time>
      </trkpt>
      <trkpt lat="49.86875" lon="4.75766">
        <ele>322</ele>
        <time>2022-08-19T08:23:09.000Z</time>
      </trkpt>
      <trkpt lat="49.86876" lon="4.75769">
        <ele>321</ele>
        <time>2022-08-19T08:23:10.000Z</time>
      </trkpt>
      <trkpt lat="49.86878" lon="4.75771">
        <ele>321</ele>
        <time>2022-08-19T08:23:11.000Z</time>
      </trkpt>
      <trkpt lat="49.86879" lon="4.75774">
        <ele>321</ele>
        <time>2022-08-19T08:23:12.000Z</time>
      </trkpt>
      <trkpt lat="49.86881" lon="4.75776">
        <ele>321</ele>
        <time>2022-08-19T08:23:13.000Z</time>
      </trkpt>
      <trkpt lat="49.86882" lon="4.75778">
        <ele>321</ele>
        <time>2022-08-19T08:23:14.000Z</time>
      </trkpt>
      <trkpt lat="49.86883" lon="4.75781">
        <ele>320</ele>
        <time>2022-08-19T08:23:15.000Z</time>
      </trkpt>
      <trkpt lat="49.86884" lon="4.75783">
        <ele>320</ele>
        <time>2022-08-19T08:23:16.000Z</time>
      </trkpt>
      <trkpt lat="49.86885" lon="4.75785">
        <ele>320</ele>
        <time>2022-08-19T08:23:17.000Z</time>
      </trkpt>
      <trkpt lat="49.86886" lon="4.75787">
        <ele>320</ele>
        <time>2022-08-19T08:23:18.000Z</time>
      </trkpt>
      <trkpt lat="49.86888" lon="4.7579">
        <ele>320</ele>
        <time>2022-08-19T08:23:19.000Z</time>
      </trkpt>
      <trkpt lat="49.86889" lon="4.75793">
        <ele>320</ele>
        <time>2022-08-19T08:23:20.000Z</time>
      </trkpt>
      <trkpt lat="49.8689" lon="4.75795">
        <ele>320</ele>
        <time>2022-08-19T08:23:21.000Z</time>
      </trkpt>
      <trkpt lat="49.86892" lon="4.75797">
        <ele>320</ele>
        <time>2022-08-19T08:23:22.000Z</time>
      </trkpt>
      <trkpt lat="49.86893" lon="4.758">
        <ele>320</ele>
        <time>2022-08-19T08:23:23.000Z</time>
      </trkpt>
      <trkpt lat="49.86895" lon="4.75802">
        <ele>320</ele>
        <time>2022-08-19T08:23:24.000Z</time>
      </trkpt>
      <trkpt lat="49.86896" lon="4.75804">
        <ele>320</ele>
        <time>2022-08-19T08:23:25.000Z</time>
      </trkpt>
      <trkpt lat="49.86897" lon="4.75807">
        <ele>320</ele>
        <time>2022-08-19T08:23:26.000Z</time>
      </trkpt>
      <trkpt lat="49.86899" lon="4.7581">
        <ele>320</ele>
        <time>2022-08-19T08:23:27.000Z</time>
      </trkpt>
      <trkpt lat="49.869" lon="4.75813">
        <ele>320</ele>
        <time>2022-08-19T08:23:28.000Z</time>
      </trkpt>
      <trkpt lat="49.86901" lon="4.75815">
        <ele>320</ele>
        <time>2022-08-19T08:23:29.000Z</time>
      </trkpt>
      <trkpt lat="49.86902" lon="4.75817">
        <ele>320</ele>
        <time>2022-08-19T08:23:30.000Z</time>
      </trkpt>
      <trkpt lat="49.86903" lon="4.7582">
        <ele>320</ele>
        <time>2022-08-19T08:23:31.000Z</time>
      </trkpt>
      <trkpt lat="49.86905" lon="4.75822">
        <ele>320</ele>
        <time>2022-08-19T08:23:32.000Z</time>
      </trkpt>
      <trkpt lat="49.86906" lon="4.75825">
        <ele>320</ele>
        <time>2022-08-19T08:23:33.000Z</time>
      </trkpt>
      <trkpt lat="49.86907" lon="4.75828">
        <ele>320</ele>
        <time>2022-08-19T08:23:34.000Z</time>
      </trkpt>
      <trkpt lat="49.86908" lon="4.7583">
        <ele>320</ele>
        <time>2022-08-19T08:23:35.000Z</time>
      </trkpt>
      <trkpt lat="49.8691" lon="4.75832">
        <ele>321</ele>
        <time>2022-08-19T08:23:36.000Z</time>
      </trkpt>
      <trkpt lat="49.86911" lon="4.75834">
        <ele>321</ele>
        <time>2022-08-19T08:23:37.000Z</time>
      </trkpt>
      <trkpt lat="49.86912" lon="4.75837">
        <ele>321</ele>
        <time>2022-08-19T08:23:38.000Z</time>
      </trkpt>
      <trkpt lat="49.86913" lon="4.75839">
        <ele>321</ele>
        <time>2022-08-19T08:23:39.000Z</time>
      </trkpt>
      <trkpt lat="49.86914" lon="4.75841">
        <ele>321</ele>
        <time>2022-08-19T08:23:40.000Z</time>
      </trkpt>
      <trkpt lat="49.86915" lon="4.75844">
        <ele>321</ele>
        <time>2022-08-19T08:23:41.000Z</time>
      </trkpt>
      <trkpt lat="49.86916" lon="4.75846">
        <ele>322</ele>
        <time>2022-08-19T08:23:42.000Z</time>
      </trkpt>
      <trkpt lat="49.86917" lon="4.75848">
        <ele>322</ele>
        <time>2022-08-19T08:23:43.000Z</time>
      </trkpt>
      <trkpt lat="49.86918" lon="4.75851">
        <ele>322</ele>
        <time>2022-08-19T08:23:44.000Z</time>
      </trkpt>
      <trkpt lat="49.86919" lon="4.75854">
        <ele>322</ele>
        <time>2022-08-19T08:23:45.000Z</time>
      </trkpt>
      <trkpt lat="49.8692" lon="4.75856">
        <ele>322</ele>
        <time>2022-08-19T08:23:46.000Z</time>
      </trkpt>
      <trkpt lat="49.86921" lon="4.75859">
        <ele>322</ele>
        <time>2022-08-19T08:23:47.000Z</time>
      </trkpt>
      <trkpt lat="49.86922" lon="4.75862">
        <ele>323</ele>
        <time>2022-08-19T08:23:48.000Z</time>
      </trkpt>
      <trkpt lat="49.86923" lon="4.75864">
        <ele>323</ele>
        <time>2022-08-19T08:23:49.000Z</time>
      </trkpt>
      <trkpt lat="49.86924" lon="4.75867">
        <ele>323</ele>
        <time>2022-08-19T08:23:50.000Z</time>
      </trkpt>
      <trkpt lat="49.86925" lon="4.7587">
        <ele>324</ele>
        <time>2022-08-19T08:23:51.000Z</time>
      </trkpt>
      <trkpt lat="49.86926" lon="4.75872">
        <ele>324</ele>
        <time>2022-08-19T08:23:52.000Z</time>
      </trkpt>
      <trkpt lat="49.86926" lon="4.75874">
        <ele>324</ele>
        <time>2022-08-19T08:23:53.000Z</time>
      </trkpt>
      <trkpt lat="49.86927" lon="4.75877">
        <ele>324</ele>
        <time>2022-08-19T08:23:54.000Z</time>
      </trkpt>
      <trkpt lat="49.86928" lon="4.75879">
        <ele>325</ele>
        <time>2022-08-19T08:23:55.000Z</time>
      </trkpt>
      <trkpt lat="49.86929" lon="4.75882">
        <ele>325</ele>
        <time>2022-08-19T08:23:56.000Z</time>
      </trkpt>
      <trkpt lat="49.86929" lon="4.75884">
        <ele>325</ele>
        <time>2022-08-19T08:23:57.000Z</time>
      </trkpt>
      <trkpt lat="49.8693" lon="4.75887">
        <ele>326</ele>
        <time>2022-08-19T08:23:58.000Z</time>
      </trkpt>
      <trkpt lat="49.8693" lon="4.7589">
        <ele>326</ele>
        <time>2022-08-19T08:23:59.000Z</time>
      </trkpt>
      <trkpt lat="49.86931" lon="4.75892">
        <ele>326</ele>
        <time>2022-08-19T08:24:00.000Z</time>
      </trkpt>
      <trkpt lat="49.86932" lon="4.75896">
        <ele>326</ele>
        <time>2022-08-19T08:24:01.000Z</time>
      </trkpt>
      <trkpt lat="49.86933" lon="4.75898">
        <ele>327</ele>
        <time>2022-08-19T08:24:02.000Z</time>
      </trkpt>
      <trkpt lat="49.86934" lon="4.75901">
        <ele>327</ele>
        <time>2022-08-19T08:24:03.000Z</time>
      </trkpt>
      <trkpt lat="49.86934" lon="4.75904">
        <ele>327</ele>
        <time>2022-08-19T08:24:04.000Z</time>
      </trkpt>
      <trkpt lat="49.86935" lon="4.75906">
        <ele>328</ele>
        <time>2022-08-19T08:24:05.000Z</time>
      </trkpt>
      <trkpt lat="49.86936" lon="4.75909">
        <ele>328</ele>
        <time>2022-08-19T08:24:06.000Z</time>
      </trkpt>
      <trkpt lat="49.86937" lon="4.75912">
        <ele>328</ele>
        <time>2022-08-19T08:24:07.000Z</time>
      </trkpt>
      <trkpt lat="49.86938" lon="4.75915">
        <ele>329</ele>
        <time>2022-08-19T08:24:08.000Z</time>
      </trkpt>
      <trkpt lat="49.86938" lon="4.75918">
        <ele>329</ele>
        <time>2022-08-19T08:24:09.000Z</time>
      </trkpt>
      <trkpt lat="49.8694" lon="4.75921">
        <ele>329</ele>
        <time>2022-08-19T08:24:10.000Z</time>
      </trkpt>
      <trkpt lat="49.8694" lon="4.75924">
        <ele>330</ele>
        <time>2022-08-19T08:24:11.000Z</time>
      </trkpt>
      <trkpt lat="49.86941" lon="4.75926">
        <ele>330</ele>
        <time>2022-08-19T08:24:12.000Z</time>
      </trkpt>
      <trkpt lat="49.86942" lon="4.75928">
        <ele>330</ele>
        <time>2022-08-19T08:24:13.000Z</time>
      </trkpt>
      <trkpt lat="49.86943" lon="4.75931">
        <ele>331</ele>
        <time>2022-08-19T08:24:14.000Z</time>
      </trkpt>
      <trkpt lat="49.86944" lon="4.75933">
        <ele>331</ele>
        <time>2022-08-19T08:24:15.000Z</time>
      </trkpt>
      <trkpt lat="49.86945" lon="4.75936">
        <ele>331</ele>
        <time>2022-08-19T08:24:16.000Z</time>
      </trkpt>
      <trkpt lat="49.86945" lon="4.75938">
        <ele>331</ele>
        <time>2022-08-19T08:24:17.000Z</time>
      </trkpt>
      <trkpt lat="49.86946" lon="4.75942">
        <ele>332</ele>
        <time>2022-08-19T08:24:18.000Z</time>
      </trkpt>
      <trkpt lat="49.86946" lon="4.75945">
        <ele>332</ele>
        <time>2022-08-19T08:24:19.000Z</time>
      </trkpt>
      <trkpt lat="49.86946" lon="4.75948">
        <ele>332</ele>
        <time>2022-08-19T08:24:20.000Z</time>
      </trkpt>
      <trkpt lat="49.86946" lon="4.75952">
        <ele>332</ele>
        <time>2022-08-19T08:24:21.000Z</time>
      </trkpt>
      <trkpt lat="49.86946" lon="4.75955">
        <ele>333</ele>
        <time>2022-08-19T08:24:22.000Z</time>
      </trkpt>
      <trkpt lat="49.86946" lon="4.75958">
        <ele>333</ele>
        <time>2022-08-19T08:24:23.000Z</time>
      </trkpt>
      <trkpt lat="49.86946" lon="4.75961">
        <ele>333</ele>
        <time>2022-08-19T08:24:24.000Z</time>
      </trkpt>
      <trkpt lat="49.86947" lon="4.75962">
        <ele>333</ele>
        <time>2022-08-19T08:24:25.000Z</time>
      </trkpt>
      <trkpt lat="49.86947" lon="4.75963">
        <ele>333</ele>
        <time>2022-08-19T08:24:26.000Z</time>
      </trkpt>
      <trkpt lat="49.86947" lon="4.75963">
        <ele>334</ele>
        <time>2022-08-19T08:24:27.000Z</time>
      </trkpt>
      <trkpt lat="49.86947" lon="4.75963">
        <ele>334</ele>
        <time>2022-08-19T08:24:28.000Z</time>
      </trkpt>
      <trkpt lat="49.86947" lon="4.75963">
        <ele>334</ele>
        <time>2022-08-19T08:24:29.000Z</time>
      </trkpt>
      <trkpt lat="49.86947" lon="4.75963">
        <ele>334</ele>
        <time>2022-08-19T08:24:30.000Z</time>
      </trkpt>
      <trkpt lat="49.86947" lon="4.75964">
        <ele>334</ele>
        <time>2022-08-19T08:24:31.000Z</time>
      </trkpt>
      <trkpt lat="49.86948" lon="4.75964">
        <ele>334</ele>
        <time>2022-08-19T08:24:32.000Z</time>
      </trkpt>
      <trkpt lat="49.86948" lon="4.75966">
        <ele>334</ele>
        <time>2022-08-19T08:24:33.000Z</time>
      </trkpt>
      <trkpt lat="49.86949" lon="4.75968">
        <ele>334</ele>
        <time>2022-08-19T08:24:34.000Z</time>
      </trkpt>
      <trkpt lat="49.8695" lon="4.7597">
        <ele>334</ele>
        <time>2022-08-19T08:24:35.000Z</time>
      </trkpt>
      <trkpt lat="49.86952" lon="4.75972">
        <ele>334</ele>
        <time>2022-08-19T08:24:36.000Z</time>
      </trkpt>
      <trkpt lat="49.86953" lon="4.75974">
        <ele>334</ele>
        <time>2022-08-19T08:24:37.000Z</time>
      </trkpt>
      <trkpt lat="49.86954" lon="4.75976">
        <ele>334</ele>
        <time>2022-08-19T08:24:38.000Z</time>
      </trkpt>
      <trkpt lat="49.86955" lon="4.75978">
        <ele>334</ele>
        <time>2022-08-19T08:24:39.000Z</time>
      </trkpt>
      <trkpt lat="49.86955" lon="4.75978">
        <ele>334</ele>
        <time>2022-08-19T08:24:40.000Z</time>
      </trkpt>
      <trkpt lat="49.86955" lon="4.75979">
        <ele>334</ele>
        <time>2022-08-19T08:24:41.000Z</time>
      </trkpt>
      <trkpt lat="49.86956" lon="4.7598">
        <ele>334</ele>
        <time>2022-08-19T08:24:42.000Z</time>
      </trkpt>
      <trkpt lat="49.86956" lon="4.75981">
        <ele>334</ele>
        <time>2022-08-19T08:24:43.000Z</time>
      </trkpt>
      <trkpt lat="49.86957" lon="4.75982">
        <ele>334</ele>
        <time>2022-08-19T08:24:44.000Z</time>
      </trkpt>
      <trkpt lat="49.86957" lon="4.75983">
        <ele>335</ele>
        <time>2022-08-19T08:24:45.000Z</time>
      </trkpt>
      <trkpt lat="49.86958" lon="4.75983">
        <ele>335</ele>
        <time>2022-08-19T08:24:46.000Z</time>
      </trkpt>
      <trkpt lat="49.86958" lon="4.75984">
        <ele>335</ele>
        <time>2022-08-19T08:24:47.000Z</time>
      </trkpt>
      <trkpt lat="49.86959" lon="4.75984">
        <ele>335</ele>
        <time>2022-08-19T08:24:48.000Z</time>
      </trkpt>
      <trkpt lat="49.86959" lon="4.75985">
        <ele>335</ele>
        <time>2022-08-19T08:24:49.000Z</time>
      </trkpt>
      <trkpt lat="49.86959" lon="4.75984">
        <ele>335</ele>
        <time>2022-08-19T08:24:50.000Z</time>
      </trkpt>
      <trkpt lat="49.86959" lon="4.75984">
        <ele>335</ele>
        <time>2022-08-19T08:24:51.000Z</time>
      </trkpt>
      <trkpt lat="49.86959" lon="4.75984">
        <ele>335</ele>
        <time>2022-08-19T08:24:52.000Z</time>
      </trkpt>
      <trkpt lat="49.86958" lon="4.75983">
        <ele>335</ele>
        <time>2022-08-19T08:24:53.000Z</time>
      </trkpt>
      <trkpt lat="49.86957" lon="4.75982">
        <ele>335</ele>
        <time>2022-08-19T08:24:54.000Z</time>
      </trkpt>
      <trkpt lat="49.86956" lon="4.7598">
        <ele>335</ele>
        <time>2022-08-19T08:24:55.000Z</time>
      </trkpt>
      <trkpt lat="49.86956" lon="4.75979">
        <ele>335</ele>
        <time>2022-08-19T08:24:56.000Z</time>
      </trkpt>
      <trkpt lat="49.86955" lon="4.75979">
        <ele>335</ele>
        <time>2022-08-19T08:24:57.000Z</time>
      </trkpt>
      <trkpt lat="49.86955" lon="4.75978">
        <ele>335</ele>
        <time>2022-08-19T08:24:58.000Z</time>
      </trkpt>
      <trkpt lat="49.86954" lon="4.75977">
        <ele>334</ele>
        <time>2022-08-19T08:24:59.000Z</time>
      </trkpt>
      <trkpt lat="49.86953" lon="4.75977">
        <ele>334</ele>
        <time>2022-08-19T08:25:00.000Z</time>
      </trkpt>
      <trkpt lat="49.86952" lon="4.75976">
        <ele>334</ele>
        <time>2022-08-19T08:25:01.000Z</time>
      </trkpt>
      <trkpt lat="49.86952" lon="4.75975">
        <ele>334</ele>
        <time>2022-08-19T08:25:02.000Z</time>
      </trkpt>
      <trkpt lat="49.86951" lon="4.75974">
        <ele>334</ele>
        <time>2022-08-19T08:25:03.000Z</time>
      </trkpt>
      <trkpt lat="49.86951" lon="4.75973">
        <ele>334</ele>
        <time>2022-08-19T08:25:04.000Z</time>
      </trkpt>
      <trkpt lat="49.8695" lon="4.75971">
        <ele>333</ele>
        <time>2022-08-19T08:25:05.000Z</time>
      </trkpt>
      <trkpt lat="49.86949" lon="4.75969">
        <ele>333</ele>
        <time>2022-08-19T08:25:06.000Z</time>
      </trkpt>
      <trkpt lat="49.86949" lon="4.75968">
        <ele>333</ele>
        <time>2022-08-19T08:25:07.000Z</time>
      </trkpt>
      <trkpt lat="49.86949" lon="4.75967">
        <ele>333</ele>
        <time>2022-08-19T08:25:08.000Z</time>
      </trkpt>
      <trkpt lat="49.86948" lon="4.75966">
        <ele>333</ele>
        <time>2022-08-19T08:25:09.000Z</time>
      </trkpt>
      <trkpt lat="49.86948" lon="4.75966">
        <ele>333</ele>
        <time>2022-08-19T08:25:10.000Z</time>
      </trkpt>
      <trkpt lat="49.86948" lon="4.75966">
        <ele>333</ele>
        <time>2022-08-19T08:25:11.000Z</time>
      </trkpt>
      <trkpt lat="49.86948" lon="4.75966">
        <ele>333</ele>
        <time>2022-08-19T08:25:12.000Z</time>
      </trkpt>
      <trkpt lat="49.86948" lon="4.75966">
        <ele>333</ele>
        <time>2022-08-19T08:25:13.000Z</time>
      </trkpt>
      <trkpt lat="49.86947" lon="4.75966">
        <ele>333</ele>
        <time>2022-08-19T08:25:14.000Z</time>
      </trkpt>
      <trkpt lat="49.86947" lon="4.75966">
        <ele>333</ele>
        <time>2022-08-19T08:25:15.000Z</time>
      </trkpt>
      <trkpt lat="49.86947" lon="4.75967">
        <ele>333</ele>
        <time>2022-08-19T08:25:16.000Z</time>
      </trkpt>
      <trkpt lat="49.86947" lon="4.75967">
        <ele>333</ele>
        <time>2022-08-19T08:25:17.000Z</time>
      </trkpt>
      <trkpt lat="49.86947" lon="4.75967">
        <ele>333</ele>
        <time>2022-08-19T08:25:18.000Z</time>
      </trkpt>
      <trkpt lat="49.86947" lon="4.75967">
        <ele>333</ele>
        <time>2022-08-19T08:25:19.000Z</time>
      </trkpt>
      <trkpt lat="49.86947" lon="4.75967">
        <ele>333</ele>
        <time>2022-08-19T08:25:20.000Z</time>
      </trkpt>
      <trkpt lat="49.86947" lon="4.75967">
        <ele>333</ele>
        <time>2022-08-19T08:25:21.000Z</time>
      </trkpt>
      <trkpt lat="49.86947" lon="4.75966">
        <ele>333</ele>
        <time>2022-08-19T08:25:22.000Z</time>
      </trkpt>
      <trkpt lat="49.86947" lon="4.75965">
        <ele>333</ele>
        <time>2022-08-19T08:25:23.000Z</time>
      </trkpt>
      <trkpt lat="49.86947" lon="4.75964">
        <ele>333</ele>
        <time>2022-08-19T08:25:24.000Z</time>
      </trkpt>
      <trkpt lat="49.86947" lon="4.75963">
        <ele>333</ele>
        <time>2022-08-19T08:25:25.000Z</time>
      </trkpt>
      <trkpt lat="49.86947" lon="4.75964">
        <ele>333</ele>
        <time>2022-08-19T08:25:26.000Z</time>
      </trkpt>
      <trkpt lat="49.86947" lon="4.75964">
        <ele>333</ele>
        <time>2022-08-19T08:25:27.000Z</time>
      </trkpt>
      <trkpt lat="49.86947" lon="4.75964">
        <ele>333</ele>
        <time>2022-08-19T08:25:28.000Z</time>
      </trkpt>
      <trkpt lat="49.86947" lon="4.75964">
        <ele>333</ele>
        <time>2022-08-19T08:25:29.000Z</time>
      </trkpt>
      <trkpt lat="49.86947" lon="4.75964">
        <ele>333</ele>
        <time>2022-08-19T08:25:30.000Z</time>
      </trkpt>
      <trkpt lat="49.86947" lon="4.75965">
        <ele>333</ele>
        <time>2022-08-19T08:25:31.000Z</time>
      </trkpt>
      <trkpt lat="49.86946" lon="4.75967">
        <ele>333</ele>
        <time>2022-08-19T08:25:32.000Z</time>
      </trkpt>
      <trkpt lat="49.86945" lon="4.75969">
        <ele>333</ele>
        <time>2022-08-19T08:25:33.000Z</time>
      </trkpt>
      <trkpt lat="49.86943" lon="4.75972">
        <ele>333</ele>
        <time>2022-08-19T08:25:34.000Z</time>
      </trkpt>
      <trkpt lat="49.86942" lon="4.75974">
        <ele>333</ele>
        <time>2022-08-19T08:25:35.000Z</time>
      </trkpt>
      <trkpt lat="49.86941" lon="4.75976">
        <ele>333</ele>
        <time>2022-08-19T08:25:36.000Z</time>
      </trkpt>
      <trkpt lat="49.86941" lon="4.75979">
        <ele>332</ele>
        <time>2022-08-19T08:25:37.000Z</time>
      </trkpt>
      <trkpt lat="49.86941" lon="4.75981">
        <ele>332</ele>
        <time>2022-08-19T08:25:38.000Z</time>
      </trkpt>
      <trkpt lat="49.8694" lon="4.75984">
        <ele>332</ele>
        <time>2022-08-19T08:25:39.000Z</time>
      </trkpt>
      <trkpt lat="49.8694" lon="4.75987">
        <ele>332</ele>
        <time>2022-08-19T08:25:40.000Z</time>
      </trkpt>
      <trkpt lat="49.86939" lon="4.7599">
        <ele>332</ele>
        <time>2022-08-19T08:25:41.000Z</time>
      </trkpt>
      <trkpt lat="49.86939" lon="4.75993">
        <ele>332</ele>
        <time>2022-08-19T08:25:42.000Z</time>
      </trkpt>
      <trkpt lat="49.86939" lon="4.75995">
        <ele>332</ele>
        <time>2022-08-19T08:25:43.000Z</time>
      </trkpt>
      <trkpt lat="49.86939" lon="4.75996">
        <ele>332</ele>
        <time>2022-08-19T08:25:44.000Z</time>
      </trkpt>
      <trkpt lat="49.86939" lon="4.75996">
        <ele>332</ele>
        <time>2022-08-19T08:25:45.000Z</time>
      </trkpt>
      <trkpt lat="49.86939" lon="4.75996">
        <ele>332</ele>
        <time>2022-08-19T08:25:46.000Z</time>
      </trkpt>
      <trkpt lat="49.86939" lon="4.75996">
        <ele>332</ele>
        <time>2022-08-19T08:25:47.000Z</time>
      </trkpt>
      <trkpt lat="49.86939" lon="4.75996">
        <ele>332</ele>
        <time>2022-08-19T08:25:48.000Z</time>
      </trkpt>
      <trkpt lat="49.86939" lon="4.75996">
        <ele>332</ele>
        <time>2022-08-19T08:25:49.000Z</time>
      </trkpt>
      <trkpt lat="49.86939" lon="4.75996">
        <ele>332</ele>
        <time>2022-08-19T08:25:50.000Z</time>
      </trkpt>
      <trkpt lat="49.86939" lon="4.75996">
        <ele>332</ele>
        <time>2022-08-19T08:25:51.000Z</time>
      </trkpt>
      <trkpt lat="49.86939" lon="4.75996">
        <ele>332</ele>
        <time>2022-08-19T08:25:52.000Z</time>
      </trkpt>
      <trkpt lat="49.86939" lon="4.75997">
        <ele>332</ele>
        <time>2022-08-19T08:25:53.000Z</time>
      </trkpt>
      <trkpt lat="49.86939" lon="4.75997">
        <ele>332</ele>
        <time>2022-08-19T08:25:54.000Z</time>
      </trkpt>
      <trkpt lat="49.86939" lon="4.75997">
        <ele>332</ele>
        <time>2022-08-19T08:25:55.000Z</time>
      </trkpt>
      <trkpt lat="49.86939" lon="4.75997">
        <ele>332</ele>
        <time>2022-08-19T08:25:56.000Z</time>
      </trkpt>
      <trkpt lat="49.86939" lon="4.75997">
        <ele>332</ele>
        <time>2022-08-19T08:25:57.000Z</time>
      </trkpt>
      <trkpt lat="49.8694" lon="4.75998">
        <ele>332</ele>
        <time>2022-08-19T08:25:58.000Z</time>
      </trkpt>
      <trkpt lat="49.86941" lon="4.75999">
        <ele>332</ele>
        <time>2022-08-19T08:25:59.000Z</time>
      </trkpt>
      <trkpt lat="49.86942" lon="4.76">
        <ele>332</ele>
        <time>2022-08-19T08:26:00.000Z</time>
      </trkpt>
      <trkpt lat="49.86943" lon="4.76001">
        <ele>332</ele>
        <time>2022-08-19T08:26:01.000Z</time>
      </trkpt>
      <trkpt lat="49.86944" lon="4.76004">
        <ele>332</ele>
        <time>2022-08-19T08:26:02.000Z</time>
      </trkpt>
      <trkpt lat="49.86945" lon="4.76009">
        <ele>332</ele>
        <time>2022-08-19T08:26:03.000Z</time>
      </trkpt>
      <trkpt lat="49.86945" lon="4.76013">
        <ele>332</ele>
        <time>2022-08-19T08:26:04.000Z</time>
      </trkpt>
      <trkpt lat="49.86947" lon="4.76018">
        <ele>331</ele>
        <time>2022-08-19T08:26:05.000Z</time>
      </trkpt>
      <trkpt lat="49.86948" lon="4.76022">
        <ele>331</ele>
        <time>2022-08-19T08:26:06.000Z</time>
      </trkpt>
      <trkpt lat="49.86948" lon="4.76025">
        <ele>331</ele>
        <time>2022-08-19T08:26:07.000Z</time>
      </trkpt>
      <trkpt lat="49.86948" lon="4.76026">
        <ele>331</ele>
        <time>2022-08-19T08:26:08.000Z</time>
      </trkpt>
      <trkpt lat="49.86948" lon="4.76026">
        <ele>331</ele>
        <time>2022-08-19T08:26:09.000Z</time>
      </trkpt>
      <trkpt lat="49.86948" lon="4.76025">
        <ele>330</ele>
        <time>2022-08-19T08:26:10.000Z</time>
      </trkpt>
      <trkpt lat="49.86947" lon="4.76023">
        <ele>330</ele>
        <time>2022-08-19T08:26:11.000Z</time>
      </trkpt>
      <trkpt lat="49.86946" lon="4.7602">
        <ele>330</ele>
        <time>2022-08-19T08:26:12.000Z</time>
      </trkpt>
      <trkpt lat="49.86946" lon="4.76017">
        <ele>330</ele>
        <time>2022-08-19T08:26:13.000Z</time>
      </trkpt>
      <trkpt lat="49.86945" lon="4.76015">
        <ele>330</ele>
        <time>2022-08-19T08:26:14.000Z</time>
      </trkpt>
      <trkpt lat="49.86945" lon="4.76012">
        <ele>330</ele>
        <time>2022-08-19T08:26:15.000Z</time>
      </trkpt>
      <trkpt lat="49.86944" lon="4.7601">
        <ele>329</ele>
        <time>2022-08-19T08:26:16.000Z</time>
      </trkpt>
      <trkpt lat="49.86943" lon="4.76009">
        <ele>329</ele>
        <time>2022-08-19T08:26:17.000Z</time>
      </trkpt>
      <trkpt lat="49.86943" lon="4.76007">
        <ele>329</ele>
        <time>2022-08-19T08:26:18.000Z</time>
      </trkpt>
      <trkpt lat="49.86942" lon="4.76006">
        <ele>329</ele>
        <time>2022-08-19T08:26:19.000Z</time>
      </trkpt>
      <trkpt lat="49.86941" lon="4.76005">
        <ele>329</ele>
        <time>2022-08-19T08:26:20.000Z</time>
      </trkpt>
      <trkpt lat="49.86941" lon="4.76005">
        <ele>329</ele>
        <time>2022-08-19T08:26:21.000Z</time>
      </trkpt>
      <trkpt lat="49.8694" lon="4.76004">
        <ele>329</ele>
        <time>2022-08-19T08:26:22.000Z</time>
      </trkpt>
      <trkpt lat="49.86939" lon="4.76003">
        <ele>329</ele>
        <time>2022-08-19T08:26:23.000Z</time>
      </trkpt>
      <trkpt lat="49.86938" lon="4.76003">
        <ele>329</ele>
        <time>2022-08-19T08:26:24.000Z</time>
      </trkpt>
      <trkpt lat="49.86938" lon="4.76002">
        <ele>328</ele>
        <time>2022-08-19T08:26:25.000Z</time>
      </trkpt>
      <trkpt lat="49.86938" lon="4.76001">
        <ele>328</ele>
        <time>2022-08-19T08:26:26.000Z</time>
      </trkpt>
      <trkpt lat="49.86938" lon="4.76001">
        <ele>328</ele>
        <time>2022-08-19T08:26:27.000Z</time>
      </trkpt>
      <trkpt lat="49.86938" lon="4.76001">
        <ele>328</ele>
        <time>2022-08-19T08:26:28.000Z</time>
      </trkpt>
      <trkpt lat="49.86938" lon="4.76001">
        <ele>328</ele>
        <time>2022-08-19T08:26:29.000Z</time>
      </trkpt>
      <trkpt lat="49.86937" lon="4.76">
        <ele>328</ele>
        <time>2022-08-19T08:26:30.000Z</time>
      </trkpt>
      <trkpt lat="49.86938" lon="4.76002">
        <ele>328</ele>
        <time>2022-08-19T08:26:31.000Z</time>
      </trkpt>
      <trkpt lat="49.86938" lon="4.76004">
        <ele>328</ele>
        <time>2022-08-19T08:26:32.000Z</time>
      </trkpt>
      <trkpt lat="49.86938" lon="4.76004">
        <ele>327</ele>
        <time>2022-08-19T08:26:33.000Z</time>
      </trkpt>
      <trkpt lat="49.86938" lon="4.76004">
        <ele>327</ele>
        <time>2022-08-19T08:26:34.000Z</time>
      </trkpt>
      <trkpt lat="49.86938" lon="4.76004">
        <ele>327</ele>
        <time>2022-08-19T08:26:35.000Z</time>
      </trkpt>
      <trkpt lat="49.86938" lon="4.76004">
        <ele>327</ele>
        <time>2022-08-19T08:26:36.000Z</time>
      </trkpt>
      <trkpt lat="49.86937" lon="4.76004">
        <ele>327</ele>
        <time>2022-08-19T08:26:37.000Z</time>
      </trkpt>
      <trkpt lat="49.86937" lon="4.76004">
        <ele>327</ele>
        <time>2022-08-19T08:26:38.000Z</time>
      </trkpt>
      <trkpt lat="49.86937" lon="4.76003">
        <ele>327</ele>
        <time>2022-08-19T08:26:39.000Z</time>
      </trkpt>
      <trkpt lat="49.86936" lon="4.76001">
        <ele>327</ele>
        <time>2022-08-19T08:26:40.000Z</time>
      </trkpt>
      <trkpt lat="49.86937" lon="4.75999">
        <ele>327</ele>
        <time>2022-08-19T08:26:41.000Z</time>
      </trkpt>
      <trkpt lat="49.86938" lon="4.75996">
        <ele>327</ele>
        <time>2022-08-19T08:26:42.000Z</time>
      </trkpt>
      <trkpt lat="49.86938" lon="4.75995">
        <ele>327</ele>
        <time>2022-08-19T08:26:43.000Z</time>
      </trkpt>
      <trkpt lat="49.86938" lon="4.75994">
        <ele>326</ele>
        <time>2022-08-19T08:26:44.000Z</time>
      </trkpt>
      <trkpt lat="49.86938" lon="4.75994">
        <ele>326</ele>
        <time>2022-08-19T08:26:45.000Z</time>
      </trkpt>
      <trkpt lat="49.86938" lon="4.75994">
        <ele>327</ele>
        <time>2022-08-19T08:26:46.000Z</time>
      </trkpt>
      <trkpt lat="49.86938" lon="4.75994">
        <ele>327</ele>
        <time>2022-08-19T08:26:47.000Z</time>
      </trkpt>
      <trkpt lat="49.86938" lon="4.75994">
        <ele>326</ele>
        <time>2022-08-19T08:26:48.000Z</time>
      </trkpt>
      <trkpt lat="49.86938" lon="4.75994">
        <ele>326</ele>
        <time>2022-08-19T08:26:49.000Z</time>
      </trkpt>
      <trkpt lat="49.86938" lon="4.75995">
        <ele>326</ele>
        <time>2022-08-19T08:26:50.000Z</time>
      </trkpt>
      <trkpt lat="49.86938" lon="4.75995">
        <ele>326</ele>
        <time>2022-08-19T08:26:51.000Z</time>
      </trkpt>
      <trkpt lat="49.86938" lon="4.75995">
        <ele>326</ele>
        <time>2022-08-19T08:26:52.000Z</time>
      </trkpt>
      <trkpt lat="49.86938" lon="4.75997">
        <ele>326</ele>
        <time>2022-08-19T08:26:53.000Z</time>
      </trkpt>
      <trkpt lat="49.86938" lon="4.75998">
        <ele>326</ele>
        <time>2022-08-19T08:26:54.000Z</time>
      </trkpt>
      <trkpt lat="49.86939" lon="4.76">
        <ele>326</ele>
        <time>2022-08-19T08:26:55.000Z</time>
      </trkpt>
      <trkpt lat="49.86939" lon="4.76001">
        <ele>326</ele>
        <time>2022-08-19T08:26:56.000Z</time>
      </trkpt>
      <trkpt lat="49.86939" lon="4.76001">
        <ele>326</ele>
        <time>2022-08-19T08:26:57.000Z</time>
      </trkpt>
      <trkpt lat="49.86939" lon="4.76001">
        <ele>326</ele>
        <time>2022-08-19T08:26:58.000Z</time>
      </trkpt>
      <trkpt lat="49.86939" lon="4.76001">
        <ele>326</ele>
        <time>2022-08-19T08:26:59.000Z</time>
      </trkpt>
      <trkpt lat="49.86939" lon="4.76001">
        <ele>326</ele>
        <time>2022-08-19T08:27:00.000Z</time>
      </trkpt>
      <trkpt lat="49.86939" lon="4.75999">
        <ele>326</ele>
        <time>2022-08-19T08:27:01.000Z</time>
      </trkpt>
      <trkpt lat="49.86938" lon="4.75998">
        <ele>326</ele>
        <time>2022-08-19T08:27:02.000Z</time>
      </trkpt>
      <trkpt lat="49.86938" lon="4.75995">
        <ele>326</ele>
        <time>2022-08-19T08:27:03.000Z</time>
      </trkpt>
      <trkpt lat="49.86938" lon="4.75994">
        <ele>326</ele>
        <time>2022-08-19T08:27:04.000Z</time>
      </trkpt>
      <trkpt lat="49.86938" lon="4.75993">
        <ele>326</ele>
        <time>2022-08-19T08:27:05.000Z</time>
      </trkpt>
      <trkpt lat="49.86938" lon="4.75992">
        <ele>326</ele>
        <time>2022-08-19T08:27:06.000Z</time>
      </trkpt>
      <trkpt lat="49.86938" lon="4.75993">
        <ele>326</ele>
        <time>2022-08-19T08:27:07.000Z</time>
      </trkpt>
      <trkpt lat="49.86938" lon="4.75992">
        <ele>326</ele>
        <time>2022-08-19T08:27:08.000Z</time>
      </trkpt>
      <trkpt lat="49.86938" lon="4.75992">
        <ele>326</ele>
        <time>2022-08-19T08:27:09.000Z</time>
      </trkpt>
      <trkpt lat="49.86938" lon="4.75992">
        <ele>326</ele>
        <time>2022-08-19T08:27:10.000Z</time>
      </trkpt>
      <trkpt lat="49.86938" lon="4.75991">
        <ele>326</ele>
        <time>2022-08-19T08:27:11.000Z</time>
      </trkpt>
      <trkpt lat="49.86938" lon="4.75991">
        <ele>326</ele>
        <time>2022-08-19T08:27:12.000Z</time>
      </trkpt>
      <trkpt lat="49.86938" lon="4.75991">
        <ele>326</ele>
        <time>2022-08-19T08:27:13.000Z</time>
      </trkpt>
      <trkpt lat="49.86938" lon="4.75991">
        <ele>326</ele>
        <time>2022-08-19T08:27:14.000Z</time>
      </trkpt>
      <trkpt lat="49.86938" lon="4.75991">
        <ele>326</ele>
        <time>2022-08-19T08:27:15.000Z</time>
      </trkpt>
      <trkpt lat="49.86938" lon="4.75992">
        <ele>326</ele>
        <time>2022-08-19T08:27:16.000Z</time>
      </trkpt>
      <trkpt lat="49.86937" lon="4.75994">
        <ele>325</ele>
        <time>2022-08-19T08:27:17.000Z</time>
      </trkpt>
      <trkpt lat="49.86937" lon="4.75997">
        <ele>325</ele>
        <time>2022-08-19T08:27:18.000Z</time>
      </trkpt>
      <trkpt lat="49.86938" lon="4.75999">
        <ele>325</ele>
        <time>2022-08-19T08:27:19.000Z</time>
      </trkpt>
      <trkpt lat="49.86938" lon="4.76001">
        <ele>325</ele>
        <time>2022-08-19T08:27:20.000Z</time>
      </trkpt>
      <trkpt lat="49.86939" lon="4.76002">
        <ele>325</ele>
        <time>2022-08-19T08:27:21.000Z</time>
      </trkpt>
      <trkpt lat="49.86939" lon="4.76003">
        <ele>325</ele>
        <time>2022-08-19T08:27:22.000Z</time>
      </trkpt>
      <trkpt lat="49.8694" lon="4.76004">
        <ele>325</ele>
        <time>2022-08-19T08:27:23.000Z</time>
      </trkpt>
      <trkpt lat="49.86941" lon="4.76006">
        <ele>325</ele>
        <time>2022-08-19T08:27:24.000Z</time>
      </trkpt>
      <trkpt lat="49.86943" lon="4.76011">
        <ele>325</ele>
        <time>2022-08-19T08:27:25.000Z</time>
      </trkpt>
      <trkpt lat="49.86943" lon="4.76016">
        <ele>325</ele>
        <time>2022-08-19T08:27:26.000Z</time>
      </trkpt>
      <trkpt lat="49.86945" lon="4.7602">
        <ele>325</ele>
        <time>2022-08-19T08:27:27.000Z</time>
      </trkpt>
      <trkpt lat="49.86946" lon="4.76024">
        <ele>324</ele>
        <time>2022-08-19T08:27:28.000Z</time>
      </trkpt>
      <trkpt lat="49.86948" lon="4.76029">
        <ele>324</ele>
        <time>2022-08-19T08:27:29.000Z</time>
      </trkpt>
      <trkpt lat="49.86949" lon="4.76033">
        <ele>324</ele>
        <time>2022-08-19T08:27:30.000Z</time>
      </trkpt>
      <trkpt lat="49.8695" lon="4.76037">
        <ele>324</ele>
        <time>2022-08-19T08:27:31.000Z</time>
      </trkpt>
      <trkpt lat="49.8695" lon="4.7604">
        <ele>324</ele>
        <time>2022-08-19T08:27:32.000Z</time>
      </trkpt>
      <trkpt lat="49.86951" lon="4.76043">
        <ele>324</ele>
        <time>2022-08-19T08:27:33.000Z</time>
      </trkpt>
      <trkpt lat="49.86952" lon="4.76046">
        <ele>324</ele>
        <time>2022-08-19T08:27:34.000Z</time>
      </trkpt>
      <trkpt lat="49.86953" lon="4.76049">
        <ele>324</ele>
        <time>2022-08-19T08:27:35.000Z</time>
      </trkpt>
      <trkpt lat="49.86954" lon="4.76053">
        <ele>324</ele>
        <time>2022-08-19T08:27:36.000Z</time>
      </trkpt>
      <trkpt lat="49.86954" lon="4.76056">
        <ele>324</ele>
        <time>2022-08-19T08:27:37.000Z</time>
      </trkpt>
      <trkpt lat="49.86954" lon="4.7606">
        <ele>324</ele>
        <time>2022-08-19T08:27:38.000Z</time>
      </trkpt>
      <trkpt lat="49.86955" lon="4.76063">
        <ele>324</ele>
        <time>2022-08-19T08:27:39.000Z</time>
      </trkpt>
      <trkpt lat="49.86956" lon="4.76067">
        <ele>324</ele>
        <time>2022-08-19T08:27:40.000Z</time>
      </trkpt>
      <trkpt lat="49.86956" lon="4.76072">
        <ele>324</ele>
        <time>2022-08-19T08:27:41.000Z</time>
      </trkpt>
      <trkpt lat="49.86956" lon="4.76075">
        <ele>324</ele>
        <time>2022-08-19T08:27:42.000Z</time>
      </trkpt>
      <trkpt lat="49.86957" lon="4.76078">
        <ele>324</ele>
        <time>2022-08-19T08:27:43.000Z</time>
      </trkpt>
      <trkpt lat="49.86957" lon="4.76082">
        <ele>324</ele>
        <time>2022-08-19T08:27:44.000Z</time>
      </trkpt>
      <trkpt lat="49.86957" lon="4.76087">
        <ele>324</ele>
        <time>2022-08-19T08:27:45.000Z</time>
      </trkpt>
      <trkpt lat="49.86957" lon="4.76092">
        <ele>324</ele>
        <time>2022-08-19T08:27:46.000Z</time>
      </trkpt>
      <trkpt lat="49.86958" lon="4.76098">
        <ele>324</ele>
        <time>2022-08-19T08:27:47.000Z</time>
      </trkpt>
      <trkpt lat="49.86958" lon="4.76105">
        <ele>324</ele>
        <time>2022-08-19T08:27:48.000Z</time>
      </trkpt>
      <trkpt lat="49.86957" lon="4.76112">
        <ele>324</ele>
        <time>2022-08-19T08:27:49.000Z</time>
      </trkpt>
      <trkpt lat="49.86957" lon="4.7612">
        <ele>324</ele>
        <time>2022-08-19T08:27:50.000Z</time>
      </trkpt>
      <trkpt lat="49.86956" lon="4.76128">
        <ele>324</ele>
        <time>2022-08-19T08:27:51.000Z</time>
      </trkpt>
      <trkpt lat="49.86956" lon="4.76137">
        <ele>324</ele>
        <time>2022-08-19T08:27:52.000Z</time>
      </trkpt>
      <trkpt lat="49.86955" lon="4.76145">
        <ele>324</ele>
        <time>2022-08-19T08:27:53.000Z</time>
      </trkpt>
      <trkpt lat="49.86956" lon="4.76154">
        <ele>323</ele>
        <time>2022-08-19T08:27:54.000Z</time>
      </trkpt>
      <trkpt lat="49.86956" lon="4.76161">
        <ele>323</ele>
        <time>2022-08-19T08:27:55.000Z</time>
      </trkpt>
      <trkpt lat="49.86956" lon="4.76168">
        <ele>323</ele>
        <time>2022-08-19T08:27:56.000Z</time>
      </trkpt>
      <trkpt lat="49.86956" lon="4.76175">
        <ele>323</ele>
        <time>2022-08-19T08:27:57.000Z</time>
      </trkpt>
      <trkpt lat="49.86956" lon="4.76183">
        <ele>322</ele>
        <time>2022-08-19T08:27:58.000Z</time>
      </trkpt>
      <trkpt lat="49.86956" lon="4.7619">
        <ele>322</ele>
        <time>2022-08-19T08:27:59.000Z</time>
      </trkpt>
      <trkpt lat="49.86956" lon="4.76194">
        <ele>322</ele>
        <time>2022-08-19T08:28:00.000Z</time>
      </trkpt>
      <trkpt lat="49.86956" lon="4.76197">
        <ele>322</ele>
        <time>2022-08-19T08:28:01.000Z</time>
      </trkpt>
      <trkpt lat="49.86956" lon="4.76202">
        <ele>321</ele>
        <time>2022-08-19T08:28:02.000Z</time>
      </trkpt>
      <trkpt lat="49.86957" lon="4.76207">
        <ele>321</ele>
        <time>2022-08-19T08:28:03.000Z</time>
      </trkpt>
      <trkpt lat="49.86958" lon="4.76213">
        <ele>321</ele>
        <time>2022-08-19T08:28:04.000Z</time>
      </trkpt>
      <trkpt lat="49.86959" lon="4.7622">
        <ele>320</ele>
        <time>2022-08-19T08:28:05.000Z</time>
      </trkpt>
      <trkpt lat="49.8696" lon="4.76226">
        <ele>320</ele>
        <time>2022-08-19T08:28:06.000Z</time>
      </trkpt>
      <trkpt lat="49.86959" lon="4.76231">
        <ele>320</ele>
        <time>2022-08-19T08:28:07.000Z</time>
      </trkpt>
      <trkpt lat="49.86958" lon="4.76235">
        <ele>320</ele>
        <time>2022-08-19T08:28:08.000Z</time>
      </trkpt>
      <trkpt lat="49.86956" lon="4.76239">
        <ele>320</ele>
        <time>2022-08-19T08:28:09.000Z</time>
      </trkpt>
      <trkpt lat="49.86955" lon="4.76242">
        <ele>319</ele>
        <time>2022-08-19T08:28:10.000Z</time>
      </trkpt>
      <trkpt lat="49.86953" lon="4.76244">
        <ele>319</ele>
        <time>2022-08-19T08:28:11.000Z</time>
      </trkpt>
      <trkpt lat="49.86951" lon="4.76247">
        <ele>319</ele>
        <time>2022-08-19T08:28:12.000Z</time>
      </trkpt>
      <trkpt lat="49.86949" lon="4.76252">
        <ele>319</ele>
        <time>2022-08-19T08:28:13.000Z</time>
      </trkpt>
      <trkpt lat="49.86949" lon="4.76257">
        <ele>318</ele>
        <time>2022-08-19T08:28:14.000Z</time>
      </trkpt>
      <trkpt lat="49.86949" lon="4.76262">
        <ele>318</ele>
        <time>2022-08-19T08:28:15.000Z</time>
      </trkpt>
      <trkpt lat="49.8695" lon="4.76267">
        <ele>318</ele>
        <time>2022-08-19T08:28:16.000Z</time>
      </trkpt>
      <trkpt lat="49.86951" lon="4.76271">
        <ele>318</ele>
        <time>2022-08-19T08:28:17.000Z</time>
      </trkpt>
      <trkpt lat="49.86953" lon="4.76275">
        <ele>317</ele>
        <time>2022-08-19T08:28:18.000Z</time>
      </trkpt>
      <trkpt lat="49.86954" lon="4.76279">
        <ele>317</ele>
        <time>2022-08-19T08:28:19.000Z</time>
      </trkpt>
      <trkpt lat="49.86955" lon="4.76283">
        <ele>317</ele>
        <time>2022-08-19T08:28:20.000Z</time>
      </trkpt>
      <trkpt lat="49.86956" lon="4.76286">
        <ele>316</ele>
        <time>2022-08-19T08:28:21.000Z</time>
      </trkpt>
      <trkpt lat="49.86957" lon="4.76289">
        <ele>316</ele>
        <time>2022-08-19T08:28:22.000Z</time>
      </trkpt>
      <trkpt lat="49.86959" lon="4.76292">
        <ele>315</ele>
        <time>2022-08-19T08:28:23.000Z</time>
      </trkpt>
      <trkpt lat="49.86961" lon="4.76294">
        <ele>315</ele>
        <time>2022-08-19T08:28:24.000Z</time>
      </trkpt>
      <trkpt lat="49.86963" lon="4.76296">
        <ele>315</ele>
        <time>2022-08-19T08:28:25.000Z</time>
      </trkpt>
      <trkpt lat="49.86966" lon="4.76298">
        <ele>315</ele>
        <time>2022-08-19T08:28:26.000Z</time>
      </trkpt>
      <trkpt lat="49.86967" lon="4.76302">
        <ele>314</ele>
        <time>2022-08-19T08:28:27.000Z</time>
      </trkpt>
      <trkpt lat="49.86968" lon="4.76307">
        <ele>314</ele>
        <time>2022-08-19T08:28:28.000Z</time>
      </trkpt>
      <trkpt lat="49.86967" lon="4.76312">
        <ele>314</ele>
        <time>2022-08-19T08:28:29.000Z</time>
      </trkpt>
      <trkpt lat="49.86967" lon="4.76317">
        <ele>313</ele>
        <time>2022-08-19T08:28:30.000Z</time>
      </trkpt>
      <trkpt lat="49.86967" lon="4.76323">
        <ele>313</ele>
        <time>2022-08-19T08:28:31.000Z</time>
      </trkpt>
      <trkpt lat="49.86965" lon="4.7633">
        <ele>313</ele>
        <time>2022-08-19T08:28:32.000Z</time>
      </trkpt>
      <trkpt lat="49.86965" lon="4.76338">
        <ele>312</ele>
        <time>2022-08-19T08:28:33.000Z</time>
      </trkpt>
      <trkpt lat="49.86965" lon="4.76346">
        <ele>312</ele>
        <time>2022-08-19T08:28:34.000Z</time>
      </trkpt>
      <trkpt lat="49.86965" lon="4.76355">
        <ele>312</ele>
        <time>2022-08-19T08:28:35.000Z</time>
      </trkpt>
      <trkpt lat="49.86965" lon="4.76364">
        <ele>311</ele>
        <time>2022-08-19T08:28:36.000Z</time>
      </trkpt>
      <trkpt lat="49.86965" lon="4.76373">
        <ele>311</ele>
        <time>2022-08-19T08:28:37.000Z</time>
      </trkpt>
      <trkpt lat="49.86965" lon="4.76382">
        <ele>310</ele>
        <time>2022-08-19T08:28:38.000Z</time>
      </trkpt>
      <trkpt lat="49.86965" lon="4.76392">
        <ele>310</ele>
        <time>2022-08-19T08:28:39.000Z</time>
      </trkpt>
      <trkpt lat="49.86965" lon="4.76403">
        <ele>309</ele>
        <time>2022-08-19T08:28:40.000Z</time>
      </trkpt>
      <trkpt lat="49.86965" lon="4.76414">
        <ele>309</ele>
        <time>2022-08-19T08:28:41.000Z</time>
      </trkpt>
      <trkpt lat="49.86965" lon="4.76425">
        <ele>308</ele>
        <time>2022-08-19T08:28:42.000Z</time>
      </trkpt>
      <trkpt lat="49.86966" lon="4.76434">
        <ele>307</ele>
        <time>2022-08-19T08:28:43.000Z</time>
      </trkpt>
      <trkpt lat="49.86966" lon="4.76443">
        <ele>306</ele>
        <time>2022-08-19T08:28:44.000Z</time>
      </trkpt>
      <trkpt lat="49.86966" lon="4.76451">
        <ele>306</ele>
        <time>2022-08-19T08:28:45.000Z</time>
      </trkpt>
      <trkpt lat="49.86966" lon="4.76459">
        <ele>305</ele>
        <time>2022-08-19T08:28:46.000Z</time>
      </trkpt>
      <trkpt lat="49.86967" lon="4.76468">
        <ele>304</ele>
        <time>2022-08-19T08:28:47.000Z</time>
      </trkpt>
      <trkpt lat="49.86967" lon="4.76477">
        <ele>303</ele>
        <time>2022-08-19T08:28:48.000Z</time>
      </trkpt>
      <trkpt lat="49.86968" lon="4.76487">
        <ele>303</ele>
        <time>2022-08-19T08:28:49.000Z</time>
      </trkpt>
      <trkpt lat="49.86969" lon="4.76496">
        <ele>302</ele>
        <time>2022-08-19T08:28:50.000Z</time>
      </trkpt>
      <trkpt lat="49.8697" lon="4.76505">
        <ele>302</ele>
        <time>2022-08-19T08:28:51.000Z</time>
      </trkpt>
      <trkpt lat="49.86971" lon="4.76513">
        <ele>301</ele>
        <time>2022-08-19T08:28:52.000Z</time>
      </trkpt>
      <trkpt lat="49.86972" lon="4.7652">
        <ele>300</ele>
        <time>2022-08-19T08:28:53.000Z</time>
      </trkpt>
      <trkpt lat="49.86973" lon="4.76527">
        <ele>300</ele>
        <time>2022-08-19T08:28:54.000Z</time>
      </trkpt>
      <trkpt lat="49.86973" lon="4.76533">
        <ele>300</ele>
        <time>2022-08-19T08:28:55.000Z</time>
      </trkpt>
      <trkpt lat="49.86972" lon="4.76539">
        <ele>299</ele>
        <time>2022-08-19T08:28:56.000Z</time>
      </trkpt>
      <trkpt lat="49.8697" lon="4.76546">
        <ele>299</ele>
        <time>2022-08-19T08:28:57.000Z</time>
      </trkpt>
      <trkpt lat="49.86968" lon="4.76552">
        <ele>299</ele>
        <time>2022-08-19T08:28:58.000Z</time>
      </trkpt>
      <trkpt lat="49.86967" lon="4.76559">
        <ele>298</ele>
        <time>2022-08-19T08:28:59.000Z</time>
      </trkpt>
      <trkpt lat="49.86964" lon="4.76565">
        <ele>298</ele>
        <time>2022-08-19T08:29:00.000Z</time>
      </trkpt>
      <trkpt lat="49.86962" lon="4.76571">
        <ele>298</ele>
        <time>2022-08-19T08:29:01.000Z</time>
      </trkpt>
      <trkpt lat="49.86959" lon="4.76576">
        <ele>297</ele>
        <time>2022-08-19T08:29:02.000Z</time>
      </trkpt>
      <trkpt lat="49.86957" lon="4.76581">
        <ele>297</ele>
        <time>2022-08-19T08:29:03.000Z</time>
      </trkpt>
      <trkpt lat="49.86954" lon="4.76586">
        <ele>297</ele>
        <time>2022-08-19T08:29:04.000Z</time>
      </trkpt>
      <trkpt lat="49.86951" lon="4.76592">
        <ele>297</ele>
        <time>2022-08-19T08:29:05.000Z</time>
      </trkpt>
      <trkpt lat="49.86948" lon="4.76598">
        <ele>296</ele>
        <time>2022-08-19T08:29:06.000Z</time>
      </trkpt>
      <trkpt lat="49.86945" lon="4.76604">
        <ele>296</ele>
        <time>2022-08-19T08:29:07.000Z</time>
      </trkpt>
      <trkpt lat="49.86942" lon="4.76609">
        <ele>296</ele>
        <time>2022-08-19T08:29:08.000Z</time>
      </trkpt>
      <trkpt lat="49.86939" lon="4.76613">
        <ele>296</ele>
        <time>2022-08-19T08:29:09.000Z</time>
      </trkpt>
      <trkpt lat="49.86938" lon="4.76616">
        <ele>296</ele>
        <time>2022-08-19T08:29:10.000Z</time>
      </trkpt>
      <trkpt lat="49.86937" lon="4.76618">
        <ele>296</ele>
        <time>2022-08-19T08:29:11.000Z</time>
      </trkpt>
      <trkpt lat="49.86936" lon="4.7662">
        <ele>296</ele>
        <time>2022-08-19T08:29:12.000Z</time>
      </trkpt>
      <trkpt lat="49.86936" lon="4.76621">
        <ele>296</ele>
        <time>2022-08-19T08:29:13.000Z</time>
      </trkpt>
      <trkpt lat="49.86935" lon="4.76622">
        <ele>296</ele>
        <time>2022-08-19T08:29:14.000Z</time>
      </trkpt>
      <trkpt lat="49.86935" lon="4.76622">
        <ele>296</ele>
        <time>2022-08-19T08:29:15.000Z</time>
      </trkpt>
      <trkpt lat="49.86934" lon="4.76623">
        <ele>296</ele>
        <time>2022-08-19T08:29:16.000Z</time>
      </trkpt>
      <trkpt lat="49.86934" lon="4.76623">
        <ele>296</ele>
        <time>2022-08-19T08:29:17.000Z</time>
      </trkpt>
      <trkpt lat="49.86932" lon="4.76624">
        <ele>296</ele>
        <time>2022-08-19T08:29:18.000Z</time>
      </trkpt>
      <trkpt lat="49.8693" lon="4.76624">
        <ele>296</ele>
        <time>2022-08-19T08:29:19.000Z</time>
      </trkpt>
      <trkpt lat="49.86929" lon="4.76625">
        <ele>296</ele>
        <time>2022-08-19T08:29:20.000Z</time>
      </trkpt>
      <trkpt lat="49.86928" lon="4.76625">
        <ele>296</ele>
        <time>2022-08-19T08:29:21.000Z</time>
      </trkpt>
      <trkpt lat="49.86927" lon="4.76625">
        <ele>296</ele>
        <time>2022-08-19T08:29:22.000Z</time>
      </trkpt>
      <trkpt lat="49.86927" lon="4.76625">
        <ele>295</ele>
        <time>2022-08-19T08:29:23.000Z</time>
      </trkpt>
      <trkpt lat="49.86927" lon="4.76625">
        <ele>295</ele>
        <time>2022-08-19T08:29:24.000Z</time>
      </trkpt>
      <trkpt lat="49.86926" lon="4.76625">
        <ele>295</ele>
        <time>2022-08-19T08:29:25.000Z</time>
      </trkpt>
      <trkpt lat="49.86926" lon="4.76625">
        <ele>295</ele>
        <time>2022-08-19T08:29:26.000Z</time>
      </trkpt>
      <trkpt lat="49.86925" lon="4.76625">
        <ele>295</ele>
        <time>2022-08-19T08:29:27.000Z</time>
      </trkpt>
      <trkpt lat="49.86925" lon="4.76624">
        <ele>295</ele>
        <time>2022-08-19T08:29:28.000Z</time>
      </trkpt>
      <trkpt lat="49.86925" lon="4.76624">
        <ele>295</ele>
        <time>2022-08-19T08:29:29.000Z</time>
      </trkpt>
      <trkpt lat="49.86925" lon="4.76623">
        <ele>295</ele>
        <time>2022-08-19T08:29:30.000Z</time>
      </trkpt>
      <trkpt lat="49.86925" lon="4.76623">
        <ele>295</ele>
        <time>2022-08-19T08:29:31.000Z</time>
      </trkpt>
      <trkpt lat="49.86926" lon="4.76622">
        <ele>295</ele>
        <time>2022-08-19T08:29:32.000Z</time>
      </trkpt>
      <trkpt lat="49.86926" lon="4.76621">
        <ele>295</ele>
        <time>2022-08-19T08:29:33.000Z</time>
      </trkpt>
      <trkpt lat="49.86925" lon="4.7662">
        <ele>295</ele>
        <time>2022-08-19T08:29:34.000Z</time>
      </trkpt>
      <trkpt lat="49.86924" lon="4.76619">
        <ele>295</ele>
        <time>2022-08-19T08:29:35.000Z</time>
      </trkpt>
      <trkpt lat="49.86923" lon="4.76617">
        <ele>294</ele>
        <time>2022-08-19T08:29:36.000Z</time>
      </trkpt>
      <trkpt lat="49.86922" lon="4.76614">
        <ele>294</ele>
        <time>2022-08-19T08:29:37.000Z</time>
      </trkpt>
      <trkpt lat="49.86921" lon="4.76612">
        <ele>294</ele>
        <time>2022-08-19T08:29:38.000Z</time>
      </trkpt>
      <trkpt lat="49.8692" lon="4.76609">
        <ele>294</ele>
        <time>2022-08-19T08:29:39.000Z</time>
      </trkpt>
      <trkpt lat="49.86918" lon="4.76606">
        <ele>294</ele>
        <time>2022-08-19T08:29:40.000Z</time>
      </trkpt>
      <trkpt lat="49.86917" lon="4.76603">
        <ele>293</ele>
        <time>2022-08-19T08:29:41.000Z</time>
      </trkpt>
      <trkpt lat="49.86915" lon="4.76602">
        <ele>293</ele>
        <time>2022-08-19T08:29:42.000Z</time>
      </trkpt>
      <trkpt lat="49.86914" lon="4.766">
        <ele>293</ele>
        <time>2022-08-19T08:29:43.000Z</time>
      </trkpt>
      <trkpt lat="49.86913" lon="4.76598">
        <ele>293</ele>
        <time>2022-08-19T08:29:44.000Z</time>
      </trkpt>
      <trkpt lat="49.86911" lon="4.76595">
        <ele>292</ele>
        <time>2022-08-19T08:29:45.000Z</time>
      </trkpt>
      <trkpt lat="49.8691" lon="4.76592">
        <ele>292</ele>
        <time>2022-08-19T08:29:46.000Z</time>
      </trkpt>
      <trkpt lat="49.86908" lon="4.76589">
        <ele>291</ele>
        <time>2022-08-19T08:29:47.000Z</time>
      </trkpt>
      <trkpt lat="49.86906" lon="4.76586">
        <ele>291</ele>
        <time>2022-08-19T08:29:48.000Z</time>
      </trkpt>
      <trkpt lat="49.86903" lon="4.76583">
        <ele>291</ele>
        <time>2022-08-19T08:29:49.000Z</time>
      </trkpt>
      <trkpt lat="49.86901" lon="4.76581">
        <ele>291</ele>
        <time>2022-08-19T08:29:50.000Z</time>
      </trkpt>
      <trkpt lat="49.86899" lon="4.7658">
        <ele>290</ele>
        <time>2022-08-19T08:29:51.000Z</time>
      </trkpt>
      <trkpt lat="49.86898" lon="4.7658">
        <ele>290</ele>
        <time>2022-08-19T08:29:52.000Z</time>
      </trkpt>
      <trkpt lat="49.86896" lon="4.76581">
        <ele>290</ele>
        <time>2022-08-19T08:29:53.000Z</time>
      </trkpt>
      <trkpt lat="49.86896" lon="4.76583">
        <ele>289</ele>
        <time>2022-08-19T08:29:54.000Z</time>
      </trkpt>
      <trkpt lat="49.86895" lon="4.76585">
        <ele>289</ele>
        <time>2022-08-19T08:29:55.000Z</time>
      </trkpt>
      <trkpt lat="49.86895" lon="4.76587">
        <ele>288</ele>
        <time>2022-08-19T08:29:56.000Z</time>
      </trkpt>
      <trkpt lat="49.86895" lon="4.7659">
        <ele>288</ele>
        <time>2022-08-19T08:29:57.000Z</time>
      </trkpt>
      <trkpt lat="49.86895" lon="4.76592">
        <ele>287</ele>
        <time>2022-08-19T08:29:58.000Z</time>
      </trkpt>
      <trkpt lat="49.86895" lon="4.76594">
        <ele>287</ele>
        <time>2022-08-19T08:29:59.000Z</time>
      </trkpt>
      <trkpt lat="49.86895" lon="4.76597">
        <ele>286</ele>
        <time>2022-08-19T08:30:00.000Z</time>
      </trkpt>
      <trkpt lat="49.86894" lon="4.76599">
        <ele>286</ele>
        <time>2022-08-19T08:30:01.000Z</time>
      </trkpt>
      <trkpt lat="49.86894" lon="4.76602">
        <ele>285</ele>
        <time>2022-08-19T08:30:02.000Z</time>
      </trkpt>
      <trkpt lat="49.86894" lon="4.76605">
        <ele>285</ele>
        <time>2022-08-19T08:30:03.000Z</time>
      </trkpt>
      <trkpt lat="49.86895" lon="4.76608">
        <ele>285</ele>
        <time>2022-08-19T08:30:04.000Z</time>
      </trkpt>
      <trkpt lat="49.86895" lon="4.76611">
        <ele>284</ele>
        <time>2022-08-19T08:30:05.000Z</time>
      </trkpt>
      <trkpt lat="49.86895" lon="4.76615">
        <ele>284</ele>
        <time>2022-08-19T08:30:06.000Z</time>
      </trkpt>
      <trkpt lat="49.86896" lon="4.76618">
        <ele>283</ele>
        <time>2022-08-19T08:30:07.000Z</time>
      </trkpt>
      <trkpt lat="49.86896" lon="4.76622">
        <ele>283</ele>
        <time>2022-08-19T08:30:08.000Z</time>
      </trkpt>
      <trkpt lat="49.86896" lon="4.76625">
        <ele>283</ele>
        <time>2022-08-19T08:30:09.000Z</time>
      </trkpt>
      <trkpt lat="49.86897" lon="4.76629">
        <ele>283</ele>
        <time>2022-08-19T08:30:10.000Z</time>
      </trkpt>
      <trkpt lat="49.86898" lon="4.76632">
        <ele>282</ele>
        <time>2022-08-19T08:30:11.000Z</time>
      </trkpt>
      <trkpt lat="49.86899" lon="4.76636">
        <ele>282</ele>
        <time>2022-08-19T08:30:12.000Z</time>
      </trkpt>
      <trkpt lat="49.869" lon="4.76639">
        <ele>282</ele>
        <time>2022-08-19T08:30:13.000Z</time>
      </trkpt>
      <trkpt lat="49.86901" lon="4.76643">
        <ele>282</ele>
        <time>2022-08-19T08:30:14.000Z</time>
      </trkpt>
      <trkpt lat="49.86902" lon="4.76647">
        <ele>281</ele>
        <time>2022-08-19T08:30:15.000Z</time>
      </trkpt>
      <trkpt lat="49.86903" lon="4.7665">
        <ele>281</ele>
        <time>2022-08-19T08:30:16.000Z</time>
      </trkpt>
      <trkpt lat="49.86904" lon="4.76653">
        <ele>281</ele>
        <time>2022-08-19T08:30:17.000Z</time>
      </trkpt>
      <trkpt lat="49.86905" lon="4.76656">
        <ele>281</ele>
        <time>2022-08-19T08:30:18.000Z</time>
      </trkpt>
      <trkpt lat="49.86906" lon="4.76659">
        <ele>281</ele>
        <time>2022-08-19T08:30:19.000Z</time>
      </trkpt>
      <trkpt lat="49.86907" lon="4.76662">
        <ele>280</ele>
        <time>2022-08-19T08:30:20.000Z</time>
      </trkpt>
      <trkpt lat="49.86908" lon="4.76666">
        <ele>280</ele>
        <time>2022-08-19T08:30:21.000Z</time>
      </trkpt>
      <trkpt lat="49.8691" lon="4.76669">
        <ele>280</ele>
        <time>2022-08-19T08:30:22.000Z</time>
      </trkpt>
      <trkpt lat="49.86911" lon="4.76672">
        <ele>280</ele>
        <time>2022-08-19T08:30:23.000Z</time>
      </trkpt>
      <trkpt lat="49.86912" lon="4.76675">
        <ele>280</ele>
        <time>2022-08-19T08:30:24.000Z</time>
      </trkpt>
      <trkpt lat="49.86913" lon="4.76678">
        <ele>280</ele>
        <time>2022-08-19T08:30:25.000Z</time>
      </trkpt>
      <trkpt lat="49.86913" lon="4.76681">
        <ele>280</ele>
        <time>2022-08-19T08:30:26.000Z</time>
      </trkpt>
      <trkpt lat="49.86914" lon="4.76684">
        <ele>280</ele>
        <time>2022-08-19T08:30:27.000Z</time>
      </trkpt>
      <trkpt lat="49.86915" lon="4.76687">
        <ele>280</ele>
        <time>2022-08-19T08:30:28.000Z</time>
      </trkpt>
      <trkpt lat="49.86915" lon="4.76689">
        <ele>280</ele>
        <time>2022-08-19T08:30:29.000Z</time>
      </trkpt>
      <trkpt lat="49.86916" lon="4.76692">
        <ele>280</ele>
        <time>2022-08-19T08:30:30.000Z</time>
      </trkpt>
      <trkpt lat="49.86917" lon="4.76695">
        <ele>280</ele>
        <time>2022-08-19T08:30:31.000Z</time>
      </trkpt>
      <trkpt lat="49.86917" lon="4.76698">
        <ele>279</ele>
        <time>2022-08-19T08:30:32.000Z</time>
      </trkpt>
      <trkpt lat="49.86918" lon="4.76701">
        <ele>279</ele>
        <time>2022-08-19T08:30:33.000Z</time>
      </trkpt>
      <trkpt lat="49.86919" lon="4.76704">
        <ele>279</ele>
        <time>2022-08-19T08:30:34.000Z</time>
      </trkpt>
      <trkpt lat="49.86919" lon="4.76707">
        <ele>280</ele>
        <time>2022-08-19T08:30:35.000Z</time>
      </trkpt>
      <trkpt lat="49.8692" lon="4.76709">
        <ele>280</ele>
        <time>2022-08-19T08:30:36.000Z</time>
      </trkpt>
      <trkpt lat="49.8692" lon="4.76712">
        <ele>280</ele>
        <time>2022-08-19T08:30:37.000Z</time>
      </trkpt>
      <trkpt lat="49.86922" lon="4.76715">
        <ele>280</ele>
        <time>2022-08-19T08:30:38.000Z</time>
      </trkpt>
      <trkpt lat="49.86923" lon="4.76718">
        <ele>280</ele>
        <time>2022-08-19T08:30:39.000Z</time>
      </trkpt>
      <trkpt lat="49.86924" lon="4.76722">
        <ele>280</ele>
        <time>2022-08-19T08:30:40.000Z</time>
      </trkpt>
      <trkpt lat="49.86924" lon="4.76725">
        <ele>280</ele>
        <time>2022-08-19T08:30:41.000Z</time>
      </trkpt>
      <trkpt lat="49.86925" lon="4.76729">
        <ele>281</ele>
        <time>2022-08-19T08:30:42.000Z</time>
      </trkpt>
      <trkpt lat="49.86926" lon="4.76732">
        <ele>281</ele>
        <time>2022-08-19T08:30:43.000Z</time>
      </trkpt>
      <trkpt lat="49.86926" lon="4.76735">
        <ele>281</ele>
        <time>2022-08-19T08:30:44.000Z</time>
      </trkpt>
      <trkpt lat="49.86927" lon="4.76738">
        <ele>281</ele>
        <time>2022-08-19T08:30:45.000Z</time>
      </trkpt>
      <trkpt lat="49.86928" lon="4.76741">
        <ele>281</ele>
        <time>2022-08-19T08:30:46.000Z</time>
      </trkpt>
      <trkpt lat="49.86929" lon="4.76744">
        <ele>281</ele>
        <time>2022-08-19T08:30:47.000Z</time>
      </trkpt>
      <trkpt lat="49.8693" lon="4.76747">
        <ele>281</ele>
        <time>2022-08-19T08:30:48.000Z</time>
      </trkpt>
      <trkpt lat="49.8693" lon="4.7675">
        <ele>281</ele>
        <time>2022-08-19T08:30:49.000Z</time>
      </trkpt>
      <trkpt lat="49.86931" lon="4.76751">
        <ele>282</ele>
        <time>2022-08-19T08:30:50.000Z</time>
      </trkpt>
      <trkpt lat="49.86932" lon="4.76752">
        <ele>282</ele>
        <time>2022-08-19T08:30:51.000Z</time>
      </trkpt>
      <trkpt lat="49.86932" lon="4.76752">
        <ele>282</ele>
        <time>2022-08-19T08:30:52.000Z</time>
      </trkpt>
      <trkpt lat="49.86933" lon="4.76753">
        <ele>282</ele>
        <time>2022-08-19T08:30:53.000Z</time>
      </trkpt>
      <trkpt lat="49.86933" lon="4.76754">
        <ele>282</ele>
        <time>2022-08-19T08:30:54.000Z</time>
      </trkpt>
      <trkpt lat="49.86934" lon="4.76755">
        <ele>283</ele>
        <time>2022-08-19T08:30:55.000Z</time>
      </trkpt>
      <trkpt lat="49.86934" lon="4.76755">
        <ele>283</ele>
        <time>2022-08-19T08:30:56.000Z</time>
      </trkpt>
      <trkpt lat="49.86934" lon="4.76756">
        <ele>283</ele>
        <time>2022-08-19T08:30:57.000Z</time>
      </trkpt>
      <trkpt lat="49.86934" lon="4.76756">
        <ele>283</ele>
        <time>2022-08-19T08:30:58.000Z</time>
      </trkpt>
      <trkpt lat="49.86935" lon="4.76757">
        <ele>283</ele>
        <time>2022-08-19T08:30:59.000Z</time>
      </trkpt>
      <trkpt lat="49.86935" lon="4.76757">
        <ele>283</ele>
        <time>2022-08-19T08:31:00.000Z</time>
      </trkpt>
      <trkpt lat="49.86935" lon="4.76758">
        <ele>284</ele>
        <time>2022-08-19T08:31:01.000Z</time>
      </trkpt>
      <trkpt lat="49.86935" lon="4.76758">
        <ele>284</ele>
        <time>2022-08-19T08:31:02.000Z</time>
      </trkpt>
      <trkpt lat="49.86936" lon="4.76758">
        <ele>284</ele>
        <time>2022-08-19T08:31:03.000Z</time>
      </trkpt>
      <trkpt lat="49.86936" lon="4.76759">
        <ele>284</ele>
        <time>2022-08-19T08:31:04.000Z</time>
      </trkpt>
      <trkpt lat="49.86936" lon="4.76759">
        <ele>284</ele>
        <time>2022-08-19T08:31:05.000Z</time>
      </trkpt>
      <trkpt lat="49.86936" lon="4.76759">
        <ele>284</ele>
        <time>2022-08-19T08:31:06.000Z</time>
      </trkpt>
      <trkpt lat="49.86936" lon="4.7676">
        <ele>284</ele>
        <time>2022-08-19T08:31:07.000Z</time>
      </trkpt>
      <trkpt lat="49.86936" lon="4.7676">
        <ele>284</ele>
        <time>2022-08-19T08:31:08.000Z</time>
      </trkpt>
      <trkpt lat="49.86936" lon="4.7676">
        <ele>284</ele>
        <time>2022-08-19T08:31:09.000Z</time>
      </trkpt>
      <trkpt lat="49.86937" lon="4.7676">
        <ele>285</ele>
        <time>2022-08-19T08:31:10.000Z</time>
      </trkpt>
      <trkpt lat="49.86937" lon="4.7676">
        <ele>285</ele>
        <time>2022-08-19T08:31:11.000Z</time>
      </trkpt>
      <trkpt lat="49.86937" lon="4.76761">
        <ele>285</ele>
        <time>2022-08-19T08:31:12.000Z</time>
      </trkpt>
      <trkpt lat="49.86937" lon="4.76761">
        <ele>285</ele>
        <time>2022-08-19T08:31:13.000Z</time>
      </trkpt>
      <trkpt lat="49.86937" lon="4.76761">
        <ele>285</ele>
        <time>2022-08-19T08:31:14.000Z</time>
      </trkpt>
      <trkpt lat="49.86937" lon="4.76761">
        <ele>285</ele>
        <time>2022-08-19T08:31:15.000Z</time>
      </trkpt>
      <trkpt lat="49.86937" lon="4.76761">
        <ele>285</ele>
        <time>2022-08-19T08:31:16.000Z</time>
      </trkpt>
      <trkpt lat="49.86937" lon="4.76761">
        <ele>285</ele>
        <time>2022-08-19T08:31:17.000Z</time>
      </trkpt>
      <trkpt lat="49.86937" lon="4.76761">
        <ele>285</ele>
        <time>2022-08-19T08:31:18.000Z</time>
      </trkpt>
      <trkpt lat="49.86938" lon="4.76761">
        <ele>285</ele>
        <time>2022-08-19T08:31:19.000Z</time>
      </trkpt>
      <trkpt lat="49.86938" lon="4.76762">
        <ele>285</ele>
        <time>2022-08-19T08:31:20.000Z</time>
      </trkpt>
      <trkpt lat="49.86938" lon="4.76762">
        <ele>285</ele>
        <time>2022-08-19T08:31:21.000Z</time>
      </trkpt>
      <trkpt lat="49.86938" lon="4.76762">
        <ele>285</ele>
        <time>2022-08-19T08:31:22.000Z</time>
      </trkpt>
      <trkpt lat="49.86938" lon="4.76762">
        <ele>285</ele>
        <time>2022-08-19T08:31:23.000Z</time>
      </trkpt>
      <trkpt lat="49.86938" lon="4.76762">
        <ele>285</ele>
        <time>2022-08-19T08:31:24.000Z</time>
      </trkpt>
      <trkpt lat="49.86938" lon="4.76762">
        <ele>286</ele>
        <time>2022-08-19T08:31:25.000Z</time>
      </trkpt>
      <trkpt lat="49.86938" lon="4.76762">
        <ele>286</ele>
        <time>2022-08-19T08:31:26.000Z</time>
      </trkpt>
      <trkpt lat="49.86938" lon="4.76762">
        <ele>286</ele>
        <time>2022-08-19T08:31:27.000Z</time>
      </trkpt>
      <trkpt lat="49.86938" lon="4.76762">
        <ele>286</ele>
        <time>2022-08-19T08:31:28.000Z</time>
      </trkpt>
      <trkpt lat="49.86939" lon="4.76762">
        <ele>286</ele>
        <time>2022-08-19T08:31:29.000Z</time>
      </trkpt>
      <trkpt lat="49.86939" lon="4.76762">
        <ele>286</ele>
        <time>2022-08-19T08:31:30.000Z</time>
      </trkpt>
      <trkpt lat="49.86939" lon="4.76762">
        <ele>286</ele>
        <time>2022-08-19T08:31:31.000Z</time>
      </trkpt>
      <trkpt lat="49.86939" lon="4.76762">
        <ele>286</ele>
        <time>2022-08-19T08:31:32.000Z</time>
      </trkpt>
      <trkpt lat="49.86939" lon="4.76762">
        <ele>286</ele>
        <time>2022-08-19T08:31:33.000Z</time>
      </trkpt>
      <trkpt lat="49.86939" lon="4.76762">
        <ele>286</ele>
        <time>2022-08-19T08:31:34.000Z</time>
      </trkpt>
      <trkpt lat="49.86939" lon="4.76762">
        <ele>286</ele>
        <time>2022-08-19T08:31:35.000Z</time>
      </trkpt>
      <trkpt lat="49.86939" lon="4.76762">
        <ele>286</ele>
        <time>2022-08-19T08:31:36.000Z</time>
      </trkpt>
      <trkpt lat="49.86939" lon="4.76762">
        <ele>286</ele>
        <time>2022-08-19T08:31:37.000Z</time>
      </trkpt>
      <trkpt lat="49.86939" lon="4.76762">
        <ele>286</ele>
        <time>2022-08-19T08:31:38.000Z</time>
      </trkpt>
      <trkpt lat="49.86939" lon="4.76762">
        <ele>286</ele>
        <time>2022-08-19T08:31:39.000Z</time>
      </trkpt>
      <trkpt lat="49.86939" lon="4.76762">
        <ele>286</ele>
        <time>2022-08-19T08:31:40.000Z</time>
      </trkpt>
      <trkpt lat="49.86939" lon="4.76762">
        <ele>286</ele>
        <time>2022-08-19T08:31:41.000Z</time>
      </trkpt>
      <trkpt lat="49.86939" lon="4.76762">
        <ele>286</ele>
        <time>2022-08-19T08:31:42.000Z</time>
      </trkpt>
      <trkpt lat="49.86939" lon="4.76762">
        <ele>286</ele>
        <time>2022-08-19T08:31:43.000Z</time>
      </trkpt>
      <trkpt lat="49.86939" lon="4.76762">
        <ele>286</ele>
        <time>2022-08-19T08:31:44.000Z</time>
      </trkpt>
      <trkpt lat="49.86939" lon="4.76762">
        <ele>286</ele>
        <time>2022-08-19T08:31:45.000Z</time>
      </trkpt>
      <trkpt lat="49.86939" lon="4.76762">
        <ele>286</ele>
        <time>2022-08-19T08:31:46.000Z</time>
      </trkpt>
      <trkpt lat="49.86939" lon="4.76762">
        <ele>286</ele>
        <time>2022-08-19T08:31:47.000Z</time>
      </trkpt>
      <trkpt lat="49.86939" lon="4.76762">
        <ele>286</ele>
        <time>2022-08-19T08:31:48.000Z</time>
      </trkpt>
      <trkpt lat="49.86939" lon="4.76762">
        <ele>286</ele>
        <time>2022-08-19T08:31:49.000Z</time>
      </trkpt>
      <trkpt lat="49.86939" lon="4.76762">
        <ele>286</ele>
        <time>2022-08-19T08:31:50.000Z</time>
      </trkpt>
      <trkpt lat="49.86939" lon="4.76762">
        <ele>287</ele>
        <time>2022-08-19T08:31:51.000Z</time>
      </trkpt>
      <trkpt lat="49.8694" lon="4.76762">
        <ele>287</ele>
        <time>2022-08-19T08:31:52.000Z</time>
      </trkpt>
      <trkpt lat="49.8694" lon="4.76762">
        <ele>287</ele>
        <time>2022-08-19T08:31:53.000Z</time>
      </trkpt>
      <trkpt lat="49.8694" lon="4.76762">
        <ele>287</ele>
        <time>2022-08-19T08:31:54.000Z</time>
      </trkpt>
      <trkpt lat="49.8694" lon="4.76762">
        <ele>287</ele>
        <time>2022-08-19T08:31:55.000Z</time>
      </trkpt>
      <trkpt lat="49.8694" lon="4.76762">
        <ele>287</ele>
        <time>2022-08-19T08:31:56.000Z</time>
      </trkpt>
      <trkpt lat="49.8694" lon="4.76762">
        <ele>287</ele>
        <time>2022-08-19T08:31:57.000Z</time>
      </trkpt>
      <trkpt lat="49.8694" lon="4.76762">
        <ele>287</ele>
        <time>2022-08-19T08:31:58.000Z</time>
      </trkpt>
      <trkpt lat="49.8694" lon="4.76762">
        <ele>287</ele>
        <time>2022-08-19T08:31:59.000Z</time>
      </trkpt>
      <trkpt lat="49.8694" lon="4.76762">
        <ele>287</ele>
        <time>2022-08-19T08:32:00.000Z</time>
      </trkpt>
      <trkpt lat="49.8694" lon="4.76762">
        <ele>287</ele>
        <time>2022-08-19T08:32:01.000Z</time>
      </trkpt>
      <trkpt lat="49.8694" lon="4.76762">
        <ele>288</ele>
        <time>2022-08-19T08:32:02.000Z</time>
      </trkpt>
      <trkpt lat="49.8694" lon="4.76762">
        <ele>288</ele>
        <time>2022-08-19T08:32:03.000Z</time>
      </trkpt>
      <trkpt lat="49.8694" lon="4.76762">
        <ele>288</ele>
        <time>2022-08-19T08:32:04.000Z</time>
      </trkpt>
      <trkpt lat="49.8694" lon="4.76762">
        <ele>288</ele>
        <time>2022-08-19T08:32:05.000Z</time>
      </trkpt>
      <trkpt lat="49.8694" lon="4.76762">
        <ele>288</ele>
        <time>2022-08-19T08:32:06.000Z</time>
      </trkpt>
      <trkpt lat="49.8694" lon="4.76762">
        <ele>288</ele>
        <time>2022-08-19T08:32:07.000Z</time>
      </trkpt>
      <trkpt lat="49.8694" lon="4.76762">
        <ele>288</ele>
        <time>2022-08-19T08:32:08.000Z</time>
      </trkpt>
      <trkpt lat="49.86941" lon="4.76763">
        <ele>288</ele>
        <time>2022-08-19T08:32:09.000Z</time>
      </trkpt>
      <trkpt lat="49.86941" lon="4.76763">
        <ele>288</ele>
        <time>2022-08-19T08:32:10.000Z</time>
      </trkpt>
      <trkpt lat="49.86941" lon="4.76762">
        <ele>288</ele>
        <time>2022-08-19T08:32:11.000Z</time>
      </trkpt>
      <trkpt lat="49.86941" lon="4.76762">
        <ele>288</ele>
        <time>2022-08-19T08:32:12.000Z</time>
      </trkpt>
      <trkpt lat="49.86941" lon="4.76763">
        <ele>288</ele>
        <time>2022-08-19T08:32:13.000Z</time>
      </trkpt>
      <trkpt lat="49.86941" lon="4.76764">
        <ele>288</ele>
        <time>2022-08-19T08:32:14.000Z</time>
      </trkpt>
      <trkpt lat="49.86941" lon="4.76766">
        <ele>289</ele>
        <time>2022-08-19T08:32:15.000Z</time>
      </trkpt>
      <trkpt lat="49.86941" lon="4.76768">
        <ele>289</ele>
        <time>2022-08-19T08:32:16.000Z</time>
      </trkpt>
      <trkpt lat="49.86941" lon="4.7677">
        <ele>289</ele>
        <time>2022-08-19T08:32:17.000Z</time>
      </trkpt>
      <trkpt lat="49.86941" lon="4.76772">
        <ele>289</ele>
        <time>2022-08-19T08:32:18.000Z</time>
      </trkpt>
      <trkpt lat="49.86941" lon="4.76775">
        <ele>289</ele>
        <time>2022-08-19T08:32:19.000Z</time>
      </trkpt>
      <trkpt lat="49.86942" lon="4.76778">
        <ele>289</ele>
        <time>2022-08-19T08:32:20.000Z</time>
      </trkpt>
      <trkpt lat="49.86942" lon="4.7678">
        <ele>290</ele>
        <time>2022-08-19T08:32:21.000Z</time>
      </trkpt>
      <trkpt lat="49.86943" lon="4.76783">
        <ele>289</ele>
        <time>2022-08-19T08:32:22.000Z</time>
      </trkpt>
      <trkpt lat="49.86943" lon="4.76786">
        <ele>289</ele>
        <time>2022-08-19T08:32:23.000Z</time>
      </trkpt>
      <trkpt lat="49.86944" lon="4.76789">
        <ele>289</ele>
        <time>2022-08-19T08:32:24.000Z</time>
      </trkpt>
      <trkpt lat="49.86945" lon="4.76792">
        <ele>289</ele>
        <time>2022-08-19T08:32:25.000Z</time>
      </trkpt>
      <trkpt lat="49.86946" lon="4.76794">
        <ele>289</ele>
        <time>2022-08-19T08:32:26.000Z</time>
      </trkpt>
      <trkpt lat="49.86947" lon="4.76797">
        <ele>289</ele>
        <time>2022-08-19T08:32:27.000Z</time>
      </trkpt>
      <trkpt lat="49.86948" lon="4.76799">
        <ele>289</ele>
        <time>2022-08-19T08:32:28.000Z</time>
      </trkpt>
      <trkpt lat="49.86948" lon="4.76801">
        <ele>289</ele>
        <time>2022-08-19T08:32:29.000Z</time>
      </trkpt>
      <trkpt lat="49.86948" lon="4.76802">
        <ele>289</ele>
        <time>2022-08-19T08:32:30.000Z</time>
      </trkpt>
      <trkpt lat="49.86949" lon="4.76804">
        <ele>289</ele>
        <time>2022-08-19T08:32:31.000Z</time>
      </trkpt>
      <trkpt lat="49.86949" lon="4.76806">
        <ele>289</ele>
        <time>2022-08-19T08:32:32.000Z</time>
      </trkpt>
      <trkpt lat="49.8695" lon="4.76809">
        <ele>289</ele>
        <time>2022-08-19T08:32:33.000Z</time>
      </trkpt>
      <trkpt lat="49.8695" lon="4.76812">
        <ele>289</ele>
        <time>2022-08-19T08:32:34.000Z</time>
      </trkpt>
      <trkpt lat="49.8695" lon="4.76815">
        <ele>288</ele>
        <time>2022-08-19T08:32:35.000Z</time>
      </trkpt>
      <trkpt lat="49.86951" lon="4.76819">
        <ele>288</ele>
        <time>2022-08-19T08:32:36.000Z</time>
      </trkpt>
      <trkpt lat="49.86952" lon="4.76821">
        <ele>288</ele>
        <time>2022-08-19T08:32:37.000Z</time>
      </trkpt>
      <trkpt lat="49.86953" lon="4.76824">
        <ele>288</ele>
        <time>2022-08-19T08:32:38.000Z</time>
      </trkpt>
      <trkpt lat="49.86953" lon="4.76826">
        <ele>288</ele>
        <time>2022-08-19T08:32:39.000Z</time>
      </trkpt>
      <trkpt lat="49.86954" lon="4.76828">
        <ele>288</ele>
        <time>2022-08-19T08:32:40.000Z</time>
      </trkpt>
      <trkpt lat="49.86954" lon="4.76831">
        <ele>288</ele>
        <time>2022-08-19T08:32:41.000Z</time>
      </trkpt>
      <trkpt lat="49.86955" lon="4.76833">
        <ele>288</ele>
        <time>2022-08-19T08:32:42.000Z</time>
      </trkpt>
      <trkpt lat="49.86955" lon="4.76835">
        <ele>289</ele>
        <time>2022-08-19T08:32:43.000Z</time>
      </trkpt>
      <trkpt lat="49.86955" lon="4.76838">
        <ele>289</ele>
        <time>2022-08-19T08:32:44.000Z</time>
      </trkpt>
      <trkpt lat="49.86956" lon="4.7684">
        <ele>289</ele>
        <time>2022-08-19T08:32:45.000Z</time>
      </trkpt>
      <trkpt lat="49.86956" lon="4.76843">
        <ele>290</ele>
        <time>2022-08-19T08:32:46.000Z</time>
      </trkpt>
      <trkpt lat="49.86956" lon="4.76845">
        <ele>290</ele>
        <time>2022-08-19T08:32:47.000Z</time>
      </trkpt>
      <trkpt lat="49.86957" lon="4.76846">
        <ele>290</ele>
        <time>2022-08-19T08:32:48.000Z</time>
      </trkpt>
      <trkpt lat="49.86957" lon="4.76849">
        <ele>291</ele>
        <time>2022-08-19T08:32:49.000Z</time>
      </trkpt>
      <trkpt lat="49.86958" lon="4.76852">
        <ele>291</ele>
        <time>2022-08-19T08:32:50.000Z</time>
      </trkpt>
      <trkpt lat="49.86958" lon="4.76854">
        <ele>291</ele>
        <time>2022-08-19T08:32:51.000Z</time>
      </trkpt>
      <trkpt lat="49.86959" lon="4.76856">
        <ele>292</ele>
        <time>2022-08-19T08:32:52.000Z</time>
      </trkpt>
      <trkpt lat="49.86959" lon="4.76858">
        <ele>292</ele>
        <time>2022-08-19T08:32:53.000Z</time>
      </trkpt>
      <trkpt lat="49.8696" lon="4.7686">
        <ele>292</ele>
        <time>2022-08-19T08:32:54.000Z</time>
      </trkpt>
      <trkpt lat="49.8696" lon="4.76862">
        <ele>292</ele>
        <time>2022-08-19T08:32:55.000Z</time>
      </trkpt>
      <trkpt lat="49.8696" lon="4.76864">
        <ele>292</ele>
        <time>2022-08-19T08:32:56.000Z</time>
      </trkpt>
      <trkpt lat="49.86961" lon="4.76866">
        <ele>293</ele>
        <time>2022-08-19T08:32:57.000Z</time>
      </trkpt>
      <trkpt lat="49.86962" lon="4.76868">
        <ele>293</ele>
        <time>2022-08-19T08:32:58.000Z</time>
      </trkpt>
      <trkpt lat="49.86963" lon="4.76871">
        <ele>293</ele>
        <time>2022-08-19T08:32:59.000Z</time>
      </trkpt>
      <trkpt lat="49.86964" lon="4.76873">
        <ele>293</ele>
        <time>2022-08-19T08:33:00.000Z</time>
      </trkpt>
      <trkpt lat="49.86964" lon="4.76875">
        <ele>293</ele>
        <time>2022-08-19T08:33:01.000Z</time>
      </trkpt>
      <trkpt lat="49.86965" lon="4.76877">
        <ele>294</ele>
        <time>2022-08-19T08:33:02.000Z</time>
      </trkpt>
      <trkpt lat="49.86966" lon="4.76879">
        <ele>294</ele>
        <time>2022-08-19T08:33:03.000Z</time>
      </trkpt>
      <trkpt lat="49.86966" lon="4.76882">
        <ele>294</ele>
        <time>2022-08-19T08:33:04.000Z</time>
      </trkpt>
      <trkpt lat="49.86966" lon="4.76884">
        <ele>294</ele>
        <time>2022-08-19T08:33:05.000Z</time>
      </trkpt>
      <trkpt lat="49.86966" lon="4.76886">
        <ele>295</ele>
        <time>2022-08-19T08:33:06.000Z</time>
      </trkpt>
      <trkpt lat="49.86967" lon="4.76888">
        <ele>295</ele>
        <time>2022-08-19T08:33:07.000Z</time>
      </trkpt>
      <trkpt lat="49.86967" lon="4.76891">
        <ele>295</ele>
        <time>2022-08-19T08:33:08.000Z</time>
      </trkpt>
      <trkpt lat="49.86967" lon="4.76893">
        <ele>295</ele>
        <time>2022-08-19T08:33:09.000Z</time>
      </trkpt>
      <trkpt lat="49.86968" lon="4.76895">
        <ele>295</ele>
        <time>2022-08-19T08:33:10.000Z</time>
      </trkpt>
      <trkpt lat="49.86968" lon="4.76897">
        <ele>296</ele>
        <time>2022-08-19T08:33:11.000Z</time>
      </trkpt>
      <trkpt lat="49.86969" lon="4.769">
        <ele>296</ele>
        <time>2022-08-19T08:33:12.000Z</time>
      </trkpt>
      <trkpt lat="49.8697" lon="4.76902">
        <ele>296</ele>
        <time>2022-08-19T08:33:13.000Z</time>
      </trkpt>
      <trkpt lat="49.8697" lon="4.76904">
        <ele>296</ele>
        <time>2022-08-19T08:33:14.000Z</time>
      </trkpt>
      <trkpt lat="49.86971" lon="4.76906">
        <ele>296</ele>
        <time>2022-08-19T08:33:15.000Z</time>
      </trkpt>
      <trkpt lat="49.86972" lon="4.76909">
        <ele>297</ele>
        <time>2022-08-19T08:33:16.000Z</time>
      </trkpt>
      <trkpt lat="49.86972" lon="4.76911">
        <ele>297</ele>
        <time>2022-08-19T08:33:17.000Z</time>
      </trkpt>
      <trkpt lat="49.86972" lon="4.76913">
        <ele>297</ele>
        <time>2022-08-19T08:33:18.000Z</time>
      </trkpt>
      <trkpt lat="49.86973" lon="4.76915">
        <ele>297</ele>
        <time>2022-08-19T08:33:19.000Z</time>
      </trkpt>
      <trkpt lat="49.86973" lon="4.76918">
        <ele>298</ele>
        <time>2022-08-19T08:33:20.000Z</time>
      </trkpt>
      <trkpt lat="49.86973" lon="4.7692">
        <ele>298</ele>
        <time>2022-08-19T08:33:21.000Z</time>
      </trkpt>
      <trkpt lat="49.86973" lon="4.76922">
        <ele>298</ele>
        <time>2022-08-19T08:33:22.000Z</time>
      </trkpt>
      <trkpt lat="49.86974" lon="4.76925">
        <ele>298</ele>
        <time>2022-08-19T08:33:23.000Z</time>
      </trkpt>
      <trkpt lat="49.86974" lon="4.76927">
        <ele>298</ele>
        <time>2022-08-19T08:33:24.000Z</time>
      </trkpt>
      <trkpt lat="49.86975" lon="4.7693">
        <ele>299</ele>
        <time>2022-08-19T08:33:25.000Z</time>
      </trkpt>
      <trkpt lat="49.86975" lon="4.76933">
        <ele>299</ele>
        <time>2022-08-19T08:33:26.000Z</time>
      </trkpt>
      <trkpt lat="49.86975" lon="4.76936">
        <ele>299</ele>
        <time>2022-08-19T08:33:27.000Z</time>
      </trkpt>
      <trkpt lat="49.86976" lon="4.76939">
        <ele>299</ele>
        <time>2022-08-19T08:33:28.000Z</time>
      </trkpt>
      <trkpt lat="49.86977" lon="4.76942">
        <ele>299</ele>
        <time>2022-08-19T08:33:29.000Z</time>
      </trkpt>
      <trkpt lat="49.86977" lon="4.76944">
        <ele>299</ele>
        <time>2022-08-19T08:33:30.000Z</time>
      </trkpt>
      <trkpt lat="49.86978" lon="4.76946">
        <ele>300</ele>
        <time>2022-08-19T08:33:31.000Z</time>
      </trkpt>
      <trkpt lat="49.86978" lon="4.76949">
        <ele>300</ele>
        <time>2022-08-19T08:33:32.000Z</time>
      </trkpt>
      <trkpt lat="49.86978" lon="4.76952">
        <ele>300</ele>
        <time>2022-08-19T08:33:33.000Z</time>
      </trkpt>
      <trkpt lat="49.86979" lon="4.76955">
        <ele>300</ele>
        <time>2022-08-19T08:33:34.000Z</time>
      </trkpt>
      <trkpt lat="49.8698" lon="4.76958">
        <ele>300</ele>
        <time>2022-08-19T08:33:35.000Z</time>
      </trkpt>
      <trkpt lat="49.86981" lon="4.76961">
        <ele>300</ele>
        <time>2022-08-19T08:33:36.000Z</time>
      </trkpt>
      <trkpt lat="49.86982" lon="4.76964">
        <ele>300</ele>
        <time>2022-08-19T08:33:37.000Z</time>
      </trkpt>
      <trkpt lat="49.86983" lon="4.76967">
        <ele>300</ele>
        <time>2022-08-19T08:33:38.000Z</time>
      </trkpt>
      <trkpt lat="49.86984" lon="4.7697">
        <ele>300</ele>
        <time>2022-08-19T08:33:39.000Z</time>
      </trkpt>
      <trkpt lat="49.86986" lon="4.76972">
        <ele>300</ele>
        <time>2022-08-19T08:33:40.000Z</time>
      </trkpt>
      <trkpt lat="49.86987" lon="4.76975">
        <ele>300</ele>
        <time>2022-08-19T08:33:41.000Z</time>
      </trkpt>
      <trkpt lat="49.86988" lon="4.76977">
        <ele>300</ele>
        <time>2022-08-19T08:33:42.000Z</time>
      </trkpt>
      <trkpt lat="49.86989" lon="4.7698">
        <ele>300</ele>
        <time>2022-08-19T08:33:43.000Z</time>
      </trkpt>
      <trkpt lat="49.8699" lon="4.76983">
        <ele>300</ele>
        <time>2022-08-19T08:33:44.000Z</time>
      </trkpt>
      <trkpt lat="49.86991" lon="4.76986">
        <ele>301</ele>
        <time>2022-08-19T08:33:45.000Z</time>
      </trkpt>
      <trkpt lat="49.86992" lon="4.76989">
        <ele>301</ele>
        <time>2022-08-19T08:33:46.000Z</time>
      </trkpt>
      <trkpt lat="49.86992" lon="4.76992">
        <ele>301</ele>
        <time>2022-08-19T08:33:47.000Z</time>
      </trkpt>
      <trkpt lat="49.86993" lon="4.76996">
        <ele>301</ele>
        <time>2022-08-19T08:33:48.000Z</time>
      </trkpt>
      <trkpt lat="49.86994" lon="4.76999">
        <ele>301</ele>
        <time>2022-08-19T08:33:49.000Z</time>
      </trkpt>
      <trkpt lat="49.86994" lon="4.77002">
        <ele>301</ele>
        <time>2022-08-19T08:33:50.000Z</time>
      </trkpt>
      <trkpt lat="49.86994" lon="4.77005">
        <ele>302</ele>
        <time>2022-08-19T08:33:51.000Z</time>
      </trkpt>
      <trkpt lat="49.86995" lon="4.77009">
        <ele>302</ele>
        <time>2022-08-19T08:33:52.000Z</time>
      </trkpt>
      <trkpt lat="49.86995" lon="4.77012">
        <ele>302</ele>
        <time>2022-08-19T08:33:53.000Z</time>
      </trkpt>
      <trkpt lat="49.86996" lon="4.77015">
        <ele>302</ele>
        <time>2022-08-19T08:33:54.000Z</time>
      </trkpt>
      <trkpt lat="49.86996" lon="4.77018">
        <ele>302</ele>
        <time>2022-08-19T08:33:55.000Z</time>
      </trkpt>
      <trkpt lat="49.86996" lon="4.77021">
        <ele>302</ele>
        <time>2022-08-19T08:33:56.000Z</time>
      </trkpt>
      <trkpt lat="49.86996" lon="4.77023">
        <ele>302</ele>
        <time>2022-08-19T08:33:57.000Z</time>
      </trkpt>
      <trkpt lat="49.86997" lon="4.77027">
        <ele>302</ele>
        <time>2022-08-19T08:33:58.000Z</time>
      </trkpt>
      <trkpt lat="49.86997" lon="4.77029">
        <ele>302</ele>
        <time>2022-08-19T08:33:59.000Z</time>
      </trkpt>
      <trkpt lat="49.86998" lon="4.77032">
        <ele>302</ele>
        <time>2022-08-19T08:34:00.000Z</time>
      </trkpt>
      <trkpt lat="49.86999" lon="4.77034">
        <ele>302</ele>
        <time>2022-08-19T08:34:01.000Z</time>
      </trkpt>
      <trkpt lat="49.87" lon="4.77037">
        <ele>302</ele>
        <time>2022-08-19T08:34:02.000Z</time>
      </trkpt>
      <trkpt lat="49.87001" lon="4.7704">
        <ele>303</ele>
        <time>2022-08-19T08:34:03.000Z</time>
      </trkpt>
      <trkpt lat="49.87002" lon="4.77043">
        <ele>303</ele>
        <time>2022-08-19T08:34:04.000Z</time>
      </trkpt>
      <trkpt lat="49.87003" lon="4.77046">
        <ele>303</ele>
        <time>2022-08-19T08:34:05.000Z</time>
      </trkpt>
      <trkpt lat="49.87004" lon="4.77048">
        <ele>303</ele>
        <time>2022-08-19T08:34:06.000Z</time>
      </trkpt>
      <trkpt lat="49.87005" lon="4.77051">
        <ele>304</ele>
        <time>2022-08-19T08:34:07.000Z</time>
      </trkpt>
      <trkpt lat="49.87005" lon="4.77054">
        <ele>304</ele>
        <time>2022-08-19T08:34:08.000Z</time>
      </trkpt>
      <trkpt lat="49.87004" lon="4.77058">
        <ele>304</ele>
        <time>2022-08-19T08:34:09.000Z</time>
      </trkpt>
      <trkpt lat="49.87003" lon="4.77061">
        <ele>304</ele>
        <time>2022-08-19T08:34:10.000Z</time>
      </trkpt>
      <trkpt lat="49.87002" lon="4.77065">
        <ele>304</ele>
        <time>2022-08-19T08:34:11.000Z</time>
      </trkpt>
      <trkpt lat="49.87" lon="4.77069">
        <ele>304</ele>
        <time>2022-08-19T08:34:12.000Z</time>
      </trkpt>
      <trkpt lat="49.86998" lon="4.77072">
        <ele>305</ele>
        <time>2022-08-19T08:34:13.000Z</time>
      </trkpt>
      <trkpt lat="49.86997" lon="4.77075">
        <ele>305</ele>
        <time>2022-08-19T08:34:14.000Z</time>
      </trkpt>
      <trkpt lat="49.86995" lon="4.7708">
        <ele>305</ele>
        <time>2022-08-19T08:34:15.000Z</time>
      </trkpt>
      <trkpt lat="49.86993" lon="4.77084">
        <ele>305</ele>
        <time>2022-08-19T08:34:16.000Z</time>
      </trkpt>
      <trkpt lat="49.86991" lon="4.77087">
        <ele>305</ele>
        <time>2022-08-19T08:34:17.000Z</time>
      </trkpt>
      <trkpt lat="49.8699" lon="4.77091">
        <ele>306</ele>
        <time>2022-08-19T08:34:18.000Z</time>
      </trkpt>
      <trkpt lat="49.86988" lon="4.77095">
        <ele>306</ele>
        <time>2022-08-19T08:34:19.000Z</time>
      </trkpt>
      <trkpt lat="49.86987" lon="4.77098">
        <ele>306</ele>
        <time>2022-08-19T08:34:20.000Z</time>
      </trkpt>
      <trkpt lat="49.86985" lon="4.77103">
        <ele>306</ele>
        <time>2022-08-19T08:34:21.000Z</time>
      </trkpt>
      <trkpt lat="49.86984" lon="4.77107">
        <ele>306</ele>
        <time>2022-08-19T08:34:22.000Z</time>
      </trkpt>
      <trkpt lat="49.86982" lon="4.77111">
        <ele>306</ele>
        <time>2022-08-19T08:34:23.000Z</time>
      </trkpt>
      <trkpt lat="49.8698" lon="4.77115">
        <ele>306</ele>
        <time>2022-08-19T08:34:24.000Z</time>
      </trkpt>
      <trkpt lat="49.86978" lon="4.77118">
        <ele>306</ele>
        <time>2022-08-19T08:34:25.000Z</time>
      </trkpt>
      <trkpt lat="49.86975" lon="4.77122">
        <ele>306</ele>
        <time>2022-08-19T08:34:26.000Z</time>
      </trkpt>
      <trkpt lat="49.86973" lon="4.77126">
        <ele>306</ele>
        <time>2022-08-19T08:34:27.000Z</time>
      </trkpt>
      <trkpt lat="49.86971" lon="4.7713">
        <ele>306</ele>
        <time>2022-08-19T08:34:28.000Z</time>
      </trkpt>
      <trkpt lat="49.86969" lon="4.77133">
        <ele>306</ele>
        <time>2022-08-19T08:34:29.000Z</time>
      </trkpt>
      <trkpt lat="49.86967" lon="4.77137">
        <ele>306</ele>
        <time>2022-08-19T08:34:30.000Z</time>
      </trkpt>
      <trkpt lat="49.86965" lon="4.77139">
        <ele>306</ele>
        <time>2022-08-19T08:34:31.000Z</time>
      </trkpt>
      <trkpt lat="49.86963" lon="4.77143">
        <ele>306</ele>
        <time>2022-08-19T08:34:32.000Z</time>
      </trkpt>
      <trkpt lat="49.86961" lon="4.77146">
        <ele>306</ele>
        <time>2022-08-19T08:34:33.000Z</time>
      </trkpt>
      <trkpt lat="49.86959" lon="4.7715">
        <ele>306</ele>
        <time>2022-08-19T08:34:34.000Z</time>
      </trkpt>
      <trkpt lat="49.86958" lon="4.77154">
        <ele>306</ele>
        <time>2022-08-19T08:34:35.000Z</time>
      </trkpt>
      <trkpt lat="49.86956" lon="4.77158">
        <ele>307</ele>
        <time>2022-08-19T08:34:36.000Z</time>
      </trkpt>
      <trkpt lat="49.86954" lon="4.77162">
        <ele>307</ele>
        <time>2022-08-19T08:34:37.000Z</time>
      </trkpt>
      <trkpt lat="49.86952" lon="4.77165">
        <ele>307</ele>
        <time>2022-08-19T08:34:38.000Z</time>
      </trkpt>
      <trkpt lat="49.86951" lon="4.77169">
        <ele>307</ele>
        <time>2022-08-19T08:34:39.000Z</time>
      </trkpt>
      <trkpt lat="49.8695" lon="4.77172">
        <ele>307</ele>
        <time>2022-08-19T08:34:40.000Z</time>
      </trkpt>
      <trkpt lat="49.86949" lon="4.77176">
        <ele>307</ele>
        <time>2022-08-19T08:34:41.000Z</time>
      </trkpt>
      <trkpt lat="49.86948" lon="4.77179">
        <ele>307</ele>
        <time>2022-08-19T08:34:42.000Z</time>
      </trkpt>
      <trkpt lat="49.86948" lon="4.77181">
        <ele>307</ele>
        <time>2022-08-19T08:34:43.000Z</time>
      </trkpt>
      <trkpt lat="49.86947" lon="4.77184">
        <ele>308</ele>
        <time>2022-08-19T08:34:44.000Z</time>
      </trkpt>
      <trkpt lat="49.86946" lon="4.77187">
        <ele>308</ele>
        <time>2022-08-19T08:34:45.000Z</time>
      </trkpt>
      <trkpt lat="49.86945" lon="4.7719">
        <ele>308</ele>
        <time>2022-08-19T08:34:46.000Z</time>
      </trkpt>
      <trkpt lat="49.86944" lon="4.77194">
        <ele>308</ele>
        <time>2022-08-19T08:34:47.000Z</time>
      </trkpt>
      <trkpt lat="49.86943" lon="4.77198">
        <ele>309</ele>
        <time>2022-08-19T08:34:48.000Z</time>
      </trkpt>
      <trkpt lat="49.86942" lon="4.77201">
        <ele>309</ele>
        <time>2022-08-19T08:34:49.000Z</time>
      </trkpt>
      <trkpt lat="49.8694" lon="4.77205">
        <ele>309</ele>
        <time>2022-08-19T08:34:50.000Z</time>
      </trkpt>
      <trkpt lat="49.86939" lon="4.77208">
        <ele>310</ele>
        <time>2022-08-19T08:34:51.000Z</time>
      </trkpt>
      <trkpt lat="49.86938" lon="4.77212">
        <ele>310</ele>
        <time>2022-08-19T08:34:52.000Z</time>
      </trkpt>
      <trkpt lat="49.86937" lon="4.77215">
        <ele>310</ele>
        <time>2022-08-19T08:34:53.000Z</time>
      </trkpt>
      <trkpt lat="49.86936" lon="4.77219">
        <ele>311</ele>
        <time>2022-08-19T08:34:54.000Z</time>
      </trkpt>
      <trkpt lat="49.86936" lon="4.77222">
        <ele>311</ele>
        <time>2022-08-19T08:34:55.000Z</time>
      </trkpt>
      <trkpt lat="49.86935" lon="4.77226">
        <ele>312</ele>
        <time>2022-08-19T08:34:56.000Z</time>
      </trkpt>
      <trkpt lat="49.86934" lon="4.77229">
        <ele>312</ele>
        <time>2022-08-19T08:34:57.000Z</time>
      </trkpt>
      <trkpt lat="49.86934" lon="4.77233">
        <ele>312</ele>
        <time>2022-08-19T08:34:58.000Z</time>
      </trkpt>
      <trkpt lat="49.86933" lon="4.77237">
        <ele>313</ele>
        <time>2022-08-19T08:34:59.000Z</time>
      </trkpt>
      <trkpt lat="49.86933" lon="4.7724">
        <ele>313</ele>
        <time>2022-08-19T08:35:00.000Z</time>
      </trkpt>
      <trkpt lat="49.86932" lon="4.77244">
        <ele>313</ele>
        <time>2022-08-19T08:35:01.000Z</time>
      </trkpt>
      <trkpt lat="49.86932" lon="4.77247">
        <ele>313</ele>
        <time>2022-08-19T08:35:02.000Z</time>
      </trkpt>
      <trkpt lat="49.86931" lon="4.7725">
        <ele>313</ele>
        <time>2022-08-19T08:35:03.000Z</time>
      </trkpt>
      <trkpt lat="49.86929" lon="4.77253">
        <ele>314</ele>
        <time>2022-08-19T08:35:04.000Z</time>
      </trkpt>
      <trkpt lat="49.86928" lon="4.77256">
        <ele>314</ele>
        <time>2022-08-19T08:35:05.000Z</time>
      </trkpt>
      <trkpt lat="49.86928" lon="4.77259">
        <ele>314</ele>
        <time>2022-08-19T08:35:06.000Z</time>
      </trkpt>
      <trkpt lat="49.86927" lon="4.77262">
        <ele>314</ele>
        <time>2022-08-19T08:35:07.000Z</time>
      </trkpt>
      <trkpt lat="49.86926" lon="4.77264">
        <ele>314</ele>
        <time>2022-08-19T08:35:08.000Z</time>
      </trkpt>
      <trkpt lat="49.86925" lon="4.77267">
        <ele>314</ele>
        <time>2022-08-19T08:35:09.000Z</time>
      </trkpt>
      <trkpt lat="49.86924" lon="4.7727">
        <ele>315</ele>
        <time>2022-08-19T08:35:10.000Z</time>
      </trkpt>
      <trkpt lat="49.86923" lon="4.77274">
        <ele>315</ele>
        <time>2022-08-19T08:35:11.000Z</time>
      </trkpt>
      <trkpt lat="49.86922" lon="4.77277">
        <ele>315</ele>
        <time>2022-08-19T08:35:12.000Z</time>
      </trkpt>
      <trkpt lat="49.8692" lon="4.77279">
        <ele>315</ele>
        <time>2022-08-19T08:35:13.000Z</time>
      </trkpt>
      <trkpt lat="49.86918" lon="4.77282">
        <ele>315</ele>
        <time>2022-08-19T08:35:14.000Z</time>
      </trkpt>
      <trkpt lat="49.86917" lon="4.77284">
        <ele>315</ele>
        <time>2022-08-19T08:35:15.000Z</time>
      </trkpt>
      <trkpt lat="49.86915" lon="4.77287">
        <ele>316</ele>
        <time>2022-08-19T08:35:16.000Z</time>
      </trkpt>
      <trkpt lat="49.86914" lon="4.77289">
        <ele>316</ele>
        <time>2022-08-19T08:35:17.000Z</time>
      </trkpt>
      <trkpt lat="49.86913" lon="4.77291">
        <ele>316</ele>
        <time>2022-08-19T08:35:18.000Z</time>
      </trkpt>
      <trkpt lat="49.86912" lon="4.77293">
        <ele>316</ele>
        <time>2022-08-19T08:35:19.000Z</time>
      </trkpt>
      <trkpt lat="49.86911" lon="4.77294">
        <ele>316</ele>
        <time>2022-08-19T08:35:20.000Z</time>
      </trkpt>
      <trkpt lat="49.86909" lon="4.77295">
        <ele>316</ele>
        <time>2022-08-19T08:35:21.000Z</time>
      </trkpt>
      <trkpt lat="49.86907" lon="4.77296">
        <ele>316</ele>
        <time>2022-08-19T08:35:22.000Z</time>
      </trkpt>
      <trkpt lat="49.86905" lon="4.77297">
        <ele>316</ele>
        <time>2022-08-19T08:35:23.000Z</time>
      </trkpt>
      <trkpt lat="49.86904" lon="4.77299">
        <ele>317</ele>
        <time>2022-08-19T08:35:24.000Z</time>
      </trkpt>
      <trkpt lat="49.86903" lon="4.77301">
        <ele>317</ele>
        <time>2022-08-19T08:35:25.000Z</time>
      </trkpt>
      <trkpt lat="49.86903" lon="4.77304">
        <ele>317</ele>
        <time>2022-08-19T08:35:26.000Z</time>
      </trkpt>
      <trkpt lat="49.86902" lon="4.77307">
        <ele>316</ele>
        <time>2022-08-19T08:35:27.000Z</time>
      </trkpt>
      <trkpt lat="49.86901" lon="4.77311">
        <ele>316</ele>
        <time>2022-08-19T08:35:28.000Z</time>
      </trkpt>
      <trkpt lat="49.86899" lon="4.77314">
        <ele>316</ele>
        <time>2022-08-19T08:35:29.000Z</time>
      </trkpt>
      <trkpt lat="49.86898" lon="4.77318">
        <ele>316</ele>
        <time>2022-08-19T08:35:30.000Z</time>
      </trkpt>
      <trkpt lat="49.86897" lon="4.77322">
        <ele>316</ele>
        <time>2022-08-19T08:35:31.000Z</time>
      </trkpt>
      <trkpt lat="49.86897" lon="4.77327">
        <ele>316</ele>
        <time>2022-08-19T08:35:32.000Z</time>
      </trkpt>
      <trkpt lat="49.86896" lon="4.77332">
        <ele>316</ele>
        <time>2022-08-19T08:35:33.000Z</time>
      </trkpt>
      <trkpt lat="49.86896" lon="4.77337">
        <ele>316</ele>
        <time>2022-08-19T08:35:34.000Z</time>
      </trkpt>
      <trkpt lat="49.86896" lon="4.77341">
        <ele>317</ele>
        <time>2022-08-19T08:35:35.000Z</time>
      </trkpt>
      <trkpt lat="49.86896" lon="4.77346">
        <ele>317</ele>
        <time>2022-08-19T08:35:36.000Z</time>
      </trkpt>
      <trkpt lat="49.86895" lon="4.77352">
        <ele>317</ele>
        <time>2022-08-19T08:35:37.000Z</time>
      </trkpt>
      <trkpt lat="49.86895" lon="4.77357">
        <ele>317</ele>
        <time>2022-08-19T08:35:38.000Z</time>
      </trkpt>
      <trkpt lat="49.86894" lon="4.77362">
        <ele>317</ele>
        <time>2022-08-19T08:35:39.000Z</time>
      </trkpt>
      <trkpt lat="49.86894" lon="4.77367">
        <ele>318</ele>
        <time>2022-08-19T08:35:40.000Z</time>
      </trkpt>
      <trkpt lat="49.86895" lon="4.77371">
        <ele>318</ele>
        <time>2022-08-19T08:35:41.000Z</time>
      </trkpt>
      <trkpt lat="49.86894" lon="4.77375">
        <ele>318</ele>
        <time>2022-08-19T08:35:42.000Z</time>
      </trkpt>
      <trkpt lat="49.86894" lon="4.7738">
        <ele>318</ele>
        <time>2022-08-19T08:35:43.000Z</time>
      </trkpt>
      <trkpt lat="49.86894" lon="4.77385">
        <ele>318</ele>
        <time>2022-08-19T08:35:44.000Z</time>
      </trkpt>
      <trkpt lat="49.86893" lon="4.77389">
        <ele>318</ele>
        <time>2022-08-19T08:35:45.000Z</time>
      </trkpt>
      <trkpt lat="49.86893" lon="4.77393">
        <ele>318</ele>
        <time>2022-08-19T08:35:46.000Z</time>
      </trkpt>
      <trkpt lat="49.86892" lon="4.77396">
        <ele>318</ele>
        <time>2022-08-19T08:35:47.000Z</time>
      </trkpt>
      <trkpt lat="49.86892" lon="4.774">
        <ele>318</ele>
        <time>2022-08-19T08:35:48.000Z</time>
      </trkpt>
      <trkpt lat="49.86892" lon="4.77406">
        <ele>318</ele>
        <time>2022-08-19T08:35:49.000Z</time>
      </trkpt>
      <trkpt lat="49.86892" lon="4.77411">
        <ele>318</ele>
        <time>2022-08-19T08:35:50.000Z</time>
      </trkpt>
      <trkpt lat="49.86892" lon="4.77415">
        <ele>319</ele>
        <time>2022-08-19T08:35:51.000Z</time>
      </trkpt>
      <trkpt lat="49.86891" lon="4.77419">
        <ele>319</ele>
        <time>2022-08-19T08:35:52.000Z</time>
      </trkpt>
      <trkpt lat="49.86891" lon="4.77423">
        <ele>319</ele>
        <time>2022-08-19T08:35:53.000Z</time>
      </trkpt>
      <trkpt lat="49.86891" lon="4.77428">
        <ele>319</ele>
        <time>2022-08-19T08:35:54.000Z</time>
      </trkpt>
      <trkpt lat="49.86892" lon="4.77432">
        <ele>319</ele>
        <time>2022-08-19T08:35:55.000Z</time>
      </trkpt>
      <trkpt lat="49.86893" lon="4.77437">
        <ele>319</ele>
        <time>2022-08-19T08:35:56.000Z</time>
      </trkpt>
      <trkpt lat="49.86893" lon="4.77443">
        <ele>319</ele>
        <time>2022-08-19T08:35:57.000Z</time>
      </trkpt>
      <trkpt lat="49.86894" lon="4.77449">
        <ele>319</ele>
        <time>2022-08-19T08:35:58.000Z</time>
      </trkpt>
      <trkpt lat="49.86895" lon="4.77454">
        <ele>318</ele>
        <time>2022-08-19T08:35:59.000Z</time>
      </trkpt>
      <trkpt lat="49.86896" lon="4.7746">
        <ele>318</ele>
        <time>2022-08-19T08:36:00.000Z</time>
      </trkpt>
      <trkpt lat="49.86897" lon="4.77466">
        <ele>318</ele>
        <time>2022-08-19T08:36:01.000Z</time>
      </trkpt>
      <trkpt lat="49.86898" lon="4.77472">
        <ele>318</ele>
        <time>2022-08-19T08:36:02.000Z</time>
      </trkpt>
      <trkpt lat="49.86898" lon="4.77478">
        <ele>318</ele>
        <time>2022-08-19T08:36:03.000Z</time>
      </trkpt>
      <trkpt lat="49.86898" lon="4.77483">
        <ele>319</ele>
        <time>2022-08-19T08:36:04.000Z</time>
      </trkpt>
      <trkpt lat="49.86899" lon="4.77487">
        <ele>319</ele>
        <time>2022-08-19T08:36:05.000Z</time>
      </trkpt>
      <trkpt lat="49.869" lon="4.77492">
        <ele>319</ele>
        <time>2022-08-19T08:36:06.000Z</time>
      </trkpt>
      <trkpt lat="49.86902" lon="4.77497">
        <ele>319</ele>
        <time>2022-08-19T08:36:07.000Z</time>
      </trkpt>
      <trkpt lat="49.86904" lon="4.77503">
        <ele>320</ele>
        <time>2022-08-19T08:36:08.000Z</time>
      </trkpt>
      <trkpt lat="49.86905" lon="4.77509">
        <ele>320</ele>
        <time>2022-08-19T08:36:09.000Z</time>
      </trkpt>
      <trkpt lat="49.86907" lon="4.77514">
        <ele>320</ele>
        <time>2022-08-19T08:36:10.000Z</time>
      </trkpt>
      <trkpt lat="49.86909" lon="4.77519">
        <ele>321</ele>
        <time>2022-08-19T08:36:11.000Z</time>
      </trkpt>
      <trkpt lat="49.8691" lon="4.77523">
        <ele>321</ele>
        <time>2022-08-19T08:36:12.000Z</time>
      </trkpt>
      <trkpt lat="49.86912" lon="4.77528">
        <ele>321</ele>
        <time>2022-08-19T08:36:13.000Z</time>
      </trkpt>
      <trkpt lat="49.86914" lon="4.77532">
        <ele>321</ele>
        <time>2022-08-19T08:36:14.000Z</time>
      </trkpt>
      <trkpt lat="49.86915" lon="4.77537">
        <ele>322</ele>
        <time>2022-08-19T08:36:15.000Z</time>
      </trkpt>
      <trkpt lat="49.86917" lon="4.77541">
        <ele>322</ele>
        <time>2022-08-19T08:36:16.000Z</time>
      </trkpt>
      <trkpt lat="49.86919" lon="4.77545">
        <ele>322</ele>
        <time>2022-08-19T08:36:17.000Z</time>
      </trkpt>
      <trkpt lat="49.86921" lon="4.7755">
        <ele>323</ele>
        <time>2022-08-19T08:36:18.000Z</time>
      </trkpt>
      <trkpt lat="49.86923" lon="4.77554">
        <ele>323</ele>
        <time>2022-08-19T08:36:19.000Z</time>
      </trkpt>
      <trkpt lat="49.86925" lon="4.77558">
        <ele>323</ele>
        <time>2022-08-19T08:36:20.000Z</time>
      </trkpt>
      <trkpt lat="49.86927" lon="4.77562">
        <ele>323</ele>
        <time>2022-08-19T08:36:21.000Z</time>
      </trkpt>
      <trkpt lat="49.86929" lon="4.77565">
        <ele>324</ele>
        <time>2022-08-19T08:36:22.000Z</time>
      </trkpt>
      <trkpt lat="49.86931" lon="4.77569">
        <ele>324</ele>
        <time>2022-08-19T08:36:23.000Z</time>
      </trkpt>
      <trkpt lat="49.86933" lon="4.77573">
        <ele>324</ele>
        <time>2022-08-19T08:36:24.000Z</time>
      </trkpt>
      <trkpt lat="49.86935" lon="4.77578">
        <ele>324</ele>
        <time>2022-08-19T08:36:25.000Z</time>
      </trkpt>
      <trkpt lat="49.86936" lon="4.77582">
        <ele>324</ele>
        <time>2022-08-19T08:36:26.000Z</time>
      </trkpt>
      <trkpt lat="49.86938" lon="4.77585">
        <ele>325</ele>
        <time>2022-08-19T08:36:27.000Z</time>
      </trkpt>
      <trkpt lat="49.8694" lon="4.77587">
        <ele>325</ele>
        <time>2022-08-19T08:36:28.000Z</time>
      </trkpt>
      <trkpt lat="49.86942" lon="4.7759">
        <ele>325</ele>
        <time>2022-08-19T08:36:29.000Z</time>
      </trkpt>
      <trkpt lat="49.86944" lon="4.77594">
        <ele>325</ele>
        <time>2022-08-19T08:36:30.000Z</time>
      </trkpt>
      <trkpt lat="49.86947" lon="4.77597">
        <ele>325</ele>
        <time>2022-08-19T08:36:31.000Z</time>
      </trkpt>
      <trkpt lat="49.8695" lon="4.77601">
        <ele>325</ele>
        <time>2022-08-19T08:36:32.000Z</time>
      </trkpt>
      <trkpt lat="49.86953" lon="4.77605">
        <ele>325</ele>
        <time>2022-08-19T08:36:33.000Z</time>
      </trkpt>
      <trkpt lat="49.86955" lon="4.77608">
        <ele>325</ele>
        <time>2022-08-19T08:36:34.000Z</time>
      </trkpt>
      <trkpt lat="49.86956" lon="4.77612">
        <ele>325</ele>
        <time>2022-08-19T08:36:35.000Z</time>
      </trkpt>
      <trkpt lat="49.86958" lon="4.77615">
        <ele>325</ele>
        <time>2022-08-19T08:36:36.000Z</time>
      </trkpt>
      <trkpt lat="49.8696" lon="4.77619">
        <ele>325</ele>
        <time>2022-08-19T08:36:37.000Z</time>
      </trkpt>
      <trkpt lat="49.86963" lon="4.77623">
        <ele>325</ele>
        <time>2022-08-19T08:36:38.000Z</time>
      </trkpt>
      <trkpt lat="49.86966" lon="4.77626">
        <ele>324</ele>
        <time>2022-08-19T08:36:39.000Z</time>
      </trkpt>
      <trkpt lat="49.86969" lon="4.7763">
        <ele>324</ele>
        <time>2022-08-19T08:36:40.000Z</time>
      </trkpt>
      <trkpt lat="49.86971" lon="4.77634">
        <ele>324</ele>
        <time>2022-08-19T08:36:41.000Z</time>
      </trkpt>
      <trkpt lat="49.86972" lon="4.77638">
        <ele>324</ele>
        <time>2022-08-19T08:36:42.000Z</time>
      </trkpt>
      <trkpt lat="49.86974" lon="4.77642">
        <ele>324</ele>
        <time>2022-08-19T08:36:43.000Z</time>
      </trkpt>
      <trkpt lat="49.86976" lon="4.77645">
        <ele>324</ele>
        <time>2022-08-19T08:36:44.000Z</time>
      </trkpt>
      <trkpt lat="49.86979" lon="4.77649">
        <ele>324</ele>
        <time>2022-08-19T08:36:45.000Z</time>
      </trkpt>
      <trkpt lat="49.86981" lon="4.77654">
        <ele>324</ele>
        <time>2022-08-19T08:36:46.000Z</time>
      </trkpt>
      <trkpt lat="49.86982" lon="4.77658">
        <ele>324</ele>
        <time>2022-08-19T08:36:47.000Z</time>
      </trkpt>
      <trkpt lat="49.86984" lon="4.77662">
        <ele>324</ele>
        <time>2022-08-19T08:36:48.000Z</time>
      </trkpt>
      <trkpt lat="49.86984" lon="4.77666">
        <ele>323</ele>
        <time>2022-08-19T08:36:49.000Z</time>
      </trkpt>
      <trkpt lat="49.86983" lon="4.7767">
        <ele>323</ele>
        <time>2022-08-19T08:36:50.000Z</time>
      </trkpt>
      <trkpt lat="49.86982" lon="4.77673">
        <ele>323</ele>
        <time>2022-08-19T08:36:51.000Z</time>
      </trkpt>
      <trkpt lat="49.86981" lon="4.77675">
        <ele>323</ele>
        <time>2022-08-19T08:36:52.000Z</time>
      </trkpt>
      <trkpt lat="49.86979" lon="4.77676">
        <ele>323</ele>
        <time>2022-08-19T08:36:53.000Z</time>
      </trkpt>
      <trkpt lat="49.86977" lon="4.77677">
        <ele>323</ele>
        <time>2022-08-19T08:36:54.000Z</time>
      </trkpt>
      <trkpt lat="49.86975" lon="4.77678">
        <ele>323</ele>
        <time>2022-08-19T08:36:55.000Z</time>
      </trkpt>
      <trkpt lat="49.86972" lon="4.77677">
        <ele>323</ele>
        <time>2022-08-19T08:36:56.000Z</time>
      </trkpt>
      <trkpt lat="49.8697" lon="4.77677">
        <ele>323</ele>
        <time>2022-08-19T08:36:57.000Z</time>
      </trkpt>
      <trkpt lat="49.86968" lon="4.77677">
        <ele>323</ele>
        <time>2022-08-19T08:36:58.000Z</time>
      </trkpt>
      <trkpt lat="49.86966" lon="4.77677">
        <ele>323</ele>
        <time>2022-08-19T08:36:59.000Z</time>
      </trkpt>
      <trkpt lat="49.86964" lon="4.77677">
        <ele>323</ele>
        <time>2022-08-19T08:37:00.000Z</time>
      </trkpt>
      <trkpt lat="49.86962" lon="4.77675">
        <ele>323</ele>
        <time>2022-08-19T08:37:01.000Z</time>
      </trkpt>
      <trkpt lat="49.86959" lon="4.77673">
        <ele>323</ele>
        <time>2022-08-19T08:37:02.000Z</time>
      </trkpt>
      <trkpt lat="49.86958" lon="4.77672">
        <ele>322</ele>
        <time>2022-08-19T08:37:03.000Z</time>
      </trkpt>
      <trkpt lat="49.86956" lon="4.7767">
        <ele>322</ele>
        <time>2022-08-19T08:37:04.000Z</time>
      </trkpt>
      <trkpt lat="49.86954" lon="4.77669">
        <ele>322</ele>
        <time>2022-08-19T08:37:05.000Z</time>
      </trkpt>
      <trkpt lat="49.86952" lon="4.77668">
        <ele>322</ele>
        <time>2022-08-19T08:37:06.000Z</time>
      </trkpt>
      <trkpt lat="49.86949" lon="4.77667">
        <ele>322</ele>
        <time>2022-08-19T08:37:07.000Z</time>
      </trkpt>
      <trkpt lat="49.86947" lon="4.77668">
        <ele>322</ele>
        <time>2022-08-19T08:37:08.000Z</time>
      </trkpt>
      <trkpt lat="49.86944" lon="4.77669">
        <ele>322</ele>
        <time>2022-08-19T08:37:09.000Z</time>
      </trkpt>
      <trkpt lat="49.86942" lon="4.7767">
        <ele>322</ele>
        <time>2022-08-19T08:37:10.000Z</time>
      </trkpt>
      <trkpt lat="49.86939" lon="4.77671">
        <ele>322</ele>
        <time>2022-08-19T08:37:11.000Z</time>
      </trkpt>
      <trkpt lat="49.86936" lon="4.77671">
        <ele>322</ele>
        <time>2022-08-19T08:37:12.000Z</time>
      </trkpt>
      <trkpt lat="49.86934" lon="4.7767">
        <ele>322</ele>
        <time>2022-08-19T08:37:13.000Z</time>
      </trkpt>
      <trkpt lat="49.86931" lon="4.7767">
        <ele>323</ele>
        <time>2022-08-19T08:37:14.000Z</time>
      </trkpt>
      <trkpt lat="49.86928" lon="4.7767">
        <ele>323</ele>
        <time>2022-08-19T08:37:15.000Z</time>
      </trkpt>
      <trkpt lat="49.86926" lon="4.77671">
        <ele>323</ele>
        <time>2022-08-19T08:37:16.000Z</time>
      </trkpt>
      <trkpt lat="49.86924" lon="4.77672">
        <ele>323</ele>
        <time>2022-08-19T08:37:17.000Z</time>
      </trkpt>
      <trkpt lat="49.86922" lon="4.77674">
        <ele>323</ele>
        <time>2022-08-19T08:37:18.000Z</time>
      </trkpt>
      <trkpt lat="49.8692" lon="4.77677">
        <ele>323</ele>
        <time>2022-08-19T08:37:19.000Z</time>
      </trkpt>
      <trkpt lat="49.86917" lon="4.77678">
        <ele>323</ele>
        <time>2022-08-19T08:37:20.000Z</time>
      </trkpt>
      <trkpt lat="49.86914" lon="4.77679">
        <ele>323</ele>
        <time>2022-08-19T08:37:21.000Z</time>
      </trkpt>
      <trkpt lat="49.8691" lon="4.77679">
        <ele>323</ele>
        <time>2022-08-19T08:37:22.000Z</time>
      </trkpt>
      <trkpt lat="49.86908" lon="4.77679">
        <ele>323</ele>
        <time>2022-08-19T08:37:23.000Z</time>
      </trkpt>
      <trkpt lat="49.86906" lon="4.77679">
        <ele>323</ele>
        <time>2022-08-19T08:37:24.000Z</time>
      </trkpt>
      <trkpt lat="49.86905" lon="4.7768">
        <ele>323</ele>
        <time>2022-08-19T08:37:25.000Z</time>
      </trkpt>
      <trkpt lat="49.86903" lon="4.7768">
        <ele>323</ele>
        <time>2022-08-19T08:37:26.000Z</time>
      </trkpt>
      <trkpt lat="49.869" lon="4.7768">
        <ele>323</ele>
        <time>2022-08-19T08:37:27.000Z</time>
      </trkpt>
      <trkpt lat="49.86897" lon="4.7768">
        <ele>323</ele>
        <time>2022-08-19T08:37:28.000Z</time>
      </trkpt>
      <trkpt lat="49.86894" lon="4.7768">
        <ele>323</ele>
        <time>2022-08-19T08:37:29.000Z</time>
      </trkpt>
      <trkpt lat="49.86891" lon="4.77682">
        <ele>323</ele>
        <time>2022-08-19T08:37:30.000Z</time>
      </trkpt>
      <trkpt lat="49.86888" lon="4.77683">
        <ele>323</ele>
        <time>2022-08-19T08:37:31.000Z</time>
      </trkpt>
      <trkpt lat="49.86886" lon="4.77683">
        <ele>323</ele>
        <time>2022-08-19T08:37:32.000Z</time>
      </trkpt>
      <trkpt lat="49.86883" lon="4.77683">
        <ele>323</ele>
        <time>2022-08-19T08:37:33.000Z</time>
      </trkpt>
      <trkpt lat="49.8688" lon="4.77682">
        <ele>323</ele>
        <time>2022-08-19T08:37:34.000Z</time>
      </trkpt>
      <trkpt lat="49.86877" lon="4.77682">
        <ele>323</ele>
        <time>2022-08-19T08:37:35.000Z</time>
      </trkpt>
      <trkpt lat="49.86874" lon="4.77683">
        <ele>323</ele>
        <time>2022-08-19T08:37:36.000Z</time>
      </trkpt>
      <trkpt lat="49.86871" lon="4.77684">
        <ele>323</ele>
        <time>2022-08-19T08:37:37.000Z</time>
      </trkpt>
      <trkpt lat="49.86868" lon="4.77685">
        <ele>323</ele>
        <time>2022-08-19T08:37:38.000Z</time>
      </trkpt>
      <trkpt lat="49.86864" lon="4.77686">
        <ele>323</ele>
        <time>2022-08-19T08:37:39.000Z</time>
      </trkpt>
      <trkpt lat="49.86861" lon="4.77686">
        <ele>323</ele>
        <time>2022-08-19T08:37:40.000Z</time>
      </trkpt>
      <trkpt lat="49.86857" lon="4.77688">
        <ele>323</ele>
        <time>2022-08-19T08:37:41.000Z</time>
      </trkpt>
      <trkpt lat="49.86853" lon="4.77688">
        <ele>323</ele>
        <time>2022-08-19T08:37:42.000Z</time>
      </trkpt>
      <trkpt lat="49.8685" lon="4.77689">
        <ele>323</ele>
        <time>2022-08-19T08:37:43.000Z</time>
      </trkpt>
      <trkpt lat="49.86846" lon="4.77689">
        <ele>323</ele>
        <time>2022-08-19T08:37:44.000Z</time>
      </trkpt>
      <trkpt lat="49.86842" lon="4.77689">
        <ele>323</ele>
        <time>2022-08-19T08:37:45.000Z</time>
      </trkpt>
      <trkpt lat="49.86838" lon="4.77689">
        <ele>323</ele>
        <time>2022-08-19T08:37:46.000Z</time>
      </trkpt>
      <trkpt lat="49.86833" lon="4.77687">
        <ele>324</ele>
        <time>2022-08-19T08:37:47.000Z</time>
      </trkpt>
      <trkpt lat="49.86829" lon="4.77686">
        <ele>324</ele>
        <time>2022-08-19T08:37:48.000Z</time>
      </trkpt>
      <trkpt lat="49.86826" lon="4.77683">
        <ele>324</ele>
        <time>2022-08-19T08:37:49.000Z</time>
      </trkpt>
      <trkpt lat="49.86822" lon="4.77681">
        <ele>324</ele>
        <time>2022-08-19T08:37:50.000Z</time>
      </trkpt>
      <trkpt lat="49.8682" lon="4.77678">
        <ele>324</ele>
        <time>2022-08-19T08:37:51.000Z</time>
      </trkpt>
      <trkpt lat="49.86816" lon="4.77675">
        <ele>323</ele>
        <time>2022-08-19T08:37:52.000Z</time>
      </trkpt>
      <trkpt lat="49.86812" lon="4.77673">
        <ele>323</ele>
        <time>2022-08-19T08:37:53.000Z</time>
      </trkpt>
      <trkpt lat="49.86808" lon="4.77672">
        <ele>323</ele>
        <time>2022-08-19T08:37:54.000Z</time>
      </trkpt>
      <trkpt lat="49.86804" lon="4.77669">
        <ele>323</ele>
        <time>2022-08-19T08:37:55.000Z</time>
      </trkpt>
      <trkpt lat="49.86799" lon="4.77666">
        <ele>323</ele>
        <time>2022-08-19T08:37:56.000Z</time>
      </trkpt>
      <trkpt lat="49.86795" lon="4.77662">
        <ele>323</ele>
        <time>2022-08-19T08:37:57.000Z</time>
      </trkpt>
      <trkpt lat="49.8679" lon="4.77658">
        <ele>323</ele>
        <time>2022-08-19T08:37:58.000Z</time>
      </trkpt>
      <trkpt lat="49.86786" lon="4.77654">
        <ele>322</ele>
        <time>2022-08-19T08:37:59.000Z</time>
      </trkpt>
      <trkpt lat="49.86781" lon="4.77649">
        <ele>322</ele>
        <time>2022-08-19T08:38:00.000Z</time>
      </trkpt>
      <trkpt lat="49.86777" lon="4.77646">
        <ele>322</ele>
        <time>2022-08-19T08:38:01.000Z</time>
      </trkpt>
      <trkpt lat="49.86772" lon="4.77644">
        <ele>322</ele>
        <time>2022-08-19T08:38:02.000Z</time>
      </trkpt>
      <trkpt lat="49.86767" lon="4.77643">
        <ele>322</ele>
        <time>2022-08-19T08:38:03.000Z</time>
      </trkpt>
      <trkpt lat="49.86763" lon="4.77643">
        <ele>322</ele>
        <time>2022-08-19T08:38:04.000Z</time>
      </trkpt>
      <trkpt lat="49.86758" lon="4.77643">
        <ele>322</ele>
        <time>2022-08-19T08:38:05.000Z</time>
      </trkpt>
      <trkpt lat="49.86752" lon="4.77642">
        <ele>322</ele>
        <time>2022-08-19T08:38:06.000Z</time>
      </trkpt>
      <trkpt lat="49.86748" lon="4.77641">
        <ele>322</ele>
        <time>2022-08-19T08:38:07.000Z</time>
      </trkpt>
      <trkpt lat="49.86742" lon="4.7764">
        <ele>322</ele>
        <time>2022-08-19T08:38:08.000Z</time>
      </trkpt>
      <trkpt lat="49.86737" lon="4.77638">
        <ele>322</ele>
        <time>2022-08-19T08:38:09.000Z</time>
      </trkpt>
      <trkpt lat="49.86732" lon="4.77637">
        <ele>321</ele>
        <time>2022-08-19T08:38:10.000Z</time>
      </trkpt>
      <trkpt lat="49.86728" lon="4.77637">
        <ele>321</ele>
        <time>2022-08-19T08:38:11.000Z</time>
      </trkpt>
      <trkpt lat="49.86723" lon="4.77637">
        <ele>321</ele>
        <time>2022-08-19T08:38:12.000Z</time>
      </trkpt>
      <trkpt lat="49.86719" lon="4.77638">
        <ele>321</ele>
        <time>2022-08-19T08:38:13.000Z</time>
      </trkpt>
      <trkpt lat="49.86714" lon="4.77639">
        <ele>321</ele>
        <time>2022-08-19T08:38:14.000Z</time>
      </trkpt>
      <trkpt lat="49.86709" lon="4.7764">
        <ele>320</ele>
        <time>2022-08-19T08:38:15.000Z</time>
      </trkpt>
      <trkpt lat="49.86704" lon="4.77642">
        <ele>320</ele>
        <time>2022-08-19T08:38:16.000Z</time>
      </trkpt>
      <trkpt lat="49.86699" lon="4.77644">
        <ele>320</ele>
        <time>2022-08-19T08:38:17.000Z</time>
      </trkpt>
      <trkpt lat="49.86693" lon="4.77647">
        <ele>320</ele>
        <time>2022-08-19T08:38:18.000Z</time>
      </trkpt>
      <trkpt lat="49.86687" lon="4.7765">
        <ele>320</ele>
        <time>2022-08-19T08:38:19.000Z</time>
      </trkpt>
      <trkpt lat="49.86681" lon="4.77652">
        <ele>319</ele>
        <time>2022-08-19T08:38:20.000Z</time>
      </trkpt>
      <trkpt lat="49.86674" lon="4.77655">
        <ele>319</ele>
        <time>2022-08-19T08:38:21.000Z</time>
      </trkpt>
      <trkpt lat="49.86667" lon="4.77657">
        <ele>319</ele>
        <time>2022-08-19T08:38:22.000Z</time>
      </trkpt>
      <trkpt lat="49.86661" lon="4.77657">
        <ele>319</ele>
        <time>2022-08-19T08:38:23.000Z</time>
      </trkpt>
      <trkpt lat="49.86655" lon="4.77658">
        <ele>318</ele>
        <time>2022-08-19T08:38:24.000Z</time>
      </trkpt>
      <trkpt lat="49.86649" lon="4.77659">
        <ele>318</ele>
        <time>2022-08-19T08:38:25.000Z</time>
      </trkpt>
      <trkpt lat="49.86644" lon="4.77661">
        <ele>318</ele>
        <time>2022-08-19T08:38:26.000Z</time>
      </trkpt>
      <trkpt lat="49.86639" lon="4.77662">
        <ele>318</ele>
        <time>2022-08-19T08:38:27.000Z</time>
      </trkpt>
      <trkpt lat="49.86634" lon="4.77663">
        <ele>318</ele>
        <time>2022-08-19T08:38:28.000Z</time>
      </trkpt>
      <trkpt lat="49.86629" lon="4.77664">
        <ele>318</ele>
        <time>2022-08-19T08:38:29.000Z</time>
      </trkpt>
      <trkpt lat="49.86623" lon="4.77665">
        <ele>317</ele>
        <time>2022-08-19T08:38:30.000Z</time>
      </trkpt>
      <trkpt lat="49.86617" lon="4.77666">
        <ele>317</ele>
        <time>2022-08-19T08:38:31.000Z</time>
      </trkpt>
      <trkpt lat="49.86612" lon="4.77668">
        <ele>317</ele>
        <time>2022-08-19T08:38:32.000Z</time>
      </trkpt>
      <trkpt lat="49.86609" lon="4.77669">
        <ele>317</ele>
        <time>2022-08-19T08:38:33.000Z</time>
      </trkpt>
      <trkpt lat="49.86608" lon="4.77669">
        <ele>316</ele>
        <time>2022-08-19T08:38:34.000Z</time>
      </trkpt>
      <trkpt lat="49.86609" lon="4.77669">
        <ele>316</ele>
        <time>2022-08-19T08:38:35.000Z</time>
      </trkpt>
      <trkpt lat="49.86609" lon="4.77669">
        <ele>316</ele>
        <time>2022-08-19T08:38:36.000Z</time>
      </trkpt>
      <trkpt lat="49.86609" lon="4.77669">
        <ele>316</ele>
        <time>2022-08-19T08:38:37.000Z</time>
      </trkpt>
      <trkpt lat="49.86609" lon="4.77669">
        <ele>315</ele>
        <time>2022-08-19T08:38:38.000Z</time>
      </trkpt>
      <trkpt lat="49.86609" lon="4.77669">
        <ele>315</ele>
        <time>2022-08-19T08:38:39.000Z</time>
      </trkpt>
      <trkpt lat="49.86609" lon="4.77669">
        <ele>315</ele>
        <time>2022-08-19T08:38:40.000Z</time>
      </trkpt>
      <trkpt lat="49.86609" lon="4.77669">
        <ele>315</ele>
        <time>2022-08-19T08:38:41.000Z</time>
      </trkpt>
      <trkpt lat="49.86609" lon="4.7767">
        <ele>315</ele>
        <time>2022-08-19T08:38:42.000Z</time>
      </trkpt>
      <trkpt lat="49.86609" lon="4.7767">
        <ele>315</ele>
        <time>2022-08-19T08:38:43.000Z</time>
      </trkpt>
      <trkpt lat="49.86608" lon="4.7767">
        <ele>315</ele>
        <time>2022-08-19T08:38:44.000Z</time>
      </trkpt>
      <trkpt lat="49.86608" lon="4.7767">
        <ele>315</ele>
        <time>2022-08-19T08:38:45.000Z</time>
      </trkpt>
      <trkpt lat="49.86608" lon="4.7767">
        <ele>315</ele>
        <time>2022-08-19T08:38:46.000Z</time>
      </trkpt>
      <trkpt lat="49.86608" lon="4.7767">
        <ele>315</ele>
        <time>2022-08-19T08:38:47.000Z</time>
      </trkpt>
      <trkpt lat="49.86608" lon="4.77671">
        <ele>315</ele>
        <time>2022-08-19T08:38:48.000Z</time>
      </trkpt>
      <trkpt lat="49.86608" lon="4.77671">
        <ele>315</ele>
        <time>2022-08-19T08:38:49.000Z</time>
      </trkpt>
      <trkpt lat="49.86608" lon="4.77671">
        <ele>315</ele>
        <time>2022-08-19T08:38:50.000Z</time>
      </trkpt>
      <trkpt lat="49.86608" lon="4.77671">
        <ele>315</ele>
        <time>2022-08-19T08:38:51.000Z</time>
      </trkpt>
      <trkpt lat="49.86608" lon="4.77671">
        <ele>315</ele>
        <time>2022-08-19T08:38:52.000Z</time>
      </trkpt>
      <trkpt lat="49.86607" lon="4.77671">
        <ele>315</ele>
        <time>2022-08-19T08:38:53.000Z</time>
      </trkpt>
      <trkpt lat="49.86607" lon="4.77672">
        <ele>315</ele>
        <time>2022-08-19T08:38:54.000Z</time>
      </trkpt>
      <trkpt lat="49.86606" lon="4.77672">
        <ele>315</ele>
        <time>2022-08-19T08:38:55.000Z</time>
      </trkpt>
      <trkpt lat="49.86606" lon="4.77672">
        <ele>315</ele>
        <time>2022-08-19T08:38:56.000Z</time>
      </trkpt>
      <trkpt lat="49.86606" lon="4.77672">
        <ele>315</ele>
        <time>2022-08-19T08:38:57.000Z</time>
      </trkpt>
      <trkpt lat="49.86606" lon="4.77672">
        <ele>315</ele>
        <time>2022-08-19T08:38:58.000Z</time>
      </trkpt>
      <trkpt lat="49.86606" lon="4.77672">
        <ele>314</ele>
        <time>2022-08-19T08:38:59.000Z</time>
      </trkpt>
      <trkpt lat="49.86606" lon="4.77672">
        <ele>314</ele>
        <time>2022-08-19T08:39:00.000Z</time>
      </trkpt>
      <trkpt lat="49.86606" lon="4.77672">
        <ele>314</ele>
        <time>2022-08-19T08:39:01.000Z</time>
      </trkpt>
      <trkpt lat="49.86605" lon="4.77672">
        <ele>314</ele>
        <time>2022-08-19T08:39:02.000Z</time>
      </trkpt>
      <trkpt lat="49.86604" lon="4.77671">
        <ele>314</ele>
        <time>2022-08-19T08:39:03.000Z</time>
      </trkpt>
      <trkpt lat="49.86603" lon="4.77671">
        <ele>314</ele>
        <time>2022-08-19T08:39:04.000Z</time>
      </trkpt>
      <trkpt lat="49.86602" lon="4.7767">
        <ele>314</ele>
        <time>2022-08-19T08:39:05.000Z</time>
      </trkpt>
      <trkpt lat="49.866" lon="4.7767">
        <ele>314</ele>
        <time>2022-08-19T08:39:06.000Z</time>
      </trkpt>
      <trkpt lat="49.86599" lon="4.7767">
        <ele>314</ele>
        <time>2022-08-19T08:39:07.000Z</time>
      </trkpt>
      <trkpt lat="49.86598" lon="4.77669">
        <ele>314</ele>
        <time>2022-08-19T08:39:08.000Z</time>
      </trkpt>
      <trkpt lat="49.86597" lon="4.77669">
        <ele>314</ele>
        <time>2022-08-19T08:39:09.000Z</time>
      </trkpt>
      <trkpt lat="49.86595" lon="4.77669">
        <ele>315</ele>
        <time>2022-08-19T08:39:10.000Z</time>
      </trkpt>
      <trkpt lat="49.86593" lon="4.7767">
        <ele>315</ele>
        <time>2022-08-19T08:39:11.000Z</time>
      </trkpt>
      <trkpt lat="49.86591" lon="4.77671">
        <ele>315</ele>
        <time>2022-08-19T08:39:12.000Z</time>
      </trkpt>
      <trkpt lat="49.86589" lon="4.77672">
        <ele>315</ele>
        <time>2022-08-19T08:39:13.000Z</time>
      </trkpt>
      <trkpt lat="49.86587" lon="4.77674">
        <ele>315</ele>
        <time>2022-08-19T08:39:14.000Z</time>
      </trkpt>
      <trkpt lat="49.86584" lon="4.77675">
        <ele>315</ele>
        <time>2022-08-19T08:39:15.000Z</time>
      </trkpt>
      <trkpt lat="49.86582" lon="4.77677">
        <ele>315</ele>
        <time>2022-08-19T08:39:16.000Z</time>
      </trkpt>
      <trkpt lat="49.8658" lon="4.77679">
        <ele>315</ele>
        <time>2022-08-19T08:39:17.000Z</time>
      </trkpt>
      <trkpt lat="49.86578" lon="4.77681">
        <ele>315</ele>
        <time>2022-08-19T08:39:18.000Z</time>
      </trkpt>
      <trkpt lat="49.86576" lon="4.77682">
        <ele>315</ele>
        <time>2022-08-19T08:39:19.000Z</time>
      </trkpt>
      <trkpt lat="49.86574" lon="4.77682">
        <ele>315</ele>
        <time>2022-08-19T08:39:20.000Z</time>
      </trkpt>
      <trkpt lat="49.86571" lon="4.77683">
        <ele>315</ele>
        <time>2022-08-19T08:39:21.000Z</time>
      </trkpt>
      <trkpt lat="49.86569" lon="4.77683">
        <ele>315</ele>
        <time>2022-08-19T08:39:22.000Z</time>
      </trkpt>
      <trkpt lat="49.86566" lon="4.77682">
        <ele>315</ele>
        <time>2022-08-19T08:39:23.000Z</time>
      </trkpt>
      <trkpt lat="49.86563" lon="4.77681">
        <ele>315</ele>
        <time>2022-08-19T08:39:24.000Z</time>
      </trkpt>
      <trkpt lat="49.8656" lon="4.7768">
        <ele>315</ele>
        <time>2022-08-19T08:39:25.000Z</time>
      </trkpt>
      <trkpt lat="49.86558" lon="4.77681">
        <ele>315</ele>
        <time>2022-08-19T08:39:26.000Z</time>
      </trkpt>
      <trkpt lat="49.86555" lon="4.77683">
        <ele>315</ele>
        <time>2022-08-19T08:39:27.000Z</time>
      </trkpt>
      <trkpt lat="49.86552" lon="4.77686">
        <ele>315</ele>
        <time>2022-08-19T08:39:28.000Z</time>
      </trkpt>
      <trkpt lat="49.86548" lon="4.77688">
        <ele>315</ele>
        <time>2022-08-19T08:39:29.000Z</time>
      </trkpt>
      <trkpt lat="49.86544" lon="4.7769">
        <ele>314</ele>
        <time>2022-08-19T08:39:30.000Z</time>
      </trkpt>
      <trkpt lat="49.8654" lon="4.77693">
        <ele>314</ele>
        <time>2022-08-19T08:39:31.000Z</time>
      </trkpt>
      <trkpt lat="49.86535" lon="4.77695">
        <ele>314</ele>
        <time>2022-08-19T08:39:32.000Z</time>
      </trkpt>
      <trkpt lat="49.86531" lon="4.77696">
        <ele>314</ele>
        <time>2022-08-19T08:39:33.000Z</time>
      </trkpt>
      <trkpt lat="49.86528" lon="4.77697">
        <ele>314</ele>
        <time>2022-08-19T08:39:34.000Z</time>
      </trkpt>
      <trkpt lat="49.86524" lon="4.77699">
        <ele>314</ele>
        <time>2022-08-19T08:39:35.000Z</time>
      </trkpt>
      <trkpt lat="49.86521" lon="4.77702">
        <ele>313</ele>
        <time>2022-08-19T08:39:36.000Z</time>
      </trkpt>
      <trkpt lat="49.86518" lon="4.77703">
        <ele>314</ele>
        <time>2022-08-19T08:39:37.000Z</time>
      </trkpt>
      <trkpt lat="49.86515" lon="4.77704">
        <ele>314</ele>
        <time>2022-08-19T08:39:38.000Z</time>
      </trkpt>
      <trkpt lat="49.86512" lon="4.77704">
        <ele>314</ele>
        <time>2022-08-19T08:39:39.000Z</time>
      </trkpt>
      <trkpt lat="49.86508" lon="4.77704">
        <ele>314</ele>
        <time>2022-08-19T08:39:40.000Z</time>
      </trkpt>
      <trkpt lat="49.86504" lon="4.77704">
        <ele>314</ele>
        <time>2022-08-19T08:39:41.000Z</time>
      </trkpt>
      <trkpt lat="49.865" lon="4.77704">
        <ele>314</ele>
        <time>2022-08-19T08:39:42.000Z</time>
      </trkpt>
      <trkpt lat="49.86496" lon="4.77705">
        <ele>314</ele>
        <time>2022-08-19T08:39:43.000Z</time>
      </trkpt>
      <trkpt lat="49.86492" lon="4.77706">
        <ele>314</ele>
        <time>2022-08-19T08:39:44.000Z</time>
      </trkpt>
      <trkpt lat="49.86488" lon="4.77709">
        <ele>314</ele>
        <time>2022-08-19T08:39:45.000Z</time>
      </trkpt>
      <trkpt lat="49.86485" lon="4.77711">
        <ele>313</ele>
        <time>2022-08-19T08:39:46.000Z</time>
      </trkpt>
      <trkpt lat="49.86482" lon="4.77713">
        <ele>313</ele>
        <time>2022-08-19T08:39:47.000Z</time>
      </trkpt>
      <trkpt lat="49.86478" lon="4.77714">
        <ele>313</ele>
        <time>2022-08-19T08:39:48.000Z</time>
      </trkpt>
      <trkpt lat="49.86474" lon="4.77715">
        <ele>313</ele>
        <time>2022-08-19T08:39:49.000Z</time>
      </trkpt>
      <trkpt lat="49.8647" lon="4.77717">
        <ele>313</ele>
        <time>2022-08-19T08:39:50.000Z</time>
      </trkpt>
      <trkpt lat="49.86466" lon="4.7772">
        <ele>313</ele>
        <time>2022-08-19T08:39:51.000Z</time>
      </trkpt>
      <trkpt lat="49.86461" lon="4.77721">
        <ele>313</ele>
        <time>2022-08-19T08:39:52.000Z</time>
      </trkpt>
      <trkpt lat="49.86456" lon="4.77721">
        <ele>313</ele>
        <time>2022-08-19T08:39:53.000Z</time>
      </trkpt>
      <trkpt lat="49.86451" lon="4.77723">
        <ele>313</ele>
        <time>2022-08-19T08:39:54.000Z</time>
      </trkpt>
      <trkpt lat="49.86446" lon="4.77725">
        <ele>313</ele>
        <time>2022-08-19T08:39:55.000Z</time>
      </trkpt>
      <trkpt lat="49.8644" lon="4.77728">
        <ele>313</ele>
        <time>2022-08-19T08:39:56.000Z</time>
      </trkpt>
      <trkpt lat="49.86434" lon="4.77729">
        <ele>313</ele>
        <time>2022-08-19T08:39:57.000Z</time>
      </trkpt>
      <trkpt lat="49.86429" lon="4.77729">
        <ele>313</ele>
        <time>2022-08-19T08:39:58.000Z</time>
      </trkpt>
      <trkpt lat="49.86424" lon="4.77727">
        <ele>313</ele>
        <time>2022-08-19T08:39:59.000Z</time>
      </trkpt>
      <trkpt lat="49.86419" lon="4.77726">
        <ele>313</ele>
        <time>2022-08-19T08:40:00.000Z</time>
      </trkpt>
      <trkpt lat="49.86413" lon="4.77725">
        <ele>313</ele>
        <time>2022-08-19T08:40:01.000Z</time>
      </trkpt>
      <trkpt lat="49.86408" lon="4.77725">
        <ele>313</ele>
        <time>2022-08-19T08:40:02.000Z</time>
      </trkpt>
      <trkpt lat="49.86403" lon="4.77725">
        <ele>313</ele>
        <time>2022-08-19T08:40:03.000Z</time>
      </trkpt>
      <trkpt lat="49.86399" lon="4.77726">
        <ele>314</ele>
        <time>2022-08-19T08:40:04.000Z</time>
      </trkpt>
      <trkpt lat="49.86395" lon="4.77729">
        <ele>314</ele>
        <time>2022-08-19T08:40:05.000Z</time>
      </trkpt>
      <trkpt lat="49.86393" lon="4.77732">
        <ele>314</ele>
        <time>2022-08-19T08:40:06.000Z</time>
      </trkpt>
      <trkpt lat="49.86391" lon="4.77734">
        <ele>313</ele>
        <time>2022-08-19T08:40:07.000Z</time>
      </trkpt>
      <trkpt lat="49.86389" lon="4.77738">
        <ele>313</ele>
        <time>2022-08-19T08:40:08.000Z</time>
      </trkpt>
      <trkpt lat="49.86386" lon="4.77741">
        <ele>313</ele>
        <time>2022-08-19T08:40:09.000Z</time>
      </trkpt>
      <trkpt lat="49.86384" lon="4.77744">
        <ele>313</ele>
        <time>2022-08-19T08:40:10.000Z</time>
      </trkpt>
      <trkpt lat="49.86381" lon="4.77748">
        <ele>313</ele>
        <time>2022-08-19T08:40:11.000Z</time>
      </trkpt>
      <trkpt lat="49.86379" lon="4.77751">
        <ele>313</ele>
        <time>2022-08-19T08:40:12.000Z</time>
      </trkpt>
      <trkpt lat="49.86376" lon="4.77754">
        <ele>313</ele>
        <time>2022-08-19T08:40:13.000Z</time>
      </trkpt>
      <trkpt lat="49.86374" lon="4.77758">
        <ele>314</ele>
        <time>2022-08-19T08:40:14.000Z</time>
      </trkpt>
      <trkpt lat="49.86372" lon="4.77761">
        <ele>314</ele>
        <time>2022-08-19T08:40:15.000Z</time>
      </trkpt>
      <trkpt lat="49.86371" lon="4.77764">
        <ele>314</ele>
        <time>2022-08-19T08:40:16.000Z</time>
      </trkpt>
      <trkpt lat="49.8637" lon="4.77768">
        <ele>314</ele>
        <time>2022-08-19T08:40:17.000Z</time>
      </trkpt>
      <trkpt lat="49.86369" lon="4.77772">
        <ele>314</ele>
        <time>2022-08-19T08:40:18.000Z</time>
      </trkpt>
      <trkpt lat="49.86368" lon="4.77776">
        <ele>314</ele>
        <time>2022-08-19T08:40:19.000Z</time>
      </trkpt>
      <trkpt lat="49.86368" lon="4.7778">
        <ele>314</ele>
        <time>2022-08-19T08:40:20.000Z</time>
      </trkpt>
      <trkpt lat="49.86368" lon="4.77784">
        <ele>315</ele>
        <time>2022-08-19T08:40:21.000Z</time>
      </trkpt>
      <trkpt lat="49.86367" lon="4.77788">
        <ele>315</ele>
        <time>2022-08-19T08:40:22.000Z</time>
      </trkpt>
      <trkpt lat="49.86367" lon="4.77792">
        <ele>315</ele>
        <time>2022-08-19T08:40:23.000Z</time>
      </trkpt>
      <trkpt lat="49.86367" lon="4.77795">
        <ele>315</ele>
        <time>2022-08-19T08:40:24.000Z</time>
      </trkpt>
      <trkpt lat="49.86367" lon="4.77798">
        <ele>315</ele>
        <time>2022-08-19T08:40:25.000Z</time>
      </trkpt>
      <trkpt lat="49.86366" lon="4.77802">
        <ele>315</ele>
        <time>2022-08-19T08:40:26.000Z</time>
      </trkpt>
      <trkpt lat="49.86365" lon="4.77806">
        <ele>316</ele>
        <time>2022-08-19T08:40:27.000Z</time>
      </trkpt>
      <trkpt lat="49.86365" lon="4.7781">
        <ele>316</ele>
        <time>2022-08-19T08:40:28.000Z</time>
      </trkpt>
      <trkpt lat="49.86364" lon="4.77813">
        <ele>316</ele>
        <time>2022-08-19T08:40:29.000Z</time>
      </trkpt>
      <trkpt lat="49.86363" lon="4.77817">
        <ele>316</ele>
        <time>2022-08-19T08:40:30.000Z</time>
      </trkpt>
      <trkpt lat="49.86363" lon="4.77821">
        <ele>316</ele>
        <time>2022-08-19T08:40:31.000Z</time>
      </trkpt>
      <trkpt lat="49.86363" lon="4.77823">
        <ele>316</ele>
        <time>2022-08-19T08:40:32.000Z</time>
      </trkpt>
      <trkpt lat="49.86363" lon="4.77826">
        <ele>316</ele>
        <time>2022-08-19T08:40:33.000Z</time>
      </trkpt>
      <trkpt lat="49.86364" lon="4.77828">
        <ele>316</ele>
        <time>2022-08-19T08:40:34.000Z</time>
      </trkpt>
      <trkpt lat="49.86365" lon="4.7783">
        <ele>316</ele>
        <time>2022-08-19T08:40:35.000Z</time>
      </trkpt>
      <trkpt lat="49.86365" lon="4.77831">
        <ele>317</ele>
        <time>2022-08-19T08:40:36.000Z</time>
      </trkpt>
      <trkpt lat="49.86365" lon="4.77831">
        <ele>317</ele>
        <time>2022-08-19T08:40:37.000Z</time>
      </trkpt>
      <trkpt lat="49.86365" lon="4.77831">
        <ele>317</ele>
        <time>2022-08-19T08:40:38.000Z</time>
      </trkpt>
      <trkpt lat="49.86365" lon="4.77832">
        <ele>317</ele>
        <time>2022-08-19T08:40:39.000Z</time>
      </trkpt>
      <trkpt lat="49.86365" lon="4.77832">
        <ele>317</ele>
        <time>2022-08-19T08:40:40.000Z</time>
      </trkpt>
      <trkpt lat="49.86365" lon="4.77832">
        <ele>317</ele>
        <time>2022-08-19T08:40:41.000Z</time>
      </trkpt>
      <trkpt lat="49.86365" lon="4.77833">
        <ele>317</ele>
        <time>2022-08-19T08:40:42.000Z</time>
      </trkpt>
      <trkpt lat="49.86365" lon="4.77832">
        <ele>317</ele>
        <time>2022-08-19T08:40:43.000Z</time>
      </trkpt>
      <trkpt lat="49.86365" lon="4.77832">
        <ele>318</ele>
        <time>2022-08-19T08:40:44.000Z</time>
      </trkpt>
      <trkpt lat="49.86365" lon="4.77832">
        <ele>318</ele>
        <time>2022-08-19T08:40:45.000Z</time>
      </trkpt>
      <trkpt lat="49.86365" lon="4.77832">
        <ele>318</ele>
        <time>2022-08-19T08:40:46.000Z</time>
      </trkpt>
      <trkpt lat="49.86364" lon="4.77833">
        <ele>318</ele>
        <time>2022-08-19T08:40:47.000Z</time>
      </trkpt>
      <trkpt lat="49.86365" lon="4.77833">
        <ele>318</ele>
        <time>2022-08-19T08:40:48.000Z</time>
      </trkpt>
      <trkpt lat="49.86365" lon="4.77832">
        <ele>318</ele>
        <time>2022-08-19T08:40:49.000Z</time>
      </trkpt>
      <trkpt lat="49.86365" lon="4.77832">
        <ele>317</ele>
        <time>2022-08-19T08:40:50.000Z</time>
      </trkpt>
      <trkpt lat="49.86365" lon="4.77832">
        <ele>317</ele>
        <time>2022-08-19T08:40:51.000Z</time>
      </trkpt>
      <trkpt lat="49.86364" lon="4.77832">
        <ele>317</ele>
        <time>2022-08-19T08:40:52.000Z</time>
      </trkpt>
      <trkpt lat="49.86364" lon="4.77832">
        <ele>317</ele>
        <time>2022-08-19T08:40:53.000Z</time>
      </trkpt>
      <trkpt lat="49.86364" lon="4.77833">
        <ele>317</ele>
        <time>2022-08-19T08:40:54.000Z</time>
      </trkpt>
      <trkpt lat="49.86364" lon="4.77833">
        <ele>317</ele>
        <time>2022-08-19T08:40:55.000Z</time>
      </trkpt>
      <trkpt lat="49.86363" lon="4.77833">
        <ele>317</ele>
        <time>2022-08-19T08:40:56.000Z</time>
      </trkpt>
      <trkpt lat="49.86363" lon="4.77833">
        <ele>317</ele>
        <time>2022-08-19T08:40:57.000Z</time>
      </trkpt>
      <trkpt lat="49.86363" lon="4.77833">
        <ele>317</ele>
        <time>2022-08-19T08:40:58.000Z</time>
      </trkpt>
      <trkpt lat="49.86363" lon="4.77833">
        <ele>317</ele>
        <time>2022-08-19T08:40:59.000Z</time>
      </trkpt>
      <trkpt lat="49.86363" lon="4.77833">
        <ele>317</ele>
        <time>2022-08-19T08:41:00.000Z</time>
      </trkpt>
      <trkpt lat="49.86363" lon="4.77833">
        <ele>317</ele>
        <time>2022-08-19T08:41:01.000Z</time>
      </trkpt>
      <trkpt lat="49.86364" lon="4.77833">
        <ele>317</ele>
        <time>2022-08-19T08:41:02.000Z</time>
      </trkpt>
      <trkpt lat="49.86364" lon="4.77833">
        <ele>317</ele>
        <time>2022-08-19T08:41:03.000Z</time>
      </trkpt>
      <trkpt lat="49.86364" lon="4.77833">
        <ele>317</ele>
        <time>2022-08-19T08:41:04.000Z</time>
      </trkpt>
      <trkpt lat="49.86363" lon="4.77833">
        <ele>317</ele>
        <time>2022-08-19T08:41:05.000Z</time>
      </trkpt>
      <trkpt lat="49.86363" lon="4.77833">
        <ele>317</ele>
        <time>2022-08-19T08:41:06.000Z</time>
      </trkpt>
      <trkpt lat="49.86364" lon="4.77833">
        <ele>317</ele>
        <time>2022-08-19T08:41:07.000Z</time>
      </trkpt>
      <trkpt lat="49.86364" lon="4.77833">
        <ele>317</ele>
        <time>2022-08-19T08:41:08.000Z</time>
      </trkpt>
      <trkpt lat="49.86364" lon="4.77833">
        <ele>317</ele>
        <time>2022-08-19T08:41:09.000Z</time>
      </trkpt>
      <trkpt lat="49.86364" lon="4.77833">
        <ele>317</ele>
        <time>2022-08-19T08:41:10.000Z</time>
      </trkpt>
      <trkpt lat="49.86364" lon="4.77833">
        <ele>316</ele>
        <time>2022-08-19T08:41:11.000Z</time>
      </trkpt>
      <trkpt lat="49.86364" lon="4.77833">
        <ele>317</ele>
        <time>2022-08-19T08:41:12.000Z</time>
      </trkpt>
      <trkpt lat="49.86364" lon="4.77833">
        <ele>317</ele>
        <time>2022-08-19T08:41:13.000Z</time>
      </trkpt>
      <trkpt lat="49.86364" lon="4.77833">
        <ele>317</ele>
        <time>2022-08-19T08:41:14.000Z</time>
      </trkpt>
      <trkpt lat="49.86364" lon="4.77833">
        <ele>317</ele>
        <time>2022-08-19T08:41:15.000Z</time>
      </trkpt>
      <trkpt lat="49.86364" lon="4.77834">
        <ele>317</ele>
        <time>2022-08-19T08:41:16.000Z</time>
      </trkpt>
      <trkpt lat="49.86363" lon="4.77834">
        <ele>317</ele>
        <time>2022-08-19T08:41:17.000Z</time>
      </trkpt>
      <trkpt lat="49.86362" lon="4.77834">
        <ele>317</ele>
        <time>2022-08-19T08:41:18.000Z</time>
      </trkpt>
      <trkpt lat="49.86362" lon="4.77833">
        <ele>317</ele>
        <time>2022-08-19T08:41:19.000Z</time>
      </trkpt>
      <trkpt lat="49.86362" lon="4.77833">
        <ele>317</ele>
        <time>2022-08-19T08:41:20.000Z</time>
      </trkpt>
      <trkpt lat="49.86361" lon="4.77833">
        <ele>317</ele>
        <time>2022-08-19T08:41:21.000Z</time>
      </trkpt>
      <trkpt lat="49.86361" lon="4.77833">
        <ele>317</ele>
        <time>2022-08-19T08:41:22.000Z</time>
      </trkpt>
      <trkpt lat="49.86361" lon="4.77833">
        <ele>317</ele>
        <time>2022-08-19T08:41:23.000Z</time>
      </trkpt>
      <trkpt lat="49.86361" lon="4.77833">
        <ele>317</ele>
        <time>2022-08-19T08:41:24.000Z</time>
      </trkpt>
      <trkpt lat="49.86362" lon="4.77833">
        <ele>316</ele>
        <time>2022-08-19T08:41:25.000Z</time>
      </trkpt>
      <trkpt lat="49.86362" lon="4.77833">
        <ele>316</ele>
        <time>2022-08-19T08:41:26.000Z</time>
      </trkpt>
      <trkpt lat="49.86362" lon="4.77833">
        <ele>316</ele>
        <time>2022-08-19T08:41:27.000Z</time>
      </trkpt>
      <trkpt lat="49.86362" lon="4.77833">
        <ele>316</ele>
        <time>2022-08-19T08:41:28.000Z</time>
      </trkpt>
      <trkpt lat="49.86362" lon="4.77833">
        <ele>316</ele>
        <time>2022-08-19T08:41:29.000Z</time>
      </trkpt>
      <trkpt lat="49.86362" lon="4.77833">
        <ele>316</ele>
        <time>2022-08-19T08:41:30.000Z</time>
      </trkpt>
      <trkpt lat="49.86362" lon="4.77833">
        <ele>316</ele>
        <time>2022-08-19T08:41:31.000Z</time>
      </trkpt>
      <trkpt lat="49.86362" lon="4.77833">
        <ele>316</ele>
        <time>2022-08-19T08:41:32.000Z</time>
      </trkpt>
      <trkpt lat="49.86362" lon="4.77833">
        <ele>316</ele>
        <time>2022-08-19T08:41:33.000Z</time>
      </trkpt>
      <trkpt lat="49.86363" lon="4.77833">
        <ele>316</ele>
        <time>2022-08-19T08:41:34.000Z</time>
      </trkpt>
      <trkpt lat="49.86363" lon="4.77833">
        <ele>316</ele>
        <time>2022-08-19T08:41:35.000Z</time>
      </trkpt>
      <trkpt lat="49.86363" lon="4.77833">
        <ele>316</ele>
        <time>2022-08-19T08:41:36.000Z</time>
      </trkpt>
      <trkpt lat="49.86363" lon="4.77833">
        <ele>316</ele>
        <time>2022-08-19T08:41:37.000Z</time>
      </trkpt>
      <trkpt lat="49.86363" lon="4.77833">
        <ele>316</ele>
        <time>2022-08-19T08:41:38.000Z</time>
      </trkpt>
      <trkpt lat="49.86363" lon="4.77833">
        <ele>316</ele>
        <time>2022-08-19T08:41:39.000Z</time>
      </trkpt>
      <trkpt lat="49.86363" lon="4.77833">
        <ele>316</ele>
        <time>2022-08-19T08:41:40.000Z</time>
      </trkpt>
      <trkpt lat="49.86363" lon="4.77833">
        <ele>316</ele>
        <time>2022-08-19T08:41:41.000Z</time>
      </trkpt>
      <trkpt lat="49.86363" lon="4.77833">
        <ele>316</ele>
        <time>2022-08-19T08:41:42.000Z</time>
      </trkpt>
      <trkpt lat="49.86363" lon="4.77833">
        <ele>316</ele>
        <time>2022-08-19T08:41:43.000Z</time>
      </trkpt>
      <trkpt lat="49.86363" lon="4.77833">
        <ele>316</ele>
        <time>2022-08-19T08:41:44.000Z</time>
      </trkpt>
      <trkpt lat="49.86363" lon="4.77833">
        <ele>316</ele>
        <time>2022-08-19T08:41:45.000Z</time>
      </trkpt>
      <trkpt lat="49.86363" lon="4.77833">
        <ele>316</ele>
        <time>2022-08-19T08:41:46.000Z</time>
      </trkpt>
      <trkpt lat="49.86363" lon="4.77832">
        <ele>316</ele>
        <time>2022-08-19T08:41:47.000Z</time>
      </trkpt>
      <trkpt lat="49.86362" lon="4.77832">
        <ele>316</ele>
        <time>2022-08-19T08:41:48.000Z</time>
      </trkpt>
      <trkpt lat="49.86363" lon="4.77833">
        <ele>316</ele>
        <time>2022-08-19T08:41:49.000Z</time>
      </trkpt>
      <trkpt lat="49.86363" lon="4.77832">
        <ele>316</ele>
        <time>2022-08-19T08:41:50.000Z</time>
      </trkpt>
      <trkpt lat="49.86363" lon="4.77832">
        <ele>316</ele>
        <time>2022-08-19T08:41:51.000Z</time>
      </trkpt>
      <trkpt lat="49.86363" lon="4.77832">
        <ele>316</ele>
        <time>2022-08-19T08:41:52.000Z</time>
      </trkpt>
      <trkpt lat="49.86363" lon="4.77832">
        <ele>316</ele>
        <time>2022-08-19T08:41:53.000Z</time>
      </trkpt>
      <trkpt lat="49.86363" lon="4.77832">
        <ele>316</ele>
        <time>2022-08-19T08:41:54.000Z</time>
      </trkpt>
      <trkpt lat="49.86363" lon="4.77832">
        <ele>316</ele>
        <time>2022-08-19T08:41:55.000Z</time>
      </trkpt>
      <trkpt lat="49.86363" lon="4.77832">
        <ele>316</ele>
        <time>2022-08-19T08:41:56.000Z</time>
      </trkpt>
      <trkpt lat="49.86363" lon="4.77832">
        <ele>316</ele>
        <time>2022-08-19T08:41:57.000Z</time>
      </trkpt>
      <trkpt lat="49.86363" lon="4.77832">
        <ele>316</ele>
        <time>2022-08-19T08:41:58.000Z</time>
      </trkpt>
      <trkpt lat="49.86363" lon="4.77832">
        <ele>316</ele>
        <time>2022-08-19T08:41:59.000Z</time>
      </trkpt>
      <trkpt lat="49.86363" lon="4.77831">
        <ele>316</ele>
        <time>2022-08-19T08:42:00.000Z</time>
      </trkpt>
      <trkpt lat="49.86363" lon="4.77832">
        <ele>316</ele>
        <time>2022-08-19T08:42:01.000Z</time>
      </trkpt>
      <trkpt lat="49.86363" lon="4.77831">
        <ele>316</ele>
        <time>2022-08-19T08:42:02.000Z</time>
      </trkpt>
      <trkpt lat="49.86363" lon="4.77831">
        <ele>316</ele>
        <time>2022-08-19T08:42:03.000Z</time>
      </trkpt>
      <trkpt lat="49.86363" lon="4.77832">
        <ele>316</ele>
        <time>2022-08-19T08:42:04.000Z</time>
      </trkpt>
      <trkpt lat="49.86364" lon="4.77831">
        <ele>316</ele>
        <time>2022-08-19T08:42:05.000Z</time>
      </trkpt>
      <trkpt lat="49.86364" lon="4.77832">
        <ele>316</ele>
        <time>2022-08-19T08:42:06.000Z</time>
      </trkpt>
      <trkpt lat="49.86363" lon="4.77832">
        <ele>316</ele>
        <time>2022-08-19T08:42:07.000Z</time>
      </trkpt>
      <trkpt lat="49.86362" lon="4.77832">
        <ele>316</ele>
        <time>2022-08-19T08:42:08.000Z</time>
      </trkpt>
      <trkpt lat="49.86362" lon="4.77832">
        <ele>317</ele>
        <time>2022-08-19T08:42:09.000Z</time>
      </trkpt>
      <trkpt lat="49.86362" lon="4.77832">
        <ele>317</ele>
        <time>2022-08-19T08:42:10.000Z</time>
      </trkpt>
      <trkpt lat="49.86361" lon="4.77832">
        <ele>317</ele>
        <time>2022-08-19T08:42:11.000Z</time>
      </trkpt>
      <trkpt lat="49.86361" lon="4.77832">
        <ele>317</ele>
        <time>2022-08-19T08:42:12.000Z</time>
      </trkpt>
      <trkpt lat="49.8636" lon="4.77832">
        <ele>317</ele>
        <time>2022-08-19T08:42:13.000Z</time>
      </trkpt>
      <trkpt lat="49.8636" lon="4.77832">
        <ele>317</ele>
        <time>2022-08-19T08:42:14.000Z</time>
      </trkpt>
      <trkpt lat="49.8636" lon="4.77832">
        <ele>317</ele>
        <time>2022-08-19T08:42:15.000Z</time>
      </trkpt>
      <trkpt lat="49.8636" lon="4.77832">
        <ele>317</ele>
        <time>2022-08-19T08:42:16.000Z</time>
      </trkpt>
      <trkpt lat="49.8636" lon="4.77831">
        <ele>318</ele>
        <time>2022-08-19T08:42:17.000Z</time>
      </trkpt>
      <trkpt lat="49.8636" lon="4.77831">
        <ele>318</ele>
        <time>2022-08-19T08:42:18.000Z</time>
      </trkpt>
      <trkpt lat="49.86361" lon="4.77831">
        <ele>318</ele>
        <time>2022-08-19T08:42:19.000Z</time>
      </trkpt>
      <trkpt lat="49.86361" lon="4.77832">
        <ele>318</ele>
        <time>2022-08-19T08:42:20.000Z</time>
      </trkpt>
      <trkpt lat="49.86361" lon="4.77832">
        <ele>318</ele>
        <time>2022-08-19T08:42:21.000Z</time>
      </trkpt>
      <trkpt lat="49.86361" lon="4.77832">
        <ele>318</ele>
        <time>2022-08-19T08:42:22.000Z</time>
      </trkpt>
      <trkpt lat="49.86361" lon="4.77832">
        <ele>318</ele>
        <time>2022-08-19T08:42:23.000Z</time>
      </trkpt>
      <trkpt lat="49.86361" lon="4.77832">
        <ele>319</ele>
        <time>2022-08-19T08:42:24.000Z</time>
      </trkpt>
      <trkpt lat="49.86361" lon="4.77832">
        <ele>319</ele>
        <time>2022-08-19T08:42:25.000Z</time>
      </trkpt>
      <trkpt lat="49.86361" lon="4.77832">
        <ele>319</ele>
        <time>2022-08-19T08:42:26.000Z</time>
      </trkpt>
      <trkpt lat="49.86361" lon="4.77832">
        <ele>319</ele>
        <time>2022-08-19T08:42:27.000Z</time>
      </trkpt>
      <trkpt lat="49.86361" lon="4.77832">
        <ele>319</ele>
        <time>2022-08-19T08:42:28.000Z</time>
      </trkpt>
      <trkpt lat="49.86361" lon="4.77832">
        <ele>319</ele>
        <time>2022-08-19T08:42:29.000Z</time>
      </trkpt>
      <trkpt lat="49.86361" lon="4.77832">
        <ele>319</ele>
        <time>2022-08-19T08:42:30.000Z</time>
      </trkpt>
      <trkpt lat="49.86361" lon="4.77832">
        <ele>319</ele>
        <time>2022-08-19T08:42:31.000Z</time>
      </trkpt>
      <trkpt lat="49.86361" lon="4.77832">
        <ele>319</ele>
        <time>2022-08-19T08:42:32.000Z</time>
      </trkpt>
      <trkpt lat="49.86361" lon="4.77832">
        <ele>319</ele>
        <time>2022-08-19T08:42:33.000Z</time>
      </trkpt>
      <trkpt lat="49.86362" lon="4.77833">
        <ele>319</ele>
        <time>2022-08-19T08:42:34.000Z</time>
      </trkpt>
      <trkpt lat="49.86362" lon="4.77833">
        <ele>319</ele>
        <time>2022-08-19T08:42:35.000Z</time>
      </trkpt>
      <trkpt lat="49.86362" lon="4.77833">
        <ele>319</ele>
        <time>2022-08-19T08:42:36.000Z</time>
      </trkpt>
      <trkpt lat="49.86362" lon="4.77833">
        <ele>319</ele>
        <time>2022-08-19T08:42:37.000Z</time>
      </trkpt>
      <trkpt lat="49.86362" lon="4.77833">
        <ele>319</ele>
        <time>2022-08-19T08:42:38.000Z</time>
      </trkpt>
      <trkpt lat="49.86362" lon="4.77832">
        <ele>319</ele>
        <time>2022-08-19T08:42:39.000Z</time>
      </trkpt>
      <trkpt lat="49.86362" lon="4.77832">
        <ele>319</ele>
        <time>2022-08-19T08:42:40.000Z</time>
      </trkpt>
      <trkpt lat="49.86362" lon="4.77833">
        <ele>319</ele>
        <time>2022-08-19T08:42:41.000Z</time>
      </trkpt>
      <trkpt lat="49.86362" lon="4.77833">
        <ele>319</ele>
        <time>2022-08-19T08:42:42.000Z</time>
      </trkpt>
      <trkpt lat="49.86362" lon="4.77833">
        <ele>319</ele>
        <time>2022-08-19T08:42:43.000Z</time>
      </trkpt>
      <trkpt lat="49.86362" lon="4.77833">
        <ele>319</ele>
        <time>2022-08-19T08:42:44.000Z</time>
      </trkpt>
      <trkpt lat="49.86362" lon="4.77833">
        <ele>319</ele>
        <time>2022-08-19T08:42:45.000Z</time>
      </trkpt>
      <trkpt lat="49.86362" lon="4.77833">
        <ele>319</ele>
        <time>2022-08-19T08:42:46.000Z</time>
      </trkpt>
      <trkpt lat="49.86362" lon="4.77834">
        <ele>319</ele>
        <time>2022-08-19T08:42:47.000Z</time>
      </trkpt>
      <trkpt lat="49.86362" lon="4.77834">
        <ele>319</ele>
        <time>2022-08-19T08:42:48.000Z</time>
      </trkpt>
      <trkpt lat="49.86362" lon="4.77833">
        <ele>318</ele>
        <time>2022-08-19T08:42:49.000Z</time>
      </trkpt>
      <trkpt lat="49.86362" lon="4.77833">
        <ele>318</ele>
        <time>2022-08-19T08:42:50.000Z</time>
      </trkpt>
      <trkpt lat="49.86362" lon="4.77833">
        <ele>318</ele>
        <time>2022-08-19T08:42:51.000Z</time>
      </trkpt>
      <trkpt lat="49.86362" lon="4.77833">
        <ele>318</ele>
        <time>2022-08-19T08:42:52.000Z</time>
      </trkpt>
      <trkpt lat="49.86362" lon="4.77833">
        <ele>318</ele>
        <time>2022-08-19T08:42:53.000Z</time>
      </trkpt>
      <trkpt lat="49.86362" lon="4.77833">
        <ele>318</ele>
        <time>2022-08-19T08:42:54.000Z</time>
      </trkpt>
      <trkpt lat="49.86362" lon="4.77833">
        <ele>318</ele>
        <time>2022-08-19T08:42:55.000Z</time>
      </trkpt>
      <trkpt lat="49.86362" lon="4.77833">
        <ele>318</ele>
        <time>2022-08-19T08:42:56.000Z</time>
      </trkpt>
      <trkpt lat="49.86362" lon="4.77833">
        <ele>318</ele>
        <time>2022-08-19T08:42:57.000Z</time>
      </trkpt>
      <trkpt lat="49.86363" lon="4.77834">
        <ele>318</ele>
        <time>2022-08-19T08:42:58.000Z</time>
      </trkpt>
      <trkpt lat="49.86363" lon="4.77834">
        <ele>318</ele>
        <time>2022-08-19T08:42:59.000Z</time>
      </trkpt>
      <trkpt lat="49.86364" lon="4.77834">
        <ele>318</ele>
        <time>2022-08-19T08:43:00.000Z</time>
      </trkpt>
      <trkpt lat="49.86364" lon="4.77835">
        <ele>318</ele>
        <time>2022-08-19T08:43:01.000Z</time>
      </trkpt>
      <trkpt lat="49.86364" lon="4.77835">
        <ele>318</ele>
        <time>2022-08-19T08:43:02.000Z</time>
      </trkpt>
      <trkpt lat="49.86364" lon="4.77834">
        <ele>318</ele>
        <time>2022-08-19T08:43:03.000Z</time>
      </trkpt>
      <trkpt lat="49.86364" lon="4.77834">
        <ele>318</ele>
        <time>2022-08-19T08:43:04.000Z</time>
      </trkpt>
      <trkpt lat="49.86364" lon="4.77834">
        <ele>318</ele>
        <time>2022-08-19T08:43:05.000Z</time>
      </trkpt>
      <trkpt lat="49.86364" lon="4.77834">
        <ele>318</ele>
        <time>2022-08-19T08:43:06.000Z</time>
      </trkpt>
      <trkpt lat="49.86365" lon="4.77834">
        <ele>318</ele>
        <time>2022-08-19T08:43:07.000Z</time>
      </trkpt>
      <trkpt lat="49.86365" lon="4.77834">
        <ele>318</ele>
        <time>2022-08-19T08:43:08.000Z</time>
      </trkpt>
      <trkpt lat="49.86365" lon="4.77834">
        <ele>318</ele>
        <time>2022-08-19T08:43:09.000Z</time>
      </trkpt>
      <trkpt lat="49.86365" lon="4.77834">
        <ele>317</ele>
        <time>2022-08-19T08:43:10.000Z</time>
      </trkpt>
      <trkpt lat="49.86365" lon="4.77835">
        <ele>317</ele>
        <time>2022-08-19T08:43:11.000Z</time>
      </trkpt>
      <trkpt lat="49.86365" lon="4.77835">
        <ele>317</ele>
        <time>2022-08-19T08:43:12.000Z</time>
      </trkpt>
      <trkpt lat="49.86365" lon="4.77835">
        <ele>317</ele>
        <time>2022-08-19T08:43:13.000Z</time>
      </trkpt>
      <trkpt lat="49.86365" lon="4.77835">
        <ele>317</ele>
        <time>2022-08-19T08:43:14.000Z</time>
      </trkpt>
      <trkpt lat="49.86365" lon="4.77835">
        <ele>317</ele>
        <time>2022-08-19T08:43:15.000Z</time>
      </trkpt>
      <trkpt lat="49.86365" lon="4.77835">
        <ele>317</ele>
        <time>2022-08-19T08:43:16.000Z</time>
      </trkpt>
      <trkpt lat="49.86365" lon="4.77835">
        <ele>317</ele>
        <time>2022-08-19T08:43:17.000Z</time>
      </trkpt>
      <trkpt lat="49.86365" lon="4.77835">
        <ele>317</ele>
        <time>2022-08-19T08:43:18.000Z</time>
      </trkpt>
      <trkpt lat="49.86365" lon="4.77835">
        <ele>317</ele>
        <time>2022-08-19T08:43:19.000Z</time>
      </trkpt>
      <trkpt lat="49.86365" lon="4.77835">
        <ele>317</ele>
        <time>2022-08-19T08:43:20.000Z</time>
      </trkpt>
      <trkpt lat="49.86365" lon="4.77834">
        <ele>317</ele>
        <time>2022-08-19T08:43:21.000Z</time>
      </trkpt>
      <trkpt lat="49.86365" lon="4.77833">
        <ele>317</ele>
        <time>2022-08-19T08:43:22.000Z</time>
      </trkpt>
      <trkpt lat="49.86365" lon="4.77832">
        <ele>317</ele>
        <time>2022-08-19T08:43:23.000Z</time>
      </trkpt>
      <trkpt lat="49.86365" lon="4.77832">
        <ele>317</ele>
        <time>2022-08-19T08:43:24.000Z</time>
      </trkpt>
      <trkpt lat="49.86365" lon="4.77832">
        <ele>317</ele>
        <time>2022-08-19T08:43:25.000Z</time>
      </trkpt>
      <trkpt lat="49.86365" lon="4.77832">
        <ele>317</ele>
        <time>2022-08-19T08:43:26.000Z</time>
      </trkpt>
      <trkpt lat="49.86365" lon="4.77832">
        <ele>317</ele>
        <time>2022-08-19T08:43:27.000Z</time>
      </trkpt>
      <trkpt lat="49.86365" lon="4.77832">
        <ele>317</ele>
        <time>2022-08-19T08:43:28.000Z</time>
      </trkpt>
      <trkpt lat="49.86365" lon="4.77832">
        <ele>317</ele>
        <time>2022-08-19T08:43:29.000Z</time>
      </trkpt>
      <trkpt lat="49.86365" lon="4.77832">
        <ele>317</ele>
        <time>2022-08-19T08:43:30.000Z</time>
      </trkpt>
      <trkpt lat="49.86365" lon="4.77832">
        <ele>317</ele>
        <time>2022-08-19T08:43:31.000Z</time>
      </trkpt>
      <trkpt lat="49.86365" lon="4.77832">
        <ele>317</ele>
        <time>2022-08-19T08:43:32.000Z</time>
      </trkpt>
      <trkpt lat="49.86365" lon="4.77832">
        <ele>317</ele>
        <time>2022-08-19T08:43:33.000Z</time>
      </trkpt>
      <trkpt lat="49.86365" lon="4.77832">
        <ele>317</ele>
        <time>2022-08-19T08:43:34.000Z</time>
      </trkpt>
      <trkpt lat="49.86365" lon="4.77832">
        <ele>317</ele>
        <time>2022-08-19T08:43:35.000Z</time>
      </trkpt>
      <trkpt lat="49.86365" lon="4.77832">
        <ele>317</ele>
        <time>2022-08-19T08:43:36.000Z</time>
      </trkpt>
      <trkpt lat="49.86365" lon="4.77832">
        <ele>317</ele>
        <time>2022-08-19T08:43:37.000Z</time>
      </trkpt>
      <trkpt lat="49.86365" lon="4.77832">
        <ele>317</ele>
        <time>2022-08-19T08:43:38.000Z</time>
      </trkpt>
      <trkpt lat="49.86365" lon="4.77832">
        <ele>317</ele>
        <time>2022-08-19T08:43:39.000Z</time>
      </trkpt>
      <trkpt lat="49.86365" lon="4.77832">
        <ele>317</ele>
        <time>2022-08-19T08:43:40.000Z</time>
      </trkpt>
      <trkpt lat="49.86365" lon="4.77832">
        <ele>317</ele>
        <time>2022-08-19T08:43:41.000Z</time>
      </trkpt>
      <trkpt lat="49.86365" lon="4.77832">
        <ele>317</ele>
        <time>2022-08-19T08:43:42.000Z</time>
      </trkpt>
      <trkpt lat="49.86365" lon="4.77832">
        <ele>317</ele>
        <time>2022-08-19T08:43:43.000Z</time>
      </trkpt>
      <trkpt lat="49.86364" lon="4.77833">
        <ele>317</ele>
        <time>2022-08-19T08:43:44.000Z</time>
      </trkpt>
      <trkpt lat="49.86364" lon="4.77833">
        <ele>317</ele>
        <time>2022-08-19T08:43:45.000Z</time>
      </trkpt>
      <trkpt lat="49.86364" lon="4.77835">
        <ele>317</ele>
        <time>2022-08-19T08:43:46.000Z</time>
      </trkpt>
      <trkpt lat="49.86363" lon="4.77835">
        <ele>317</ele>
        <time>2022-08-19T08:43:47.000Z</time>
      </trkpt>
      <trkpt lat="49.86363" lon="4.77835">
        <ele>317</ele>
        <time>2022-08-19T08:43:48.000Z</time>
      </trkpt>
      <trkpt lat="49.86363" lon="4.77835">
        <ele>317</ele>
        <time>2022-08-19T08:43:49.000Z</time>
      </trkpt>
      <trkpt lat="49.86363" lon="4.77835">
        <ele>317</ele>
        <time>2022-08-19T08:43:50.000Z</time>
      </trkpt>
      <trkpt lat="49.86363" lon="4.77834">
        <ele>317</ele>
        <time>2022-08-19T08:43:51.000Z</time>
      </trkpt>
      <trkpt lat="49.86362" lon="4.77833">
        <ele>317</ele>
        <time>2022-08-19T08:43:52.000Z</time>
      </trkpt>
      <trkpt lat="49.86362" lon="4.77833">
        <ele>317</ele>
        <time>2022-08-19T08:43:53.000Z</time>
      </trkpt>
      <trkpt lat="49.86362" lon="4.77833">
        <ele>317</ele>
        <time>2022-08-19T08:43:54.000Z</time>
      </trkpt>
      <trkpt lat="49.86361" lon="4.77832">
        <ele>317</ele>
        <time>2022-08-19T08:43:55.000Z</time>
      </trkpt>
      <trkpt lat="49.8636" lon="4.77831">
        <ele>317</ele>
        <time>2022-08-19T08:43:56.000Z</time>
      </trkpt>
      <trkpt lat="49.86359" lon="4.7783">
        <ele>317</ele>
        <time>2022-08-19T08:43:57.000Z</time>
      </trkpt>
      <trkpt lat="49.86357" lon="4.77829">
        <ele>317</ele>
        <time>2022-08-19T08:43:58.000Z</time>
      </trkpt>
      <trkpt lat="49.86355" lon="4.77829">
        <ele>317</ele>
        <time>2022-08-19T08:43:59.000Z</time>
      </trkpt>
      <trkpt lat="49.86352" lon="4.77829">
        <ele>317</ele>
        <time>2022-08-19T08:44:00.000Z</time>
      </trkpt>
      <trkpt lat="49.86349" lon="4.77828">
        <ele>317</ele>
        <time>2022-08-19T08:44:01.000Z</time>
      </trkpt>
      <trkpt lat="49.86347" lon="4.77828">
        <ele>317</ele>
        <time>2022-08-19T08:44:02.000Z</time>
      </trkpt>
      <trkpt lat="49.86344" lon="4.77827">
        <ele>317</ele>
        <time>2022-08-19T08:44:03.000Z</time>
      </trkpt>
      <trkpt lat="49.8634" lon="4.77828">
        <ele>317</ele>
        <time>2022-08-19T08:44:04.000Z</time>
      </trkpt>
      <trkpt lat="49.86337" lon="4.77828">
        <ele>317</ele>
        <time>2022-08-19T08:44:05.000Z</time>
      </trkpt>
      <trkpt lat="49.86334" lon="4.77827">
        <ele>317</ele>
        <time>2022-08-19T08:44:06.000Z</time>
      </trkpt>
      <trkpt lat="49.86331" lon="4.77827">
        <ele>317</ele>
        <time>2022-08-19T08:44:07.000Z</time>
      </trkpt>
      <trkpt lat="49.86328" lon="4.77828">
        <ele>317</ele>
        <time>2022-08-19T08:44:08.000Z</time>
      </trkpt>
      <trkpt lat="49.86325" lon="4.77828">
        <ele>317</ele>
        <time>2022-08-19T08:44:09.000Z</time>
      </trkpt>
      <trkpt lat="49.86323" lon="4.77828">
        <ele>317</ele>
        <time>2022-08-19T08:44:10.000Z</time>
      </trkpt>
      <trkpt lat="49.86321" lon="4.77829">
        <ele>317</ele>
        <time>2022-08-19T08:44:11.000Z</time>
      </trkpt>
      <trkpt lat="49.86319" lon="4.77829">
        <ele>317</ele>
        <time>2022-08-19T08:44:12.000Z</time>
      </trkpt>
      <trkpt lat="49.86317" lon="4.7783">
        <ele>317</ele>
        <time>2022-08-19T08:44:13.000Z</time>
      </trkpt>
      <trkpt lat="49.86315" lon="4.7783">
        <ele>317</ele>
        <time>2022-08-19T08:44:14.000Z</time>
      </trkpt>
      <trkpt lat="49.86313" lon="4.7783">
        <ele>317</ele>
        <time>2022-08-19T08:44:15.000Z</time>
      </trkpt>
      <trkpt lat="49.86311" lon="4.77831">
        <ele>317</ele>
        <time>2022-08-19T08:44:16.000Z</time>
      </trkpt>
      <trkpt lat="49.86309" lon="4.77833">
        <ele>317</ele>
        <time>2022-08-19T08:44:17.000Z</time>
      </trkpt>
      <trkpt lat="49.86306" lon="4.77837">
        <ele>317</ele>
        <time>2022-08-19T08:44:18.000Z</time>
      </trkpt>
      <trkpt lat="49.86303" lon="4.7784">
        <ele>317</ele>
        <time>2022-08-19T08:44:19.000Z</time>
      </trkpt>
      <trkpt lat="49.86302" lon="4.77843">
        <ele>318</ele>
        <time>2022-08-19T08:44:20.000Z</time>
      </trkpt>
      <trkpt lat="49.863" lon="4.77845">
        <ele>318</ele>
        <time>2022-08-19T08:44:21.000Z</time>
      </trkpt>
      <trkpt lat="49.86299" lon="4.77848">
        <ele>318</ele>
        <time>2022-08-19T08:44:22.000Z</time>
      </trkpt>
      <trkpt lat="49.86296" lon="4.77851">
        <ele>318</ele>
        <time>2022-08-19T08:44:23.000Z</time>
      </trkpt>
      <trkpt lat="49.86294" lon="4.77853">
        <ele>318</ele>
        <time>2022-08-19T08:44:24.000Z</time>
      </trkpt>
      <trkpt lat="49.86291" lon="4.77855">
        <ele>318</ele>
        <time>2022-08-19T08:44:25.000Z</time>
      </trkpt>
      <trkpt lat="49.86288" lon="4.77858">
        <ele>319</ele>
        <time>2022-08-19T08:44:26.000Z</time>
      </trkpt>
      <trkpt lat="49.86284" lon="4.77859">
        <ele>319</ele>
        <time>2022-08-19T08:44:27.000Z</time>
      </trkpt>
      <trkpt lat="49.86281" lon="4.7786">
        <ele>319</ele>
        <time>2022-08-19T08:44:28.000Z</time>
      </trkpt>
      <trkpt lat="49.86278" lon="4.7786">
        <ele>319</ele>
        <time>2022-08-19T08:44:29.000Z</time>
      </trkpt>
      <trkpt lat="49.86275" lon="4.77859">
        <ele>319</ele>
        <time>2022-08-19T08:44:30.000Z</time>
      </trkpt>
      <trkpt lat="49.86272" lon="4.77857">
        <ele>319</ele>
        <time>2022-08-19T08:44:31.000Z</time>
      </trkpt>
      <trkpt lat="49.86269" lon="4.77854">
        <ele>319</ele>
        <time>2022-08-19T08:44:32.000Z</time>
      </trkpt>
      <trkpt lat="49.86266" lon="4.77851">
        <ele>320</ele>
        <time>2022-08-19T08:44:33.000Z</time>
      </trkpt>
      <trkpt lat="49.86264" lon="4.77846">
        <ele>320</ele>
        <time>2022-08-19T08:44:34.000Z</time>
      </trkpt>
      <trkpt lat="49.86263" lon="4.77841">
        <ele>320</ele>
        <time>2022-08-19T08:44:35.000Z</time>
      </trkpt>
      <trkpt lat="49.86262" lon="4.77836">
        <ele>320</ele>
        <time>2022-08-19T08:44:36.000Z</time>
      </trkpt>
      <trkpt lat="49.86262" lon="4.7783">
        <ele>320</ele>
        <time>2022-08-19T08:44:37.000Z</time>
      </trkpt>
      <trkpt lat="49.86264" lon="4.77825">
        <ele>320</ele>
        <time>2022-08-19T08:44:38.000Z</time>
      </trkpt>
      <trkpt lat="49.86265" lon="4.77819">
        <ele>320</ele>
        <time>2022-08-19T08:44:39.000Z</time>
      </trkpt>
      <trkpt lat="49.86267" lon="4.77813">
        <ele>320</ele>
        <time>2022-08-19T08:44:40.000Z</time>
      </trkpt>
      <trkpt lat="49.86268" lon="4.77807">
        <ele>321</ele>
        <time>2022-08-19T08:44:41.000Z</time>
      </trkpt>
      <trkpt lat="49.8627" lon="4.77802">
        <ele>321</ele>
        <time>2022-08-19T08:44:42.000Z</time>
      </trkpt>
      <trkpt lat="49.86272" lon="4.77796">
        <ele>321</ele>
        <time>2022-08-19T08:44:43.000Z</time>
      </trkpt>
      <trkpt lat="49.86273" lon="4.77792">
        <ele>321</ele>
        <time>2022-08-19T08:44:44.000Z</time>
      </trkpt>
      <trkpt lat="49.86274" lon="4.77786">
        <ele>321</ele>
        <time>2022-08-19T08:44:45.000Z</time>
      </trkpt>
      <trkpt lat="49.86275" lon="4.77779">
        <ele>321</ele>
        <time>2022-08-19T08:44:46.000Z</time>
      </trkpt>
      <trkpt lat="49.86275" lon="4.77773">
        <ele>321</ele>
        <time>2022-08-19T08:44:47.000Z</time>
      </trkpt>
      <trkpt lat="49.86277" lon="4.77767">
        <ele>321</ele>
        <time>2022-08-19T08:44:48.000Z</time>
      </trkpt>
      <trkpt lat="49.86278" lon="4.77761">
        <ele>321</ele>
        <time>2022-08-19T08:44:49.000Z</time>
      </trkpt>
      <trkpt lat="49.8628" lon="4.77755">
        <ele>321</ele>
        <time>2022-08-19T08:44:50.000Z</time>
      </trkpt>
      <trkpt lat="49.86281" lon="4.77749">
        <ele>321</ele>
        <time>2022-08-19T08:44:51.000Z</time>
      </trkpt>
      <trkpt lat="49.86282" lon="4.77744">
        <ele>321</ele>
        <time>2022-08-19T08:44:52.000Z</time>
      </trkpt>
      <trkpt lat="49.86281" lon="4.77739">
        <ele>321</ele>
        <time>2022-08-19T08:44:53.000Z</time>
      </trkpt>
      <trkpt lat="49.86278" lon="4.77735">
        <ele>321</ele>
        <time>2022-08-19T08:44:54.000Z</time>
      </trkpt>
      <trkpt lat="49.86275" lon="4.77731">
        <ele>321</ele>
        <time>2022-08-19T08:44:55.000Z</time>
      </trkpt>
      <trkpt lat="49.86271" lon="4.77729">
        <ele>321</ele>
        <time>2022-08-19T08:44:56.000Z</time>
      </trkpt>
      <trkpt lat="49.86267" lon="4.77726">
        <ele>321</ele>
        <time>2022-08-19T08:44:57.000Z</time>
      </trkpt>
      <trkpt lat="49.86262" lon="4.77724">
        <ele>322</ele>
        <time>2022-08-19T08:44:58.000Z</time>
      </trkpt>
      <trkpt lat="49.86258" lon="4.77722">
        <ele>322</ele>
        <time>2022-08-19T08:44:59.000Z</time>
      </trkpt>
      <trkpt lat="49.86254" lon="4.77719">
        <ele>322</ele>
        <time>2022-08-19T08:45:00.000Z</time>
      </trkpt>
      <trkpt lat="49.8625" lon="4.77717">
        <ele>322</ele>
        <time>2022-08-19T08:45:01.000Z</time>
      </trkpt>
      <trkpt lat="49.86246" lon="4.77715">
        <ele>323</ele>
        <time>2022-08-19T08:45:02.000Z</time>
      </trkpt>
      <trkpt lat="49.86243" lon="4.77713">
        <ele>323</ele>
        <time>2022-08-19T08:45:03.000Z</time>
      </trkpt>
      <trkpt lat="49.86239" lon="4.77711">
        <ele>323</ele>
        <time>2022-08-19T08:45:04.000Z</time>
      </trkpt>
      <trkpt lat="49.86236" lon="4.7771">
        <ele>323</ele>
        <time>2022-08-19T08:45:05.000Z</time>
      </trkpt>
      <trkpt lat="49.86232" lon="4.77708">
        <ele>323</ele>
        <time>2022-08-19T08:45:06.000Z</time>
      </trkpt>
      <trkpt lat="49.86229" lon="4.77707">
        <ele>324</ele>
        <time>2022-08-19T08:45:07.000Z</time>
      </trkpt>
      <trkpt lat="49.86225" lon="4.77705">
        <ele>324</ele>
        <time>2022-08-19T08:45:08.000Z</time>
      </trkpt>
      <trkpt lat="49.8622" lon="4.77704">
        <ele>324</ele>
        <time>2022-08-19T08:45:09.000Z</time>
      </trkpt>
      <trkpt lat="49.86216" lon="4.77702">
        <ele>324</ele>
        <time>2022-08-19T08:45:10.000Z</time>
      </trkpt>
      <trkpt lat="49.86212" lon="4.77701">
        <ele>324</ele>
        <time>2022-08-19T08:45:11.000Z</time>
      </trkpt>
      <trkpt lat="49.86208" lon="4.77701">
        <ele>324</ele>
        <time>2022-08-19T08:45:12.000Z</time>
      </trkpt>
      <trkpt lat="49.86204" lon="4.77701">
        <ele>324</ele>
        <time>2022-08-19T08:45:13.000Z</time>
      </trkpt>
      <trkpt lat="49.86199" lon="4.777">
        <ele>324</ele>
        <time>2022-08-19T08:45:14.000Z</time>
      </trkpt>
      <trkpt lat="49.86193" lon="4.77699">
        <ele>325</ele>
        <time>2022-08-19T08:45:15.000Z</time>
      </trkpt>
      <trkpt lat="49.86188" lon="4.77697">
        <ele>325</ele>
        <time>2022-08-19T08:45:16.000Z</time>
      </trkpt>
      <trkpt lat="49.86182" lon="4.77696">
        <ele>325</ele>
        <time>2022-08-19T08:45:17.000Z</time>
      </trkpt>
      <trkpt lat="49.86177" lon="4.77695">
        <ele>325</ele>
        <time>2022-08-19T08:45:18.000Z</time>
      </trkpt>
      <trkpt lat="49.86171" lon="4.77694">
        <ele>325</ele>
        <time>2022-08-19T08:45:19.000Z</time>
      </trkpt>
      <trkpt lat="49.86166" lon="4.77693">
        <ele>325</ele>
        <time>2022-08-19T08:45:20.000Z</time>
      </trkpt>
      <trkpt lat="49.8616" lon="4.77691">
        <ele>325</ele>
        <time>2022-08-19T08:45:21.000Z</time>
      </trkpt>
      <trkpt lat="49.86155" lon="4.7769">
        <ele>326</ele>
        <time>2022-08-19T08:45:22.000Z</time>
      </trkpt>
      <trkpt lat="49.8615" lon="4.77688">
        <ele>326</ele>
        <time>2022-08-19T08:45:23.000Z</time>
      </trkpt>
      <trkpt lat="49.86146" lon="4.77687">
        <ele>326</ele>
        <time>2022-08-19T08:45:24.000Z</time>
      </trkpt>
      <trkpt lat="49.86142" lon="4.77686">
        <ele>326</ele>
        <time>2022-08-19T08:45:25.000Z</time>
      </trkpt>
      <trkpt lat="49.86138" lon="4.77685">
        <ele>326</ele>
        <time>2022-08-19T08:45:26.000Z</time>
      </trkpt>
      <trkpt lat="49.86134" lon="4.77684">
        <ele>326</ele>
        <time>2022-08-19T08:45:27.000Z</time>
      </trkpt>
      <trkpt lat="49.86131" lon="4.77684">
        <ele>326</ele>
        <time>2022-08-19T08:45:28.000Z</time>
      </trkpt>
      <trkpt lat="49.86128" lon="4.77684">
        <ele>326</ele>
        <time>2022-08-19T08:45:29.000Z</time>
      </trkpt>
      <trkpt lat="49.86125" lon="4.77684">
        <ele>326</ele>
        <time>2022-08-19T08:45:30.000Z</time>
      </trkpt>
      <trkpt lat="49.86122" lon="4.77683">
        <ele>326</ele>
        <time>2022-08-19T08:45:31.000Z</time>
      </trkpt>
      <trkpt lat="49.86119" lon="4.77682">
        <ele>326</ele>
        <time>2022-08-19T08:45:32.000Z</time>
      </trkpt>
      <trkpt lat="49.86116" lon="4.77681">
        <ele>327</ele>
        <time>2022-08-19T08:45:33.000Z</time>
      </trkpt>
      <trkpt lat="49.86113" lon="4.7768">
        <ele>327</ele>
        <time>2022-08-19T08:45:34.000Z</time>
      </trkpt>
      <trkpt lat="49.8611" lon="4.7768">
        <ele>327</ele>
        <time>2022-08-19T08:45:35.000Z</time>
      </trkpt>
      <trkpt lat="49.86107" lon="4.77681">
        <ele>327</ele>
        <time>2022-08-19T08:45:36.000Z</time>
      </trkpt>
      <trkpt lat="49.86104" lon="4.77682">
        <ele>327</ele>
        <time>2022-08-19T08:45:37.000Z</time>
      </trkpt>
      <trkpt lat="49.86101" lon="4.77682">
        <ele>327</ele>
        <time>2022-08-19T08:45:38.000Z</time>
      </trkpt>
      <trkpt lat="49.86098" lon="4.77682">
        <ele>327</ele>
        <time>2022-08-19T08:45:39.000Z</time>
      </trkpt>
      <trkpt lat="49.86094" lon="4.77683">
        <ele>327</ele>
        <time>2022-08-19T08:45:40.000Z</time>
      </trkpt>
      <trkpt lat="49.8609" lon="4.77684">
        <ele>328</ele>
        <time>2022-08-19T08:45:41.000Z</time>
      </trkpt>
      <trkpt lat="49.86085" lon="4.77685">
        <ele>328</ele>
        <time>2022-08-19T08:45:42.000Z</time>
      </trkpt>
      <trkpt lat="49.8608" lon="4.77686">
        <ele>328</ele>
        <time>2022-08-19T08:45:43.000Z</time>
      </trkpt>
      <trkpt lat="49.86075" lon="4.77687">
        <ele>328</ele>
        <time>2022-08-19T08:45:44.000Z</time>
      </trkpt>
      <trkpt lat="49.8607" lon="4.77688">
        <ele>328</ele>
        <time>2022-08-19T08:45:45.000Z</time>
      </trkpt>
      <trkpt lat="49.86065" lon="4.77688">
        <ele>328</ele>
        <time>2022-08-19T08:45:46.000Z</time>
      </trkpt>
      <trkpt lat="49.86059" lon="4.77689">
        <ele>328</ele>
        <time>2022-08-19T08:45:47.000Z</time>
      </trkpt>
      <trkpt lat="49.86054" lon="4.7769">
        <ele>328</ele>
        <time>2022-08-19T08:45:48.000Z</time>
      </trkpt>
      <trkpt lat="49.86048" lon="4.77691">
        <ele>329</ele>
        <time>2022-08-19T08:45:49.000Z</time>
      </trkpt>
      <trkpt lat="49.86043" lon="4.77691">
        <ele>329</ele>
        <time>2022-08-19T08:45:50.000Z</time>
      </trkpt>
      <trkpt lat="49.86037" lon="4.77692">
        <ele>329</ele>
        <time>2022-08-19T08:45:51.000Z</time>
      </trkpt>
      <trkpt lat="49.86031" lon="4.77693">
        <ele>329</ele>
        <time>2022-08-19T08:45:52.000Z</time>
      </trkpt>
      <trkpt lat="49.86026" lon="4.77693">
        <ele>329</ele>
        <time>2022-08-19T08:45:53.000Z</time>
      </trkpt>
      <trkpt lat="49.8602" lon="4.77694">
        <ele>329</ele>
        <time>2022-08-19T08:45:54.000Z</time>
      </trkpt>
      <trkpt lat="49.86016" lon="4.77695">
        <ele>329</ele>
        <time>2022-08-19T08:45:55.000Z</time>
      </trkpt>
      <trkpt lat="49.86011" lon="4.77696">
        <ele>329</ele>
        <time>2022-08-19T08:45:56.000Z</time>
      </trkpt>
      <trkpt lat="49.86006" lon="4.77697">
        <ele>329</ele>
        <time>2022-08-19T08:45:57.000Z</time>
      </trkpt>
      <trkpt lat="49.86002" lon="4.77698">
        <ele>329</ele>
        <time>2022-08-19T08:45:58.000Z</time>
      </trkpt>
      <trkpt lat="49.85997" lon="4.77699">
        <ele>329</ele>
        <time>2022-08-19T08:45:59.000Z</time>
      </trkpt>
      <trkpt lat="49.85994" lon="4.77699">
        <ele>329</ele>
        <time>2022-08-19T08:46:00.000Z</time>
      </trkpt>
      <trkpt lat="49.8599" lon="4.777">
        <ele>329</ele>
        <time>2022-08-19T08:46:01.000Z</time>
      </trkpt>
      <trkpt lat="49.85986" lon="4.77701">
        <ele>330</ele>
        <time>2022-08-19T08:46:02.000Z</time>
      </trkpt>
      <trkpt lat="49.85981" lon="4.77703">
        <ele>330</ele>
        <time>2022-08-19T08:46:03.000Z</time>
      </trkpt>
      <trkpt lat="49.85976" lon="4.77705">
        <ele>330</ele>
        <time>2022-08-19T08:46:04.000Z</time>
      </trkpt>
      <trkpt lat="49.8597" lon="4.77707">
        <ele>330</ele>
        <time>2022-08-19T08:46:05.000Z</time>
      </trkpt>
      <trkpt lat="49.85963" lon="4.77708">
        <ele>330</ele>
        <time>2022-08-19T08:46:06.000Z</time>
      </trkpt>
      <trkpt lat="49.85956" lon="4.7771">
        <ele>329</ele>
        <time>2022-08-19T08:46:07.000Z</time>
      </trkpt>
      <trkpt lat="49.85949" lon="4.77711">
        <ele>329</ele>
        <time>2022-08-19T08:46:08.000Z</time>
      </trkpt>
      <trkpt lat="49.85944" lon="4.77713">
        <ele>329</ele>
        <time>2022-08-19T08:46:09.000Z</time>
      </trkpt>
      <trkpt lat="49.85938" lon="4.77715">
        <ele>329</ele>
        <time>2022-08-19T08:46:10.000Z</time>
      </trkpt>
      <trkpt lat="49.85933" lon="4.77719">
        <ele>328</ele>
        <time>2022-08-19T08:46:11.000Z</time>
      </trkpt>
      <trkpt lat="49.85928" lon="4.77723">
        <ele>328</ele>
        <time>2022-08-19T08:46:12.000Z</time>
      </trkpt>
      <trkpt lat="49.85922" lon="4.77726">
        <ele>328</ele>
        <time>2022-08-19T08:46:13.000Z</time>
      </trkpt>
      <trkpt lat="49.85917" lon="4.77729">
        <ele>327</ele>
        <time>2022-08-19T08:46:14.000Z</time>
      </trkpt>
      <trkpt lat="49.85911" lon="4.77732">
        <ele>327</ele>
        <time>2022-08-19T08:46:15.000Z</time>
      </trkpt>
      <trkpt lat="49.85906" lon="4.77736">
        <ele>327</ele>
        <time>2022-08-19T08:46:16.000Z</time>
      </trkpt>
      <trkpt lat="49.85901" lon="4.77739">
        <ele>326</ele>
        <time>2022-08-19T08:46:17.000Z</time>
      </trkpt>
      <trkpt lat="49.85896" lon="4.77742">
        <ele>326</ele>
        <time>2022-08-19T08:46:18.000Z</time>
      </trkpt>
      <trkpt lat="49.85891" lon="4.77745">
        <ele>325</ele>
        <time>2022-08-19T08:46:19.000Z</time>
      </trkpt>
      <trkpt lat="49.85885" lon="4.77748">
        <ele>325</ele>
        <time>2022-08-19T08:46:20.000Z</time>
      </trkpt>
      <trkpt lat="49.85878" lon="4.77752">
        <ele>325</ele>
        <time>2022-08-19T08:46:21.000Z</time>
      </trkpt>
      <trkpt lat="49.85871" lon="4.77755">
        <ele>324</ele>
        <time>2022-08-19T08:46:22.000Z</time>
      </trkpt>
      <trkpt lat="49.85865" lon="4.77757">
        <ele>324</ele>
        <time>2022-08-19T08:46:23.000Z</time>
      </trkpt>
      <trkpt lat="49.85858" lon="4.77759">
        <ele>323</ele>
        <time>2022-08-19T08:46:24.000Z</time>
      </trkpt>
      <trkpt lat="49.8585" lon="4.77761">
        <ele>323</ele>
        <time>2022-08-19T08:46:25.000Z</time>
      </trkpt>
      <trkpt lat="49.85842" lon="4.77762">
        <ele>322</ele>
        <time>2022-08-19T08:46:26.000Z</time>
      </trkpt>
      <trkpt lat="49.85834" lon="4.77764">
        <ele>321</ele>
        <time>2022-08-19T08:46:27.000Z</time>
      </trkpt>
      <trkpt lat="49.85827" lon="4.77765">
        <ele>321</ele>
        <time>2022-08-19T08:46:28.000Z</time>
      </trkpt>
      <trkpt lat="49.85821" lon="4.77767">
        <ele>320</ele>
        <time>2022-08-19T08:46:29.000Z</time>
      </trkpt>
      <trkpt lat="49.85815" lon="4.77768">
        <ele>319</ele>
        <time>2022-08-19T08:46:30.000Z</time>
      </trkpt>
      <trkpt lat="49.8581" lon="4.77769">
        <ele>319</ele>
        <time>2022-08-19T08:46:31.000Z</time>
      </trkpt>
      <trkpt lat="49.85805" lon="4.7777">
        <ele>318</ele>
        <time>2022-08-19T08:46:32.000Z</time>
      </trkpt>
      <trkpt lat="49.85801" lon="4.77772">
        <ele>318</ele>
        <time>2022-08-19T08:46:33.000Z</time>
      </trkpt>
      <trkpt lat="49.85796" lon="4.77773">
        <ele>317</ele>
        <time>2022-08-19T08:46:34.000Z</time>
      </trkpt>
      <trkpt lat="49.85791" lon="4.77774">
        <ele>316</ele>
        <time>2022-08-19T08:46:35.000Z</time>
      </trkpt>
      <trkpt lat="49.85787" lon="4.77774">
        <ele>316</ele>
        <time>2022-08-19T08:46:36.000Z</time>
      </trkpt>
      <trkpt lat="49.85784" lon="4.77774">
        <ele>315</ele>
        <time>2022-08-19T08:46:37.000Z</time>
      </trkpt>
      <trkpt lat="49.85781" lon="4.77772">
        <ele>315</ele>
        <time>2022-08-19T08:46:38.000Z</time>
      </trkpt>
      <trkpt lat="49.85779" lon="4.77769">
        <ele>314</ele>
        <time>2022-08-19T08:46:39.000Z</time>
      </trkpt>
      <trkpt lat="49.85778" lon="4.77765">
        <ele>314</ele>
        <time>2022-08-19T08:46:40.000Z</time>
      </trkpt>
      <trkpt lat="49.85777" lon="4.7776">
        <ele>313</ele>
        <time>2022-08-19T08:46:41.000Z</time>
      </trkpt>
      <trkpt lat="49.85775" lon="4.77755">
        <ele>312</ele>
        <time>2022-08-19T08:46:42.000Z</time>
      </trkpt>
      <trkpt lat="49.85772" lon="4.77751">
        <ele>312</ele>
        <time>2022-08-19T08:46:43.000Z</time>
      </trkpt>
      <trkpt lat="49.85767" lon="4.77748">
        <ele>311</ele>
        <time>2022-08-19T08:46:44.000Z</time>
      </trkpt>
      <trkpt lat="49.85763" lon="4.77747">
        <ele>311</ele>
        <time>2022-08-19T08:46:45.000Z</time>
      </trkpt>
      <trkpt lat="49.85759" lon="4.77746">
        <ele>311</ele>
        <time>2022-08-19T08:46:46.000Z</time>
      </trkpt>
      <trkpt lat="49.85755" lon="4.77747">
        <ele>311</ele>
        <time>2022-08-19T08:46:47.000Z</time>
      </trkpt>
      <trkpt lat="49.85751" lon="4.77748">
        <ele>310</ele>
        <time>2022-08-19T08:46:48.000Z</time>
      </trkpt>
      <trkpt lat="49.85748" lon="4.7775">
        <ele>310</ele>
        <time>2022-08-19T08:46:49.000Z</time>
      </trkpt>
      <trkpt lat="49.85744" lon="4.77751">
        <ele>310</ele>
        <time>2022-08-19T08:46:50.000Z</time>
      </trkpt>
      <trkpt lat="49.8574" lon="4.77752">
        <ele>310</ele>
        <time>2022-08-19T08:46:51.000Z</time>
      </trkpt>
      <trkpt lat="49.85736" lon="4.77754">
        <ele>310</ele>
        <time>2022-08-19T08:46:52.000Z</time>
      </trkpt>
      <trkpt lat="49.85732" lon="4.77756">
        <ele>310</ele>
        <time>2022-08-19T08:46:53.000Z</time>
      </trkpt>
      <trkpt lat="49.85729" lon="4.77757">
        <ele>310</ele>
        <time>2022-08-19T08:46:54.000Z</time>
      </trkpt>
      <trkpt lat="49.85725" lon="4.77758">
        <ele>310</ele>
        <time>2022-08-19T08:46:55.000Z</time>
      </trkpt>
      <trkpt lat="49.85721" lon="4.77761">
        <ele>310</ele>
        <time>2022-08-19T08:46:56.000Z</time>
      </trkpt>
      <trkpt lat="49.85717" lon="4.77763">
        <ele>310</ele>
        <time>2022-08-19T08:46:57.000Z</time>
      </trkpt>
      <trkpt lat="49.85713" lon="4.77765">
        <ele>310</ele>
        <time>2022-08-19T08:46:58.000Z</time>
      </trkpt>
      <trkpt lat="49.85709" lon="4.77767">
        <ele>310</ele>
        <time>2022-08-19T08:46:59.000Z</time>
      </trkpt>
      <trkpt lat="49.85705" lon="4.77769">
        <ele>310</ele>
        <time>2022-08-19T08:47:00.000Z</time>
      </trkpt>
      <trkpt lat="49.85701" lon="4.77771">
        <ele>310</ele>
        <time>2022-08-19T08:47:01.000Z</time>
      </trkpt>
      <trkpt lat="49.85697" lon="4.77773">
        <ele>310</ele>
        <time>2022-08-19T08:47:02.000Z</time>
      </trkpt>
      <trkpt lat="49.85693" lon="4.77775">
        <ele>310</ele>
        <time>2022-08-19T08:47:03.000Z</time>
      </trkpt>
      <trkpt lat="49.85689" lon="4.77777">
        <ele>310</ele>
        <time>2022-08-19T08:47:04.000Z</time>
      </trkpt>
      <trkpt lat="49.85686" lon="4.7778">
        <ele>310</ele>
        <time>2022-08-19T08:47:05.000Z</time>
      </trkpt>
      <trkpt lat="49.85682" lon="4.77783">
        <ele>311</ele>
        <time>2022-08-19T08:47:06.000Z</time>
      </trkpt>
      <trkpt lat="49.85679" lon="4.77785">
        <ele>311</ele>
        <time>2022-08-19T08:47:07.000Z</time>
      </trkpt>
      <trkpt lat="49.85675" lon="4.77788">
        <ele>311</ele>
        <time>2022-08-19T08:47:08.000Z</time>
      </trkpt>
      <trkpt lat="49.85672" lon="4.77792">
        <ele>311</ele>
        <time>2022-08-19T08:47:09.000Z</time>
      </trkpt>
      <trkpt lat="49.85669" lon="4.77796">
        <ele>311</ele>
        <time>2022-08-19T08:47:10.000Z</time>
      </trkpt>
      <trkpt lat="49.85666" lon="4.77797">
        <ele>311</ele>
        <time>2022-08-19T08:47:11.000Z</time>
      </trkpt>
      <trkpt lat="49.85662" lon="4.77798">
        <ele>311</ele>
        <time>2022-08-19T08:47:12.000Z</time>
      </trkpt>
      <trkpt lat="49.85658" lon="4.77799">
        <ele>312</ele>
        <time>2022-08-19T08:47:13.000Z</time>
      </trkpt>
      <trkpt lat="49.85655" lon="4.77799">
        <ele>312</ele>
        <time>2022-08-19T08:47:14.000Z</time>
      </trkpt>
      <trkpt lat="49.85652" lon="4.778">
        <ele>312</ele>
        <time>2022-08-19T08:47:15.000Z</time>
      </trkpt>
      <trkpt lat="49.85649" lon="4.77802">
        <ele>312</ele>
        <time>2022-08-19T08:47:16.000Z</time>
      </trkpt>
      <trkpt lat="49.85647" lon="4.77804">
        <ele>312</ele>
        <time>2022-08-19T08:47:17.000Z</time>
      </trkpt>
      <trkpt lat="49.85645" lon="4.77806">
        <ele>312</ele>
        <time>2022-08-19T08:47:18.000Z</time>
      </trkpt>
      <trkpt lat="49.85643" lon="4.77808">
        <ele>312</ele>
        <time>2022-08-19T08:47:19.000Z</time>
      </trkpt>
      <trkpt lat="49.85641" lon="4.7781">
        <ele>312</ele>
        <time>2022-08-19T08:47:20.000Z</time>
      </trkpt>
      <trkpt lat="49.85638" lon="4.77812">
        <ele>311</ele>
        <time>2022-08-19T08:47:21.000Z</time>
      </trkpt>
      <trkpt lat="49.85635" lon="4.77814">
        <ele>311</ele>
        <time>2022-08-19T08:47:22.000Z</time>
      </trkpt>
      <trkpt lat="49.85632" lon="4.77816">
        <ele>311</ele>
        <time>2022-08-19T08:47:23.000Z</time>
      </trkpt>
      <trkpt lat="49.8563" lon="4.77818">
        <ele>311</ele>
        <time>2022-08-19T08:47:24.000Z</time>
      </trkpt>
      <trkpt lat="49.85627" lon="4.77819">
        <ele>311</ele>
        <time>2022-08-19T08:47:25.000Z</time>
      </trkpt>
      <trkpt lat="49.85625" lon="4.77822">
        <ele>311</ele>
        <time>2022-08-19T08:47:26.000Z</time>
      </trkpt>
      <trkpt lat="49.85622" lon="4.77824">
        <ele>311</ele>
        <time>2022-08-19T08:47:27.000Z</time>
      </trkpt>
      <trkpt lat="49.85619" lon="4.77827">
        <ele>311</ele>
        <time>2022-08-19T08:47:28.000Z</time>
      </trkpt>
      <trkpt lat="49.85616" lon="4.7783">
        <ele>311</ele>
        <time>2022-08-19T08:47:29.000Z</time>
      </trkpt>
      <trkpt lat="49.85613" lon="4.77834">
        <ele>311</ele>
        <time>2022-08-19T08:47:30.000Z</time>
      </trkpt>
      <trkpt lat="49.8561" lon="4.77837">
        <ele>311</ele>
        <time>2022-08-19T08:47:31.000Z</time>
      </trkpt>
      <trkpt lat="49.85607" lon="4.77841">
        <ele>311</ele>
        <time>2022-08-19T08:47:32.000Z</time>
      </trkpt>
      <trkpt lat="49.85604" lon="4.77845">
        <ele>311</ele>
        <time>2022-08-19T08:47:33.000Z</time>
      </trkpt>
      <trkpt lat="49.85601" lon="4.77847">
        <ele>311</ele>
        <time>2022-08-19T08:47:34.000Z</time>
      </trkpt>
      <trkpt lat="49.85598" lon="4.77851">
        <ele>311</ele>
        <time>2022-08-19T08:47:35.000Z</time>
      </trkpt>
      <trkpt lat="49.85595" lon="4.77854">
        <ele>311</ele>
        <time>2022-08-19T08:47:36.000Z</time>
      </trkpt>
      <trkpt lat="49.85592" lon="4.77859">
        <ele>311</ele>
        <time>2022-08-19T08:47:37.000Z</time>
      </trkpt>
      <trkpt lat="49.8559" lon="4.77863">
        <ele>311</ele>
        <time>2022-08-19T08:47:38.000Z</time>
      </trkpt>
      <trkpt lat="49.85588" lon="4.77867">
        <ele>311</ele>
        <time>2022-08-19T08:47:39.000Z</time>
      </trkpt>
      <trkpt lat="49.85586" lon="4.77872">
        <ele>311</ele>
        <time>2022-08-19T08:47:40.000Z</time>
      </trkpt>
      <trkpt lat="49.85583" lon="4.77878">
        <ele>311</ele>
        <time>2022-08-19T08:47:41.000Z</time>
      </trkpt>
      <trkpt lat="49.85581" lon="4.77884">
        <ele>311</ele>
        <time>2022-08-19T08:47:42.000Z</time>
      </trkpt>
      <trkpt lat="49.85579" lon="4.7789">
        <ele>311</ele>
        <time>2022-08-19T08:47:43.000Z</time>
      </trkpt>
      <trkpt lat="49.85577" lon="4.77896">
        <ele>311</ele>
        <time>2022-08-19T08:47:44.000Z</time>
      </trkpt>
      <trkpt lat="49.85575" lon="4.77903">
        <ele>311</ele>
        <time>2022-08-19T08:47:45.000Z</time>
      </trkpt>
      <trkpt lat="49.85573" lon="4.7791">
        <ele>310</ele>
        <time>2022-08-19T08:47:46.000Z</time>
      </trkpt>
      <trkpt lat="49.85571" lon="4.77917">
        <ele>310</ele>
        <time>2022-08-19T08:47:47.000Z</time>
      </trkpt>
      <trkpt lat="49.85569" lon="4.77923">
        <ele>310</ele>
        <time>2022-08-19T08:47:48.000Z</time>
      </trkpt>
      <trkpt lat="49.85567" lon="4.7793">
        <ele>310</ele>
        <time>2022-08-19T08:47:49.000Z</time>
      </trkpt>
      <trkpt lat="49.85566" lon="4.77936">
        <ele>310</ele>
        <time>2022-08-19T08:47:50.000Z</time>
      </trkpt>
      <trkpt lat="49.85563" lon="4.77942">
        <ele>310</ele>
        <time>2022-08-19T08:47:51.000Z</time>
      </trkpt>
      <trkpt lat="49.85561" lon="4.77948">
        <ele>310</ele>
        <time>2022-08-19T08:47:52.000Z</time>
      </trkpt>
      <trkpt lat="49.85559" lon="4.77954">
        <ele>310</ele>
        <time>2022-08-19T08:47:53.000Z</time>
      </trkpt>
      <trkpt lat="49.85557" lon="4.7796">
        <ele>310</ele>
        <time>2022-08-19T08:47:54.000Z</time>
      </trkpt>
      <trkpt lat="49.85555" lon="4.77965">
        <ele>310</ele>
        <time>2022-08-19T08:47:55.000Z</time>
      </trkpt>
      <trkpt lat="49.85553" lon="4.7797">
        <ele>310</ele>
        <time>2022-08-19T08:47:56.000Z</time>
      </trkpt>
      <trkpt lat="49.8555" lon="4.77976">
        <ele>310</ele>
        <time>2022-08-19T08:47:57.000Z</time>
      </trkpt>
      <trkpt lat="49.85547" lon="4.77982">
        <ele>310</ele>
        <time>2022-08-19T08:47:58.000Z</time>
      </trkpt>
      <trkpt lat="49.85545" lon="4.77987">
        <ele>310</ele>
        <time>2022-08-19T08:47:59.000Z</time>
      </trkpt>
      <trkpt lat="49.85542" lon="4.77993">
        <ele>310</ele>
        <time>2022-08-19T08:48:00.000Z</time>
      </trkpt>
      <trkpt lat="49.8554" lon="4.78">
        <ele>311</ele>
        <time>2022-08-19T08:48:01.000Z</time>
      </trkpt>
      <trkpt lat="49.85539" lon="4.78006">
        <ele>311</ele>
        <time>2022-08-19T08:48:02.000Z</time>
      </trkpt>
      <trkpt lat="49.85537" lon="4.78013">
        <ele>311</ele>
        <time>2022-08-19T08:48:03.000Z</time>
      </trkpt>
      <trkpt lat="49.85535" lon="4.78019">
        <ele>311</ele>
        <time>2022-08-19T08:48:04.000Z</time>
      </trkpt>
      <trkpt lat="49.85533" lon="4.78026">
        <ele>311</ele>
        <time>2022-08-19T08:48:05.000Z</time>
      </trkpt>
      <trkpt lat="49.85532" lon="4.78033">
        <ele>311</ele>
        <time>2022-08-19T08:48:06.000Z</time>
      </trkpt>
      <trkpt lat="49.8553" lon="4.78039">
        <ele>311</ele>
        <time>2022-08-19T08:48:07.000Z</time>
      </trkpt>
      <trkpt lat="49.85529" lon="4.78045">
        <ele>311</ele>
        <time>2022-08-19T08:48:08.000Z</time>
      </trkpt>
      <trkpt lat="49.85527" lon="4.78052">
        <ele>311</ele>
        <time>2022-08-19T08:48:09.000Z</time>
      </trkpt>
      <trkpt lat="49.85525" lon="4.78058">
        <ele>312</ele>
        <time>2022-08-19T08:48:10.000Z</time>
      </trkpt>
      <trkpt lat="49.85522" lon="4.78064">
        <ele>312</ele>
        <time>2022-08-19T08:48:11.000Z</time>
      </trkpt>
      <trkpt lat="49.8552" lon="4.7807">
        <ele>312</ele>
        <time>2022-08-19T08:48:12.000Z</time>
      </trkpt>
      <trkpt lat="49.85518" lon="4.78075">
        <ele>312</ele>
        <time>2022-08-19T08:48:13.000Z</time>
      </trkpt>
      <trkpt lat="49.85516" lon="4.7808">
        <ele>312</ele>
        <time>2022-08-19T08:48:14.000Z</time>
      </trkpt>
      <trkpt lat="49.85513" lon="4.78085">
        <ele>312</ele>
        <time>2022-08-19T08:48:15.000Z</time>
      </trkpt>
      <trkpt lat="49.85511" lon="4.78089">
        <ele>312</ele>
        <time>2022-08-19T08:48:16.000Z</time>
      </trkpt>
      <trkpt lat="49.85508" lon="4.78093">
        <ele>312</ele>
        <time>2022-08-19T08:48:17.000Z</time>
      </trkpt>
      <trkpt lat="49.85506" lon="4.78099">
        <ele>312</ele>
        <time>2022-08-19T08:48:18.000Z</time>
      </trkpt>
      <trkpt lat="49.85503" lon="4.78104">
        <ele>313</ele>
        <time>2022-08-19T08:48:19.000Z</time>
      </trkpt>
      <trkpt lat="49.855" lon="4.78109">
        <ele>313</ele>
        <time>2022-08-19T08:48:20.000Z</time>
      </trkpt>
      <trkpt lat="49.85497" lon="4.78114">
        <ele>313</ele>
        <time>2022-08-19T08:48:21.000Z</time>
      </trkpt>
      <trkpt lat="49.85494" lon="4.7812">
        <ele>313</ele>
        <time>2022-08-19T08:48:22.000Z</time>
      </trkpt>
      <trkpt lat="49.8549" lon="4.78125">
        <ele>313</ele>
        <time>2022-08-19T08:48:23.000Z</time>
      </trkpt>
      <trkpt lat="49.85488" lon="4.78131">
        <ele>313</ele>
        <time>2022-08-19T08:48:24.000Z</time>
      </trkpt>
      <trkpt lat="49.85485" lon="4.78136">
        <ele>313</ele>
        <time>2022-08-19T08:48:25.000Z</time>
      </trkpt>
      <trkpt lat="49.85483" lon="4.78142">
        <ele>313</ele>
        <time>2022-08-19T08:48:26.000Z</time>
      </trkpt>
      <trkpt lat="49.85481" lon="4.78148">
        <ele>313</ele>
        <time>2022-08-19T08:48:27.000Z</time>
      </trkpt>
      <trkpt lat="49.85479" lon="4.78153">
        <ele>313</ele>
        <time>2022-08-19T08:48:28.000Z</time>
      </trkpt>
      <trkpt lat="49.85477" lon="4.78159">
        <ele>313</ele>
        <time>2022-08-19T08:48:29.000Z</time>
      </trkpt>
      <trkpt lat="49.85475" lon="4.78165">
        <ele>313</ele>
        <time>2022-08-19T08:48:30.000Z</time>
      </trkpt>
      <trkpt lat="49.85473" lon="4.7817">
        <ele>313</ele>
        <time>2022-08-19T08:48:31.000Z</time>
      </trkpt>
      <trkpt lat="49.85472" lon="4.78175">
        <ele>313</ele>
        <time>2022-08-19T08:48:32.000Z</time>
      </trkpt>
      <trkpt lat="49.8547" lon="4.78181">
        <ele>313</ele>
        <time>2022-08-19T08:48:33.000Z</time>
      </trkpt>
      <trkpt lat="49.85467" lon="4.78186">
        <ele>313</ele>
        <time>2022-08-19T08:48:34.000Z</time>
      </trkpt>
      <trkpt lat="49.85464" lon="4.7819">
        <ele>313</ele>
        <time>2022-08-19T08:48:35.000Z</time>
      </trkpt>
      <trkpt lat="49.85461" lon="4.78195">
        <ele>313</ele>
        <time>2022-08-19T08:48:36.000Z</time>
      </trkpt>
      <trkpt lat="49.85458" lon="4.782">
        <ele>313</ele>
        <time>2022-08-19T08:48:37.000Z</time>
      </trkpt>
      <trkpt lat="49.85456" lon="4.78205">
        <ele>313</ele>
        <time>2022-08-19T08:48:38.000Z</time>
      </trkpt>
      <trkpt lat="49.85453" lon="4.7821">
        <ele>313</ele>
        <time>2022-08-19T08:48:39.000Z</time>
      </trkpt>
      <trkpt lat="49.8545" lon="4.78214">
        <ele>313</ele>
        <time>2022-08-19T08:48:40.000Z</time>
      </trkpt>
      <trkpt lat="49.85446" lon="4.78218">
        <ele>313</ele>
        <time>2022-08-19T08:48:41.000Z</time>
      </trkpt>
      <trkpt lat="49.85443" lon="4.78223">
        <ele>314</ele>
        <time>2022-08-19T08:48:42.000Z</time>
      </trkpt>
      <trkpt lat="49.8544" lon="4.78227">
        <ele>314</ele>
        <time>2022-08-19T08:48:43.000Z</time>
      </trkpt>
      <trkpt lat="49.85437" lon="4.78232">
        <ele>314</ele>
        <time>2022-08-19T08:48:44.000Z</time>
      </trkpt>
      <trkpt lat="49.85435" lon="4.78237">
        <ele>314</ele>
        <time>2022-08-19T08:48:45.000Z</time>
      </trkpt>
      <trkpt lat="49.85432" lon="4.78241">
        <ele>314</ele>
        <time>2022-08-19T08:48:46.000Z</time>
      </trkpt>
      <trkpt lat="49.85429" lon="4.78245">
        <ele>314</ele>
        <time>2022-08-19T08:48:47.000Z</time>
      </trkpt>
      <trkpt lat="49.85427" lon="4.78247">
        <ele>315</ele>
        <time>2022-08-19T08:48:48.000Z</time>
      </trkpt>
      <trkpt lat="49.85424" lon="4.7825">
        <ele>315</ele>
        <time>2022-08-19T08:48:49.000Z</time>
      </trkpt>
      <trkpt lat="49.85421" lon="4.78253">
        <ele>315</ele>
        <time>2022-08-19T08:48:50.000Z</time>
      </trkpt>
      <trkpt lat="49.85419" lon="4.78256">
        <ele>315</ele>
        <time>2022-08-19T08:48:51.000Z</time>
      </trkpt>
      <trkpt lat="49.85416" lon="4.78258">
        <ele>315</ele>
        <time>2022-08-19T08:48:52.000Z</time>
      </trkpt>
      <trkpt lat="49.85414" lon="4.7826">
        <ele>315</ele>
        <time>2022-08-19T08:48:53.000Z</time>
      </trkpt>
      <trkpt lat="49.85412" lon="4.78263">
        <ele>316</ele>
        <time>2022-08-19T08:48:54.000Z</time>
      </trkpt>
      <trkpt lat="49.85409" lon="4.78265">
        <ele>316</ele>
        <time>2022-08-19T08:48:55.000Z</time>
      </trkpt>
      <trkpt lat="49.85406" lon="4.78269">
        <ele>316</ele>
        <time>2022-08-19T08:48:56.000Z</time>
      </trkpt>
      <trkpt lat="49.85403" lon="4.78273">
        <ele>316</ele>
        <time>2022-08-19T08:48:57.000Z</time>
      </trkpt>
      <trkpt lat="49.854" lon="4.78277">
        <ele>316</ele>
        <time>2022-08-19T08:48:58.000Z</time>
      </trkpt>
      <trkpt lat="49.85397" lon="4.78281">
        <ele>316</ele>
        <time>2022-08-19T08:48:59.000Z</time>
      </trkpt>
      <trkpt lat="49.85394" lon="4.78284">
        <ele>317</ele>
        <time>2022-08-19T08:49:00.000Z</time>
      </trkpt>
      <trkpt lat="49.85391" lon="4.78288">
        <ele>317</ele>
        <time>2022-08-19T08:49:01.000Z</time>
      </trkpt>
      <trkpt lat="49.85388" lon="4.78291">
        <ele>317</ele>
        <time>2022-08-19T08:49:02.000Z</time>
      </trkpt>
      <trkpt lat="49.85385" lon="4.78295">
        <ele>317</ele>
        <time>2022-08-19T08:49:03.000Z</time>
      </trkpt>
      <trkpt lat="49.85383" lon="4.78299">
        <ele>317</ele>
        <time>2022-08-19T08:49:04.000Z</time>
      </trkpt>
      <trkpt lat="49.8538" lon="4.78302">
        <ele>317</ele>
        <time>2022-08-19T08:49:05.000Z</time>
      </trkpt>
      <trkpt lat="49.85378" lon="4.78304">
        <ele>317</ele>
        <time>2022-08-19T08:49:06.000Z</time>
      </trkpt>
      <trkpt lat="49.85376" lon="4.78307">
        <ele>317</ele>
        <time>2022-08-19T08:49:07.000Z</time>
      </trkpt>
      <trkpt lat="49.85374" lon="4.78309">
        <ele>318</ele>
        <time>2022-08-19T08:49:08.000Z</time>
      </trkpt>
      <trkpt lat="49.85372" lon="4.78311">
        <ele>318</ele>
        <time>2022-08-19T08:49:09.000Z</time>
      </trkpt>
      <trkpt lat="49.8537" lon="4.78314">
        <ele>318</ele>
        <time>2022-08-19T08:49:10.000Z</time>
      </trkpt>
      <trkpt lat="49.85367" lon="4.78317">
        <ele>318</ele>
        <time>2022-08-19T08:49:11.000Z</time>
      </trkpt>
      <trkpt lat="49.85366" lon="4.7832">
        <ele>318</ele>
        <time>2022-08-19T08:49:12.000Z</time>
      </trkpt>
      <trkpt lat="49.85364" lon="4.78323">
        <ele>318</ele>
        <time>2022-08-19T08:49:13.000Z</time>
      </trkpt>
      <trkpt lat="49.85363" lon="4.78325">
        <ele>318</ele>
        <time>2022-08-19T08:49:14.000Z</time>
      </trkpt>
      <trkpt lat="49.85361" lon="4.78328">
        <ele>319</ele>
        <time>2022-08-19T08:49:15.000Z</time>
      </trkpt>
      <trkpt lat="49.85359" lon="4.7833">
        <ele>319</ele>
        <time>2022-08-19T08:49:16.000Z</time>
      </trkpt>
      <trkpt lat="49.85357" lon="4.78333">
        <ele>319</ele>
        <time>2022-08-19T08:49:17.000Z</time>
      </trkpt>
      <trkpt lat="49.85355" lon="4.78335">
        <ele>319</ele>
        <time>2022-08-19T08:49:18.000Z</time>
      </trkpt>
      <trkpt lat="49.85354" lon="4.78337">
        <ele>320</ele>
        <time>2022-08-19T08:49:19.000Z</time>
      </trkpt>
      <trkpt lat="49.85352" lon="4.78339">
        <ele>320</ele>
        <time>2022-08-19T08:49:20.000Z</time>
      </trkpt>
      <trkpt lat="49.8535" lon="4.78342">
        <ele>320</ele>
        <time>2022-08-19T08:49:21.000Z</time>
      </trkpt>
      <trkpt lat="49.85349" lon="4.78345">
        <ele>320</ele>
        <time>2022-08-19T08:49:22.000Z</time>
      </trkpt>
      <trkpt lat="49.85348" lon="4.78347">
        <ele>321</ele>
        <time>2022-08-19T08:49:23.000Z</time>
      </trkpt>
      <trkpt lat="49.85347" lon="4.7835">
        <ele>321</ele>
        <time>2022-08-19T08:49:24.000Z</time>
      </trkpt>
      <trkpt lat="49.85346" lon="4.78353">
        <ele>321</ele>
        <time>2022-08-19T08:49:25.000Z</time>
      </trkpt>
      <trkpt lat="49.85344" lon="4.78356">
        <ele>321</ele>
        <time>2022-08-19T08:49:26.000Z</time>
      </trkpt>
      <trkpt lat="49.85343" lon="4.78358">
        <ele>322</ele>
        <time>2022-08-19T08:49:27.000Z</time>
      </trkpt>
      <trkpt lat="49.85342" lon="4.78359">
        <ele>322</ele>
        <time>2022-08-19T08:49:28.000Z</time>
      </trkpt>
      <trkpt lat="49.8534" lon="4.7836">
        <ele>322</ele>
        <time>2022-08-19T08:49:29.000Z</time>
      </trkpt>
      <trkpt lat="49.85339" lon="4.78361">
        <ele>322</ele>
        <time>2022-08-19T08:49:30.000Z</time>
      </trkpt>
      <trkpt lat="49.85338" lon="4.78362">
        <ele>323</ele>
        <time>2022-08-19T08:49:31.000Z</time>
      </trkpt>
      <trkpt lat="49.85338" lon="4.78364">
        <ele>323</ele>
        <time>2022-08-19T08:49:32.000Z</time>
      </trkpt>
      <trkpt lat="49.85337" lon="4.78365">
        <ele>323</ele>
        <time>2022-08-19T08:49:33.000Z</time>
      </trkpt>
      <trkpt lat="49.85336" lon="4.78366">
        <ele>323</ele>
        <time>2022-08-19T08:49:34.000Z</time>
      </trkpt>
      <trkpt lat="49.85334" lon="4.78367">
        <ele>324</ele>
        <time>2022-08-19T08:49:35.000Z</time>
      </trkpt>
      <trkpt lat="49.85333" lon="4.78369">
        <ele>324</ele>
        <time>2022-08-19T08:49:36.000Z</time>
      </trkpt>
      <trkpt lat="49.85332" lon="4.7837">
        <ele>324</ele>
        <time>2022-08-19T08:49:37.000Z</time>
      </trkpt>
      <trkpt lat="49.85331" lon="4.78373">
        <ele>325</ele>
        <time>2022-08-19T08:49:38.000Z</time>
      </trkpt>
      <trkpt lat="49.85329" lon="4.78375">
        <ele>325</ele>
        <time>2022-08-19T08:49:39.000Z</time>
      </trkpt>
      <trkpt lat="49.85328" lon="4.78377">
        <ele>325</ele>
        <time>2022-08-19T08:49:40.000Z</time>
      </trkpt>
      <trkpt lat="49.85326" lon="4.78379">
        <ele>326</ele>
        <time>2022-08-19T08:49:41.000Z</time>
      </trkpt>
      <trkpt lat="49.85325" lon="4.78382">
        <ele>326</ele>
        <time>2022-08-19T08:49:42.000Z</time>
      </trkpt>
      <trkpt lat="49.85323" lon="4.78384">
        <ele>326</ele>
        <time>2022-08-19T08:49:43.000Z</time>
      </trkpt>
      <trkpt lat="49.85322" lon="4.78386">
        <ele>327</ele>
        <time>2022-08-19T08:49:44.000Z</time>
      </trkpt>
      <trkpt lat="49.85321" lon="4.78389">
        <ele>327</ele>
        <time>2022-08-19T08:49:45.000Z</time>
      </trkpt>
      <trkpt lat="49.8532" lon="4.78391">
        <ele>327</ele>
        <time>2022-08-19T08:49:46.000Z</time>
      </trkpt>
      <trkpt lat="49.85318" lon="4.78394">
        <ele>328</ele>
        <time>2022-08-19T08:49:47.000Z</time>
      </trkpt>
      <trkpt lat="49.85317" lon="4.78396">
        <ele>328</ele>
        <time>2022-08-19T08:49:48.000Z</time>
      </trkpt>
      <trkpt lat="49.85316" lon="4.78398">
        <ele>328</ele>
        <time>2022-08-19T08:49:49.000Z</time>
      </trkpt>
      <trkpt lat="49.85315" lon="4.784">
        <ele>328</ele>
        <time>2022-08-19T08:49:50.000Z</time>
      </trkpt>
      <trkpt lat="49.85313" lon="4.78402">
        <ele>329</ele>
        <time>2022-08-19T08:49:51.000Z</time>
      </trkpt>
      <trkpt lat="49.85312" lon="4.78404">
        <ele>329</ele>
        <time>2022-08-19T08:49:52.000Z</time>
      </trkpt>
      <trkpt lat="49.85311" lon="4.78407">
        <ele>329</ele>
        <time>2022-08-19T08:49:53.000Z</time>
      </trkpt>
      <trkpt lat="49.8531" lon="4.7841">
        <ele>330</ele>
        <time>2022-08-19T08:49:54.000Z</time>
      </trkpt>
      <trkpt lat="49.8531" lon="4.78412">
        <ele>330</ele>
        <time>2022-08-19T08:49:55.000Z</time>
      </trkpt>
      <trkpt lat="49.85309" lon="4.78414">
        <ele>330</ele>
        <time>2022-08-19T08:49:56.000Z</time>
      </trkpt>
      <trkpt lat="49.85308" lon="4.78417">
        <ele>330</ele>
        <time>2022-08-19T08:49:57.000Z</time>
      </trkpt>
      <trkpt lat="49.85307" lon="4.78419">
        <ele>331</ele>
        <time>2022-08-19T08:49:58.000Z</time>
      </trkpt>
      <trkpt lat="49.85307" lon="4.78421">
        <ele>331</ele>
        <time>2022-08-19T08:49:59.000Z</time>
      </trkpt>
      <trkpt lat="49.85306" lon="4.78423">
        <ele>331</ele>
        <time>2022-08-19T08:50:00.000Z</time>
      </trkpt>
      <trkpt lat="49.85305" lon="4.78425">
        <ele>331</ele>
        <time>2022-08-19T08:50:01.000Z</time>
      </trkpt>
      <trkpt lat="49.85304" lon="4.78427">
        <ele>331</ele>
        <time>2022-08-19T08:50:02.000Z</time>
      </trkpt>
      <trkpt lat="49.85303" lon="4.78429">
        <ele>332</ele>
        <time>2022-08-19T08:50:03.000Z</time>
      </trkpt>
      <trkpt lat="49.85302" lon="4.78432">
        <ele>332</ele>
        <time>2022-08-19T08:50:04.000Z</time>
      </trkpt>
      <trkpt lat="49.853" lon="4.78435">
        <ele>332</ele>
        <time>2022-08-19T08:50:05.000Z</time>
      </trkpt>
      <trkpt lat="49.85298" lon="4.78437">
        <ele>332</ele>
        <time>2022-08-19T08:50:06.000Z</time>
      </trkpt>
      <trkpt lat="49.85296" lon="4.78439">
        <ele>332</ele>
        <time>2022-08-19T08:50:07.000Z</time>
      </trkpt>
      <trkpt lat="49.85294" lon="4.78442">
        <ele>332</ele>
        <time>2022-08-19T08:50:08.000Z</time>
      </trkpt>
      <trkpt lat="49.85292" lon="4.78445">
        <ele>332</ele>
        <time>2022-08-19T08:50:09.000Z</time>
      </trkpt>
      <trkpt lat="49.8529" lon="4.78448">
        <ele>332</ele>
        <time>2022-08-19T08:50:10.000Z</time>
      </trkpt>
      <trkpt lat="49.85289" lon="4.78452">
        <ele>332</ele>
        <time>2022-08-19T08:50:11.000Z</time>
      </trkpt>
      <trkpt lat="49.85287" lon="4.78456">
        <ele>332</ele>
        <time>2022-08-19T08:50:12.000Z</time>
      </trkpt>
      <trkpt lat="49.85285" lon="4.7846">
        <ele>332</ele>
        <time>2022-08-19T08:50:13.000Z</time>
      </trkpt>
      <trkpt lat="49.85284" lon="4.78464">
        <ele>332</ele>
        <time>2022-08-19T08:50:14.000Z</time>
      </trkpt>
      <trkpt lat="49.85282" lon="4.78468">
        <ele>333</ele>
        <time>2022-08-19T08:50:15.000Z</time>
      </trkpt>
      <trkpt lat="49.8528" lon="4.78471">
        <ele>333</ele>
        <time>2022-08-19T08:50:16.000Z</time>
      </trkpt>
      <trkpt lat="49.85278" lon="4.78475">
        <ele>333</ele>
        <time>2022-08-19T08:50:17.000Z</time>
      </trkpt>
      <trkpt lat="49.85277" lon="4.78477">
        <ele>333</ele>
        <time>2022-08-19T08:50:18.000Z</time>
      </trkpt>
      <trkpt lat="49.85274" lon="4.7848">
        <ele>333</ele>
        <time>2022-08-19T08:50:19.000Z</time>
      </trkpt>
      <trkpt lat="49.85273" lon="4.78483">
        <ele>333</ele>
        <time>2022-08-19T08:50:20.000Z</time>
      </trkpt>
      <trkpt lat="49.85271" lon="4.78486">
        <ele>333</ele>
        <time>2022-08-19T08:50:21.000Z</time>
      </trkpt>
      <trkpt lat="49.85269" lon="4.78488">
        <ele>334</ele>
        <time>2022-08-19T08:50:22.000Z</time>
      </trkpt>
      <trkpt lat="49.85267" lon="4.78492">
        <ele>334</ele>
        <time>2022-08-19T08:50:23.000Z</time>
      </trkpt>
      <trkpt lat="49.85265" lon="4.78495">
        <ele>334</ele>
        <time>2022-08-19T08:50:24.000Z</time>
      </trkpt>
      <trkpt lat="49.85263" lon="4.78499">
        <ele>334</ele>
        <time>2022-08-19T08:50:25.000Z</time>
      </trkpt>
      <trkpt lat="49.85262" lon="4.78501">
        <ele>334</ele>
        <time>2022-08-19T08:50:26.000Z</time>
      </trkpt>
      <trkpt lat="49.8526" lon="4.78504">
        <ele>334</ele>
        <time>2022-08-19T08:50:27.000Z</time>
      </trkpt>
      <trkpt lat="49.85258" lon="4.78508">
        <ele>334</ele>
        <time>2022-08-19T08:50:28.000Z</time>
      </trkpt>
      <trkpt lat="49.85255" lon="4.78512">
        <ele>335</ele>
        <time>2022-08-19T08:50:29.000Z</time>
      </trkpt>
      <trkpt lat="49.85253" lon="4.78517">
        <ele>335</ele>
        <time>2022-08-19T08:50:30.000Z</time>
      </trkpt>
      <trkpt lat="49.8525" lon="4.78522">
        <ele>335</ele>
        <time>2022-08-19T08:50:31.000Z</time>
      </trkpt>
      <trkpt lat="49.85247" lon="4.78526">
        <ele>335</ele>
        <time>2022-08-19T08:50:32.000Z</time>
      </trkpt>
      <trkpt lat="49.85244" lon="4.7853">
        <ele>335</ele>
        <time>2022-08-19T08:50:33.000Z</time>
      </trkpt>
      <trkpt lat="49.85242" lon="4.78534">
        <ele>336</ele>
        <time>2022-08-19T08:50:34.000Z</time>
      </trkpt>
      <trkpt lat="49.85238" lon="4.78539">
        <ele>336</ele>
        <time>2022-08-19T08:50:35.000Z</time>
      </trkpt>
      <trkpt lat="49.85235" lon="4.78543">
        <ele>336</ele>
        <time>2022-08-19T08:50:36.000Z</time>
      </trkpt>
      <trkpt lat="49.85232" lon="4.78547">
        <ele>336</ele>
        <time>2022-08-19T08:50:37.000Z</time>
      </trkpt>
      <trkpt lat="49.85229" lon="4.78552">
        <ele>337</ele>
        <time>2022-08-19T08:50:38.000Z</time>
      </trkpt>
      <trkpt lat="49.85226" lon="4.78558">
        <ele>337</ele>
        <time>2022-08-19T08:50:39.000Z</time>
      </trkpt>
      <trkpt lat="49.85223" lon="4.78563">
        <ele>337</ele>
        <time>2022-08-19T08:50:40.000Z</time>
      </trkpt>
      <trkpt lat="49.85219" lon="4.78567">
        <ele>337</ele>
        <time>2022-08-19T08:50:41.000Z</time>
      </trkpt>
      <trkpt lat="49.85216" lon="4.78571">
        <ele>337</ele>
        <time>2022-08-19T08:50:42.000Z</time>
      </trkpt>
      <trkpt lat="49.85212" lon="4.78575">
        <ele>337</ele>
        <time>2022-08-19T08:50:43.000Z</time>
      </trkpt>
      <trkpt lat="49.85209" lon="4.78579">
        <ele>338</ele>
        <time>2022-08-19T08:50:44.000Z</time>
      </trkpt>
      <trkpt lat="49.85205" lon="4.78584">
        <ele>338</ele>
        <time>2022-08-19T08:50:45.000Z</time>
      </trkpt>
      <trkpt lat="49.85202" lon="4.78589">
        <ele>338</ele>
        <time>2022-08-19T08:50:46.000Z</time>
      </trkpt>
      <trkpt lat="49.85198" lon="4.78593">
        <ele>338</ele>
        <time>2022-08-19T08:50:47.000Z</time>
      </trkpt>
      <trkpt lat="49.85195" lon="4.78597">
        <ele>338</ele>
        <time>2022-08-19T08:50:48.000Z</time>
      </trkpt>
      <trkpt lat="49.85191" lon="4.78601">
        <ele>338</ele>
        <time>2022-08-19T08:50:49.000Z</time>
      </trkpt>
      <trkpt lat="49.85188" lon="4.78605">
        <ele>338</ele>
        <time>2022-08-19T08:50:50.000Z</time>
      </trkpt>
      <trkpt lat="49.85184" lon="4.78609">
        <ele>339</ele>
        <time>2022-08-19T08:50:51.000Z</time>
      </trkpt>
      <trkpt lat="49.85181" lon="4.78613">
        <ele>339</ele>
        <time>2022-08-19T08:50:52.000Z</time>
      </trkpt>
      <trkpt lat="49.85178" lon="4.78618">
        <ele>339</ele>
        <time>2022-08-19T08:50:53.000Z</time>
      </trkpt>
      <trkpt lat="49.85174" lon="4.78622">
        <ele>339</ele>
        <time>2022-08-19T08:50:54.000Z</time>
      </trkpt>
      <trkpt lat="49.85171" lon="4.78626">
        <ele>339</ele>
        <time>2022-08-19T08:50:55.000Z</time>
      </trkpt>
      <trkpt lat="49.85168" lon="4.7863">
        <ele>339</ele>
        <time>2022-08-19T08:50:56.000Z</time>
      </trkpt>
      <trkpt lat="49.85165" lon="4.78634">
        <ele>340</ele>
        <time>2022-08-19T08:50:57.000Z</time>
      </trkpt>
      <trkpt lat="49.85162" lon="4.78638">
        <ele>340</ele>
        <time>2022-08-19T08:50:58.000Z</time>
      </trkpt>
      <trkpt lat="49.85158" lon="4.78643">
        <ele>340</ele>
        <time>2022-08-19T08:50:59.000Z</time>
      </trkpt>
      <trkpt lat="49.85155" lon="4.78646">
        <ele>340</ele>
        <time>2022-08-19T08:51:00.000Z</time>
      </trkpt>
      <trkpt lat="49.85151" lon="4.7865">
        <ele>340</ele>
        <time>2022-08-19T08:51:01.000Z</time>
      </trkpt>
      <trkpt lat="49.85148" lon="4.78654">
        <ele>341</ele>
        <time>2022-08-19T08:51:02.000Z</time>
      </trkpt>
      <trkpt lat="49.85145" lon="4.78658">
        <ele>341</ele>
        <time>2022-08-19T08:51:03.000Z</time>
      </trkpt>
      <trkpt lat="49.85142" lon="4.78662">
        <ele>341</ele>
        <time>2022-08-19T08:51:04.000Z</time>
      </trkpt>
      <trkpt lat="49.85139" lon="4.78666">
        <ele>341</ele>
        <time>2022-08-19T08:51:05.000Z</time>
      </trkpt>
      <trkpt lat="49.85136" lon="4.78669">
        <ele>341</ele>
        <time>2022-08-19T08:51:06.000Z</time>
      </trkpt>
      <trkpt lat="49.85133" lon="4.78672">
        <ele>341</ele>
        <time>2022-08-19T08:51:07.000Z</time>
      </trkpt>
      <trkpt lat="49.8513" lon="4.78676">
        <ele>341</ele>
        <time>2022-08-19T08:51:08.000Z</time>
      </trkpt>
      <trkpt lat="49.85128" lon="4.7868">
        <ele>341</ele>
        <time>2022-08-19T08:51:09.000Z</time>
      </trkpt>
      <trkpt lat="49.85125" lon="4.78684">
        <ele>341</ele>
        <time>2022-08-19T08:51:10.000Z</time>
      </trkpt>
      <trkpt lat="49.85123" lon="4.78688">
        <ele>341</ele>
        <time>2022-08-19T08:51:11.000Z</time>
      </trkpt>
      <trkpt lat="49.8512" lon="4.78693">
        <ele>342</ele>
        <time>2022-08-19T08:51:12.000Z</time>
      </trkpt>
      <trkpt lat="49.85117" lon="4.78698">
        <ele>342</ele>
        <time>2022-08-19T08:51:13.000Z</time>
      </trkpt>
      <trkpt lat="49.85115" lon="4.78702">
        <ele>342</ele>
        <time>2022-08-19T08:51:14.000Z</time>
      </trkpt>
      <trkpt lat="49.85113" lon="4.78706">
        <ele>342</ele>
        <time>2022-08-19T08:51:15.000Z</time>
      </trkpt>
      <trkpt lat="49.8511" lon="4.7871">
        <ele>342</ele>
        <time>2022-08-19T08:51:16.000Z</time>
      </trkpt>
      <trkpt lat="49.85108" lon="4.78714">
        <ele>342</ele>
        <time>2022-08-19T08:51:17.000Z</time>
      </trkpt>
      <trkpt lat="49.85105" lon="4.78717">
        <ele>342</ele>
        <time>2022-08-19T08:51:18.000Z</time>
      </trkpt>
      <trkpt lat="49.85101" lon="4.78721">
        <ele>342</ele>
        <time>2022-08-19T08:51:19.000Z</time>
      </trkpt>
      <trkpt lat="49.85098" lon="4.78725">
        <ele>341</ele>
        <time>2022-08-19T08:51:20.000Z</time>
      </trkpt>
      <trkpt lat="49.85095" lon="4.78729">
        <ele>341</ele>
        <time>2022-08-19T08:51:21.000Z</time>
      </trkpt>
      <trkpt lat="49.85092" lon="4.78733">
        <ele>341</ele>
        <time>2022-08-19T08:51:22.000Z</time>
      </trkpt>
      <trkpt lat="49.85089" lon="4.78737">
        <ele>341</ele>
        <time>2022-08-19T08:51:23.000Z</time>
      </trkpt>
      <trkpt lat="49.85087" lon="4.7874">
        <ele>341</ele>
        <time>2022-08-19T08:51:24.000Z</time>
      </trkpt>
      <trkpt lat="49.85084" lon="4.78744">
        <ele>341</ele>
        <time>2022-08-19T08:51:25.000Z</time>
      </trkpt>
      <trkpt lat="49.85081" lon="4.78748">
        <ele>341</ele>
        <time>2022-08-19T08:51:26.000Z</time>
      </trkpt>
      <trkpt lat="49.85079" lon="4.78752">
        <ele>341</ele>
        <time>2022-08-19T08:51:27.000Z</time>
      </trkpt>
      <trkpt lat="49.85077" lon="4.78756">
        <ele>341</ele>
        <time>2022-08-19T08:51:28.000Z</time>
      </trkpt>
      <trkpt lat="49.85075" lon="4.78761">
        <ele>341</ele>
        <time>2022-08-19T08:51:29.000Z</time>
      </trkpt>
      <trkpt lat="49.85074" lon="4.78765">
        <ele>341</ele>
        <time>2022-08-19T08:51:30.000Z</time>
      </trkpt>
      <trkpt lat="49.85072" lon="4.78769">
        <ele>341</ele>
        <time>2022-08-19T08:51:31.000Z</time>
      </trkpt>
      <trkpt lat="49.85069" lon="4.78774">
        <ele>342</ele>
        <time>2022-08-19T08:51:32.000Z</time>
      </trkpt>
      <trkpt lat="49.85067" lon="4.78779">
        <ele>342</ele>
        <time>2022-08-19T08:51:33.000Z</time>
      </trkpt>
      <trkpt lat="49.85064" lon="4.78783">
        <ele>342</ele>
        <time>2022-08-19T08:51:34.000Z</time>
      </trkpt>
      <trkpt lat="49.85062" lon="4.78788">
        <ele>342</ele>
        <time>2022-08-19T08:51:35.000Z</time>
      </trkpt>
      <trkpt lat="49.85059" lon="4.78794">
        <ele>342</ele>
        <time>2022-08-19T08:51:36.000Z</time>
      </trkpt>
      <trkpt lat="49.85057" lon="4.78799">
        <ele>342</ele>
        <time>2022-08-19T08:51:37.000Z</time>
      </trkpt>
      <trkpt lat="49.85054" lon="4.78805">
        <ele>342</ele>
        <time>2022-08-19T08:51:38.000Z</time>
      </trkpt>
      <trkpt lat="49.85052" lon="4.7881">
        <ele>342</ele>
        <time>2022-08-19T08:51:39.000Z</time>
      </trkpt>
      <trkpt lat="49.85049" lon="4.78816">
        <ele>342</ele>
        <time>2022-08-19T08:51:40.000Z</time>
      </trkpt>
      <trkpt lat="49.85047" lon="4.78822">
        <ele>342</ele>
        <time>2022-08-19T08:51:41.000Z</time>
      </trkpt>
      <trkpt lat="49.85043" lon="4.78826">
        <ele>342</ele>
        <time>2022-08-19T08:51:42.000Z</time>
      </trkpt>
      <trkpt lat="49.8504" lon="4.78831">
        <ele>342</ele>
        <time>2022-08-19T08:51:43.000Z</time>
      </trkpt>
      <trkpt lat="49.85036" lon="4.78835">
        <ele>342</ele>
        <time>2022-08-19T08:51:44.000Z</time>
      </trkpt>
      <trkpt lat="49.85033" lon="4.78839">
        <ele>342</ele>
        <time>2022-08-19T08:51:45.000Z</time>
      </trkpt>
      <trkpt lat="49.8503" lon="4.78842">
        <ele>342</ele>
        <time>2022-08-19T08:51:46.000Z</time>
      </trkpt>
      <trkpt lat="49.85026" lon="4.78845">
        <ele>343</ele>
        <time>2022-08-19T08:51:47.000Z</time>
      </trkpt>
      <trkpt lat="49.85023" lon="4.78849">
        <ele>343</ele>
        <time>2022-08-19T08:51:48.000Z</time>
      </trkpt>
      <trkpt lat="49.8502" lon="4.78853">
        <ele>343</ele>
        <time>2022-08-19T08:51:49.000Z</time>
      </trkpt>
      <trkpt lat="49.85017" lon="4.78858">
        <ele>343</ele>
        <time>2022-08-19T08:51:50.000Z</time>
      </trkpt>
      <trkpt lat="49.85014" lon="4.78863">
        <ele>343</ele>
        <time>2022-08-19T08:51:51.000Z</time>
      </trkpt>
      <trkpt lat="49.85011" lon="4.78867">
        <ele>343</ele>
        <time>2022-08-19T08:51:52.000Z</time>
      </trkpt>
      <trkpt lat="49.85008" lon="4.78871">
        <ele>343</ele>
        <time>2022-08-19T08:51:53.000Z</time>
      </trkpt>
      <trkpt lat="49.85006" lon="4.78873">
        <ele>343</ele>
        <time>2022-08-19T08:51:54.000Z</time>
      </trkpt>
      <trkpt lat="49.85003" lon="4.78875">
        <ele>343</ele>
        <time>2022-08-19T08:51:55.000Z</time>
      </trkpt>
      <trkpt lat="49.85001" lon="4.78877">
        <ele>343</ele>
        <time>2022-08-19T08:51:56.000Z</time>
      </trkpt>
      <trkpt lat="49.84999" lon="4.78881">
        <ele>344</ele>
        <time>2022-08-19T08:51:57.000Z</time>
      </trkpt>
      <trkpt lat="49.84996" lon="4.78885">
        <ele>344</ele>
        <time>2022-08-19T08:51:58.000Z</time>
      </trkpt>
      <trkpt lat="49.84993" lon="4.78889">
        <ele>344</ele>
        <time>2022-08-19T08:51:59.000Z</time>
      </trkpt>
      <trkpt lat="49.8499" lon="4.78893">
        <ele>344</ele>
        <time>2022-08-19T08:52:00.000Z</time>
      </trkpt>
      <trkpt lat="49.84988" lon="4.78896">
        <ele>344</ele>
        <time>2022-08-19T08:52:01.000Z</time>
      </trkpt>
      <trkpt lat="49.84986" lon="4.78899">
        <ele>344</ele>
        <time>2022-08-19T08:52:02.000Z</time>
      </trkpt>
      <trkpt lat="49.84984" lon="4.78901">
        <ele>344</ele>
        <time>2022-08-19T08:52:03.000Z</time>
      </trkpt>
      <trkpt lat="49.84983" lon="4.78904">
        <ele>344</ele>
        <time>2022-08-19T08:52:04.000Z</time>
      </trkpt>
      <trkpt lat="49.84982" lon="4.78906">
        <ele>344</ele>
        <time>2022-08-19T08:52:05.000Z</time>
      </trkpt>
      <trkpt lat="49.84982" lon="4.78909">
        <ele>344</ele>
        <time>2022-08-19T08:52:06.000Z</time>
      </trkpt>
      <trkpt lat="49.84982" lon="4.78911">
        <ele>345</ele>
        <time>2022-08-19T08:52:07.000Z</time>
      </trkpt>
      <trkpt lat="49.84982" lon="4.78915">
        <ele>345</ele>
        <time>2022-08-19T08:52:08.000Z</time>
      </trkpt>
      <trkpt lat="49.84982" lon="4.78918">
        <ele>345</ele>
        <time>2022-08-19T08:52:09.000Z</time>
      </trkpt>
      <trkpt lat="49.84981" lon="4.7892">
        <ele>345</ele>
        <time>2022-08-19T08:52:10.000Z</time>
      </trkpt>
      <trkpt lat="49.84981" lon="4.78923">
        <ele>345</ele>
        <time>2022-08-19T08:52:11.000Z</time>
      </trkpt>
      <trkpt lat="49.84979" lon="4.78926">
        <ele>345</ele>
        <time>2022-08-19T08:52:12.000Z</time>
      </trkpt>
      <trkpt lat="49.84978" lon="4.7893">
        <ele>345</ele>
        <time>2022-08-19T08:52:13.000Z</time>
      </trkpt>
      <trkpt lat="49.84977" lon="4.78933">
        <ele>345</ele>
        <time>2022-08-19T08:52:14.000Z</time>
      </trkpt>
      <trkpt lat="49.84975" lon="4.78936">
        <ele>345</ele>
        <time>2022-08-19T08:52:15.000Z</time>
      </trkpt>
      <trkpt lat="49.84973" lon="4.78941">
        <ele>346</ele>
        <time>2022-08-19T08:52:16.000Z</time>
      </trkpt>
      <trkpt lat="49.84972" lon="4.78944">
        <ele>346</ele>
        <time>2022-08-19T08:52:17.000Z</time>
      </trkpt>
      <trkpt lat="49.8497" lon="4.78947">
        <ele>346</ele>
        <time>2022-08-19T08:52:18.000Z</time>
      </trkpt>
      <trkpt lat="49.8497" lon="4.7895">
        <ele>346</ele>
        <time>2022-08-19T08:52:19.000Z</time>
      </trkpt>
      <trkpt lat="49.84969" lon="4.78954">
        <ele>346</ele>
        <time>2022-08-19T08:52:20.000Z</time>
      </trkpt>
      <trkpt lat="49.84969" lon="4.78956">
        <ele>346</ele>
        <time>2022-08-19T08:52:21.000Z</time>
      </trkpt>
      <trkpt lat="49.84967" lon="4.78959">
        <ele>346</ele>
        <time>2022-08-19T08:52:22.000Z</time>
      </trkpt>
      <trkpt lat="49.84965" lon="4.78962">
        <ele>346</ele>
        <time>2022-08-19T08:52:23.000Z</time>
      </trkpt>
      <trkpt lat="49.84963" lon="4.78965">
        <ele>346</ele>
        <time>2022-08-19T08:52:24.000Z</time>
      </trkpt>
      <trkpt lat="49.84961" lon="4.78969">
        <ele>346</ele>
        <time>2022-08-19T08:52:25.000Z</time>
      </trkpt>
      <trkpt lat="49.84958" lon="4.78971">
        <ele>346</ele>
        <time>2022-08-19T08:52:26.000Z</time>
      </trkpt>
      <trkpt lat="49.84956" lon="4.78974">
        <ele>346</ele>
        <time>2022-08-19T08:52:27.000Z</time>
      </trkpt>
      <trkpt lat="49.84954" lon="4.78977">
        <ele>346</ele>
        <time>2022-08-19T08:52:28.000Z</time>
      </trkpt>
      <trkpt lat="49.84952" lon="4.78981">
        <ele>346</ele>
        <time>2022-08-19T08:52:29.000Z</time>
      </trkpt>
      <trkpt lat="49.8495" lon="4.78984">
        <ele>346</ele>
        <time>2022-08-19T08:52:30.000Z</time>
      </trkpt>
      <trkpt lat="49.84949" lon="4.78986">
        <ele>346</ele>
        <time>2022-08-19T08:52:31.000Z</time>
      </trkpt>
      <trkpt lat="49.84948" lon="4.78989">
        <ele>347</ele>
        <time>2022-08-19T08:52:32.000Z</time>
      </trkpt>
      <trkpt lat="49.84946" lon="4.78993">
        <ele>347</ele>
        <time>2022-08-19T08:52:33.000Z</time>
      </trkpt>
      <trkpt lat="49.84945" lon="4.78996">
        <ele>347</ele>
        <time>2022-08-19T08:52:34.000Z</time>
      </trkpt>
      <trkpt lat="49.84944" lon="4.78999">
        <ele>347</ele>
        <time>2022-08-19T08:52:35.000Z</time>
      </trkpt>
      <trkpt lat="49.84943" lon="4.79002">
        <ele>347</ele>
        <time>2022-08-19T08:52:36.000Z</time>
      </trkpt>
      <trkpt lat="49.84942" lon="4.79004">
        <ele>348</ele>
        <time>2022-08-19T08:52:37.000Z</time>
      </trkpt>
      <trkpt lat="49.8494" lon="4.79007">
        <ele>348</ele>
        <time>2022-08-19T08:52:38.000Z</time>
      </trkpt>
      <trkpt lat="49.84938" lon="4.79011">
        <ele>348</ele>
        <time>2022-08-19T08:52:39.000Z</time>
      </trkpt>
      <trkpt lat="49.84936" lon="4.79014">
        <ele>348</ele>
        <time>2022-08-19T08:52:40.000Z</time>
      </trkpt>
      <trkpt lat="49.84934" lon="4.79017">
        <ele>348</ele>
        <time>2022-08-19T08:52:41.000Z</time>
      </trkpt>
      <trkpt lat="49.84932" lon="4.7902">
        <ele>348</ele>
        <time>2022-08-19T08:52:42.000Z</time>
      </trkpt>
      <trkpt lat="49.8493" lon="4.79022">
        <ele>348</ele>
        <time>2022-08-19T08:52:43.000Z</time>
      </trkpt>
      <trkpt lat="49.84929" lon="4.79025">
        <ele>348</ele>
        <time>2022-08-19T08:52:44.000Z</time>
      </trkpt>
      <trkpt lat="49.84928" lon="4.79029">
        <ele>348</ele>
        <time>2022-08-19T08:52:45.000Z</time>
      </trkpt>
      <trkpt lat="49.84928" lon="4.79033">
        <ele>348</ele>
        <time>2022-08-19T08:52:46.000Z</time>
      </trkpt>
      <trkpt lat="49.84927" lon="4.79036">
        <ele>348</ele>
        <time>2022-08-19T08:52:47.000Z</time>
      </trkpt>
      <trkpt lat="49.84926" lon="4.79039">
        <ele>348</ele>
        <time>2022-08-19T08:52:48.000Z</time>
      </trkpt>
      <trkpt lat="49.84925" lon="4.79043">
        <ele>348</ele>
        <time>2022-08-19T08:52:49.000Z</time>
      </trkpt>
      <trkpt lat="49.84923" lon="4.79046">
        <ele>348</ele>
        <time>2022-08-19T08:52:50.000Z</time>
      </trkpt>
      <trkpt lat="49.84922" lon="4.7905">
        <ele>348</ele>
        <time>2022-08-19T08:52:51.000Z</time>
      </trkpt>
      <trkpt lat="49.84921" lon="4.79054">
        <ele>348</ele>
        <time>2022-08-19T08:52:52.000Z</time>
      </trkpt>
      <trkpt lat="49.8492" lon="4.79059">
        <ele>348</ele>
        <time>2022-08-19T08:52:53.000Z</time>
      </trkpt>
      <trkpt lat="49.84919" lon="4.79063">
        <ele>348</ele>
        <time>2022-08-19T08:52:54.000Z</time>
      </trkpt>
      <trkpt lat="49.84919" lon="4.79068">
        <ele>349</ele>
        <time>2022-08-19T08:52:55.000Z</time>
      </trkpt>
      <trkpt lat="49.84918" lon="4.79073">
        <ele>349</ele>
        <time>2022-08-19T08:52:56.000Z</time>
      </trkpt>
      <trkpt lat="49.84917" lon="4.79077">
        <ele>349</ele>
        <time>2022-08-19T08:52:57.000Z</time>
      </trkpt>
      <trkpt lat="49.84917" lon="4.79081">
        <ele>350</ele>
        <time>2022-08-19T08:52:58.000Z</time>
      </trkpt>
      <trkpt lat="49.84916" lon="4.79084">
        <ele>350</ele>
        <time>2022-08-19T08:52:59.000Z</time>
      </trkpt>
      <trkpt lat="49.84916" lon="4.79087">
        <ele>350</ele>
        <time>2022-08-19T08:53:00.000Z</time>
      </trkpt>
      <trkpt lat="49.84916" lon="4.79091">
        <ele>351</ele>
        <time>2022-08-19T08:53:01.000Z</time>
      </trkpt>
      <trkpt lat="49.84914" lon="4.79095">
        <ele>351</ele>
        <time>2022-08-19T08:53:02.000Z</time>
      </trkpt>
      <trkpt lat="49.84913" lon="4.79099">
        <ele>351</ele>
        <time>2022-08-19T08:53:03.000Z</time>
      </trkpt>
      <trkpt lat="49.84912" lon="4.79102">
        <ele>351</ele>
        <time>2022-08-19T08:53:04.000Z</time>
      </trkpt>
      <trkpt lat="49.84911" lon="4.79106">
        <ele>351</ele>
        <time>2022-08-19T08:53:05.000Z</time>
      </trkpt>
      <trkpt lat="49.8491" lon="4.7911">
        <ele>352</ele>
        <time>2022-08-19T08:53:06.000Z</time>
      </trkpt>
      <trkpt lat="49.84909" lon="4.79114">
        <ele>352</ele>
        <time>2022-08-19T08:53:07.000Z</time>
      </trkpt>
      <trkpt lat="49.84908" lon="4.79118">
        <ele>352</ele>
        <time>2022-08-19T08:53:08.000Z</time>
      </trkpt>
      <trkpt lat="49.84907" lon="4.79121">
        <ele>352</ele>
        <time>2022-08-19T08:53:09.000Z</time>
      </trkpt>
      <trkpt lat="49.84906" lon="4.79125">
        <ele>353</ele>
        <time>2022-08-19T08:53:10.000Z</time>
      </trkpt>
      <trkpt lat="49.84906" lon="4.7913">
        <ele>353</ele>
        <time>2022-08-19T08:53:11.000Z</time>
      </trkpt>
      <trkpt lat="49.84905" lon="4.79134">
        <ele>353</ele>
        <time>2022-08-19T08:53:12.000Z</time>
      </trkpt>
      <trkpt lat="49.84904" lon="4.79139">
        <ele>353</ele>
        <time>2022-08-19T08:53:13.000Z</time>
      </trkpt>
      <trkpt lat="49.84904" lon="4.79144">
        <ele>354</ele>
        <time>2022-08-19T08:53:14.000Z</time>
      </trkpt>
      <trkpt lat="49.84903" lon="4.79148">
        <ele>354</ele>
        <time>2022-08-19T08:53:15.000Z</time>
      </trkpt>
      <trkpt lat="49.84902" lon="4.79151">
        <ele>354</ele>
        <time>2022-08-19T08:53:16.000Z</time>
      </trkpt>
      <trkpt lat="49.84901" lon="4.79156">
        <ele>354</ele>
        <time>2022-08-19T08:53:17.000Z</time>
      </trkpt>
      <trkpt lat="49.849" lon="4.79161">
        <ele>354</ele>
        <time>2022-08-19T08:53:18.000Z</time>
      </trkpt>
      <trkpt lat="49.849" lon="4.79166">
        <ele>354</ele>
        <time>2022-08-19T08:53:19.000Z</time>
      </trkpt>
      <trkpt lat="49.84899" lon="4.79171">
        <ele>354</ele>
        <time>2022-08-19T08:53:20.000Z</time>
      </trkpt>
      <trkpt lat="49.84899" lon="4.79176">
        <ele>354</ele>
        <time>2022-08-19T08:53:21.000Z</time>
      </trkpt>
      <trkpt lat="49.84898" lon="4.7918">
        <ele>354</ele>
        <time>2022-08-19T08:53:22.000Z</time>
      </trkpt>
      <trkpt lat="49.84897" lon="4.79185">
        <ele>354</ele>
        <time>2022-08-19T08:53:23.000Z</time>
      </trkpt>
      <trkpt lat="49.84896" lon="4.79191">
        <ele>354</ele>
        <time>2022-08-19T08:53:24.000Z</time>
      </trkpt>
      <trkpt lat="49.84895" lon="4.79196">
        <ele>354</ele>
        <time>2022-08-19T08:53:25.000Z</time>
      </trkpt>
      <trkpt lat="49.84895" lon="4.79201">
        <ele>354</ele>
        <time>2022-08-19T08:53:26.000Z</time>
      </trkpt>
      <trkpt lat="49.84895" lon="4.79206">
        <ele>354</ele>
        <time>2022-08-19T08:53:27.000Z</time>
      </trkpt>
      <trkpt lat="49.84896" lon="4.7921">
        <ele>354</ele>
        <time>2022-08-19T08:53:28.000Z</time>
      </trkpt>
      <trkpt lat="49.84896" lon="4.79215">
        <ele>353</ele>
        <time>2022-08-19T08:53:29.000Z</time>
      </trkpt>
      <trkpt lat="49.84896" lon="4.79219">
        <ele>353</ele>
        <time>2022-08-19T08:53:30.000Z</time>
      </trkpt>
      <trkpt lat="49.84895" lon="4.79224">
        <ele>353</ele>
        <time>2022-08-19T08:53:31.000Z</time>
      </trkpt>
      <trkpt lat="49.84894" lon="4.79228">
        <ele>353</ele>
        <time>2022-08-19T08:53:32.000Z</time>
      </trkpt>
      <trkpt lat="49.84893" lon="4.79233">
        <ele>353</ele>
        <time>2022-08-19T08:53:33.000Z</time>
      </trkpt>
      <trkpt lat="49.84892" lon="4.79239">
        <ele>353</ele>
        <time>2022-08-19T08:53:34.000Z</time>
      </trkpt>
      <trkpt lat="49.84891" lon="4.79244">
        <ele>353</ele>
        <time>2022-08-19T08:53:35.000Z</time>
      </trkpt>
      <trkpt lat="49.84889" lon="4.7925">
        <ele>353</ele>
        <time>2022-08-19T08:53:36.000Z</time>
      </trkpt>
      <trkpt lat="49.84888" lon="4.79257">
        <ele>353</ele>
        <time>2022-08-19T08:53:37.000Z</time>
      </trkpt>
      <trkpt lat="49.84887" lon="4.79263">
        <ele>353</ele>
        <time>2022-08-19T08:53:38.000Z</time>
      </trkpt>
      <trkpt lat="49.84886" lon="4.79269">
        <ele>353</ele>
        <time>2022-08-19T08:53:39.000Z</time>
      </trkpt>
      <trkpt lat="49.84886" lon="4.79274">
        <ele>353</ele>
        <time>2022-08-19T08:53:40.000Z</time>
      </trkpt>
      <trkpt lat="49.84885" lon="4.79279">
        <ele>353</ele>
        <time>2022-08-19T08:53:41.000Z</time>
      </trkpt>
      <trkpt lat="49.84885" lon="4.79284">
        <ele>353</ele>
        <time>2022-08-19T08:53:42.000Z</time>
      </trkpt>
      <trkpt lat="49.84884" lon="4.79289">
        <ele>353</ele>
        <time>2022-08-19T08:53:43.000Z</time>
      </trkpt>
      <trkpt lat="49.84884" lon="4.79295">
        <ele>353</ele>
        <time>2022-08-19T08:53:44.000Z</time>
      </trkpt>
      <trkpt lat="49.84883" lon="4.793">
        <ele>353</ele>
        <time>2022-08-19T08:53:45.000Z</time>
      </trkpt>
      <trkpt lat="49.84882" lon="4.79305">
        <ele>353</ele>
        <time>2022-08-19T08:53:46.000Z</time>
      </trkpt>
      <trkpt lat="49.84881" lon="4.7931">
        <ele>353</ele>
        <time>2022-08-19T08:53:47.000Z</time>
      </trkpt>
      <trkpt lat="49.8488" lon="4.79314">
        <ele>353</ele>
        <time>2022-08-19T08:53:48.000Z</time>
      </trkpt>
      <trkpt lat="49.8488" lon="4.79319">
        <ele>353</ele>
        <time>2022-08-19T08:53:49.000Z</time>
      </trkpt>
      <trkpt lat="49.84879" lon="4.79324">
        <ele>352</ele>
        <time>2022-08-19T08:53:50.000Z</time>
      </trkpt>
      <trkpt lat="49.84878" lon="4.79329">
        <ele>352</ele>
        <time>2022-08-19T08:53:51.000Z</time>
      </trkpt>
      <trkpt lat="49.84877" lon="4.79333">
        <ele>352</ele>
        <time>2022-08-19T08:53:52.000Z</time>
      </trkpt>
      <trkpt lat="49.84877" lon="4.79337">
        <ele>352</ele>
        <time>2022-08-19T08:53:53.000Z</time>
      </trkpt>
      <trkpt lat="49.84876" lon="4.79342">
        <ele>352</ele>
        <time>2022-08-19T08:53:54.000Z</time>
      </trkpt>
      <trkpt lat="49.84876" lon="4.79347">
        <ele>352</ele>
        <time>2022-08-19T08:53:55.000Z</time>
      </trkpt>
      <trkpt lat="49.84877" lon="4.79351">
        <ele>352</ele>
        <time>2022-08-19T08:53:56.000Z</time>
      </trkpt>
      <trkpt lat="49.84877" lon="4.79356">
        <ele>352</ele>
        <time>2022-08-19T08:53:57.000Z</time>
      </trkpt>
      <trkpt lat="49.84877" lon="4.79361">
        <ele>352</ele>
        <time>2022-08-19T08:53:58.000Z</time>
      </trkpt>
      <trkpt lat="49.84877" lon="4.79367">
        <ele>352</ele>
        <time>2022-08-19T08:53:59.000Z</time>
      </trkpt>
      <trkpt lat="49.84876" lon="4.79371">
        <ele>352</ele>
        <time>2022-08-19T08:54:00.000Z</time>
      </trkpt>
      <trkpt lat="49.84875" lon="4.79376">
        <ele>352</ele>
        <time>2022-08-19T08:54:01.000Z</time>
      </trkpt>
      <trkpt lat="49.84873" lon="4.7938">
        <ele>352</ele>
        <time>2022-08-19T08:54:02.000Z</time>
      </trkpt>
      <trkpt lat="49.84872" lon="4.79385">
        <ele>352</ele>
        <time>2022-08-19T08:54:03.000Z</time>
      </trkpt>
      <trkpt lat="49.8487" lon="4.79389">
        <ele>352</ele>
        <time>2022-08-19T08:54:04.000Z</time>
      </trkpt>
      <trkpt lat="49.84869" lon="4.79393">
        <ele>353</ele>
        <time>2022-08-19T08:54:05.000Z</time>
      </trkpt>
      <trkpt lat="49.84868" lon="4.79398">
        <ele>353</ele>
        <time>2022-08-19T08:54:06.000Z</time>
      </trkpt>
      <trkpt lat="49.84867" lon="4.79402">
        <ele>353</ele>
        <time>2022-08-19T08:54:07.000Z</time>
      </trkpt>
      <trkpt lat="49.84866" lon="4.79406">
        <ele>353</ele>
        <time>2022-08-19T08:54:08.000Z</time>
      </trkpt>
      <trkpt lat="49.84865" lon="4.79409">
        <ele>353</ele>
        <time>2022-08-19T08:54:09.000Z</time>
      </trkpt>
      <trkpt lat="49.84864" lon="4.79412">
        <ele>353</ele>
        <time>2022-08-19T08:54:10.000Z</time>
      </trkpt>
      <trkpt lat="49.84863" lon="4.79415">
        <ele>353</ele>
        <time>2022-08-19T08:54:11.000Z</time>
      </trkpt>
      <trkpt lat="49.84862" lon="4.79419">
        <ele>353</ele>
        <time>2022-08-19T08:54:12.000Z</time>
      </trkpt>
      <trkpt lat="49.84861" lon="4.79423">
        <ele>353</ele>
        <time>2022-08-19T08:54:13.000Z</time>
      </trkpt>
      <trkpt lat="49.8486" lon="4.79427">
        <ele>353</ele>
        <time>2022-08-19T08:54:14.000Z</time>
      </trkpt>
      <trkpt lat="49.84858" lon="4.79432">
        <ele>353</ele>
        <time>2022-08-19T08:54:15.000Z</time>
      </trkpt>
      <trkpt lat="49.84857" lon="4.79437">
        <ele>353</ele>
        <time>2022-08-19T08:54:16.000Z</time>
      </trkpt>
      <trkpt lat="49.84856" lon="4.79441">
        <ele>352</ele>
        <time>2022-08-19T08:54:17.000Z</time>
      </trkpt>
      <trkpt lat="49.84854" lon="4.79446">
        <ele>352</ele>
        <time>2022-08-19T08:54:18.000Z</time>
      </trkpt>
      <trkpt lat="49.84853" lon="4.7945">
        <ele>352</ele>
        <time>2022-08-19T08:54:19.000Z</time>
      </trkpt>
      <trkpt lat="49.84851" lon="4.79455">
        <ele>352</ele>
        <time>2022-08-19T08:54:20.000Z</time>
      </trkpt>
      <trkpt lat="49.84849" lon="4.79459">
        <ele>352</ele>
        <time>2022-08-19T08:54:21.000Z</time>
      </trkpt>
      <trkpt lat="49.84847" lon="4.79463">
        <ele>352</ele>
        <time>2022-08-19T08:54:22.000Z</time>
      </trkpt>
      <trkpt lat="49.84846" lon="4.79468">
        <ele>352</ele>
        <time>2022-08-19T08:54:23.000Z</time>
      </trkpt>
      <trkpt lat="49.84844" lon="4.79473">
        <ele>352</ele>
        <time>2022-08-19T08:54:24.000Z</time>
      </trkpt>
      <trkpt lat="49.84842" lon="4.79477">
        <ele>352</ele>
        <time>2022-08-19T08:54:25.000Z</time>
      </trkpt>
      <trkpt lat="49.84841" lon="4.79481">
        <ele>352</ele>
        <time>2022-08-19T08:54:26.000Z</time>
      </trkpt>
      <trkpt lat="49.84839" lon="4.79486">
        <ele>352</ele>
        <time>2022-08-19T08:54:27.000Z</time>
      </trkpt>
      <trkpt lat="49.84837" lon="4.79489">
        <ele>352</ele>
        <time>2022-08-19T08:54:28.000Z</time>
      </trkpt>
      <trkpt lat="49.84835" lon="4.79493">
        <ele>352</ele>
        <time>2022-08-19T08:54:29.000Z</time>
      </trkpt>
      <trkpt lat="49.84834" lon="4.79496">
        <ele>352</ele>
        <time>2022-08-19T08:54:30.000Z</time>
      </trkpt>
      <trkpt lat="49.84832" lon="4.79498">
        <ele>352</ele>
        <time>2022-08-19T08:54:31.000Z</time>
      </trkpt>
      <trkpt lat="49.84831" lon="4.79501">
        <ele>352</ele>
        <time>2022-08-19T08:54:32.000Z</time>
      </trkpt>
      <trkpt lat="49.8483" lon="4.79503">
        <ele>352</ele>
        <time>2022-08-19T08:54:33.000Z</time>
      </trkpt>
      <trkpt lat="49.84829" lon="4.79507">
        <ele>352</ele>
        <time>2022-08-19T08:54:34.000Z</time>
      </trkpt>
      <trkpt lat="49.84827" lon="4.79509">
        <ele>352</ele>
        <time>2022-08-19T08:54:35.000Z</time>
      </trkpt>
      <trkpt lat="49.84825" lon="4.79513">
        <ele>352</ele>
        <time>2022-08-19T08:54:36.000Z</time>
      </trkpt>
      <trkpt lat="49.84823" lon="4.79517">
        <ele>352</ele>
        <time>2022-08-19T08:54:37.000Z</time>
      </trkpt>
      <trkpt lat="49.84822" lon="4.79521">
        <ele>352</ele>
        <time>2022-08-19T08:54:38.000Z</time>
      </trkpt>
      <trkpt lat="49.8482" lon="4.79525">
        <ele>352</ele>
        <time>2022-08-19T08:54:39.000Z</time>
      </trkpt>
      <trkpt lat="49.84819" lon="4.79528">
        <ele>352</ele>
        <time>2022-08-19T08:54:40.000Z</time>
      </trkpt>
      <trkpt lat="49.84818" lon="4.79531">
        <ele>352</ele>
        <time>2022-08-19T08:54:41.000Z</time>
      </trkpt>
      <trkpt lat="49.84816" lon="4.79534">
        <ele>352</ele>
        <time>2022-08-19T08:54:42.000Z</time>
      </trkpt>
      <trkpt lat="49.84814" lon="4.79536">
        <ele>352</ele>
        <time>2022-08-19T08:54:43.000Z</time>
      </trkpt>
      <trkpt lat="49.84813" lon="4.79539">
        <ele>352</ele>
        <time>2022-08-19T08:54:44.000Z</time>
      </trkpt>
      <trkpt lat="49.84811" lon="4.79541">
        <ele>353</ele>
        <time>2022-08-19T08:54:45.000Z</time>
      </trkpt>
      <trkpt lat="49.8481" lon="4.79544">
        <ele>353</ele>
        <time>2022-08-19T08:54:46.000Z</time>
      </trkpt>
      <trkpt lat="49.84809" lon="4.79547">
        <ele>353</ele>
        <time>2022-08-19T08:54:47.000Z</time>
      </trkpt>
      <trkpt lat="49.84808" lon="4.79549">
        <ele>353</ele>
        <time>2022-08-19T08:54:48.000Z</time>
      </trkpt>
      <trkpt lat="49.84808" lon="4.79552">
        <ele>353</ele>
        <time>2022-08-19T08:54:49.000Z</time>
      </trkpt>
      <trkpt lat="49.84807" lon="4.79555">
        <ele>354</ele>
        <time>2022-08-19T08:54:50.000Z</time>
      </trkpt>
      <trkpt lat="49.84807" lon="4.79558">
        <ele>354</ele>
        <time>2022-08-19T08:54:51.000Z</time>
      </trkpt>
      <trkpt lat="49.84807" lon="4.79561">
        <ele>354</ele>
        <time>2022-08-19T08:54:52.000Z</time>
      </trkpt>
      <trkpt lat="49.84806" lon="4.79565">
        <ele>355</ele>
        <time>2022-08-19T08:54:53.000Z</time>
      </trkpt>
      <trkpt lat="49.84806" lon="4.79568">
        <ele>355</ele>
        <time>2022-08-19T08:54:54.000Z</time>
      </trkpt>
      <trkpt lat="49.84806" lon="4.79571">
        <ele>355</ele>
        <time>2022-08-19T08:54:55.000Z</time>
      </trkpt>
      <trkpt lat="49.84806" lon="4.79575">
        <ele>356</ele>
        <time>2022-08-19T08:54:56.000Z</time>
      </trkpt>
      <trkpt lat="49.84807" lon="4.79579">
        <ele>356</ele>
        <time>2022-08-19T08:54:57.000Z</time>
      </trkpt>
      <trkpt lat="49.84809" lon="4.79584">
        <ele>356</ele>
        <time>2022-08-19T08:54:58.000Z</time>
      </trkpt>
      <trkpt lat="49.8481" lon="4.79588">
        <ele>357</ele>
        <time>2022-08-19T08:54:59.000Z</time>
      </trkpt>
      <trkpt lat="49.8481" lon="4.79593">
        <ele>357</ele>
        <time>2022-08-19T08:55:00.000Z</time>
      </trkpt>
      <trkpt lat="49.8481" lon="4.79599">
        <ele>357</ele>
        <time>2022-08-19T08:55:01.000Z</time>
      </trkpt>
      <trkpt lat="49.8481" lon="4.79604">
        <ele>357</ele>
        <time>2022-08-19T08:55:02.000Z</time>
      </trkpt>
      <trkpt lat="49.8481" lon="4.79608">
        <ele>358</ele>
        <time>2022-08-19T08:55:03.000Z</time>
      </trkpt>
      <trkpt lat="49.8481" lon="4.79613">
        <ele>358</ele>
        <time>2022-08-19T08:55:04.000Z</time>
      </trkpt>
      <trkpt lat="49.8481" lon="4.79618">
        <ele>358</ele>
        <time>2022-08-19T08:55:05.000Z</time>
      </trkpt>
      <trkpt lat="49.8481" lon="4.79622">
        <ele>359</ele>
        <time>2022-08-19T08:55:06.000Z</time>
      </trkpt>
      <trkpt lat="49.84811" lon="4.79627">
        <ele>359</ele>
        <time>2022-08-19T08:55:07.000Z</time>
      </trkpt>
      <trkpt lat="49.84811" lon="4.79631">
        <ele>359</ele>
        <time>2022-08-19T08:55:08.000Z</time>
      </trkpt>
      <trkpt lat="49.84812" lon="4.79635">
        <ele>359</ele>
        <time>2022-08-19T08:55:09.000Z</time>
      </trkpt>
      <trkpt lat="49.84813" lon="4.7964">
        <ele>360</ele>
        <time>2022-08-19T08:55:10.000Z</time>
      </trkpt>
      <trkpt lat="49.84813" lon="4.79645">
        <ele>360</ele>
        <time>2022-08-19T08:55:11.000Z</time>
      </trkpt>
      <trkpt lat="49.84813" lon="4.79649">
        <ele>361</ele>
        <time>2022-08-19T08:55:12.000Z</time>
      </trkpt>
      <trkpt lat="49.84813" lon="4.79654">
        <ele>361</ele>
        <time>2022-08-19T08:55:13.000Z</time>
      </trkpt>
      <trkpt lat="49.84812" lon="4.79659">
        <ele>361</ele>
        <time>2022-08-19T08:55:14.000Z</time>
      </trkpt>
      <trkpt lat="49.84813" lon="4.79664">
        <ele>361</ele>
        <time>2022-08-19T08:55:15.000Z</time>
      </trkpt>
      <trkpt lat="49.84813" lon="4.79668">
        <ele>362</ele>
        <time>2022-08-19T08:55:16.000Z</time>
      </trkpt>
      <trkpt lat="49.84813" lon="4.79672">
        <ele>362</ele>
        <time>2022-08-19T08:55:17.000Z</time>
      </trkpt>
      <trkpt lat="49.84813" lon="4.79677">
        <ele>362</ele>
        <time>2022-08-19T08:55:18.000Z</time>
      </trkpt>
      <trkpt lat="49.84813" lon="4.79681">
        <ele>362</ele>
        <time>2022-08-19T08:55:19.000Z</time>
      </trkpt>
      <trkpt lat="49.84813" lon="4.79686">
        <ele>362</ele>
        <time>2022-08-19T08:55:20.000Z</time>
      </trkpt>
      <trkpt lat="49.84813" lon="4.7969">
        <ele>363</ele>
        <time>2022-08-19T08:55:21.000Z</time>
      </trkpt>
      <trkpt lat="49.84813" lon="4.79695">
        <ele>363</ele>
        <time>2022-08-19T08:55:22.000Z</time>
      </trkpt>
      <trkpt lat="49.84813" lon="4.79699">
        <ele>363</ele>
        <time>2022-08-19T08:55:23.000Z</time>
      </trkpt>
      <trkpt lat="49.84813" lon="4.79704">
        <ele>363</ele>
        <time>2022-08-19T08:55:24.000Z</time>
      </trkpt>
      <trkpt lat="49.84813" lon="4.79708">
        <ele>363</ele>
        <time>2022-08-19T08:55:25.000Z</time>
      </trkpt>
      <trkpt lat="49.84813" lon="4.79713">
        <ele>363</ele>
        <time>2022-08-19T08:55:26.000Z</time>
      </trkpt>
      <trkpt lat="49.84814" lon="4.79717">
        <ele>364</ele>
        <time>2022-08-19T08:55:27.000Z</time>
      </trkpt>
      <trkpt lat="49.84814" lon="4.79722">
        <ele>364</ele>
        <time>2022-08-19T08:55:28.000Z</time>
      </trkpt>
      <trkpt lat="49.84814" lon="4.79727">
        <ele>364</ele>
        <time>2022-08-19T08:55:29.000Z</time>
      </trkpt>
      <trkpt lat="49.84814" lon="4.79731">
        <ele>364</ele>
        <time>2022-08-19T08:55:30.000Z</time>
      </trkpt>
      <trkpt lat="49.84815" lon="4.79735">
        <ele>364</ele>
        <time>2022-08-19T08:55:31.000Z</time>
      </trkpt>
      <trkpt lat="49.84815" lon="4.79739">
        <ele>364</ele>
        <time>2022-08-19T08:55:32.000Z</time>
      </trkpt>
      <trkpt lat="49.84815" lon="4.79744">
        <ele>364</ele>
        <time>2022-08-19T08:55:33.000Z</time>
      </trkpt>
      <trkpt lat="49.84816" lon="4.79748">
        <ele>365</ele>
        <time>2022-08-19T08:55:34.000Z</time>
      </trkpt>
      <trkpt lat="49.84816" lon="4.79752">
        <ele>365</ele>
        <time>2022-08-19T08:55:35.000Z</time>
      </trkpt>
      <trkpt lat="49.84816" lon="4.79756">
        <ele>365</ele>
        <time>2022-08-19T08:55:36.000Z</time>
      </trkpt>
      <trkpt lat="49.84816" lon="4.7976">
        <ele>365</ele>
        <time>2022-08-19T08:55:37.000Z</time>
      </trkpt>
      <trkpt lat="49.84816" lon="4.79764">
        <ele>366</ele>
        <time>2022-08-19T08:55:38.000Z</time>
      </trkpt>
      <trkpt lat="49.84817" lon="4.79768">
        <ele>366</ele>
        <time>2022-08-19T08:55:39.000Z</time>
      </trkpt>
      <trkpt lat="49.84817" lon="4.79773">
        <ele>366</ele>
        <time>2022-08-19T08:55:40.000Z</time>
      </trkpt>
      <trkpt lat="49.84817" lon="4.79777">
        <ele>366</ele>
        <time>2022-08-19T08:55:41.000Z</time>
      </trkpt>
      <trkpt lat="49.84818" lon="4.79781">
        <ele>366</ele>
        <time>2022-08-19T08:55:42.000Z</time>
      </trkpt>
      <trkpt lat="49.84819" lon="4.79784">
        <ele>366</ele>
        <time>2022-08-19T08:55:43.000Z</time>
      </trkpt>
      <trkpt lat="49.8482" lon="4.79788">
        <ele>366</ele>
        <time>2022-08-19T08:55:44.000Z</time>
      </trkpt>
      <trkpt lat="49.84821" lon="4.79792">
        <ele>366</ele>
        <time>2022-08-19T08:55:45.000Z</time>
      </trkpt>
      <trkpt lat="49.84822" lon="4.79796">
        <ele>366</ele>
        <time>2022-08-19T08:55:46.000Z</time>
      </trkpt>
      <trkpt lat="49.84823" lon="4.798">
        <ele>366</ele>
        <time>2022-08-19T08:55:47.000Z</time>
      </trkpt>
      <trkpt lat="49.84824" lon="4.79804">
        <ele>366</ele>
        <time>2022-08-19T08:55:48.000Z</time>
      </trkpt>
      <trkpt lat="49.84824" lon="4.79809">
        <ele>366</ele>
        <time>2022-08-19T08:55:49.000Z</time>
      </trkpt>
      <trkpt lat="49.84824" lon="4.79813">
        <ele>366</ele>
        <time>2022-08-19T08:55:50.000Z</time>
      </trkpt>
      <trkpt lat="49.84824" lon="4.79816">
        <ele>367</ele>
        <time>2022-08-19T08:55:51.000Z</time>
      </trkpt>
      <trkpt lat="49.84824" lon="4.7982">
        <ele>367</ele>
        <time>2022-08-19T08:55:52.000Z</time>
      </trkpt>
      <trkpt lat="49.84825" lon="4.79824">
        <ele>367</ele>
        <time>2022-08-19T08:55:53.000Z</time>
      </trkpt>
      <trkpt lat="49.84825" lon="4.79827">
        <ele>367</ele>
        <time>2022-08-19T08:55:54.000Z</time>
      </trkpt>
      <trkpt lat="49.84825" lon="4.7983">
        <ele>367</ele>
        <time>2022-08-19T08:55:55.000Z</time>
      </trkpt>
      <trkpt lat="49.84825" lon="4.79834">
        <ele>367</ele>
        <time>2022-08-19T08:55:56.000Z</time>
      </trkpt>
      <trkpt lat="49.84825" lon="4.79837">
        <ele>367</ele>
        <time>2022-08-19T08:55:57.000Z</time>
      </trkpt>
      <trkpt lat="49.84825" lon="4.79841">
        <ele>367</ele>
        <time>2022-08-19T08:55:58.000Z</time>
      </trkpt>
      <trkpt lat="49.84826" lon="4.79845">
        <ele>367</ele>
        <time>2022-08-19T08:55:59.000Z</time>
      </trkpt>
      <trkpt lat="49.84826" lon="4.79849">
        <ele>367</ele>
        <time>2022-08-19T08:56:00.000Z</time>
      </trkpt>
      <trkpt lat="49.84827" lon="4.79853">
        <ele>367</ele>
        <time>2022-08-19T08:56:01.000Z</time>
      </trkpt>
      <trkpt lat="49.84827" lon="4.79857">
        <ele>367</ele>
        <time>2022-08-19T08:56:02.000Z</time>
      </trkpt>
      <trkpt lat="49.84828" lon="4.79861">
        <ele>367</ele>
        <time>2022-08-19T08:56:03.000Z</time>
      </trkpt>
      <trkpt lat="49.84829" lon="4.79865">
        <ele>367</ele>
        <time>2022-08-19T08:56:04.000Z</time>
      </trkpt>
      <trkpt lat="49.84829" lon="4.79868">
        <ele>368</ele>
        <time>2022-08-19T08:56:05.000Z</time>
      </trkpt>
      <trkpt lat="49.8483" lon="4.79871">
        <ele>368</ele>
        <time>2022-08-19T08:56:06.000Z</time>
      </trkpt>
      <trkpt lat="49.8483" lon="4.79875">
        <ele>368</ele>
        <time>2022-08-19T08:56:07.000Z</time>
      </trkpt>
      <trkpt lat="49.8483" lon="4.79879">
        <ele>368</ele>
        <time>2022-08-19T08:56:08.000Z</time>
      </trkpt>
      <trkpt lat="49.8483" lon="4.79883">
        <ele>368</ele>
        <time>2022-08-19T08:56:09.000Z</time>
      </trkpt>
      <trkpt lat="49.8483" lon="4.79887">
        <ele>369</ele>
        <time>2022-08-19T08:56:10.000Z</time>
      </trkpt>
      <trkpt lat="49.8483" lon="4.7989">
        <ele>369</ele>
        <time>2022-08-19T08:56:11.000Z</time>
      </trkpt>
      <trkpt lat="49.8483" lon="4.79895">
        <ele>369</ele>
        <time>2022-08-19T08:56:12.000Z</time>
      </trkpt>
      <trkpt lat="49.8483" lon="4.79899">
        <ele>369</ele>
        <time>2022-08-19T08:56:13.000Z</time>
      </trkpt>
      <trkpt lat="49.8483" lon="4.79904">
        <ele>369</ele>
        <time>2022-08-19T08:56:14.000Z</time>
      </trkpt>
      <trkpt lat="49.84829" lon="4.79908">
        <ele>369</ele>
        <time>2022-08-19T08:56:15.000Z</time>
      </trkpt>
      <trkpt lat="49.84829" lon="4.79912">
        <ele>369</ele>
        <time>2022-08-19T08:56:16.000Z</time>
      </trkpt>
      <trkpt lat="49.84829" lon="4.79916">
        <ele>369</ele>
        <time>2022-08-19T08:56:17.000Z</time>
      </trkpt>
      <trkpt lat="49.84828" lon="4.7992">
        <ele>370</ele>
        <time>2022-08-19T08:56:18.000Z</time>
      </trkpt>
      <trkpt lat="49.84827" lon="4.79924">
        <ele>370</ele>
        <time>2022-08-19T08:56:19.000Z</time>
      </trkpt>
      <trkpt lat="49.84826" lon="4.79929">
        <ele>370</ele>
        <time>2022-08-19T08:56:20.000Z</time>
      </trkpt>
      <trkpt lat="49.84825" lon="4.79933">
        <ele>370</ele>
        <time>2022-08-19T08:56:21.000Z</time>
      </trkpt>
      <trkpt lat="49.84824" lon="4.79938">
        <ele>370</ele>
        <time>2022-08-19T08:56:22.000Z</time>
      </trkpt>
      <trkpt lat="49.84824" lon="4.79943">
        <ele>371</ele>
        <time>2022-08-19T08:56:23.000Z</time>
      </trkpt>
      <trkpt lat="49.84823" lon="4.79947">
        <ele>371</ele>
        <time>2022-08-19T08:56:24.000Z</time>
      </trkpt>
      <trkpt lat="49.84822" lon="4.79951">
        <ele>371</ele>
        <time>2022-08-19T08:56:25.000Z</time>
      </trkpt>
      <trkpt lat="49.84821" lon="4.79955">
        <ele>371</ele>
        <time>2022-08-19T08:56:26.000Z</time>
      </trkpt>
      <trkpt lat="49.8482" lon="4.7996">
        <ele>372</ele>
        <time>2022-08-19T08:56:27.000Z</time>
      </trkpt>
      <trkpt lat="49.8482" lon="4.79964">
        <ele>372</ele>
        <time>2022-08-19T08:56:28.000Z</time>
      </trkpt>
      <trkpt lat="49.84819" lon="4.79968">
        <ele>372</ele>
        <time>2022-08-19T08:56:29.000Z</time>
      </trkpt>
      <trkpt lat="49.84819" lon="4.79974">
        <ele>373</ele>
        <time>2022-08-19T08:56:30.000Z</time>
      </trkpt>
      <trkpt lat="49.84819" lon="4.79978">
        <ele>373</ele>
        <time>2022-08-19T08:56:31.000Z</time>
      </trkpt>
      <trkpt lat="49.84818" lon="4.79984">
        <ele>373</ele>
        <time>2022-08-19T08:56:32.000Z</time>
      </trkpt>
      <trkpt lat="49.84817" lon="4.79989">
        <ele>373</ele>
        <time>2022-08-19T08:56:33.000Z</time>
      </trkpt>
      <trkpt lat="49.84817" lon="4.79994">
        <ele>374</ele>
        <time>2022-08-19T08:56:34.000Z</time>
      </trkpt>
      <trkpt lat="49.84817" lon="4.79998">
        <ele>374</ele>
        <time>2022-08-19T08:56:35.000Z</time>
      </trkpt>
      <trkpt lat="49.84816" lon="4.80004">
        <ele>374</ele>
        <time>2022-08-19T08:56:36.000Z</time>
      </trkpt>
      <trkpt lat="49.84814" lon="4.80009">
        <ele>375</ele>
        <time>2022-08-19T08:56:37.000Z</time>
      </trkpt>
      <trkpt lat="49.84813" lon="4.80014">
        <ele>375</ele>
        <time>2022-08-19T08:56:38.000Z</time>
      </trkpt>
      <trkpt lat="49.84811" lon="4.80018">
        <ele>375</ele>
        <time>2022-08-19T08:56:39.000Z</time>
      </trkpt>
      <trkpt lat="49.84809" lon="4.80023">
        <ele>376</ele>
        <time>2022-08-19T08:56:40.000Z</time>
      </trkpt>
      <trkpt lat="49.84808" lon="4.80027">
        <ele>376</ele>
        <time>2022-08-19T08:56:41.000Z</time>
      </trkpt>
      <trkpt lat="49.84807" lon="4.80031">
        <ele>376</ele>
        <time>2022-08-19T08:56:42.000Z</time>
      </trkpt>
      <trkpt lat="49.84805" lon="4.80035">
        <ele>376</ele>
        <time>2022-08-19T08:56:43.000Z</time>
      </trkpt>
      <trkpt lat="49.84802" lon="4.80038">
        <ele>376</ele>
        <time>2022-08-19T08:56:44.000Z</time>
      </trkpt>
      <trkpt lat="49.848" lon="4.80042">
        <ele>376</ele>
        <time>2022-08-19T08:56:45.000Z</time>
      </trkpt>
      <trkpt lat="49.84799" lon="4.80046">
        <ele>377</ele>
        <time>2022-08-19T08:56:46.000Z</time>
      </trkpt>
      <trkpt lat="49.84797" lon="4.80051">
        <ele>377</ele>
        <time>2022-08-19T08:56:47.000Z</time>
      </trkpt>
      <trkpt lat="49.84796" lon="4.80055">
        <ele>377</ele>
        <time>2022-08-19T08:56:48.000Z</time>
      </trkpt>
      <trkpt lat="49.84796" lon="4.8006">
        <ele>377</ele>
        <time>2022-08-19T08:56:49.000Z</time>
      </trkpt>
      <trkpt lat="49.84795" lon="4.80066">
        <ele>377</ele>
        <time>2022-08-19T08:56:50.000Z</time>
      </trkpt>
      <trkpt lat="49.84795" lon="4.80071">
        <ele>377</ele>
        <time>2022-08-19T08:56:51.000Z</time>
      </trkpt>
      <trkpt lat="49.84795" lon="4.80076">
        <ele>378</ele>
        <time>2022-08-19T08:56:52.000Z</time>
      </trkpt>
      <trkpt lat="49.84793" lon="4.80081">
        <ele>378</ele>
        <time>2022-08-19T08:56:53.000Z</time>
      </trkpt>
      <trkpt lat="49.84792" lon="4.80087">
        <ele>378</ele>
        <time>2022-08-19T08:56:54.000Z</time>
      </trkpt>
      <trkpt lat="49.84791" lon="4.80093">
        <ele>378</ele>
        <time>2022-08-19T08:56:55.000Z</time>
      </trkpt>
      <trkpt lat="49.84789" lon="4.80099">
        <ele>378</ele>
        <time>2022-08-19T08:56:56.000Z</time>
      </trkpt>
      <trkpt lat="49.84788" lon="4.80105">
        <ele>379</ele>
        <time>2022-08-19T08:56:57.000Z</time>
      </trkpt>
      <trkpt lat="49.84787" lon="4.8011">
        <ele>379</ele>
        <time>2022-08-19T08:56:58.000Z</time>
      </trkpt>
      <trkpt lat="49.84785" lon="4.80115">
        <ele>379</ele>
        <time>2022-08-19T08:56:59.000Z</time>
      </trkpt>
      <trkpt lat="49.84784" lon="4.80119">
        <ele>379</ele>
        <time>2022-08-19T08:57:00.000Z</time>
      </trkpt>
      <trkpt lat="49.84784" lon="4.80124">
        <ele>379</ele>
        <time>2022-08-19T08:57:01.000Z</time>
      </trkpt>
      <trkpt lat="49.84783" lon="4.80128">
        <ele>379</ele>
        <time>2022-08-19T08:57:02.000Z</time>
      </trkpt>
      <trkpt lat="49.84783" lon="4.80132">
        <ele>380</ele>
        <time>2022-08-19T08:57:03.000Z</time>
      </trkpt>
      <trkpt lat="49.84782" lon="4.80135">
        <ele>380</ele>
        <time>2022-08-19T08:57:04.000Z</time>
      </trkpt>
      <trkpt lat="49.84781" lon="4.80139">
        <ele>380</ele>
        <time>2022-08-19T08:57:05.000Z</time>
      </trkpt>
      <trkpt lat="49.8478" lon="4.80143">
        <ele>380</ele>
        <time>2022-08-19T08:57:06.000Z</time>
      </trkpt>
      <trkpt lat="49.8478" lon="4.80147">
        <ele>380</ele>
        <time>2022-08-19T08:57:07.000Z</time>
      </trkpt>
      <trkpt lat="49.84778" lon="4.8015">
        <ele>380</ele>
        <time>2022-08-19T08:57:08.000Z</time>
      </trkpt>
      <trkpt lat="49.84777" lon="4.80154">
        <ele>381</ele>
        <time>2022-08-19T08:57:09.000Z</time>
      </trkpt>
      <trkpt lat="49.84776" lon="4.80158">
        <ele>381</ele>
        <time>2022-08-19T08:57:10.000Z</time>
      </trkpt>
      <trkpt lat="49.84776" lon="4.80162">
        <ele>381</ele>
        <time>2022-08-19T08:57:11.000Z</time>
      </trkpt>
      <trkpt lat="49.84776" lon="4.80167">
        <ele>381</ele>
        <time>2022-08-19T08:57:12.000Z</time>
      </trkpt>
      <trkpt lat="49.84775" lon="4.80172">
        <ele>381</ele>
        <time>2022-08-19T08:57:13.000Z</time>
      </trkpt>
      <trkpt lat="49.84775" lon="4.80177">
        <ele>382</ele>
        <time>2022-08-19T08:57:14.000Z</time>
      </trkpt>
      <trkpt lat="49.84773" lon="4.80181">
        <ele>382</ele>
        <time>2022-08-19T08:57:15.000Z</time>
      </trkpt>
      <trkpt lat="49.84773" lon="4.80184">
        <ele>382</ele>
        <time>2022-08-19T08:57:16.000Z</time>
      </trkpt>
      <trkpt lat="49.84772" lon="4.80187">
        <ele>382</ele>
        <time>2022-08-19T08:57:17.000Z</time>
      </trkpt>
      <trkpt lat="49.84772" lon="4.8019">
        <ele>382</ele>
        <time>2022-08-19T08:57:18.000Z</time>
      </trkpt>
      <trkpt lat="49.84771" lon="4.80193">
        <ele>382</ele>
        <time>2022-08-19T08:57:19.000Z</time>
      </trkpt>
      <trkpt lat="49.84771" lon="4.80198">
        <ele>383</ele>
        <time>2022-08-19T08:57:20.000Z</time>
      </trkpt>
      <trkpt lat="49.84771" lon="4.80203">
        <ele>383</ele>
        <time>2022-08-19T08:57:21.000Z</time>
      </trkpt>
      <trkpt lat="49.84771" lon="4.80208">
        <ele>383</ele>
        <time>2022-08-19T08:57:22.000Z</time>
      </trkpt>
      <trkpt lat="49.84771" lon="4.80212">
        <ele>384</ele>
        <time>2022-08-19T08:57:23.000Z</time>
      </trkpt>
      <trkpt lat="49.8477" lon="4.80217">
        <ele>384</ele>
        <time>2022-08-19T08:57:24.000Z</time>
      </trkpt>
      <trkpt lat="49.8477" lon="4.80221">
        <ele>384</ele>
        <time>2022-08-19T08:57:25.000Z</time>
      </trkpt>
      <trkpt lat="49.84769" lon="4.80225">
        <ele>384</ele>
        <time>2022-08-19T08:57:26.000Z</time>
      </trkpt>
      <trkpt lat="49.84768" lon="4.80229">
        <ele>385</ele>
        <time>2022-08-19T08:57:27.000Z</time>
      </trkpt>
      <trkpt lat="49.84768" lon="4.80233">
        <ele>385</ele>
        <time>2022-08-19T08:57:28.000Z</time>
      </trkpt>
      <trkpt lat="49.84767" lon="4.80236">
        <ele>385</ele>
        <time>2022-08-19T08:57:29.000Z</time>
      </trkpt>
      <trkpt lat="49.84766" lon="4.8024">
        <ele>385</ele>
        <time>2022-08-19T08:57:30.000Z</time>
      </trkpt>
      <trkpt lat="49.84765" lon="4.80244">
        <ele>385</ele>
        <time>2022-08-19T08:57:31.000Z</time>
      </trkpt>
      <trkpt lat="49.84764" lon="4.80247">
        <ele>385</ele>
        <time>2022-08-19T08:57:32.000Z</time>
      </trkpt>
      <trkpt lat="49.84763" lon="4.80251">
        <ele>385</ele>
        <time>2022-08-19T08:57:33.000Z</time>
      </trkpt>
      <trkpt lat="49.84763" lon="4.80256">
        <ele>385</ele>
        <time>2022-08-19T08:57:34.000Z</time>
      </trkpt>
      <trkpt lat="49.84763" lon="4.80259">
        <ele>385</ele>
        <time>2022-08-19T08:57:35.000Z</time>
      </trkpt>
      <trkpt lat="49.84762" lon="4.80263">
        <ele>386</ele>
        <time>2022-08-19T08:57:36.000Z</time>
      </trkpt>
      <trkpt lat="49.84762" lon="4.80267">
        <ele>386</ele>
        <time>2022-08-19T08:57:37.000Z</time>
      </trkpt>
      <trkpt lat="49.84762" lon="4.80271">
        <ele>386</ele>
        <time>2022-08-19T08:57:38.000Z</time>
      </trkpt>
      <trkpt lat="49.84761" lon="4.80275">
        <ele>386</ele>
        <time>2022-08-19T08:57:39.000Z</time>
      </trkpt>
      <trkpt lat="49.84761" lon="4.80279">
        <ele>386</ele>
        <time>2022-08-19T08:57:40.000Z</time>
      </trkpt>
      <trkpt lat="49.84761" lon="4.80283">
        <ele>387</ele>
        <time>2022-08-19T08:57:41.000Z</time>
      </trkpt>
      <trkpt lat="49.84761" lon="4.80288">
        <ele>387</ele>
        <time>2022-08-19T08:57:42.000Z</time>
      </trkpt>
      <trkpt lat="49.8476" lon="4.80292">
        <ele>387</ele>
        <time>2022-08-19T08:57:43.000Z</time>
      </trkpt>
      <trkpt lat="49.8476" lon="4.80296">
        <ele>387</ele>
        <time>2022-08-19T08:57:44.000Z</time>
      </trkpt>
      <trkpt lat="49.8476" lon="4.80301">
        <ele>388</ele>
        <time>2022-08-19T08:57:45.000Z</time>
      </trkpt>
      <trkpt lat="49.8476" lon="4.80306">
        <ele>388</ele>
        <time>2022-08-19T08:57:46.000Z</time>
      </trkpt>
      <trkpt lat="49.84759" lon="4.8031">
        <ele>388</ele>
        <time>2022-08-19T08:57:47.000Z</time>
      </trkpt>
      <trkpt lat="49.84759" lon="4.80315">
        <ele>388</ele>
        <time>2022-08-19T08:57:48.000Z</time>
      </trkpt>
      <trkpt lat="49.84759" lon="4.80319">
        <ele>388</ele>
        <time>2022-08-19T08:57:49.000Z</time>
      </trkpt>
      <trkpt lat="49.84758" lon="4.80324">
        <ele>388</ele>
        <time>2022-08-19T08:57:50.000Z</time>
      </trkpt>
      <trkpt lat="49.84758" lon="4.80329">
        <ele>389</ele>
        <time>2022-08-19T08:57:51.000Z</time>
      </trkpt>
      <trkpt lat="49.84758" lon="4.80334">
        <ele>389</ele>
        <time>2022-08-19T08:57:52.000Z</time>
      </trkpt>
      <trkpt lat="49.84759" lon="4.80339">
        <ele>389</ele>
        <time>2022-08-19T08:57:53.000Z</time>
      </trkpt>
      <trkpt lat="49.84758" lon="4.80344">
        <ele>389</ele>
        <time>2022-08-19T08:57:54.000Z</time>
      </trkpt>
      <trkpt lat="49.84757" lon="4.80349">
        <ele>389</ele>
        <time>2022-08-19T08:57:55.000Z</time>
      </trkpt>
      <trkpt lat="49.84757" lon="4.80354">
        <ele>389</ele>
        <time>2022-08-19T08:57:56.000Z</time>
      </trkpt>
      <trkpt lat="49.84756" lon="4.80361">
        <ele>389</ele>
        <time>2022-08-19T08:57:57.000Z</time>
      </trkpt>
      <trkpt lat="49.84756" lon="4.80367">
        <ele>390</ele>
        <time>2022-08-19T08:57:58.000Z</time>
      </trkpt>
      <trkpt lat="49.84756" lon="4.80374">
        <ele>390</ele>
        <time>2022-08-19T08:57:59.000Z</time>
      </trkpt>
      <trkpt lat="49.84755" lon="4.8038">
        <ele>390</ele>
        <time>2022-08-19T08:58:00.000Z</time>
      </trkpt>
      <trkpt lat="49.84755" lon="4.80386">
        <ele>390</ele>
        <time>2022-08-19T08:58:01.000Z</time>
      </trkpt>
      <trkpt lat="49.84755" lon="4.80392">
        <ele>390</ele>
        <time>2022-08-19T08:58:02.000Z</time>
      </trkpt>
      <trkpt lat="49.84756" lon="4.80398">
        <ele>390</ele>
        <time>2022-08-19T08:58:03.000Z</time>
      </trkpt>
      <trkpt lat="49.84756" lon="4.80404">
        <ele>390</ele>
        <time>2022-08-19T08:58:04.000Z</time>
      </trkpt>
      <trkpt lat="49.84756" lon="4.80411">
        <ele>390</ele>
        <time>2022-08-19T08:58:05.000Z</time>
      </trkpt>
      <trkpt lat="49.84756" lon="4.80417">
        <ele>390</ele>
        <time>2022-08-19T08:58:06.000Z</time>
      </trkpt>
      <trkpt lat="49.84757" lon="4.80424">
        <ele>391</ele>
        <time>2022-08-19T08:58:07.000Z</time>
      </trkpt>
      <trkpt lat="49.84757" lon="4.80431">
        <ele>391</ele>
        <time>2022-08-19T08:58:08.000Z</time>
      </trkpt>
      <trkpt lat="49.84758" lon="4.80438">
        <ele>391</ele>
        <time>2022-08-19T08:58:09.000Z</time>
      </trkpt>
      <trkpt lat="49.84758" lon="4.80444">
        <ele>391</ele>
        <time>2022-08-19T08:58:10.000Z</time>
      </trkpt>
      <trkpt lat="49.84759" lon="4.8045">
        <ele>391</ele>
        <time>2022-08-19T08:58:11.000Z</time>
      </trkpt>
      <trkpt lat="49.8476" lon="4.80456">
        <ele>391</ele>
        <time>2022-08-19T08:58:12.000Z</time>
      </trkpt>
      <trkpt lat="49.8476" lon="4.80461">
        <ele>391</ele>
        <time>2022-08-19T08:58:13.000Z</time>
      </trkpt>
      <trkpt lat="49.8476" lon="4.80466">
        <ele>391</ele>
        <time>2022-08-19T08:58:14.000Z</time>
      </trkpt>
      <trkpt lat="49.8476" lon="4.80471">
        <ele>391</ele>
        <time>2022-08-19T08:58:15.000Z</time>
      </trkpt>
      <trkpt lat="49.8476" lon="4.80477">
        <ele>391</ele>
        <time>2022-08-19T08:58:16.000Z</time>
      </trkpt>
      <trkpt lat="49.84761" lon="4.80482">
        <ele>391</ele>
        <time>2022-08-19T08:58:17.000Z</time>
      </trkpt>
      <trkpt lat="49.84761" lon="4.80488">
        <ele>391</ele>
        <time>2022-08-19T08:58:18.000Z</time>
      </trkpt>
      <trkpt lat="49.84762" lon="4.80494">
        <ele>391</ele>
        <time>2022-08-19T08:58:19.000Z</time>
      </trkpt>
      <trkpt lat="49.84762" lon="4.80501">
        <ele>391</ele>
        <time>2022-08-19T08:58:20.000Z</time>
      </trkpt>
      <trkpt lat="49.84762" lon="4.80507">
        <ele>391</ele>
        <time>2022-08-19T08:58:21.000Z</time>
      </trkpt>
      <trkpt lat="49.84763" lon="4.80512">
        <ele>391</ele>
        <time>2022-08-19T08:58:22.000Z</time>
      </trkpt>
      <trkpt lat="49.84764" lon="4.80518">
        <ele>391</ele>
        <time>2022-08-19T08:58:23.000Z</time>
      </trkpt>
      <trkpt lat="49.84764" lon="4.80524">
        <ele>391</ele>
        <time>2022-08-19T08:58:24.000Z</time>
      </trkpt>
      <trkpt lat="49.84763" lon="4.80531">
        <ele>391</ele>
        <time>2022-08-19T08:58:25.000Z</time>
      </trkpt>
      <trkpt lat="49.84762" lon="4.80537">
        <ele>391</ele>
        <time>2022-08-19T08:58:26.000Z</time>
      </trkpt>
      <trkpt lat="49.84761" lon="4.80542">
        <ele>390</ele>
        <time>2022-08-19T08:58:27.000Z</time>
      </trkpt>
      <trkpt lat="49.84759" lon="4.80547">
        <ele>390</ele>
        <time>2022-08-19T08:58:28.000Z</time>
      </trkpt>
      <trkpt lat="49.84758" lon="4.80552">
        <ele>390</ele>
        <time>2022-08-19T08:58:29.000Z</time>
      </trkpt>
      <trkpt lat="49.84756" lon="4.80557">
        <ele>390</ele>
        <time>2022-08-19T08:58:30.000Z</time>
      </trkpt>
      <trkpt lat="49.84754" lon="4.80561">
        <ele>389</ele>
        <time>2022-08-19T08:58:31.000Z</time>
      </trkpt>
      <trkpt lat="49.84753" lon="4.80565">
        <ele>389</ele>
        <time>2022-08-19T08:58:32.000Z</time>
      </trkpt>
      <trkpt lat="49.84753" lon="4.8057">
        <ele>389</ele>
        <time>2022-08-19T08:58:33.000Z</time>
      </trkpt>
      <trkpt lat="49.84753" lon="4.80576">
        <ele>389</ele>
        <time>2022-08-19T08:58:34.000Z</time>
      </trkpt>
      <trkpt lat="49.84754" lon="4.80582">
        <ele>388</ele>
        <time>2022-08-19T08:58:35.000Z</time>
      </trkpt>
      <trkpt lat="49.84756" lon="4.80588">
        <ele>388</ele>
        <time>2022-08-19T08:58:36.000Z</time>
      </trkpt>
      <trkpt lat="49.84758" lon="4.80594">
        <ele>388</ele>
        <time>2022-08-19T08:58:37.000Z</time>
      </trkpt>
      <trkpt lat="49.84761" lon="4.806">
        <ele>388</ele>
        <time>2022-08-19T08:58:38.000Z</time>
      </trkpt>
      <trkpt lat="49.84764" lon="4.80606">
        <ele>388</ele>
        <time>2022-08-19T08:58:39.000Z</time>
      </trkpt>
      <trkpt lat="49.84767" lon="4.80612">
        <ele>388</ele>
        <time>2022-08-19T08:58:40.000Z</time>
      </trkpt>
      <trkpt lat="49.84769" lon="4.80618">
        <ele>388</ele>
        <time>2022-08-19T08:58:41.000Z</time>
      </trkpt>
      <trkpt lat="49.84772" lon="4.80625">
        <ele>388</ele>
        <time>2022-08-19T08:58:42.000Z</time>
      </trkpt>
      <trkpt lat="49.84775" lon="4.80632">
        <ele>387</ele>
        <time>2022-08-19T08:58:43.000Z</time>
      </trkpt>
      <trkpt lat="49.84778" lon="4.80638">
        <ele>387</ele>
        <time>2022-08-19T08:58:44.000Z</time>
      </trkpt>
      <trkpt lat="49.84781" lon="4.80644">
        <ele>387</ele>
        <time>2022-08-19T08:58:45.000Z</time>
      </trkpt>
      <trkpt lat="49.84784" lon="4.8065">
        <ele>387</ele>
        <time>2022-08-19T08:58:46.000Z</time>
      </trkpt>
      <trkpt lat="49.84786" lon="4.80656">
        <ele>387</ele>
        <time>2022-08-19T08:58:47.000Z</time>
      </trkpt>
      <trkpt lat="49.84789" lon="4.80662">
        <ele>387</ele>
        <time>2022-08-19T08:58:48.000Z</time>
      </trkpt>
      <trkpt lat="49.84791" lon="4.80668">
        <ele>386</ele>
        <time>2022-08-19T08:58:49.000Z</time>
      </trkpt>
      <trkpt lat="49.84794" lon="4.80674">
        <ele>386</ele>
        <time>2022-08-19T08:58:50.000Z</time>
      </trkpt>
      <trkpt lat="49.84796" lon="4.8068">
        <ele>386</ele>
        <time>2022-08-19T08:58:51.000Z</time>
      </trkpt>
      <trkpt lat="49.84799" lon="4.80685">
        <ele>386</ele>
        <time>2022-08-19T08:58:52.000Z</time>
      </trkpt>
      <trkpt lat="49.84802" lon="4.80691">
        <ele>386</ele>
        <time>2022-08-19T08:58:53.000Z</time>
      </trkpt>
      <trkpt lat="49.84805" lon="4.80696">
        <ele>386</ele>
        <time>2022-08-19T08:58:54.000Z</time>
      </trkpt>
      <trkpt lat="49.84808" lon="4.80701">
        <ele>386</ele>
        <time>2022-08-19T08:58:55.000Z</time>
      </trkpt>
      <trkpt lat="49.84811" lon="4.80706">
        <ele>386</ele>
        <time>2022-08-19T08:58:56.000Z</time>
      </trkpt>
      <trkpt lat="49.84814" lon="4.80711">
        <ele>386</ele>
        <time>2022-08-19T08:58:57.000Z</time>
      </trkpt>
      <trkpt lat="49.84817" lon="4.80718">
        <ele>385</ele>
        <time>2022-08-19T08:58:58.000Z</time>
      </trkpt>
      <trkpt lat="49.84819" lon="4.80725">
        <ele>385</ele>
        <time>2022-08-19T08:58:59.000Z</time>
      </trkpt>
      <trkpt lat="49.84821" lon="4.80732">
        <ele>385</ele>
        <time>2022-08-19T08:59:00.000Z</time>
      </trkpt>
      <trkpt lat="49.84824" lon="4.80739">
        <ele>385</ele>
        <time>2022-08-19T08:59:01.000Z</time>
      </trkpt>
      <trkpt lat="49.84827" lon="4.80745">
        <ele>385</ele>
        <time>2022-08-19T08:59:02.000Z</time>
      </trkpt>
      <trkpt lat="49.8483" lon="4.80751">
        <ele>385</ele>
        <time>2022-08-19T08:59:03.000Z</time>
      </trkpt>
      <trkpt lat="49.84833" lon="4.80756">
        <ele>385</ele>
        <time>2022-08-19T08:59:04.000Z</time>
      </trkpt>
      <trkpt lat="49.84836" lon="4.80762">
        <ele>385</ele>
        <time>2022-08-19T08:59:05.000Z</time>
      </trkpt>
      <trkpt lat="49.84839" lon="4.80767">
        <ele>385</ele>
        <time>2022-08-19T08:59:06.000Z</time>
      </trkpt>
      <trkpt lat="49.84843" lon="4.80772">
        <ele>385</ele>
        <time>2022-08-19T08:59:07.000Z</time>
      </trkpt>
      <trkpt lat="49.84845" lon="4.80777">
        <ele>384</ele>
        <time>2022-08-19T08:59:08.000Z</time>
      </trkpt>
      <trkpt lat="49.84848" lon="4.80782">
        <ele>384</ele>
        <time>2022-08-19T08:59:09.000Z</time>
      </trkpt>
      <trkpt lat="49.84851" lon="4.80786">
        <ele>384</ele>
        <time>2022-08-19T08:59:10.000Z</time>
      </trkpt>
      <trkpt lat="49.84855" lon="4.80791">
        <ele>384</ele>
        <time>2022-08-19T08:59:11.000Z</time>
      </trkpt>
      <trkpt lat="49.84859" lon="4.80796">
        <ele>384</ele>
        <time>2022-08-19T08:59:12.000Z</time>
      </trkpt>
      <trkpt lat="49.84863" lon="4.808">
        <ele>384</ele>
        <time>2022-08-19T08:59:13.000Z</time>
      </trkpt>
      <trkpt lat="49.84866" lon="4.80804">
        <ele>384</ele>
        <time>2022-08-19T08:59:14.000Z</time>
      </trkpt>
      <trkpt lat="49.84871" lon="4.80808">
        <ele>384</ele>
        <time>2022-08-19T08:59:15.000Z</time>
      </trkpt>
      <trkpt lat="49.84876" lon="4.80811">
        <ele>384</ele>
        <time>2022-08-19T08:59:16.000Z</time>
      </trkpt>
      <trkpt lat="49.84882" lon="4.80814">
        <ele>384</ele>
        <time>2022-08-19T08:59:17.000Z</time>
      </trkpt>
      <trkpt lat="49.84887" lon="4.80819">
        <ele>384</ele>
        <time>2022-08-19T08:59:18.000Z</time>
      </trkpt>
      <trkpt lat="49.84892" lon="4.80824">
        <ele>384</ele>
        <time>2022-08-19T08:59:19.000Z</time>
      </trkpt>
      <trkpt lat="49.84897" lon="4.80831">
        <ele>384</ele>
        <time>2022-08-19T08:59:20.000Z</time>
      </trkpt>
      <trkpt lat="49.84901" lon="4.80838">
        <ele>384</ele>
        <time>2022-08-19T08:59:21.000Z</time>
      </trkpt>
      <trkpt lat="49.84905" lon="4.80846">
        <ele>384</ele>
        <time>2022-08-19T08:59:22.000Z</time>
      </trkpt>
      <trkpt lat="49.84909" lon="4.80855">
        <ele>384</ele>
        <time>2022-08-19T08:59:23.000Z</time>
      </trkpt>
      <trkpt lat="49.84913" lon="4.80863">
        <ele>384</ele>
        <time>2022-08-19T08:59:24.000Z</time>
      </trkpt>
      <trkpt lat="49.84917" lon="4.80872">
        <ele>384</ele>
        <time>2022-08-19T08:59:25.000Z</time>
      </trkpt>
      <trkpt lat="49.84922" lon="4.80881">
        <ele>384</ele>
        <time>2022-08-19T08:59:26.000Z</time>
      </trkpt>
      <trkpt lat="49.84925" lon="4.8089">
        <ele>384</ele>
        <time>2022-08-19T08:59:27.000Z</time>
      </trkpt>
      <trkpt lat="49.84927" lon="4.809">
        <ele>384</ele>
        <time>2022-08-19T08:59:28.000Z</time>
      </trkpt>
      <trkpt lat="49.84928" lon="4.80909">
        <ele>384</ele>
        <time>2022-08-19T08:59:29.000Z</time>
      </trkpt>
      <trkpt lat="49.84928" lon="4.80918">
        <ele>384</ele>
        <time>2022-08-19T08:59:30.000Z</time>
      </trkpt>
      <trkpt lat="49.84928" lon="4.80926">
        <ele>384</ele>
        <time>2022-08-19T08:59:31.000Z</time>
      </trkpt>
      <trkpt lat="49.8493" lon="4.80934">
        <ele>384</ele>
        <time>2022-08-19T08:59:32.000Z</time>
      </trkpt>
      <trkpt lat="49.84932" lon="4.8094">
        <ele>383</ele>
        <time>2022-08-19T08:59:33.000Z</time>
      </trkpt>
      <trkpt lat="49.84934" lon="4.80946">
        <ele>383</ele>
        <time>2022-08-19T08:59:34.000Z</time>
      </trkpt>
      <trkpt lat="49.84936" lon="4.80953">
        <ele>384</ele>
        <time>2022-08-19T08:59:35.000Z</time>
      </trkpt>
      <trkpt lat="49.84938" lon="4.80959">
        <ele>384</ele>
        <time>2022-08-19T08:59:36.000Z</time>
      </trkpt>
      <trkpt lat="49.84941" lon="4.80966">
        <ele>384</ele>
        <time>2022-08-19T08:59:37.000Z</time>
      </trkpt>
      <trkpt lat="49.84943" lon="4.80972">
        <ele>384</ele>
        <time>2022-08-19T08:59:38.000Z</time>
      </trkpt>
      <trkpt lat="49.84945" lon="4.80978">
        <ele>384</ele>
        <time>2022-08-19T08:59:39.000Z</time>
      </trkpt>
      <trkpt lat="49.84947" lon="4.80985">
        <ele>384</ele>
        <time>2022-08-19T08:59:40.000Z</time>
      </trkpt>
      <trkpt lat="49.84949" lon="4.80992">
        <ele>384</ele>
        <time>2022-08-19T08:59:41.000Z</time>
      </trkpt>
      <trkpt lat="49.84952" lon="4.80999">
        <ele>384</ele>
        <time>2022-08-19T08:59:42.000Z</time>
      </trkpt>
      <trkpt lat="49.84954" lon="4.81005">
        <ele>384</ele>
        <time>2022-08-19T08:59:43.000Z</time>
      </trkpt>
      <trkpt lat="49.84956" lon="4.81012">
        <ele>384</ele>
        <time>2022-08-19T08:59:44.000Z</time>
      </trkpt>
      <trkpt lat="49.84958" lon="4.81019">
        <ele>384</ele>
        <time>2022-08-19T08:59:45.000Z</time>
      </trkpt>
      <trkpt lat="49.8496" lon="4.81025">
        <ele>384</ele>
        <time>2022-08-19T08:59:46.000Z</time>
      </trkpt>
      <trkpt lat="49.84962" lon="4.81031">
        <ele>384</ele>
        <time>2022-08-19T08:59:47.000Z</time>
      </trkpt>
      <trkpt lat="49.84964" lon="4.81037">
        <ele>384</ele>
        <time>2022-08-19T08:59:48.000Z</time>
      </trkpt>
      <trkpt lat="49.84967" lon="4.81043">
        <ele>384</ele>
        <time>2022-08-19T08:59:49.000Z</time>
      </trkpt>
      <trkpt lat="49.84969" lon="4.81049">
        <ele>384</ele>
        <time>2022-08-19T08:59:50.000Z</time>
      </trkpt>
      <trkpt lat="49.84972" lon="4.81055">
        <ele>384</ele>
        <time>2022-08-19T08:59:51.000Z</time>
      </trkpt>
      <trkpt lat="49.84974" lon="4.81061">
        <ele>384</ele>
        <time>2022-08-19T08:59:52.000Z</time>
      </trkpt>
      <trkpt lat="49.84976" lon="4.81068">
        <ele>384</ele>
        <time>2022-08-19T08:59:53.000Z</time>
      </trkpt>
      <trkpt lat="49.84978" lon="4.81074">
        <ele>384</ele>
        <time>2022-08-19T08:59:54.000Z</time>
      </trkpt>
      <trkpt lat="49.8498" lon="4.8108">
        <ele>384</ele>
        <time>2022-08-19T08:59:55.000Z</time>
      </trkpt>
      <trkpt lat="49.84982" lon="4.81086">
        <ele>384</ele>
        <time>2022-08-19T08:59:56.000Z</time>
      </trkpt>
      <trkpt lat="49.84984" lon="4.81093">
        <ele>384</ele>
        <time>2022-08-19T08:59:57.000Z</time>
      </trkpt>
      <trkpt lat="49.84986" lon="4.81099">
        <ele>384</ele>
        <time>2022-08-19T08:59:58.000Z</time>
      </trkpt>
      <trkpt lat="49.84988" lon="4.81105">
        <ele>384</ele>
        <time>2022-08-19T08:59:59.000Z</time>
      </trkpt>
      <trkpt lat="49.84991" lon="4.81111">
        <ele>384</ele>
        <time>2022-08-19T09:00:00.000Z</time>
      </trkpt>
      <trkpt lat="49.84993" lon="4.81116">
        <ele>384</ele>
        <time>2022-08-19T09:00:01.000Z</time>
      </trkpt>
      <trkpt lat="49.84995" lon="4.81122">
        <ele>384</ele>
        <time>2022-08-19T09:00:02.000Z</time>
      </trkpt>
      <trkpt lat="49.84998" lon="4.81128">
        <ele>384</ele>
        <time>2022-08-19T09:00:03.000Z</time>
      </trkpt>
      <trkpt lat="49.85001" lon="4.81133">
        <ele>384</ele>
        <time>2022-08-19T09:00:04.000Z</time>
      </trkpt>
      <trkpt lat="49.85004" lon="4.81139">
        <ele>384</ele>
        <time>2022-08-19T09:00:05.000Z</time>
      </trkpt>
      <trkpt lat="49.85007" lon="4.81145">
        <ele>384</ele>
        <time>2022-08-19T09:00:06.000Z</time>
      </trkpt>
      <trkpt lat="49.8501" lon="4.8115">
        <ele>385</ele>
        <time>2022-08-19T09:00:07.000Z</time>
      </trkpt>
      <trkpt lat="49.85014" lon="4.81156">
        <ele>385</ele>
        <time>2022-08-19T09:00:08.000Z</time>
      </trkpt>
      <trkpt lat="49.85017" lon="4.81161">
        <ele>385</ele>
        <time>2022-08-19T09:00:09.000Z</time>
      </trkpt>
      <trkpt lat="49.85021" lon="4.81167">
        <ele>385</ele>
        <time>2022-08-19T09:00:10.000Z</time>
      </trkpt>
      <trkpt lat="49.85025" lon="4.81173">
        <ele>385</ele>
        <time>2022-08-19T09:00:11.000Z</time>
      </trkpt>
      <trkpt lat="49.85029" lon="4.81178">
        <ele>385</ele>
        <time>2022-08-19T09:00:12.000Z</time>
      </trkpt>
      <trkpt lat="49.85033" lon="4.81184">
        <ele>385</ele>
        <time>2022-08-19T09:00:13.000Z</time>
      </trkpt>
      <trkpt lat="49.85037" lon="4.81191">
        <ele>385</ele>
        <time>2022-08-19T09:00:14.000Z</time>
      </trkpt>
      <trkpt lat="49.85041" lon="4.81197">
        <ele>385</ele>
        <time>2022-08-19T09:00:15.000Z</time>
      </trkpt>
      <trkpt lat="49.85045" lon="4.81203">
        <ele>384</ele>
        <time>2022-08-19T09:00:16.000Z</time>
      </trkpt>
      <trkpt lat="49.85049" lon="4.81209">
        <ele>384</ele>
        <time>2022-08-19T09:00:17.000Z</time>
      </trkpt>
      <trkpt lat="49.85053" lon="4.81216">
        <ele>384</ele>
        <time>2022-08-19T09:00:18.000Z</time>
      </trkpt>
      <trkpt lat="49.85057" lon="4.81222">
        <ele>384</ele>
        <time>2022-08-19T09:00:19.000Z</time>
      </trkpt>
      <trkpt lat="49.85061" lon="4.81228">
        <ele>384</ele>
        <time>2022-08-19T09:00:20.000Z</time>
      </trkpt>
      <trkpt lat="49.85065" lon="4.81234">
        <ele>384</ele>
        <time>2022-08-19T09:00:21.000Z</time>
      </trkpt>
      <trkpt lat="49.85069" lon="4.8124">
        <ele>384</ele>
        <time>2022-08-19T09:00:22.000Z</time>
      </trkpt>
      <trkpt lat="49.85073" lon="4.81246">
        <ele>384</ele>
        <time>2022-08-19T09:00:23.000Z</time>
      </trkpt>
      <trkpt lat="49.85077" lon="4.81252">
        <ele>384</ele>
        <time>2022-08-19T09:00:24.000Z</time>
      </trkpt>
      <trkpt lat="49.85081" lon="4.81258">
        <ele>384</ele>
        <time>2022-08-19T09:00:25.000Z</time>
      </trkpt>
      <trkpt lat="49.85085" lon="4.81264">
        <ele>384</ele>
        <time>2022-08-19T09:00:26.000Z</time>
      </trkpt>
      <trkpt lat="49.85088" lon="4.81268">
        <ele>384</ele>
        <time>2022-08-19T09:00:27.000Z</time>
      </trkpt>
      <trkpt lat="49.85091" lon="4.81273">
        <ele>384</ele>
        <time>2022-08-19T09:00:28.000Z</time>
      </trkpt>
      <trkpt lat="49.85094" lon="4.81277">
        <ele>384</ele>
        <time>2022-08-19T09:00:29.000Z</time>
      </trkpt>
      <trkpt lat="49.85098" lon="4.81282">
        <ele>384</ele>
        <time>2022-08-19T09:00:30.000Z</time>
      </trkpt>
      <trkpt lat="49.85101" lon="4.81286">
        <ele>383</ele>
        <time>2022-08-19T09:00:31.000Z</time>
      </trkpt>
      <trkpt lat="49.85104" lon="4.81291">
        <ele>383</ele>
        <time>2022-08-19T09:00:32.000Z</time>
      </trkpt>
      <trkpt lat="49.85108" lon="4.81297">
        <ele>384</ele>
        <time>2022-08-19T09:00:33.000Z</time>
      </trkpt>
      <trkpt lat="49.85111" lon="4.81302">
        <ele>384</ele>
        <time>2022-08-19T09:00:34.000Z</time>
      </trkpt>
      <trkpt lat="49.85114" lon="4.81308">
        <ele>383</ele>
        <time>2022-08-19T09:00:35.000Z</time>
      </trkpt>
      <trkpt lat="49.85117" lon="4.81313">
        <ele>384</ele>
        <time>2022-08-19T09:00:36.000Z</time>
      </trkpt>
      <trkpt lat="49.85119" lon="4.81319">
        <ele>384</ele>
        <time>2022-08-19T09:00:37.000Z</time>
      </trkpt>
      <trkpt lat="49.85121" lon="4.81324">
        <ele>384</ele>
        <time>2022-08-19T09:00:38.000Z</time>
      </trkpt>
      <trkpt lat="49.85123" lon="4.81329">
        <ele>384</ele>
        <time>2022-08-19T09:00:39.000Z</time>
      </trkpt>
      <trkpt lat="49.85126" lon="4.81333">
        <ele>384</ele>
        <time>2022-08-19T09:00:40.000Z</time>
      </trkpt>
      <trkpt lat="49.85128" lon="4.81338">
        <ele>384</ele>
        <time>2022-08-19T09:00:41.000Z</time>
      </trkpt>
      <trkpt lat="49.8513" lon="4.81344">
        <ele>384</ele>
        <time>2022-08-19T09:00:42.000Z</time>
      </trkpt>
      <trkpt lat="49.85132" lon="4.81349">
        <ele>384</ele>
        <time>2022-08-19T09:00:43.000Z</time>
      </trkpt>
      <trkpt lat="49.85133" lon="4.81355">
        <ele>384</ele>
        <time>2022-08-19T09:00:44.000Z</time>
      </trkpt>
      <trkpt lat="49.85136" lon="4.81361">
        <ele>384</ele>
        <time>2022-08-19T09:00:45.000Z</time>
      </trkpt>
      <trkpt lat="49.85138" lon="4.81368">
        <ele>384</ele>
        <time>2022-08-19T09:00:46.000Z</time>
      </trkpt>
      <trkpt lat="49.8514" lon="4.81375">
        <ele>384</ele>
        <time>2022-08-19T09:00:47.000Z</time>
      </trkpt>
      <trkpt lat="49.85142" lon="4.81382">
        <ele>384</ele>
        <time>2022-08-19T09:00:48.000Z</time>
      </trkpt>
      <trkpt lat="49.85144" lon="4.81389">
        <ele>384</ele>
        <time>2022-08-19T09:00:49.000Z</time>
      </trkpt>
      <trkpt lat="49.85146" lon="4.81396">
        <ele>384</ele>
        <time>2022-08-19T09:00:50.000Z</time>
      </trkpt>
      <trkpt lat="49.85148" lon="4.81403">
        <ele>384</ele>
        <time>2022-08-19T09:00:51.000Z</time>
      </trkpt>
      <trkpt lat="49.85149" lon="4.81411">
        <ele>384</ele>
        <time>2022-08-19T09:00:52.000Z</time>
      </trkpt>
      <trkpt lat="49.8515" lon="4.81418">
        <ele>384</ele>
        <time>2022-08-19T09:00:53.000Z</time>
      </trkpt>
      <trkpt lat="49.85151" lon="4.81427">
        <ele>384</ele>
        <time>2022-08-19T09:00:54.000Z</time>
      </trkpt>
      <trkpt lat="49.85151" lon="4.81435">
        <ele>384</ele>
        <time>2022-08-19T09:00:55.000Z</time>
      </trkpt>
      <trkpt lat="49.85151" lon="4.81443">
        <ele>384</ele>
        <time>2022-08-19T09:00:56.000Z</time>
      </trkpt>
      <trkpt lat="49.85152" lon="4.81451">
        <ele>384</ele>
        <time>2022-08-19T09:00:57.000Z</time>
      </trkpt>
      <trkpt lat="49.85152" lon="4.8146">
        <ele>384</ele>
        <time>2022-08-19T09:00:58.000Z</time>
      </trkpt>
      <trkpt lat="49.85152" lon="4.81468">
        <ele>384</ele>
        <time>2022-08-19T09:00:59.000Z</time>
      </trkpt>
      <trkpt lat="49.85152" lon="4.81476">
        <ele>384</ele>
        <time>2022-08-19T09:01:00.000Z</time>
      </trkpt>
      <trkpt lat="49.85152" lon="4.81484">
        <ele>385</ele>
        <time>2022-08-19T09:01:01.000Z</time>
      </trkpt>
      <trkpt lat="49.85153" lon="4.81492">
        <ele>385</ele>
        <time>2022-08-19T09:01:02.000Z</time>
      </trkpt>
      <trkpt lat="49.85154" lon="4.81499">
        <ele>385</ele>
        <time>2022-08-19T09:01:03.000Z</time>
      </trkpt>
      <trkpt lat="49.85154" lon="4.81507">
        <ele>385</ele>
        <time>2022-08-19T09:01:04.000Z</time>
      </trkpt>
      <trkpt lat="49.85153" lon="4.81514">
        <ele>385</ele>
        <time>2022-08-19T09:01:05.000Z</time>
      </trkpt>
      <trkpt lat="49.85152" lon="4.81521">
        <ele>385</ele>
        <time>2022-08-19T09:01:06.000Z</time>
      </trkpt>
      <trkpt lat="49.85152" lon="4.81528">
        <ele>385</ele>
        <time>2022-08-19T09:01:07.000Z</time>
      </trkpt>
      <trkpt lat="49.85152" lon="4.81535">
        <ele>385</ele>
        <time>2022-08-19T09:01:08.000Z</time>
      </trkpt>
      <trkpt lat="49.85151" lon="4.81542">
        <ele>385</ele>
        <time>2022-08-19T09:01:09.000Z</time>
      </trkpt>
      <trkpt lat="49.85151" lon="4.81549">
        <ele>385</ele>
        <time>2022-08-19T09:01:10.000Z</time>
      </trkpt>
      <trkpt lat="49.8515" lon="4.81557">
        <ele>385</ele>
        <time>2022-08-19T09:01:11.000Z</time>
      </trkpt>
      <trkpt lat="49.8515" lon="4.81564">
        <ele>385</ele>
        <time>2022-08-19T09:01:12.000Z</time>
      </trkpt>
      <trkpt lat="49.85149" lon="4.8157">
        <ele>385</ele>
        <time>2022-08-19T09:01:13.000Z</time>
      </trkpt>
      <trkpt lat="49.85148" lon="4.81577">
        <ele>386</ele>
        <time>2022-08-19T09:01:14.000Z</time>
      </trkpt>
      <trkpt lat="49.85147" lon="4.81584">
        <ele>386</ele>
        <time>2022-08-19T09:01:15.000Z</time>
      </trkpt>
      <trkpt lat="49.85147" lon="4.8159">
        <ele>386</ele>
        <time>2022-08-19T09:01:16.000Z</time>
      </trkpt>
      <trkpt lat="49.85146" lon="4.81596">
        <ele>386</ele>
        <time>2022-08-19T09:01:17.000Z</time>
      </trkpt>
      <trkpt lat="49.85145" lon="4.81603">
        <ele>386</ele>
        <time>2022-08-19T09:01:18.000Z</time>
      </trkpt>
      <trkpt lat="49.85145" lon="4.8161">
        <ele>386</ele>
        <time>2022-08-19T09:01:19.000Z</time>
      </trkpt>
      <trkpt lat="49.85144" lon="4.81617">
        <ele>386</ele>
        <time>2022-08-19T09:01:20.000Z</time>
      </trkpt>
      <trkpt lat="49.85144" lon="4.81623">
        <ele>386</ele>
        <time>2022-08-19T09:01:21.000Z</time>
      </trkpt>
      <trkpt lat="49.85144" lon="4.8163">
        <ele>387</ele>
        <time>2022-08-19T09:01:22.000Z</time>
      </trkpt>
      <trkpt lat="49.85145" lon="4.81636">
        <ele>387</ele>
        <time>2022-08-19T09:01:23.000Z</time>
      </trkpt>
      <trkpt lat="49.85145" lon="4.81642">
        <ele>387</ele>
        <time>2022-08-19T09:01:24.000Z</time>
      </trkpt>
      <trkpt lat="49.85146" lon="4.81649">
        <ele>387</ele>
        <time>2022-08-19T09:01:25.000Z</time>
      </trkpt>
      <trkpt lat="49.85146" lon="4.81655">
        <ele>387</ele>
        <time>2022-08-19T09:01:26.000Z</time>
      </trkpt>
      <trkpt lat="49.85147" lon="4.81661">
        <ele>387</ele>
        <time>2022-08-19T09:01:27.000Z</time>
      </trkpt>
      <trkpt lat="49.85148" lon="4.81667">
        <ele>387</ele>
        <time>2022-08-19T09:01:28.000Z</time>
      </trkpt>
      <trkpt lat="49.85149" lon="4.81673">
        <ele>388</ele>
        <time>2022-08-19T09:01:29.000Z</time>
      </trkpt>
      <trkpt lat="49.8515" lon="4.8168">
        <ele>388</ele>
        <time>2022-08-19T09:01:30.000Z</time>
      </trkpt>
      <trkpt lat="49.85152" lon="4.81686">
        <ele>388</ele>
        <time>2022-08-19T09:01:31.000Z</time>
      </trkpt>
      <trkpt lat="49.85153" lon="4.81692">
        <ele>388</ele>
        <time>2022-08-19T09:01:32.000Z</time>
      </trkpt>
      <trkpt lat="49.85154" lon="4.81697">
        <ele>388</ele>
        <time>2022-08-19T09:01:33.000Z</time>
      </trkpt>
      <trkpt lat="49.85155" lon="4.81702">
        <ele>388</ele>
        <time>2022-08-19T09:01:34.000Z</time>
      </trkpt>
      <trkpt lat="49.85157" lon="4.81708">
        <ele>388</ele>
        <time>2022-08-19T09:01:35.000Z</time>
      </trkpt>
      <trkpt lat="49.85158" lon="4.81713">
        <ele>388</ele>
        <time>2022-08-19T09:01:36.000Z</time>
      </trkpt>
      <trkpt lat="49.8516" lon="4.81719">
        <ele>388</ele>
        <time>2022-08-19T09:01:37.000Z</time>
      </trkpt>
      <trkpt lat="49.85162" lon="4.81726">
        <ele>388</ele>
        <time>2022-08-19T09:01:38.000Z</time>
      </trkpt>
      <trkpt lat="49.85164" lon="4.81732">
        <ele>388</ele>
        <time>2022-08-19T09:01:39.000Z</time>
      </trkpt>
      <trkpt lat="49.85165" lon="4.8174">
        <ele>388</ele>
        <time>2022-08-19T09:01:40.000Z</time>
      </trkpt>
      <trkpt lat="49.85167" lon="4.81748">
        <ele>388</ele>
        <time>2022-08-19T09:01:41.000Z</time>
      </trkpt>
      <trkpt lat="49.85168" lon="4.81756">
        <ele>388</ele>
        <time>2022-08-19T09:01:42.000Z</time>
      </trkpt>
      <trkpt lat="49.85169" lon="4.81764">
        <ele>388</ele>
        <time>2022-08-19T09:01:43.000Z</time>
      </trkpt>
      <trkpt lat="49.85171" lon="4.81772">
        <ele>388</ele>
        <time>2022-08-19T09:01:44.000Z</time>
      </trkpt>
      <trkpt lat="49.85173" lon="4.8178">
        <ele>388</ele>
        <time>2022-08-19T09:01:45.000Z</time>
      </trkpt>
      <trkpt lat="49.85175" lon="4.81788">
        <ele>388</ele>
        <time>2022-08-19T09:01:46.000Z</time>
      </trkpt>
      <trkpt lat="49.85176" lon="4.81797">
        <ele>388</ele>
        <time>2022-08-19T09:01:47.000Z</time>
      </trkpt>
      <trkpt lat="49.85178" lon="4.81805">
        <ele>388</ele>
        <time>2022-08-19T09:01:48.000Z</time>
      </trkpt>
      <trkpt lat="49.8518" lon="4.81815">
        <ele>388</ele>
        <time>2022-08-19T09:01:49.000Z</time>
      </trkpt>
      <trkpt lat="49.85181" lon="4.81825">
        <ele>388</ele>
        <time>2022-08-19T09:01:50.000Z</time>
      </trkpt>
      <trkpt lat="49.85183" lon="4.81834">
        <ele>388</ele>
        <time>2022-08-19T09:01:51.000Z</time>
      </trkpt>
      <trkpt lat="49.85184" lon="4.81843">
        <ele>388</ele>
        <time>2022-08-19T09:01:52.000Z</time>
      </trkpt>
      <trkpt lat="49.85185" lon="4.81851">
        <ele>388</ele>
        <time>2022-08-19T09:01:53.000Z</time>
      </trkpt>
      <trkpt lat="49.85186" lon="4.8186">
        <ele>388</ele>
        <time>2022-08-19T09:01:54.000Z</time>
      </trkpt>
      <trkpt lat="49.85186" lon="4.81868">
        <ele>388</ele>
        <time>2022-08-19T09:01:55.000Z</time>
      </trkpt>
      <trkpt lat="49.85188" lon="4.81877">
        <ele>387</ele>
        <time>2022-08-19T09:01:56.000Z</time>
      </trkpt>
      <trkpt lat="49.85189" lon="4.81886">
        <ele>387</ele>
        <time>2022-08-19T09:01:57.000Z</time>
      </trkpt>
      <trkpt lat="49.85189" lon="4.81894">
        <ele>387</ele>
        <time>2022-08-19T09:01:58.000Z</time>
      </trkpt>
      <trkpt lat="49.8519" lon="4.81904">
        <ele>387</ele>
        <time>2022-08-19T09:01:59.000Z</time>
      </trkpt>
      <trkpt lat="49.8519" lon="4.81914">
        <ele>387</ele>
        <time>2022-08-19T09:02:00.000Z</time>
      </trkpt>
      <trkpt lat="49.85189" lon="4.81924">
        <ele>387</ele>
        <time>2022-08-19T09:02:01.000Z</time>
      </trkpt>
      <trkpt lat="49.85189" lon="4.81935">
        <ele>387</ele>
        <time>2022-08-19T09:02:02.000Z</time>
      </trkpt>
      <trkpt lat="49.85188" lon="4.81946">
        <ele>387</ele>
        <time>2022-08-19T09:02:03.000Z</time>
      </trkpt>
      <trkpt lat="49.85188" lon="4.81957">
        <ele>387</ele>
        <time>2022-08-19T09:02:04.000Z</time>
      </trkpt>
      <trkpt lat="49.85188" lon="4.81968">
        <ele>387</ele>
        <time>2022-08-19T09:02:05.000Z</time>
      </trkpt>
      <trkpt lat="49.85189" lon="4.81978">
        <ele>387</ele>
        <time>2022-08-19T09:02:06.000Z</time>
      </trkpt>
      <trkpt lat="49.8519" lon="4.81989">
        <ele>387</ele>
        <time>2022-08-19T09:02:07.000Z</time>
      </trkpt>
      <trkpt lat="49.8519" lon="4.82">
        <ele>386</ele>
        <time>2022-08-19T09:02:08.000Z</time>
      </trkpt>
      <trkpt lat="49.85191" lon="4.8201">
        <ele>386</ele>
        <time>2022-08-19T09:02:09.000Z</time>
      </trkpt>
      <trkpt lat="49.85191" lon="4.82022">
        <ele>385</ele>
        <time>2022-08-19T09:02:10.000Z</time>
      </trkpt>
      <trkpt lat="49.85193" lon="4.82034">
        <ele>385</ele>
        <time>2022-08-19T09:02:11.000Z</time>
      </trkpt>
      <trkpt lat="49.85194" lon="4.82046">
        <ele>384</ele>
        <time>2022-08-19T09:02:12.000Z</time>
      </trkpt>
      <trkpt lat="49.85195" lon="4.82059">
        <ele>384</ele>
        <time>2022-08-19T09:02:13.000Z</time>
      </trkpt>
      <trkpt lat="49.85198" lon="4.82071">
        <ele>383</ele>
        <time>2022-08-19T09:02:14.000Z</time>
      </trkpt>
      <trkpt lat="49.85199" lon="4.82083">
        <ele>383</ele>
        <time>2022-08-19T09:02:15.000Z</time>
      </trkpt>
      <trkpt lat="49.85201" lon="4.82095">
        <ele>382</ele>
        <time>2022-08-19T09:02:16.000Z</time>
      </trkpt>
      <trkpt lat="49.85202" lon="4.82106">
        <ele>382</ele>
        <time>2022-08-19T09:02:17.000Z</time>
      </trkpt>
      <trkpt lat="49.85203" lon="4.82117">
        <ele>381</ele>
        <time>2022-08-19T09:02:18.000Z</time>
      </trkpt>
      <trkpt lat="49.85204" lon="4.82129">
        <ele>380</ele>
        <time>2022-08-19T09:02:19.000Z</time>
      </trkpt>
      <trkpt lat="49.85205" lon="4.8214">
        <ele>380</ele>
        <time>2022-08-19T09:02:20.000Z</time>
      </trkpt>
      <trkpt lat="49.85206" lon="4.82152">
        <ele>379</ele>
        <time>2022-08-19T09:02:21.000Z</time>
      </trkpt>
      <trkpt lat="49.85208" lon="4.82164">
        <ele>379</ele>
        <time>2022-08-19T09:02:22.000Z</time>
      </trkpt>
      <trkpt lat="49.85209" lon="4.82175">
        <ele>378</ele>
        <time>2022-08-19T09:02:23.000Z</time>
      </trkpt>
      <trkpt lat="49.85211" lon="4.82186">
        <ele>378</ele>
        <time>2022-08-19T09:02:24.000Z</time>
      </trkpt>
      <trkpt lat="49.85212" lon="4.82196">
        <ele>377</ele>
        <time>2022-08-19T09:02:25.000Z</time>
      </trkpt>
      <trkpt lat="49.85213" lon="4.82207">
        <ele>376</ele>
        <time>2022-08-19T09:02:26.000Z</time>
      </trkpt>
      <trkpt lat="49.85215" lon="4.82219">
        <ele>376</ele>
        <time>2022-08-19T09:02:27.000Z</time>
      </trkpt>
      <trkpt lat="49.85216" lon="4.82232">
        <ele>375</ele>
        <time>2022-08-19T09:02:28.000Z</time>
      </trkpt>
      <trkpt lat="49.85216" lon="4.82244">
        <ele>375</ele>
        <time>2022-08-19T09:02:29.000Z</time>
      </trkpt>
      <trkpt lat="49.85217" lon="4.82255">
        <ele>374</ele>
        <time>2022-08-19T09:02:30.000Z</time>
      </trkpt>
      <trkpt lat="49.85218" lon="4.82265">
        <ele>374</ele>
        <time>2022-08-19T09:02:31.000Z</time>
      </trkpt>
      <trkpt lat="49.8522" lon="4.82275">
        <ele>373</ele>
        <time>2022-08-19T09:02:32.000Z</time>
      </trkpt>
      <trkpt lat="49.85222" lon="4.82285">
        <ele>372</ele>
        <time>2022-08-19T09:02:33.000Z</time>
      </trkpt>
      <trkpt lat="49.85223" lon="4.82295">
        <ele>372</ele>
        <time>2022-08-19T09:02:34.000Z</time>
      </trkpt>
      <trkpt lat="49.85224" lon="4.82306">
        <ele>371</ele>
        <time>2022-08-19T09:02:35.000Z</time>
      </trkpt>
      <trkpt lat="49.85226" lon="4.82318">
        <ele>371</ele>
        <time>2022-08-19T09:02:36.000Z</time>
      </trkpt>
      <trkpt lat="49.85227" lon="4.8233">
        <ele>370</ele>
        <time>2022-08-19T09:02:37.000Z</time>
      </trkpt>
      <trkpt lat="49.85229" lon="4.82343">
        <ele>369</ele>
        <time>2022-08-19T09:02:38.000Z</time>
      </trkpt>
      <trkpt lat="49.8523" lon="4.82356">
        <ele>369</ele>
        <time>2022-08-19T09:02:39.000Z</time>
      </trkpt>
      <trkpt lat="49.8523" lon="4.82367">
        <ele>368</ele>
        <time>2022-08-19T09:02:40.000Z</time>
      </trkpt>
      <trkpt lat="49.8523" lon="4.82379">
        <ele>367</ele>
        <time>2022-08-19T09:02:41.000Z</time>
      </trkpt>
      <trkpt lat="49.8523" lon="4.8239">
        <ele>367</ele>
        <time>2022-08-19T09:02:42.000Z</time>
      </trkpt>
      <trkpt lat="49.8523" lon="4.824">
        <ele>366</ele>
        <time>2022-08-19T09:02:43.000Z</time>
      </trkpt>
      <trkpt lat="49.85228" lon="4.82408">
        <ele>365</ele>
        <time>2022-08-19T09:02:44.000Z</time>
      </trkpt>
      <trkpt lat="49.85226" lon="4.82415">
        <ele>365</ele>
        <time>2022-08-19T09:02:45.000Z</time>
      </trkpt>
      <trkpt lat="49.85224" lon="4.82422">
        <ele>364</ele>
        <time>2022-08-19T09:02:46.000Z</time>
      </trkpt>
      <trkpt lat="49.85223" lon="4.82429">
        <ele>364</ele>
        <time>2022-08-19T09:02:47.000Z</time>
      </trkpt>
      <trkpt lat="49.85221" lon="4.82435">
        <ele>363</ele>
        <time>2022-08-19T09:02:48.000Z</time>
      </trkpt>
      <trkpt lat="49.85221" lon="4.82441">
        <ele>363</ele>
        <time>2022-08-19T09:02:49.000Z</time>
      </trkpt>
      <trkpt lat="49.8522" lon="4.82447">
        <ele>362</ele>
        <time>2022-08-19T09:02:50.000Z</time>
      </trkpt>
      <trkpt lat="49.85219" lon="4.82452">
        <ele>362</ele>
        <time>2022-08-19T09:02:51.000Z</time>
      </trkpt>
      <trkpt lat="49.85217" lon="4.82458">
        <ele>362</ele>
        <time>2022-08-19T09:02:52.000Z</time>
      </trkpt>
      <trkpt lat="49.85215" lon="4.82462">
        <ele>361</ele>
        <time>2022-08-19T09:02:53.000Z</time>
      </trkpt>
      <trkpt lat="49.85214" lon="4.82466">
        <ele>361</ele>
        <time>2022-08-19T09:02:54.000Z</time>
      </trkpt>
      <trkpt lat="49.85213" lon="4.8247">
        <ele>361</ele>
        <time>2022-08-19T09:02:55.000Z</time>
      </trkpt>
      <trkpt lat="49.85212" lon="4.82474">
        <ele>360</ele>
        <time>2022-08-19T09:02:56.000Z</time>
      </trkpt>
      <trkpt lat="49.85211" lon="4.82478">
        <ele>360</ele>
        <time>2022-08-19T09:02:57.000Z</time>
      </trkpt>
      <trkpt lat="49.85209" lon="4.82482">
        <ele>360</ele>
        <time>2022-08-19T09:02:58.000Z</time>
      </trkpt>
      <trkpt lat="49.85208" lon="4.82486">
        <ele>360</ele>
        <time>2022-08-19T09:02:59.000Z</time>
      </trkpt>
      <trkpt lat="49.85207" lon="4.82489">
        <ele>360</ele>
        <time>2022-08-19T09:03:00.000Z</time>
      </trkpt>
      <trkpt lat="49.85206" lon="4.82492">
        <ele>360</ele>
        <time>2022-08-19T09:03:01.000Z</time>
      </trkpt>
      <trkpt lat="49.85205" lon="4.82495">
        <ele>360</ele>
        <time>2022-08-19T09:03:02.000Z</time>
      </trkpt>
      <trkpt lat="49.85204" lon="4.82497">
        <ele>360</ele>
        <time>2022-08-19T09:03:03.000Z</time>
      </trkpt>
      <trkpt lat="49.85204" lon="4.82499">
        <ele>360</ele>
        <time>2022-08-19T09:03:04.000Z</time>
      </trkpt>
      <trkpt lat="49.85203" lon="4.82501">
        <ele>360</ele>
        <time>2022-08-19T09:03:05.000Z</time>
      </trkpt>
      <trkpt lat="49.85202" lon="4.82503">
        <ele>360</ele>
        <time>2022-08-19T09:03:06.000Z</time>
      </trkpt>
      <trkpt lat="49.85201" lon="4.82505">
        <ele>360</ele>
        <time>2022-08-19T09:03:07.000Z</time>
      </trkpt>
      <trkpt lat="49.852" lon="4.82507">
        <ele>361</ele>
        <time>2022-08-19T09:03:08.000Z</time>
      </trkpt>
      <trkpt lat="49.85198" lon="4.82509">
        <ele>361</ele>
        <time>2022-08-19T09:03:09.000Z</time>
      </trkpt>
      <trkpt lat="49.85198" lon="4.82511">
        <ele>361</ele>
        <time>2022-08-19T09:03:10.000Z</time>
      </trkpt>
      <trkpt lat="49.85197" lon="4.82513">
        <ele>361</ele>
        <time>2022-08-19T09:03:11.000Z</time>
      </trkpt>
      <trkpt lat="49.85196" lon="4.82515">
        <ele>362</ele>
        <time>2022-08-19T09:03:12.000Z</time>
      </trkpt>
      <trkpt lat="49.85195" lon="4.82517">
        <ele>362</ele>
        <time>2022-08-19T09:03:13.000Z</time>
      </trkpt>
      <trkpt lat="49.85194" lon="4.82519">
        <ele>362</ele>
        <time>2022-08-19T09:03:14.000Z</time>
      </trkpt>
      <trkpt lat="49.85193" lon="4.82521">
        <ele>362</ele>
        <time>2022-08-19T09:03:15.000Z</time>
      </trkpt>
      <trkpt lat="49.85192" lon="4.82523">
        <ele>363</ele>
        <time>2022-08-19T09:03:16.000Z</time>
      </trkpt>
      <trkpt lat="49.85191" lon="4.82525">
        <ele>363</ele>
        <time>2022-08-19T09:03:17.000Z</time>
      </trkpt>
      <trkpt lat="49.8519" lon="4.82528">
        <ele>363</ele>
        <time>2022-08-19T09:03:18.000Z</time>
      </trkpt>
      <trkpt lat="49.8519" lon="4.8253">
        <ele>364</ele>
        <time>2022-08-19T09:03:19.000Z</time>
      </trkpt>
      <trkpt lat="49.85189" lon="4.82532">
        <ele>364</ele>
        <time>2022-08-19T09:03:20.000Z</time>
      </trkpt>
      <trkpt lat="49.85189" lon="4.82533">
        <ele>364</ele>
        <time>2022-08-19T09:03:21.000Z</time>
      </trkpt>
      <trkpt lat="49.85188" lon="4.82535">
        <ele>364</ele>
        <time>2022-08-19T09:03:22.000Z</time>
      </trkpt>
      <trkpt lat="49.85187" lon="4.82537">
        <ele>364</ele>
        <time>2022-08-19T09:03:23.000Z</time>
      </trkpt>
      <trkpt lat="49.85186" lon="4.82539">
        <ele>365</ele>
        <time>2022-08-19T09:03:24.000Z</time>
      </trkpt>
      <trkpt lat="49.85186" lon="4.8254">
        <ele>365</ele>
        <time>2022-08-19T09:03:25.000Z</time>
      </trkpt>
      <trkpt lat="49.85184" lon="4.82542">
        <ele>365</ele>
        <time>2022-08-19T09:03:26.000Z</time>
      </trkpt>
      <trkpt lat="49.85183" lon="4.82544">
        <ele>365</ele>
        <time>2022-08-19T09:03:27.000Z</time>
      </trkpt>
      <trkpt lat="49.85182" lon="4.82546">
        <ele>366</ele>
        <time>2022-08-19T09:03:28.000Z</time>
      </trkpt>
      <trkpt lat="49.85181" lon="4.82549">
        <ele>366</ele>
        <time>2022-08-19T09:03:29.000Z</time>
      </trkpt>
      <trkpt lat="49.8518" lon="4.82551">
        <ele>366</ele>
        <time>2022-08-19T09:03:30.000Z</time>
      </trkpt>
      <trkpt lat="49.85179" lon="4.82553">
        <ele>367</ele>
        <time>2022-08-19T09:03:31.000Z</time>
      </trkpt>
      <trkpt lat="49.85178" lon="4.82555">
        <ele>367</ele>
        <time>2022-08-19T09:03:32.000Z</time>
      </trkpt>
      <trkpt lat="49.85177" lon="4.82557">
        <ele>367</ele>
        <time>2022-08-19T09:03:33.000Z</time>
      </trkpt>
      <trkpt lat="49.85176" lon="4.82559">
        <ele>367</ele>
        <time>2022-08-19T09:03:34.000Z</time>
      </trkpt>
      <trkpt lat="49.85174" lon="4.82561">
        <ele>367</ele>
        <time>2022-08-19T09:03:35.000Z</time>
      </trkpt>
      <trkpt lat="49.85173" lon="4.82563">
        <ele>368</ele>
        <time>2022-08-19T09:03:36.000Z</time>
      </trkpt>
      <trkpt lat="49.85171" lon="4.82564">
        <ele>368</ele>
        <time>2022-08-19T09:03:37.000Z</time>
      </trkpt>
      <trkpt lat="49.8517" lon="4.82566">
        <ele>368</ele>
        <time>2022-08-19T09:03:38.000Z</time>
      </trkpt>
      <trkpt lat="49.85169" lon="4.82568">
        <ele>368</ele>
        <time>2022-08-19T09:03:39.000Z</time>
      </trkpt>
      <trkpt lat="49.85167" lon="4.8257">
        <ele>369</ele>
        <time>2022-08-19T09:03:40.000Z</time>
      </trkpt>
      <trkpt lat="49.85166" lon="4.82572">
        <ele>369</ele>
        <time>2022-08-19T09:03:41.000Z</time>
      </trkpt>
      <trkpt lat="49.85164" lon="4.82575">
        <ele>369</ele>
        <time>2022-08-19T09:03:42.000Z</time>
      </trkpt>
      <trkpt lat="49.85162" lon="4.82577">
        <ele>369</ele>
        <time>2022-08-19T09:03:43.000Z</time>
      </trkpt>
      <trkpt lat="49.85161" lon="4.82579">
        <ele>369</ele>
        <time>2022-08-19T09:03:44.000Z</time>
      </trkpt>
      <trkpt lat="49.8516" lon="4.82581">
        <ele>369</ele>
        <time>2022-08-19T09:03:45.000Z</time>
      </trkpt>
      <trkpt lat="49.85158" lon="4.82583">
        <ele>370</ele>
        <time>2022-08-19T09:03:46.000Z</time>
      </trkpt>
      <trkpt lat="49.85157" lon="4.82585">
        <ele>370</ele>
        <time>2022-08-19T09:03:47.000Z</time>
      </trkpt>
      <trkpt lat="49.85155" lon="4.82588">
        <ele>370</ele>
        <time>2022-08-19T09:03:48.000Z</time>
      </trkpt>
      <trkpt lat="49.85154" lon="4.8259">
        <ele>370</ele>
        <time>2022-08-19T09:03:49.000Z</time>
      </trkpt>
      <trkpt lat="49.85154" lon="4.82592">
        <ele>370</ele>
        <time>2022-08-19T09:03:50.000Z</time>
      </trkpt>
      <trkpt lat="49.85153" lon="4.82595">
        <ele>370</ele>
        <time>2022-08-19T09:03:51.000Z</time>
      </trkpt>
      <trkpt lat="49.85152" lon="4.82597">
        <ele>370</ele>
        <time>2022-08-19T09:03:52.000Z</time>
      </trkpt>
      <trkpt lat="49.85151" lon="4.82599">
        <ele>371</ele>
        <time>2022-08-19T09:03:53.000Z</time>
      </trkpt>
      <trkpt lat="49.8515" lon="4.82601">
        <ele>371</ele>
        <time>2022-08-19T09:03:54.000Z</time>
      </trkpt>
      <trkpt lat="49.85148" lon="4.82603">
        <ele>371</ele>
        <time>2022-08-19T09:03:55.000Z</time>
      </trkpt>
      <trkpt lat="49.85147" lon="4.82606">
        <ele>371</ele>
        <time>2022-08-19T09:03:56.000Z</time>
      </trkpt>
      <trkpt lat="49.85145" lon="4.82609">
        <ele>371</ele>
        <time>2022-08-19T09:03:57.000Z</time>
      </trkpt>
      <trkpt lat="49.85143" lon="4.82612">
        <ele>371</ele>
        <time>2022-08-19T09:03:58.000Z</time>
      </trkpt>
      <trkpt lat="49.85142" lon="4.82615">
        <ele>371</ele>
        <time>2022-08-19T09:03:59.000Z</time>
      </trkpt>
      <trkpt lat="49.8514" lon="4.82618">
        <ele>371</ele>
        <time>2022-08-19T09:04:00.000Z</time>
      </trkpt>
      <trkpt lat="49.85138" lon="4.82621">
        <ele>371</ele>
        <time>2022-08-19T09:04:01.000Z</time>
      </trkpt>
      <trkpt lat="49.85137" lon="4.82624">
        <ele>371</ele>
        <time>2022-08-19T09:04:02.000Z</time>
      </trkpt>
      <trkpt lat="49.85135" lon="4.82626">
        <ele>372</ele>
        <time>2022-08-19T09:04:03.000Z</time>
      </trkpt>
      <trkpt lat="49.85134" lon="4.82629">
        <ele>372</ele>
        <time>2022-08-19T09:04:04.000Z</time>
      </trkpt>
      <trkpt lat="49.85132" lon="4.82632">
        <ele>372</ele>
        <time>2022-08-19T09:04:05.000Z</time>
      </trkpt>
      <trkpt lat="49.8513" lon="4.82635">
        <ele>372</ele>
        <time>2022-08-19T09:04:06.000Z</time>
      </trkpt>
      <trkpt lat="49.85129" lon="4.82638">
        <ele>372</ele>
        <time>2022-08-19T09:04:07.000Z</time>
      </trkpt>
      <trkpt lat="49.85128" lon="4.82642">
        <ele>372</ele>
        <time>2022-08-19T09:04:08.000Z</time>
      </trkpt>
      <trkpt lat="49.85126" lon="4.82645">
        <ele>373</ele>
        <time>2022-08-19T09:04:09.000Z</time>
      </trkpt>
      <trkpt lat="49.85125" lon="4.8265">
        <ele>373</ele>
        <time>2022-08-19T09:04:10.000Z</time>
      </trkpt>
      <trkpt lat="49.85124" lon="4.82653">
        <ele>373</ele>
        <time>2022-08-19T09:04:11.000Z</time>
      </trkpt>
      <trkpt lat="49.85122" lon="4.82657">
        <ele>373</ele>
        <time>2022-08-19T09:04:12.000Z</time>
      </trkpt>
      <trkpt lat="49.85121" lon="4.8266">
        <ele>373</ele>
        <time>2022-08-19T09:04:13.000Z</time>
      </trkpt>
      <trkpt lat="49.85119" lon="4.82663">
        <ele>373</ele>
        <time>2022-08-19T09:04:14.000Z</time>
      </trkpt>
      <trkpt lat="49.85118" lon="4.82666">
        <ele>374</ele>
        <time>2022-08-19T09:04:15.000Z</time>
      </trkpt>
      <trkpt lat="49.85116" lon="4.82669">
        <ele>374</ele>
        <time>2022-08-19T09:04:16.000Z</time>
      </trkpt>
      <trkpt lat="49.85114" lon="4.82672">
        <ele>374</ele>
        <time>2022-08-19T09:04:17.000Z</time>
      </trkpt>
      <trkpt lat="49.85112" lon="4.82674">
        <ele>374</ele>
        <time>2022-08-19T09:04:18.000Z</time>
      </trkpt>
      <trkpt lat="49.8511" lon="4.82676">
        <ele>374</ele>
        <time>2022-08-19T09:04:19.000Z</time>
      </trkpt>
      <trkpt lat="49.85108" lon="4.82679">
        <ele>375</ele>
        <time>2022-08-19T09:04:20.000Z</time>
      </trkpt>
      <trkpt lat="49.85106" lon="4.82681">
        <ele>375</ele>
        <time>2022-08-19T09:04:21.000Z</time>
      </trkpt>
      <trkpt lat="49.85104" lon="4.82684">
        <ele>375</ele>
        <time>2022-08-19T09:04:22.000Z</time>
      </trkpt>
      <trkpt lat="49.85102" lon="4.82688">
        <ele>375</ele>
        <time>2022-08-19T09:04:23.000Z</time>
      </trkpt>
      <trkpt lat="49.85101" lon="4.82693">
        <ele>375</ele>
        <time>2022-08-19T09:04:24.000Z</time>
      </trkpt>
      <trkpt lat="49.851" lon="4.82698">
        <ele>375</ele>
        <time>2022-08-19T09:04:25.000Z</time>
      </trkpt>
      <trkpt lat="49.851" lon="4.82703">
        <ele>375</ele>
        <time>2022-08-19T09:04:26.000Z</time>
      </trkpt>
      <trkpt lat="49.851" lon="4.82708">
        <ele>375</ele>
        <time>2022-08-19T09:04:27.000Z</time>
      </trkpt>
      <trkpt lat="49.851" lon="4.82714">
        <ele>375</ele>
        <time>2022-08-19T09:04:28.000Z</time>
      </trkpt>
      <trkpt lat="49.851" lon="4.82719">
        <ele>376</ele>
        <time>2022-08-19T09:04:29.000Z</time>
      </trkpt>
      <trkpt lat="49.85099" lon="4.82724">
        <ele>376</ele>
        <time>2022-08-19T09:04:30.000Z</time>
      </trkpt>
      <trkpt lat="49.85097" lon="4.82729">
        <ele>376</ele>
        <time>2022-08-19T09:04:31.000Z</time>
      </trkpt>
      <trkpt lat="49.85095" lon="4.82734">
        <ele>376</ele>
        <time>2022-08-19T09:04:32.000Z</time>
      </trkpt>
      <trkpt lat="49.85091" lon="4.82737">
        <ele>376</ele>
        <time>2022-08-19T09:04:33.000Z</time>
      </trkpt>
      <trkpt lat="49.85088" lon="4.82739">
        <ele>376</ele>
        <time>2022-08-19T09:04:34.000Z</time>
      </trkpt>
      <trkpt lat="49.85083" lon="4.82742">
        <ele>376</ele>
        <time>2022-08-19T09:04:35.000Z</time>
      </trkpt>
      <trkpt lat="49.8508" lon="4.82744">
        <ele>376</ele>
        <time>2022-08-19T09:04:36.000Z</time>
      </trkpt>
      <trkpt lat="49.85076" lon="4.82747">
        <ele>376</ele>
        <time>2022-08-19T09:04:37.000Z</time>
      </trkpt>
      <trkpt lat="49.85073" lon="4.8275">
        <ele>376</ele>
        <time>2022-08-19T09:04:38.000Z</time>
      </trkpt>
      <trkpt lat="49.8507" lon="4.82753">
        <ele>376</ele>
        <time>2022-08-19T09:04:39.000Z</time>
      </trkpt>
      <trkpt lat="49.85067" lon="4.82757">
        <ele>376</ele>
        <time>2022-08-19T09:04:40.000Z</time>
      </trkpt>
      <trkpt lat="49.85064" lon="4.82761">
        <ele>376</ele>
        <time>2022-08-19T09:04:41.000Z</time>
      </trkpt>
      <trkpt lat="49.85062" lon="4.82764">
        <ele>376</ele>
        <time>2022-08-19T09:04:42.000Z</time>
      </trkpt>
      <trkpt lat="49.85059" lon="4.82769">
        <ele>376</ele>
        <time>2022-08-19T09:04:43.000Z</time>
      </trkpt>
      <trkpt lat="49.85057" lon="4.82773">
        <ele>376</ele>
        <time>2022-08-19T09:04:44.000Z</time>
      </trkpt>
      <trkpt lat="49.85054" lon="4.82778">
        <ele>376</ele>
        <time>2022-08-19T09:04:45.000Z</time>
      </trkpt>
      <trkpt lat="49.85051" lon="4.82781">
        <ele>377</ele>
        <time>2022-08-19T09:04:46.000Z</time>
      </trkpt>
      <trkpt lat="49.85049" lon="4.82784">
        <ele>377</ele>
        <time>2022-08-19T09:04:47.000Z</time>
      </trkpt>
      <trkpt lat="49.85048" lon="4.82786">
        <ele>377</ele>
        <time>2022-08-19T09:04:48.000Z</time>
      </trkpt>
      <trkpt lat="49.85047" lon="4.82788">
        <ele>377</ele>
        <time>2022-08-19T09:04:49.000Z</time>
      </trkpt>
      <trkpt lat="49.85046" lon="4.82792">
        <ele>377</ele>
        <time>2022-08-19T09:04:50.000Z</time>
      </trkpt>
      <trkpt lat="49.85044" lon="4.82795">
        <ele>377</ele>
        <time>2022-08-19T09:04:51.000Z</time>
      </trkpt>
      <trkpt lat="49.85042" lon="4.82798">
        <ele>377</ele>
        <time>2022-08-19T09:04:52.000Z</time>
      </trkpt>
      <trkpt lat="49.85041" lon="4.828">
        <ele>377</ele>
        <time>2022-08-19T09:04:53.000Z</time>
      </trkpt>
      <trkpt lat="49.8504" lon="4.82802">
        <ele>378</ele>
        <time>2022-08-19T09:04:54.000Z</time>
      </trkpt>
      <trkpt lat="49.85039" lon="4.82804">
        <ele>378</ele>
        <time>2022-08-19T09:04:55.000Z</time>
      </trkpt>
      <trkpt lat="49.85038" lon="4.82805">
        <ele>378</ele>
        <time>2022-08-19T09:04:56.000Z</time>
      </trkpt>
      <trkpt lat="49.85037" lon="4.82806">
        <ele>379</ele>
        <time>2022-08-19T09:04:57.000Z</time>
      </trkpt>
      <trkpt lat="49.85037" lon="4.82807">
        <ele>379</ele>
        <time>2022-08-19T09:04:58.000Z</time>
      </trkpt>
      <trkpt lat="49.85036" lon="4.82808">
        <ele>379</ele>
        <time>2022-08-19T09:04:59.000Z</time>
      </trkpt>
      <trkpt lat="49.85035" lon="4.82808">
        <ele>379</ele>
        <time>2022-08-19T09:05:00.000Z</time>
      </trkpt>
      <trkpt lat="49.85033" lon="4.82809">
        <ele>379</ele>
        <time>2022-08-19T09:05:01.000Z</time>
      </trkpt>
      <trkpt lat="49.85032" lon="4.82811">
        <ele>379</ele>
        <time>2022-08-19T09:05:02.000Z</time>
      </trkpt>
      <trkpt lat="49.8503" lon="4.82813">
        <ele>379</ele>
        <time>2022-08-19T09:05:03.000Z</time>
      </trkpt>
      <trkpt lat="49.85027" lon="4.82814">
        <ele>379</ele>
        <time>2022-08-19T09:05:04.000Z</time>
      </trkpt>
      <trkpt lat="49.85025" lon="4.82816">
        <ele>379</ele>
        <time>2022-08-19T09:05:05.000Z</time>
      </trkpt>
      <trkpt lat="49.85023" lon="4.82819">
        <ele>379</ele>
        <time>2022-08-19T09:05:06.000Z</time>
      </trkpt>
      <trkpt lat="49.8502" lon="4.82823">
        <ele>379</ele>
        <time>2022-08-19T09:05:07.000Z</time>
      </trkpt>
      <trkpt lat="49.85018" lon="4.82826">
        <ele>379</ele>
        <time>2022-08-19T09:05:08.000Z</time>
      </trkpt>
      <trkpt lat="49.85015" lon="4.8283">
        <ele>379</ele>
        <time>2022-08-19T09:05:09.000Z</time>
      </trkpt>
      <trkpt lat="49.85012" lon="4.82835">
        <ele>379</ele>
        <time>2022-08-19T09:05:10.000Z</time>
      </trkpt>
      <trkpt lat="49.85008" lon="4.8284">
        <ele>379</ele>
        <time>2022-08-19T09:05:11.000Z</time>
      </trkpt>
      <trkpt lat="49.85004" lon="4.82845">
        <ele>379</ele>
        <time>2022-08-19T09:05:12.000Z</time>
      </trkpt>
      <trkpt lat="49.85001" lon="4.82852">
        <ele>379</ele>
        <time>2022-08-19T09:05:13.000Z</time>
      </trkpt>
      <trkpt lat="49.84996" lon="4.82858">
        <ele>379</ele>
        <time>2022-08-19T09:05:14.000Z</time>
      </trkpt>
      <trkpt lat="49.84992" lon="4.82865">
        <ele>379</ele>
        <time>2022-08-19T09:05:15.000Z</time>
      </trkpt>
      <trkpt lat="49.84987" lon="4.82872">
        <ele>379</ele>
        <time>2022-08-19T09:05:16.000Z</time>
      </trkpt>
      <trkpt lat="49.84982" lon="4.82877">
        <ele>379</ele>
        <time>2022-08-19T09:05:17.000Z</time>
      </trkpt>
      <trkpt lat="49.84976" lon="4.82881">
        <ele>379</ele>
        <time>2022-08-19T09:05:18.000Z</time>
      </trkpt>
      <trkpt lat="49.84972" lon="4.82884">
        <ele>379</ele>
        <time>2022-08-19T09:05:19.000Z</time>
      </trkpt>
      <trkpt lat="49.84968" lon="4.82887">
        <ele>379</ele>
        <time>2022-08-19T09:05:20.000Z</time>
      </trkpt>
      <trkpt lat="49.84966" lon="4.82889">
        <ele>379</ele>
        <time>2022-08-19T09:05:21.000Z</time>
      </trkpt>
      <trkpt lat="49.84964" lon="4.82892">
        <ele>379</ele>
        <time>2022-08-19T09:05:22.000Z</time>
      </trkpt>
      <trkpt lat="49.84963" lon="4.82895">
        <ele>379</ele>
        <time>2022-08-19T09:05:23.000Z</time>
      </trkpt>
      <trkpt lat="49.84962" lon="4.82899">
        <ele>378</ele>
        <time>2022-08-19T09:05:24.000Z</time>
      </trkpt>
      <trkpt lat="49.84961" lon="4.82904">
        <ele>378</ele>
        <time>2022-08-19T09:05:25.000Z</time>
      </trkpt>
      <trkpt lat="49.84962" lon="4.82908">
        <ele>378</ele>
        <time>2022-08-19T09:05:26.000Z</time>
      </trkpt>
      <trkpt lat="49.84963" lon="4.82911">
        <ele>378</ele>
        <time>2022-08-19T09:05:27.000Z</time>
      </trkpt>
      <trkpt lat="49.84964" lon="4.82914">
        <ele>378</ele>
        <time>2022-08-19T09:05:28.000Z</time>
      </trkpt>
      <trkpt lat="49.84964" lon="4.82918">
        <ele>378</ele>
        <time>2022-08-19T09:05:29.000Z</time>
      </trkpt>
      <trkpt lat="49.84964" lon="4.82922">
        <ele>377</ele>
        <time>2022-08-19T09:05:30.000Z</time>
      </trkpt>
      <trkpt lat="49.84962" lon="4.82927">
        <ele>377</ele>
        <time>2022-08-19T09:05:31.000Z</time>
      </trkpt>
      <trkpt lat="49.8496" lon="4.82931">
        <ele>377</ele>
        <time>2022-08-19T09:05:32.000Z</time>
      </trkpt>
      <trkpt lat="49.84958" lon="4.82935">
        <ele>377</ele>
        <time>2022-08-19T09:05:33.000Z</time>
      </trkpt>
      <trkpt lat="49.84955" lon="4.82938">
        <ele>376</ele>
        <time>2022-08-19T09:05:34.000Z</time>
      </trkpt>
      <trkpt lat="49.84953" lon="4.82943">
        <ele>376</ele>
        <time>2022-08-19T09:05:35.000Z</time>
      </trkpt>
      <trkpt lat="49.8495" lon="4.82949">
        <ele>376</ele>
        <time>2022-08-19T09:05:36.000Z</time>
      </trkpt>
      <trkpt lat="49.84947" lon="4.82955">
        <ele>375</ele>
        <time>2022-08-19T09:05:37.000Z</time>
      </trkpt>
      <trkpt lat="49.84944" lon="4.82962">
        <ele>375</ele>
        <time>2022-08-19T09:05:38.000Z</time>
      </trkpt>
      <trkpt lat="49.84941" lon="4.8297">
        <ele>375</ele>
        <time>2022-08-19T09:05:39.000Z</time>
      </trkpt>
      <trkpt lat="49.84937" lon="4.82977">
        <ele>375</ele>
        <time>2022-08-19T09:05:40.000Z</time>
      </trkpt>
      <trkpt lat="49.84933" lon="4.82985">
        <ele>375</ele>
        <time>2022-08-19T09:05:41.000Z</time>
      </trkpt>
      <trkpt lat="49.84929" lon="4.82993">
        <ele>374</ele>
        <time>2022-08-19T09:05:42.000Z</time>
      </trkpt>
      <trkpt lat="49.84925" lon="4.83001">
        <ele>374</ele>
        <time>2022-08-19T09:05:43.000Z</time>
      </trkpt>
      <trkpt lat="49.84921" lon="4.83009">
        <ele>374</ele>
        <time>2022-08-19T09:05:44.000Z</time>
      </trkpt>
      <trkpt lat="49.84916" lon="4.83015">
        <ele>374</ele>
        <time>2022-08-19T09:05:45.000Z</time>
      </trkpt>
      <trkpt lat="49.84911" lon="4.83022">
        <ele>374</ele>
        <time>2022-08-19T09:05:46.000Z</time>
      </trkpt>
      <trkpt lat="49.84906" lon="4.83029">
        <ele>373</ele>
        <time>2022-08-19T09:05:47.000Z</time>
      </trkpt>
      <trkpt lat="49.84902" lon="4.83035">
        <ele>373</ele>
        <time>2022-08-19T09:05:48.000Z</time>
      </trkpt>
      <trkpt lat="49.84898" lon="4.83041">
        <ele>373</ele>
        <time>2022-08-19T09:05:49.000Z</time>
      </trkpt>
      <trkpt lat="49.84893" lon="4.83047">
        <ele>373</ele>
        <time>2022-08-19T09:05:50.000Z</time>
      </trkpt>
      <trkpt lat="49.84888" lon="4.83054">
        <ele>372</ele>
        <time>2022-08-19T09:05:51.000Z</time>
      </trkpt>
      <trkpt lat="49.84883" lon="4.8306">
        <ele>372</ele>
        <time>2022-08-19T09:05:52.000Z</time>
      </trkpt>
      <trkpt lat="49.84879" lon="4.83067">
        <ele>372</ele>
        <time>2022-08-19T09:05:53.000Z</time>
      </trkpt>
      <trkpt lat="49.84875" lon="4.83073">
        <ele>372</ele>
        <time>2022-08-19T09:05:54.000Z</time>
      </trkpt>
      <trkpt lat="49.84871" lon="4.83078">
        <ele>372</ele>
        <time>2022-08-19T09:05:55.000Z</time>
      </trkpt>
      <trkpt lat="49.84867" lon="4.83083">
        <ele>371</ele>
        <time>2022-08-19T09:05:56.000Z</time>
      </trkpt>
      <trkpt lat="49.84864" lon="4.83088">
        <ele>371</ele>
        <time>2022-08-19T09:05:57.000Z</time>
      </trkpt>
      <trkpt lat="49.8486" lon="4.83093">
        <ele>371</ele>
        <time>2022-08-19T09:05:58.000Z</time>
      </trkpt>
      <trkpt lat="49.84856" lon="4.83098">
        <ele>371</ele>
        <time>2022-08-19T09:05:59.000Z</time>
      </trkpt>
      <trkpt lat="49.84853" lon="4.83104">
        <ele>371</ele>
        <time>2022-08-19T09:06:00.000Z</time>
      </trkpt>
      <trkpt lat="49.8485" lon="4.8311">
        <ele>370</ele>
        <time>2022-08-19T09:06:01.000Z</time>
      </trkpt>
      <trkpt lat="49.84846" lon="4.83114">
        <ele>370</ele>
        <time>2022-08-19T09:06:02.000Z</time>
      </trkpt>
      <trkpt lat="49.84843" lon="4.8312">
        <ele>370</ele>
        <time>2022-08-19T09:06:03.000Z</time>
      </trkpt>
      <trkpt lat="49.8484" lon="4.83126">
        <ele>370</ele>
        <time>2022-08-19T09:06:04.000Z</time>
      </trkpt>
      <trkpt lat="49.84837" lon="4.83132">
        <ele>369</ele>
        <time>2022-08-19T09:06:05.000Z</time>
      </trkpt>
      <trkpt lat="49.84833" lon="4.83138">
        <ele>369</ele>
        <time>2022-08-19T09:06:06.000Z</time>
      </trkpt>
      <trkpt lat="49.8483" lon="4.83143">
        <ele>369</ele>
        <time>2022-08-19T09:06:07.000Z</time>
      </trkpt>
      <trkpt lat="49.84826" lon="4.83149">
        <ele>369</ele>
        <time>2022-08-19T09:06:08.000Z</time>
      </trkpt>
      <trkpt lat="49.84822" lon="4.83153">
        <ele>369</ele>
        <time>2022-08-19T09:06:09.000Z</time>
      </trkpt>
      <trkpt lat="49.84818" lon="4.83159">
        <ele>369</ele>
        <time>2022-08-19T09:06:10.000Z</time>
      </trkpt>
      <trkpt lat="49.84815" lon="4.83165">
        <ele>369</ele>
        <time>2022-08-19T09:06:11.000Z</time>
      </trkpt>
      <trkpt lat="49.84811" lon="4.8317">
        <ele>369</ele>
        <time>2022-08-19T09:06:12.000Z</time>
      </trkpt>
      <trkpt lat="49.84808" lon="4.83175">
        <ele>369</ele>
        <time>2022-08-19T09:06:13.000Z</time>
      </trkpt>
      <trkpt lat="49.84805" lon="4.83181">
        <ele>368</ele>
        <time>2022-08-19T09:06:14.000Z</time>
      </trkpt>
      <trkpt lat="49.84802" lon="4.83186">
        <ele>368</ele>
        <time>2022-08-19T09:06:15.000Z</time>
      </trkpt>
      <trkpt lat="49.848" lon="4.83191">
        <ele>368</ele>
        <time>2022-08-19T09:06:16.000Z</time>
      </trkpt>
      <trkpt lat="49.84798" lon="4.83197">
        <ele>368</ele>
        <time>2022-08-19T09:06:17.000Z</time>
      </trkpt>
      <trkpt lat="49.84795" lon="4.83201">
        <ele>368</ele>
        <time>2022-08-19T09:06:18.000Z</time>
      </trkpt>
      <trkpt lat="49.84792" lon="4.83205">
        <ele>368</ele>
        <time>2022-08-19T09:06:19.000Z</time>
      </trkpt>
      <trkpt lat="49.84789" lon="4.83209">
        <ele>368</ele>
        <time>2022-08-19T09:06:20.000Z</time>
      </trkpt>
      <trkpt lat="49.84785" lon="4.83213">
        <ele>368</ele>
        <time>2022-08-19T09:06:21.000Z</time>
      </trkpt>
      <trkpt lat="49.84782" lon="4.83218">
        <ele>367</ele>
        <time>2022-08-19T09:06:22.000Z</time>
      </trkpt>
      <trkpt lat="49.8478" lon="4.83223">
        <ele>367</ele>
        <time>2022-08-19T09:06:23.000Z</time>
      </trkpt>
      <trkpt lat="49.84779" lon="4.83228">
        <ele>367</ele>
        <time>2022-08-19T09:06:24.000Z</time>
      </trkpt>
      <trkpt lat="49.84778" lon="4.83232">
        <ele>367</ele>
        <time>2022-08-19T09:06:25.000Z</time>
      </trkpt>
      <trkpt lat="49.84777" lon="4.83236">
        <ele>367</ele>
        <time>2022-08-19T09:06:26.000Z</time>
      </trkpt>
      <trkpt lat="49.84775" lon="4.8324">
        <ele>367</ele>
        <time>2022-08-19T09:06:27.000Z</time>
      </trkpt>
      <trkpt lat="49.84774" lon="4.83245">
        <ele>367</ele>
        <time>2022-08-19T09:06:28.000Z</time>
      </trkpt>
      <trkpt lat="49.84773" lon="4.8325">
        <ele>367</ele>
        <time>2022-08-19T09:06:29.000Z</time>
      </trkpt>
      <trkpt lat="49.84772" lon="4.83256">
        <ele>366</ele>
        <time>2022-08-19T09:06:30.000Z</time>
      </trkpt>
      <trkpt lat="49.84772" lon="4.83261">
        <ele>366</ele>
        <time>2022-08-19T09:06:31.000Z</time>
      </trkpt>
      <trkpt lat="49.84773" lon="4.83266">
        <ele>366</ele>
        <time>2022-08-19T09:06:32.000Z</time>
      </trkpt>
      <trkpt lat="49.84774" lon="4.83272">
        <ele>366</ele>
        <time>2022-08-19T09:06:33.000Z</time>
      </trkpt>
      <trkpt lat="49.84775" lon="4.83277">
        <ele>366</ele>
        <time>2022-08-19T09:06:34.000Z</time>
      </trkpt>
      <trkpt lat="49.84776" lon="4.83283">
        <ele>366</ele>
        <time>2022-08-19T09:06:35.000Z</time>
      </trkpt>
      <trkpt lat="49.84777" lon="4.83289">
        <ele>365</ele>
        <time>2022-08-19T09:06:36.000Z</time>
      </trkpt>
      <trkpt lat="49.84779" lon="4.83297">
        <ele>365</ele>
        <time>2022-08-19T09:06:37.000Z</time>
      </trkpt>
      <trkpt lat="49.84781" lon="4.83305">
        <ele>365</ele>
        <time>2022-08-19T09:06:38.000Z</time>
      </trkpt>
      <trkpt lat="49.84782" lon="4.83315">
        <ele>364</ele>
        <time>2022-08-19T09:06:39.000Z</time>
      </trkpt>
      <trkpt lat="49.84783" lon="4.83325">
        <ele>364</ele>
        <time>2022-08-19T09:06:40.000Z</time>
      </trkpt>
      <trkpt lat="49.84783" lon="4.83336">
        <ele>364</ele>
        <time>2022-08-19T09:06:41.000Z</time>
      </trkpt>
      <trkpt lat="49.84783" lon="4.83346">
        <ele>364</ele>
        <time>2022-08-19T09:06:42.000Z</time>
      </trkpt>
      <trkpt lat="49.84783" lon="4.83358">
        <ele>363</ele>
        <time>2022-08-19T09:06:43.000Z</time>
      </trkpt>
      <trkpt lat="49.84783" lon="4.8337">
        <ele>363</ele>
        <time>2022-08-19T09:06:44.000Z</time>
      </trkpt>
      <trkpt lat="49.84783" lon="4.83382">
        <ele>362</ele>
        <time>2022-08-19T09:06:45.000Z</time>
      </trkpt>
      <trkpt lat="49.84783" lon="4.83393">
        <ele>362</ele>
        <time>2022-08-19T09:06:46.000Z</time>
      </trkpt>
      <trkpt lat="49.84783" lon="4.83405">
        <ele>361</ele>
        <time>2022-08-19T09:06:47.000Z</time>
      </trkpt>
      <trkpt lat="49.84784" lon="4.83416">
        <ele>361</ele>
        <time>2022-08-19T09:06:48.000Z</time>
      </trkpt>
      <trkpt lat="49.84784" lon="4.83429">
        <ele>360</ele>
        <time>2022-08-19T09:06:49.000Z</time>
      </trkpt>
      <trkpt lat="49.84785" lon="4.83442">
        <ele>360</ele>
        <time>2022-08-19T09:06:50.000Z</time>
      </trkpt>
      <trkpt lat="49.84785" lon="4.83455">
        <ele>360</ele>
        <time>2022-08-19T09:06:51.000Z</time>
      </trkpt>
      <trkpt lat="49.84785" lon="4.83465">
        <ele>359</ele>
        <time>2022-08-19T09:06:52.000Z</time>
      </trkpt>
      <trkpt lat="49.84786" lon="4.83473">
        <ele>358</ele>
        <time>2022-08-19T09:06:53.000Z</time>
      </trkpt>
      <trkpt lat="49.84785" lon="4.8348">
        <ele>358</ele>
        <time>2022-08-19T09:06:54.000Z</time>
      </trkpt>
      <trkpt lat="49.84785" lon="4.83487">
        <ele>357</ele>
        <time>2022-08-19T09:06:55.000Z</time>
      </trkpt>
      <trkpt lat="49.84785" lon="4.83494">
        <ele>357</ele>
        <time>2022-08-19T09:06:56.000Z</time>
      </trkpt>
      <trkpt lat="49.84785" lon="4.83501">
        <ele>356</ele>
        <time>2022-08-19T09:06:57.000Z</time>
      </trkpt>
      <trkpt lat="49.84785" lon="4.83508">
        <ele>356</ele>
        <time>2022-08-19T09:06:58.000Z</time>
      </trkpt>
      <trkpt lat="49.84785" lon="4.83516">
        <ele>355</ele>
        <time>2022-08-19T09:06:59.000Z</time>
      </trkpt>
      <trkpt lat="49.84785" lon="4.83524">
        <ele>355</ele>
        <time>2022-08-19T09:07:00.000Z</time>
      </trkpt>
      <trkpt lat="49.84784" lon="4.83532">
        <ele>354</ele>
        <time>2022-08-19T09:07:01.000Z</time>
      </trkpt>
      <trkpt lat="49.84784" lon="4.8354">
        <ele>354</ele>
        <time>2022-08-19T09:07:02.000Z</time>
      </trkpt>
      <trkpt lat="49.84784" lon="4.83548">
        <ele>353</ele>
        <time>2022-08-19T09:07:03.000Z</time>
      </trkpt>
      <trkpt lat="49.84784" lon="4.83556">
        <ele>353</ele>
        <time>2022-08-19T09:07:04.000Z</time>
      </trkpt>
      <trkpt lat="49.84783" lon="4.83564">
        <ele>353</ele>
        <time>2022-08-19T09:07:05.000Z</time>
      </trkpt>
      <trkpt lat="49.84783" lon="4.83572">
        <ele>352</ele>
        <time>2022-08-19T09:07:06.000Z</time>
      </trkpt>
      <trkpt lat="49.84783" lon="4.83581">
        <ele>352</ele>
        <time>2022-08-19T09:07:07.000Z</time>
      </trkpt>
      <trkpt lat="49.84783" lon="4.83589">
        <ele>351</ele>
        <time>2022-08-19T09:07:08.000Z</time>
      </trkpt>
      <trkpt lat="49.84783" lon="4.83596">
        <ele>351</ele>
        <time>2022-08-19T09:07:09.000Z</time>
      </trkpt>
      <trkpt lat="49.84782" lon="4.83604">
        <ele>351</ele>
        <time>2022-08-19T09:07:10.000Z</time>
      </trkpt>
      <trkpt lat="49.84782" lon="4.83611">
        <ele>350</ele>
        <time>2022-08-19T09:07:11.000Z</time>
      </trkpt>
      <trkpt lat="49.84782" lon="4.83619">
        <ele>350</ele>
        <time>2022-08-19T09:07:12.000Z</time>
      </trkpt>
      <trkpt lat="49.84783" lon="4.83627">
        <ele>350</ele>
        <time>2022-08-19T09:07:13.000Z</time>
      </trkpt>
      <trkpt lat="49.84782" lon="4.83635">
        <ele>350</ele>
        <time>2022-08-19T09:07:14.000Z</time>
      </trkpt>
      <trkpt lat="49.84782" lon="4.83643">
        <ele>350</ele>
        <time>2022-08-19T09:07:15.000Z</time>
      </trkpt>
      <trkpt lat="49.84783" lon="4.83651">
        <ele>349</ele>
        <time>2022-08-19T09:07:16.000Z</time>
      </trkpt>
      <trkpt lat="49.84784" lon="4.83659">
        <ele>349</ele>
        <time>2022-08-19T09:07:17.000Z</time>
      </trkpt>
      <trkpt lat="49.84784" lon="4.83668">
        <ele>349</ele>
        <time>2022-08-19T09:07:18.000Z</time>
      </trkpt>
      <trkpt lat="49.84784" lon="4.83677">
        <ele>349</ele>
        <time>2022-08-19T09:07:19.000Z</time>
      </trkpt>
      <trkpt lat="49.84785" lon="4.83686">
        <ele>349</ele>
        <time>2022-08-19T09:07:20.000Z</time>
      </trkpt>
      <trkpt lat="49.84786" lon="4.83694">
        <ele>349</ele>
        <time>2022-08-19T09:07:21.000Z</time>
      </trkpt>
      <trkpt lat="49.84786" lon="4.83703">
        <ele>349</ele>
        <time>2022-08-19T09:07:22.000Z</time>
      </trkpt>
      <trkpt lat="49.84786" lon="4.83711">
        <ele>349</ele>
        <time>2022-08-19T09:07:23.000Z</time>
      </trkpt>
      <trkpt lat="49.84786" lon="4.83719">
        <ele>349</ele>
        <time>2022-08-19T09:07:24.000Z</time>
      </trkpt>
      <trkpt lat="49.84786" lon="4.83728">
        <ele>349</ele>
        <time>2022-08-19T09:07:25.000Z</time>
      </trkpt>
      <trkpt lat="49.84786" lon="4.83736">
        <ele>349</ele>
        <time>2022-08-19T09:07:26.000Z</time>
      </trkpt>
      <trkpt lat="49.84786" lon="4.83745">
        <ele>349</ele>
        <time>2022-08-19T09:07:27.000Z</time>
      </trkpt>
      <trkpt lat="49.84786" lon="4.83754">
        <ele>349</ele>
        <time>2022-08-19T09:07:28.000Z</time>
      </trkpt>
      <trkpt lat="49.84786" lon="4.83763">
        <ele>348</ele>
        <time>2022-08-19T09:07:29.000Z</time>
      </trkpt>
      <trkpt lat="49.84786" lon="4.83771">
        <ele>348</ele>
        <time>2022-08-19T09:07:30.000Z</time>
      </trkpt>
      <trkpt lat="49.84786" lon="4.83779">
        <ele>348</ele>
        <time>2022-08-19T09:07:31.000Z</time>
      </trkpt>
      <trkpt lat="49.84786" lon="4.83787">
        <ele>348</ele>
        <time>2022-08-19T09:07:32.000Z</time>
      </trkpt>
      <trkpt lat="49.84786" lon="4.83794">
        <ele>348</ele>
        <time>2022-08-19T09:07:33.000Z</time>
      </trkpt>
      <trkpt lat="49.84786" lon="4.83801">
        <ele>348</ele>
        <time>2022-08-19T09:07:34.000Z</time>
      </trkpt>
      <trkpt lat="49.84785" lon="4.83808">
        <ele>348</ele>
        <time>2022-08-19T09:07:35.000Z</time>
      </trkpt>
      <trkpt lat="49.84785" lon="4.83814">
        <ele>348</ele>
        <time>2022-08-19T09:07:36.000Z</time>
      </trkpt>
      <trkpt lat="49.84785" lon="4.8382">
        <ele>348</ele>
        <time>2022-08-19T09:07:37.000Z</time>
      </trkpt>
      <trkpt lat="49.84784" lon="4.83825">
        <ele>348</ele>
        <time>2022-08-19T09:07:38.000Z</time>
      </trkpt>
      <trkpt lat="49.84783" lon="4.8383">
        <ele>348</ele>
        <time>2022-08-19T09:07:39.000Z</time>
      </trkpt>
      <trkpt lat="49.84783" lon="4.83835">
        <ele>349</ele>
        <time>2022-08-19T09:07:40.000Z</time>
      </trkpt>
      <trkpt lat="49.84781" lon="4.8384">
        <ele>349</ele>
        <time>2022-08-19T09:07:41.000Z</time>
      </trkpt>
      <trkpt lat="49.8478" lon="4.83845">
        <ele>349</ele>
        <time>2022-08-19T09:07:42.000Z</time>
      </trkpt>
      <trkpt lat="49.84778" lon="4.8385">
        <ele>349</ele>
        <time>2022-08-19T09:07:43.000Z</time>
      </trkpt>
      <trkpt lat="49.84776" lon="4.83856">
        <ele>349</ele>
        <time>2022-08-19T09:07:44.000Z</time>
      </trkpt>
      <trkpt lat="49.84775" lon="4.83861">
        <ele>349</ele>
        <time>2022-08-19T09:07:45.000Z</time>
      </trkpt>
      <trkpt lat="49.84772" lon="4.83865">
        <ele>349</ele>
        <time>2022-08-19T09:07:46.000Z</time>
      </trkpt>
      <trkpt lat="49.84771" lon="4.83869">
        <ele>350</ele>
        <time>2022-08-19T09:07:47.000Z</time>
      </trkpt>
      <trkpt lat="49.8477" lon="4.83872">
        <ele>350</ele>
        <time>2022-08-19T09:07:48.000Z</time>
      </trkpt>
      <trkpt lat="49.84769" lon="4.83877">
        <ele>350</ele>
        <time>2022-08-19T09:07:49.000Z</time>
      </trkpt>
      <trkpt lat="49.84767" lon="4.83883">
        <ele>350</ele>
        <time>2022-08-19T09:07:50.000Z</time>
      </trkpt>
      <trkpt lat="49.84764" lon="4.83888">
        <ele>350</ele>
        <time>2022-08-19T09:07:51.000Z</time>
      </trkpt>
      <trkpt lat="49.84762" lon="4.83891">
        <ele>351</ele>
        <time>2022-08-19T09:07:52.000Z</time>
      </trkpt>
      <trkpt lat="49.84762" lon="4.83892">
        <ele>351</ele>
        <time>2022-08-19T09:07:53.000Z</time>
      </trkpt>
      <trkpt lat="49.84762" lon="4.83893">
        <ele>351</ele>
        <time>2022-08-19T09:07:54.000Z</time>
      </trkpt>
      <trkpt lat="49.84761" lon="4.83894">
        <ele>352</ele>
        <time>2022-08-19T09:07:55.000Z</time>
      </trkpt>
      <trkpt lat="49.84761" lon="4.83894">
        <ele>352</ele>
        <time>2022-08-19T09:07:56.000Z</time>
      </trkpt>
      <trkpt lat="49.84761" lon="4.83894">
        <ele>352</ele>
        <time>2022-08-19T09:07:57.000Z</time>
      </trkpt>
      <trkpt lat="49.84761" lon="4.83895">
        <ele>352</ele>
        <time>2022-08-19T09:07:58.000Z</time>
      </trkpt>
      <trkpt lat="49.84761" lon="4.83896">
        <ele>353</ele>
        <time>2022-08-19T09:07:59.000Z</time>
      </trkpt>
      <trkpt lat="49.8476" lon="4.83896">
        <ele>353</ele>
        <time>2022-08-19T09:08:00.000Z</time>
      </trkpt>
      <trkpt lat="49.8476" lon="4.83897">
        <ele>353</ele>
        <time>2022-08-19T09:08:01.000Z</time>
      </trkpt>
      <trkpt lat="49.8476" lon="4.83898">
        <ele>354</ele>
        <time>2022-08-19T09:08:02.000Z</time>
      </trkpt>
      <trkpt lat="49.84759" lon="4.83899">
        <ele>354</ele>
        <time>2022-08-19T09:08:03.000Z</time>
      </trkpt>
      <trkpt lat="49.84758" lon="4.83901">
        <ele>354</ele>
        <time>2022-08-19T09:08:04.000Z</time>
      </trkpt>
      <trkpt lat="49.84756" lon="4.83904">
        <ele>355</ele>
        <time>2022-08-19T09:08:05.000Z</time>
      </trkpt>
      <trkpt lat="49.84755" lon="4.83907">
        <ele>355</ele>
        <time>2022-08-19T09:08:06.000Z</time>
      </trkpt>
      <trkpt lat="49.84753" lon="4.83911">
        <ele>355</ele>
        <time>2022-08-19T09:08:07.000Z</time>
      </trkpt>
      <trkpt lat="49.84752" lon="4.83914">
        <ele>356</ele>
        <time>2022-08-19T09:08:08.000Z</time>
      </trkpt>
      <trkpt lat="49.84749" lon="4.83918">
        <ele>356</ele>
        <time>2022-08-19T09:08:09.000Z</time>
      </trkpt>
      <trkpt lat="49.84748" lon="4.83922">
        <ele>356</ele>
        <time>2022-08-19T09:08:10.000Z</time>
      </trkpt>
      <trkpt lat="49.84746" lon="4.83927">
        <ele>357</ele>
        <time>2022-08-19T09:08:11.000Z</time>
      </trkpt>
      <trkpt lat="49.84744" lon="4.83931">
        <ele>357</ele>
        <time>2022-08-19T09:08:12.000Z</time>
      </trkpt>
      <trkpt lat="49.84742" lon="4.83935">
        <ele>357</ele>
        <time>2022-08-19T09:08:13.000Z</time>
      </trkpt>
      <trkpt lat="49.8474" lon="4.83939">
        <ele>358</ele>
        <time>2022-08-19T09:08:14.000Z</time>
      </trkpt>
      <trkpt lat="49.84738" lon="4.83943">
        <ele>358</ele>
        <time>2022-08-19T09:08:15.000Z</time>
      </trkpt>
      <trkpt lat="49.84735" lon="4.83947">
        <ele>358</ele>
        <time>2022-08-19T09:08:16.000Z</time>
      </trkpt>
      <trkpt lat="49.84732" lon="4.8395">
        <ele>359</ele>
        <time>2022-08-19T09:08:17.000Z</time>
      </trkpt>
      <trkpt lat="49.84729" lon="4.83953">
        <ele>359</ele>
        <time>2022-08-19T09:08:18.000Z</time>
      </trkpt>
      <trkpt lat="49.84727" lon="4.83957">
        <ele>359</ele>
        <time>2022-08-19T09:08:19.000Z</time>
      </trkpt>
      <trkpt lat="49.84724" lon="4.8396">
        <ele>359</ele>
        <time>2022-08-19T09:08:20.000Z</time>
      </trkpt>
      <trkpt lat="49.84722" lon="4.83962">
        <ele>359</ele>
        <time>2022-08-19T09:08:21.000Z</time>
      </trkpt>
      <trkpt lat="49.84718" lon="4.83966">
        <ele>360</ele>
        <time>2022-08-19T09:08:22.000Z</time>
      </trkpt>
      <trkpt lat="49.84714" lon="4.83969">
        <ele>360</ele>
        <time>2022-08-19T09:08:23.000Z</time>
      </trkpt>
      <trkpt lat="49.8471" lon="4.8397">
        <ele>360</ele>
        <time>2022-08-19T09:08:24.000Z</time>
      </trkpt>
      <trkpt lat="49.84706" lon="4.83972">
        <ele>360</ele>
        <time>2022-08-19T09:08:25.000Z</time>
      </trkpt>
      <trkpt lat="49.84703" lon="4.83974">
        <ele>361</ele>
        <time>2022-08-19T09:08:26.000Z</time>
      </trkpt>
      <trkpt lat="49.847" lon="4.83977">
        <ele>361</ele>
        <time>2022-08-19T09:08:27.000Z</time>
      </trkpt>
      <trkpt lat="49.84697" lon="4.83979">
        <ele>361</ele>
        <time>2022-08-19T09:08:28.000Z</time>
      </trkpt>
      <trkpt lat="49.84693" lon="4.83982">
        <ele>362</ele>
        <time>2022-08-19T09:08:29.000Z</time>
      </trkpt>
      <trkpt lat="49.8469" lon="4.83984">
        <ele>362</ele>
        <time>2022-08-19T09:08:30.000Z</time>
      </trkpt>
      <trkpt lat="49.84686" lon="4.83984">
        <ele>362</ele>
        <time>2022-08-19T09:08:31.000Z</time>
      </trkpt>
      <trkpt lat="49.84682" lon="4.83984">
        <ele>363</ele>
        <time>2022-08-19T09:08:32.000Z</time>
      </trkpt>
      <trkpt lat="49.84679" lon="4.83984">
        <ele>363</ele>
        <time>2022-08-19T09:08:33.000Z</time>
      </trkpt>
      <trkpt lat="49.84676" lon="4.83986">
        <ele>363</ele>
        <time>2022-08-19T09:08:34.000Z</time>
      </trkpt>
      <trkpt lat="49.84672" lon="4.83987">
        <ele>364</ele>
        <time>2022-08-19T09:08:35.000Z</time>
      </trkpt>
      <trkpt lat="49.84668" lon="4.83989">
        <ele>364</ele>
        <time>2022-08-19T09:08:36.000Z</time>
      </trkpt>
      <trkpt lat="49.84664" lon="4.8399">
        <ele>364</ele>
        <time>2022-08-19T09:08:37.000Z</time>
      </trkpt>
      <trkpt lat="49.84661" lon="4.83991">
        <ele>364</ele>
        <time>2022-08-19T09:08:38.000Z</time>
      </trkpt>
      <trkpt lat="49.84657" lon="4.83992">
        <ele>365</ele>
        <time>2022-08-19T09:08:39.000Z</time>
      </trkpt>
      <trkpt lat="49.84653" lon="4.83993">
        <ele>365</ele>
        <time>2022-08-19T09:08:40.000Z</time>
      </trkpt>
      <trkpt lat="49.84651" lon="4.83994">
        <ele>365</ele>
        <time>2022-08-19T09:08:41.000Z</time>
      </trkpt>
      <trkpt lat="49.84648" lon="4.83994">
        <ele>365</ele>
        <time>2022-08-19T09:08:42.000Z</time>
      </trkpt>
      <trkpt lat="49.84646" lon="4.83995">
        <ele>366</ele>
        <time>2022-08-19T09:08:43.000Z</time>
      </trkpt>
      <trkpt lat="49.84643" lon="4.83996">
        <ele>366</ele>
        <time>2022-08-19T09:08:44.000Z</time>
      </trkpt>
      <trkpt lat="49.8464" lon="4.83997">
        <ele>366</ele>
        <time>2022-08-19T09:08:45.000Z</time>
      </trkpt>
      <trkpt lat="49.84638" lon="4.83998">
        <ele>366</ele>
        <time>2022-08-19T09:08:46.000Z</time>
      </trkpt>
      <trkpt lat="49.84635" lon="4.83998">
        <ele>367</ele>
        <time>2022-08-19T09:08:47.000Z</time>
      </trkpt>
      <trkpt lat="49.84632" lon="4.83999">
        <ele>367</ele>
        <time>2022-08-19T09:08:48.000Z</time>
      </trkpt>
      <trkpt lat="49.8463" lon="4.83999">
        <ele>367</ele>
        <time>2022-08-19T09:08:49.000Z</time>
      </trkpt>
      <trkpt lat="49.84627" lon="4.84">
        <ele>368</ele>
        <time>2022-08-19T09:08:50.000Z</time>
      </trkpt>
      <trkpt lat="49.84625" lon="4.84001">
        <ele>368</ele>
        <time>2022-08-19T09:08:51.000Z</time>
      </trkpt>
      <trkpt lat="49.84622" lon="4.84003">
        <ele>368</ele>
        <time>2022-08-19T09:08:52.000Z</time>
      </trkpt>
      <trkpt lat="49.8462" lon="4.84004">
        <ele>368</ele>
        <time>2022-08-19T09:08:53.000Z</time>
      </trkpt>
      <trkpt lat="49.84617" lon="4.84005">
        <ele>368</ele>
        <time>2022-08-19T09:08:54.000Z</time>
      </trkpt>
      <trkpt lat="49.84615" lon="4.84005">
        <ele>369</ele>
        <time>2022-08-19T09:08:55.000Z</time>
      </trkpt>
      <trkpt lat="49.84612" lon="4.84006">
        <ele>369</ele>
        <time>2022-08-19T09:08:56.000Z</time>
      </trkpt>
      <trkpt lat="49.84609" lon="4.84007">
        <ele>369</ele>
        <time>2022-08-19T09:08:57.000Z</time>
      </trkpt>
      <trkpt lat="49.84606" lon="4.84009">
        <ele>369</ele>
        <time>2022-08-19T09:08:58.000Z</time>
      </trkpt>
      <trkpt lat="49.84603" lon="4.84011">
        <ele>370</ele>
        <time>2022-08-19T09:08:59.000Z</time>
      </trkpt>
      <trkpt lat="49.846" lon="4.84014">
        <ele>370</ele>
        <time>2022-08-19T09:09:00.000Z</time>
      </trkpt>
      <trkpt lat="49.84597" lon="4.84015">
        <ele>370</ele>
        <time>2022-08-19T09:09:01.000Z</time>
      </trkpt>
      <trkpt lat="49.84594" lon="4.84017">
        <ele>370</ele>
        <time>2022-08-19T09:09:02.000Z</time>
      </trkpt>
      <trkpt lat="49.84592" lon="4.84019">
        <ele>370</ele>
        <time>2022-08-19T09:09:03.000Z</time>
      </trkpt>
      <trkpt lat="49.84589" lon="4.84021">
        <ele>370</ele>
        <time>2022-08-19T09:09:04.000Z</time>
      </trkpt>
      <trkpt lat="49.84585" lon="4.84024">
        <ele>370</ele>
        <time>2022-08-19T09:09:05.000Z</time>
      </trkpt>
      <trkpt lat="49.84582" lon="4.84028">
        <ele>370</ele>
        <time>2022-08-19T09:09:06.000Z</time>
      </trkpt>
      <trkpt lat="49.84579" lon="4.84032">
        <ele>370</ele>
        <time>2022-08-19T09:09:07.000Z</time>
      </trkpt>
      <trkpt lat="49.84576" lon="4.84035">
        <ele>370</ele>
        <time>2022-08-19T09:09:08.000Z</time>
      </trkpt>
      <trkpt lat="49.84573" lon="4.84038">
        <ele>371</ele>
        <time>2022-08-19T09:09:09.000Z</time>
      </trkpt>
      <trkpt lat="49.84569" lon="4.84042">
        <ele>371</ele>
        <time>2022-08-19T09:09:10.000Z</time>
      </trkpt>
      <trkpt lat="49.84565" lon="4.84046">
        <ele>371</ele>
        <time>2022-08-19T09:09:11.000Z</time>
      </trkpt>
      <trkpt lat="49.84562" lon="4.84051">
        <ele>371</ele>
        <time>2022-08-19T09:09:12.000Z</time>
      </trkpt>
      <trkpt lat="49.84558" lon="4.84055">
        <ele>371</ele>
        <time>2022-08-19T09:09:13.000Z</time>
      </trkpt>
      <trkpt lat="49.84554" lon="4.8406">
        <ele>371</ele>
        <time>2022-08-19T09:09:14.000Z</time>
      </trkpt>
      <trkpt lat="49.8455" lon="4.84065">
        <ele>371</ele>
        <time>2022-08-19T09:09:15.000Z</time>
      </trkpt>
      <trkpt lat="49.84546" lon="4.84072">
        <ele>371</ele>
        <time>2022-08-19T09:09:16.000Z</time>
      </trkpt>
      <trkpt lat="49.84543" lon="4.84078">
        <ele>371</ele>
        <time>2022-08-19T09:09:17.000Z</time>
      </trkpt>
      <trkpt lat="49.84539" lon="4.84084">
        <ele>371</ele>
        <time>2022-08-19T09:09:18.000Z</time>
      </trkpt>
      <trkpt lat="49.84535" lon="4.84089">
        <ele>371</ele>
        <time>2022-08-19T09:09:19.000Z</time>
      </trkpt>
      <trkpt lat="49.84531" lon="4.84095">
        <ele>371</ele>
        <time>2022-08-19T09:09:20.000Z</time>
      </trkpt>
      <trkpt lat="49.84526" lon="4.84102">
        <ele>371</ele>
        <time>2022-08-19T09:09:21.000Z</time>
      </trkpt>
      <trkpt lat="49.84522" lon="4.84108">
        <ele>371</ele>
        <time>2022-08-19T09:09:22.000Z</time>
      </trkpt>
      <trkpt lat="49.84518" lon="4.84115">
        <ele>371</ele>
        <time>2022-08-19T09:09:23.000Z</time>
      </trkpt>
      <trkpt lat="49.84513" lon="4.84121">
        <ele>371</ele>
        <time>2022-08-19T09:09:24.000Z</time>
      </trkpt>
      <trkpt lat="49.84508" lon="4.84126">
        <ele>371</ele>
        <time>2022-08-19T09:09:25.000Z</time>
      </trkpt>
      <trkpt lat="49.84504" lon="4.84132">
        <ele>370</ele>
        <time>2022-08-19T09:09:26.000Z</time>
      </trkpt>
      <trkpt lat="49.84499" lon="4.84139">
        <ele>370</ele>
        <time>2022-08-19T09:09:27.000Z</time>
      </trkpt>
      <trkpt lat="49.84495" lon="4.84146">
        <ele>370</ele>
        <time>2022-08-19T09:09:28.000Z</time>
      </trkpt>
      <trkpt lat="49.8449" lon="4.84153">
        <ele>370</ele>
        <time>2022-08-19T09:09:29.000Z</time>
      </trkpt>
      <trkpt lat="49.84485" lon="4.84159">
        <ele>370</ele>
        <time>2022-08-19T09:09:30.000Z</time>
      </trkpt>
      <trkpt lat="49.84481" lon="4.84165">
        <ele>370</ele>
        <time>2022-08-19T09:09:31.000Z</time>
      </trkpt>
      <trkpt lat="49.84476" lon="4.84172">
        <ele>369</ele>
        <time>2022-08-19T09:09:32.000Z</time>
      </trkpt>
      <trkpt lat="49.8447" lon="4.84178">
        <ele>369</ele>
        <time>2022-08-19T09:09:33.000Z</time>
      </trkpt>
      <trkpt lat="49.84464" lon="4.84184">
        <ele>369</ele>
        <time>2022-08-19T09:09:34.000Z</time>
      </trkpt>
      <trkpt lat="49.84459" lon="4.8419">
        <ele>369</ele>
        <time>2022-08-19T09:09:35.000Z</time>
      </trkpt>
      <trkpt lat="49.84454" lon="4.84196">
        <ele>368</ele>
        <time>2022-08-19T09:09:36.000Z</time>
      </trkpt>
      <trkpt lat="49.8445" lon="4.84202">
        <ele>368</ele>
        <time>2022-08-19T09:09:37.000Z</time>
      </trkpt>
      <trkpt lat="49.84445" lon="4.84209">
        <ele>368</ele>
        <time>2022-08-19T09:09:38.000Z</time>
      </trkpt>
      <trkpt lat="49.8444" lon="4.84214">
        <ele>368</ele>
        <time>2022-08-19T09:09:39.000Z</time>
      </trkpt>
      <trkpt lat="49.84435" lon="4.84218">
        <ele>367</ele>
        <time>2022-08-19T09:09:40.000Z</time>
      </trkpt>
      <trkpt lat="49.84429" lon="4.84221">
        <ele>367</ele>
        <time>2022-08-19T09:09:41.000Z</time>
      </trkpt>
      <trkpt lat="49.84424" lon="4.84225">
        <ele>367</ele>
        <time>2022-08-19T09:09:42.000Z</time>
      </trkpt>
      <trkpt lat="49.84418" lon="4.84228">
        <ele>367</ele>
        <time>2022-08-19T09:09:43.000Z</time>
      </trkpt>
      <trkpt lat="49.84412" lon="4.84231">
        <ele>367</ele>
        <time>2022-08-19T09:09:44.000Z</time>
      </trkpt>
      <trkpt lat="49.84406" lon="4.84234">
        <ele>366</ele>
        <time>2022-08-19T09:09:45.000Z</time>
      </trkpt>
      <trkpt lat="49.84401" lon="4.84237">
        <ele>366</ele>
        <time>2022-08-19T09:09:46.000Z</time>
      </trkpt>
      <trkpt lat="49.84396" lon="4.8424">
        <ele>366</ele>
        <time>2022-08-19T09:09:47.000Z</time>
      </trkpt>
      <trkpt lat="49.84391" lon="4.84242">
        <ele>366</ele>
        <time>2022-08-19T09:09:48.000Z</time>
      </trkpt>
      <trkpt lat="49.84386" lon="4.84243">
        <ele>366</ele>
        <time>2022-08-19T09:09:49.000Z</time>
      </trkpt>
      <trkpt lat="49.84381" lon="4.84244">
        <ele>366</ele>
        <time>2022-08-19T09:09:50.000Z</time>
      </trkpt>
      <trkpt lat="49.84375" lon="4.84245">
        <ele>366</ele>
        <time>2022-08-19T09:09:51.000Z</time>
      </trkpt>
      <trkpt lat="49.8437" lon="4.84246">
        <ele>366</ele>
        <time>2022-08-19T09:09:52.000Z</time>
      </trkpt>
      <trkpt lat="49.84364" lon="4.84247">
        <ele>365</ele>
        <time>2022-08-19T09:09:53.000Z</time>
      </trkpt>
      <trkpt lat="49.84359" lon="4.84247">
        <ele>365</ele>
        <time>2022-08-19T09:09:54.000Z</time>
      </trkpt>
      <trkpt lat="49.84353" lon="4.84249">
        <ele>365</ele>
        <time>2022-08-19T09:09:55.000Z</time>
      </trkpt>
      <trkpt lat="49.84347" lon="4.84249">
        <ele>365</ele>
        <time>2022-08-19T09:09:56.000Z</time>
      </trkpt>
      <trkpt lat="49.84341" lon="4.8425">
        <ele>364</ele>
        <time>2022-08-19T09:09:57.000Z</time>
      </trkpt>
      <trkpt lat="49.84335" lon="4.84251">
        <ele>364</ele>
        <time>2022-08-19T09:09:58.000Z</time>
      </trkpt>
      <trkpt lat="49.84329" lon="4.84252">
        <ele>364</ele>
        <time>2022-08-19T09:09:59.000Z</time>
      </trkpt>
      <trkpt lat="49.84324" lon="4.84254">
        <ele>364</ele>
        <time>2022-08-19T09:10:00.000Z</time>
      </trkpt>
      <trkpt lat="49.84319" lon="4.84255">
        <ele>363</ele>
        <time>2022-08-19T09:10:01.000Z</time>
      </trkpt>
      <trkpt lat="49.84313" lon="4.84257">
        <ele>363</ele>
        <time>2022-08-19T09:10:02.000Z</time>
      </trkpt>
      <trkpt lat="49.84309" lon="4.8426">
        <ele>363</ele>
        <time>2022-08-19T09:10:03.000Z</time>
      </trkpt>
      <trkpt lat="49.84304" lon="4.84262">
        <ele>363</ele>
        <time>2022-08-19T09:10:04.000Z</time>
      </trkpt>
      <trkpt lat="49.84299" lon="4.84264">
        <ele>363</ele>
        <time>2022-08-19T09:10:05.000Z</time>
      </trkpt>
      <trkpt lat="49.84294" lon="4.84268">
        <ele>363</ele>
        <time>2022-08-19T09:10:06.000Z</time>
      </trkpt>
      <trkpt lat="49.84291" lon="4.8427">
        <ele>362</ele>
        <time>2022-08-19T09:10:07.000Z</time>
      </trkpt>
      <trkpt lat="49.84288" lon="4.84272">
        <ele>362</ele>
        <time>2022-08-19T09:10:08.000Z</time>
      </trkpt>
      <trkpt lat="49.84284" lon="4.84274">
        <ele>362</ele>
        <time>2022-08-19T09:10:09.000Z</time>
      </trkpt>
      <trkpt lat="49.8428" lon="4.84276">
        <ele>362</ele>
        <time>2022-08-19T09:10:10.000Z</time>
      </trkpt>
      <trkpt lat="49.84276" lon="4.84279">
        <ele>362</ele>
        <time>2022-08-19T09:10:11.000Z</time>
      </trkpt>
      <trkpt lat="49.84271" lon="4.84281">
        <ele>362</ele>
        <time>2022-08-19T09:10:12.000Z</time>
      </trkpt>
      <trkpt lat="49.84267" lon="4.84282">
        <ele>362</ele>
        <time>2022-08-19T09:10:13.000Z</time>
      </trkpt>
      <trkpt lat="49.84263" lon="4.84282">
        <ele>362</ele>
        <time>2022-08-19T09:10:14.000Z</time>
      </trkpt>
      <trkpt lat="49.84259" lon="4.84282">
        <ele>362</ele>
        <time>2022-08-19T09:10:15.000Z</time>
      </trkpt>
      <trkpt lat="49.84256" lon="4.84285">
        <ele>362</ele>
        <time>2022-08-19T09:10:16.000Z</time>
      </trkpt>
      <trkpt lat="49.84255" lon="4.84289">
        <ele>362</ele>
        <time>2022-08-19T09:10:17.000Z</time>
      </trkpt>
      <trkpt lat="49.84254" lon="4.84295">
        <ele>361</ele>
        <time>2022-08-19T09:10:18.000Z</time>
      </trkpt>
      <trkpt lat="49.84252" lon="4.84301">
        <ele>361</ele>
        <time>2022-08-19T09:10:19.000Z</time>
      </trkpt>
      <trkpt lat="49.8425" lon="4.84306">
        <ele>361</ele>
        <time>2022-08-19T09:10:20.000Z</time>
      </trkpt>
      <trkpt lat="49.84247" lon="4.84312">
        <ele>361</ele>
        <time>2022-08-19T09:10:21.000Z</time>
      </trkpt>
      <trkpt lat="49.84244" lon="4.84315">
        <ele>361</ele>
        <time>2022-08-19T09:10:22.000Z</time>
      </trkpt>
      <trkpt lat="49.84239" lon="4.84316">
        <ele>360</ele>
        <time>2022-08-19T09:10:23.000Z</time>
      </trkpt>
      <trkpt lat="49.84235" lon="4.84317">
        <ele>360</ele>
        <time>2022-08-19T09:10:24.000Z</time>
      </trkpt>
      <trkpt lat="49.84229" lon="4.84317">
        <ele>360</ele>
        <time>2022-08-19T09:10:25.000Z</time>
      </trkpt>
      <trkpt lat="49.84224" lon="4.84317">
        <ele>360</ele>
        <time>2022-08-19T09:10:26.000Z</time>
      </trkpt>
      <trkpt lat="49.84218" lon="4.84317">
        <ele>360</ele>
        <time>2022-08-19T09:10:27.000Z</time>
      </trkpt>
      <trkpt lat="49.84211" lon="4.84316">
        <ele>360</ele>
        <time>2022-08-19T09:10:28.000Z</time>
      </trkpt>
      <trkpt lat="49.84205" lon="4.84316">
        <ele>359</ele>
        <time>2022-08-19T09:10:29.000Z</time>
      </trkpt>
      <trkpt lat="49.84199" lon="4.84316">
        <ele>359</ele>
        <time>2022-08-19T09:10:30.000Z</time>
      </trkpt>
      <trkpt lat="49.84194" lon="4.84316">
        <ele>359</ele>
        <time>2022-08-19T09:10:31.000Z</time>
      </trkpt>
      <trkpt lat="49.84188" lon="4.84316">
        <ele>359</ele>
        <time>2022-08-19T09:10:32.000Z</time>
      </trkpt>
      <trkpt lat="49.84181" lon="4.84316">
        <ele>359</ele>
        <time>2022-08-19T09:10:33.000Z</time>
      </trkpt>
      <trkpt lat="49.84175" lon="4.84316">
        <ele>359</ele>
        <time>2022-08-19T09:10:34.000Z</time>
      </trkpt>
      <trkpt lat="49.84169" lon="4.84315">
        <ele>358</ele>
        <time>2022-08-19T09:10:35.000Z</time>
      </trkpt>
      <trkpt lat="49.84163" lon="4.84314">
        <ele>358</ele>
        <time>2022-08-19T09:10:36.000Z</time>
      </trkpt>
      <trkpt lat="49.84157" lon="4.84314">
        <ele>358</ele>
        <time>2022-08-19T09:10:37.000Z</time>
      </trkpt>
      <trkpt lat="49.84151" lon="4.84313">
        <ele>358</ele>
        <time>2022-08-19T09:10:38.000Z</time>
      </trkpt>
      <trkpt lat="49.84146" lon="4.84312">
        <ele>358</ele>
        <time>2022-08-19T09:10:39.000Z</time>
      </trkpt>
      <trkpt lat="49.8414" lon="4.84311">
        <ele>358</ele>
        <time>2022-08-19T09:10:40.000Z</time>
      </trkpt>
      <trkpt lat="49.84134" lon="4.8431">
        <ele>358</ele>
        <time>2022-08-19T09:10:41.000Z</time>
      </trkpt>
      <trkpt lat="49.84129" lon="4.84309">
        <ele>358</ele>
        <time>2022-08-19T09:10:42.000Z</time>
      </trkpt>
      <trkpt lat="49.84124" lon="4.84308">
        <ele>358</ele>
        <time>2022-08-19T09:10:43.000Z</time>
      </trkpt>
      <trkpt lat="49.84119" lon="4.84307">
        <ele>358</ele>
        <time>2022-08-19T09:10:44.000Z</time>
      </trkpt>
      <trkpt lat="49.84114" lon="4.84306">
        <ele>358</ele>
        <time>2022-08-19T09:10:45.000Z</time>
      </trkpt>
      <trkpt lat="49.8411" lon="4.84304">
        <ele>358</ele>
        <time>2022-08-19T09:10:46.000Z</time>
      </trkpt>
      <trkpt lat="49.84105" lon="4.84303">
        <ele>358</ele>
        <time>2022-08-19T09:10:47.000Z</time>
      </trkpt>
      <trkpt lat="49.84101" lon="4.84303">
        <ele>358</ele>
        <time>2022-08-19T09:10:48.000Z</time>
      </trkpt>
      <trkpt lat="49.84097" lon="4.84302">
        <ele>358</ele>
        <time>2022-08-19T09:10:49.000Z</time>
      </trkpt>
      <trkpt lat="49.84093" lon="4.84301">
        <ele>357</ele>
        <time>2022-08-19T09:10:50.000Z</time>
      </trkpt>
      <trkpt lat="49.84088" lon="4.843">
        <ele>357</ele>
        <time>2022-08-19T09:10:51.000Z</time>
      </trkpt>
      <trkpt lat="49.84084" lon="4.84299">
        <ele>357</ele>
        <time>2022-08-19T09:10:52.000Z</time>
      </trkpt>
      <trkpt lat="49.84079" lon="4.84298">
        <ele>357</ele>
        <time>2022-08-19T09:10:53.000Z</time>
      </trkpt>
      <trkpt lat="49.84074" lon="4.84297">
        <ele>357</ele>
        <time>2022-08-19T09:10:54.000Z</time>
      </trkpt>
      <trkpt lat="49.84068" lon="4.84296">
        <ele>357</ele>
        <time>2022-08-19T09:10:55.000Z</time>
      </trkpt>
      <trkpt lat="49.84063" lon="4.84295">
        <ele>357</ele>
        <time>2022-08-19T09:10:56.000Z</time>
      </trkpt>
      <trkpt lat="49.84057" lon="4.84293">
        <ele>356</ele>
        <time>2022-08-19T09:10:57.000Z</time>
      </trkpt>
      <trkpt lat="49.84051" lon="4.84292">
        <ele>356</ele>
        <time>2022-08-19T09:10:58.000Z</time>
      </trkpt>
      <trkpt lat="49.84045" lon="4.84291">
        <ele>356</ele>
        <time>2022-08-19T09:10:59.000Z</time>
      </trkpt>
      <trkpt lat="49.84038" lon="4.84289">
        <ele>356</ele>
        <time>2022-08-19T09:11:00.000Z</time>
      </trkpt>
      <trkpt lat="49.84032" lon="4.84288">
        <ele>356</ele>
        <time>2022-08-19T09:11:01.000Z</time>
      </trkpt>
      <trkpt lat="49.84025" lon="4.84287">
        <ele>356</ele>
        <time>2022-08-19T09:11:02.000Z</time>
      </trkpt>
      <trkpt lat="49.84018" lon="4.84286">
        <ele>356</ele>
        <time>2022-08-19T09:11:03.000Z</time>
      </trkpt>
      <trkpt lat="49.8401" lon="4.84284">
        <ele>356</ele>
        <time>2022-08-19T09:11:04.000Z</time>
      </trkpt>
      <trkpt lat="49.84003" lon="4.84282">
        <ele>356</ele>
        <time>2022-08-19T09:11:05.000Z</time>
      </trkpt>
      <trkpt lat="49.83996" lon="4.8428">
        <ele>355</ele>
        <time>2022-08-19T09:11:06.000Z</time>
      </trkpt>
      <trkpt lat="49.83989" lon="4.84278">
        <ele>355</ele>
        <time>2022-08-19T09:11:07.000Z</time>
      </trkpt>
      <trkpt lat="49.83982" lon="4.84276">
        <ele>355</ele>
        <time>2022-08-19T09:11:08.000Z</time>
      </trkpt>
      <trkpt lat="49.83975" lon="4.84274">
        <ele>354</ele>
        <time>2022-08-19T09:11:09.000Z</time>
      </trkpt>
      <trkpt lat="49.83968" lon="4.84272">
        <ele>354</ele>
        <time>2022-08-19T09:11:10.000Z</time>
      </trkpt>
      <trkpt lat="49.8396" lon="4.84271">
        <ele>354</ele>
        <time>2022-08-19T09:11:11.000Z</time>
      </trkpt>
      <trkpt lat="49.83953" lon="4.84269">
        <ele>354</ele>
        <time>2022-08-19T09:11:12.000Z</time>
      </trkpt>
      <trkpt lat="49.83946" lon="4.84267">
        <ele>354</ele>
        <time>2022-08-19T09:11:13.000Z</time>
      </trkpt>
      <trkpt lat="49.83939" lon="4.84266">
        <ele>353</ele>
        <time>2022-08-19T09:11:14.000Z</time>
      </trkpt>
      <trkpt lat="49.83932" lon="4.84264">
        <ele>353</ele>
        <time>2022-08-19T09:11:15.000Z</time>
      </trkpt>
      <trkpt lat="49.83925" lon="4.84262">
        <ele>353</ele>
        <time>2022-08-19T09:11:16.000Z</time>
      </trkpt>
      <trkpt lat="49.83918" lon="4.8426">
        <ele>353</ele>
        <time>2022-08-19T09:11:17.000Z</time>
      </trkpt>
      <trkpt lat="49.8391" lon="4.84259">
        <ele>353</ele>
        <time>2022-08-19T09:11:18.000Z</time>
      </trkpt>
      <trkpt lat="49.83903" lon="4.84257">
        <ele>352</ele>
        <time>2022-08-19T09:11:19.000Z</time>
      </trkpt>
      <trkpt lat="49.83895" lon="4.84255">
        <ele>352</ele>
        <time>2022-08-19T09:11:20.000Z</time>
      </trkpt>
      <trkpt lat="49.83888" lon="4.84254">
        <ele>352</ele>
        <time>2022-08-19T09:11:21.000Z</time>
      </trkpt>
      <trkpt lat="49.83881" lon="4.84252">
        <ele>352</ele>
        <time>2022-08-19T09:11:22.000Z</time>
      </trkpt>
      <trkpt lat="49.83874" lon="4.8425">
        <ele>352</ele>
        <time>2022-08-19T09:11:23.000Z</time>
      </trkpt>
      <trkpt lat="49.83867" lon="4.84248">
        <ele>351</ele>
        <time>2022-08-19T09:11:24.000Z</time>
      </trkpt>
      <trkpt lat="49.83861" lon="4.84246">
        <ele>351</ele>
        <time>2022-08-19T09:11:25.000Z</time>
      </trkpt>
      <trkpt lat="49.83855" lon="4.84245">
        <ele>351</ele>
        <time>2022-08-19T09:11:26.000Z</time>
      </trkpt>
      <trkpt lat="49.83849" lon="4.84244">
        <ele>351</ele>
        <time>2022-08-19T09:11:27.000Z</time>
      </trkpt>
      <trkpt lat="49.83842" lon="4.84242">
        <ele>351</ele>
        <time>2022-08-19T09:11:28.000Z</time>
      </trkpt>
      <trkpt lat="49.83835" lon="4.84241">
        <ele>351</ele>
        <time>2022-08-19T09:11:29.000Z</time>
      </trkpt>
      <trkpt lat="49.83829" lon="4.84239">
        <ele>351</ele>
        <time>2022-08-19T09:11:30.000Z</time>
      </trkpt>
      <trkpt lat="49.83823" lon="4.84238">
        <ele>351</ele>
        <time>2022-08-19T09:11:31.000Z</time>
      </trkpt>
      <trkpt lat="49.83817" lon="4.84237">
        <ele>351</ele>
        <time>2022-08-19T09:11:32.000Z</time>
      </trkpt>
      <trkpt lat="49.83811" lon="4.84236">
        <ele>351</ele>
        <time>2022-08-19T09:11:33.000Z</time>
      </trkpt>
      <trkpt lat="49.83805" lon="4.84234">
        <ele>351</ele>
        <time>2022-08-19T09:11:34.000Z</time>
      </trkpt>
      <trkpt lat="49.838" lon="4.84233">
        <ele>352</ele>
        <time>2022-08-19T09:11:35.000Z</time>
      </trkpt>
      <trkpt lat="49.83795" lon="4.84232">
        <ele>352</ele>
        <time>2022-08-19T09:11:36.000Z</time>
      </trkpt>
      <trkpt lat="49.8379" lon="4.84231">
        <ele>352</ele>
        <time>2022-08-19T09:11:37.000Z</time>
      </trkpt>
      <trkpt lat="49.83785" lon="4.8423">
        <ele>352</ele>
        <time>2022-08-19T09:11:38.000Z</time>
      </trkpt>
      <trkpt lat="49.83781" lon="4.84229">
        <ele>352</ele>
        <time>2022-08-19T09:11:39.000Z</time>
      </trkpt>
      <trkpt lat="49.83776" lon="4.84228">
        <ele>352</ele>
        <time>2022-08-19T09:11:40.000Z</time>
      </trkpt>
      <trkpt lat="49.83772" lon="4.84227">
        <ele>352</ele>
        <time>2022-08-19T09:11:41.000Z</time>
      </trkpt>
      <trkpt lat="49.83768" lon="4.84226">
        <ele>352</ele>
        <time>2022-08-19T09:11:42.000Z</time>
      </trkpt>
      <trkpt lat="49.83765" lon="4.84225">
        <ele>352</ele>
        <time>2022-08-19T09:11:43.000Z</time>
      </trkpt>
      <trkpt lat="49.83761" lon="4.84224">
        <ele>352</ele>
        <time>2022-08-19T09:11:44.000Z</time>
      </trkpt>
      <trkpt lat="49.83758" lon="4.84224">
        <ele>352</ele>
        <time>2022-08-19T09:11:45.000Z</time>
      </trkpt>
      <trkpt lat="49.83755" lon="4.84223">
        <ele>353</ele>
        <time>2022-08-19T09:11:46.000Z</time>
      </trkpt>
      <trkpt lat="49.83751" lon="4.84222">
        <ele>353</ele>
        <time>2022-08-19T09:11:47.000Z</time>
      </trkpt>
      <trkpt lat="49.83747" lon="4.84222">
        <ele>353</ele>
        <time>2022-08-19T09:11:48.000Z</time>
      </trkpt>
      <trkpt lat="49.83743" lon="4.84221">
        <ele>354</ele>
        <time>2022-08-19T09:11:49.000Z</time>
      </trkpt>
      <trkpt lat="49.83739" lon="4.84221">
        <ele>354</ele>
        <time>2022-08-19T09:11:50.000Z</time>
      </trkpt>
      <trkpt lat="49.83734" lon="4.8422">
        <ele>354</ele>
        <time>2022-08-19T09:11:51.000Z</time>
      </trkpt>
      <trkpt lat="49.8373" lon="4.84219">
        <ele>354</ele>
        <time>2022-08-19T09:11:52.000Z</time>
      </trkpt>
      <trkpt lat="49.83726" lon="4.84218">
        <ele>355</ele>
        <time>2022-08-19T09:11:53.000Z</time>
      </trkpt>
      <trkpt lat="49.83721" lon="4.84217">
        <ele>355</ele>
        <time>2022-08-19T09:11:54.000Z</time>
      </trkpt>
      <trkpt lat="49.83716" lon="4.84216">
        <ele>355</ele>
        <time>2022-08-19T09:11:55.000Z</time>
      </trkpt>
      <trkpt lat="49.83712" lon="4.84215">
        <ele>355</ele>
        <time>2022-08-19T09:11:56.000Z</time>
      </trkpt>
      <trkpt lat="49.83708" lon="4.84213">
        <ele>356</ele>
        <time>2022-08-19T09:11:57.000Z</time>
      </trkpt>
      <trkpt lat="49.83704" lon="4.84212">
        <ele>356</ele>
        <time>2022-08-19T09:11:58.000Z</time>
      </trkpt>
      <trkpt lat="49.837" lon="4.84212">
        <ele>356</ele>
        <time>2022-08-19T09:11:59.000Z</time>
      </trkpt>
      <trkpt lat="49.83696" lon="4.8421">
        <ele>357</ele>
        <time>2022-08-19T09:12:00.000Z</time>
      </trkpt>
      <trkpt lat="49.83692" lon="4.8421">
        <ele>357</ele>
        <time>2022-08-19T09:12:01.000Z</time>
      </trkpt>
      <trkpt lat="49.83689" lon="4.8421">
        <ele>357</ele>
        <time>2022-08-19T09:12:02.000Z</time>
      </trkpt>
      <trkpt lat="49.83685" lon="4.84208">
        <ele>358</ele>
        <time>2022-08-19T09:12:03.000Z</time>
      </trkpt>
      <trkpt lat="49.83682" lon="4.84207">
        <ele>358</ele>
        <time>2022-08-19T09:12:04.000Z</time>
      </trkpt>
      <trkpt lat="49.83679" lon="4.84205">
        <ele>358</ele>
        <time>2022-08-19T09:12:05.000Z</time>
      </trkpt>
      <trkpt lat="49.83675" lon="4.84204">
        <ele>358</ele>
        <time>2022-08-19T09:12:06.000Z</time>
      </trkpt>
      <trkpt lat="49.83672" lon="4.84203">
        <ele>359</ele>
        <time>2022-08-19T09:12:07.000Z</time>
      </trkpt>
      <trkpt lat="49.83669" lon="4.84202">
        <ele>359</ele>
        <time>2022-08-19T09:12:08.000Z</time>
      </trkpt>
      <trkpt lat="49.83666" lon="4.84202">
        <ele>359</ele>
        <time>2022-08-19T09:12:09.000Z</time>
      </trkpt>
      <trkpt lat="49.83663" lon="4.84203">
        <ele>360</ele>
        <time>2022-08-19T09:12:10.000Z</time>
      </trkpt>
      <trkpt lat="49.83661" lon="4.84204">
        <ele>360</ele>
        <time>2022-08-19T09:12:11.000Z</time>
      </trkpt>
      <trkpt lat="49.83659" lon="4.84206">
        <ele>360</ele>
        <time>2022-08-19T09:12:12.000Z</time>
      </trkpt>
      <trkpt lat="49.83657" lon="4.84209">
        <ele>361</ele>
        <time>2022-08-19T09:12:13.000Z</time>
      </trkpt>
      <trkpt lat="49.83655" lon="4.84213">
        <ele>361</ele>
        <time>2022-08-19T09:12:14.000Z</time>
      </trkpt>
      <trkpt lat="49.83652" lon="4.84218">
        <ele>361</ele>
        <time>2022-08-19T09:12:15.000Z</time>
      </trkpt>
      <trkpt lat="49.83649" lon="4.84222">
        <ele>361</ele>
        <time>2022-08-19T09:12:16.000Z</time>
      </trkpt>
      <trkpt lat="49.83645" lon="4.84228">
        <ele>362</ele>
        <time>2022-08-19T09:12:17.000Z</time>
      </trkpt>
      <trkpt lat="49.83643" lon="4.84236">
        <ele>362</ele>
        <time>2022-08-19T09:12:18.000Z</time>
      </trkpt>
      <trkpt lat="49.8364" lon="4.84243">
        <ele>362</ele>
        <time>2022-08-19T09:12:19.000Z</time>
      </trkpt>
      <trkpt lat="49.83637" lon="4.84252">
        <ele>362</ele>
        <time>2022-08-19T09:12:20.000Z</time>
      </trkpt>
      <trkpt lat="49.83634" lon="4.84261">
        <ele>362</ele>
        <time>2022-08-19T09:12:21.000Z</time>
      </trkpt>
      <trkpt lat="49.8363" lon="4.84271">
        <ele>362</ele>
        <time>2022-08-19T09:12:22.000Z</time>
      </trkpt>
      <trkpt lat="49.83626" lon="4.84282">
        <ele>362</ele>
        <time>2022-08-19T09:12:23.000Z</time>
      </trkpt>
      <trkpt lat="49.83623" lon="4.84293">
        <ele>362</ele>
        <time>2022-08-19T09:12:24.000Z</time>
      </trkpt>
      <trkpt lat="49.83619" lon="4.84304">
        <ele>362</ele>
        <time>2022-08-19T09:12:25.000Z</time>
      </trkpt>
      <trkpt lat="49.83615" lon="4.84315">
        <ele>362</ele>
        <time>2022-08-19T09:12:26.000Z</time>
      </trkpt>
      <trkpt lat="49.83611" lon="4.84326">
        <ele>362</ele>
        <time>2022-08-19T09:12:27.000Z</time>
      </trkpt>
      <trkpt lat="49.83607" lon="4.84337">
        <ele>362</ele>
        <time>2022-08-19T09:12:28.000Z</time>
      </trkpt>
      <trkpt lat="49.83604" lon="4.84348">
        <ele>362</ele>
        <time>2022-08-19T09:12:29.000Z</time>
      </trkpt>
      <trkpt lat="49.83601" lon="4.8436">
        <ele>362</ele>
        <time>2022-08-19T09:12:30.000Z</time>
      </trkpt>
      <trkpt lat="49.83598" lon="4.84371">
        <ele>361</ele>
        <time>2022-08-19T09:12:31.000Z</time>
      </trkpt>
      <trkpt lat="49.83596" lon="4.84382">
        <ele>361</ele>
        <time>2022-08-19T09:12:32.000Z</time>
      </trkpt>
      <trkpt lat="49.83593" lon="4.84393">
        <ele>361</ele>
        <time>2022-08-19T09:12:33.000Z</time>
      </trkpt>
      <trkpt lat="49.8359" lon="4.84404">
        <ele>360</ele>
        <time>2022-08-19T09:12:34.000Z</time>
      </trkpt>
      <trkpt lat="49.83588" lon="4.84415">
        <ele>360</ele>
        <time>2022-08-19T09:12:35.000Z</time>
      </trkpt>
      <trkpt lat="49.83586" lon="4.84426">
        <ele>360</ele>
        <time>2022-08-19T09:12:36.000Z</time>
      </trkpt>
      <trkpt lat="49.83583" lon="4.84437">
        <ele>359</ele>
        <time>2022-08-19T09:12:37.000Z</time>
      </trkpt>
      <trkpt lat="49.83581" lon="4.84448">
        <ele>359</ele>
        <time>2022-08-19T09:12:38.000Z</time>
      </trkpt>
      <trkpt lat="49.83579" lon="4.84458">
        <ele>358</ele>
        <time>2022-08-19T09:12:39.000Z</time>
      </trkpt>
      <trkpt lat="49.83577" lon="4.84466">
        <ele>358</ele>
        <time>2022-08-19T09:12:40.000Z</time>
      </trkpt>
      <trkpt lat="49.83575" lon="4.84474">
        <ele>357</ele>
        <time>2022-08-19T09:12:41.000Z</time>
      </trkpt>
      <trkpt lat="49.83573" lon="4.84482">
        <ele>356</ele>
        <time>2022-08-19T09:12:42.000Z</time>
      </trkpt>
      <trkpt lat="49.83572" lon="4.8449">
        <ele>356</ele>
        <time>2022-08-19T09:12:43.000Z</time>
      </trkpt>
      <trkpt lat="49.83571" lon="4.84498">
        <ele>355</ele>
        <time>2022-08-19T09:12:44.000Z</time>
      </trkpt>
      <trkpt lat="49.83569" lon="4.84506">
        <ele>354</ele>
        <time>2022-08-19T09:12:45.000Z</time>
      </trkpt>
      <trkpt lat="49.83567" lon="4.84515">
        <ele>353</ele>
        <time>2022-08-19T09:12:46.000Z</time>
      </trkpt>
      <trkpt lat="49.83566" lon="4.84524">
        <ele>353</ele>
        <time>2022-08-19T09:12:47.000Z</time>
      </trkpt>
      <trkpt lat="49.83564" lon="4.84533">
        <ele>352</ele>
        <time>2022-08-19T09:12:48.000Z</time>
      </trkpt>
      <trkpt lat="49.83562" lon="4.84542">
        <ele>352</ele>
        <time>2022-08-19T09:12:49.000Z</time>
      </trkpt>
      <trkpt lat="49.8356" lon="4.84552">
        <ele>351</ele>
        <time>2022-08-19T09:12:50.000Z</time>
      </trkpt>
      <trkpt lat="49.83558" lon="4.84561">
        <ele>351</ele>
        <time>2022-08-19T09:12:51.000Z</time>
      </trkpt>
      <trkpt lat="49.83557" lon="4.8457">
        <ele>350</ele>
        <time>2022-08-19T09:12:52.000Z</time>
      </trkpt>
      <trkpt lat="49.83554" lon="4.84579">
        <ele>350</ele>
        <time>2022-08-19T09:12:53.000Z</time>
      </trkpt>
      <trkpt lat="49.83553" lon="4.84588">
        <ele>350</ele>
        <time>2022-08-19T09:12:54.000Z</time>
      </trkpt>
      <trkpt lat="49.83551" lon="4.84596">
        <ele>349</ele>
        <time>2022-08-19T09:12:55.000Z</time>
      </trkpt>
      <trkpt lat="49.8355" lon="4.84605">
        <ele>349</ele>
        <time>2022-08-19T09:12:56.000Z</time>
      </trkpt>
      <trkpt lat="49.83548" lon="4.84613">
        <ele>348</ele>
        <time>2022-08-19T09:12:57.000Z</time>
      </trkpt>
      <trkpt lat="49.83546" lon="4.84622">
        <ele>348</ele>
        <time>2022-08-19T09:12:58.000Z</time>
      </trkpt>
      <trkpt lat="49.83544" lon="4.8463">
        <ele>348</ele>
        <time>2022-08-19T09:12:59.000Z</time>
      </trkpt>
      <trkpt lat="49.83543" lon="4.84639">
        <ele>347</ele>
        <time>2022-08-19T09:13:00.000Z</time>
      </trkpt>
      <trkpt lat="49.83541" lon="4.84648">
        <ele>347</ele>
        <time>2022-08-19T09:13:01.000Z</time>
      </trkpt>
      <trkpt lat="49.83539" lon="4.84656">
        <ele>347</ele>
        <time>2022-08-19T09:13:02.000Z</time>
      </trkpt>
      <trkpt lat="49.83537" lon="4.84665">
        <ele>347</ele>
        <time>2022-08-19T09:13:03.000Z</time>
      </trkpt>
      <trkpt lat="49.83535" lon="4.84674">
        <ele>346</ele>
        <time>2022-08-19T09:13:04.000Z</time>
      </trkpt>
      <trkpt lat="49.83534" lon="4.84682">
        <ele>346</ele>
        <time>2022-08-19T09:13:05.000Z</time>
      </trkpt>
      <trkpt lat="49.83532" lon="4.84691">
        <ele>346</ele>
        <time>2022-08-19T09:13:06.000Z</time>
      </trkpt>
      <trkpt lat="49.83531" lon="4.84699">
        <ele>346</ele>
        <time>2022-08-19T09:13:07.000Z</time>
      </trkpt>
      <trkpt lat="49.83529" lon="4.84707">
        <ele>346</ele>
        <time>2022-08-19T09:13:08.000Z</time>
      </trkpt>
      <trkpt lat="49.83527" lon="4.84716">
        <ele>346</ele>
        <time>2022-08-19T09:13:09.000Z</time>
      </trkpt>
      <trkpt lat="49.83526" lon="4.84724">
        <ele>345</ele>
        <time>2022-08-19T09:13:10.000Z</time>
      </trkpt>
      <trkpt lat="49.83524" lon="4.84732">
        <ele>345</ele>
        <time>2022-08-19T09:13:11.000Z</time>
      </trkpt>
      <trkpt lat="49.83523" lon="4.84741">
        <ele>345</ele>
        <time>2022-08-19T09:13:12.000Z</time>
      </trkpt>
      <trkpt lat="49.83521" lon="4.84749">
        <ele>345</ele>
        <time>2022-08-19T09:13:13.000Z</time>
      </trkpt>
      <trkpt lat="49.8352" lon="4.84757">
        <ele>345</ele>
        <time>2022-08-19T09:13:14.000Z</time>
      </trkpt>
      <trkpt lat="49.83518" lon="4.84766">
        <ele>345</ele>
        <time>2022-08-19T09:13:15.000Z</time>
      </trkpt>
      <trkpt lat="49.83517" lon="4.84774">
        <ele>345</ele>
        <time>2022-08-19T09:13:16.000Z</time>
      </trkpt>
      <trkpt lat="49.83516" lon="4.84782">
        <ele>344</ele>
        <time>2022-08-19T09:13:17.000Z</time>
      </trkpt>
      <trkpt lat="49.83514" lon="4.84791">
        <ele>344</ele>
        <time>2022-08-19T09:13:18.000Z</time>
      </trkpt>
      <trkpt lat="49.83513" lon="4.84799">
        <ele>345</ele>
        <time>2022-08-19T09:13:19.000Z</time>
      </trkpt>
      <trkpt lat="49.83512" lon="4.84808">
        <ele>345</ele>
        <time>2022-08-19T09:13:20.000Z</time>
      </trkpt>
      <trkpt lat="49.8351" lon="4.84816">
        <ele>345</ele>
        <time>2022-08-19T09:13:21.000Z</time>
      </trkpt>
      <trkpt lat="49.83509" lon="4.84825">
        <ele>345</ele>
        <time>2022-08-19T09:13:22.000Z</time>
      </trkpt>
      <trkpt lat="49.83508" lon="4.84833">
        <ele>345</ele>
        <time>2022-08-19T09:13:23.000Z</time>
      </trkpt>
      <trkpt lat="49.83506" lon="4.84842">
        <ele>345</ele>
        <time>2022-08-19T09:13:24.000Z</time>
      </trkpt>
      <trkpt lat="49.83505" lon="4.8485">
        <ele>345</ele>
        <time>2022-08-19T09:13:25.000Z</time>
      </trkpt>
      <trkpt lat="49.83503" lon="4.84859">
        <ele>345</ele>
        <time>2022-08-19T09:13:26.000Z</time>
      </trkpt>
      <trkpt lat="49.83501" lon="4.84867">
        <ele>345</ele>
        <time>2022-08-19T09:13:27.000Z</time>
      </trkpt>
      <trkpt lat="49.83499" lon="4.84874">
        <ele>345</ele>
        <time>2022-08-19T09:13:28.000Z</time>
      </trkpt>
      <trkpt lat="49.83496" lon="4.84881">
        <ele>345</ele>
        <time>2022-08-19T09:13:29.000Z</time>
      </trkpt>
      <trkpt lat="49.83493" lon="4.84888">
        <ele>345</ele>
        <time>2022-08-19T09:13:30.000Z</time>
      </trkpt>
      <trkpt lat="49.83491" lon="4.84894">
        <ele>345</ele>
        <time>2022-08-19T09:13:31.000Z</time>
      </trkpt>
      <trkpt lat="49.83488" lon="4.849">
        <ele>346</ele>
        <time>2022-08-19T09:13:32.000Z</time>
      </trkpt>
      <trkpt lat="49.83485" lon="4.84905">
        <ele>346</ele>
        <time>2022-08-19T09:13:33.000Z</time>
      </trkpt>
      <trkpt lat="49.83481" lon="4.8491">
        <ele>346</ele>
        <time>2022-08-19T09:13:34.000Z</time>
      </trkpt>
      <trkpt lat="49.83478" lon="4.84914">
        <ele>346</ele>
        <time>2022-08-19T09:13:35.000Z</time>
      </trkpt>
      <trkpt lat="49.83474" lon="4.84917">
        <ele>346</ele>
        <time>2022-08-19T09:13:36.000Z</time>
      </trkpt>
      <trkpt lat="49.83471" lon="4.84921">
        <ele>346</ele>
        <time>2022-08-19T09:13:37.000Z</time>
      </trkpt>
      <trkpt lat="49.83467" lon="4.84924">
        <ele>346</ele>
        <time>2022-08-19T09:13:38.000Z</time>
      </trkpt>
      <trkpt lat="49.83464" lon="4.84928">
        <ele>346</ele>
        <time>2022-08-19T09:13:39.000Z</time>
      </trkpt>
      <trkpt lat="49.83461" lon="4.84931">
        <ele>346</ele>
        <time>2022-08-19T09:13:40.000Z</time>
      </trkpt>
      <trkpt lat="49.83457" lon="4.84935">
        <ele>346</ele>
        <time>2022-08-19T09:13:41.000Z</time>
      </trkpt>
      <trkpt lat="49.83454" lon="4.84938">
        <ele>347</ele>
        <time>2022-08-19T09:13:42.000Z</time>
      </trkpt>
      <trkpt lat="49.8345" lon="4.84941">
        <ele>347</ele>
        <time>2022-08-19T09:13:43.000Z</time>
      </trkpt>
      <trkpt lat="49.83447" lon="4.84945">
        <ele>347</ele>
        <time>2022-08-19T09:13:44.000Z</time>
      </trkpt>
      <trkpt lat="49.83443" lon="4.84948">
        <ele>347</ele>
        <time>2022-08-19T09:13:45.000Z</time>
      </trkpt>
      <trkpt lat="49.83439" lon="4.84952">
        <ele>347</ele>
        <time>2022-08-19T09:13:46.000Z</time>
      </trkpt>
      <trkpt lat="49.83436" lon="4.84956">
        <ele>347</ele>
        <time>2022-08-19T09:13:47.000Z</time>
      </trkpt>
      <trkpt lat="49.83432" lon="4.84959">
        <ele>348</ele>
        <time>2022-08-19T09:13:48.000Z</time>
      </trkpt>
      <trkpt lat="49.83429" lon="4.84962">
        <ele>348</ele>
        <time>2022-08-19T09:13:49.000Z</time>
      </trkpt>
      <trkpt lat="49.83425" lon="4.84966">
        <ele>348</ele>
        <time>2022-08-19T09:13:50.000Z</time>
      </trkpt>
      <trkpt lat="49.83421" lon="4.84969">
        <ele>348</ele>
        <time>2022-08-19T09:13:51.000Z</time>
      </trkpt>
      <trkpt lat="49.83418" lon="4.84972">
        <ele>348</ele>
        <time>2022-08-19T09:13:52.000Z</time>
      </trkpt>
      <trkpt lat="49.83415" lon="4.84975">
        <ele>348</ele>
        <time>2022-08-19T09:13:53.000Z</time>
      </trkpt>
      <trkpt lat="49.83412" lon="4.84979">
        <ele>348</ele>
        <time>2022-08-19T09:13:54.000Z</time>
      </trkpt>
      <trkpt lat="49.83408" lon="4.84982">
        <ele>349</ele>
        <time>2022-08-19T09:13:55.000Z</time>
      </trkpt>
      <trkpt lat="49.83405" lon="4.84985">
        <ele>349</ele>
        <time>2022-08-19T09:13:56.000Z</time>
      </trkpt>
      <trkpt lat="49.83402" lon="4.84987">
        <ele>349</ele>
        <time>2022-08-19T09:13:57.000Z</time>
      </trkpt>
      <trkpt lat="49.83399" lon="4.8499">
        <ele>349</ele>
        <time>2022-08-19T09:13:58.000Z</time>
      </trkpt>
      <trkpt lat="49.83396" lon="4.84993">
        <ele>349</ele>
        <time>2022-08-19T09:13:59.000Z</time>
      </trkpt>
      <trkpt lat="49.83393" lon="4.84996">
        <ele>349</ele>
        <time>2022-08-19T09:14:00.000Z</time>
      </trkpt>
      <trkpt lat="49.83391" lon="4.84999">
        <ele>349</ele>
        <time>2022-08-19T09:14:01.000Z</time>
      </trkpt>
      <trkpt lat="49.83388" lon="4.85001">
        <ele>350</ele>
        <time>2022-08-19T09:14:02.000Z</time>
      </trkpt>
      <trkpt lat="49.83384" lon="4.85004">
        <ele>350</ele>
        <time>2022-08-19T09:14:03.000Z</time>
      </trkpt>
      <trkpt lat="49.83381" lon="4.85007">
        <ele>350</ele>
        <time>2022-08-19T09:14:04.000Z</time>
      </trkpt>
      <trkpt lat="49.83378" lon="4.85009">
        <ele>350</ele>
        <time>2022-08-19T09:14:05.000Z</time>
      </trkpt>
      <trkpt lat="49.83375" lon="4.85012">
        <ele>350</ele>
        <time>2022-08-19T09:14:06.000Z</time>
      </trkpt>
      <trkpt lat="49.83372" lon="4.85015">
        <ele>350</ele>
        <time>2022-08-19T09:14:07.000Z</time>
      </trkpt>
      <trkpt lat="49.83369" lon="4.85018">
        <ele>350</ele>
        <time>2022-08-19T09:14:08.000Z</time>
      </trkpt>
      <trkpt lat="49.83366" lon="4.8502">
        <ele>351</ele>
        <time>2022-08-19T09:14:09.000Z</time>
      </trkpt>
      <trkpt lat="49.83363" lon="4.85022">
        <ele>351</ele>
        <time>2022-08-19T09:14:10.000Z</time>
      </trkpt>
      <trkpt lat="49.8336" lon="4.85025">
        <ele>351</ele>
        <time>2022-08-19T09:14:11.000Z</time>
      </trkpt>
      <trkpt lat="49.83358" lon="4.85027">
        <ele>351</ele>
        <time>2022-08-19T09:14:12.000Z</time>
      </trkpt>
      <trkpt lat="49.83355" lon="4.85029">
        <ele>351</ele>
        <time>2022-08-19T09:14:13.000Z</time>
      </trkpt>
      <trkpt lat="49.83353" lon="4.85031">
        <ele>351</ele>
        <time>2022-08-19T09:14:14.000Z</time>
      </trkpt>
      <trkpt lat="49.83351" lon="4.85032">
        <ele>352</ele>
        <time>2022-08-19T09:14:15.000Z</time>
      </trkpt>
      <trkpt lat="49.83348" lon="4.85034">
        <ele>352</ele>
        <time>2022-08-19T09:14:16.000Z</time>
      </trkpt>
      <trkpt lat="49.83346" lon="4.85035">
        <ele>352</ele>
        <time>2022-08-19T09:14:17.000Z</time>
      </trkpt>
      <trkpt lat="49.83343" lon="4.85037">
        <ele>352</ele>
        <time>2022-08-19T09:14:18.000Z</time>
      </trkpt>
      <trkpt lat="49.83341" lon="4.85039">
        <ele>352</ele>
        <time>2022-08-19T09:14:19.000Z</time>
      </trkpt>
      <trkpt lat="49.83338" lon="4.8504">
        <ele>352</ele>
        <time>2022-08-19T09:14:20.000Z</time>
      </trkpt>
      <trkpt lat="49.83336" lon="4.8504">
        <ele>352</ele>
        <time>2022-08-19T09:14:21.000Z</time>
      </trkpt>
      <trkpt lat="49.83334" lon="4.85041">
        <ele>352</ele>
        <time>2022-08-19T09:14:22.000Z</time>
      </trkpt>
      <trkpt lat="49.83331" lon="4.85042">
        <ele>352</ele>
        <time>2022-08-19T09:14:23.000Z</time>
      </trkpt>
      <trkpt lat="49.83329" lon="4.85042">
        <ele>352</ele>
        <time>2022-08-19T09:14:24.000Z</time>
      </trkpt>
      <trkpt lat="49.83326" lon="4.85043">
        <ele>353</ele>
        <time>2022-08-19T09:14:25.000Z</time>
      </trkpt>
      <trkpt lat="49.83324" lon="4.85043">
        <ele>353</ele>
        <time>2022-08-19T09:14:26.000Z</time>
      </trkpt>
      <trkpt lat="49.83321" lon="4.85043">
        <ele>353</ele>
        <time>2022-08-19T09:14:27.000Z</time>
      </trkpt>
      <trkpt lat="49.83319" lon="4.85044">
        <ele>353</ele>
        <time>2022-08-19T09:14:28.000Z</time>
      </trkpt>
      <trkpt lat="49.83316" lon="4.85044">
        <ele>353</ele>
        <time>2022-08-19T09:14:29.000Z</time>
      </trkpt>
      <trkpt lat="49.83313" lon="4.85045">
        <ele>354</ele>
        <time>2022-08-19T09:14:30.000Z</time>
      </trkpt>
      <trkpt lat="49.8331" lon="4.85046">
        <ele>354</ele>
        <time>2022-08-19T09:14:31.000Z</time>
      </trkpt>
      <trkpt lat="49.83307" lon="4.85047">
        <ele>354</ele>
        <time>2022-08-19T09:14:32.000Z</time>
      </trkpt>
      <trkpt lat="49.83304" lon="4.85047">
        <ele>355</ele>
        <time>2022-08-19T09:14:33.000Z</time>
      </trkpt>
      <trkpt lat="49.83302" lon="4.85049">
        <ele>355</ele>
        <time>2022-08-19T09:14:34.000Z</time>
      </trkpt>
      <trkpt lat="49.83299" lon="4.8505">
        <ele>355</ele>
        <time>2022-08-19T09:14:35.000Z</time>
      </trkpt>
      <trkpt lat="49.83296" lon="4.85051">
        <ele>355</ele>
        <time>2022-08-19T09:14:36.000Z</time>
      </trkpt>
      <trkpt lat="49.83293" lon="4.85051">
        <ele>356</ele>
        <time>2022-08-19T09:14:37.000Z</time>
      </trkpt>
      <trkpt lat="49.8329" lon="4.85052">
        <ele>356</ele>
        <time>2022-08-19T09:14:38.000Z</time>
      </trkpt>
      <trkpt lat="49.83287" lon="4.85053">
        <ele>356</ele>
        <time>2022-08-19T09:14:39.000Z</time>
      </trkpt>
      <trkpt lat="49.83284" lon="4.85053">
        <ele>357</ele>
        <time>2022-08-19T09:14:40.000Z</time>
      </trkpt>
      <trkpt lat="49.83281" lon="4.85054">
        <ele>357</ele>
        <time>2022-08-19T09:14:41.000Z</time>
      </trkpt>
      <trkpt lat="49.83278" lon="4.85055">
        <ele>358</ele>
        <time>2022-08-19T09:14:42.000Z</time>
      </trkpt>
      <trkpt lat="49.83275" lon="4.85056">
        <ele>358</ele>
        <time>2022-08-19T09:14:43.000Z</time>
      </trkpt>
      <trkpt lat="49.83272" lon="4.85057">
        <ele>358</ele>
        <time>2022-08-19T09:14:44.000Z</time>
      </trkpt>
      <trkpt lat="49.8327" lon="4.85058">
        <ele>359</ele>
        <time>2022-08-19T09:14:45.000Z</time>
      </trkpt>
      <trkpt lat="49.83268" lon="4.85061">
        <ele>359</ele>
        <time>2022-08-19T09:14:46.000Z</time>
      </trkpt>
      <trkpt lat="49.83267" lon="4.85064">
        <ele>360</ele>
        <time>2022-08-19T09:14:47.000Z</time>
      </trkpt>
      <trkpt lat="49.83267" lon="4.85068">
        <ele>360</ele>
        <time>2022-08-19T09:14:48.000Z</time>
      </trkpt>
      <trkpt lat="49.83268" lon="4.85071">
        <ele>360</ele>
        <time>2022-08-19T09:14:49.000Z</time>
      </trkpt>
      <trkpt lat="49.8327" lon="4.85073">
        <ele>361</ele>
        <time>2022-08-19T09:14:50.000Z</time>
      </trkpt>
      <trkpt lat="49.83273" lon="4.85076">
        <ele>361</ele>
        <time>2022-08-19T09:14:51.000Z</time>
      </trkpt>
      <trkpt lat="49.83276" lon="4.85079">
        <ele>361</ele>
        <time>2022-08-19T09:14:52.000Z</time>
      </trkpt>
      <trkpt lat="49.83279" lon="4.85081">
        <ele>361</ele>
        <time>2022-08-19T09:14:53.000Z</time>
      </trkpt>
      <trkpt lat="49.83282" lon="4.85083">
        <ele>361</ele>
        <time>2022-08-19T09:14:54.000Z</time>
      </trkpt>
      <trkpt lat="49.83285" lon="4.85085">
        <ele>361</ele>
        <time>2022-08-19T09:14:55.000Z</time>
      </trkpt>
      <trkpt lat="49.83288" lon="4.85086">
        <ele>361</ele>
        <time>2022-08-19T09:14:56.000Z</time>
      </trkpt>
      <trkpt lat="49.83292" lon="4.85088">
        <ele>361</ele>
        <time>2022-08-19T09:14:57.000Z</time>
      </trkpt>
      <trkpt lat="49.83295" lon="4.8509">
        <ele>361</ele>
        <time>2022-08-19T09:14:58.000Z</time>
      </trkpt>
      <trkpt lat="49.83299" lon="4.85092">
        <ele>361</ele>
        <time>2022-08-19T09:14:59.000Z</time>
      </trkpt>
      <trkpt lat="49.83302" lon="4.85093">
        <ele>361</ele>
        <time>2022-08-19T09:15:00.000Z</time>
      </trkpt>
      <trkpt lat="49.83305" lon="4.85095">
        <ele>361</ele>
        <time>2022-08-19T09:15:01.000Z</time>
      </trkpt>
      <trkpt lat="49.83309" lon="4.85098">
        <ele>361</ele>
        <time>2022-08-19T09:15:02.000Z</time>
      </trkpt>
      <trkpt lat="49.83313" lon="4.85101">
        <ele>361</ele>
        <time>2022-08-19T09:15:03.000Z</time>
      </trkpt>
      <trkpt lat="49.83317" lon="4.85104">
        <ele>361</ele>
        <time>2022-08-19T09:15:04.000Z</time>
      </trkpt>
      <trkpt lat="49.83322" lon="4.85107">
        <ele>361</ele>
        <time>2022-08-19T09:15:05.000Z</time>
      </trkpt>
      <trkpt lat="49.83326" lon="4.8511">
        <ele>361</ele>
        <time>2022-08-19T09:15:06.000Z</time>
      </trkpt>
      <trkpt lat="49.83331" lon="4.85114">
        <ele>361</ele>
        <time>2022-08-19T09:15:07.000Z</time>
      </trkpt>
      <trkpt lat="49.83335" lon="4.85118">
        <ele>361</ele>
        <time>2022-08-19T09:15:08.000Z</time>
      </trkpt>
      <trkpt lat="49.83338" lon="4.85123">
        <ele>361</ele>
        <time>2022-08-19T09:15:09.000Z</time>
      </trkpt>
      <trkpt lat="49.83342" lon="4.85127">
        <ele>361</ele>
        <time>2022-08-19T09:15:10.000Z</time>
      </trkpt>
      <trkpt lat="49.83345" lon="4.85132">
        <ele>361</ele>
        <time>2022-08-19T09:15:11.000Z</time>
      </trkpt>
      <trkpt lat="49.83348" lon="4.85137">
        <ele>361</ele>
        <time>2022-08-19T09:15:12.000Z</time>
      </trkpt>
      <trkpt lat="49.8335" lon="4.85144">
        <ele>361</ele>
        <time>2022-08-19T09:15:13.000Z</time>
      </trkpt>
      <trkpt lat="49.83351" lon="4.8515">
        <ele>361</ele>
        <time>2022-08-19T09:15:14.000Z</time>
      </trkpt>
      <trkpt lat="49.83351" lon="4.85157">
        <ele>360</ele>
        <time>2022-08-19T09:15:15.000Z</time>
      </trkpt>
      <trkpt lat="49.83351" lon="4.85164">
        <ele>360</ele>
        <time>2022-08-19T09:15:16.000Z</time>
      </trkpt>
      <trkpt lat="49.8335" lon="4.8517">
        <ele>360</ele>
        <time>2022-08-19T09:15:17.000Z</time>
      </trkpt>
      <trkpt lat="49.83348" lon="4.85175">
        <ele>360</ele>
        <time>2022-08-19T09:15:18.000Z</time>
      </trkpt>
      <trkpt lat="49.83346" lon="4.8518">
        <ele>360</ele>
        <time>2022-08-19T09:15:19.000Z</time>
      </trkpt>
      <trkpt lat="49.83343" lon="4.85186">
        <ele>360</ele>
        <time>2022-08-19T09:15:20.000Z</time>
      </trkpt>
      <trkpt lat="49.8334" lon="4.85191">
        <ele>360</ele>
        <time>2022-08-19T09:15:21.000Z</time>
      </trkpt>
      <trkpt lat="49.83338" lon="4.85196">
        <ele>360</ele>
        <time>2022-08-19T09:15:22.000Z</time>
      </trkpt>
      <trkpt lat="49.83335" lon="4.85201">
        <ele>360</ele>
        <time>2022-08-19T09:15:23.000Z</time>
      </trkpt>
      <trkpt lat="49.83332" lon="4.85207">
        <ele>360</ele>
        <time>2022-08-19T09:15:24.000Z</time>
      </trkpt>
      <trkpt lat="49.83329" lon="4.85212">
        <ele>360</ele>
        <time>2022-08-19T09:15:25.000Z</time>
      </trkpt>
      <trkpt lat="49.83325" lon="4.85218">
        <ele>359</ele>
        <time>2022-08-19T09:15:26.000Z</time>
      </trkpt>
      <trkpt lat="49.83322" lon="4.85223">
        <ele>359</ele>
        <time>2022-08-19T09:15:27.000Z</time>
      </trkpt>
      <trkpt lat="49.83319" lon="4.8523">
        <ele>359</ele>
        <time>2022-08-19T09:15:28.000Z</time>
      </trkpt>
      <trkpt lat="49.83315" lon="4.85236">
        <ele>359</ele>
        <time>2022-08-19T09:15:29.000Z</time>
      </trkpt>
      <trkpt lat="49.83312" lon="4.85241">
        <ele>359</ele>
        <time>2022-08-19T09:15:30.000Z</time>
      </trkpt>
      <trkpt lat="49.83309" lon="4.85247">
        <ele>359</ele>
        <time>2022-08-19T09:15:31.000Z</time>
      </trkpt>
      <trkpt lat="49.83306" lon="4.85252">
        <ele>359</ele>
        <time>2022-08-19T09:15:32.000Z</time>
      </trkpt>
      <trkpt lat="49.83303" lon="4.85258">
        <ele>359</ele>
        <time>2022-08-19T09:15:33.000Z</time>
      </trkpt>
      <trkpt lat="49.833" lon="4.85263">
        <ele>360</ele>
        <time>2022-08-19T09:15:34.000Z</time>
      </trkpt>
      <trkpt lat="49.83298" lon="4.85268">
        <ele>360</ele>
        <time>2022-08-19T09:15:35.000Z</time>
      </trkpt>
      <trkpt lat="49.83296" lon="4.85273">
        <ele>360</ele>
        <time>2022-08-19T09:15:36.000Z</time>
      </trkpt>
      <trkpt lat="49.83293" lon="4.85278">
        <ele>360</ele>
        <time>2022-08-19T09:15:37.000Z</time>
      </trkpt>
      <trkpt lat="49.83291" lon="4.85283">
        <ele>360</ele>
        <time>2022-08-19T09:15:38.000Z</time>
      </trkpt>
      <trkpt lat="49.83288" lon="4.85289">
        <ele>360</ele>
        <time>2022-08-19T09:15:39.000Z</time>
      </trkpt>
      <trkpt lat="49.83285" lon="4.85293">
        <ele>360</ele>
        <time>2022-08-19T09:15:40.000Z</time>
      </trkpt>
      <trkpt lat="49.83283" lon="4.85298">
        <ele>360</ele>
        <time>2022-08-19T09:15:41.000Z</time>
      </trkpt>
      <trkpt lat="49.8328" lon="4.85303">
        <ele>360</ele>
        <time>2022-08-19T09:15:42.000Z</time>
      </trkpt>
      <trkpt lat="49.83278" lon="4.85307">
        <ele>360</ele>
        <time>2022-08-19T09:15:43.000Z</time>
      </trkpt>
      <trkpt lat="49.83275" lon="4.85312">
        <ele>360</ele>
        <time>2022-08-19T09:15:44.000Z</time>
      </trkpt>
      <trkpt lat="49.83272" lon="4.85316">
        <ele>360</ele>
        <time>2022-08-19T09:15:45.000Z</time>
      </trkpt>
      <trkpt lat="49.8327" lon="4.8532">
        <ele>360</ele>
        <time>2022-08-19T09:15:46.000Z</time>
      </trkpt>
      <trkpt lat="49.83268" lon="4.85325">
        <ele>360</ele>
        <time>2022-08-19T09:15:47.000Z</time>
      </trkpt>
      <trkpt lat="49.83265" lon="4.85329">
        <ele>360</ele>
        <time>2022-08-19T09:15:48.000Z</time>
      </trkpt>
      <trkpt lat="49.83263" lon="4.85333">
        <ele>360</ele>
        <time>2022-08-19T09:15:49.000Z</time>
      </trkpt>
      <trkpt lat="49.8326" lon="4.85338">
        <ele>360</ele>
        <time>2022-08-19T09:15:50.000Z</time>
      </trkpt>
      <trkpt lat="49.83258" lon="4.85342">
        <ele>360</ele>
        <time>2022-08-19T09:15:51.000Z</time>
      </trkpt>
      <trkpt lat="49.83254" lon="4.85346">
        <ele>360</ele>
        <time>2022-08-19T09:15:52.000Z</time>
      </trkpt>
      <trkpt lat="49.83252" lon="4.85351">
        <ele>360</ele>
        <time>2022-08-19T09:15:53.000Z</time>
      </trkpt>
      <trkpt lat="49.83249" lon="4.85356">
        <ele>360</ele>
        <time>2022-08-19T09:15:54.000Z</time>
      </trkpt>
      <trkpt lat="49.83246" lon="4.85361">
        <ele>360</ele>
        <time>2022-08-19T09:15:55.000Z</time>
      </trkpt>
      <trkpt lat="49.83244" lon="4.85366">
        <ele>360</ele>
        <time>2022-08-19T09:15:56.000Z</time>
      </trkpt>
      <trkpt lat="49.83243" lon="4.8537">
        <ele>360</ele>
        <time>2022-08-19T09:15:57.000Z</time>
      </trkpt>
      <trkpt lat="49.83241" lon="4.85375">
        <ele>360</ele>
        <time>2022-08-19T09:15:58.000Z</time>
      </trkpt>
      <trkpt lat="49.83239" lon="4.8538">
        <ele>360</ele>
        <time>2022-08-19T09:15:59.000Z</time>
      </trkpt>
      <trkpt lat="49.83237" lon="4.85384">
        <ele>360</ele>
        <time>2022-08-19T09:16:00.000Z</time>
      </trkpt>
      <trkpt lat="49.83234" lon="4.85389">
        <ele>360</ele>
        <time>2022-08-19T09:16:01.000Z</time>
      </trkpt>
      <trkpt lat="49.83232" lon="4.85394">
        <ele>359</ele>
        <time>2022-08-19T09:16:02.000Z</time>
      </trkpt>
      <trkpt lat="49.83229" lon="4.85399">
        <ele>359</ele>
        <time>2022-08-19T09:16:03.000Z</time>
      </trkpt>
      <trkpt lat="49.83226" lon="4.85405">
        <ele>359</ele>
        <time>2022-08-19T09:16:04.000Z</time>
      </trkpt>
      <trkpt lat="49.83223" lon="4.85411">
        <ele>359</ele>
        <time>2022-08-19T09:16:05.000Z</time>
      </trkpt>
      <trkpt lat="49.8322" lon="4.85418">
        <ele>359</ele>
        <time>2022-08-19T09:16:06.000Z</time>
      </trkpt>
      <trkpt lat="49.83217" lon="4.85424">
        <ele>359</ele>
        <time>2022-08-19T09:16:07.000Z</time>
      </trkpt>
      <trkpt lat="49.83214" lon="4.85431">
        <ele>358</ele>
        <time>2022-08-19T09:16:08.000Z</time>
      </trkpt>
      <trkpt lat="49.83211" lon="4.85438">
        <ele>358</ele>
        <time>2022-08-19T09:16:09.000Z</time>
      </trkpt>
      <trkpt lat="49.83208" lon="4.85444">
        <ele>358</ele>
        <time>2022-08-19T09:16:10.000Z</time>
      </trkpt>
      <trkpt lat="49.83204" lon="4.85451">
        <ele>358</ele>
        <time>2022-08-19T09:16:11.000Z</time>
      </trkpt>
      <trkpt lat="49.832" lon="4.85457">
        <ele>357</ele>
        <time>2022-08-19T09:16:12.000Z</time>
      </trkpt>
      <trkpt lat="49.83196" lon="4.85464">
        <ele>357</ele>
        <time>2022-08-19T09:16:13.000Z</time>
      </trkpt>
      <trkpt lat="49.83193" lon="4.8547">
        <ele>357</ele>
        <time>2022-08-19T09:16:14.000Z</time>
      </trkpt>
      <trkpt lat="49.8319" lon="4.85477">
        <ele>356</ele>
        <time>2022-08-19T09:16:15.000Z</time>
      </trkpt>
      <trkpt lat="49.83187" lon="4.85484">
        <ele>356</ele>
        <time>2022-08-19T09:16:16.000Z</time>
      </trkpt>
      <trkpt lat="49.83184" lon="4.85491">
        <ele>356</ele>
        <time>2022-08-19T09:16:17.000Z</time>
      </trkpt>
      <trkpt lat="49.8318" lon="4.85498">
        <ele>355</ele>
        <time>2022-08-19T09:16:18.000Z</time>
      </trkpt>
      <trkpt lat="49.83176" lon="4.85506">
        <ele>355</ele>
        <time>2022-08-19T09:16:19.000Z</time>
      </trkpt>
      <trkpt lat="49.83173" lon="4.85515">
        <ele>354</ele>
        <time>2022-08-19T09:16:20.000Z</time>
      </trkpt>
      <trkpt lat="49.83169" lon="4.85524">
        <ele>353</ele>
        <time>2022-08-19T09:16:21.000Z</time>
      </trkpt>
      <trkpt lat="49.83166" lon="4.85532">
        <ele>352</ele>
        <time>2022-08-19T09:16:22.000Z</time>
      </trkpt>
      <trkpt lat="49.83162" lon="4.8554">
        <ele>352</ele>
        <time>2022-08-19T09:16:23.000Z</time>
      </trkpt>
      <trkpt lat="49.83158" lon="4.85547">
        <ele>351</ele>
        <time>2022-08-19T09:16:24.000Z</time>
      </trkpt>
      <trkpt lat="49.83153" lon="4.85556">
        <ele>350</ele>
        <time>2022-08-19T09:16:25.000Z</time>
      </trkpt>
      <trkpt lat="49.83149" lon="4.85565">
        <ele>349</ele>
        <time>2022-08-19T09:16:26.000Z</time>
      </trkpt>
      <trkpt lat="49.83145" lon="4.85572">
        <ele>348</ele>
        <time>2022-08-19T09:16:27.000Z</time>
      </trkpt>
      <trkpt lat="49.83141" lon="4.8558">
        <ele>347</ele>
        <time>2022-08-19T09:16:28.000Z</time>
      </trkpt>
      <trkpt lat="49.83137" lon="4.85588">
        <ele>347</ele>
        <time>2022-08-19T09:16:29.000Z</time>
      </trkpt>
      <trkpt lat="49.83134" lon="4.85595">
        <ele>346</ele>
        <time>2022-08-19T09:16:30.000Z</time>
      </trkpt>
      <trkpt lat="49.8313" lon="4.85602">
        <ele>345</ele>
        <time>2022-08-19T09:16:31.000Z</time>
      </trkpt>
      <trkpt lat="49.83126" lon="4.85609">
        <ele>345</ele>
        <time>2022-08-19T09:16:32.000Z</time>
      </trkpt>
      <trkpt lat="49.83121" lon="4.85618">
        <ele>344</ele>
        <time>2022-08-19T09:16:33.000Z</time>
      </trkpt>
      <trkpt lat="49.83116" lon="4.85626">
        <ele>343</ele>
        <time>2022-08-19T09:16:34.000Z</time>
      </trkpt>
      <trkpt lat="49.83111" lon="4.85634">
        <ele>343</ele>
        <time>2022-08-19T09:16:35.000Z</time>
      </trkpt>
      <trkpt lat="49.83106" lon="4.85641">
        <ele>342</ele>
        <time>2022-08-19T09:16:36.000Z</time>
      </trkpt>
      <trkpt lat="49.83101" lon="4.85648">
        <ele>342</ele>
        <time>2022-08-19T09:16:37.000Z</time>
      </trkpt>
      <trkpt lat="49.83095" lon="4.85653">
        <ele>341</ele>
        <time>2022-08-19T09:16:38.000Z</time>
      </trkpt>
      <trkpt lat="49.8309" lon="4.85658">
        <ele>341</ele>
        <time>2022-08-19T09:16:39.000Z</time>
      </trkpt>
      <trkpt lat="49.83085" lon="4.85662">
        <ele>340</ele>
        <time>2022-08-19T09:16:40.000Z</time>
      </trkpt>
      <trkpt lat="49.8308" lon="4.85665">
        <ele>340</ele>
        <time>2022-08-19T09:16:41.000Z</time>
      </trkpt>
      <trkpt lat="49.83076" lon="4.85669">
        <ele>340</ele>
        <time>2022-08-19T09:16:42.000Z</time>
      </trkpt>
      <trkpt lat="49.83072" lon="4.85673">
        <ele>339</ele>
        <time>2022-08-19T09:16:43.000Z</time>
      </trkpt>
      <trkpt lat="49.83069" lon="4.85676">
        <ele>339</ele>
        <time>2022-08-19T09:16:44.000Z</time>
      </trkpt>
      <trkpt lat="49.83066" lon="4.85679">
        <ele>338</ele>
        <time>2022-08-19T09:16:45.000Z</time>
      </trkpt>
      <trkpt lat="49.83063" lon="4.85683">
        <ele>338</ele>
        <time>2022-08-19T09:16:46.000Z</time>
      </trkpt>
      <trkpt lat="49.8306" lon="4.85686">
        <ele>337</ele>
        <time>2022-08-19T09:16:47.000Z</time>
      </trkpt>
      <trkpt lat="49.83058" lon="4.85689">
        <ele>337</ele>
        <time>2022-08-19T09:16:48.000Z</time>
      </trkpt>
      <trkpt lat="49.83055" lon="4.85692">
        <ele>336</ele>
        <time>2022-08-19T09:16:49.000Z</time>
      </trkpt>
      <trkpt lat="49.83053" lon="4.85695">
        <ele>336</ele>
        <time>2022-08-19T09:16:50.000Z</time>
      </trkpt>
      <trkpt lat="49.83051" lon="4.85697">
        <ele>335</ele>
        <time>2022-08-19T09:16:51.000Z</time>
      </trkpt>
      <trkpt lat="49.83049" lon="4.857">
        <ele>335</ele>
        <time>2022-08-19T09:16:52.000Z</time>
      </trkpt>
      <trkpt lat="49.83046" lon="4.85703">
        <ele>334</ele>
        <time>2022-08-19T09:16:53.000Z</time>
      </trkpt>
      <trkpt lat="49.83044" lon="4.85706">
        <ele>334</ele>
        <time>2022-08-19T09:16:54.000Z</time>
      </trkpt>
      <trkpt lat="49.83042" lon="4.85709">
        <ele>334</ele>
        <time>2022-08-19T09:16:55.000Z</time>
      </trkpt>
      <trkpt lat="49.8304" lon="4.85713">
        <ele>334</ele>
        <time>2022-08-19T09:16:56.000Z</time>
      </trkpt>
      <trkpt lat="49.83038" lon="4.85717">
        <ele>333</ele>
        <time>2022-08-19T09:16:57.000Z</time>
      </trkpt>
      <trkpt lat="49.83036" lon="4.8572">
        <ele>333</ele>
        <time>2022-08-19T09:16:58.000Z</time>
      </trkpt>
      <trkpt lat="49.83034" lon="4.85723">
        <ele>333</ele>
        <time>2022-08-19T09:16:59.000Z</time>
      </trkpt>
      <trkpt lat="49.83032" lon="4.85727">
        <ele>333</ele>
        <time>2022-08-19T09:17:00.000Z</time>
      </trkpt>
      <trkpt lat="49.8303" lon="4.85729">
        <ele>333</ele>
        <time>2022-08-19T09:17:01.000Z</time>
      </trkpt>
      <trkpt lat="49.83028" lon="4.85732">
        <ele>333</ele>
        <time>2022-08-19T09:17:02.000Z</time>
      </trkpt>
      <trkpt lat="49.83025" lon="4.85735">
        <ele>333</ele>
        <time>2022-08-19T09:17:03.000Z</time>
      </trkpt>
      <trkpt lat="49.83023" lon="4.85737">
        <ele>333</ele>
        <time>2022-08-19T09:17:04.000Z</time>
      </trkpt>
      <trkpt lat="49.83021" lon="4.85738">
        <ele>333</ele>
        <time>2022-08-19T09:17:05.000Z</time>
      </trkpt>
      <trkpt lat="49.83018" lon="4.8574">
        <ele>333</ele>
        <time>2022-08-19T09:17:06.000Z</time>
      </trkpt>
      <trkpt lat="49.83016" lon="4.85742">
        <ele>333</ele>
        <time>2022-08-19T09:17:07.000Z</time>
      </trkpt>
      <trkpt lat="49.83013" lon="4.85743">
        <ele>333</ele>
        <time>2022-08-19T09:17:08.000Z</time>
      </trkpt>
      <trkpt lat="49.83011" lon="4.85745">
        <ele>333</ele>
        <time>2022-08-19T09:17:09.000Z</time>
      </trkpt>
      <trkpt lat="49.83008" lon="4.85747">
        <ele>333</ele>
        <time>2022-08-19T09:17:10.000Z</time>
      </trkpt>
      <trkpt lat="49.83005" lon="4.85748">
        <ele>333</ele>
        <time>2022-08-19T09:17:11.000Z</time>
      </trkpt>
      <trkpt lat="49.83002" lon="4.8575">
        <ele>333</ele>
        <time>2022-08-19T09:17:12.000Z</time>
      </trkpt>
      <trkpt lat="49.82999" lon="4.85751">
        <ele>333</ele>
        <time>2022-08-19T09:17:13.000Z</time>
      </trkpt>
      <trkpt lat="49.82996" lon="4.85752">
        <ele>334</ele>
        <time>2022-08-19T09:17:14.000Z</time>
      </trkpt>
      <trkpt lat="49.82994" lon="4.85753">
        <ele>334</ele>
        <time>2022-08-19T09:17:15.000Z</time>
      </trkpt>
      <trkpt lat="49.82992" lon="4.85754">
        <ele>334</ele>
        <time>2022-08-19T09:17:16.000Z</time>
      </trkpt>
      <trkpt lat="49.8299" lon="4.85755">
        <ele>334</ele>
        <time>2022-08-19T09:17:17.000Z</time>
      </trkpt>
      <trkpt lat="49.8299" lon="4.85755">
        <ele>335</ele>
        <time>2022-08-19T09:17:18.000Z</time>
      </trkpt>
      <trkpt lat="49.82989" lon="4.85754">
        <ele>335</ele>
        <time>2022-08-19T09:17:19.000Z</time>
      </trkpt>
      <trkpt lat="49.82988" lon="4.85753">
        <ele>335</ele>
        <time>2022-08-19T09:17:20.000Z</time>
      </trkpt>
      <trkpt lat="49.82988" lon="4.85753">
        <ele>335</ele>
        <time>2022-08-19T09:17:21.000Z</time>
      </trkpt>
      <trkpt lat="49.82987" lon="4.85753">
        <ele>335</ele>
        <time>2022-08-19T09:17:22.000Z</time>
      </trkpt>
      <trkpt lat="49.82987" lon="4.85753">
        <ele>335</ele>
        <time>2022-08-19T09:17:23.000Z</time>
      </trkpt>
      <trkpt lat="49.82986" lon="4.85753">
        <ele>335</ele>
        <time>2022-08-19T09:17:24.000Z</time>
      </trkpt>
      <trkpt lat="49.82984" lon="4.85753">
        <ele>335</ele>
        <time>2022-08-19T09:17:25.000Z</time>
      </trkpt>
      <trkpt lat="49.82984" lon="4.85753">
        <ele>335</ele>
        <time>2022-08-19T09:17:26.000Z</time>
      </trkpt>
      <trkpt lat="49.82983" lon="4.85753">
        <ele>336</ele>
        <time>2022-08-19T09:17:27.000Z</time>
      </trkpt>
      <trkpt lat="49.82982" lon="4.85753">
        <ele>336</ele>
        <time>2022-08-19T09:17:28.000Z</time>
      </trkpt>
      <trkpt lat="49.82981" lon="4.85755">
        <ele>336</ele>
        <time>2022-08-19T09:17:29.000Z</time>
      </trkpt>
      <trkpt lat="49.82979" lon="4.85757">
        <ele>336</ele>
        <time>2022-08-19T09:17:30.000Z</time>
      </trkpt>
      <trkpt lat="49.82978" lon="4.8576">
        <ele>336</ele>
        <time>2022-08-19T09:17:31.000Z</time>
      </trkpt>
      <trkpt lat="49.82977" lon="4.85763">
        <ele>336</ele>
        <time>2022-08-19T09:17:32.000Z</time>
      </trkpt>
      <trkpt lat="49.82975" lon="4.85765">
        <ele>336</ele>
        <time>2022-08-19T09:17:33.000Z</time>
      </trkpt>
      <trkpt lat="49.82974" lon="4.85769">
        <ele>336</ele>
        <time>2022-08-19T09:17:34.000Z</time>
      </trkpt>
      <trkpt lat="49.82975" lon="4.85772">
        <ele>336</ele>
        <time>2022-08-19T09:17:35.000Z</time>
      </trkpt>
      <trkpt lat="49.82975" lon="4.85776">
        <ele>336</ele>
        <time>2022-08-19T09:17:36.000Z</time>
      </trkpt>
      <trkpt lat="49.82976" lon="4.8578">
        <ele>336</ele>
        <time>2022-08-19T09:17:37.000Z</time>
      </trkpt>
      <trkpt lat="49.82976" lon="4.85784">
        <ele>336</ele>
        <time>2022-08-19T09:17:38.000Z</time>
      </trkpt>
      <trkpt lat="49.82976" lon="4.85788">
        <ele>336</ele>
        <time>2022-08-19T09:17:39.000Z</time>
      </trkpt>
      <trkpt lat="49.82976" lon="4.85793">
        <ele>336</ele>
        <time>2022-08-19T09:17:40.000Z</time>
      </trkpt>
      <trkpt lat="49.82976" lon="4.85798">
        <ele>337</ele>
        <time>2022-08-19T09:17:41.000Z</time>
      </trkpt>
      <trkpt lat="49.82975" lon="4.85804">
        <ele>337</ele>
        <time>2022-08-19T09:17:42.000Z</time>
      </trkpt>
      <trkpt lat="49.82975" lon="4.8581">
        <ele>337</ele>
        <time>2022-08-19T09:17:43.000Z</time>
      </trkpt>
      <trkpt lat="49.82975" lon="4.85816">
        <ele>336</ele>
        <time>2022-08-19T09:17:44.000Z</time>
      </trkpt>
      <trkpt lat="49.82975" lon="4.85823">
        <ele>336</ele>
        <time>2022-08-19T09:17:45.000Z</time>
      </trkpt>
      <trkpt lat="49.82975" lon="4.85829">
        <ele>336</ele>
        <time>2022-08-19T09:17:46.000Z</time>
      </trkpt>
      <trkpt lat="49.82975" lon="4.85836">
        <ele>336</ele>
        <time>2022-08-19T09:17:47.000Z</time>
      </trkpt>
      <trkpt lat="49.82975" lon="4.85843">
        <ele>336</ele>
        <time>2022-08-19T09:17:48.000Z</time>
      </trkpt>
      <trkpt lat="49.82976" lon="4.8585">
        <ele>336</ele>
        <time>2022-08-19T09:17:49.000Z</time>
      </trkpt>
      <trkpt lat="49.82976" lon="4.85857">
        <ele>336</ele>
        <time>2022-08-19T09:17:50.000Z</time>
      </trkpt>
      <trkpt lat="49.82976" lon="4.85863">
        <ele>336</ele>
        <time>2022-08-19T09:17:51.000Z</time>
      </trkpt>
      <trkpt lat="49.82977" lon="4.85869">
        <ele>336</ele>
        <time>2022-08-19T09:17:52.000Z</time>
      </trkpt>
      <trkpt lat="49.82978" lon="4.85874">
        <ele>336</ele>
        <time>2022-08-19T09:17:53.000Z</time>
      </trkpt>
      <trkpt lat="49.82979" lon="4.85879">
        <ele>336</ele>
        <time>2022-08-19T09:17:54.000Z</time>
      </trkpt>
      <trkpt lat="49.82981" lon="4.85885">
        <ele>336</ele>
        <time>2022-08-19T09:17:55.000Z</time>
      </trkpt>
      <trkpt lat="49.82983" lon="4.8589">
        <ele>336</ele>
        <time>2022-08-19T09:17:56.000Z</time>
      </trkpt>
      <trkpt lat="49.82985" lon="4.85895">
        <ele>336</ele>
        <time>2022-08-19T09:17:57.000Z</time>
      </trkpt>
      <trkpt lat="49.82986" lon="4.85901">
        <ele>336</ele>
        <time>2022-08-19T09:17:58.000Z</time>
      </trkpt>
      <trkpt lat="49.82989" lon="4.85907">
        <ele>336</ele>
        <time>2022-08-19T09:17:59.000Z</time>
      </trkpt>
      <trkpt lat="49.82991" lon="4.85912">
        <ele>336</ele>
        <time>2022-08-19T09:18:00.000Z</time>
      </trkpt>
      <trkpt lat="49.82993" lon="4.85918">
        <ele>336</ele>
        <time>2022-08-19T09:18:01.000Z</time>
      </trkpt>
      <trkpt lat="49.82995" lon="4.85923">
        <ele>336</ele>
        <time>2022-08-19T09:18:02.000Z</time>
      </trkpt>
      <trkpt lat="49.82997" lon="4.85929">
        <ele>336</ele>
        <time>2022-08-19T09:18:03.000Z</time>
      </trkpt>
      <trkpt lat="49.82999" lon="4.85935">
        <ele>336</ele>
        <time>2022-08-19T09:18:04.000Z</time>
      </trkpt>
      <trkpt lat="49.83001" lon="4.85941">
        <ele>336</ele>
        <time>2022-08-19T09:18:05.000Z</time>
      </trkpt>
      <trkpt lat="49.83002" lon="4.85947">
        <ele>336</ele>
        <time>2022-08-19T09:18:06.000Z</time>
      </trkpt>
      <trkpt lat="49.83004" lon="4.85953">
        <ele>336</ele>
        <time>2022-08-19T09:18:07.000Z</time>
      </trkpt>
      <trkpt lat="49.83006" lon="4.85959">
        <ele>337</ele>
        <time>2022-08-19T09:18:08.000Z</time>
      </trkpt>
      <trkpt lat="49.83007" lon="4.85965">
        <ele>337</ele>
        <time>2022-08-19T09:18:09.000Z</time>
      </trkpt>
      <trkpt lat="49.83009" lon="4.85971">
        <ele>337</ele>
        <time>2022-08-19T09:18:10.000Z</time>
      </trkpt>
      <trkpt lat="49.8301" lon="4.85977">
        <ele>337</ele>
        <time>2022-08-19T09:18:11.000Z</time>
      </trkpt>
      <trkpt lat="49.83012" lon="4.85984">
        <ele>337</ele>
        <time>2022-08-19T09:18:12.000Z</time>
      </trkpt>
      <trkpt lat="49.83013" lon="4.8599">
        <ele>337</ele>
        <time>2022-08-19T09:18:13.000Z</time>
      </trkpt>
      <trkpt lat="49.83014" lon="4.85997">
        <ele>338</ele>
        <time>2022-08-19T09:18:14.000Z</time>
      </trkpt>
      <trkpt lat="49.83015" lon="4.86003">
        <ele>338</ele>
        <time>2022-08-19T09:18:15.000Z</time>
      </trkpt>
      <trkpt lat="49.83015" lon="4.86009">
        <ele>338</ele>
        <time>2022-08-19T09:18:16.000Z</time>
      </trkpt>
      <trkpt lat="49.83016" lon="4.86016">
        <ele>338</ele>
        <time>2022-08-19T09:18:17.000Z</time>
      </trkpt>
      <trkpt lat="49.83017" lon="4.86022">
        <ele>338</ele>
        <time>2022-08-19T09:18:18.000Z</time>
      </trkpt>
      <trkpt lat="49.83018" lon="4.86029">
        <ele>338</ele>
        <time>2022-08-19T09:18:19.000Z</time>
      </trkpt>
      <trkpt lat="49.83019" lon="4.86035">
        <ele>339</ele>
        <time>2022-08-19T09:18:20.000Z</time>
      </trkpt>
      <trkpt lat="49.83019" lon="4.8604">
        <ele>339</ele>
        <time>2022-08-19T09:18:21.000Z</time>
      </trkpt>
      <trkpt lat="49.83019" lon="4.86045">
        <ele>339</ele>
        <time>2022-08-19T09:18:22.000Z</time>
      </trkpt>
      <trkpt lat="49.83019" lon="4.86051">
        <ele>339</ele>
        <time>2022-08-19T09:18:23.000Z</time>
      </trkpt>
      <trkpt lat="49.8302" lon="4.86056">
        <ele>339</ele>
        <time>2022-08-19T09:18:24.000Z</time>
      </trkpt>
      <trkpt lat="49.83021" lon="4.86062">
        <ele>339</ele>
        <time>2022-08-19T09:18:25.000Z</time>
      </trkpt>
      <trkpt lat="49.83022" lon="4.86068">
        <ele>339</ele>
        <time>2022-08-19T09:18:26.000Z</time>
      </trkpt>
      <trkpt lat="49.83023" lon="4.86074">
        <ele>340</ele>
        <time>2022-08-19T09:18:27.000Z</time>
      </trkpt>
      <trkpt lat="49.83024" lon="4.8608">
        <ele>340</ele>
        <time>2022-08-19T09:18:28.000Z</time>
      </trkpt>
      <trkpt lat="49.83025" lon="4.86087">
        <ele>340</ele>
        <time>2022-08-19T09:18:29.000Z</time>
      </trkpt>
      <trkpt lat="49.83025" lon="4.86094">
        <ele>340</ele>
        <time>2022-08-19T09:18:30.000Z</time>
      </trkpt>
      <trkpt lat="49.83025" lon="4.861">
        <ele>340</ele>
        <time>2022-08-19T09:18:31.000Z</time>
      </trkpt>
      <trkpt lat="49.83026" lon="4.86107">
        <ele>340</ele>
        <time>2022-08-19T09:18:32.000Z</time>
      </trkpt>
      <trkpt lat="49.83026" lon="4.86113">
        <ele>340</ele>
        <time>2022-08-19T09:18:33.000Z</time>
      </trkpt>
      <trkpt lat="49.83026" lon="4.86119">
        <ele>340</ele>
        <time>2022-08-19T09:18:34.000Z</time>
      </trkpt>
      <trkpt lat="49.83026" lon="4.86124">
        <ele>341</ele>
        <time>2022-08-19T09:18:35.000Z</time>
      </trkpt>
      <trkpt lat="49.83025" lon="4.8613">
        <ele>340</ele>
        <time>2022-08-19T09:18:36.000Z</time>
      </trkpt>
      <trkpt lat="49.83025" lon="4.86135">
        <ele>341</ele>
        <time>2022-08-19T09:18:37.000Z</time>
      </trkpt>
      <trkpt lat="49.83024" lon="4.8614">
        <ele>341</ele>
        <time>2022-08-19T09:18:38.000Z</time>
      </trkpt>
      <trkpt lat="49.83025" lon="4.86145">
        <ele>340</ele>
        <time>2022-08-19T09:18:39.000Z</time>
      </trkpt>
      <trkpt lat="49.83024" lon="4.8615">
        <ele>341</ele>
        <time>2022-08-19T09:18:40.000Z</time>
      </trkpt>
      <trkpt lat="49.83024" lon="4.86156">
        <ele>341</ele>
        <time>2022-08-19T09:18:41.000Z</time>
      </trkpt>
      <trkpt lat="49.83024" lon="4.86162">
        <ele>340</ele>
        <time>2022-08-19T09:18:42.000Z</time>
      </trkpt>
      <trkpt lat="49.83023" lon="4.86168">
        <ele>340</ele>
        <time>2022-08-19T09:18:43.000Z</time>
      </trkpt>
      <trkpt lat="49.83022" lon="4.86175">
        <ele>340</ele>
        <time>2022-08-19T09:18:44.000Z</time>
      </trkpt>
      <trkpt lat="49.83021" lon="4.86181">
        <ele>340</ele>
        <time>2022-08-19T09:18:45.000Z</time>
      </trkpt>
      <trkpt lat="49.8302" lon="4.86187">
        <ele>341</ele>
        <time>2022-08-19T09:18:46.000Z</time>
      </trkpt>
      <trkpt lat="49.83018" lon="4.86193">
        <ele>341</ele>
        <time>2022-08-19T09:18:47.000Z</time>
      </trkpt>
      <trkpt lat="49.83017" lon="4.86199">
        <ele>341</ele>
        <time>2022-08-19T09:18:48.000Z</time>
      </trkpt>
      <trkpt lat="49.83016" lon="4.86206">
        <ele>341</ele>
        <time>2022-08-19T09:18:49.000Z</time>
      </trkpt>
      <trkpt lat="49.83015" lon="4.86212">
        <ele>341</ele>
        <time>2022-08-19T09:18:50.000Z</time>
      </trkpt>
      <trkpt lat="49.83013" lon="4.86218">
        <ele>341</ele>
        <time>2022-08-19T09:18:51.000Z</time>
      </trkpt>
      <trkpt lat="49.83011" lon="4.86225">
        <ele>341</ele>
        <time>2022-08-19T09:18:52.000Z</time>
      </trkpt>
      <trkpt lat="49.83009" lon="4.86231">
        <ele>341</ele>
        <time>2022-08-19T09:18:53.000Z</time>
      </trkpt>
      <trkpt lat="49.83007" lon="4.86237">
        <ele>341</ele>
        <time>2022-08-19T09:18:54.000Z</time>
      </trkpt>
      <trkpt lat="49.83006" lon="4.86244">
        <ele>341</ele>
        <time>2022-08-19T09:18:55.000Z</time>
      </trkpt>
      <trkpt lat="49.83004" lon="4.86251">
        <ele>341</ele>
        <time>2022-08-19T09:18:56.000Z</time>
      </trkpt>
      <trkpt lat="49.83002" lon="4.86257">
        <ele>341</ele>
        <time>2022-08-19T09:18:57.000Z</time>
      </trkpt>
      <trkpt lat="49.83001" lon="4.86264">
        <ele>341</ele>
        <time>2022-08-19T09:18:58.000Z</time>
      </trkpt>
      <trkpt lat="49.82999" lon="4.86271">
        <ele>341</ele>
        <time>2022-08-19T09:18:59.000Z</time>
      </trkpt>
      <trkpt lat="49.82998" lon="4.86278">
        <ele>341</ele>
        <time>2022-08-19T09:19:00.000Z</time>
      </trkpt>
      <trkpt lat="49.82997" lon="4.86284">
        <ele>341</ele>
        <time>2022-08-19T09:19:01.000Z</time>
      </trkpt>
      <trkpt lat="49.82996" lon="4.86291">
        <ele>341</ele>
        <time>2022-08-19T09:19:02.000Z</time>
      </trkpt>
      <trkpt lat="49.82995" lon="4.86298">
        <ele>341</ele>
        <time>2022-08-19T09:19:03.000Z</time>
      </trkpt>
      <trkpt lat="49.82993" lon="4.86304">
        <ele>342</ele>
        <time>2022-08-19T09:19:04.000Z</time>
      </trkpt>
      <trkpt lat="49.82991" lon="4.8631">
        <ele>342</ele>
        <time>2022-08-19T09:19:05.000Z</time>
      </trkpt>
      <trkpt lat="49.8299" lon="4.86316">
        <ele>342</ele>
        <time>2022-08-19T09:19:06.000Z</time>
      </trkpt>
      <trkpt lat="49.82988" lon="4.86322">
        <ele>342</ele>
        <time>2022-08-19T09:19:07.000Z</time>
      </trkpt>
      <trkpt lat="49.82987" lon="4.86328">
        <ele>342</ele>
        <time>2022-08-19T09:19:08.000Z</time>
      </trkpt>
      <trkpt lat="49.82985" lon="4.86334">
        <ele>343</ele>
        <time>2022-08-19T09:19:09.000Z</time>
      </trkpt>
      <trkpt lat="49.82983" lon="4.8634">
        <ele>343</ele>
        <time>2022-08-19T09:19:10.000Z</time>
      </trkpt>
      <trkpt lat="49.82981" lon="4.86346">
        <ele>343</ele>
        <time>2022-08-19T09:19:11.000Z</time>
      </trkpt>
      <trkpt lat="49.82979" lon="4.86352">
        <ele>343</ele>
        <time>2022-08-19T09:19:12.000Z</time>
      </trkpt>
      <trkpt lat="49.82976" lon="4.86356">
        <ele>343</ele>
        <time>2022-08-19T09:19:13.000Z</time>
      </trkpt>
      <trkpt lat="49.82973" lon="4.86362">
        <ele>343</ele>
        <time>2022-08-19T09:19:14.000Z</time>
      </trkpt>
      <trkpt lat="49.82971" lon="4.86367">
        <ele>343</ele>
        <time>2022-08-19T09:19:15.000Z</time>
      </trkpt>
      <trkpt lat="49.82967" lon="4.86372">
        <ele>343</ele>
        <time>2022-08-19T09:19:16.000Z</time>
      </trkpt>
      <trkpt lat="49.82965" lon="4.86378">
        <ele>343</ele>
        <time>2022-08-19T09:19:17.000Z</time>
      </trkpt>
      <trkpt lat="49.82962" lon="4.86384">
        <ele>343</ele>
        <time>2022-08-19T09:19:18.000Z</time>
      </trkpt>
      <trkpt lat="49.8296" lon="4.86389">
        <ele>344</ele>
        <time>2022-08-19T09:19:19.000Z</time>
      </trkpt>
      <trkpt lat="49.82957" lon="4.86395">
        <ele>344</ele>
        <time>2022-08-19T09:19:20.000Z</time>
      </trkpt>
      <trkpt lat="49.82954" lon="4.864">
        <ele>344</ele>
        <time>2022-08-19T09:19:21.000Z</time>
      </trkpt>
      <trkpt lat="49.82951" lon="4.86406">
        <ele>344</ele>
        <time>2022-08-19T09:19:22.000Z</time>
      </trkpt>
      <trkpt lat="49.82949" lon="4.86412">
        <ele>344</ele>
        <time>2022-08-19T09:19:23.000Z</time>
      </trkpt>
      <trkpt lat="49.82947" lon="4.86418">
        <ele>344</ele>
        <time>2022-08-19T09:19:24.000Z</time>
      </trkpt>
      <trkpt lat="49.82944" lon="4.86424">
        <ele>344</ele>
        <time>2022-08-19T09:19:25.000Z</time>
      </trkpt>
      <trkpt lat="49.82941" lon="4.86429">
        <ele>344</ele>
        <time>2022-08-19T09:19:26.000Z</time>
      </trkpt>
      <trkpt lat="49.82938" lon="4.86435">
        <ele>344</ele>
        <time>2022-08-19T09:19:27.000Z</time>
      </trkpt>
      <trkpt lat="49.82936" lon="4.86441">
        <ele>344</ele>
        <time>2022-08-19T09:19:28.000Z</time>
      </trkpt>
      <trkpt lat="49.82933" lon="4.86447">
        <ele>344</ele>
        <time>2022-08-19T09:19:29.000Z</time>
      </trkpt>
      <trkpt lat="49.8293" lon="4.86452">
        <ele>345</ele>
        <time>2022-08-19T09:19:30.000Z</time>
      </trkpt>
      <trkpt lat="49.82927" lon="4.86458">
        <ele>345</ele>
        <time>2022-08-19T09:19:31.000Z</time>
      </trkpt>
      <trkpt lat="49.82924" lon="4.86463">
        <ele>345</ele>
        <time>2022-08-19T09:19:32.000Z</time>
      </trkpt>
      <trkpt lat="49.82921" lon="4.86468">
        <ele>345</ele>
        <time>2022-08-19T09:19:33.000Z</time>
      </trkpt>
      <trkpt lat="49.82919" lon="4.86474">
        <ele>345</ele>
        <time>2022-08-19T09:19:34.000Z</time>
      </trkpt>
      <trkpt lat="49.82916" lon="4.8648">
        <ele>345</ele>
        <time>2022-08-19T09:19:35.000Z</time>
      </trkpt>
      <trkpt lat="49.82913" lon="4.86485">
        <ele>345</ele>
        <time>2022-08-19T09:19:36.000Z</time>
      </trkpt>
      <trkpt lat="49.8291" lon="4.86491">
        <ele>346</ele>
        <time>2022-08-19T09:19:37.000Z</time>
      </trkpt>
      <trkpt lat="49.82906" lon="4.86496">
        <ele>346</ele>
        <time>2022-08-19T09:19:38.000Z</time>
      </trkpt>
      <trkpt lat="49.82903" lon="4.86501">
        <ele>346</ele>
        <time>2022-08-19T09:19:39.000Z</time>
      </trkpt>
      <trkpt lat="49.829" lon="4.86506">
        <ele>346</ele>
        <time>2022-08-19T09:19:40.000Z</time>
      </trkpt>
      <trkpt lat="49.82896" lon="4.86511">
        <ele>346</ele>
        <time>2022-08-19T09:19:41.000Z</time>
      </trkpt>
      <trkpt lat="49.82892" lon="4.86515">
        <ele>346</ele>
        <time>2022-08-19T09:19:42.000Z</time>
      </trkpt>
      <trkpt lat="49.82889" lon="4.86519">
        <ele>346</ele>
        <time>2022-08-19T09:19:43.000Z</time>
      </trkpt>
      <trkpt lat="49.82885" lon="4.86523">
        <ele>346</ele>
        <time>2022-08-19T09:19:44.000Z</time>
      </trkpt>
      <trkpt lat="49.82882" lon="4.86527">
        <ele>346</ele>
        <time>2022-08-19T09:19:45.000Z</time>
      </trkpt>
      <trkpt lat="49.82878" lon="4.8653">
        <ele>346</ele>
        <time>2022-08-19T09:19:46.000Z</time>
      </trkpt>
      <trkpt lat="49.82874" lon="4.86534">
        <ele>346</ele>
        <time>2022-08-19T09:19:47.000Z</time>
      </trkpt>
      <trkpt lat="49.8287" lon="4.86538">
        <ele>346</ele>
        <time>2022-08-19T09:19:48.000Z</time>
      </trkpt>
      <trkpt lat="49.82866" lon="4.86541">
        <ele>346</ele>
        <time>2022-08-19T09:19:49.000Z</time>
      </trkpt>
      <trkpt lat="49.82862" lon="4.86544">
        <ele>347</ele>
        <time>2022-08-19T09:19:50.000Z</time>
      </trkpt>
      <trkpt lat="49.82858" lon="4.86548">
        <ele>347</ele>
        <time>2022-08-19T09:19:51.000Z</time>
      </trkpt>
      <trkpt lat="49.82854" lon="4.8655">
        <ele>347</ele>
        <time>2022-08-19T09:19:52.000Z</time>
      </trkpt>
      <trkpt lat="49.82851" lon="4.86553">
        <ele>347</ele>
        <time>2022-08-19T09:19:53.000Z</time>
      </trkpt>
      <trkpt lat="49.82848" lon="4.86556">
        <ele>347</ele>
        <time>2022-08-19T09:19:54.000Z</time>
      </trkpt>
      <trkpt lat="49.82844" lon="4.86559">
        <ele>347</ele>
        <time>2022-08-19T09:19:55.000Z</time>
      </trkpt>
      <trkpt lat="49.8284" lon="4.86562">
        <ele>347</ele>
        <time>2022-08-19T09:19:56.000Z</time>
      </trkpt>
      <trkpt lat="49.82837" lon="4.86565">
        <ele>348</ele>
        <time>2022-08-19T09:19:57.000Z</time>
      </trkpt>
      <trkpt lat="49.82833" lon="4.86568">
        <ele>348</ele>
        <time>2022-08-19T09:19:58.000Z</time>
      </trkpt>
      <trkpt lat="49.8283" lon="4.8657">
        <ele>348</ele>
        <time>2022-08-19T09:19:59.000Z</time>
      </trkpt>
      <trkpt lat="49.82826" lon="4.86573">
        <ele>348</ele>
        <time>2022-08-19T09:20:00.000Z</time>
      </trkpt>
      <trkpt lat="49.82822" lon="4.86574">
        <ele>348</ele>
        <time>2022-08-19T09:20:01.000Z</time>
      </trkpt>
      <trkpt lat="49.82818" lon="4.86576">
        <ele>348</ele>
        <time>2022-08-19T09:20:02.000Z</time>
      </trkpt>
      <trkpt lat="49.82814" lon="4.86578">
        <ele>348</ele>
        <time>2022-08-19T09:20:03.000Z</time>
      </trkpt>
      <trkpt lat="49.8281" lon="4.86579">
        <ele>349</ele>
        <time>2022-08-19T09:20:04.000Z</time>
      </trkpt>
      <trkpt lat="49.82806" lon="4.86581">
        <ele>349</ele>
        <time>2022-08-19T09:20:05.000Z</time>
      </trkpt>
      <trkpt lat="49.82803" lon="4.86583">
        <ele>349</ele>
        <time>2022-08-19T09:20:06.000Z</time>
      </trkpt>
      <trkpt lat="49.82799" lon="4.86586">
        <ele>349</ele>
        <time>2022-08-19T09:20:07.000Z</time>
      </trkpt>
      <trkpt lat="49.82796" lon="4.86588">
        <ele>349</ele>
        <time>2022-08-19T09:20:08.000Z</time>
      </trkpt>
      <trkpt lat="49.82792" lon="4.8659">
        <ele>350</ele>
        <time>2022-08-19T09:20:09.000Z</time>
      </trkpt>
      <trkpt lat="49.82788" lon="4.86594">
        <ele>350</ele>
        <time>2022-08-19T09:20:10.000Z</time>
      </trkpt>
      <trkpt lat="49.82785" lon="4.86597">
        <ele>350</ele>
        <time>2022-08-19T09:20:11.000Z</time>
      </trkpt>
      <trkpt lat="49.82781" lon="4.86601">
        <ele>350</ele>
        <time>2022-08-19T09:20:12.000Z</time>
      </trkpt>
      <trkpt lat="49.82778" lon="4.86603">
        <ele>350</ele>
        <time>2022-08-19T09:20:13.000Z</time>
      </trkpt>
      <trkpt lat="49.82774" lon="4.86606">
        <ele>350</ele>
        <time>2022-08-19T09:20:14.000Z</time>
      </trkpt>
      <trkpt lat="49.8277" lon="4.86607">
        <ele>350</ele>
        <time>2022-08-19T09:20:15.000Z</time>
      </trkpt>
      <trkpt lat="49.82766" lon="4.86609">
        <ele>350</ele>
        <time>2022-08-19T09:20:16.000Z</time>
      </trkpt>
      <trkpt lat="49.82762" lon="4.86611">
        <ele>350</ele>
        <time>2022-08-19T09:20:17.000Z</time>
      </trkpt>
      <trkpt lat="49.82759" lon="4.86613">
        <ele>351</ele>
        <time>2022-08-19T09:20:18.000Z</time>
      </trkpt>
      <trkpt lat="49.82755" lon="4.86616">
        <ele>351</ele>
        <time>2022-08-19T09:20:19.000Z</time>
      </trkpt>
      <trkpt lat="49.82752" lon="4.86619">
        <ele>351</ele>
        <time>2022-08-19T09:20:20.000Z</time>
      </trkpt>
      <trkpt lat="49.82747" lon="4.86623">
        <ele>351</ele>
        <time>2022-08-19T09:20:21.000Z</time>
      </trkpt>
      <trkpt lat="49.82743" lon="4.86626">
        <ele>351</ele>
        <time>2022-08-19T09:20:22.000Z</time>
      </trkpt>
      <trkpt lat="49.82739" lon="4.8663">
        <ele>351</ele>
        <time>2022-08-19T09:20:23.000Z</time>
      </trkpt>
      <trkpt lat="49.82735" lon="4.86633">
        <ele>351</ele>
        <time>2022-08-19T09:20:24.000Z</time>
      </trkpt>
      <trkpt lat="49.82731" lon="4.86637">
        <ele>351</ele>
        <time>2022-08-19T09:20:25.000Z</time>
      </trkpt>
      <trkpt lat="49.82728" lon="4.86641">
        <ele>352</ele>
        <time>2022-08-19T09:20:26.000Z</time>
      </trkpt>
      <trkpt lat="49.82724" lon="4.86646">
        <ele>352</ele>
        <time>2022-08-19T09:20:27.000Z</time>
      </trkpt>
      <trkpt lat="49.8272" lon="4.86651">
        <ele>352</ele>
        <time>2022-08-19T09:20:28.000Z</time>
      </trkpt>
      <trkpt lat="49.82716" lon="4.86654">
        <ele>352</ele>
        <time>2022-08-19T09:20:29.000Z</time>
      </trkpt>
      <trkpt lat="49.82714" lon="4.86658">
        <ele>352</ele>
        <time>2022-08-19T09:20:30.000Z</time>
      </trkpt>
      <trkpt lat="49.82711" lon="4.86662">
        <ele>352</ele>
        <time>2022-08-19T09:20:31.000Z</time>
      </trkpt>
      <trkpt lat="49.82709" lon="4.86666">
        <ele>352</ele>
        <time>2022-08-19T09:20:32.000Z</time>
      </trkpt>
      <trkpt lat="49.82706" lon="4.86671">
        <ele>352</ele>
        <time>2022-08-19T09:20:33.000Z</time>
      </trkpt>
      <trkpt lat="49.82704" lon="4.86675">
        <ele>352</ele>
        <time>2022-08-19T09:20:34.000Z</time>
      </trkpt>
      <trkpt lat="49.82702" lon="4.86679">
        <ele>352</ele>
        <time>2022-08-19T09:20:35.000Z</time>
      </trkpt>
      <trkpt lat="49.82699" lon="4.86683">
        <ele>352</ele>
        <time>2022-08-19T09:20:36.000Z</time>
      </trkpt>
      <trkpt lat="49.82697" lon="4.86687">
        <ele>351</ele>
        <time>2022-08-19T09:20:37.000Z</time>
      </trkpt>
      <trkpt lat="49.82696" lon="4.86692">
        <ele>351</ele>
        <time>2022-08-19T09:20:38.000Z</time>
      </trkpt>
      <trkpt lat="49.82694" lon="4.86696">
        <ele>351</ele>
        <time>2022-08-19T09:20:39.000Z</time>
      </trkpt>
      <trkpt lat="49.82692" lon="4.867">
        <ele>351</ele>
        <time>2022-08-19T09:20:40.000Z</time>
      </trkpt>
      <trkpt lat="49.8269" lon="4.86705">
        <ele>351</ele>
        <time>2022-08-19T09:20:41.000Z</time>
      </trkpt>
      <trkpt lat="49.82687" lon="4.86709">
        <ele>351</ele>
        <time>2022-08-19T09:20:42.000Z</time>
      </trkpt>
      <trkpt lat="49.82684" lon="4.86713">
        <ele>351</ele>
        <time>2022-08-19T09:20:43.000Z</time>
      </trkpt>
      <trkpt lat="49.82682" lon="4.86717">
        <ele>351</ele>
        <time>2022-08-19T09:20:44.000Z</time>
      </trkpt>
      <trkpt lat="49.82679" lon="4.86721">
        <ele>351</ele>
        <time>2022-08-19T09:20:45.000Z</time>
      </trkpt>
      <trkpt lat="49.82677" lon="4.86725">
        <ele>351</ele>
        <time>2022-08-19T09:20:46.000Z</time>
      </trkpt>
      <trkpt lat="49.82675" lon="4.86729">
        <ele>350</ele>
        <time>2022-08-19T09:20:47.000Z</time>
      </trkpt>
      <trkpt lat="49.82672" lon="4.86733">
        <ele>350</ele>
        <time>2022-08-19T09:20:48.000Z</time>
      </trkpt>
      <trkpt lat="49.8267" lon="4.86738">
        <ele>350</ele>
        <time>2022-08-19T09:20:49.000Z</time>
      </trkpt>
      <trkpt lat="49.82668" lon="4.86743">
        <ele>350</ele>
        <time>2022-08-19T09:20:50.000Z</time>
      </trkpt>
      <trkpt lat="49.82665" lon="4.86748">
        <ele>350</ele>
        <time>2022-08-19T09:20:51.000Z</time>
      </trkpt>
      <trkpt lat="49.82663" lon="4.86753">
        <ele>350</ele>
        <time>2022-08-19T09:20:52.000Z</time>
      </trkpt>
      <trkpt lat="49.82661" lon="4.86757">
        <ele>350</ele>
        <time>2022-08-19T09:20:53.000Z</time>
      </trkpt>
      <trkpt lat="49.82658" lon="4.86762">
        <ele>350</ele>
        <time>2022-08-19T09:20:54.000Z</time>
      </trkpt>
      <trkpt lat="49.82656" lon="4.86767">
        <ele>351</ele>
        <time>2022-08-19T09:20:55.000Z</time>
      </trkpt>
      <trkpt lat="49.82654" lon="4.86772">
        <ele>351</ele>
        <time>2022-08-19T09:20:56.000Z</time>
      </trkpt>
      <trkpt lat="49.82653" lon="4.86777">
        <ele>351</ele>
        <time>2022-08-19T09:20:57.000Z</time>
      </trkpt>
      <trkpt lat="49.82651" lon="4.86782">
        <ele>351</ele>
        <time>2022-08-19T09:20:58.000Z</time>
      </trkpt>
      <trkpt lat="49.8265" lon="4.86787">
        <ele>351</ele>
        <time>2022-08-19T09:20:59.000Z</time>
      </trkpt>
      <trkpt lat="49.82649" lon="4.86792">
        <ele>351</ele>
        <time>2022-08-19T09:21:00.000Z</time>
      </trkpt>
      <trkpt lat="49.82648" lon="4.86797">
        <ele>351</ele>
        <time>2022-08-19T09:21:01.000Z</time>
      </trkpt>
      <trkpt lat="49.82648" lon="4.86803">
        <ele>351</ele>
        <time>2022-08-19T09:21:02.000Z</time>
      </trkpt>
      <trkpt lat="49.82647" lon="4.86809">
        <ele>351</ele>
        <time>2022-08-19T09:21:03.000Z</time>
      </trkpt>
      <trkpt lat="49.82646" lon="4.86814">
        <ele>351</ele>
        <time>2022-08-19T09:21:04.000Z</time>
      </trkpt>
      <trkpt lat="49.82646" lon="4.8682">
        <ele>351</ele>
        <time>2022-08-19T09:21:05.000Z</time>
      </trkpt>
      <trkpt lat="49.82645" lon="4.86826">
        <ele>351</ele>
        <time>2022-08-19T09:21:06.000Z</time>
      </trkpt>
      <trkpt lat="49.82645" lon="4.86831">
        <ele>351</ele>
        <time>2022-08-19T09:21:07.000Z</time>
      </trkpt>
      <trkpt lat="49.82644" lon="4.86837">
        <ele>351</ele>
        <time>2022-08-19T09:21:08.000Z</time>
      </trkpt>
      <trkpt lat="49.82644" lon="4.86843">
        <ele>351</ele>
        <time>2022-08-19T09:21:09.000Z</time>
      </trkpt>
      <trkpt lat="49.82645" lon="4.86849">
        <ele>352</ele>
        <time>2022-08-19T09:21:10.000Z</time>
      </trkpt>
      <trkpt lat="49.82645" lon="4.86855">
        <ele>352</ele>
        <time>2022-08-19T09:21:11.000Z</time>
      </trkpt>
      <trkpt lat="49.82645" lon="4.8686">
        <ele>352</ele>
        <time>2022-08-19T09:21:12.000Z</time>
      </trkpt>
      <trkpt lat="49.82644" lon="4.86866">
        <ele>352</ele>
        <time>2022-08-19T09:21:13.000Z</time>
      </trkpt>
      <trkpt lat="49.82644" lon="4.86871">
        <ele>352</ele>
        <time>2022-08-19T09:21:14.000Z</time>
      </trkpt>
      <trkpt lat="49.82643" lon="4.86876">
        <ele>352</ele>
        <time>2022-08-19T09:21:15.000Z</time>
      </trkpt>
      <trkpt lat="49.82643" lon="4.86881">
        <ele>352</ele>
        <time>2022-08-19T09:21:16.000Z</time>
      </trkpt>
      <trkpt lat="49.82642" lon="4.86886">
        <ele>352</ele>
        <time>2022-08-19T09:21:17.000Z</time>
      </trkpt>
      <trkpt lat="49.82641" lon="4.86891">
        <ele>352</ele>
        <time>2022-08-19T09:21:18.000Z</time>
      </trkpt>
      <trkpt lat="49.82641" lon="4.86896">
        <ele>352</ele>
        <time>2022-08-19T09:21:19.000Z</time>
      </trkpt>
      <trkpt lat="49.82641" lon="4.86902">
        <ele>352</ele>
        <time>2022-08-19T09:21:20.000Z</time>
      </trkpt>
      <trkpt lat="49.82641" lon="4.86908">
        <ele>352</ele>
        <time>2022-08-19T09:21:21.000Z</time>
      </trkpt>
      <trkpt lat="49.82641" lon="4.86913">
        <ele>352</ele>
        <time>2022-08-19T09:21:22.000Z</time>
      </trkpt>
      <trkpt lat="49.82641" lon="4.86919">
        <ele>352</ele>
        <time>2022-08-19T09:21:23.000Z</time>
      </trkpt>
      <trkpt lat="49.82641" lon="4.86925">
        <ele>352</ele>
        <time>2022-08-19T09:21:24.000Z</time>
      </trkpt>
      <trkpt lat="49.8264" lon="4.8693">
        <ele>352</ele>
        <time>2022-08-19T09:21:25.000Z</time>
      </trkpt>
      <trkpt lat="49.82639" lon="4.86936">
        <ele>352</ele>
        <time>2022-08-19T09:21:26.000Z</time>
      </trkpt>
      <trkpt lat="49.82638" lon="4.86941">
        <ele>352</ele>
        <time>2022-08-19T09:21:27.000Z</time>
      </trkpt>
      <trkpt lat="49.82638" lon="4.86946">
        <ele>352</ele>
        <time>2022-08-19T09:21:28.000Z</time>
      </trkpt>
      <trkpt lat="49.82637" lon="4.86951">
        <ele>352</ele>
        <time>2022-08-19T09:21:29.000Z</time>
      </trkpt>
      <trkpt lat="49.82636" lon="4.86957">
        <ele>352</ele>
        <time>2022-08-19T09:21:30.000Z</time>
      </trkpt>
      <trkpt lat="49.82635" lon="4.86962">
        <ele>352</ele>
        <time>2022-08-19T09:21:31.000Z</time>
      </trkpt>
      <trkpt lat="49.82634" lon="4.86968">
        <ele>352</ele>
        <time>2022-08-19T09:21:32.000Z</time>
      </trkpt>
      <trkpt lat="49.82632" lon="4.86973">
        <ele>352</ele>
        <time>2022-08-19T09:21:33.000Z</time>
      </trkpt>
      <trkpt lat="49.8263" lon="4.86979">
        <ele>352</ele>
        <time>2022-08-19T09:21:34.000Z</time>
      </trkpt>
      <trkpt lat="49.82628" lon="4.86984">
        <ele>352</ele>
        <time>2022-08-19T09:21:35.000Z</time>
      </trkpt>
      <trkpt lat="49.82627" lon="4.86989">
        <ele>353</ele>
        <time>2022-08-19T09:21:36.000Z</time>
      </trkpt>
      <trkpt lat="49.82625" lon="4.86993">
        <ele>353</ele>
        <time>2022-08-19T09:21:37.000Z</time>
      </trkpt>
      <trkpt lat="49.82622" lon="4.86998">
        <ele>353</ele>
        <time>2022-08-19T09:21:38.000Z</time>
      </trkpt>
      <trkpt lat="49.8262" lon="4.87003">
        <ele>353</ele>
        <time>2022-08-19T09:21:39.000Z</time>
      </trkpt>
      <trkpt lat="49.82618" lon="4.87008">
        <ele>353</ele>
        <time>2022-08-19T09:21:40.000Z</time>
      </trkpt>
      <trkpt lat="49.82615" lon="4.87012">
        <ele>353</ele>
        <time>2022-08-19T09:21:41.000Z</time>
      </trkpt>
      <trkpt lat="49.82611" lon="4.87016">
        <ele>353</ele>
        <time>2022-08-19T09:21:42.000Z</time>
      </trkpt>
      <trkpt lat="49.82608" lon="4.8702">
        <ele>353</ele>
        <time>2022-08-19T09:21:43.000Z</time>
      </trkpt>
      <trkpt lat="49.82605" lon="4.87024">
        <ele>354</ele>
        <time>2022-08-19T09:21:44.000Z</time>
      </trkpt>
      <trkpt lat="49.82602" lon="4.87028">
        <ele>354</ele>
        <time>2022-08-19T09:21:45.000Z</time>
      </trkpt>
      <trkpt lat="49.82598" lon="4.87031">
        <ele>354</ele>
        <time>2022-08-19T09:21:46.000Z</time>
      </trkpt>
      <trkpt lat="49.82594" lon="4.87035">
        <ele>354</ele>
        <time>2022-08-19T09:21:47.000Z</time>
      </trkpt>
      <trkpt lat="49.82591" lon="4.87038">
        <ele>354</ele>
        <time>2022-08-19T09:21:48.000Z</time>
      </trkpt>
      <trkpt lat="49.82587" lon="4.87042">
        <ele>354</ele>
        <time>2022-08-19T09:21:49.000Z</time>
      </trkpt>
      <trkpt lat="49.82583" lon="4.87045">
        <ele>354</ele>
        <time>2022-08-19T09:21:50.000Z</time>
      </trkpt>
      <trkpt lat="49.8258" lon="4.87049">
        <ele>354</ele>
        <time>2022-08-19T09:21:51.000Z</time>
      </trkpt>
      <trkpt lat="49.82576" lon="4.87052">
        <ele>354</ele>
        <time>2022-08-19T09:21:52.000Z</time>
      </trkpt>
      <trkpt lat="49.82572" lon="4.87055">
        <ele>354</ele>
        <time>2022-08-19T09:21:53.000Z</time>
      </trkpt>
      <trkpt lat="49.82568" lon="4.87059">
        <ele>355</ele>
        <time>2022-08-19T09:21:54.000Z</time>
      </trkpt>
      <trkpt lat="49.82564" lon="4.87063">
        <ele>355</ele>
        <time>2022-08-19T09:21:55.000Z</time>
      </trkpt>
      <trkpt lat="49.8256" lon="4.87066">
        <ele>355</ele>
        <time>2022-08-19T09:21:56.000Z</time>
      </trkpt>
      <trkpt lat="49.82557" lon="4.87069">
        <ele>355</ele>
        <time>2022-08-19T09:21:57.000Z</time>
      </trkpt>
      <trkpt lat="49.82553" lon="4.87072">
        <ele>355</ele>
        <time>2022-08-19T09:21:58.000Z</time>
      </trkpt>
      <trkpt lat="49.8255" lon="4.87074">
        <ele>355</ele>
        <time>2022-08-19T09:21:59.000Z</time>
      </trkpt>
      <trkpt lat="49.82548" lon="4.87077">
        <ele>355</ele>
        <time>2022-08-19T09:22:00.000Z</time>
      </trkpt>
      <trkpt lat="49.82545" lon="4.8708">
        <ele>355</ele>
        <time>2022-08-19T09:22:01.000Z</time>
      </trkpt>
      <trkpt lat="49.82541" lon="4.87082">
        <ele>355</ele>
        <time>2022-08-19T09:22:02.000Z</time>
      </trkpt>
      <trkpt lat="49.82538" lon="4.87085">
        <ele>355</ele>
        <time>2022-08-19T09:22:03.000Z</time>
      </trkpt>
      <trkpt lat="49.82535" lon="4.87089">
        <ele>355</ele>
        <time>2022-08-19T09:22:04.000Z</time>
      </trkpt>
      <trkpt lat="49.82532" lon="4.87092">
        <ele>355</ele>
        <time>2022-08-19T09:22:05.000Z</time>
      </trkpt>
      <trkpt lat="49.82529" lon="4.87096">
        <ele>356</ele>
        <time>2022-08-19T09:22:06.000Z</time>
      </trkpt>
      <trkpt lat="49.82525" lon="4.871">
        <ele>356</ele>
        <time>2022-08-19T09:22:07.000Z</time>
      </trkpt>
      <trkpt lat="49.82521" lon="4.87105">
        <ele>356</ele>
        <time>2022-08-19T09:22:08.000Z</time>
      </trkpt>
      <trkpt lat="49.82517" lon="4.87111">
        <ele>356</ele>
        <time>2022-08-19T09:22:09.000Z</time>
      </trkpt>
      <trkpt lat="49.82513" lon="4.87116">
        <ele>356</ele>
        <time>2022-08-19T09:22:10.000Z</time>
      </trkpt>
      <trkpt lat="49.8251" lon="4.87122">
        <ele>356</ele>
        <time>2022-08-19T09:22:11.000Z</time>
      </trkpt>
      <trkpt lat="49.82506" lon="4.87128">
        <ele>356</ele>
        <time>2022-08-19T09:22:12.000Z</time>
      </trkpt>
      <trkpt lat="49.82503" lon="4.87134">
        <ele>356</ele>
        <time>2022-08-19T09:22:13.000Z</time>
      </trkpt>
      <trkpt lat="49.825" lon="4.8714">
        <ele>356</ele>
        <time>2022-08-19T09:22:14.000Z</time>
      </trkpt>
      <trkpt lat="49.82497" lon="4.87146">
        <ele>356</ele>
        <time>2022-08-19T09:22:15.000Z</time>
      </trkpt>
      <trkpt lat="49.82495" lon="4.87151">
        <ele>356</ele>
        <time>2022-08-19T09:22:16.000Z</time>
      </trkpt>
      <trkpt lat="49.82492" lon="4.87157">
        <ele>356</ele>
        <time>2022-08-19T09:22:17.000Z</time>
      </trkpt>
      <trkpt lat="49.82489" lon="4.87163">
        <ele>356</ele>
        <time>2022-08-19T09:22:18.000Z</time>
      </trkpt>
      <trkpt lat="49.82487" lon="4.87169">
        <ele>356</ele>
        <time>2022-08-19T09:22:19.000Z</time>
      </trkpt>
      <trkpt lat="49.82484" lon="4.87175">
        <ele>356</ele>
        <time>2022-08-19T09:22:20.000Z</time>
      </trkpt>
      <trkpt lat="49.82481" lon="4.87181">
        <ele>356</ele>
        <time>2022-08-19T09:22:21.000Z</time>
      </trkpt>
      <trkpt lat="49.82478" lon="4.87188">
        <ele>356</ele>
        <time>2022-08-19T09:22:22.000Z</time>
      </trkpt>
      <trkpt lat="49.82476" lon="4.87194">
        <ele>356</ele>
        <time>2022-08-19T09:22:23.000Z</time>
      </trkpt>
      <trkpt lat="49.82473" lon="4.87201">
        <ele>356</ele>
        <time>2022-08-19T09:22:24.000Z</time>
      </trkpt>
      <trkpt lat="49.82471" lon="4.87207">
        <ele>356</ele>
        <time>2022-08-19T09:22:25.000Z</time>
      </trkpt>
      <trkpt lat="49.82468" lon="4.87214">
        <ele>355</ele>
        <time>2022-08-19T09:22:26.000Z</time>
      </trkpt>
      <trkpt lat="49.82466" lon="4.8722">
        <ele>355</ele>
        <time>2022-08-19T09:22:27.000Z</time>
      </trkpt>
      <trkpt lat="49.82463" lon="4.87227">
        <ele>355</ele>
        <time>2022-08-19T09:22:28.000Z</time>
      </trkpt>
      <trkpt lat="49.82461" lon="4.87234">
        <ele>355</ele>
        <time>2022-08-19T09:22:29.000Z</time>
      </trkpt>
      <trkpt lat="49.82458" lon="4.8724">
        <ele>355</ele>
        <time>2022-08-19T09:22:30.000Z</time>
      </trkpt>
      <trkpt lat="49.82455" lon="4.87246">
        <ele>356</ele>
        <time>2022-08-19T09:22:31.000Z</time>
      </trkpt>
      <trkpt lat="49.82453" lon="4.87253">
        <ele>356</ele>
        <time>2022-08-19T09:22:32.000Z</time>
      </trkpt>
      <trkpt lat="49.82451" lon="4.87259">
        <ele>356</ele>
        <time>2022-08-19T09:22:33.000Z</time>
      </trkpt>
      <trkpt lat="49.82449" lon="4.87265">
        <ele>356</ele>
        <time>2022-08-19T09:22:34.000Z</time>
      </trkpt>
      <trkpt lat="49.82446" lon="4.87271">
        <ele>356</ele>
        <time>2022-08-19T09:22:35.000Z</time>
      </trkpt>
      <trkpt lat="49.82444" lon="4.87277">
        <ele>356</ele>
        <time>2022-08-19T09:22:36.000Z</time>
      </trkpt>
      <trkpt lat="49.82442" lon="4.87283">
        <ele>356</ele>
        <time>2022-08-19T09:22:37.000Z</time>
      </trkpt>
      <trkpt lat="49.8244" lon="4.87289">
        <ele>356</ele>
        <time>2022-08-19T09:22:38.000Z</time>
      </trkpt>
      <trkpt lat="49.82438" lon="4.87295">
        <ele>356</ele>
        <time>2022-08-19T09:22:39.000Z</time>
      </trkpt>
      <trkpt lat="49.82436" lon="4.87301">
        <ele>356</ele>
        <time>2022-08-19T09:22:40.000Z</time>
      </trkpt>
      <trkpt lat="49.82434" lon="4.87307">
        <ele>356</ele>
        <time>2022-08-19T09:22:41.000Z</time>
      </trkpt>
      <trkpt lat="49.82433" lon="4.87313">
        <ele>356</ele>
        <time>2022-08-19T09:22:42.000Z</time>
      </trkpt>
      <trkpt lat="49.82431" lon="4.87319">
        <ele>357</ele>
        <time>2022-08-19T09:22:43.000Z</time>
      </trkpt>
      <trkpt lat="49.8243" lon="4.87325">
        <ele>357</ele>
        <time>2022-08-19T09:22:44.000Z</time>
      </trkpt>
      <trkpt lat="49.82429" lon="4.87331">
        <ele>357</ele>
        <time>2022-08-19T09:22:45.000Z</time>
      </trkpt>
      <trkpt lat="49.82427" lon="4.87337">
        <ele>357</ele>
        <time>2022-08-19T09:22:46.000Z</time>
      </trkpt>
      <trkpt lat="49.82426" lon="4.87343">
        <ele>357</ele>
        <time>2022-08-19T09:22:47.000Z</time>
      </trkpt>
      <trkpt lat="49.82425" lon="4.87349">
        <ele>357</ele>
        <time>2022-08-19T09:22:48.000Z</time>
      </trkpt>
      <trkpt lat="49.82424" lon="4.87355">
        <ele>357</ele>
        <time>2022-08-19T09:22:49.000Z</time>
      </trkpt>
      <trkpt lat="49.82423" lon="4.8736">
        <ele>357</ele>
        <time>2022-08-19T09:22:50.000Z</time>
      </trkpt>
      <trkpt lat="49.82422" lon="4.87366">
        <ele>357</ele>
        <time>2022-08-19T09:22:51.000Z</time>
      </trkpt>
      <trkpt lat="49.82422" lon="4.87372">
        <ele>357</ele>
        <time>2022-08-19T09:22:52.000Z</time>
      </trkpt>
      <trkpt lat="49.82421" lon="4.87378">
        <ele>357</ele>
        <time>2022-08-19T09:22:53.000Z</time>
      </trkpt>
      <trkpt lat="49.82421" lon="4.87384">
        <ele>357</ele>
        <time>2022-08-19T09:22:54.000Z</time>
      </trkpt>
      <trkpt lat="49.82421" lon="4.8739">
        <ele>358</ele>
        <time>2022-08-19T09:22:55.000Z</time>
      </trkpt>
      <trkpt lat="49.82421" lon="4.87395">
        <ele>358</ele>
        <time>2022-08-19T09:22:56.000Z</time>
      </trkpt>
      <trkpt lat="49.82421" lon="4.87401">
        <ele>358</ele>
        <time>2022-08-19T09:22:57.000Z</time>
      </trkpt>
      <trkpt lat="49.8242" lon="4.87406">
        <ele>358</ele>
        <time>2022-08-19T09:22:58.000Z</time>
      </trkpt>
      <trkpt lat="49.82418" lon="4.87411">
        <ele>358</ele>
        <time>2022-08-19T09:22:59.000Z</time>
      </trkpt>
      <trkpt lat="49.82414" lon="4.87413">
        <ele>358</ele>
        <time>2022-08-19T09:23:00.000Z</time>
      </trkpt>
      <trkpt lat="49.82411" lon="4.8741">
        <ele>358</ele>
        <time>2022-08-19T09:23:01.000Z</time>
      </trkpt>
      <trkpt lat="49.82409" lon="4.87406">
        <ele>358</ele>
        <time>2022-08-19T09:23:02.000Z</time>
      </trkpt>
      <trkpt lat="49.82407" lon="4.87401">
        <ele>358</ele>
        <time>2022-08-19T09:23:03.000Z</time>
      </trkpt>
      <trkpt lat="49.82405" lon="4.87397">
        <ele>358</ele>
        <time>2022-08-19T09:23:04.000Z</time>
      </trkpt>
      <trkpt lat="49.82403" lon="4.87392">
        <ele>358</ele>
        <time>2022-08-19T09:23:05.000Z</time>
      </trkpt>
      <trkpt lat="49.82401" lon="4.87387">
        <ele>358</ele>
        <time>2022-08-19T09:23:06.000Z</time>
      </trkpt>
      <trkpt lat="49.82399" lon="4.87381">
        <ele>359</ele>
        <time>2022-08-19T09:23:07.000Z</time>
      </trkpt>
      <trkpt lat="49.82397" lon="4.87376">
        <ele>359</ele>
        <time>2022-08-19T09:23:08.000Z</time>
      </trkpt>
      <trkpt lat="49.82396" lon="4.8737">
        <ele>359</ele>
        <time>2022-08-19T09:23:09.000Z</time>
      </trkpt>
      <trkpt lat="49.82394" lon="4.87365">
        <ele>359</ele>
        <time>2022-08-19T09:23:10.000Z</time>
      </trkpt>
      <trkpt lat="49.82393" lon="4.87359">
        <ele>359</ele>
        <time>2022-08-19T09:23:11.000Z</time>
      </trkpt>
      <trkpt lat="49.82391" lon="4.87354">
        <ele>359</ele>
        <time>2022-08-19T09:23:12.000Z</time>
      </trkpt>
      <trkpt lat="49.82389" lon="4.87348">
        <ele>359</ele>
        <time>2022-08-19T09:23:13.000Z</time>
      </trkpt>
      <trkpt lat="49.82387" lon="4.87342">
        <ele>360</ele>
        <time>2022-08-19T09:23:14.000Z</time>
      </trkpt>
      <trkpt lat="49.82386" lon="4.87336">
        <ele>360</ele>
        <time>2022-08-19T09:23:15.000Z</time>
      </trkpt>
      <trkpt lat="49.82385" lon="4.8733">
        <ele>360</ele>
        <time>2022-08-19T09:23:16.000Z</time>
      </trkpt>
      <trkpt lat="49.82383" lon="4.87324">
        <ele>360</ele>
        <time>2022-08-19T09:23:17.000Z</time>
      </trkpt>
      <trkpt lat="49.82382" lon="4.87318">
        <ele>360</ele>
        <time>2022-08-19T09:23:18.000Z</time>
      </trkpt>
      <trkpt lat="49.8238" lon="4.87312">
        <ele>361</ele>
        <time>2022-08-19T09:23:19.000Z</time>
      </trkpt>
      <trkpt lat="49.82379" lon="4.87306">
        <ele>361</ele>
        <time>2022-08-19T09:23:20.000Z</time>
      </trkpt>
      <trkpt lat="49.82377" lon="4.873">
        <ele>361</ele>
        <time>2022-08-19T09:23:21.000Z</time>
      </trkpt>
      <trkpt lat="49.82374" lon="4.87294">
        <ele>361</ele>
        <time>2022-08-19T09:23:22.000Z</time>
      </trkpt>
      <trkpt lat="49.82372" lon="4.87289">
        <ele>361</ele>
        <time>2022-08-19T09:23:23.000Z</time>
      </trkpt>
      <trkpt lat="49.8237" lon="4.87283">
        <ele>361</ele>
        <time>2022-08-19T09:23:24.000Z</time>
      </trkpt>
      <trkpt lat="49.82367" lon="4.87278">
        <ele>361</ele>
        <time>2022-08-19T09:23:25.000Z</time>
      </trkpt>
      <trkpt lat="49.82364" lon="4.87273">
        <ele>361</ele>
        <time>2022-08-19T09:23:26.000Z</time>
      </trkpt>
      <trkpt lat="49.82361" lon="4.87268">
        <ele>361</ele>
        <time>2022-08-19T09:23:27.000Z</time>
      </trkpt>
      <trkpt lat="49.82358" lon="4.87262">
        <ele>362</ele>
        <time>2022-08-19T09:23:28.000Z</time>
      </trkpt>
      <trkpt lat="49.82355" lon="4.87257">
        <ele>362</ele>
        <time>2022-08-19T09:23:29.000Z</time>
      </trkpt>
      <trkpt lat="49.82352" lon="4.87253">
        <ele>362</ele>
        <time>2022-08-19T09:23:30.000Z</time>
      </trkpt>
      <trkpt lat="49.82348" lon="4.87248">
        <ele>362</ele>
        <time>2022-08-19T09:23:31.000Z</time>
      </trkpt>
      <trkpt lat="49.82345" lon="4.87243">
        <ele>362</ele>
        <time>2022-08-19T09:23:32.000Z</time>
      </trkpt>
      <trkpt lat="49.82342" lon="4.87238">
        <ele>362</ele>
        <time>2022-08-19T09:23:33.000Z</time>
      </trkpt>
      <trkpt lat="49.82338" lon="4.87234">
        <ele>362</ele>
        <time>2022-08-19T09:23:34.000Z</time>
      </trkpt>
      <trkpt lat="49.82335" lon="4.87229">
        <ele>362</ele>
        <time>2022-08-19T09:23:35.000Z</time>
      </trkpt>
      <trkpt lat="49.82332" lon="4.87224">
        <ele>362</ele>
        <time>2022-08-19T09:23:36.000Z</time>
      </trkpt>
      <trkpt lat="49.82329" lon="4.87219">
        <ele>362</ele>
        <time>2022-08-19T09:23:37.000Z</time>
      </trkpt>
      <trkpt lat="49.82326" lon="4.87214">
        <ele>362</ele>
        <time>2022-08-19T09:23:38.000Z</time>
      </trkpt>
      <trkpt lat="49.82323" lon="4.8721">
        <ele>362</ele>
        <time>2022-08-19T09:23:39.000Z</time>
      </trkpt>
      <trkpt lat="49.82319" lon="4.87207">
        <ele>362</ele>
        <time>2022-08-19T09:23:40.000Z</time>
      </trkpt>
      <trkpt lat="49.82316" lon="4.87205">
        <ele>362</ele>
        <time>2022-08-19T09:23:41.000Z</time>
      </trkpt>
      <trkpt lat="49.82312" lon="4.87202">
        <ele>362</ele>
        <time>2022-08-19T09:23:42.000Z</time>
      </trkpt>
      <trkpt lat="49.82309" lon="4.872">
        <ele>362</ele>
        <time>2022-08-19T09:23:43.000Z</time>
      </trkpt>
      <trkpt lat="49.82306" lon="4.87199">
        <ele>362</ele>
        <time>2022-08-19T09:23:44.000Z</time>
      </trkpt>
      <trkpt lat="49.82304" lon="4.87198">
        <ele>362</ele>
        <time>2022-08-19T09:23:45.000Z</time>
      </trkpt>
      <trkpt lat="49.82304" lon="4.87198">
        <ele>362</ele>
        <time>2022-08-19T09:23:46.000Z</time>
      </trkpt>
      <trkpt lat="49.82304" lon="4.87197">
        <ele>362</ele>
        <time>2022-08-19T09:23:47.000Z</time>
      </trkpt>
      <trkpt lat="49.82304" lon="4.87197">
        <ele>362</ele>
        <time>2022-08-19T09:23:48.000Z</time>
      </trkpt>
      <trkpt lat="49.82304" lon="4.87197">
        <ele>362</ele>
        <time>2022-08-19T09:23:49.000Z</time>
      </trkpt>
      <trkpt lat="49.82304" lon="4.87197">
        <ele>362</ele>
        <time>2022-08-19T09:23:50.000Z</time>
      </trkpt>
      <trkpt lat="49.82303" lon="4.87197">
        <ele>362</ele>
        <time>2022-08-19T09:23:51.000Z</time>
      </trkpt>
      <trkpt lat="49.82303" lon="4.87197">
        <ele>362</ele>
        <time>2022-08-19T09:23:52.000Z</time>
      </trkpt>
      <trkpt lat="49.82303" lon="4.87197">
        <ele>362</ele>
        <time>2022-08-19T09:23:53.000Z</time>
      </trkpt>
      <trkpt lat="49.82302" lon="4.87197">
        <ele>362</ele>
        <time>2022-08-19T09:23:54.000Z</time>
      </trkpt>
      <trkpt lat="49.82302" lon="4.87197">
        <ele>362</ele>
        <time>2022-08-19T09:23:55.000Z</time>
      </trkpt>
      <trkpt lat="49.82302" lon="4.87196">
        <ele>362</ele>
        <time>2022-08-19T09:23:56.000Z</time>
      </trkpt>
      <trkpt lat="49.82303" lon="4.87196">
        <ele>362</ele>
        <time>2022-08-19T09:23:57.000Z</time>
      </trkpt>
      <trkpt lat="49.82303" lon="4.87196">
        <ele>362</ele>
        <time>2022-08-19T09:23:58.000Z</time>
      </trkpt>
      <trkpt lat="49.82303" lon="4.87196">
        <ele>362</ele>
        <time>2022-08-19T09:23:59.000Z</time>
      </trkpt>
      <trkpt lat="49.82302" lon="4.87197">
        <ele>362</ele>
        <time>2022-08-19T09:24:00.000Z</time>
      </trkpt>
      <trkpt lat="49.82302" lon="4.87197">
        <ele>362</ele>
        <time>2022-08-19T09:24:01.000Z</time>
      </trkpt>
      <trkpt lat="49.82303" lon="4.87197">
        <ele>362</ele>
        <time>2022-08-19T09:24:02.000Z</time>
      </trkpt>
      <trkpt lat="49.82303" lon="4.87197">
        <ele>362</ele>
        <time>2022-08-19T09:24:03.000Z</time>
      </trkpt>
      <trkpt lat="49.82303" lon="4.87197">
        <ele>362</ele>
        <time>2022-08-19T09:24:04.000Z</time>
      </trkpt>
      <trkpt lat="49.82303" lon="4.87197">
        <ele>362</ele>
        <time>2022-08-19T09:24:05.000Z</time>
      </trkpt>
      <trkpt lat="49.82303" lon="4.87197">
        <ele>362</ele>
        <time>2022-08-19T09:24:06.000Z</time>
      </trkpt>
      <trkpt lat="49.82303" lon="4.87197">
        <ele>362</ele>
        <time>2022-08-19T09:24:07.000Z</time>
      </trkpt>
      <trkpt lat="49.82302" lon="4.87197">
        <ele>363</ele>
        <time>2022-08-19T09:24:08.000Z</time>
      </trkpt>
      <trkpt lat="49.82302" lon="4.87197">
        <ele>363</ele>
        <time>2022-08-19T09:24:09.000Z</time>
      </trkpt>
      <trkpt lat="49.82302" lon="4.87197">
        <ele>363</ele>
        <time>2022-08-19T09:24:10.000Z</time>
      </trkpt>
      <trkpt lat="49.82302" lon="4.87197">
        <ele>363</ele>
        <time>2022-08-19T09:24:11.000Z</time>
      </trkpt>
      <trkpt lat="49.82302" lon="4.87197">
        <ele>363</ele>
        <time>2022-08-19T09:24:12.000Z</time>
      </trkpt>
      <trkpt lat="49.82302" lon="4.87196">
        <ele>363</ele>
        <time>2022-08-19T09:24:13.000Z</time>
      </trkpt>
      <trkpt lat="49.82303" lon="4.87195">
        <ele>363</ele>
        <time>2022-08-19T09:24:14.000Z</time>
      </trkpt>
      <trkpt lat="49.82303" lon="4.87195">
        <ele>363</ele>
        <time>2022-08-19T09:24:15.000Z</time>
      </trkpt>
      <trkpt lat="49.82303" lon="4.87195">
        <ele>363</ele>
        <time>2022-08-19T09:24:16.000Z</time>
      </trkpt>
      <trkpt lat="49.82303" lon="4.87195">
        <ele>363</ele>
        <time>2022-08-19T09:24:17.000Z</time>
      </trkpt>
      <trkpt lat="49.82303" lon="4.87195">
        <ele>363</ele>
        <time>2022-08-19T09:24:18.000Z</time>
      </trkpt>
      <trkpt lat="49.82304" lon="4.87195">
        <ele>363</ele>
        <time>2022-08-19T09:24:19.000Z</time>
      </trkpt>
      <trkpt lat="49.82304" lon="4.87195">
        <ele>363</ele>
        <time>2022-08-19T09:24:20.000Z</time>
      </trkpt>
      <trkpt lat="49.82303" lon="4.87196">
        <ele>363</ele>
        <time>2022-08-19T09:24:21.000Z</time>
      </trkpt>
      <trkpt lat="49.82303" lon="4.87196">
        <ele>363</ele>
        <time>2022-08-19T09:24:22.000Z</time>
      </trkpt>
      <trkpt lat="49.82303" lon="4.87197">
        <ele>363</ele>
        <time>2022-08-19T09:24:23.000Z</time>
      </trkpt>
      <trkpt lat="49.82303" lon="4.87197">
        <ele>363</ele>
        <time>2022-08-19T09:24:24.000Z</time>
      </trkpt>
      <trkpt lat="49.82303" lon="4.87197">
        <ele>363</ele>
        <time>2022-08-19T09:24:25.000Z</time>
      </trkpt>
      <trkpt lat="49.82303" lon="4.87197">
        <ele>363</ele>
        <time>2022-08-19T09:24:26.000Z</time>
      </trkpt>
      <trkpt lat="49.82303" lon="4.87197">
        <ele>363</ele>
        <time>2022-08-19T09:24:27.000Z</time>
      </trkpt>
      <trkpt lat="49.82303" lon="4.87197">
        <ele>363</ele>
        <time>2022-08-19T09:24:28.000Z</time>
      </trkpt>
      <trkpt lat="49.82304" lon="4.87197">
        <ele>363</ele>
        <time>2022-08-19T09:24:29.000Z</time>
      </trkpt>
      <trkpt lat="49.82304" lon="4.87196">
        <ele>363</ele>
        <time>2022-08-19T09:24:30.000Z</time>
      </trkpt>
      <trkpt lat="49.82304" lon="4.87197">
        <ele>363</ele>
        <time>2022-08-19T09:24:31.000Z</time>
      </trkpt>
      <trkpt lat="49.82305" lon="4.87197">
        <ele>363</ele>
        <time>2022-08-19T09:24:32.000Z</time>
      </trkpt>
      <trkpt lat="49.82306" lon="4.87197">
        <ele>363</ele>
        <time>2022-08-19T09:24:33.000Z</time>
      </trkpt>
      <trkpt lat="49.82306" lon="4.87197">
        <ele>363</ele>
        <time>2022-08-19T09:24:34.000Z</time>
      </trkpt>
      <trkpt lat="49.82307" lon="4.87197">
        <ele>363</ele>
        <time>2022-08-19T09:24:35.000Z</time>
      </trkpt>
      <trkpt lat="49.82307" lon="4.87197">
        <ele>363</ele>
        <time>2022-08-19T09:24:36.000Z</time>
      </trkpt>
      <trkpt lat="49.82307" lon="4.87197">
        <ele>363</ele>
        <time>2022-08-19T09:24:37.000Z</time>
      </trkpt>
      <trkpt lat="49.82308" lon="4.87196">
        <ele>363</ele>
        <time>2022-08-19T09:24:38.000Z</time>
      </trkpt>
      <trkpt lat="49.8231" lon="4.87195">
        <ele>363</ele>
        <time>2022-08-19T09:24:39.000Z</time>
      </trkpt>
      <trkpt lat="49.82311" lon="4.87193">
        <ele>363</ele>
        <time>2022-08-19T09:24:40.000Z</time>
      </trkpt>
      <trkpt lat="49.82312" lon="4.87191">
        <ele>363</ele>
        <time>2022-08-19T09:24:41.000Z</time>
      </trkpt>
      <trkpt lat="49.82312" lon="4.87188">
        <ele>363</ele>
        <time>2022-08-19T09:24:42.000Z</time>
      </trkpt>
      <trkpt lat="49.82311" lon="4.87185">
        <ele>363</ele>
        <time>2022-08-19T09:24:43.000Z</time>
      </trkpt>
      <trkpt lat="49.82309" lon="4.87181">
        <ele>364</ele>
        <time>2022-08-19T09:24:44.000Z</time>
      </trkpt>
      <trkpt lat="49.82307" lon="4.87177">
        <ele>364</ele>
        <time>2022-08-19T09:24:45.000Z</time>
      </trkpt>
      <trkpt lat="49.82304" lon="4.87174">
        <ele>364</ele>
        <time>2022-08-19T09:24:46.000Z</time>
      </trkpt>
      <trkpt lat="49.82301" lon="4.8717">
        <ele>364</ele>
        <time>2022-08-19T09:24:47.000Z</time>
      </trkpt>
      <trkpt lat="49.82298" lon="4.87166">
        <ele>364</ele>
        <time>2022-08-19T09:24:48.000Z</time>
      </trkpt>
      <trkpt lat="49.82295" lon="4.87162">
        <ele>364</ele>
        <time>2022-08-19T09:24:49.000Z</time>
      </trkpt>
      <trkpt lat="49.82292" lon="4.87159">
        <ele>364</ele>
        <time>2022-08-19T09:24:50.000Z</time>
      </trkpt>
      <trkpt lat="49.82289" lon="4.87155">
        <ele>364</ele>
        <time>2022-08-19T09:24:51.000Z</time>
      </trkpt>
      <trkpt lat="49.82286" lon="4.87152">
        <ele>364</ele>
        <time>2022-08-19T09:24:52.000Z</time>
      </trkpt>
      <trkpt lat="49.82283" lon="4.87149">
        <ele>364</ele>
        <time>2022-08-19T09:24:53.000Z</time>
      </trkpt>
      <trkpt lat="49.8228" lon="4.87145">
        <ele>364</ele>
        <time>2022-08-19T09:24:54.000Z</time>
      </trkpt>
      <trkpt lat="49.82277" lon="4.87142">
        <ele>364</ele>
        <time>2022-08-19T09:24:55.000Z</time>
      </trkpt>
      <trkpt lat="49.82275" lon="4.87138">
        <ele>364</ele>
        <time>2022-08-19T09:24:56.000Z</time>
      </trkpt>
      <trkpt lat="49.82272" lon="4.87135">
        <ele>364</ele>
        <time>2022-08-19T09:24:57.000Z</time>
      </trkpt>
      <trkpt lat="49.82269" lon="4.87131">
        <ele>364</ele>
        <time>2022-08-19T09:24:58.000Z</time>
      </trkpt>
      <trkpt lat="49.82267" lon="4.87128">
        <ele>364</ele>
        <time>2022-08-19T09:24:59.000Z</time>
      </trkpt>
      <trkpt lat="49.82264" lon="4.87124">
        <ele>364</ele>
        <time>2022-08-19T09:25:00.000Z</time>
      </trkpt>
      <trkpt lat="49.82261" lon="4.8712">
        <ele>363</ele>
        <time>2022-08-19T09:25:01.000Z</time>
      </trkpt>
      <trkpt lat="49.82258" lon="4.87115">
        <ele>363</ele>
        <time>2022-08-19T09:25:02.000Z</time>
      </trkpt>
      <trkpt lat="49.82255" lon="4.87111">
        <ele>363</ele>
        <time>2022-08-19T09:25:03.000Z</time>
      </trkpt>
      <trkpt lat="49.82252" lon="4.87106">
        <ele>363</ele>
        <time>2022-08-19T09:25:04.000Z</time>
      </trkpt>
      <trkpt lat="49.8225" lon="4.871">
        <ele>363</ele>
        <time>2022-08-19T09:25:05.000Z</time>
      </trkpt>
      <trkpt lat="49.82248" lon="4.87095">
        <ele>363</ele>
        <time>2022-08-19T09:25:06.000Z</time>
      </trkpt>
      <trkpt lat="49.82245" lon="4.8709">
        <ele>363</ele>
        <time>2022-08-19T09:25:07.000Z</time>
      </trkpt>
      <trkpt lat="49.82243" lon="4.87086">
        <ele>363</ele>
        <time>2022-08-19T09:25:08.000Z</time>
      </trkpt>
      <trkpt lat="49.8224" lon="4.87082">
        <ele>363</ele>
        <time>2022-08-19T09:25:09.000Z</time>
      </trkpt>
      <trkpt lat="49.82238" lon="4.87078">
        <ele>363</ele>
        <time>2022-08-19T09:25:10.000Z</time>
      </trkpt>
      <trkpt lat="49.82236" lon="4.87073">
        <ele>363</ele>
        <time>2022-08-19T09:25:11.000Z</time>
      </trkpt>
      <trkpt lat="49.82234" lon="4.87069">
        <ele>362</ele>
        <time>2022-08-19T09:25:12.000Z</time>
      </trkpt>
      <trkpt lat="49.82232" lon="4.87063">
        <ele>362</ele>
        <time>2022-08-19T09:25:13.000Z</time>
      </trkpt>
      <trkpt lat="49.8223" lon="4.87059">
        <ele>362</ele>
        <time>2022-08-19T09:25:14.000Z</time>
      </trkpt>
      <trkpt lat="49.82229" lon="4.87055">
        <ele>362</ele>
        <time>2022-08-19T09:25:15.000Z</time>
      </trkpt>
      <trkpt lat="49.82227" lon="4.8705">
        <ele>362</ele>
        <time>2022-08-19T09:25:16.000Z</time>
      </trkpt>
      <trkpt lat="49.82225" lon="4.87047">
        <ele>362</ele>
        <time>2022-08-19T09:25:17.000Z</time>
      </trkpt>
      <trkpt lat="49.82225" lon="4.87044">
        <ele>362</ele>
        <time>2022-08-19T09:25:18.000Z</time>
      </trkpt>
      <trkpt lat="49.82224" lon="4.87041">
        <ele>362</ele>
        <time>2022-08-19T09:25:19.000Z</time>
      </trkpt>
      <trkpt lat="49.82225" lon="4.8704">
        <ele>362</ele>
        <time>2022-08-19T09:25:20.000Z</time>
      </trkpt>
      <trkpt lat="49.82225" lon="4.87039">
        <ele>362</ele>
        <time>2022-08-19T09:25:21.000Z</time>
      </trkpt>
      <trkpt lat="49.82225" lon="4.87039">
        <ele>362</ele>
        <time>2022-08-19T09:25:22.000Z</time>
      </trkpt>
      <trkpt lat="49.82224" lon="4.87038">
        <ele>361</ele>
        <time>2022-08-19T09:25:23.000Z</time>
      </trkpt>
      <trkpt lat="49.82223" lon="4.87036">
        <ele>361</ele>
        <time>2022-08-19T09:25:24.000Z</time>
      </trkpt>
      <trkpt lat="49.82221" lon="4.87035">
        <ele>361</ele>
        <time>2022-08-19T09:25:25.000Z</time>
      </trkpt>
      <trkpt lat="49.82219" lon="4.87033">
        <ele>361</ele>
        <time>2022-08-19T09:25:26.000Z</time>
      </trkpt>
      <trkpt lat="49.82217" lon="4.87032">
        <ele>361</ele>
        <time>2022-08-19T09:25:27.000Z</time>
      </trkpt>
      <trkpt lat="49.82214" lon="4.87031">
        <ele>361</ele>
        <time>2022-08-19T09:25:28.000Z</time>
      </trkpt>
      <trkpt lat="49.82211" lon="4.8703">
        <ele>361</ele>
        <time>2022-08-19T09:25:29.000Z</time>
      </trkpt>
      <trkpt lat="49.82208" lon="4.8703">
        <ele>362</ele>
        <time>2022-08-19T09:25:30.000Z</time>
      </trkpt>
      <trkpt lat="49.82205" lon="4.87032">
        <ele>362</ele>
        <time>2022-08-19T09:25:31.000Z</time>
      </trkpt>
      <trkpt lat="49.82202" lon="4.87034">
        <ele>362</ele>
        <time>2022-08-19T09:25:32.000Z</time>
      </trkpt>
      <trkpt lat="49.82199" lon="4.87036">
        <ele>362</ele>
        <time>2022-08-19T09:25:33.000Z</time>
      </trkpt>
      <trkpt lat="49.82195" lon="4.87038">
        <ele>362</ele>
        <time>2022-08-19T09:25:34.000Z</time>
      </trkpt>
      <trkpt lat="49.82192" lon="4.87039">
        <ele>362</ele>
        <time>2022-08-19T09:25:35.000Z</time>
      </trkpt>
      <trkpt lat="49.82189" lon="4.87041">
        <ele>362</ele>
        <time>2022-08-19T09:25:36.000Z</time>
      </trkpt>
      <trkpt lat="49.82184" lon="4.87042">
        <ele>362</ele>
        <time>2022-08-19T09:25:37.000Z</time>
      </trkpt>
      <trkpt lat="49.8218" lon="4.87044">
        <ele>362</ele>
        <time>2022-08-19T09:25:38.000Z</time>
      </trkpt>
      <trkpt lat="49.82175" lon="4.87046">
        <ele>362</ele>
        <time>2022-08-19T09:25:39.000Z</time>
      </trkpt>
      <trkpt lat="49.82171" lon="4.87048">
        <ele>362</ele>
        <time>2022-08-19T09:25:40.000Z</time>
      </trkpt>
      <trkpt lat="49.82166" lon="4.8705">
        <ele>362</ele>
        <time>2022-08-19T09:25:41.000Z</time>
      </trkpt>
      <trkpt lat="49.82162" lon="4.87051">
        <ele>362</ele>
        <time>2022-08-19T09:25:42.000Z</time>
      </trkpt>
      <trkpt lat="49.82158" lon="4.87053">
        <ele>362</ele>
        <time>2022-08-19T09:25:43.000Z</time>
      </trkpt>
      <trkpt lat="49.82153" lon="4.87053">
        <ele>362</ele>
        <time>2022-08-19T09:25:44.000Z</time>
      </trkpt>
      <trkpt lat="49.82149" lon="4.87054">
        <ele>362</ele>
        <time>2022-08-19T09:25:45.000Z</time>
      </trkpt>
      <trkpt lat="49.82144" lon="4.87054">
        <ele>362</ele>
        <time>2022-08-19T09:25:46.000Z</time>
      </trkpt>
      <trkpt lat="49.82139" lon="4.87055">
        <ele>363</ele>
        <time>2022-08-19T09:25:47.000Z</time>
      </trkpt>
      <trkpt lat="49.82134" lon="4.87057">
        <ele>363</ele>
        <time>2022-08-19T09:25:48.000Z</time>
      </trkpt>
      <trkpt lat="49.82129" lon="4.87058">
        <ele>363</ele>
        <time>2022-08-19T09:25:49.000Z</time>
      </trkpt>
      <trkpt lat="49.82124" lon="4.87058">
        <ele>363</ele>
        <time>2022-08-19T09:25:50.000Z</time>
      </trkpt>
      <trkpt lat="49.8212" lon="4.87059">
        <ele>363</ele>
        <time>2022-08-19T09:25:51.000Z</time>
      </trkpt>
      <trkpt lat="49.82115" lon="4.8706">
        <ele>363</ele>
        <time>2022-08-19T09:25:52.000Z</time>
      </trkpt>
      <trkpt lat="49.82111" lon="4.87062">
        <ele>363</ele>
        <time>2022-08-19T09:25:53.000Z</time>
      </trkpt>
      <trkpt lat="49.82107" lon="4.87063">
        <ele>364</ele>
        <time>2022-08-19T09:25:54.000Z</time>
      </trkpt>
      <trkpt lat="49.82103" lon="4.87065">
        <ele>364</ele>
        <time>2022-08-19T09:25:55.000Z</time>
      </trkpt>
      <trkpt lat="49.821" lon="4.87066">
        <ele>364</ele>
        <time>2022-08-19T09:25:56.000Z</time>
      </trkpt>
      <trkpt lat="49.82095" lon="4.87067">
        <ele>364</ele>
        <time>2022-08-19T09:25:57.000Z</time>
      </trkpt>
      <trkpt lat="49.82091" lon="4.87068">
        <ele>364</ele>
        <time>2022-08-19T09:25:58.000Z</time>
      </trkpt>
      <trkpt lat="49.82086" lon="4.87069">
        <ele>364</ele>
        <time>2022-08-19T09:25:59.000Z</time>
      </trkpt>
      <trkpt lat="49.82082" lon="4.8707">
        <ele>364</ele>
        <time>2022-08-19T09:26:00.000Z</time>
      </trkpt>
      <trkpt lat="49.82077" lon="4.8707">
        <ele>365</ele>
        <time>2022-08-19T09:26:01.000Z</time>
      </trkpt>
      <trkpt lat="49.82074" lon="4.8707">
        <ele>365</ele>
        <time>2022-08-19T09:26:02.000Z</time>
      </trkpt>
      <trkpt lat="49.82071" lon="4.87068">
        <ele>365</ele>
        <time>2022-08-19T09:26:03.000Z</time>
      </trkpt>
      <trkpt lat="49.82068" lon="4.87066">
        <ele>365</ele>
        <time>2022-08-19T09:26:04.000Z</time>
      </trkpt>
      <trkpt lat="49.82066" lon="4.87065">
        <ele>365</ele>
        <time>2022-08-19T09:26:05.000Z</time>
      </trkpt>
      <trkpt lat="49.82064" lon="4.87063">
        <ele>365</ele>
        <time>2022-08-19T09:26:06.000Z</time>
      </trkpt>
      <trkpt lat="49.82062" lon="4.8706">
        <ele>365</ele>
        <time>2022-08-19T09:26:07.000Z</time>
      </trkpt>
      <trkpt lat="49.8206" lon="4.87058">
        <ele>365</ele>
        <time>2022-08-19T09:26:08.000Z</time>
      </trkpt>
      <trkpt lat="49.82058" lon="4.87054">
        <ele>365</ele>
        <time>2022-08-19T09:26:09.000Z</time>
      </trkpt>
      <trkpt lat="49.82056" lon="4.8705">
        <ele>365</ele>
        <time>2022-08-19T09:26:10.000Z</time>
      </trkpt>
      <trkpt lat="49.82054" lon="4.87046">
        <ele>365</ele>
        <time>2022-08-19T09:26:11.000Z</time>
      </trkpt>
      <trkpt lat="49.82051" lon="4.87041">
        <ele>365</ele>
        <time>2022-08-19T09:26:12.000Z</time>
      </trkpt>
      <trkpt lat="49.82049" lon="4.87037">
        <ele>365</ele>
        <time>2022-08-19T09:26:13.000Z</time>
      </trkpt>
      <trkpt lat="49.82046" lon="4.87032">
        <ele>365</ele>
        <time>2022-08-19T09:26:14.000Z</time>
      </trkpt>
      <trkpt lat="49.82044" lon="4.87028">
        <ele>365</ele>
        <time>2022-08-19T09:26:15.000Z</time>
      </trkpt>
      <trkpt lat="49.82042" lon="4.87022">
        <ele>365</ele>
        <time>2022-08-19T09:26:16.000Z</time>
      </trkpt>
      <trkpt lat="49.82039" lon="4.87017">
        <ele>364</ele>
        <time>2022-08-19T09:26:17.000Z</time>
      </trkpt>
      <trkpt lat="49.82036" lon="4.87011">
        <ele>364</ele>
        <time>2022-08-19T09:26:18.000Z</time>
      </trkpt>
      <trkpt lat="49.82034" lon="4.87006">
        <ele>364</ele>
        <time>2022-08-19T09:26:19.000Z</time>
      </trkpt>
      <trkpt lat="49.82031" lon="4.87001">
        <ele>364</ele>
        <time>2022-08-19T09:26:20.000Z</time>
      </trkpt>
      <trkpt lat="49.82029" lon="4.86996">
        <ele>364</ele>
        <time>2022-08-19T09:26:21.000Z</time>
      </trkpt>
      <trkpt lat="49.82026" lon="4.86989">
        <ele>364</ele>
        <time>2022-08-19T09:26:22.000Z</time>
      </trkpt>
      <trkpt lat="49.82023" lon="4.86982">
        <ele>363</ele>
        <time>2022-08-19T09:26:23.000Z</time>
      </trkpt>
      <trkpt lat="49.8202" lon="4.86975">
        <ele>363</ele>
        <time>2022-08-19T09:26:24.000Z</time>
      </trkpt>
      <trkpt lat="49.82016" lon="4.86968">
        <ele>363</ele>
        <time>2022-08-19T09:26:25.000Z</time>
      </trkpt>
      <trkpt lat="49.82012" lon="4.8696">
        <ele>363</ele>
        <time>2022-08-19T09:26:26.000Z</time>
      </trkpt>
      <trkpt lat="49.82009" lon="4.86952">
        <ele>362</ele>
        <time>2022-08-19T09:26:27.000Z</time>
      </trkpt>
      <trkpt lat="49.82005" lon="4.86945">
        <ele>362</ele>
        <time>2022-08-19T09:26:28.000Z</time>
      </trkpt>
      <trkpt lat="49.82001" lon="4.86937">
        <ele>362</ele>
        <time>2022-08-19T09:26:29.000Z</time>
      </trkpt>
      <trkpt lat="49.81996" lon="4.86929">
        <ele>361</ele>
        <time>2022-08-19T09:26:30.000Z</time>
      </trkpt>
      <trkpt lat="49.81993" lon="4.86921">
        <ele>361</ele>
        <time>2022-08-19T09:26:31.000Z</time>
      </trkpt>
      <trkpt lat="49.81989" lon="4.86912">
        <ele>361</ele>
        <time>2022-08-19T09:26:32.000Z</time>
      </trkpt>
      <trkpt lat="49.81985" lon="4.86904">
        <ele>360</ele>
        <time>2022-08-19T09:26:33.000Z</time>
      </trkpt>
      <trkpt lat="49.81981" lon="4.86896">
        <ele>360</ele>
        <time>2022-08-19T09:26:34.000Z</time>
      </trkpt>
      <trkpt lat="49.81978" lon="4.86887">
        <ele>360</ele>
        <time>2022-08-19T09:26:35.000Z</time>
      </trkpt>
      <trkpt lat="49.81974" lon="4.86878">
        <ele>359</ele>
        <time>2022-08-19T09:26:36.000Z</time>
      </trkpt>
      <trkpt lat="49.81971" lon="4.86869">
        <ele>359</ele>
        <time>2022-08-19T09:26:37.000Z</time>
      </trkpt>
      <trkpt lat="49.81967" lon="4.8686">
        <ele>359</ele>
        <time>2022-08-19T09:26:38.000Z</time>
      </trkpt>
      <trkpt lat="49.81963" lon="4.86852">
        <ele>358</ele>
        <time>2022-08-19T09:26:39.000Z</time>
      </trkpt>
      <trkpt lat="49.81958" lon="4.86843">
        <ele>358</ele>
        <time>2022-08-19T09:26:40.000Z</time>
      </trkpt>
      <trkpt lat="49.81954" lon="4.86834">
        <ele>358</ele>
        <time>2022-08-19T09:26:41.000Z</time>
      </trkpt>
      <trkpt lat="49.8195" lon="4.86825">
        <ele>357</ele>
        <time>2022-08-19T09:26:42.000Z</time>
      </trkpt>
      <trkpt lat="49.81946" lon="4.86817">
        <ele>357</ele>
        <time>2022-08-19T09:26:43.000Z</time>
      </trkpt>
      <trkpt lat="49.81942" lon="4.86808">
        <ele>356</ele>
        <time>2022-08-19T09:26:44.000Z</time>
      </trkpt>
      <trkpt lat="49.81938" lon="4.868">
        <ele>356</ele>
        <time>2022-08-19T09:26:45.000Z</time>
      </trkpt>
      <trkpt lat="49.81935" lon="4.86791">
        <ele>356</ele>
        <time>2022-08-19T09:26:46.000Z</time>
      </trkpt>
      <trkpt lat="49.81931" lon="4.86784">
        <ele>355</ele>
        <time>2022-08-19T09:26:47.000Z</time>
      </trkpt>
      <trkpt lat="49.81928" lon="4.86776">
        <ele>355</ele>
        <time>2022-08-19T09:26:48.000Z</time>
      </trkpt>
      <trkpt lat="49.81924" lon="4.86768">
        <ele>355</ele>
        <time>2022-08-19T09:26:49.000Z</time>
      </trkpt>
      <trkpt lat="49.8192" lon="4.86761">
        <ele>354</ele>
        <time>2022-08-19T09:26:50.000Z</time>
      </trkpt>
      <trkpt lat="49.81916" lon="4.86754">
        <ele>354</ele>
        <time>2022-08-19T09:26:51.000Z</time>
      </trkpt>
      <trkpt lat="49.81912" lon="4.86746">
        <ele>353</ele>
        <time>2022-08-19T09:26:52.000Z</time>
      </trkpt>
      <trkpt lat="49.81908" lon="4.86739">
        <ele>353</ele>
        <time>2022-08-19T09:26:53.000Z</time>
      </trkpt>
      <trkpt lat="49.81904" lon="4.86731">
        <ele>353</ele>
        <time>2022-08-19T09:26:54.000Z</time>
      </trkpt>
      <trkpt lat="49.81901" lon="4.86723">
        <ele>352</ele>
        <time>2022-08-19T09:26:55.000Z</time>
      </trkpt>
      <trkpt lat="49.81897" lon="4.86715">
        <ele>352</ele>
        <time>2022-08-19T09:26:56.000Z</time>
      </trkpt>
      <trkpt lat="49.81893" lon="4.86707">
        <ele>351</ele>
        <time>2022-08-19T09:26:57.000Z</time>
      </trkpt>
      <trkpt lat="49.81889" lon="4.86699">
        <ele>351</ele>
        <time>2022-08-19T09:26:58.000Z</time>
      </trkpt>
      <trkpt lat="49.81886" lon="4.86693">
        <ele>350</ele>
        <time>2022-08-19T09:26:59.000Z</time>
      </trkpt>
      <trkpt lat="49.81883" lon="4.86686">
        <ele>350</ele>
        <time>2022-08-19T09:27:00.000Z</time>
      </trkpt>
      <trkpt lat="49.8188" lon="4.8668">
        <ele>349</ele>
        <time>2022-08-19T09:27:01.000Z</time>
      </trkpt>
      <trkpt lat="49.81876" lon="4.86674">
        <ele>349</ele>
        <time>2022-08-19T09:27:02.000Z</time>
      </trkpt>
      <trkpt lat="49.81874" lon="4.86668">
        <ele>349</ele>
        <time>2022-08-19T09:27:03.000Z</time>
      </trkpt>
      <trkpt lat="49.81871" lon="4.86663">
        <ele>349</ele>
        <time>2022-08-19T09:27:04.000Z</time>
      </trkpt>
      <trkpt lat="49.8187" lon="4.86658">
        <ele>349</ele>
        <time>2022-08-19T09:27:05.000Z</time>
      </trkpt>
      <trkpt lat="49.81867" lon="4.86654">
        <ele>348</ele>
        <time>2022-08-19T09:27:06.000Z</time>
      </trkpt>
      <trkpt lat="49.81865" lon="4.86649">
        <ele>348</ele>
        <time>2022-08-19T09:27:07.000Z</time>
      </trkpt>
      <trkpt lat="49.81862" lon="4.86645">
        <ele>348</ele>
        <time>2022-08-19T09:27:08.000Z</time>
      </trkpt>
      <trkpt lat="49.8186" lon="4.86639">
        <ele>347</ele>
        <time>2022-08-19T09:27:09.000Z</time>
      </trkpt>
      <trkpt lat="49.81858" lon="4.86634">
        <ele>347</ele>
        <time>2022-08-19T09:27:10.000Z</time>
      </trkpt>
      <trkpt lat="49.81856" lon="4.86629">
        <ele>347</ele>
        <time>2022-08-19T09:27:11.000Z</time>
      </trkpt>
      <trkpt lat="49.81853" lon="4.86623">
        <ele>347</ele>
        <time>2022-08-19T09:27:12.000Z</time>
      </trkpt>
      <trkpt lat="49.81851" lon="4.86617">
        <ele>346</ele>
        <time>2022-08-19T09:27:13.000Z</time>
      </trkpt>
      <trkpt lat="49.81848" lon="4.86612">
        <ele>346</ele>
        <time>2022-08-19T09:27:14.000Z</time>
      </trkpt>
      <trkpt lat="49.81845" lon="4.86606">
        <ele>346</ele>
        <time>2022-08-19T09:27:15.000Z</time>
      </trkpt>
      <trkpt lat="49.81841" lon="4.866">
        <ele>346</ele>
        <time>2022-08-19T09:27:16.000Z</time>
      </trkpt>
      <trkpt lat="49.81838" lon="4.86593">
        <ele>346</ele>
        <time>2022-08-19T09:27:17.000Z</time>
      </trkpt>
      <trkpt lat="49.81835" lon="4.86587">
        <ele>346</ele>
        <time>2022-08-19T09:27:18.000Z</time>
      </trkpt>
      <trkpt lat="49.81832" lon="4.86582">
        <ele>345</ele>
        <time>2022-08-19T09:27:19.000Z</time>
      </trkpt>
      <trkpt lat="49.81829" lon="4.86576">
        <ele>345</ele>
        <time>2022-08-19T09:27:20.000Z</time>
      </trkpt>
      <trkpt lat="49.81826" lon="4.8657">
        <ele>345</ele>
        <time>2022-08-19T09:27:21.000Z</time>
      </trkpt>
      <trkpt lat="49.81823" lon="4.86565">
        <ele>345</ele>
        <time>2022-08-19T09:27:22.000Z</time>
      </trkpt>
      <trkpt lat="49.8182" lon="4.8656">
        <ele>345</ele>
        <time>2022-08-19T09:27:23.000Z</time>
      </trkpt>
      <trkpt lat="49.81818" lon="4.86555">
        <ele>345</ele>
        <time>2022-08-19T09:27:24.000Z</time>
      </trkpt>
      <trkpt lat="49.81815" lon="4.8655">
        <ele>345</ele>
        <time>2022-08-19T09:27:25.000Z</time>
      </trkpt>
      <trkpt lat="49.81813" lon="4.86544">
        <ele>345</ele>
        <time>2022-08-19T09:27:26.000Z</time>
      </trkpt>
      <trkpt lat="49.8181" lon="4.86538">
        <ele>345</ele>
        <time>2022-08-19T09:27:27.000Z</time>
      </trkpt>
      <trkpt lat="49.81808" lon="4.86533">
        <ele>345</ele>
        <time>2022-08-19T09:27:28.000Z</time>
      </trkpt>
      <trkpt lat="49.81805" lon="4.86527">
        <ele>345</ele>
        <time>2022-08-19T09:27:29.000Z</time>
      </trkpt>
      <trkpt lat="49.81803" lon="4.86521">
        <ele>345</ele>
        <time>2022-08-19T09:27:30.000Z</time>
      </trkpt>
      <trkpt lat="49.818" lon="4.86515">
        <ele>344</ele>
        <time>2022-08-19T09:27:31.000Z</time>
      </trkpt>
      <trkpt lat="49.81798" lon="4.86509">
        <ele>344</ele>
        <time>2022-08-19T09:27:32.000Z</time>
      </trkpt>
      <trkpt lat="49.81796" lon="4.86504">
        <ele>344</ele>
        <time>2022-08-19T09:27:33.000Z</time>
      </trkpt>
      <trkpt lat="49.81794" lon="4.86498">
        <ele>344</ele>
        <time>2022-08-19T09:27:34.000Z</time>
      </trkpt>
      <trkpt lat="49.81791" lon="4.86491">
        <ele>344</ele>
        <time>2022-08-19T09:27:35.000Z</time>
      </trkpt>
      <trkpt lat="49.81788" lon="4.86484">
        <ele>343</ele>
        <time>2022-08-19T09:27:36.000Z</time>
      </trkpt>
      <trkpt lat="49.81785" lon="4.86477">
        <ele>343</ele>
        <time>2022-08-19T09:27:37.000Z</time>
      </trkpt>
      <trkpt lat="49.81781" lon="4.86469">
        <ele>343</ele>
        <time>2022-08-19T09:27:38.000Z</time>
      </trkpt>
      <trkpt lat="49.81776" lon="4.8646">
        <ele>343</ele>
        <time>2022-08-19T09:27:39.000Z</time>
      </trkpt>
      <trkpt lat="49.81772" lon="4.86452">
        <ele>343</ele>
        <time>2022-08-19T09:27:40.000Z</time>
      </trkpt>
      <trkpt lat="49.81769" lon="4.86444">
        <ele>342</ele>
        <time>2022-08-19T09:27:41.000Z</time>
      </trkpt>
      <trkpt lat="49.81765" lon="4.86436">
        <ele>342</ele>
        <time>2022-08-19T09:27:42.000Z</time>
      </trkpt>
      <trkpt lat="49.81762" lon="4.86428">
        <ele>342</ele>
        <time>2022-08-19T09:27:43.000Z</time>
      </trkpt>
      <trkpt lat="49.81758" lon="4.86421">
        <ele>342</ele>
        <time>2022-08-19T09:27:44.000Z</time>
      </trkpt>
      <trkpt lat="49.81753" lon="4.86414">
        <ele>342</ele>
        <time>2022-08-19T09:27:45.000Z</time>
      </trkpt>
      <trkpt lat="49.8175" lon="4.86406">
        <ele>341</ele>
        <time>2022-08-19T09:27:46.000Z</time>
      </trkpt>
      <trkpt lat="49.81745" lon="4.86397">
        <ele>341</ele>
        <time>2022-08-19T09:27:47.000Z</time>
      </trkpt>
      <trkpt lat="49.81741" lon="4.86388">
        <ele>341</ele>
        <time>2022-08-19T09:27:48.000Z</time>
      </trkpt>
      <trkpt lat="49.81737" lon="4.86379">
        <ele>341</ele>
        <time>2022-08-19T09:27:49.000Z</time>
      </trkpt>
      <trkpt lat="49.81734" lon="4.86371">
        <ele>341</ele>
        <time>2022-08-19T09:27:50.000Z</time>
      </trkpt>
      <trkpt lat="49.8173" lon="4.86362">
        <ele>340</ele>
        <time>2022-08-19T09:27:51.000Z</time>
      </trkpt>
      <trkpt lat="49.81726" lon="4.86354">
        <ele>340</ele>
        <time>2022-08-19T09:27:52.000Z</time>
      </trkpt>
      <trkpt lat="49.81723" lon="4.86348">
        <ele>340</ele>
        <time>2022-08-19T09:27:53.000Z</time>
      </trkpt>
      <trkpt lat="49.81719" lon="4.86343">
        <ele>340</ele>
        <time>2022-08-19T09:27:54.000Z</time>
      </trkpt>
      <trkpt lat="49.81716" lon="4.8634">
        <ele>339</ele>
        <time>2022-08-19T09:27:55.000Z</time>
      </trkpt>
      <trkpt lat="49.81713" lon="4.86338">
        <ele>339</ele>
        <time>2022-08-19T09:27:56.000Z</time>
      </trkpt>
      <trkpt lat="49.81709" lon="4.86338">
        <ele>339</ele>
        <time>2022-08-19T09:27:57.000Z</time>
      </trkpt>
      <trkpt lat="49.81705" lon="4.86339">
        <ele>338</ele>
        <time>2022-08-19T09:27:58.000Z</time>
      </trkpt>
      <trkpt lat="49.817" lon="4.86342">
        <ele>338</ele>
        <time>2022-08-19T09:27:59.000Z</time>
      </trkpt>
      <trkpt lat="49.81696" lon="4.86347">
        <ele>338</ele>
        <time>2022-08-19T09:28:00.000Z</time>
      </trkpt>
      <trkpt lat="49.8169" lon="4.86351">
        <ele>338</ele>
        <time>2022-08-19T09:28:01.000Z</time>
      </trkpt>
      <trkpt lat="49.81685" lon="4.86356">
        <ele>338</ele>
        <time>2022-08-19T09:28:02.000Z</time>
      </trkpt>
      <trkpt lat="49.81681" lon="4.86361">
        <ele>337</ele>
        <time>2022-08-19T09:28:03.000Z</time>
      </trkpt>
      <trkpt lat="49.81676" lon="4.86366">
        <ele>337</ele>
        <time>2022-08-19T09:28:04.000Z</time>
      </trkpt>
      <trkpt lat="49.81671" lon="4.86372">
        <ele>337</ele>
        <time>2022-08-19T09:28:05.000Z</time>
      </trkpt>
      <trkpt lat="49.81666" lon="4.86377">
        <ele>336</ele>
        <time>2022-08-19T09:28:06.000Z</time>
      </trkpt>
      <trkpt lat="49.81661" lon="4.86382">
        <ele>336</ele>
        <time>2022-08-19T09:28:07.000Z</time>
      </trkpt>
      <trkpt lat="49.81655" lon="4.86388">
        <ele>336</ele>
        <time>2022-08-19T09:28:08.000Z</time>
      </trkpt>
      <trkpt lat="49.8165" lon="4.86393">
        <ele>335</ele>
        <time>2022-08-19T09:28:09.000Z</time>
      </trkpt>
      <trkpt lat="49.81645" lon="4.86399">
        <ele>335</ele>
        <time>2022-08-19T09:28:10.000Z</time>
      </trkpt>
      <trkpt lat="49.81639" lon="4.86405">
        <ele>334</ele>
        <time>2022-08-19T09:28:11.000Z</time>
      </trkpt>
      <trkpt lat="49.81634" lon="4.86411">
        <ele>334</ele>
        <time>2022-08-19T09:28:12.000Z</time>
      </trkpt>
      <trkpt lat="49.81629" lon="4.86416">
        <ele>334</ele>
        <time>2022-08-19T09:28:13.000Z</time>
      </trkpt>
      <trkpt lat="49.81624" lon="4.86421">
        <ele>333</ele>
        <time>2022-08-19T09:28:14.000Z</time>
      </trkpt>
      <trkpt lat="49.81619" lon="4.86427">
        <ele>333</ele>
        <time>2022-08-19T09:28:15.000Z</time>
      </trkpt>
      <trkpt lat="49.81614" lon="4.86433">
        <ele>332</ele>
        <time>2022-08-19T09:28:16.000Z</time>
      </trkpt>
      <trkpt lat="49.81609" lon="4.86439">
        <ele>332</ele>
        <time>2022-08-19T09:28:17.000Z</time>
      </trkpt>
      <trkpt lat="49.81605" lon="4.86445">
        <ele>331</ele>
        <time>2022-08-19T09:28:18.000Z</time>
      </trkpt>
      <trkpt lat="49.816" lon="4.86451">
        <ele>331</ele>
        <time>2022-08-19T09:28:19.000Z</time>
      </trkpt>
      <trkpt lat="49.81595" lon="4.86457">
        <ele>330</ele>
        <time>2022-08-19T09:28:20.000Z</time>
      </trkpt>
      <trkpt lat="49.8159" lon="4.86463">
        <ele>330</ele>
        <time>2022-08-19T09:28:21.000Z</time>
      </trkpt>
      <trkpt lat="49.81585" lon="4.86469">
        <ele>329</ele>
        <time>2022-08-19T09:28:22.000Z</time>
      </trkpt>
      <trkpt lat="49.81579" lon="4.86475">
        <ele>329</ele>
        <time>2022-08-19T09:28:23.000Z</time>
      </trkpt>
      <trkpt lat="49.81574" lon="4.86481">
        <ele>328</ele>
        <time>2022-08-19T09:28:24.000Z</time>
      </trkpt>
      <trkpt lat="49.81569" lon="4.86486">
        <ele>328</ele>
        <time>2022-08-19T09:28:25.000Z</time>
      </trkpt>
      <trkpt lat="49.81564" lon="4.86492">
        <ele>327</ele>
        <time>2022-08-19T09:28:26.000Z</time>
      </trkpt>
      <trkpt lat="49.8156" lon="4.86497">
        <ele>326</ele>
        <time>2022-08-19T09:28:27.000Z</time>
      </trkpt>
      <trkpt lat="49.81555" lon="4.86502">
        <ele>326</ele>
        <time>2022-08-19T09:28:28.000Z</time>
      </trkpt>
      <trkpt lat="49.81551" lon="4.86507">
        <ele>325</ele>
        <time>2022-08-19T09:28:29.000Z</time>
      </trkpt>
      <trkpt lat="49.81546" lon="4.86512">
        <ele>324</ele>
        <time>2022-08-19T09:28:30.000Z</time>
      </trkpt>
      <trkpt lat="49.81541" lon="4.86518">
        <ele>323</ele>
        <time>2022-08-19T09:28:31.000Z</time>
      </trkpt>
      <trkpt lat="49.81537" lon="4.86523">
        <ele>323</ele>
        <time>2022-08-19T09:28:32.000Z</time>
      </trkpt>
      <trkpt lat="49.81532" lon="4.86529">
        <ele>322</ele>
        <time>2022-08-19T09:28:33.000Z</time>
      </trkpt>
      <trkpt lat="49.81528" lon="4.86536">
        <ele>321</ele>
        <time>2022-08-19T09:28:34.000Z</time>
      </trkpt>
      <trkpt lat="49.81523" lon="4.86542">
        <ele>320</ele>
        <time>2022-08-19T09:28:35.000Z</time>
      </trkpt>
      <trkpt lat="49.81518" lon="4.86548">
        <ele>319</ele>
        <time>2022-08-19T09:28:36.000Z</time>
      </trkpt>
      <trkpt lat="49.81513" lon="4.86554">
        <ele>318</ele>
        <time>2022-08-19T09:28:37.000Z</time>
      </trkpt>
      <trkpt lat="49.81508" lon="4.8656">
        <ele>317</ele>
        <time>2022-08-19T09:28:38.000Z</time>
      </trkpt>
      <trkpt lat="49.81503" lon="4.86566">
        <ele>317</ele>
        <time>2022-08-19T09:28:39.000Z</time>
      </trkpt>
      <trkpt lat="49.81498" lon="4.8657">
        <ele>316</ele>
        <time>2022-08-19T09:28:40.000Z</time>
      </trkpt>
      <trkpt lat="49.81492" lon="4.86576">
        <ele>315</ele>
        <time>2022-08-19T09:28:41.000Z</time>
      </trkpt>
      <trkpt lat="49.81487" lon="4.86581">
        <ele>314</ele>
        <time>2022-08-19T09:28:42.000Z</time>
      </trkpt>
      <trkpt lat="49.81482" lon="4.86587">
        <ele>313</ele>
        <time>2022-08-19T09:28:43.000Z</time>
      </trkpt>
      <trkpt lat="49.81477" lon="4.86593">
        <ele>312</ele>
        <time>2022-08-19T09:28:44.000Z</time>
      </trkpt>
      <trkpt lat="49.81472" lon="4.86598">
        <ele>311</ele>
        <time>2022-08-19T09:28:45.000Z</time>
      </trkpt>
      <trkpt lat="49.81466" lon="4.86604">
        <ele>310</ele>
        <time>2022-08-19T09:28:46.000Z</time>
      </trkpt>
      <trkpt lat="49.81461" lon="4.86609">
        <ele>309</ele>
        <time>2022-08-19T09:28:47.000Z</time>
      </trkpt>
      <trkpt lat="49.81456" lon="4.86613">
        <ele>308</ele>
        <time>2022-08-19T09:28:48.000Z</time>
      </trkpt>
      <trkpt lat="49.81451" lon="4.86618">
        <ele>306</ele>
        <time>2022-08-19T09:28:49.000Z</time>
      </trkpt>
      <trkpt lat="49.81446" lon="4.86623">
        <ele>305</ele>
        <time>2022-08-19T09:28:50.000Z</time>
      </trkpt>
      <trkpt lat="49.81442" lon="4.86628">
        <ele>304</ele>
        <time>2022-08-19T09:28:51.000Z</time>
      </trkpt>
      <trkpt lat="49.81438" lon="4.86632">
        <ele>303</ele>
        <time>2022-08-19T09:28:52.000Z</time>
      </trkpt>
      <trkpt lat="49.81434" lon="4.86635">
        <ele>302</ele>
        <time>2022-08-19T09:28:53.000Z</time>
      </trkpt>
      <trkpt lat="49.8143" lon="4.86637">
        <ele>301</ele>
        <time>2022-08-19T09:28:54.000Z</time>
      </trkpt>
      <trkpt lat="49.81428" lon="4.86639">
        <ele>300</ele>
        <time>2022-08-19T09:28:55.000Z</time>
      </trkpt>
      <trkpt lat="49.81426" lon="4.86638">
        <ele>299</ele>
        <time>2022-08-19T09:28:56.000Z</time>
      </trkpt>
      <trkpt lat="49.81424" lon="4.86636">
        <ele>298</ele>
        <time>2022-08-19T09:28:57.000Z</time>
      </trkpt>
      <trkpt lat="49.81422" lon="4.86632">
        <ele>297</ele>
        <time>2022-08-19T09:28:58.000Z</time>
      </trkpt>
      <trkpt lat="49.81421" lon="4.86627">
        <ele>296</ele>
        <time>2022-08-19T09:28:59.000Z</time>
      </trkpt>
      <trkpt lat="49.8142" lon="4.86622">
        <ele>295</ele>
        <time>2022-08-19T09:29:00.000Z</time>
      </trkpt>
      <trkpt lat="49.8142" lon="4.86617">
        <ele>294</ele>
        <time>2022-08-19T09:29:01.000Z</time>
      </trkpt>
      <trkpt lat="49.8142" lon="4.86611">
        <ele>293</ele>
        <time>2022-08-19T09:29:02.000Z</time>
      </trkpt>
      <trkpt lat="49.81419" lon="4.86604">
        <ele>292</ele>
        <time>2022-08-19T09:29:03.000Z</time>
      </trkpt>
      <trkpt lat="49.81418" lon="4.86597">
        <ele>290</ele>
        <time>2022-08-19T09:29:04.000Z</time>
      </trkpt>
      <trkpt lat="49.81416" lon="4.86588">
        <ele>289</ele>
        <time>2022-08-19T09:29:05.000Z</time>
      </trkpt>
      <trkpt lat="49.81414" lon="4.86579">
        <ele>288</ele>
        <time>2022-08-19T09:29:06.000Z</time>
      </trkpt>
      <trkpt lat="49.81413" lon="4.86571">
        <ele>287</ele>
        <time>2022-08-19T09:29:07.000Z</time>
      </trkpt>
      <trkpt lat="49.81412" lon="4.86561">
        <ele>286</ele>
        <time>2022-08-19T09:29:08.000Z</time>
      </trkpt>
      <trkpt lat="49.8141" lon="4.86551">
        <ele>285</ele>
        <time>2022-08-19T09:29:09.000Z</time>
      </trkpt>
      <trkpt lat="49.81408" lon="4.8654">
        <ele>284</ele>
        <time>2022-08-19T09:29:10.000Z</time>
      </trkpt>
      <trkpt lat="49.81406" lon="4.86528">
        <ele>283</ele>
        <time>2022-08-19T09:29:11.000Z</time>
      </trkpt>
      <trkpt lat="49.81405" lon="4.86517">
        <ele>282</ele>
        <time>2022-08-19T09:29:12.000Z</time>
      </trkpt>
      <trkpt lat="49.81403" lon="4.86505">
        <ele>281</ele>
        <time>2022-08-19T09:29:13.000Z</time>
      </trkpt>
      <trkpt lat="49.81401" lon="4.86493">
        <ele>280</ele>
        <time>2022-08-19T09:29:14.000Z</time>
      </trkpt>
      <trkpt lat="49.814" lon="4.86481">
        <ele>279</ele>
        <time>2022-08-19T09:29:15.000Z</time>
      </trkpt>
      <trkpt lat="49.81398" lon="4.86469">
        <ele>278</ele>
        <time>2022-08-19T09:29:16.000Z</time>
      </trkpt>
      <trkpt lat="49.81396" lon="4.86457">
        <ele>277</ele>
        <time>2022-08-19T09:29:17.000Z</time>
      </trkpt>
      <trkpt lat="49.81394" lon="4.86444">
        <ele>276</ele>
        <time>2022-08-19T09:29:18.000Z</time>
      </trkpt>
      <trkpt lat="49.81391" lon="4.86432">
        <ele>275</ele>
        <time>2022-08-19T09:29:19.000Z</time>
      </trkpt>
      <trkpt lat="49.81389" lon="4.8642">
        <ele>274</ele>
        <time>2022-08-19T09:29:20.000Z</time>
      </trkpt>
      <trkpt lat="49.81388" lon="4.86408">
        <ele>273</ele>
        <time>2022-08-19T09:29:21.000Z</time>
      </trkpt>
      <trkpt lat="49.81386" lon="4.86397">
        <ele>272</ele>
        <time>2022-08-19T09:29:22.000Z</time>
      </trkpt>
      <trkpt lat="49.81384" lon="4.86385">
        <ele>271</ele>
        <time>2022-08-19T09:29:23.000Z</time>
      </trkpt>
      <trkpt lat="49.81383" lon="4.86375">
        <ele>270</ele>
        <time>2022-08-19T09:29:24.000Z</time>
      </trkpt>
      <trkpt lat="49.81381" lon="4.86364">
        <ele>269</ele>
        <time>2022-08-19T09:29:25.000Z</time>
      </trkpt>
      <trkpt lat="49.8138" lon="4.86353">
        <ele>268</ele>
        <time>2022-08-19T09:29:26.000Z</time>
      </trkpt>
      <trkpt lat="49.81378" lon="4.86343">
        <ele>267</ele>
        <time>2022-08-19T09:29:27.000Z</time>
      </trkpt>
      <trkpt lat="49.81377" lon="4.86332">
        <ele>267</ele>
        <time>2022-08-19T09:29:28.000Z</time>
      </trkpt>
      <trkpt lat="49.81376" lon="4.86322">
        <ele>266</ele>
        <time>2022-08-19T09:29:29.000Z</time>
      </trkpt>
      <trkpt lat="49.81375" lon="4.86311">
        <ele>265</ele>
        <time>2022-08-19T09:29:30.000Z</time>
      </trkpt>
      <trkpt lat="49.81374" lon="4.86302">
        <ele>265</ele>
        <time>2022-08-19T09:29:31.000Z</time>
      </trkpt>
      <trkpt lat="49.81373" lon="4.86293">
        <ele>264</ele>
        <time>2022-08-19T09:29:32.000Z</time>
      </trkpt>
      <trkpt lat="49.81372" lon="4.86284">
        <ele>263</ele>
        <time>2022-08-19T09:29:33.000Z</time>
      </trkpt>
      <trkpt lat="49.8137" lon="4.86275">
        <ele>263</ele>
        <time>2022-08-19T09:29:34.000Z</time>
      </trkpt>
      <trkpt lat="49.8137" lon="4.86266">
        <ele>262</ele>
        <time>2022-08-19T09:29:35.000Z</time>
      </trkpt>
      <trkpt lat="49.81369" lon="4.86257">
        <ele>262</ele>
        <time>2022-08-19T09:29:36.000Z</time>
      </trkpt>
      <trkpt lat="49.81368" lon="4.86247">
        <ele>261</ele>
        <time>2022-08-19T09:29:37.000Z</time>
      </trkpt>
      <trkpt lat="49.81368" lon="4.86236">
        <ele>261</ele>
        <time>2022-08-19T09:29:38.000Z</time>
      </trkpt>
      <trkpt lat="49.81366" lon="4.86225">
        <ele>260</ele>
        <time>2022-08-19T09:29:39.000Z</time>
      </trkpt>
      <trkpt lat="49.81365" lon="4.86214">
        <ele>260</ele>
        <time>2022-08-19T09:29:40.000Z</time>
      </trkpt>
      <trkpt lat="49.81363" lon="4.86204">
        <ele>259</ele>
        <time>2022-08-19T09:29:41.000Z</time>
      </trkpt>
      <trkpt lat="49.81361" lon="4.86194">
        <ele>259</ele>
        <time>2022-08-19T09:29:42.000Z</time>
      </trkpt>
      <trkpt lat="49.81359" lon="4.86185">
        <ele>259</ele>
        <time>2022-08-19T09:29:43.000Z</time>
      </trkpt>
      <trkpt lat="49.81358" lon="4.86176">
        <ele>258</ele>
        <time>2022-08-19T09:29:44.000Z</time>
      </trkpt>
      <trkpt lat="49.81357" lon="4.86167">
        <ele>258</ele>
        <time>2022-08-19T09:29:45.000Z</time>
      </trkpt>
      <trkpt lat="49.81355" lon="4.86157">
        <ele>258</ele>
        <time>2022-08-19T09:29:46.000Z</time>
      </trkpt>
      <trkpt lat="49.81354" lon="4.86149">
        <ele>257</ele>
        <time>2022-08-19T09:29:47.000Z</time>
      </trkpt>
      <trkpt lat="49.81352" lon="4.86139">
        <ele>257</ele>
        <time>2022-08-19T09:29:48.000Z</time>
      </trkpt>
      <trkpt lat="49.81351" lon="4.86131">
        <ele>257</ele>
        <time>2022-08-19T09:29:49.000Z</time>
      </trkpt>
      <trkpt lat="49.8135" lon="4.86123">
        <ele>257</ele>
        <time>2022-08-19T09:29:50.000Z</time>
      </trkpt>
      <trkpt lat="49.81349" lon="4.86115">
        <ele>256</ele>
        <time>2022-08-19T09:29:51.000Z</time>
      </trkpt>
      <trkpt lat="49.81348" lon="4.86107">
        <ele>256</ele>
        <time>2022-08-19T09:29:52.000Z</time>
      </trkpt>
      <trkpt lat="49.81346" lon="4.86099">
        <ele>256</ele>
        <time>2022-08-19T09:29:53.000Z</time>
      </trkpt>
      <trkpt lat="49.81345" lon="4.86091">
        <ele>256</ele>
        <time>2022-08-19T09:29:54.000Z</time>
      </trkpt>
      <trkpt lat="49.81345" lon="4.86083">
        <ele>256</ele>
        <time>2022-08-19T09:29:55.000Z</time>
      </trkpt>
      <trkpt lat="49.81345" lon="4.86074">
        <ele>256</ele>
        <time>2022-08-19T09:29:56.000Z</time>
      </trkpt>
      <trkpt lat="49.81345" lon="4.86066">
        <ele>255</ele>
        <time>2022-08-19T09:29:57.000Z</time>
      </trkpt>
      <trkpt lat="49.81345" lon="4.86058">
        <ele>255</ele>
        <time>2022-08-19T09:29:58.000Z</time>
      </trkpt>
      <trkpt lat="49.81345" lon="4.8605">
        <ele>255</ele>
        <time>2022-08-19T09:29:59.000Z</time>
      </trkpt>
      <trkpt lat="49.81345" lon="4.86042">
        <ele>255</ele>
        <time>2022-08-19T09:30:00.000Z</time>
      </trkpt>
      <trkpt lat="49.81345" lon="4.86034">
        <ele>254</ele>
        <time>2022-08-19T09:30:01.000Z</time>
      </trkpt>
      <trkpt lat="49.81345" lon="4.86028">
        <ele>254</ele>
        <time>2022-08-19T09:30:02.000Z</time>
      </trkpt>
      <trkpt lat="49.81345" lon="4.86022">
        <ele>254</ele>
        <time>2022-08-19T09:30:03.000Z</time>
      </trkpt>
      <trkpt lat="49.81344" lon="4.86016">
        <ele>254</ele>
        <time>2022-08-19T09:30:04.000Z</time>
      </trkpt>
      <trkpt lat="49.81343" lon="4.8601">
        <ele>254</ele>
        <time>2022-08-19T09:30:05.000Z</time>
      </trkpt>
      <trkpt lat="49.81344" lon="4.86002">
        <ele>253</ele>
        <time>2022-08-19T09:30:06.000Z</time>
      </trkpt>
      <trkpt lat="49.81344" lon="4.85994">
        <ele>253</ele>
        <time>2022-08-19T09:30:07.000Z</time>
      </trkpt>
      <trkpt lat="49.81344" lon="4.85985">
        <ele>252</ele>
        <time>2022-08-19T09:30:08.000Z</time>
      </trkpt>
      <trkpt lat="49.81345" lon="4.85977">
        <ele>252</ele>
        <time>2022-08-19T09:30:09.000Z</time>
      </trkpt>
      <trkpt lat="49.81345" lon="4.85968">
        <ele>252</ele>
        <time>2022-08-19T09:30:10.000Z</time>
      </trkpt>
      <trkpt lat="49.81345" lon="4.85958">
        <ele>251</ele>
        <time>2022-08-19T09:30:11.000Z</time>
      </trkpt>
      <trkpt lat="49.81345" lon="4.85947">
        <ele>251</ele>
        <time>2022-08-19T09:30:12.000Z</time>
      </trkpt>
      <trkpt lat="49.81346" lon="4.85936">
        <ele>250</ele>
        <time>2022-08-19T09:30:13.000Z</time>
      </trkpt>
      <trkpt lat="49.81347" lon="4.85925">
        <ele>250</ele>
        <time>2022-08-19T09:30:14.000Z</time>
      </trkpt>
      <trkpt lat="49.81347" lon="4.85914">
        <ele>249</ele>
        <time>2022-08-19T09:30:15.000Z</time>
      </trkpt>
      <trkpt lat="49.81348" lon="4.85903">
        <ele>249</ele>
        <time>2022-08-19T09:30:16.000Z</time>
      </trkpt>
      <trkpt lat="49.8135" lon="4.85893">
        <ele>248</ele>
        <time>2022-08-19T09:30:17.000Z</time>
      </trkpt>
      <trkpt lat="49.81352" lon="4.85883">
        <ele>248</ele>
        <time>2022-08-19T09:30:18.000Z</time>
      </trkpt>
      <trkpt lat="49.81354" lon="4.85873">
        <ele>247</ele>
        <time>2022-08-19T09:30:19.000Z</time>
      </trkpt>
      <trkpt lat="49.81355" lon="4.85864">
        <ele>246</ele>
        <time>2022-08-19T09:30:20.000Z</time>
      </trkpt>
      <trkpt lat="49.81357" lon="4.85854">
        <ele>246</ele>
        <time>2022-08-19T09:30:21.000Z</time>
      </trkpt>
      <trkpt lat="49.81361" lon="4.85844">
        <ele>245</ele>
        <time>2022-08-19T09:30:22.000Z</time>
      </trkpt>
      <trkpt lat="49.81364" lon="4.85834">
        <ele>245</ele>
        <time>2022-08-19T09:30:23.000Z</time>
      </trkpt>
      <trkpt lat="49.81367" lon="4.85824">
        <ele>244</ele>
        <time>2022-08-19T09:30:24.000Z</time>
      </trkpt>
      <trkpt lat="49.81371" lon="4.85814">
        <ele>243</ele>
        <time>2022-08-19T09:30:25.000Z</time>
      </trkpt>
      <trkpt lat="49.81373" lon="4.85803">
        <ele>243</ele>
        <time>2022-08-19T09:30:26.000Z</time>
      </trkpt>
      <trkpt lat="49.81375" lon="4.85792">
        <ele>242</ele>
        <time>2022-08-19T09:30:27.000Z</time>
      </trkpt>
      <trkpt lat="49.81377" lon="4.85782">
        <ele>242</ele>
        <time>2022-08-19T09:30:28.000Z</time>
      </trkpt>
      <trkpt lat="49.81378" lon="4.85771">
        <ele>241</ele>
        <time>2022-08-19T09:30:29.000Z</time>
      </trkpt>
      <trkpt lat="49.8138" lon="4.85761">
        <ele>241</ele>
        <time>2022-08-19T09:30:30.000Z</time>
      </trkpt>
      <trkpt lat="49.81382" lon="4.8575">
        <ele>240</ele>
        <time>2022-08-19T09:30:31.000Z</time>
      </trkpt>
      <trkpt lat="49.81384" lon="4.8574">
        <ele>240</ele>
        <time>2022-08-19T09:30:32.000Z</time>
      </trkpt>
      <trkpt lat="49.81386" lon="4.8573">
        <ele>239</ele>
        <time>2022-08-19T09:30:33.000Z</time>
      </trkpt>
      <trkpt lat="49.81388" lon="4.85721">
        <ele>239</ele>
        <time>2022-08-19T09:30:34.000Z</time>
      </trkpt>
      <trkpt lat="49.8139" lon="4.85713">
        <ele>238</ele>
        <time>2022-08-19T09:30:35.000Z</time>
      </trkpt>
      <trkpt lat="49.81392" lon="4.85704">
        <ele>238</ele>
        <time>2022-08-19T09:30:36.000Z</time>
      </trkpt>
      <trkpt lat="49.81393" lon="4.85694">
        <ele>238</ele>
        <time>2022-08-19T09:30:37.000Z</time>
      </trkpt>
      <trkpt lat="49.81395" lon="4.85684">
        <ele>237</ele>
        <time>2022-08-19T09:30:38.000Z</time>
      </trkpt>
      <trkpt lat="49.81397" lon="4.85676">
        <ele>237</ele>
        <time>2022-08-19T09:30:39.000Z</time>
      </trkpt>
      <trkpt lat="49.81399" lon="4.85667">
        <ele>237</ele>
        <time>2022-08-19T09:30:40.000Z</time>
      </trkpt>
      <trkpt lat="49.81401" lon="4.8566">
        <ele>236</ele>
        <time>2022-08-19T09:30:41.000Z</time>
      </trkpt>
      <trkpt lat="49.81403" lon="4.85652">
        <ele>236</ele>
        <time>2022-08-19T09:30:42.000Z</time>
      </trkpt>
      <trkpt lat="49.81404" lon="4.85644">
        <ele>236</ele>
        <time>2022-08-19T09:30:43.000Z</time>
      </trkpt>
      <trkpt lat="49.81406" lon="4.85636">
        <ele>236</ele>
        <time>2022-08-19T09:30:44.000Z</time>
      </trkpt>
      <trkpt lat="49.81407" lon="4.85627">
        <ele>236</ele>
        <time>2022-08-19T09:30:45.000Z</time>
      </trkpt>
      <trkpt lat="49.81408" lon="4.85618">
        <ele>236</ele>
        <time>2022-08-19T09:30:46.000Z</time>
      </trkpt>
      <trkpt lat="49.8141" lon="4.85609">
        <ele>236</ele>
        <time>2022-08-19T09:30:47.000Z</time>
      </trkpt>
      <trkpt lat="49.8141" lon="4.856">
        <ele>236</ele>
        <time>2022-08-19T09:30:48.000Z</time>
      </trkpt>
      <trkpt lat="49.81411" lon="4.85591">
        <ele>235</ele>
        <time>2022-08-19T09:30:49.000Z</time>
      </trkpt>
      <trkpt lat="49.81412" lon="4.85582">
        <ele>235</ele>
        <time>2022-08-19T09:30:50.000Z</time>
      </trkpt>
      <trkpt lat="49.81414" lon="4.85573">
        <ele>235</ele>
        <time>2022-08-19T09:30:51.000Z</time>
      </trkpt>
      <trkpt lat="49.81416" lon="4.85564">
        <ele>235</ele>
        <time>2022-08-19T09:30:52.000Z</time>
      </trkpt>
      <trkpt lat="49.81418" lon="4.85555">
        <ele>235</ele>
        <time>2022-08-19T09:30:53.000Z</time>
      </trkpt>
      <trkpt lat="49.81421" lon="4.85547">
        <ele>234</ele>
        <time>2022-08-19T09:30:54.000Z</time>
      </trkpt>
      <trkpt lat="49.81424" lon="4.85538">
        <ele>234</ele>
        <time>2022-08-19T09:30:55.000Z</time>
      </trkpt>
      <trkpt lat="49.81427" lon="4.85529">
        <ele>234</ele>
        <time>2022-08-19T09:30:56.000Z</time>
      </trkpt>
      <trkpt lat="49.8143" lon="4.85521">
        <ele>234</ele>
        <time>2022-08-19T09:30:57.000Z</time>
      </trkpt>
      <trkpt lat="49.81433" lon="4.85514">
        <ele>234</ele>
        <time>2022-08-19T09:30:58.000Z</time>
      </trkpt>
      <trkpt lat="49.81437" lon="4.85507">
        <ele>234</ele>
        <time>2022-08-19T09:30:59.000Z</time>
      </trkpt>
      <trkpt lat="49.8144" lon="4.855">
        <ele>233</ele>
        <time>2022-08-19T09:31:00.000Z</time>
      </trkpt>
      <trkpt lat="49.81444" lon="4.85493">
        <ele>233</ele>
        <time>2022-08-19T09:31:01.000Z</time>
      </trkpt>
      <trkpt lat="49.81448" lon="4.85486">
        <ele>233</ele>
        <time>2022-08-19T09:31:02.000Z</time>
      </trkpt>
      <trkpt lat="49.81452" lon="4.85479">
        <ele>233</ele>
        <time>2022-08-19T09:31:03.000Z</time>
      </trkpt>
      <trkpt lat="49.81457" lon="4.85472">
        <ele>233</ele>
        <time>2022-08-19T09:31:04.000Z</time>
      </trkpt>
      <trkpt lat="49.81461" lon="4.85465">
        <ele>232</ele>
        <time>2022-08-19T09:31:05.000Z</time>
      </trkpt>
      <trkpt lat="49.81465" lon="4.85459">
        <ele>232</ele>
        <time>2022-08-19T09:31:06.000Z</time>
      </trkpt>
      <trkpt lat="49.81469" lon="4.85453">
        <ele>232</ele>
        <time>2022-08-19T09:31:07.000Z</time>
      </trkpt>
      <trkpt lat="49.81474" lon="4.85449">
        <ele>232</ele>
        <time>2022-08-19T09:31:08.000Z</time>
      </trkpt>
      <trkpt lat="49.81479" lon="4.85444">
        <ele>232</ele>
        <time>2022-08-19T09:31:09.000Z</time>
      </trkpt>
      <trkpt lat="49.81483" lon="4.85441">
        <ele>232</ele>
        <time>2022-08-19T09:31:10.000Z</time>
      </trkpt>
      <trkpt lat="49.81488" lon="4.85436">
        <ele>232</ele>
        <time>2022-08-19T09:31:11.000Z</time>
      </trkpt>
      <trkpt lat="49.81494" lon="4.85433">
        <ele>231</ele>
        <time>2022-08-19T09:31:12.000Z</time>
      </trkpt>
      <trkpt lat="49.81499" lon="4.8543">
        <ele>231</ele>
        <time>2022-08-19T09:31:13.000Z</time>
      </trkpt>
      <trkpt lat="49.81504" lon="4.85428">
        <ele>231</ele>
        <time>2022-08-19T09:31:14.000Z</time>
      </trkpt>
      <trkpt lat="49.81508" lon="4.85425">
        <ele>231</ele>
        <time>2022-08-19T09:31:15.000Z</time>
      </trkpt>
      <trkpt lat="49.81513" lon="4.85423">
        <ele>232</ele>
        <time>2022-08-19T09:31:16.000Z</time>
      </trkpt>
      <trkpt lat="49.81518" lon="4.85423">
        <ele>232</ele>
        <time>2022-08-19T09:31:17.000Z</time>
      </trkpt>
      <trkpt lat="49.81523" lon="4.85423">
        <ele>232</ele>
        <time>2022-08-19T09:31:18.000Z</time>
      </trkpt>
      <trkpt lat="49.81528" lon="4.85423">
        <ele>232</ele>
        <time>2022-08-19T09:31:19.000Z</time>
      </trkpt>
      <trkpt lat="49.81532" lon="4.85423">
        <ele>232</ele>
        <time>2022-08-19T09:31:20.000Z</time>
      </trkpt>
      <trkpt lat="49.81536" lon="4.85423">
        <ele>233</ele>
        <time>2022-08-19T09:31:21.000Z</time>
      </trkpt>
      <trkpt lat="49.8154" lon="4.85424">
        <ele>233</ele>
        <time>2022-08-19T09:31:22.000Z</time>
      </trkpt>
      <trkpt lat="49.81545" lon="4.85424">
        <ele>233</ele>
        <time>2022-08-19T09:31:23.000Z</time>
      </trkpt>
      <trkpt lat="49.8155" lon="4.85423">
        <ele>233</ele>
        <time>2022-08-19T09:31:24.000Z</time>
      </trkpt>
      <trkpt lat="49.81555" lon="4.85422">
        <ele>233</ele>
        <time>2022-08-19T09:31:25.000Z</time>
      </trkpt>
      <trkpt lat="49.8156" lon="4.85423">
        <ele>233</ele>
        <time>2022-08-19T09:31:26.000Z</time>
      </trkpt>
      <trkpt lat="49.81564" lon="4.85422">
        <ele>233</ele>
        <time>2022-08-19T09:31:27.000Z</time>
      </trkpt>
      <trkpt lat="49.81568" lon="4.85422">
        <ele>234</ele>
        <time>2022-08-19T09:31:28.000Z</time>
      </trkpt>
      <trkpt lat="49.81572" lon="4.85421">
        <ele>234</ele>
        <time>2022-08-19T09:31:29.000Z</time>
      </trkpt>
      <trkpt lat="49.81576" lon="4.8542">
        <ele>234</ele>
        <time>2022-08-19T09:31:30.000Z</time>
      </trkpt>
      <trkpt lat="49.8158" lon="4.8542">
        <ele>234</ele>
        <time>2022-08-19T09:31:31.000Z</time>
      </trkpt>
      <trkpt lat="49.81584" lon="4.85419">
        <ele>234</ele>
        <time>2022-08-19T09:31:32.000Z</time>
      </trkpt>
      <trkpt lat="49.81588" lon="4.85419">
        <ele>234</ele>
        <time>2022-08-19T09:31:33.000Z</time>
      </trkpt>
      <trkpt lat="49.81592" lon="4.85419">
        <ele>234</ele>
        <time>2022-08-19T09:31:34.000Z</time>
      </trkpt>
      <trkpt lat="49.81596" lon="4.8542">
        <ele>234</ele>
        <time>2022-08-19T09:31:35.000Z</time>
      </trkpt>
      <trkpt lat="49.816" lon="4.8542">
        <ele>234</ele>
        <time>2022-08-19T09:31:36.000Z</time>
      </trkpt>
      <trkpt lat="49.81604" lon="4.8542">
        <ele>234</ele>
        <time>2022-08-19T09:31:37.000Z</time>
      </trkpt>
      <trkpt lat="49.81608" lon="4.8542">
        <ele>234</ele>
        <time>2022-08-19T09:31:38.000Z</time>
      </trkpt>
      <trkpt lat="49.81612" lon="4.85422">
        <ele>234</ele>
        <time>2022-08-19T09:31:39.000Z</time>
      </trkpt>
      <trkpt lat="49.81617" lon="4.85423">
        <ele>234</ele>
        <time>2022-08-19T09:31:40.000Z</time>
      </trkpt>
      <trkpt lat="49.8162" lon="4.85424">
        <ele>234</ele>
        <time>2022-08-19T09:31:41.000Z</time>
      </trkpt>
      <trkpt lat="49.81623" lon="4.85425">
        <ele>234</ele>
        <time>2022-08-19T09:31:42.000Z</time>
      </trkpt>
      <trkpt lat="49.81627" lon="4.85427">
        <ele>234</ele>
        <time>2022-08-19T09:31:43.000Z</time>
      </trkpt>
      <trkpt lat="49.81632" lon="4.85429">
        <ele>234</ele>
        <time>2022-08-19T09:31:44.000Z</time>
      </trkpt>
      <trkpt lat="49.81636" lon="4.8543">
        <ele>234</ele>
        <time>2022-08-19T09:31:45.000Z</time>
      </trkpt>
      <trkpt lat="49.8164" lon="4.85432">
        <ele>234</ele>
        <time>2022-08-19T09:31:46.000Z</time>
      </trkpt>
      <trkpt lat="49.81644" lon="4.85434">
        <ele>234</ele>
        <time>2022-08-19T09:31:47.000Z</time>
      </trkpt>
      <trkpt lat="49.81648" lon="4.85436">
        <ele>234</ele>
        <time>2022-08-19T09:31:48.000Z</time>
      </trkpt>
      <trkpt lat="49.81652" lon="4.85439">
        <ele>233</ele>
        <time>2022-08-19T09:31:49.000Z</time>
      </trkpt>
      <trkpt lat="49.81657" lon="4.85441">
        <ele>233</ele>
        <time>2022-08-19T09:31:50.000Z</time>
      </trkpt>
      <trkpt lat="49.81662" lon="4.85443">
        <ele>233</ele>
        <time>2022-08-19T09:31:51.000Z</time>
      </trkpt>
      <trkpt lat="49.81666" lon="4.85444">
        <ele>233</ele>
        <time>2022-08-19T09:31:52.000Z</time>
      </trkpt>
      <trkpt lat="49.81671" lon="4.85445">
        <ele>233</ele>
        <time>2022-08-19T09:31:53.000Z</time>
      </trkpt>
      <trkpt lat="49.81675" lon="4.85444">
        <ele>233</ele>
        <time>2022-08-19T09:31:54.000Z</time>
      </trkpt>
      <trkpt lat="49.81679" lon="4.85443">
        <ele>233</ele>
        <time>2022-08-19T09:31:55.000Z</time>
      </trkpt>
      <trkpt lat="49.81682" lon="4.85442">
        <ele>233</ele>
        <time>2022-08-19T09:31:56.000Z</time>
      </trkpt>
      <trkpt lat="49.81685" lon="4.8544">
        <ele>233</ele>
        <time>2022-08-19T09:31:57.000Z</time>
      </trkpt>
      <trkpt lat="49.81687" lon="4.85437">
        <ele>233</ele>
        <time>2022-08-19T09:31:58.000Z</time>
      </trkpt>
      <trkpt lat="49.81689" lon="4.85433">
        <ele>233</ele>
        <time>2022-08-19T09:31:59.000Z</time>
      </trkpt>
      <trkpt lat="49.8169" lon="4.8543">
        <ele>232</ele>
        <time>2022-08-19T09:32:00.000Z</time>
      </trkpt>
      <trkpt lat="49.81691" lon="4.85425">
        <ele>232</ele>
        <time>2022-08-19T09:32:01.000Z</time>
      </trkpt>
      <trkpt lat="49.81691" lon="4.8542">
        <ele>232</ele>
        <time>2022-08-19T09:32:02.000Z</time>
      </trkpt>
      <trkpt lat="49.8169" lon="4.85414">
        <ele>232</ele>
        <time>2022-08-19T09:32:03.000Z</time>
      </trkpt>
      <trkpt lat="49.81689" lon="4.85408">
        <ele>231</ele>
        <time>2022-08-19T09:32:04.000Z</time>
      </trkpt>
      <trkpt lat="49.81687" lon="4.85402">
        <ele>231</ele>
        <time>2022-08-19T09:32:05.000Z</time>
      </trkpt>
      <trkpt lat="49.81685" lon="4.85396">
        <ele>231</ele>
        <time>2022-08-19T09:32:06.000Z</time>
      </trkpt>
      <trkpt lat="49.81683" lon="4.85389">
        <ele>231</ele>
        <time>2022-08-19T09:32:07.000Z</time>
      </trkpt>
      <trkpt lat="49.81681" lon="4.85382">
        <ele>230</ele>
        <time>2022-08-19T09:32:08.000Z</time>
      </trkpt>
      <trkpt lat="49.8168" lon="4.85375">
        <ele>230</ele>
        <time>2022-08-19T09:32:09.000Z</time>
      </trkpt>
      <trkpt lat="49.81677" lon="4.85367">
        <ele>230</ele>
        <time>2022-08-19T09:32:10.000Z</time>
      </trkpt>
      <trkpt lat="49.81674" lon="4.85359">
        <ele>229</ele>
        <time>2022-08-19T09:32:11.000Z</time>
      </trkpt>
      <trkpt lat="49.81671" lon="4.8535">
        <ele>229</ele>
        <time>2022-08-19T09:32:12.000Z</time>
      </trkpt>
      <trkpt lat="49.81668" lon="4.85341">
        <ele>229</ele>
        <time>2022-08-19T09:32:13.000Z</time>
      </trkpt>
      <trkpt lat="49.81664" lon="4.85332">
        <ele>228</ele>
        <time>2022-08-19T09:32:14.000Z</time>
      </trkpt>
      <trkpt lat="49.81661" lon="4.85322">
        <ele>228</ele>
        <time>2022-08-19T09:32:15.000Z</time>
      </trkpt>
      <trkpt lat="49.81658" lon="4.85313">
        <ele>227</ele>
        <time>2022-08-19T09:32:16.000Z</time>
      </trkpt>
      <trkpt lat="49.81655" lon="4.85304">
        <ele>227</ele>
        <time>2022-08-19T09:32:17.000Z</time>
      </trkpt>
      <trkpt lat="49.81651" lon="4.85294">
        <ele>227</ele>
        <time>2022-08-19T09:32:18.000Z</time>
      </trkpt>
      <trkpt lat="49.81648" lon="4.85285">
        <ele>226</ele>
        <time>2022-08-19T09:32:19.000Z</time>
      </trkpt>
      <trkpt lat="49.81645" lon="4.85276">
        <ele>225</ele>
        <time>2022-08-19T09:32:20.000Z</time>
      </trkpt>
      <trkpt lat="49.81642" lon="4.85266">
        <ele>225</ele>
        <time>2022-08-19T09:32:21.000Z</time>
      </trkpt>
      <trkpt lat="49.81638" lon="4.85256">
        <ele>224</ele>
        <time>2022-08-19T09:32:22.000Z</time>
      </trkpt>
      <trkpt lat="49.81635" lon="4.85246">
        <ele>224</ele>
        <time>2022-08-19T09:32:23.000Z</time>
      </trkpt>
      <trkpt lat="49.81632" lon="4.85236">
        <ele>223</ele>
        <time>2022-08-19T09:32:24.000Z</time>
      </trkpt>
      <trkpt lat="49.81628" lon="4.85227">
        <ele>222</ele>
        <time>2022-08-19T09:32:25.000Z</time>
      </trkpt>
      <trkpt lat="49.81625" lon="4.85217">
        <ele>222</ele>
        <time>2022-08-19T09:32:26.000Z</time>
      </trkpt>
      <trkpt lat="49.81621" lon="4.85207">
        <ele>222</ele>
        <time>2022-08-19T09:32:27.000Z</time>
      </trkpt>
      <trkpt lat="49.81618" lon="4.85198">
        <ele>221</ele>
        <time>2022-08-19T09:32:28.000Z</time>
      </trkpt>
      <trkpt lat="49.81614" lon="4.85188">
        <ele>221</ele>
        <time>2022-08-19T09:32:29.000Z</time>
      </trkpt>
      <trkpt lat="49.81612" lon="4.85179">
        <ele>220</ele>
        <time>2022-08-19T09:32:30.000Z</time>
      </trkpt>
      <trkpt lat="49.81609" lon="4.85171">
        <ele>220</ele>
        <time>2022-08-19T09:32:31.000Z</time>
      </trkpt>
      <trkpt lat="49.81605" lon="4.85162">
        <ele>220</ele>
        <time>2022-08-19T09:32:32.000Z</time>
      </trkpt>
      <trkpt lat="49.81602" lon="4.85154">
        <ele>219</ele>
        <time>2022-08-19T09:32:33.000Z</time>
      </trkpt>
      <trkpt lat="49.81598" lon="4.85145">
        <ele>219</ele>
        <time>2022-08-19T09:32:34.000Z</time>
      </trkpt>
      <trkpt lat="49.81595" lon="4.85137">
        <ele>219</ele>
        <time>2022-08-19T09:32:35.000Z</time>
      </trkpt>
      <trkpt lat="49.81591" lon="4.85129">
        <ele>219</ele>
        <time>2022-08-19T09:32:36.000Z</time>
      </trkpt>
      <trkpt lat="49.81587" lon="4.85121">
        <ele>219</ele>
        <time>2022-08-19T09:32:37.000Z</time>
      </trkpt>
      <trkpt lat="49.81583" lon="4.85112">
        <ele>219</ele>
        <time>2022-08-19T09:32:38.000Z</time>
      </trkpt>
      <trkpt lat="49.81579" lon="4.85104">
        <ele>218</ele>
        <time>2022-08-19T09:32:39.000Z</time>
      </trkpt>
      <trkpt lat="49.81575" lon="4.85096">
        <ele>218</ele>
        <time>2022-08-19T09:32:40.000Z</time>
      </trkpt>
      <trkpt lat="49.81572" lon="4.85089">
        <ele>218</ele>
        <time>2022-08-19T09:32:41.000Z</time>
      </trkpt>
      <trkpt lat="49.81568" lon="4.85081">
        <ele>218</ele>
        <time>2022-08-19T09:32:42.000Z</time>
      </trkpt>
      <trkpt lat="49.81564" lon="4.85073">
        <ele>218</ele>
        <time>2022-08-19T09:32:43.000Z</time>
      </trkpt>
      <trkpt lat="49.81561" lon="4.85065">
        <ele>218</ele>
        <time>2022-08-19T09:32:44.000Z</time>
      </trkpt>
      <trkpt lat="49.8156" lon="4.85057">
        <ele>218</ele>
        <time>2022-08-19T09:32:45.000Z</time>
      </trkpt>
      <trkpt lat="49.81559" lon="4.85049">
        <ele>218</ele>
        <time>2022-08-19T09:32:46.000Z</time>
      </trkpt>
      <trkpt lat="49.81558" lon="4.85041">
        <ele>219</ele>
        <time>2022-08-19T09:32:47.000Z</time>
      </trkpt>
      <trkpt lat="49.81558" lon="4.85034">
        <ele>219</ele>
        <time>2022-08-19T09:32:48.000Z</time>
      </trkpt>
      <trkpt lat="49.81558" lon="4.85027">
        <ele>219</ele>
        <time>2022-08-19T09:32:49.000Z</time>
      </trkpt>
      <trkpt lat="49.81558" lon="4.85021">
        <ele>219</ele>
        <time>2022-08-19T09:32:50.000Z</time>
      </trkpt>
      <trkpt lat="49.81558" lon="4.85015">
        <ele>219</ele>
        <time>2022-08-19T09:32:51.000Z</time>
      </trkpt>
      <trkpt lat="49.81558" lon="4.8501">
        <ele>220</ele>
        <time>2022-08-19T09:32:52.000Z</time>
      </trkpt>
      <trkpt lat="49.81558" lon="4.85005">
        <ele>220</ele>
        <time>2022-08-19T09:32:53.000Z</time>
      </trkpt>
      <trkpt lat="49.81558" lon="4.85">
        <ele>220</ele>
        <time>2022-08-19T09:32:54.000Z</time>
      </trkpt>
      <trkpt lat="49.81557" lon="4.84994">
        <ele>220</ele>
        <time>2022-08-19T09:32:55.000Z</time>
      </trkpt>
      <trkpt lat="49.81556" lon="4.84989">
        <ele>220</ele>
        <time>2022-08-19T09:32:56.000Z</time>
      </trkpt>
      <trkpt lat="49.81553" lon="4.84985">
        <ele>220</ele>
        <time>2022-08-19T09:32:57.000Z</time>
      </trkpt>
      <trkpt lat="49.8155" lon="4.84984">
        <ele>220</ele>
        <time>2022-08-19T09:32:58.000Z</time>
      </trkpt>
      <trkpt lat="49.81548" lon="4.84984">
        <ele>220</ele>
        <time>2022-08-19T09:32:59.000Z</time>
      </trkpt>
      <trkpt lat="49.81546" lon="4.84986">
        <ele>220</ele>
        <time>2022-08-19T09:33:00.000Z</time>
      </trkpt>
      <trkpt lat="49.81544" lon="4.84989">
        <ele>220</ele>
        <time>2022-08-19T09:33:01.000Z</time>
      </trkpt>
      <trkpt lat="49.81542" lon="4.84992">
        <ele>220</ele>
        <time>2022-08-19T09:33:02.000Z</time>
      </trkpt>
      <trkpt lat="49.81539" lon="4.84993">
        <ele>220</ele>
        <time>2022-08-19T09:33:03.000Z</time>
      </trkpt>
      <trkpt lat="49.81536" lon="4.84992">
        <ele>221</ele>
        <time>2022-08-19T09:33:04.000Z</time>
      </trkpt>
      <trkpt lat="49.81534" lon="4.84991">
        <ele>221</ele>
        <time>2022-08-19T09:33:05.000Z</time>
      </trkpt>
      <trkpt lat="49.81531" lon="4.84989">
        <ele>221</ele>
        <time>2022-08-19T09:33:06.000Z</time>
      </trkpt>
      <trkpt lat="49.81529" lon="4.84987">
        <ele>221</ele>
        <time>2022-08-19T09:33:07.000Z</time>
      </trkpt>
      <trkpt lat="49.81527" lon="4.84984">
        <ele>221</ele>
        <time>2022-08-19T09:33:08.000Z</time>
      </trkpt>
      <trkpt lat="49.81526" lon="4.84981">
        <ele>221</ele>
        <time>2022-08-19T09:33:09.000Z</time>
      </trkpt>
      <trkpt lat="49.81527" lon="4.84977">
        <ele>221</ele>
        <time>2022-08-19T09:33:10.000Z</time>
      </trkpt>
      <trkpt lat="49.81527" lon="4.84973">
        <ele>221</ele>
        <time>2022-08-19T09:33:11.000Z</time>
      </trkpt>
      <trkpt lat="49.81529" lon="4.84968">
        <ele>221</ele>
        <time>2022-08-19T09:33:12.000Z</time>
      </trkpt>
      <trkpt lat="49.8153" lon="4.84963">
        <ele>221</ele>
        <time>2022-08-19T09:33:13.000Z</time>
      </trkpt>
      <trkpt lat="49.81532" lon="4.84957">
        <ele>221</ele>
        <time>2022-08-19T09:33:14.000Z</time>
      </trkpt>
      <trkpt lat="49.81534" lon="4.84952">
        <ele>220</ele>
        <time>2022-08-19T09:33:15.000Z</time>
      </trkpt>
      <trkpt lat="49.81535" lon="4.84946">
        <ele>220</ele>
        <time>2022-08-19T09:33:16.000Z</time>
      </trkpt>
      <trkpt lat="49.81537" lon="4.8494">
        <ele>220</ele>
        <time>2022-08-19T09:33:17.000Z</time>
      </trkpt>
      <trkpt lat="49.81539" lon="4.84933">
        <ele>220</ele>
        <time>2022-08-19T09:33:18.000Z</time>
      </trkpt>
      <trkpt lat="49.8154" lon="4.84926">
        <ele>220</ele>
        <time>2022-08-19T09:33:19.000Z</time>
      </trkpt>
      <trkpt lat="49.81541" lon="4.84919">
        <ele>221</ele>
        <time>2022-08-19T09:33:20.000Z</time>
      </trkpt>
      <trkpt lat="49.81542" lon="4.84912">
        <ele>221</ele>
        <time>2022-08-19T09:33:21.000Z</time>
      </trkpt>
      <trkpt lat="49.81542" lon="4.84906">
        <ele>221</ele>
        <time>2022-08-19T09:33:22.000Z</time>
      </trkpt>
      <trkpt lat="49.81542" lon="4.84899">
        <ele>221</ele>
        <time>2022-08-19T09:33:23.000Z</time>
      </trkpt>
      <trkpt lat="49.81541" lon="4.84893">
        <ele>221</ele>
        <time>2022-08-19T09:33:24.000Z</time>
      </trkpt>
      <trkpt lat="49.81541" lon="4.84888">
        <ele>221</ele>
        <time>2022-08-19T09:33:25.000Z</time>
      </trkpt>
      <trkpt lat="49.8154" lon="4.84882">
        <ele>221</ele>
        <time>2022-08-19T09:33:26.000Z</time>
      </trkpt>
      <trkpt lat="49.81539" lon="4.84877">
        <ele>221</ele>
        <time>2022-08-19T09:33:27.000Z</time>
      </trkpt>
      <trkpt lat="49.81538" lon="4.84871">
        <ele>221</ele>
        <time>2022-08-19T09:33:28.000Z</time>
      </trkpt>
      <trkpt lat="49.81536" lon="4.84865">
        <ele>221</ele>
        <time>2022-08-19T09:33:29.000Z</time>
      </trkpt>
      <trkpt lat="49.81534" lon="4.84859">
        <ele>221</ele>
        <time>2022-08-19T09:33:30.000Z</time>
      </trkpt>
      <trkpt lat="49.81533" lon="4.84853">
        <ele>221</ele>
        <time>2022-08-19T09:33:31.000Z</time>
      </trkpt>
      <trkpt lat="49.81532" lon="4.84847">
        <ele>221</ele>
        <time>2022-08-19T09:33:32.000Z</time>
      </trkpt>
      <trkpt lat="49.81531" lon="4.84841">
        <ele>221</ele>
        <time>2022-08-19T09:33:33.000Z</time>
      </trkpt>
      <trkpt lat="49.81531" lon="4.84835">
        <ele>221</ele>
        <time>2022-08-19T09:33:34.000Z</time>
      </trkpt>
      <trkpt lat="49.8153" lon="4.84828">
        <ele>221</ele>
        <time>2022-08-19T09:33:35.000Z</time>
      </trkpt>
      <trkpt lat="49.81529" lon="4.84822">
        <ele>221</ele>
        <time>2022-08-19T09:33:36.000Z</time>
      </trkpt>
      <trkpt lat="49.81527" lon="4.84816">
        <ele>221</ele>
        <time>2022-08-19T09:33:37.000Z</time>
      </trkpt>
      <trkpt lat="49.81526" lon="4.84809">
        <ele>221</ele>
        <time>2022-08-19T09:33:38.000Z</time>
      </trkpt>
      <trkpt lat="49.81524" lon="4.84803">
        <ele>221</ele>
        <time>2022-08-19T09:33:39.000Z</time>
      </trkpt>
      <trkpt lat="49.81523" lon="4.84796">
        <ele>221</ele>
        <time>2022-08-19T09:33:40.000Z</time>
      </trkpt>
      <trkpt lat="49.81521" lon="4.84789">
        <ele>221</ele>
        <time>2022-08-19T09:33:41.000Z</time>
      </trkpt>
      <trkpt lat="49.81519" lon="4.84782">
        <ele>220</ele>
        <time>2022-08-19T09:33:42.000Z</time>
      </trkpt>
      <trkpt lat="49.81517" lon="4.84775">
        <ele>220</ele>
        <time>2022-08-19T09:33:43.000Z</time>
      </trkpt>
      <trkpt lat="49.81515" lon="4.84768">
        <ele>220</ele>
        <time>2022-08-19T09:33:44.000Z</time>
      </trkpt>
      <trkpt lat="49.81513" lon="4.84761">
        <ele>220</ele>
        <time>2022-08-19T09:33:45.000Z</time>
      </trkpt>
      <trkpt lat="49.81512" lon="4.84754">
        <ele>220</ele>
        <time>2022-08-19T09:33:46.000Z</time>
      </trkpt>
      <trkpt lat="49.8151" lon="4.84746">
        <ele>220</ele>
        <time>2022-08-19T09:33:47.000Z</time>
      </trkpt>
      <trkpt lat="49.81508" lon="4.84739">
        <ele>220</ele>
        <time>2022-08-19T09:33:48.000Z</time>
      </trkpt>
      <trkpt lat="49.81506" lon="4.84731">
        <ele>220</ele>
        <time>2022-08-19T09:33:49.000Z</time>
      </trkpt>
      <trkpt lat="49.81505" lon="4.84724">
        <ele>220</ele>
        <time>2022-08-19T09:33:50.000Z</time>
      </trkpt>
      <trkpt lat="49.81503" lon="4.84716">
        <ele>220</ele>
        <time>2022-08-19T09:33:51.000Z</time>
      </trkpt>
      <trkpt lat="49.81502" lon="4.84709">
        <ele>220</ele>
        <time>2022-08-19T09:33:52.000Z</time>
      </trkpt>
      <trkpt lat="49.815" lon="4.84701">
        <ele>220</ele>
        <time>2022-08-19T09:33:53.000Z</time>
      </trkpt>
      <trkpt lat="49.81499" lon="4.84694">
        <ele>220</ele>
        <time>2022-08-19T09:33:54.000Z</time>
      </trkpt>
      <trkpt lat="49.81497" lon="4.84687">
        <ele>220</ele>
        <time>2022-08-19T09:33:55.000Z</time>
      </trkpt>
      <trkpt lat="49.81495" lon="4.84679">
        <ele>220</ele>
        <time>2022-08-19T09:33:56.000Z</time>
      </trkpt>
      <trkpt lat="49.81492" lon="4.84671">
        <ele>220</ele>
        <time>2022-08-19T09:33:57.000Z</time>
      </trkpt>
      <trkpt lat="49.81489" lon="4.84665">
        <ele>220</ele>
        <time>2022-08-19T09:33:58.000Z</time>
      </trkpt>
      <trkpt lat="49.81486" lon="4.84659">
        <ele>220</ele>
        <time>2022-08-19T09:33:59.000Z</time>
      </trkpt>
      <trkpt lat="49.81483" lon="4.84653">
        <ele>220</ele>
        <time>2022-08-19T09:34:00.000Z</time>
      </trkpt>
      <trkpt lat="49.81479" lon="4.84649">
        <ele>220</ele>
        <time>2022-08-19T09:34:01.000Z</time>
      </trkpt>
      <trkpt lat="49.81475" lon="4.84645">
        <ele>220</ele>
        <time>2022-08-19T09:34:02.000Z</time>
      </trkpt>
      <trkpt lat="49.81471" lon="4.84642">
        <ele>220</ele>
        <time>2022-08-19T09:34:03.000Z</time>
      </trkpt>
      <trkpt lat="49.81467" lon="4.84639">
        <ele>220</ele>
        <time>2022-08-19T09:34:04.000Z</time>
      </trkpt>
      <trkpt lat="49.81463" lon="4.84636">
        <ele>220</ele>
        <time>2022-08-19T09:34:05.000Z</time>
      </trkpt>
      <trkpt lat="49.8146" lon="4.84633">
        <ele>220</ele>
        <time>2022-08-19T09:34:06.000Z</time>
      </trkpt>
      <trkpt lat="49.81459" lon="4.84628">
        <ele>220</ele>
        <time>2022-08-19T09:34:07.000Z</time>
      </trkpt>
      <trkpt lat="49.81458" lon="4.84622">
        <ele>220</ele>
        <time>2022-08-19T09:34:08.000Z</time>
      </trkpt>
      <trkpt lat="49.81457" lon="4.84614">
        <ele>220</ele>
        <time>2022-08-19T09:34:09.000Z</time>
      </trkpt>
      <trkpt lat="49.81458" lon="4.84606">
        <ele>220</ele>
        <time>2022-08-19T09:34:10.000Z</time>
      </trkpt>
      <trkpt lat="49.81458" lon="4.84596">
        <ele>220</ele>
        <time>2022-08-19T09:34:11.000Z</time>
      </trkpt>
      <trkpt lat="49.81459" lon="4.84587">
        <ele>219</ele>
        <time>2022-08-19T09:34:12.000Z</time>
      </trkpt>
      <trkpt lat="49.8146" lon="4.84577">
        <ele>219</ele>
        <time>2022-08-19T09:34:13.000Z</time>
      </trkpt>
      <trkpt lat="49.8146" lon="4.84568">
        <ele>219</ele>
        <time>2022-08-19T09:34:14.000Z</time>
      </trkpt>
      <trkpt lat="49.81461" lon="4.84559">
        <ele>219</ele>
        <time>2022-08-19T09:34:15.000Z</time>
      </trkpt>
      <trkpt lat="49.81461" lon="4.8455">
        <ele>219</ele>
        <time>2022-08-19T09:34:16.000Z</time>
      </trkpt>
      <trkpt lat="49.81461" lon="4.84541">
        <ele>219</ele>
        <time>2022-08-19T09:34:17.000Z</time>
      </trkpt>
      <trkpt lat="49.81462" lon="4.8453">
        <ele>219</ele>
        <time>2022-08-19T09:34:18.000Z</time>
      </trkpt>
      <trkpt lat="49.81462" lon="4.84517">
        <ele>219</ele>
        <time>2022-08-19T09:34:19.000Z</time>
      </trkpt>
      <trkpt lat="49.81462" lon="4.84505">
        <ele>219</ele>
        <time>2022-08-19T09:34:20.000Z</time>
      </trkpt>
      <trkpt lat="49.81462" lon="4.84493">
        <ele>219</ele>
        <time>2022-08-19T09:34:21.000Z</time>
      </trkpt>
      <trkpt lat="49.81462" lon="4.8448">
        <ele>219</ele>
        <time>2022-08-19T09:34:22.000Z</time>
      </trkpt>
      <trkpt lat="49.81462" lon="4.84468">
        <ele>218</ele>
        <time>2022-08-19T09:34:23.000Z</time>
      </trkpt>
      <trkpt lat="49.81462" lon="4.84456">
        <ele>218</ele>
        <time>2022-08-19T09:34:24.000Z</time>
      </trkpt>
      <trkpt lat="49.81462" lon="4.84446">
        <ele>218</ele>
        <time>2022-08-19T09:34:25.000Z</time>
      </trkpt>
      <trkpt lat="49.81462" lon="4.84438">
        <ele>217</ele>
        <time>2022-08-19T09:34:26.000Z</time>
      </trkpt>
      <trkpt lat="49.81463" lon="4.8443">
        <ele>217</ele>
        <time>2022-08-19T09:34:27.000Z</time>
      </trkpt>
      <trkpt lat="49.81465" lon="4.84425">
        <ele>217</ele>
        <time>2022-08-19T09:34:28.000Z</time>
      </trkpt>
      <trkpt lat="49.81469" lon="4.8442">
        <ele>216</ele>
        <time>2022-08-19T09:34:29.000Z</time>
      </trkpt>
      <trkpt lat="49.81471" lon="4.84414">
        <ele>216</ele>
        <time>2022-08-19T09:34:30.000Z</time>
      </trkpt>
      <trkpt lat="49.81473" lon="4.84408">
        <ele>216</ele>
        <time>2022-08-19T09:34:31.000Z</time>
      </trkpt>
      <trkpt lat="49.81473" lon="4.844">
        <ele>215</ele>
        <time>2022-08-19T09:34:32.000Z</time>
      </trkpt>
      <trkpt lat="49.81473" lon="4.84391">
        <ele>215</ele>
        <time>2022-08-19T09:34:33.000Z</time>
      </trkpt>
      <trkpt lat="49.81472" lon="4.84383">
        <ele>215</ele>
        <time>2022-08-19T09:34:34.000Z</time>
      </trkpt>
      <trkpt lat="49.81472" lon="4.84374">
        <ele>215</ele>
        <time>2022-08-19T09:34:35.000Z</time>
      </trkpt>
      <trkpt lat="49.81473" lon="4.84365">
        <ele>215</ele>
        <time>2022-08-19T09:34:36.000Z</time>
      </trkpt>
      <trkpt lat="49.81474" lon="4.84356">
        <ele>215</ele>
        <time>2022-08-19T09:34:37.000Z</time>
      </trkpt>
      <trkpt lat="49.81476" lon="4.84347">
        <ele>215</ele>
        <time>2022-08-19T09:34:38.000Z</time>
      </trkpt>
      <trkpt lat="49.81477" lon="4.84339">
        <ele>215</ele>
        <time>2022-08-19T09:34:39.000Z</time>
      </trkpt>
      <trkpt lat="49.81479" lon="4.8433">
        <ele>215</ele>
        <time>2022-08-19T09:34:40.000Z</time>
      </trkpt>
      <trkpt lat="49.81482" lon="4.84321">
        <ele>215</ele>
        <time>2022-08-19T09:34:41.000Z</time>
      </trkpt>
      <trkpt lat="49.81485" lon="4.84313">
        <ele>214</ele>
        <time>2022-08-19T09:34:42.000Z</time>
      </trkpt>
      <trkpt lat="49.81487" lon="4.84304">
        <ele>214</ele>
        <time>2022-08-19T09:34:43.000Z</time>
      </trkpt>
      <trkpt lat="49.8149" lon="4.84295">
        <ele>214</ele>
        <time>2022-08-19T09:34:44.000Z</time>
      </trkpt>
      <trkpt lat="49.81492" lon="4.84286">
        <ele>214</ele>
        <time>2022-08-19T09:34:45.000Z</time>
      </trkpt>
      <trkpt lat="49.81494" lon="4.84278">
        <ele>214</ele>
        <time>2022-08-19T09:34:46.000Z</time>
      </trkpt>
      <trkpt lat="49.81496" lon="4.8427">
        <ele>214</ele>
        <time>2022-08-19T09:34:47.000Z</time>
      </trkpt>
      <trkpt lat="49.81496" lon="4.84261">
        <ele>214</ele>
        <time>2022-08-19T09:34:48.000Z</time>
      </trkpt>
      <trkpt lat="49.81497" lon="4.84252">
        <ele>213</ele>
        <time>2022-08-19T09:34:49.000Z</time>
      </trkpt>
      <trkpt lat="49.81497" lon="4.84245">
        <ele>213</ele>
        <time>2022-08-19T09:34:50.000Z</time>
      </trkpt>
      <trkpt lat="49.81497" lon="4.84239">
        <ele>213</ele>
        <time>2022-08-19T09:34:51.000Z</time>
      </trkpt>
      <trkpt lat="49.81496" lon="4.84234">
        <ele>213</ele>
        <time>2022-08-19T09:34:52.000Z</time>
      </trkpt>
      <trkpt lat="49.81494" lon="4.84229">
        <ele>213</ele>
        <time>2022-08-19T09:34:53.000Z</time>
      </trkpt>
      <trkpt lat="49.81493" lon="4.84225">
        <ele>213</ele>
        <time>2022-08-19T09:34:54.000Z</time>
      </trkpt>
      <trkpt lat="49.81492" lon="4.8422">
        <ele>213</ele>
        <time>2022-08-19T09:34:55.000Z</time>
      </trkpt>
      <trkpt lat="49.81492" lon="4.84215">
        <ele>213</ele>
        <time>2022-08-19T09:34:56.000Z</time>
      </trkpt>
      <trkpt lat="49.81493" lon="4.8421">
        <ele>213</ele>
        <time>2022-08-19T09:34:57.000Z</time>
      </trkpt>
      <trkpt lat="49.81494" lon="4.84203">
        <ele>213</ele>
        <time>2022-08-19T09:34:58.000Z</time>
      </trkpt>
      <trkpt lat="49.81495" lon="4.84196">
        <ele>213</ele>
        <time>2022-08-19T09:34:59.000Z</time>
      </trkpt>
      <trkpt lat="49.81496" lon="4.84189">
        <ele>213</ele>
        <time>2022-08-19T09:35:00.000Z</time>
      </trkpt>
      <trkpt lat="49.81497" lon="4.84183">
        <ele>213</ele>
        <time>2022-08-19T09:35:01.000Z</time>
      </trkpt>
      <trkpt lat="49.81497" lon="4.84177">
        <ele>213</ele>
        <time>2022-08-19T09:35:02.000Z</time>
      </trkpt>
      <trkpt lat="49.81498" lon="4.8417">
        <ele>213</ele>
        <time>2022-08-19T09:35:03.000Z</time>
      </trkpt>
      <trkpt lat="49.81499" lon="4.84162">
        <ele>213</ele>
        <time>2022-08-19T09:35:04.000Z</time>
      </trkpt>
      <trkpt lat="49.815" lon="4.84155">
        <ele>213</ele>
        <time>2022-08-19T09:35:05.000Z</time>
      </trkpt>
      <trkpt lat="49.81501" lon="4.84147">
        <ele>213</ele>
        <time>2022-08-19T09:35:06.000Z</time>
      </trkpt>
      <trkpt lat="49.81501" lon="4.84139">
        <ele>212</ele>
        <time>2022-08-19T09:35:07.000Z</time>
      </trkpt>
      <trkpt lat="49.81502" lon="4.8413">
        <ele>212</ele>
        <time>2022-08-19T09:35:08.000Z</time>
      </trkpt>
      <trkpt lat="49.81502" lon="4.84121">
        <ele>212</ele>
        <time>2022-08-19T09:35:09.000Z</time>
      </trkpt>
      <trkpt lat="49.81502" lon="4.84112">
        <ele>212</ele>
        <time>2022-08-19T09:35:10.000Z</time>
      </trkpt>
      <trkpt lat="49.81502" lon="4.84104">
        <ele>212</ele>
        <time>2022-08-19T09:35:11.000Z</time>
      </trkpt>
      <trkpt lat="49.81503" lon="4.84096">
        <ele>212</ele>
        <time>2022-08-19T09:35:12.000Z</time>
      </trkpt>
      <trkpt lat="49.81502" lon="4.84088">
        <ele>212</ele>
        <time>2022-08-19T09:35:13.000Z</time>
      </trkpt>
      <trkpt lat="49.81501" lon="4.84081">
        <ele>212</ele>
        <time>2022-08-19T09:35:14.000Z</time>
      </trkpt>
      <trkpt lat="49.81501" lon="4.84074">
        <ele>212</ele>
        <time>2022-08-19T09:35:15.000Z</time>
      </trkpt>
      <trkpt lat="49.815" lon="4.84066">
        <ele>212</ele>
        <time>2022-08-19T09:35:16.000Z</time>
      </trkpt>
      <trkpt lat="49.815" lon="4.8406">
        <ele>212</ele>
        <time>2022-08-19T09:35:17.000Z</time>
      </trkpt>
      <trkpt lat="49.81499" lon="4.84053">
        <ele>212</ele>
        <time>2022-08-19T09:35:18.000Z</time>
      </trkpt>
      <trkpt lat="49.81497" lon="4.84047">
        <ele>212</ele>
        <time>2022-08-19T09:35:19.000Z</time>
      </trkpt>
      <trkpt lat="49.81496" lon="4.8404">
        <ele>212</ele>
        <time>2022-08-19T09:35:20.000Z</time>
      </trkpt>
      <trkpt lat="49.81495" lon="4.84034">
        <ele>213</ele>
        <time>2022-08-19T09:35:21.000Z</time>
      </trkpt>
      <trkpt lat="49.81494" lon="4.84028">
        <ele>213</ele>
        <time>2022-08-19T09:35:22.000Z</time>
      </trkpt>
      <trkpt lat="49.81493" lon="4.84021">
        <ele>213</ele>
        <time>2022-08-19T09:35:23.000Z</time>
      </trkpt>
      <trkpt lat="49.81491" lon="4.84013">
        <ele>213</ele>
        <time>2022-08-19T09:35:24.000Z</time>
      </trkpt>
      <trkpt lat="49.81489" lon="4.84006">
        <ele>213</ele>
        <time>2022-08-19T09:35:25.000Z</time>
      </trkpt>
      <trkpt lat="49.81488" lon="4.83998">
        <ele>213</ele>
        <time>2022-08-19T09:35:26.000Z</time>
      </trkpt>
      <trkpt lat="49.81487" lon="4.8399">
        <ele>214</ele>
        <time>2022-08-19T09:35:27.000Z</time>
      </trkpt>
      <trkpt lat="49.81485" lon="4.83982">
        <ele>214</ele>
        <time>2022-08-19T09:35:28.000Z</time>
      </trkpt>
      <trkpt lat="49.81483" lon="4.83975">
        <ele>214</ele>
        <time>2022-08-19T09:35:29.000Z</time>
      </trkpt>
      <trkpt lat="49.81482" lon="4.83968">
        <ele>214</ele>
        <time>2022-08-19T09:35:30.000Z</time>
      </trkpt>
      <trkpt lat="49.81481" lon="4.83959">
        <ele>214</ele>
        <time>2022-08-19T09:35:31.000Z</time>
      </trkpt>
      <trkpt lat="49.81479" lon="4.83952">
        <ele>214</ele>
        <time>2022-08-19T09:35:32.000Z</time>
      </trkpt>
      <trkpt lat="49.81478" lon="4.83944">
        <ele>214</ele>
        <time>2022-08-19T09:35:33.000Z</time>
      </trkpt>
      <trkpt lat="49.81477" lon="4.83936">
        <ele>214</ele>
        <time>2022-08-19T09:35:34.000Z</time>
      </trkpt>
      <trkpt lat="49.81476" lon="4.83928">
        <ele>214</ele>
        <time>2022-08-19T09:35:35.000Z</time>
      </trkpt>
      <trkpt lat="49.81475" lon="4.83921">
        <ele>214</ele>
        <time>2022-08-19T09:35:36.000Z</time>
      </trkpt>
      <trkpt lat="49.81474" lon="4.83912">
        <ele>214</ele>
        <time>2022-08-19T09:35:37.000Z</time>
      </trkpt>
      <trkpt lat="49.81473" lon="4.83905">
        <ele>214</ele>
        <time>2022-08-19T09:35:38.000Z</time>
      </trkpt>
      <trkpt lat="49.81472" lon="4.83897">
        <ele>214</ele>
        <time>2022-08-19T09:35:39.000Z</time>
      </trkpt>
      <trkpt lat="49.81471" lon="4.83889">
        <ele>214</ele>
        <time>2022-08-19T09:35:40.000Z</time>
      </trkpt>
      <trkpt lat="49.8147" lon="4.83881">
        <ele>214</ele>
        <time>2022-08-19T09:35:41.000Z</time>
      </trkpt>
      <trkpt lat="49.81469" lon="4.83874">
        <ele>213</ele>
        <time>2022-08-19T09:35:42.000Z</time>
      </trkpt>
      <trkpt lat="49.81467" lon="4.8387">
        <ele>213</ele>
        <time>2022-08-19T09:35:43.000Z</time>
      </trkpt>
      <trkpt lat="49.81466" lon="4.83867">
        <ele>213</ele>
        <time>2022-08-19T09:35:44.000Z</time>
      </trkpt>
      <trkpt lat="49.81464" lon="4.83865">
        <ele>213</ele>
        <time>2022-08-19T09:35:45.000Z</time>
      </trkpt>
      <trkpt lat="49.81463" lon="4.83863">
        <ele>213</ele>
        <time>2022-08-19T09:35:46.000Z</time>
      </trkpt>
      <trkpt lat="49.81461" lon="4.83862">
        <ele>213</ele>
        <time>2022-08-19T09:35:47.000Z</time>
      </trkpt>
      <trkpt lat="49.8146" lon="4.83861">
        <ele>213</ele>
        <time>2022-08-19T09:35:48.000Z</time>
      </trkpt>
      <trkpt lat="49.81457" lon="4.83859">
        <ele>213</ele>
        <time>2022-08-19T09:35:49.000Z</time>
      </trkpt>
      <trkpt lat="49.81456" lon="4.83859">
        <ele>213</ele>
        <time>2022-08-19T09:35:50.000Z</time>
      </trkpt>
      <trkpt lat="49.81454" lon="4.83858">
        <ele>214</ele>
        <time>2022-08-19T09:35:51.000Z</time>
      </trkpt>
      <trkpt lat="49.81453" lon="4.83858">
        <ele>214</ele>
        <time>2022-08-19T09:35:52.000Z</time>
      </trkpt>
      <trkpt lat="49.81452" lon="4.83858">
        <ele>214</ele>
        <time>2022-08-19T09:35:53.000Z</time>
      </trkpt>
      <trkpt lat="49.8145" lon="4.83857">
        <ele>214</ele>
        <time>2022-08-19T09:35:54.000Z</time>
      </trkpt>
      <trkpt lat="49.81448" lon="4.83857">
        <ele>215</ele>
        <time>2022-08-19T09:35:55.000Z</time>
      </trkpt>
      <trkpt lat="49.81447" lon="4.83857">
        <ele>215</ele>
        <time>2022-08-19T09:35:56.000Z</time>
      </trkpt>
      <trkpt lat="49.81445" lon="4.83857">
        <ele>215</ele>
        <time>2022-08-19T09:35:57.000Z</time>
      </trkpt>
      <trkpt lat="49.81443" lon="4.83858">
        <ele>216</ele>
        <time>2022-08-19T09:35:58.000Z</time>
      </trkpt>
      <trkpt lat="49.81442" lon="4.83858">
        <ele>216</ele>
        <time>2022-08-19T09:35:59.000Z</time>
      </trkpt>
      <trkpt lat="49.81439" lon="4.83858">
        <ele>216</ele>
        <time>2022-08-19T09:36:00.000Z</time>
      </trkpt>
      <trkpt lat="49.81437" lon="4.83858">
        <ele>217</ele>
        <time>2022-08-19T09:36:01.000Z</time>
      </trkpt>
      <trkpt lat="49.81436" lon="4.83858">
        <ele>217</ele>
        <time>2022-08-19T09:36:02.000Z</time>
      </trkpt>
      <trkpt lat="49.81434" lon="4.83858">
        <ele>217</ele>
        <time>2022-08-19T09:36:03.000Z</time>
      </trkpt>
      <trkpt lat="49.81433" lon="4.83857">
        <ele>218</ele>
        <time>2022-08-19T09:36:04.000Z</time>
      </trkpt>
      <trkpt lat="49.81431" lon="4.83856">
        <ele>218</ele>
        <time>2022-08-19T09:36:05.000Z</time>
      </trkpt>
      <trkpt lat="49.81429" lon="4.83855">
        <ele>218</ele>
        <time>2022-08-19T09:36:06.000Z</time>
      </trkpt>
      <trkpt lat="49.81428" lon="4.83853">
        <ele>219</ele>
        <time>2022-08-19T09:36:07.000Z</time>
      </trkpt>
      <trkpt lat="49.81426" lon="4.83852">
        <ele>219</ele>
        <time>2022-08-19T09:36:08.000Z</time>
      </trkpt>
      <trkpt lat="49.81424" lon="4.83852">
        <ele>219</ele>
        <time>2022-08-19T09:36:09.000Z</time>
      </trkpt>
      <trkpt lat="49.81422" lon="4.83851">
        <ele>219</ele>
        <time>2022-08-19T09:36:10.000Z</time>
      </trkpt>
      <trkpt lat="49.8142" lon="4.83851">
        <ele>220</ele>
        <time>2022-08-19T09:36:11.000Z</time>
      </trkpt>
      <trkpt lat="49.81417" lon="4.83851">
        <ele>220</ele>
        <time>2022-08-19T09:36:12.000Z</time>
      </trkpt>
      <trkpt lat="49.81415" lon="4.83851">
        <ele>220</ele>
        <time>2022-08-19T09:36:13.000Z</time>
      </trkpt>
      <trkpt lat="49.81412" lon="4.83851">
        <ele>220</ele>
        <time>2022-08-19T09:36:14.000Z</time>
      </trkpt>
      <trkpt lat="49.81409" lon="4.83851">
        <ele>221</ele>
        <time>2022-08-19T09:36:15.000Z</time>
      </trkpt>
      <trkpt lat="49.81407" lon="4.83851">
        <ele>221</ele>
        <time>2022-08-19T09:36:16.000Z</time>
      </trkpt>
      <trkpt lat="49.81404" lon="4.83851">
        <ele>221</ele>
        <time>2022-08-19T09:36:17.000Z</time>
      </trkpt>
      <trkpt lat="49.81401" lon="4.83852">
        <ele>222</ele>
        <time>2022-08-19T09:36:18.000Z</time>
      </trkpt>
      <trkpt lat="49.81398" lon="4.83853">
        <ele>222</ele>
        <time>2022-08-19T09:36:19.000Z</time>
      </trkpt>
      <trkpt lat="49.81395" lon="4.83854">
        <ele>222</ele>
        <time>2022-08-19T09:36:20.000Z</time>
      </trkpt>
      <trkpt lat="49.81392" lon="4.83855">
        <ele>222</ele>
        <time>2022-08-19T09:36:21.000Z</time>
      </trkpt>
      <trkpt lat="49.8139" lon="4.83855">
        <ele>223</ele>
        <time>2022-08-19T09:36:22.000Z</time>
      </trkpt>
      <trkpt lat="49.81388" lon="4.83856">
        <ele>223</ele>
        <time>2022-08-19T09:36:23.000Z</time>
      </trkpt>
      <trkpt lat="49.81386" lon="4.83856">
        <ele>223</ele>
        <time>2022-08-19T09:36:24.000Z</time>
      </trkpt>
      <trkpt lat="49.81384" lon="4.83857">
        <ele>224</ele>
        <time>2022-08-19T09:36:25.000Z</time>
      </trkpt>
      <trkpt lat="49.81381" lon="4.83857">
        <ele>224</ele>
        <time>2022-08-19T09:36:26.000Z</time>
      </trkpt>
      <trkpt lat="49.81379" lon="4.83857">
        <ele>224</ele>
        <time>2022-08-19T09:36:27.000Z</time>
      </trkpt>
      <trkpt lat="49.81377" lon="4.83857">
        <ele>224</ele>
        <time>2022-08-19T09:36:28.000Z</time>
      </trkpt>
      <trkpt lat="49.81375" lon="4.83856">
        <ele>225</ele>
        <time>2022-08-19T09:36:29.000Z</time>
      </trkpt>
      <trkpt lat="49.81373" lon="4.83855">
        <ele>225</ele>
        <time>2022-08-19T09:36:30.000Z</time>
      </trkpt>
      <trkpt lat="49.81371" lon="4.83854">
        <ele>225</ele>
        <time>2022-08-19T09:36:31.000Z</time>
      </trkpt>
      <trkpt lat="49.81368" lon="4.83854">
        <ele>225</ele>
        <time>2022-08-19T09:36:32.000Z</time>
      </trkpt>
      <trkpt lat="49.81364" lon="4.83853">
        <ele>225</ele>
        <time>2022-08-19T09:36:33.000Z</time>
      </trkpt>
      <trkpt lat="49.81361" lon="4.83852">
        <ele>225</ele>
        <time>2022-08-19T09:36:34.000Z</time>
      </trkpt>
      <trkpt lat="49.81357" lon="4.83851">
        <ele>225</ele>
        <time>2022-08-19T09:36:35.000Z</time>
      </trkpt>
      <trkpt lat="49.81354" lon="4.83848">
        <ele>225</ele>
        <time>2022-08-19T09:36:36.000Z</time>
      </trkpt>
      <trkpt lat="49.8135" lon="4.83846">
        <ele>225</ele>
        <time>2022-08-19T09:36:37.000Z</time>
      </trkpt>
      <trkpt lat="49.81346" lon="4.83844">
        <ele>225</ele>
        <time>2022-08-19T09:36:38.000Z</time>
      </trkpt>
      <trkpt lat="49.81341" lon="4.83842">
        <ele>225</ele>
        <time>2022-08-19T09:36:39.000Z</time>
      </trkpt>
      <trkpt lat="49.81337" lon="4.83841">
        <ele>226</ele>
        <time>2022-08-19T09:36:40.000Z</time>
      </trkpt>
      <trkpt lat="49.81332" lon="4.83839">
        <ele>226</ele>
        <time>2022-08-19T09:36:41.000Z</time>
      </trkpt>
      <trkpt lat="49.81329" lon="4.83837">
        <ele>226</ele>
        <time>2022-08-19T09:36:42.000Z</time>
      </trkpt>
      <trkpt lat="49.81325" lon="4.83836">
        <ele>226</ele>
        <time>2022-08-19T09:36:43.000Z</time>
      </trkpt>
      <trkpt lat="49.81321" lon="4.83837">
        <ele>226</ele>
        <time>2022-08-19T09:36:44.000Z</time>
      </trkpt>
      <trkpt lat="49.81317" lon="4.83839">
        <ele>226</ele>
        <time>2022-08-19T09:36:45.000Z</time>
      </trkpt>
      <trkpt lat="49.81313" lon="4.8384">
        <ele>226</ele>
        <time>2022-08-19T09:36:46.000Z</time>
      </trkpt>
      <trkpt lat="49.8131" lon="4.83844">
        <ele>226</ele>
        <time>2022-08-19T09:36:47.000Z</time>
      </trkpt>
      <trkpt lat="49.81307" lon="4.83846">
        <ele>226</ele>
        <time>2022-08-19T09:36:48.000Z</time>
      </trkpt>
      <trkpt lat="49.81303" lon="4.83849">
        <ele>226</ele>
        <time>2022-08-19T09:36:49.000Z</time>
      </trkpt>
      <trkpt lat="49.81301" lon="4.83852">
        <ele>226</ele>
        <time>2022-08-19T09:36:50.000Z</time>
      </trkpt>
      <trkpt lat="49.81298" lon="4.83854">
        <ele>226</ele>
        <time>2022-08-19T09:36:51.000Z</time>
      </trkpt>
      <trkpt lat="49.81296" lon="4.83856">
        <ele>226</ele>
        <time>2022-08-19T09:36:52.000Z</time>
      </trkpt>
      <trkpt lat="49.81293" lon="4.83858">
        <ele>226</ele>
        <time>2022-08-19T09:36:53.000Z</time>
      </trkpt>
      <trkpt lat="49.81291" lon="4.8386">
        <ele>226</ele>
        <time>2022-08-19T09:36:54.000Z</time>
      </trkpt>
      <trkpt lat="49.81288" lon="4.83861">
        <ele>226</ele>
        <time>2022-08-19T09:36:55.000Z</time>
      </trkpt>
      <trkpt lat="49.81286" lon="4.83863">
        <ele>226</ele>
        <time>2022-08-19T09:36:56.000Z</time>
      </trkpt>
      <trkpt lat="49.81284" lon="4.83864">
        <ele>225</ele>
        <time>2022-08-19T09:36:57.000Z</time>
      </trkpt>
      <trkpt lat="49.81281" lon="4.83865">
        <ele>225</ele>
        <time>2022-08-19T09:36:58.000Z</time>
      </trkpt>
      <trkpt lat="49.81279" lon="4.83867">
        <ele>225</ele>
        <time>2022-08-19T09:36:59.000Z</time>
      </trkpt>
      <trkpt lat="49.81276" lon="4.83868">
        <ele>225</ele>
        <time>2022-08-19T09:37:00.000Z</time>
      </trkpt>
      <trkpt lat="49.81273" lon="4.83869">
        <ele>225</ele>
        <time>2022-08-19T09:37:01.000Z</time>
      </trkpt>
      <trkpt lat="49.81271" lon="4.8387">
        <ele>225</ele>
        <time>2022-08-19T09:37:02.000Z</time>
      </trkpt>
      <trkpt lat="49.81269" lon="4.83872">
        <ele>226</ele>
        <time>2022-08-19T09:37:03.000Z</time>
      </trkpt>
      <trkpt lat="49.81266" lon="4.83874">
        <ele>226</ele>
        <time>2022-08-19T09:37:04.000Z</time>
      </trkpt>
      <trkpt lat="49.81263" lon="4.83874">
        <ele>226</ele>
        <time>2022-08-19T09:37:05.000Z</time>
      </trkpt>
      <trkpt lat="49.8126" lon="4.83875">
        <ele>226</ele>
        <time>2022-08-19T09:37:06.000Z</time>
      </trkpt>
      <trkpt lat="49.81258" lon="4.83877">
        <ele>226</ele>
        <time>2022-08-19T09:37:07.000Z</time>
      </trkpt>
      <trkpt lat="49.81256" lon="4.83879">
        <ele>226</ele>
        <time>2022-08-19T09:37:08.000Z</time>
      </trkpt>
      <trkpt lat="49.81253" lon="4.83881">
        <ele>227</ele>
        <time>2022-08-19T09:37:09.000Z</time>
      </trkpt>
      <trkpt lat="49.81249" lon="4.83883">
        <ele>227</ele>
        <time>2022-08-19T09:37:10.000Z</time>
      </trkpt>
      <trkpt lat="49.81245" lon="4.83884">
        <ele>227</ele>
        <time>2022-08-19T09:37:11.000Z</time>
      </trkpt>
      <trkpt lat="49.8124" lon="4.83883">
        <ele>227</ele>
        <time>2022-08-19T09:37:12.000Z</time>
      </trkpt>
      <trkpt lat="49.81235" lon="4.83883">
        <ele>227</ele>
        <time>2022-08-19T09:37:13.000Z</time>
      </trkpt>
      <trkpt lat="49.8123" lon="4.83882">
        <ele>227</ele>
        <time>2022-08-19T09:37:14.000Z</time>
      </trkpt>
      <trkpt lat="49.81226" lon="4.83882">
        <ele>228</ele>
        <time>2022-08-19T09:37:15.000Z</time>
      </trkpt>
      <trkpt lat="49.81222" lon="4.83882">
        <ele>228</ele>
        <time>2022-08-19T09:37:16.000Z</time>
      </trkpt>
      <trkpt lat="49.81218" lon="4.83882">
        <ele>228</ele>
        <time>2022-08-19T09:37:17.000Z</time>
      </trkpt>
      <trkpt lat="49.81213" lon="4.83883">
        <ele>228</ele>
        <time>2022-08-19T09:37:18.000Z</time>
      </trkpt>
      <trkpt lat="49.81208" lon="4.83883">
        <ele>229</ele>
        <time>2022-08-19T09:37:19.000Z</time>
      </trkpt>
      <trkpt lat="49.81203" lon="4.83883">
        <ele>229</ele>
        <time>2022-08-19T09:37:20.000Z</time>
      </trkpt>
      <trkpt lat="49.81198" lon="4.83884">
        <ele>229</ele>
        <time>2022-08-19T09:37:21.000Z</time>
      </trkpt>
      <trkpt lat="49.81194" lon="4.83886">
        <ele>229</ele>
        <time>2022-08-19T09:37:22.000Z</time>
      </trkpt>
      <trkpt lat="49.8119" lon="4.83887">
        <ele>229</ele>
        <time>2022-08-19T09:37:23.000Z</time>
      </trkpt>
      <trkpt lat="49.81186" lon="4.83888">
        <ele>230</ele>
        <time>2022-08-19T09:37:24.000Z</time>
      </trkpt>
      <trkpt lat="49.81181" lon="4.83889">
        <ele>230</ele>
        <time>2022-08-19T09:37:25.000Z</time>
      </trkpt>
      <trkpt lat="49.81178" lon="4.8389">
        <ele>230</ele>
        <time>2022-08-19T09:37:26.000Z</time>
      </trkpt>
      <trkpt lat="49.81174" lon="4.8389">
        <ele>230</ele>
        <time>2022-08-19T09:37:27.000Z</time>
      </trkpt>
      <trkpt lat="49.81171" lon="4.8389">
        <ele>230</ele>
        <time>2022-08-19T09:37:28.000Z</time>
      </trkpt>
      <trkpt lat="49.81167" lon="4.83891">
        <ele>230</ele>
        <time>2022-08-19T09:37:29.000Z</time>
      </trkpt>
      <trkpt lat="49.81163" lon="4.83893">
        <ele>231</ele>
        <time>2022-08-19T09:37:30.000Z</time>
      </trkpt>
      <trkpt lat="49.81159" lon="4.83894">
        <ele>231</ele>
        <time>2022-08-19T09:37:31.000Z</time>
      </trkpt>
      <trkpt lat="49.81155" lon="4.83895">
        <ele>231</ele>
        <time>2022-08-19T09:37:32.000Z</time>
      </trkpt>
      <trkpt lat="49.81151" lon="4.83897">
        <ele>231</ele>
        <time>2022-08-19T09:37:33.000Z</time>
      </trkpt>
      <trkpt lat="49.81147" lon="4.83899">
        <ele>231</ele>
        <time>2022-08-19T09:37:34.000Z</time>
      </trkpt>
      <trkpt lat="49.81143" lon="4.839">
        <ele>231</ele>
        <time>2022-08-19T09:37:35.000Z</time>
      </trkpt>
      <trkpt lat="49.81139" lon="4.83901">
        <ele>231</ele>
        <time>2022-08-19T09:37:36.000Z</time>
      </trkpt>
      <trkpt lat="49.81135" lon="4.83901">
        <ele>231</ele>
        <time>2022-08-19T09:37:37.000Z</time>
      </trkpt>
      <trkpt lat="49.8113" lon="4.83901">
        <ele>231</ele>
        <time>2022-08-19T09:37:38.000Z</time>
      </trkpt>
      <trkpt lat="49.81125" lon="4.83901">
        <ele>231</ele>
        <time>2022-08-19T09:37:39.000Z</time>
      </trkpt>
      <trkpt lat="49.8112" lon="4.839">
        <ele>231</ele>
        <time>2022-08-19T09:37:40.000Z</time>
      </trkpt>
      <trkpt lat="49.81116" lon="4.839">
        <ele>231</ele>
        <time>2022-08-19T09:37:41.000Z</time>
      </trkpt>
      <trkpt lat="49.81111" lon="4.839">
        <ele>231</ele>
        <time>2022-08-19T09:37:42.000Z</time>
      </trkpt>
      <trkpt lat="49.81107" lon="4.839">
        <ele>231</ele>
        <time>2022-08-19T09:37:43.000Z</time>
      </trkpt>
      <trkpt lat="49.81102" lon="4.839">
        <ele>231</ele>
        <time>2022-08-19T09:37:44.000Z</time>
      </trkpt>
      <trkpt lat="49.81098" lon="4.839">
        <ele>231</ele>
        <time>2022-08-19T09:37:45.000Z</time>
      </trkpt>
      <trkpt lat="49.81094" lon="4.839">
        <ele>231</ele>
        <time>2022-08-19T09:37:46.000Z</time>
      </trkpt>
      <trkpt lat="49.81089" lon="4.83899">
        <ele>231</ele>
        <time>2022-08-19T09:37:47.000Z</time>
      </trkpt>
      <trkpt lat="49.81084" lon="4.83899">
        <ele>231</ele>
        <time>2022-08-19T09:37:48.000Z</time>
      </trkpt>
      <trkpt lat="49.81079" lon="4.83898">
        <ele>231</ele>
        <time>2022-08-19T09:37:49.000Z</time>
      </trkpt>
      <trkpt lat="49.81075" lon="4.83897">
        <ele>231</ele>
        <time>2022-08-19T09:37:50.000Z</time>
      </trkpt>
      <trkpt lat="49.8107" lon="4.83897">
        <ele>231</ele>
        <time>2022-08-19T09:37:51.000Z</time>
      </trkpt>
      <trkpt lat="49.81066" lon="4.83896">
        <ele>231</ele>
        <time>2022-08-19T09:37:52.000Z</time>
      </trkpt>
      <trkpt lat="49.81061" lon="4.83896">
        <ele>231</ele>
        <time>2022-08-19T09:37:53.000Z</time>
      </trkpt>
      <trkpt lat="49.81057" lon="4.83896">
        <ele>231</ele>
        <time>2022-08-19T09:37:54.000Z</time>
      </trkpt>
      <trkpt lat="49.81053" lon="4.83896">
        <ele>231</ele>
        <time>2022-08-19T09:37:55.000Z</time>
      </trkpt>
      <trkpt lat="49.81048" lon="4.83896">
        <ele>231</ele>
        <time>2022-08-19T09:37:56.000Z</time>
      </trkpt>
      <trkpt lat="49.81044" lon="4.83897">
        <ele>231</ele>
        <time>2022-08-19T09:37:57.000Z</time>
      </trkpt>
      <trkpt lat="49.81039" lon="4.83896">
        <ele>231</ele>
        <time>2022-08-19T09:37:58.000Z</time>
      </trkpt>
      <trkpt lat="49.81035" lon="4.83895">
        <ele>231</ele>
        <time>2022-08-19T09:37:59.000Z</time>
      </trkpt>
      <trkpt lat="49.8103" lon="4.83895">
        <ele>231</ele>
        <time>2022-08-19T09:38:00.000Z</time>
      </trkpt>
      <trkpt lat="49.81025" lon="4.83895">
        <ele>231</ele>
        <time>2022-08-19T09:38:01.000Z</time>
      </trkpt>
      <trkpt lat="49.8102" lon="4.83894">
        <ele>231</ele>
        <time>2022-08-19T09:38:02.000Z</time>
      </trkpt>
      <trkpt lat="49.81015" lon="4.83894">
        <ele>230</ele>
        <time>2022-08-19T09:38:03.000Z</time>
      </trkpt>
      <trkpt lat="49.8101" lon="4.83894">
        <ele>230</ele>
        <time>2022-08-19T09:38:04.000Z</time>
      </trkpt>
      <trkpt lat="49.81006" lon="4.83894">
        <ele>230</ele>
        <time>2022-08-19T09:38:05.000Z</time>
      </trkpt>
      <trkpt lat="49.81002" lon="4.83895">
        <ele>230</ele>
        <time>2022-08-19T09:38:06.000Z</time>
      </trkpt>
      <trkpt lat="49.80998" lon="4.83895">
        <ele>230</ele>
        <time>2022-08-19T09:38:07.000Z</time>
      </trkpt>
      <trkpt lat="49.80993" lon="4.83895">
        <ele>230</ele>
        <time>2022-08-19T09:38:08.000Z</time>
      </trkpt>
      <trkpt lat="49.80988" lon="4.83895">
        <ele>230</ele>
        <time>2022-08-19T09:38:09.000Z</time>
      </trkpt>
      <trkpt lat="49.80982" lon="4.83894">
        <ele>230</ele>
        <time>2022-08-19T09:38:10.000Z</time>
      </trkpt>
      <trkpt lat="49.80977" lon="4.83894">
        <ele>230</ele>
        <time>2022-08-19T09:38:11.000Z</time>
      </trkpt>
      <trkpt lat="49.80972" lon="4.83894">
        <ele>230</ele>
        <time>2022-08-19T09:38:12.000Z</time>
      </trkpt>
      <trkpt lat="49.80967" lon="4.83894">
        <ele>230</ele>
        <time>2022-08-19T09:38:13.000Z</time>
      </trkpt>
      <trkpt lat="49.80962" lon="4.83893">
        <ele>230</ele>
        <time>2022-08-19T09:38:14.000Z</time>
      </trkpt>
      <trkpt lat="49.80957" lon="4.83893">
        <ele>230</ele>
        <time>2022-08-19T09:38:15.000Z</time>
      </trkpt>
      <trkpt lat="49.80952" lon="4.83893">
        <ele>230</ele>
        <time>2022-08-19T09:38:16.000Z</time>
      </trkpt>
      <trkpt lat="49.80947" lon="4.83893">
        <ele>230</ele>
        <time>2022-08-19T09:38:17.000Z</time>
      </trkpt>
      <trkpt lat="49.80943" lon="4.83893">
        <ele>230</ele>
        <time>2022-08-19T09:38:18.000Z</time>
      </trkpt>
      <trkpt lat="49.80937" lon="4.83893">
        <ele>230</ele>
        <time>2022-08-19T09:38:19.000Z</time>
      </trkpt>
      <trkpt lat="49.80933" lon="4.83894">
        <ele>230</ele>
        <time>2022-08-19T09:38:20.000Z</time>
      </trkpt>
      <trkpt lat="49.80928" lon="4.83894">
        <ele>231</ele>
        <time>2022-08-19T09:38:21.000Z</time>
      </trkpt>
      <trkpt lat="49.80922" lon="4.83893">
        <ele>231</ele>
        <time>2022-08-19T09:38:22.000Z</time>
      </trkpt>
      <trkpt lat="49.80917" lon="4.83892">
        <ele>231</ele>
        <time>2022-08-19T09:38:23.000Z</time>
      </trkpt>
      <trkpt lat="49.80912" lon="4.83891">
        <ele>231</ele>
        <time>2022-08-19T09:38:24.000Z</time>
      </trkpt>
      <trkpt lat="49.80907" lon="4.83891">
        <ele>231</ele>
        <time>2022-08-19T09:38:25.000Z</time>
      </trkpt>
      <trkpt lat="49.80904" lon="4.83891">
        <ele>231</ele>
        <time>2022-08-19T09:38:26.000Z</time>
      </trkpt>
      <trkpt lat="49.809" lon="4.83892">
        <ele>231</ele>
        <time>2022-08-19T09:38:27.000Z</time>
      </trkpt>
      <trkpt lat="49.80896" lon="4.83893">
        <ele>231</ele>
        <time>2022-08-19T09:38:28.000Z</time>
      </trkpt>
      <trkpt lat="49.80891" lon="4.83893">
        <ele>231</ele>
        <time>2022-08-19T09:38:29.000Z</time>
      </trkpt>
      <trkpt lat="49.80887" lon="4.83893">
        <ele>231</ele>
        <time>2022-08-19T09:38:30.000Z</time>
      </trkpt>
      <trkpt lat="49.80882" lon="4.83895">
        <ele>231</ele>
        <time>2022-08-19T09:38:31.000Z</time>
      </trkpt>
      <trkpt lat="49.80877" lon="4.83896">
        <ele>231</ele>
        <time>2022-08-19T09:38:32.000Z</time>
      </trkpt>
      <trkpt lat="49.80873" lon="4.83897">
        <ele>231</ele>
        <time>2022-08-19T09:38:33.000Z</time>
      </trkpt>
      <trkpt lat="49.80868" lon="4.83897">
        <ele>231</ele>
        <time>2022-08-19T09:38:34.000Z</time>
      </trkpt>
      <trkpt lat="49.80864" lon="4.83898">
        <ele>231</ele>
        <time>2022-08-19T09:38:35.000Z</time>
      </trkpt>
      <trkpt lat="49.80859" lon="4.83898">
        <ele>231</ele>
        <time>2022-08-19T09:38:36.000Z</time>
      </trkpt>
      <trkpt lat="49.80855" lon="4.83899">
        <ele>230</ele>
        <time>2022-08-19T09:38:37.000Z</time>
      </trkpt>
      <trkpt lat="49.8085" lon="4.83899">
        <ele>230</ele>
        <time>2022-08-19T09:38:38.000Z</time>
      </trkpt>
      <trkpt lat="49.80845" lon="4.83898">
        <ele>230</ele>
        <time>2022-08-19T09:38:39.000Z</time>
      </trkpt>
      <trkpt lat="49.8084" lon="4.83898">
        <ele>230</ele>
        <time>2022-08-19T09:38:40.000Z</time>
      </trkpt>
      <trkpt lat="49.80836" lon="4.83898">
        <ele>230</ele>
        <time>2022-08-19T09:38:41.000Z</time>
      </trkpt>
      <trkpt lat="49.80832" lon="4.83898">
        <ele>230</ele>
        <time>2022-08-19T09:38:42.000Z</time>
      </trkpt>
      <trkpt lat="49.80828" lon="4.83898">
        <ele>230</ele>
        <time>2022-08-19T09:38:43.000Z</time>
      </trkpt>
      <trkpt lat="49.80824" lon="4.83897">
        <ele>230</ele>
        <time>2022-08-19T09:38:44.000Z</time>
      </trkpt>
      <trkpt lat="49.8082" lon="4.83897">
        <ele>230</ele>
        <time>2022-08-19T09:38:45.000Z</time>
      </trkpt>
      <trkpt lat="49.80816" lon="4.83896">
        <ele>230</ele>
        <time>2022-08-19T09:38:46.000Z</time>
      </trkpt>
      <trkpt lat="49.80811" lon="4.83897">
        <ele>229</ele>
        <time>2022-08-19T09:38:47.000Z</time>
      </trkpt>
      <trkpt lat="49.80807" lon="4.83898">
        <ele>230</ele>
        <time>2022-08-19T09:38:48.000Z</time>
      </trkpt>
      <trkpt lat="49.80802" lon="4.83899">
        <ele>230</ele>
        <time>2022-08-19T09:38:49.000Z</time>
      </trkpt>
      <trkpt lat="49.80798" lon="4.839">
        <ele>230</ele>
        <time>2022-08-19T09:38:50.000Z</time>
      </trkpt>
      <trkpt lat="49.80795" lon="4.839">
        <ele>229</ele>
        <time>2022-08-19T09:38:51.000Z</time>
      </trkpt>
      <trkpt lat="49.80791" lon="4.83901">
        <ele>229</ele>
        <time>2022-08-19T09:38:52.000Z</time>
      </trkpt>
      <trkpt lat="49.80787" lon="4.83901">
        <ele>229</ele>
        <time>2022-08-19T09:38:53.000Z</time>
      </trkpt>
      <trkpt lat="49.80783" lon="4.83902">
        <ele>229</ele>
        <time>2022-08-19T09:38:54.000Z</time>
      </trkpt>
      <trkpt lat="49.80779" lon="4.83901">
        <ele>229</ele>
        <time>2022-08-19T09:38:55.000Z</time>
      </trkpt>
      <trkpt lat="49.80776" lon="4.83901">
        <ele>229</ele>
        <time>2022-08-19T09:38:56.000Z</time>
      </trkpt>
      <trkpt lat="49.80773" lon="4.83901">
        <ele>230</ele>
        <time>2022-08-19T09:38:57.000Z</time>
      </trkpt>
      <trkpt lat="49.80769" lon="4.83901">
        <ele>230</ele>
        <time>2022-08-19T09:38:58.000Z</time>
      </trkpt>
      <trkpt lat="49.80765" lon="4.83901">
        <ele>230</ele>
        <time>2022-08-19T09:38:59.000Z</time>
      </trkpt>
      <trkpt lat="49.8076" lon="4.83902">
        <ele>230</ele>
        <time>2022-08-19T09:39:00.000Z</time>
      </trkpt>
      <trkpt lat="49.80756" lon="4.83903">
        <ele>230</ele>
        <time>2022-08-19T09:39:01.000Z</time>
      </trkpt>
      <trkpt lat="49.80752" lon="4.83905">
        <ele>230</ele>
        <time>2022-08-19T09:39:02.000Z</time>
      </trkpt>
      <trkpt lat="49.80748" lon="4.83907">
        <ele>230</ele>
        <time>2022-08-19T09:39:03.000Z</time>
      </trkpt>
      <trkpt lat="49.80744" lon="4.83909">
        <ele>230</ele>
        <time>2022-08-19T09:39:04.000Z</time>
      </trkpt>
      <trkpt lat="49.8074" lon="4.8391">
        <ele>230</ele>
        <time>2022-08-19T09:39:05.000Z</time>
      </trkpt>
      <trkpt lat="49.80736" lon="4.83911">
        <ele>230</ele>
        <time>2022-08-19T09:39:06.000Z</time>
      </trkpt>
      <trkpt lat="49.80731" lon="4.83913">
        <ele>230</ele>
        <time>2022-08-19T09:39:07.000Z</time>
      </trkpt>
      <trkpt lat="49.80727" lon="4.83913">
        <ele>230</ele>
        <time>2022-08-19T09:39:08.000Z</time>
      </trkpt>
      <trkpt lat="49.80723" lon="4.83914">
        <ele>230</ele>
        <time>2022-08-19T09:39:09.000Z</time>
      </trkpt>
      <trkpt lat="49.80718" lon="4.83916">
        <ele>229</ele>
        <time>2022-08-19T09:39:10.000Z</time>
      </trkpt>
      <trkpt lat="49.80714" lon="4.83917">
        <ele>229</ele>
        <time>2022-08-19T09:39:11.000Z</time>
      </trkpt>
      <trkpt lat="49.8071" lon="4.83918">
        <ele>229</ele>
        <time>2022-08-19T09:39:12.000Z</time>
      </trkpt>
      <trkpt lat="49.80706" lon="4.83919">
        <ele>229</ele>
        <time>2022-08-19T09:39:13.000Z</time>
      </trkpt>
      <trkpt lat="49.80701" lon="4.8392">
        <ele>229</ele>
        <time>2022-08-19T09:39:14.000Z</time>
      </trkpt>
      <trkpt lat="49.80696" lon="4.83919">
        <ele>229</ele>
        <time>2022-08-19T09:39:15.000Z</time>
      </trkpt>
      <trkpt lat="49.80692" lon="4.83918">
        <ele>229</ele>
        <time>2022-08-19T09:39:16.000Z</time>
      </trkpt>
      <trkpt lat="49.80688" lon="4.83917">
        <ele>229</ele>
        <time>2022-08-19T09:39:17.000Z</time>
      </trkpt>
      <trkpt lat="49.80684" lon="4.83917">
        <ele>229</ele>
        <time>2022-08-19T09:39:18.000Z</time>
      </trkpt>
      <trkpt lat="49.80679" lon="4.83918">
        <ele>229</ele>
        <time>2022-08-19T09:39:19.000Z</time>
      </trkpt>
      <trkpt lat="49.80675" lon="4.83918">
        <ele>229</ele>
        <time>2022-08-19T09:39:20.000Z</time>
      </trkpt>
      <trkpt lat="49.80672" lon="4.8392">
        <ele>228</ele>
        <time>2022-08-19T09:39:21.000Z</time>
      </trkpt>
      <trkpt lat="49.80668" lon="4.83922">
        <ele>228</ele>
        <time>2022-08-19T09:39:22.000Z</time>
      </trkpt>
      <trkpt lat="49.80665" lon="4.83924">
        <ele>228</ele>
        <time>2022-08-19T09:39:23.000Z</time>
      </trkpt>
      <trkpt lat="49.80662" lon="4.83926">
        <ele>228</ele>
        <time>2022-08-19T09:39:24.000Z</time>
      </trkpt>
      <trkpt lat="49.80659" lon="4.83929">
        <ele>228</ele>
        <time>2022-08-19T09:39:25.000Z</time>
      </trkpt>
      <trkpt lat="49.80655" lon="4.83931">
        <ele>228</ele>
        <time>2022-08-19T09:39:26.000Z</time>
      </trkpt>
      <trkpt lat="49.80651" lon="4.83934">
        <ele>228</ele>
        <time>2022-08-19T09:39:27.000Z</time>
      </trkpt>
      <trkpt lat="49.80647" lon="4.83936">
        <ele>228</ele>
        <time>2022-08-19T09:39:28.000Z</time>
      </trkpt>
      <trkpt lat="49.80643" lon="4.83938">
        <ele>228</ele>
        <time>2022-08-19T09:39:29.000Z</time>
      </trkpt>
      <trkpt lat="49.80639" lon="4.8394">
        <ele>228</ele>
        <time>2022-08-19T09:39:30.000Z</time>
      </trkpt>
      <trkpt lat="49.80635" lon="4.83941">
        <ele>228</ele>
        <time>2022-08-19T09:39:31.000Z</time>
      </trkpt>
      <trkpt lat="49.8063" lon="4.83942">
        <ele>228</ele>
        <time>2022-08-19T09:39:32.000Z</time>
      </trkpt>
      <trkpt lat="49.80626" lon="4.83944">
        <ele>228</ele>
        <time>2022-08-19T09:39:33.000Z</time>
      </trkpt>
      <trkpt lat="49.80621" lon="4.83946">
        <ele>228</ele>
        <time>2022-08-19T09:39:34.000Z</time>
      </trkpt>
      <trkpt lat="49.80616" lon="4.83947">
        <ele>228</ele>
        <time>2022-08-19T09:39:35.000Z</time>
      </trkpt>
      <trkpt lat="49.80612" lon="4.83949">
        <ele>228</ele>
        <time>2022-08-19T09:39:36.000Z</time>
      </trkpt>
      <trkpt lat="49.80607" lon="4.83951">
        <ele>228</ele>
        <time>2022-08-19T09:39:37.000Z</time>
      </trkpt>
      <trkpt lat="49.80601" lon="4.83952">
        <ele>228</ele>
        <time>2022-08-19T09:39:38.000Z</time>
      </trkpt>
      <trkpt lat="49.80597" lon="4.83952">
        <ele>228</ele>
        <time>2022-08-19T09:39:39.000Z</time>
      </trkpt>
      <trkpt lat="49.80592" lon="4.83953">
        <ele>228</ele>
        <time>2022-08-19T09:39:40.000Z</time>
      </trkpt>
      <trkpt lat="49.80589" lon="4.83954">
        <ele>228</ele>
        <time>2022-08-19T09:39:41.000Z</time>
      </trkpt>
      <trkpt lat="49.80585" lon="4.83954">
        <ele>228</ele>
        <time>2022-08-19T09:39:42.000Z</time>
      </trkpt>
      <trkpt lat="49.80581" lon="4.83954">
        <ele>228</ele>
        <time>2022-08-19T09:39:43.000Z</time>
      </trkpt>
      <trkpt lat="49.80577" lon="4.83954">
        <ele>228</ele>
        <time>2022-08-19T09:39:44.000Z</time>
      </trkpt>
      <trkpt lat="49.80574" lon="4.83955">
        <ele>227</ele>
        <time>2022-08-19T09:39:45.000Z</time>
      </trkpt>
      <trkpt lat="49.8057" lon="4.83956">
        <ele>227</ele>
        <time>2022-08-19T09:39:46.000Z</time>
      </trkpt>
      <trkpt lat="49.80567" lon="4.83956">
        <ele>227</ele>
        <time>2022-08-19T09:39:47.000Z</time>
      </trkpt>
      <trkpt lat="49.80564" lon="4.83956">
        <ele>227</ele>
        <time>2022-08-19T09:39:48.000Z</time>
      </trkpt>
      <trkpt lat="49.80561" lon="4.83957">
        <ele>227</ele>
        <time>2022-08-19T09:39:49.000Z</time>
      </trkpt>
      <trkpt lat="49.80557" lon="4.83957">
        <ele>226</ele>
        <time>2022-08-19T09:39:50.000Z</time>
      </trkpt>
      <trkpt lat="49.80555" lon="4.83958">
        <ele>226</ele>
        <time>2022-08-19T09:39:51.000Z</time>
      </trkpt>
      <trkpt lat="49.80552" lon="4.83958">
        <ele>226</ele>
        <time>2022-08-19T09:39:52.000Z</time>
      </trkpt>
      <trkpt lat="49.80549" lon="4.83959">
        <ele>225</ele>
        <time>2022-08-19T09:39:53.000Z</time>
      </trkpt>
      <trkpt lat="49.80545" lon="4.83959">
        <ele>225</ele>
        <time>2022-08-19T09:39:54.000Z</time>
      </trkpt>
      <trkpt lat="49.80542" lon="4.8396">
        <ele>225</ele>
        <time>2022-08-19T09:39:55.000Z</time>
      </trkpt>
      <trkpt lat="49.80538" lon="4.83961">
        <ele>225</ele>
        <time>2022-08-19T09:39:56.000Z</time>
      </trkpt>
      <trkpt lat="49.80535" lon="4.83961">
        <ele>225</ele>
        <time>2022-08-19T09:39:57.000Z</time>
      </trkpt>
      <trkpt lat="49.80531" lon="4.83961">
        <ele>224</ele>
        <time>2022-08-19T09:39:58.000Z</time>
      </trkpt>
      <trkpt lat="49.80528" lon="4.83961">
        <ele>224</ele>
        <time>2022-08-19T09:39:59.000Z</time>
      </trkpt>
      <trkpt lat="49.80525" lon="4.83961">
        <ele>224</ele>
        <time>2022-08-19T09:40:00.000Z</time>
      </trkpt>
      <trkpt lat="49.80523" lon="4.83962">
        <ele>224</ele>
        <time>2022-08-19T09:40:01.000Z</time>
      </trkpt>
      <trkpt lat="49.80521" lon="4.83963">
        <ele>224</ele>
        <time>2022-08-19T09:40:02.000Z</time>
      </trkpt>
      <trkpt lat="49.80519" lon="4.83963">
        <ele>224</ele>
        <time>2022-08-19T09:40:03.000Z</time>
      </trkpt>
      <trkpt lat="49.80517" lon="4.83964">
        <ele>223</ele>
        <time>2022-08-19T09:40:04.000Z</time>
      </trkpt>
      <trkpt lat="49.80514" lon="4.83963">
        <ele>223</ele>
        <time>2022-08-19T09:40:05.000Z</time>
      </trkpt>
      <trkpt lat="49.80512" lon="4.83963">
        <ele>223</ele>
        <time>2022-08-19T09:40:06.000Z</time>
      </trkpt>
      <trkpt lat="49.8051" lon="4.83964">
        <ele>223</ele>
        <time>2022-08-19T09:40:07.000Z</time>
      </trkpt>
      <trkpt lat="49.80507" lon="4.83963">
        <ele>223</ele>
        <time>2022-08-19T09:40:08.000Z</time>
      </trkpt>
      <trkpt lat="49.80505" lon="4.83963">
        <ele>223</ele>
        <time>2022-08-19T09:40:09.000Z</time>
      </trkpt>
      <trkpt lat="49.80503" lon="4.83961">
        <ele>223</ele>
        <time>2022-08-19T09:40:10.000Z</time>
      </trkpt>
      <trkpt lat="49.805" lon="4.83958">
        <ele>223</ele>
        <time>2022-08-19T09:40:11.000Z</time>
      </trkpt>
      <trkpt lat="49.80498" lon="4.83955">
        <ele>222</ele>
        <time>2022-08-19T09:40:12.000Z</time>
      </trkpt>
      <trkpt lat="49.80496" lon="4.83951">
        <ele>222</ele>
        <time>2022-08-19T09:40:13.000Z</time>
      </trkpt>
      <trkpt lat="49.80493" lon="4.83947">
        <ele>222</ele>
        <time>2022-08-19T09:40:14.000Z</time>
      </trkpt>
      <trkpt lat="49.8049" lon="4.83943">
        <ele>222</ele>
        <time>2022-08-19T09:40:15.000Z</time>
      </trkpt>
      <trkpt lat="49.80487" lon="4.8394">
        <ele>222</ele>
        <time>2022-08-19T09:40:16.000Z</time>
      </trkpt>
      <trkpt lat="49.80484" lon="4.83936">
        <ele>222</ele>
        <time>2022-08-19T09:40:17.000Z</time>
      </trkpt>
      <trkpt lat="49.80481" lon="4.83932">
        <ele>222</ele>
        <time>2022-08-19T09:40:18.000Z</time>
      </trkpt>
      <trkpt lat="49.80477" lon="4.83929">
        <ele>221</ele>
        <time>2022-08-19T09:40:19.000Z</time>
      </trkpt>
      <trkpt lat="49.80474" lon="4.83925">
        <ele>221</ele>
        <time>2022-08-19T09:40:20.000Z</time>
      </trkpt>
      <trkpt lat="49.8047" lon="4.83922">
        <ele>221</ele>
        <time>2022-08-19T09:40:21.000Z</time>
      </trkpt>
      <trkpt lat="49.80466" lon="4.8392">
        <ele>221</ele>
        <time>2022-08-19T09:40:22.000Z</time>
      </trkpt>
      <trkpt lat="49.80462" lon="4.83918">
        <ele>221</ele>
        <time>2022-08-19T09:40:23.000Z</time>
      </trkpt>
      <trkpt lat="49.80458" lon="4.83916">
        <ele>221</ele>
        <time>2022-08-19T09:40:24.000Z</time>
      </trkpt>
      <trkpt lat="49.80454" lon="4.83914">
        <ele>221</ele>
        <time>2022-08-19T09:40:25.000Z</time>
      </trkpt>
      <trkpt lat="49.8045" lon="4.83912">
        <ele>220</ele>
        <time>2022-08-19T09:40:26.000Z</time>
      </trkpt>
      <trkpt lat="49.80446" lon="4.8391">
        <ele>221</ele>
        <time>2022-08-19T09:40:27.000Z</time>
      </trkpt>
      <trkpt lat="49.80442" lon="4.83908">
        <ele>221</ele>
        <time>2022-08-19T09:40:28.000Z</time>
      </trkpt>
      <trkpt lat="49.80438" lon="4.83905">
        <ele>221</ele>
        <time>2022-08-19T09:40:29.000Z</time>
      </trkpt>
      <trkpt lat="49.80435" lon="4.83903">
        <ele>221</ele>
        <time>2022-08-19T09:40:30.000Z</time>
      </trkpt>
      <trkpt lat="49.80432" lon="4.839">
        <ele>221</ele>
        <time>2022-08-19T09:40:31.000Z</time>
      </trkpt>
      <trkpt lat="49.80428" lon="4.83898">
        <ele>221</ele>
        <time>2022-08-19T09:40:32.000Z</time>
      </trkpt>
      <trkpt lat="49.80424" lon="4.83896">
        <ele>221</ele>
        <time>2022-08-19T09:40:33.000Z</time>
      </trkpt>
      <trkpt lat="49.80421" lon="4.83893">
        <ele>221</ele>
        <time>2022-08-19T09:40:34.000Z</time>
      </trkpt>
      <trkpt lat="49.80417" lon="4.8389">
        <ele>221</ele>
        <time>2022-08-19T09:40:35.000Z</time>
      </trkpt>
      <trkpt lat="49.80413" lon="4.83886">
        <ele>221</ele>
        <time>2022-08-19T09:40:36.000Z</time>
      </trkpt>
      <trkpt lat="49.80409" lon="4.83883">
        <ele>220</ele>
        <time>2022-08-19T09:40:37.000Z</time>
      </trkpt>
      <trkpt lat="49.80406" lon="4.83878">
        <ele>220</ele>
        <time>2022-08-19T09:40:38.000Z</time>
      </trkpt>
      <trkpt lat="49.80404" lon="4.83872">
        <ele>220</ele>
        <time>2022-08-19T09:40:39.000Z</time>
      </trkpt>
      <trkpt lat="49.804" lon="4.83868">
        <ele>220</ele>
        <time>2022-08-19T09:40:40.000Z</time>
      </trkpt>
      <trkpt lat="49.80396" lon="4.83865">
        <ele>220</ele>
        <time>2022-08-19T09:40:41.000Z</time>
      </trkpt>
      <trkpt lat="49.80392" lon="4.83864">
        <ele>220</ele>
        <time>2022-08-19T09:40:42.000Z</time>
      </trkpt>
      <trkpt lat="49.80388" lon="4.83864">
        <ele>220</ele>
        <time>2022-08-19T09:40:43.000Z</time>
      </trkpt>
      <trkpt lat="49.80384" lon="4.83864">
        <ele>220</ele>
        <time>2022-08-19T09:40:44.000Z</time>
      </trkpt>
      <trkpt lat="49.80379" lon="4.83863">
        <ele>220</ele>
        <time>2022-08-19T09:40:45.000Z</time>
      </trkpt>
      <trkpt lat="49.80375" lon="4.83862">
        <ele>220</ele>
        <time>2022-08-19T09:40:46.000Z</time>
      </trkpt>
      <trkpt lat="49.80371" lon="4.83862">
        <ele>220</ele>
        <time>2022-08-19T09:40:47.000Z</time>
      </trkpt>
      <trkpt lat="49.80366" lon="4.83861">
        <ele>220</ele>
        <time>2022-08-19T09:40:48.000Z</time>
      </trkpt>
      <trkpt lat="49.80361" lon="4.8386">
        <ele>220</ele>
        <time>2022-08-19T09:40:49.000Z</time>
      </trkpt>
      <trkpt lat="49.80356" lon="4.83859">
        <ele>220</ele>
        <time>2022-08-19T09:40:50.000Z</time>
      </trkpt>
      <trkpt lat="49.80351" lon="4.83859">
        <ele>220</ele>
        <time>2022-08-19T09:40:51.000Z</time>
      </trkpt>
      <trkpt lat="49.80346" lon="4.83858">
        <ele>220</ele>
        <time>2022-08-19T09:40:52.000Z</time>
      </trkpt>
      <trkpt lat="49.80341" lon="4.83858">
        <ele>220</ele>
        <time>2022-08-19T09:40:53.000Z</time>
      </trkpt>
      <trkpt lat="49.80335" lon="4.83856">
        <ele>221</ele>
        <time>2022-08-19T09:40:54.000Z</time>
      </trkpt>
      <trkpt lat="49.8033" lon="4.83855">
        <ele>221</ele>
        <time>2022-08-19T09:40:55.000Z</time>
      </trkpt>
      <trkpt lat="49.80325" lon="4.83855">
        <ele>221</ele>
        <time>2022-08-19T09:40:56.000Z</time>
      </trkpt>
      <trkpt lat="49.8032" lon="4.83854">
        <ele>221</ele>
        <time>2022-08-19T09:40:57.000Z</time>
      </trkpt>
      <trkpt lat="49.80316" lon="4.83854">
        <ele>221</ele>
        <time>2022-08-19T09:40:58.000Z</time>
      </trkpt>
      <trkpt lat="49.80311" lon="4.83853">
        <ele>221</ele>
        <time>2022-08-19T09:40:59.000Z</time>
      </trkpt>
      <trkpt lat="49.80306" lon="4.83852">
        <ele>221</ele>
        <time>2022-08-19T09:41:00.000Z</time>
      </trkpt>
      <trkpt lat="49.80301" lon="4.83851">
        <ele>221</ele>
        <time>2022-08-19T09:41:01.000Z</time>
      </trkpt>
      <trkpt lat="49.80296" lon="4.8385">
        <ele>221</ele>
        <time>2022-08-19T09:41:02.000Z</time>
      </trkpt>
      <trkpt lat="49.80291" lon="4.83848">
        <ele>222</ele>
        <time>2022-08-19T09:41:03.000Z</time>
      </trkpt>
      <trkpt lat="49.80287" lon="4.83847">
        <ele>222</ele>
        <time>2022-08-19T09:41:04.000Z</time>
      </trkpt>
      <trkpt lat="49.80282" lon="4.83846">
        <ele>222</ele>
        <time>2022-08-19T09:41:05.000Z</time>
      </trkpt>
      <trkpt lat="49.80277" lon="4.83846">
        <ele>222</ele>
        <time>2022-08-19T09:41:06.000Z</time>
      </trkpt>
      <trkpt lat="49.80273" lon="4.83845">
        <ele>222</ele>
        <time>2022-08-19T09:41:07.000Z</time>
      </trkpt>
      <trkpt lat="49.80268" lon="4.83844">
        <ele>223</ele>
        <time>2022-08-19T09:41:08.000Z</time>
      </trkpt>
      <trkpt lat="49.80264" lon="4.83844">
        <ele>223</ele>
        <time>2022-08-19T09:41:09.000Z</time>
      </trkpt>
      <trkpt lat="49.80259" lon="4.83844">
        <ele>223</ele>
        <time>2022-08-19T09:41:10.000Z</time>
      </trkpt>
      <trkpt lat="49.80254" lon="4.83843">
        <ele>223</ele>
        <time>2022-08-19T09:41:11.000Z</time>
      </trkpt>
      <trkpt lat="49.8025" lon="4.83843">
        <ele>224</ele>
        <time>2022-08-19T09:41:12.000Z</time>
      </trkpt>
      <trkpt lat="49.80246" lon="4.83843">
        <ele>224</ele>
        <time>2022-08-19T09:41:13.000Z</time>
      </trkpt>
      <trkpt lat="49.80242" lon="4.83843">
        <ele>224</ele>
        <time>2022-08-19T09:41:14.000Z</time>
      </trkpt>
      <trkpt lat="49.80237" lon="4.83843">
        <ele>224</ele>
        <time>2022-08-19T09:41:15.000Z</time>
      </trkpt>
      <trkpt lat="49.80232" lon="4.83844">
        <ele>225</ele>
        <time>2022-08-19T09:41:16.000Z</time>
      </trkpt>
      <trkpt lat="49.80228" lon="4.83845">
        <ele>225</ele>
        <time>2022-08-19T09:41:17.000Z</time>
      </trkpt>
      <trkpt lat="49.80223" lon="4.83845">
        <ele>225</ele>
        <time>2022-08-19T09:41:18.000Z</time>
      </trkpt>
      <trkpt lat="49.80218" lon="4.83845">
        <ele>225</ele>
        <time>2022-08-19T09:41:19.000Z</time>
      </trkpt>
      <trkpt lat="49.80213" lon="4.83846">
        <ele>225</ele>
        <time>2022-08-19T09:41:20.000Z</time>
      </trkpt>
      <trkpt lat="49.80208" lon="4.83846">
        <ele>226</ele>
        <time>2022-08-19T09:41:21.000Z</time>
      </trkpt>
      <trkpt lat="49.80204" lon="4.83845">
        <ele>226</ele>
        <time>2022-08-19T09:41:22.000Z</time>
      </trkpt>
      <trkpt lat="49.80199" lon="4.83845">
        <ele>226</ele>
        <time>2022-08-19T09:41:23.000Z</time>
      </trkpt>
      <trkpt lat="49.80195" lon="4.83845">
        <ele>226</ele>
        <time>2022-08-19T09:41:24.000Z</time>
      </trkpt>
      <trkpt lat="49.8019" lon="4.83844">
        <ele>227</ele>
        <time>2022-08-19T09:41:25.000Z</time>
      </trkpt>
      <trkpt lat="49.80185" lon="4.83843">
        <ele>227</ele>
        <time>2022-08-19T09:41:26.000Z</time>
      </trkpt>
      <trkpt lat="49.80181" lon="4.83843">
        <ele>227</ele>
        <time>2022-08-19T09:41:27.000Z</time>
      </trkpt>
      <trkpt lat="49.80176" lon="4.83842">
        <ele>227</ele>
        <time>2022-08-19T09:41:28.000Z</time>
      </trkpt>
      <trkpt lat="49.80172" lon="4.83841">
        <ele>227</ele>
        <time>2022-08-19T09:41:29.000Z</time>
      </trkpt>
      <trkpt lat="49.80167" lon="4.8384">
        <ele>227</ele>
        <time>2022-08-19T09:41:30.000Z</time>
      </trkpt>
      <trkpt lat="49.80162" lon="4.83839">
        <ele>227</ele>
        <time>2022-08-19T09:41:31.000Z</time>
      </trkpt>
      <trkpt lat="49.80158" lon="4.83838">
        <ele>227</ele>
        <time>2022-08-19T09:41:32.000Z</time>
      </trkpt>
      <trkpt lat="49.80153" lon="4.83837">
        <ele>227</ele>
        <time>2022-08-19T09:41:33.000Z</time>
      </trkpt>
      <trkpt lat="49.80149" lon="4.83836">
        <ele>227</ele>
        <time>2022-08-19T09:41:34.000Z</time>
      </trkpt>
      <trkpt lat="49.80145" lon="4.83835">
        <ele>227</ele>
        <time>2022-08-19T09:41:35.000Z</time>
      </trkpt>
      <trkpt lat="49.80141" lon="4.83834">
        <ele>227</ele>
        <time>2022-08-19T09:41:36.000Z</time>
      </trkpt>
      <trkpt lat="49.80137" lon="4.83833">
        <ele>227</ele>
        <time>2022-08-19T09:41:37.000Z</time>
      </trkpt>
      <trkpt lat="49.80133" lon="4.83832">
        <ele>227</ele>
        <time>2022-08-19T09:41:38.000Z</time>
      </trkpt>
      <trkpt lat="49.80128" lon="4.8383">
        <ele>227</ele>
        <time>2022-08-19T09:41:39.000Z</time>
      </trkpt>
      <trkpt lat="49.80124" lon="4.83828">
        <ele>227</ele>
        <time>2022-08-19T09:41:40.000Z</time>
      </trkpt>
      <trkpt lat="49.8012" lon="4.83827">
        <ele>227</ele>
        <time>2022-08-19T09:41:41.000Z</time>
      </trkpt>
      <trkpt lat="49.80115" lon="4.83825">
        <ele>228</ele>
        <time>2022-08-19T09:41:42.000Z</time>
      </trkpt>
      <trkpt lat="49.80112" lon="4.83824">
        <ele>228</ele>
        <time>2022-08-19T09:41:43.000Z</time>
      </trkpt>
      <trkpt lat="49.80108" lon="4.83824">
        <ele>228</ele>
        <time>2022-08-19T09:41:44.000Z</time>
      </trkpt>
      <trkpt lat="49.80103" lon="4.83822">
        <ele>228</ele>
        <time>2022-08-19T09:41:45.000Z</time>
      </trkpt>
      <trkpt lat="49.80098" lon="4.8382">
        <ele>228</ele>
        <time>2022-08-19T09:41:46.000Z</time>
      </trkpt>
      <trkpt lat="49.80093" lon="4.83818">
        <ele>229</ele>
        <time>2022-08-19T09:41:47.000Z</time>
      </trkpt>
      <trkpt lat="49.80088" lon="4.83815">
        <ele>229</ele>
        <time>2022-08-19T09:41:48.000Z</time>
      </trkpt>
      <trkpt lat="49.80083" lon="4.83813">
        <ele>229</ele>
        <time>2022-08-19T09:41:49.000Z</time>
      </trkpt>
      <trkpt lat="49.80078" lon="4.83811">
        <ele>229</ele>
        <time>2022-08-19T09:41:50.000Z</time>
      </trkpt>
      <trkpt lat="49.80073" lon="4.8381">
        <ele>229</ele>
        <time>2022-08-19T09:41:51.000Z</time>
      </trkpt>
      <trkpt lat="49.80068" lon="4.83808">
        <ele>230</ele>
        <time>2022-08-19T09:41:52.000Z</time>
      </trkpt>
      <trkpt lat="49.80064" lon="4.83807">
        <ele>230</ele>
        <time>2022-08-19T09:41:53.000Z</time>
      </trkpt>
      <trkpt lat="49.80059" lon="4.83805">
        <ele>230</ele>
        <time>2022-08-19T09:41:54.000Z</time>
      </trkpt>
      <trkpt lat="49.80054" lon="4.83803">
        <ele>230</ele>
        <time>2022-08-19T09:41:55.000Z</time>
      </trkpt>
      <trkpt lat="49.8005" lon="4.83802">
        <ele>230</ele>
        <time>2022-08-19T09:41:56.000Z</time>
      </trkpt>
      <trkpt lat="49.80045" lon="4.83801">
        <ele>230</ele>
        <time>2022-08-19T09:41:57.000Z</time>
      </trkpt>
      <trkpt lat="49.8004" lon="4.838">
        <ele>230</ele>
        <time>2022-08-19T09:41:58.000Z</time>
      </trkpt>
      <trkpt lat="49.80036" lon="4.83799">
        <ele>231</ele>
        <time>2022-08-19T09:41:59.000Z</time>
      </trkpt>
      <trkpt lat="49.80031" lon="4.83799">
        <ele>231</ele>
        <time>2022-08-19T09:42:00.000Z</time>
      </trkpt>
      <trkpt lat="49.80027" lon="4.83797">
        <ele>231</ele>
        <time>2022-08-19T09:42:01.000Z</time>
      </trkpt>
      <trkpt lat="49.80022" lon="4.83796">
        <ele>231</ele>
        <time>2022-08-19T09:42:02.000Z</time>
      </trkpt>
      <trkpt lat="49.80018" lon="4.83794">
        <ele>231</ele>
        <time>2022-08-19T09:42:03.000Z</time>
      </trkpt>
      <trkpt lat="49.80013" lon="4.83793">
        <ele>231</ele>
        <time>2022-08-19T09:42:04.000Z</time>
      </trkpt>
      <trkpt lat="49.80009" lon="4.83791">
        <ele>231</ele>
        <time>2022-08-19T09:42:05.000Z</time>
      </trkpt>
      <trkpt lat="49.80004" lon="4.83789">
        <ele>231</ele>
        <time>2022-08-19T09:42:06.000Z</time>
      </trkpt>
      <trkpt lat="49.79999" lon="4.83787">
        <ele>231</ele>
        <time>2022-08-19T09:42:07.000Z</time>
      </trkpt>
      <trkpt lat="49.79994" lon="4.83785">
        <ele>231</ele>
        <time>2022-08-19T09:42:08.000Z</time>
      </trkpt>
      <trkpt lat="49.7999" lon="4.83784">
        <ele>231</ele>
        <time>2022-08-19T09:42:09.000Z</time>
      </trkpt>
      <trkpt lat="49.79985" lon="4.83782">
        <ele>232</ele>
        <time>2022-08-19T09:42:10.000Z</time>
      </trkpt>
      <trkpt lat="49.79979" lon="4.83781">
        <ele>232</ele>
        <time>2022-08-19T09:42:11.000Z</time>
      </trkpt>
      <trkpt lat="49.79974" lon="4.8378">
        <ele>232</ele>
        <time>2022-08-19T09:42:12.000Z</time>
      </trkpt>
      <trkpt lat="49.79969" lon="4.83777">
        <ele>232</ele>
        <time>2022-08-19T09:42:13.000Z</time>
      </trkpt>
      <trkpt lat="49.79963" lon="4.83775">
        <ele>232</ele>
        <time>2022-08-19T09:42:14.000Z</time>
      </trkpt>
      <trkpt lat="49.79958" lon="4.83774">
        <ele>232</ele>
        <time>2022-08-19T09:42:15.000Z</time>
      </trkpt>
      <trkpt lat="49.79953" lon="4.83773">
        <ele>232</ele>
        <time>2022-08-19T09:42:16.000Z</time>
      </trkpt>
      <trkpt lat="49.79948" lon="4.83772">
        <ele>232</ele>
        <time>2022-08-19T09:42:17.000Z</time>
      </trkpt>
      <trkpt lat="49.79943" lon="4.8377">
        <ele>233</ele>
        <time>2022-08-19T09:42:18.000Z</time>
      </trkpt>
      <trkpt lat="49.79939" lon="4.83769">
        <ele>233</ele>
        <time>2022-08-19T09:42:19.000Z</time>
      </trkpt>
      <trkpt lat="49.79934" lon="4.83768">
        <ele>233</ele>
        <time>2022-08-19T09:42:20.000Z</time>
      </trkpt>
      <trkpt lat="49.79928" lon="4.83767">
        <ele>233</ele>
        <time>2022-08-19T09:42:21.000Z</time>
      </trkpt>
      <trkpt lat="49.79923" lon="4.83766">
        <ele>233</ele>
        <time>2022-08-19T09:42:22.000Z</time>
      </trkpt>
      <trkpt lat="49.79918" lon="4.83765">
        <ele>233</ele>
        <time>2022-08-19T09:42:23.000Z</time>
      </trkpt>
      <trkpt lat="49.79912" lon="4.83764">
        <ele>233</ele>
        <time>2022-08-19T09:42:24.000Z</time>
      </trkpt>
      <trkpt lat="49.79907" lon="4.83762">
        <ele>234</ele>
        <time>2022-08-19T09:42:25.000Z</time>
      </trkpt>
      <trkpt lat="49.79902" lon="4.83761">
        <ele>234</ele>
        <time>2022-08-19T09:42:26.000Z</time>
      </trkpt>
      <trkpt lat="49.79898" lon="4.8376">
        <ele>234</ele>
        <time>2022-08-19T09:42:27.000Z</time>
      </trkpt>
      <trkpt lat="49.79893" lon="4.83759">
        <ele>234</ele>
        <time>2022-08-19T09:42:28.000Z</time>
      </trkpt>
      <trkpt lat="49.79888" lon="4.83758">
        <ele>235</ele>
        <time>2022-08-19T09:42:29.000Z</time>
      </trkpt>
      <trkpt lat="49.79883" lon="4.83756">
        <ele>235</ele>
        <time>2022-08-19T09:42:30.000Z</time>
      </trkpt>
      <trkpt lat="49.79878" lon="4.83756">
        <ele>235</ele>
        <time>2022-08-19T09:42:31.000Z</time>
      </trkpt>
      <trkpt lat="49.79873" lon="4.83755">
        <ele>235</ele>
        <time>2022-08-19T09:42:32.000Z</time>
      </trkpt>
      <trkpt lat="49.79868" lon="4.83754">
        <ele>235</ele>
        <time>2022-08-19T09:42:33.000Z</time>
      </trkpt>
      <trkpt lat="49.79863" lon="4.83753">
        <ele>235</ele>
        <time>2022-08-19T09:42:34.000Z</time>
      </trkpt>
      <trkpt lat="49.79858" lon="4.83752">
        <ele>236</ele>
        <time>2022-08-19T09:42:35.000Z</time>
      </trkpt>
      <trkpt lat="49.79853" lon="4.8375">
        <ele>236</ele>
        <time>2022-08-19T09:42:36.000Z</time>
      </trkpt>
      <trkpt lat="49.79849" lon="4.8375">
        <ele>236</ele>
        <time>2022-08-19T09:42:37.000Z</time>
      </trkpt>
      <trkpt lat="49.79844" lon="4.83749">
        <ele>236</ele>
        <time>2022-08-19T09:42:38.000Z</time>
      </trkpt>
      <trkpt lat="49.79839" lon="4.83747">
        <ele>236</ele>
        <time>2022-08-19T09:42:39.000Z</time>
      </trkpt>
      <trkpt lat="49.79835" lon="4.83747">
        <ele>236</ele>
        <time>2022-08-19T09:42:40.000Z</time>
      </trkpt>
      <trkpt lat="49.79831" lon="4.83746">
        <ele>237</ele>
        <time>2022-08-19T09:42:41.000Z</time>
      </trkpt>
      <trkpt lat="49.79826" lon="4.83745">
        <ele>237</ele>
        <time>2022-08-19T09:42:42.000Z</time>
      </trkpt>
      <trkpt lat="49.79821" lon="4.83744">
        <ele>237</ele>
        <time>2022-08-19T09:42:43.000Z</time>
      </trkpt>
      <trkpt lat="49.79816" lon="4.83744">
        <ele>237</ele>
        <time>2022-08-19T09:42:44.000Z</time>
      </trkpt>
      <trkpt lat="49.79812" lon="4.83744">
        <ele>237</ele>
        <time>2022-08-19T09:42:45.000Z</time>
      </trkpt>
      <trkpt lat="49.79807" lon="4.83743">
        <ele>237</ele>
        <time>2022-08-19T09:42:46.000Z</time>
      </trkpt>
      <trkpt lat="49.79802" lon="4.83742">
        <ele>237</ele>
        <time>2022-08-19T09:42:47.000Z</time>
      </trkpt>
      <trkpt lat="49.79796" lon="4.83741">
        <ele>237</ele>
        <time>2022-08-19T09:42:48.000Z</time>
      </trkpt>
      <trkpt lat="49.79791" lon="4.8374">
        <ele>237</ele>
        <time>2022-08-19T09:42:49.000Z</time>
      </trkpt>
      <trkpt lat="49.79787" lon="4.8374">
        <ele>237</ele>
        <time>2022-08-19T09:42:50.000Z</time>
      </trkpt>
      <trkpt lat="49.79782" lon="4.83739">
        <ele>237</ele>
        <time>2022-08-19T09:42:51.000Z</time>
      </trkpt>
      <trkpt lat="49.79778" lon="4.83739">
        <ele>237</ele>
        <time>2022-08-19T09:42:52.000Z</time>
      </trkpt>
      <trkpt lat="49.79774" lon="4.83739">
        <ele>237</ele>
        <time>2022-08-19T09:42:53.000Z</time>
      </trkpt>
      <trkpt lat="49.7977" lon="4.83738">
        <ele>237</ele>
        <time>2022-08-19T09:42:54.000Z</time>
      </trkpt>
      <trkpt lat="49.79765" lon="4.83737">
        <ele>237</ele>
        <time>2022-08-19T09:42:55.000Z</time>
      </trkpt>
      <trkpt lat="49.79761" lon="4.83737">
        <ele>237</ele>
        <time>2022-08-19T09:42:56.000Z</time>
      </trkpt>
      <trkpt lat="49.79756" lon="4.83736">
        <ele>237</ele>
        <time>2022-08-19T09:42:57.000Z</time>
      </trkpt>
      <trkpt lat="49.7975" lon="4.83736">
        <ele>237</ele>
        <time>2022-08-19T09:42:58.000Z</time>
      </trkpt>
      <trkpt lat="49.79745" lon="4.83735">
        <ele>237</ele>
        <time>2022-08-19T09:42:59.000Z</time>
      </trkpt>
      <trkpt lat="49.7974" lon="4.83735">
        <ele>237</ele>
        <time>2022-08-19T09:43:00.000Z</time>
      </trkpt>
      <trkpt lat="49.79735" lon="4.83734">
        <ele>237</ele>
        <time>2022-08-19T09:43:01.000Z</time>
      </trkpt>
      <trkpt lat="49.7973" lon="4.83733">
        <ele>237</ele>
        <time>2022-08-19T09:43:02.000Z</time>
      </trkpt>
      <trkpt lat="49.79725" lon="4.83732">
        <ele>237</ele>
        <time>2022-08-19T09:43:03.000Z</time>
      </trkpt>
      <trkpt lat="49.7972" lon="4.83731">
        <ele>237</ele>
        <time>2022-08-19T09:43:04.000Z</time>
      </trkpt>
      <trkpt lat="49.79715" lon="4.8373">
        <ele>237</ele>
        <time>2022-08-19T09:43:05.000Z</time>
      </trkpt>
      <trkpt lat="49.7971" lon="4.83729">
        <ele>237</ele>
        <time>2022-08-19T09:43:06.000Z</time>
      </trkpt>
      <trkpt lat="49.79705" lon="4.83729">
        <ele>237</ele>
        <time>2022-08-19T09:43:07.000Z</time>
      </trkpt>
      <trkpt lat="49.797" lon="4.83729">
        <ele>237</ele>
        <time>2022-08-19T09:43:08.000Z</time>
      </trkpt>
      <trkpt lat="49.79695" lon="4.83729">
        <ele>237</ele>
        <time>2022-08-19T09:43:09.000Z</time>
      </trkpt>
      <trkpt lat="49.7969" lon="4.8373">
        <ele>237</ele>
        <time>2022-08-19T09:43:10.000Z</time>
      </trkpt>
      <trkpt lat="49.79684" lon="4.83731">
        <ele>237</ele>
        <time>2022-08-19T09:43:11.000Z</time>
      </trkpt>
      <trkpt lat="49.79679" lon="4.83731">
        <ele>237</ele>
        <time>2022-08-19T09:43:12.000Z</time>
      </trkpt>
      <trkpt lat="49.79673" lon="4.83732">
        <ele>237</ele>
        <time>2022-08-19T09:43:13.000Z</time>
      </trkpt>
      <trkpt lat="49.79667" lon="4.83733">
        <ele>237</ele>
        <time>2022-08-19T09:43:14.000Z</time>
      </trkpt>
      <trkpt lat="49.79661" lon="4.83733">
        <ele>236</ele>
        <time>2022-08-19T09:43:15.000Z</time>
      </trkpt>
      <trkpt lat="49.79655" lon="4.83734">
        <ele>236</ele>
        <time>2022-08-19T09:43:16.000Z</time>
      </trkpt>
      <trkpt lat="49.79649" lon="4.83734">
        <ele>236</ele>
        <time>2022-08-19T09:43:17.000Z</time>
      </trkpt>
      <trkpt lat="49.79643" lon="4.83734">
        <ele>236</ele>
        <time>2022-08-19T09:43:18.000Z</time>
      </trkpt>
      <trkpt lat="49.79638" lon="4.83735">
        <ele>236</ele>
        <time>2022-08-19T09:43:19.000Z</time>
      </trkpt>
      <trkpt lat="49.79632" lon="4.83735">
        <ele>236</ele>
        <time>2022-08-19T09:43:20.000Z</time>
      </trkpt>
      <trkpt lat="49.79626" lon="4.83735">
        <ele>236</ele>
        <time>2022-08-19T09:43:21.000Z</time>
      </trkpt>
      <trkpt lat="49.7962" lon="4.83735">
        <ele>236</ele>
        <time>2022-08-19T09:43:22.000Z</time>
      </trkpt>
      <trkpt lat="49.79615" lon="4.83735">
        <ele>236</ele>
        <time>2022-08-19T09:43:23.000Z</time>
      </trkpt>
      <trkpt lat="49.79609" lon="4.83736">
        <ele>235</ele>
        <time>2022-08-19T09:43:24.000Z</time>
      </trkpt>
      <trkpt lat="49.79603" lon="4.83736">
        <ele>235</ele>
        <time>2022-08-19T09:43:25.000Z</time>
      </trkpt>
      <trkpt lat="49.79597" lon="4.83735">
        <ele>235</ele>
        <time>2022-08-19T09:43:26.000Z</time>
      </trkpt>
      <trkpt lat="49.7959" lon="4.83735">
        <ele>235</ele>
        <time>2022-08-19T09:43:27.000Z</time>
      </trkpt>
      <trkpt lat="49.79584" lon="4.83735">
        <ele>234</ele>
        <time>2022-08-19T09:43:28.000Z</time>
      </trkpt>
      <trkpt lat="49.79578" lon="4.83734">
        <ele>234</ele>
        <time>2022-08-19T09:43:29.000Z</time>
      </trkpt>
      <trkpt lat="49.79571" lon="4.83734">
        <ele>234</ele>
        <time>2022-08-19T09:43:30.000Z</time>
      </trkpt>
      <trkpt lat="49.79565" lon="4.83733">
        <ele>233</ele>
        <time>2022-08-19T09:43:31.000Z</time>
      </trkpt>
      <trkpt lat="49.79558" lon="4.83732">
        <ele>233</ele>
        <time>2022-08-19T09:43:32.000Z</time>
      </trkpt>
      <trkpt lat="49.79552" lon="4.83731">
        <ele>232</ele>
        <time>2022-08-19T09:43:33.000Z</time>
      </trkpt>
      <trkpt lat="49.79546" lon="4.83729">
        <ele>232</ele>
        <time>2022-08-19T09:43:34.000Z</time>
      </trkpt>
      <trkpt lat="49.7954" lon="4.83728">
        <ele>231</ele>
        <time>2022-08-19T09:43:35.000Z</time>
      </trkpt>
      <trkpt lat="49.79535" lon="4.83727">
        <ele>231</ele>
        <time>2022-08-19T09:43:36.000Z</time>
      </trkpt>
      <trkpt lat="49.79529" lon="4.83725">
        <ele>230</ele>
        <time>2022-08-19T09:43:37.000Z</time>
      </trkpt>
      <trkpt lat="49.79523" lon="4.83724">
        <ele>229</ele>
        <time>2022-08-19T09:43:38.000Z</time>
      </trkpt>
      <trkpt lat="49.79518" lon="4.83723">
        <ele>229</ele>
        <time>2022-08-19T09:43:39.000Z</time>
      </trkpt>
      <trkpt lat="49.79512" lon="4.83721">
        <ele>228</ele>
        <time>2022-08-19T09:43:40.000Z</time>
      </trkpt>
      <trkpt lat="49.79507" lon="4.8372">
        <ele>228</ele>
        <time>2022-08-19T09:43:41.000Z</time>
      </trkpt>
      <trkpt lat="49.79502" lon="4.8372">
        <ele>227</ele>
        <time>2022-08-19T09:43:42.000Z</time>
      </trkpt>
      <trkpt lat="49.79496" lon="4.83719">
        <ele>227</ele>
        <time>2022-08-19T09:43:43.000Z</time>
      </trkpt>
      <trkpt lat="49.79491" lon="4.83716">
        <ele>227</ele>
        <time>2022-08-19T09:43:44.000Z</time>
      </trkpt>
      <trkpt lat="49.79485" lon="4.83714">
        <ele>226</ele>
        <time>2022-08-19T09:43:45.000Z</time>
      </trkpt>
      <trkpt lat="49.79479" lon="4.83713">
        <ele>226</ele>
        <time>2022-08-19T09:43:46.000Z</time>
      </trkpt>
      <trkpt lat="49.79472" lon="4.83712">
        <ele>226</ele>
        <time>2022-08-19T09:43:47.000Z</time>
      </trkpt>
      <trkpt lat="49.79467" lon="4.83712">
        <ele>226</ele>
        <time>2022-08-19T09:43:48.000Z</time>
      </trkpt>
      <trkpt lat="49.79461" lon="4.83711">
        <ele>226</ele>
        <time>2022-08-19T09:43:49.000Z</time>
      </trkpt>
      <trkpt lat="49.79455" lon="4.83709">
        <ele>226</ele>
        <time>2022-08-19T09:43:50.000Z</time>
      </trkpt>
      <trkpt lat="49.79449" lon="4.83706">
        <ele>226</ele>
        <time>2022-08-19T09:43:51.000Z</time>
      </trkpt>
      <trkpt lat="49.79443" lon="4.83705">
        <ele>226</ele>
        <time>2022-08-19T09:43:52.000Z</time>
      </trkpt>
      <trkpt lat="49.79437" lon="4.83704">
        <ele>226</ele>
        <time>2022-08-19T09:43:53.000Z</time>
      </trkpt>
      <trkpt lat="49.79432" lon="4.83703">
        <ele>226</ele>
        <time>2022-08-19T09:43:54.000Z</time>
      </trkpt>
      <trkpt lat="49.79426" lon="4.83702">
        <ele>226</ele>
        <time>2022-08-19T09:43:55.000Z</time>
      </trkpt>
      <trkpt lat="49.7942" lon="4.83701">
        <ele>226</ele>
        <time>2022-08-19T09:43:56.000Z</time>
      </trkpt>
      <trkpt lat="49.79415" lon="4.837">
        <ele>226</ele>
        <time>2022-08-19T09:43:57.000Z</time>
      </trkpt>
      <trkpt lat="49.79409" lon="4.83699">
        <ele>226</ele>
        <time>2022-08-19T09:43:58.000Z</time>
      </trkpt>
      <trkpt lat="49.79403" lon="4.83699">
        <ele>226</ele>
        <time>2022-08-19T09:43:59.000Z</time>
      </trkpt>
      <trkpt lat="49.79397" lon="4.83698">
        <ele>226</ele>
        <time>2022-08-19T09:44:00.000Z</time>
      </trkpt>
      <trkpt lat="49.79391" lon="4.83697">
        <ele>226</ele>
        <time>2022-08-19T09:44:01.000Z</time>
      </trkpt>
      <trkpt lat="49.79384" lon="4.83696">
        <ele>226</ele>
        <time>2022-08-19T09:44:02.000Z</time>
      </trkpt>
      <trkpt lat="49.79378" lon="4.83696">
        <ele>226</ele>
        <time>2022-08-19T09:44:03.000Z</time>
      </trkpt>
      <trkpt lat="49.79373" lon="4.83698">
        <ele>226</ele>
        <time>2022-08-19T09:44:04.000Z</time>
      </trkpt>
      <trkpt lat="49.79367" lon="4.837">
        <ele>226</ele>
        <time>2022-08-19T09:44:05.000Z</time>
      </trkpt>
      <trkpt lat="49.79361" lon="4.83703">
        <ele>226</ele>
        <time>2022-08-19T09:44:06.000Z</time>
      </trkpt>
      <trkpt lat="49.79355" lon="4.83707">
        <ele>225</ele>
        <time>2022-08-19T09:44:07.000Z</time>
      </trkpt>
      <trkpt lat="49.7935" lon="4.83711">
        <ele>225</ele>
        <time>2022-08-19T09:44:08.000Z</time>
      </trkpt>
      <trkpt lat="49.79345" lon="4.83715">
        <ele>224</ele>
        <time>2022-08-19T09:44:09.000Z</time>
      </trkpt>
      <trkpt lat="49.79341" lon="4.8372">
        <ele>224</ele>
        <time>2022-08-19T09:44:10.000Z</time>
      </trkpt>
      <trkpt lat="49.79336" lon="4.83725">
        <ele>223</ele>
        <time>2022-08-19T09:44:11.000Z</time>
      </trkpt>
      <trkpt lat="49.79332" lon="4.8373">
        <ele>223</ele>
        <time>2022-08-19T09:44:12.000Z</time>
      </trkpt>
      <trkpt lat="49.79327" lon="4.83736">
        <ele>223</ele>
        <time>2022-08-19T09:44:13.000Z</time>
      </trkpt>
      <trkpt lat="49.79322" lon="4.83741">
        <ele>222</ele>
        <time>2022-08-19T09:44:14.000Z</time>
      </trkpt>
      <trkpt lat="49.79318" lon="4.83747">
        <ele>222</ele>
        <time>2022-08-19T09:44:15.000Z</time>
      </trkpt>
      <trkpt lat="49.79314" lon="4.83754">
        <ele>222</ele>
        <time>2022-08-19T09:44:16.000Z</time>
      </trkpt>
      <trkpt lat="49.7931" lon="4.83761">
        <ele>222</ele>
        <time>2022-08-19T09:44:17.000Z</time>
      </trkpt>
      <trkpt lat="49.79306" lon="4.83768">
        <ele>221</ele>
        <time>2022-08-19T09:44:18.000Z</time>
      </trkpt>
      <trkpt lat="49.79302" lon="4.83775">
        <ele>221</ele>
        <time>2022-08-19T09:44:19.000Z</time>
      </trkpt>
      <trkpt lat="49.79297" lon="4.83783">
        <ele>221</ele>
        <time>2022-08-19T09:44:20.000Z</time>
      </trkpt>
      <trkpt lat="49.79293" lon="4.8379">
        <ele>221</ele>
        <time>2022-08-19T09:44:21.000Z</time>
      </trkpt>
      <trkpt lat="49.79289" lon="4.83797">
        <ele>221</ele>
        <time>2022-08-19T09:44:22.000Z</time>
      </trkpt>
      <trkpt lat="49.79284" lon="4.83804">
        <ele>220</ele>
        <time>2022-08-19T09:44:23.000Z</time>
      </trkpt>
      <trkpt lat="49.79281" lon="4.83811">
        <ele>220</ele>
        <time>2022-08-19T09:44:24.000Z</time>
      </trkpt>
      <trkpt lat="49.79277" lon="4.83817">
        <ele>220</ele>
        <time>2022-08-19T09:44:25.000Z</time>
      </trkpt>
      <trkpt lat="49.79273" lon="4.83824">
        <ele>219</ele>
        <time>2022-08-19T09:44:26.000Z</time>
      </trkpt>
      <trkpt lat="49.7927" lon="4.83831">
        <ele>219</ele>
        <time>2022-08-19T09:44:27.000Z</time>
      </trkpt>
      <trkpt lat="49.79267" lon="4.83839">
        <ele>219</ele>
        <time>2022-08-19T09:44:28.000Z</time>
      </trkpt>
      <trkpt lat="49.79264" lon="4.83846">
        <ele>219</ele>
        <time>2022-08-19T09:44:29.000Z</time>
      </trkpt>
      <trkpt lat="49.79261" lon="4.83854">
        <ele>218</ele>
        <time>2022-08-19T09:44:30.000Z</time>
      </trkpt>
      <trkpt lat="49.79258" lon="4.83861">
        <ele>218</ele>
        <time>2022-08-19T09:44:31.000Z</time>
      </trkpt>
      <trkpt lat="49.79255" lon="4.83869">
        <ele>218</ele>
        <time>2022-08-19T09:44:32.000Z</time>
      </trkpt>
      <trkpt lat="49.79252" lon="4.83876">
        <ele>217</ele>
        <time>2022-08-19T09:44:33.000Z</time>
      </trkpt>
      <trkpt lat="49.79249" lon="4.83884">
        <ele>217</ele>
        <time>2022-08-19T09:44:34.000Z</time>
      </trkpt>
      <trkpt lat="49.79246" lon="4.83891">
        <ele>217</ele>
        <time>2022-08-19T09:44:35.000Z</time>
      </trkpt>
      <trkpt lat="49.79243" lon="4.83898">
        <ele>217</ele>
        <time>2022-08-19T09:44:36.000Z</time>
      </trkpt>
      <trkpt lat="49.79239" lon="4.83906">
        <ele>217</ele>
        <time>2022-08-19T09:44:37.000Z</time>
      </trkpt>
      <trkpt lat="49.79236" lon="4.83913">
        <ele>216</ele>
        <time>2022-08-19T09:44:38.000Z</time>
      </trkpt>
      <trkpt lat="49.79232" lon="4.8392">
        <ele>216</ele>
        <time>2022-08-19T09:44:39.000Z</time>
      </trkpt>
      <trkpt lat="49.79229" lon="4.83928">
        <ele>216</ele>
        <time>2022-08-19T09:44:40.000Z</time>
      </trkpt>
      <trkpt lat="49.79226" lon="4.83936">
        <ele>216</ele>
        <time>2022-08-19T09:44:41.000Z</time>
      </trkpt>
      <trkpt lat="49.79222" lon="4.83945">
        <ele>216</ele>
        <time>2022-08-19T09:44:42.000Z</time>
      </trkpt>
      <trkpt lat="49.79219" lon="4.83953">
        <ele>216</ele>
        <time>2022-08-19T09:44:43.000Z</time>
      </trkpt>
      <trkpt lat="49.79215" lon="4.83961">
        <ele>216</ele>
        <time>2022-08-19T09:44:44.000Z</time>
      </trkpt>
      <trkpt lat="49.79211" lon="4.83969">
        <ele>216</ele>
        <time>2022-08-19T09:44:45.000Z</time>
      </trkpt>
      <trkpt lat="49.79208" lon="4.83977">
        <ele>215</ele>
        <time>2022-08-19T09:44:46.000Z</time>
      </trkpt>
      <trkpt lat="49.79205" lon="4.83985">
        <ele>215</ele>
        <time>2022-08-19T09:44:47.000Z</time>
      </trkpt>
      <trkpt lat="49.79201" lon="4.83994">
        <ele>215</ele>
        <time>2022-08-19T09:44:48.000Z</time>
      </trkpt>
      <trkpt lat="49.79198" lon="4.84002">
        <ele>215</ele>
        <time>2022-08-19T09:44:49.000Z</time>
      </trkpt>
      <trkpt lat="49.79193" lon="4.8401">
        <ele>215</ele>
        <time>2022-08-19T09:44:50.000Z</time>
      </trkpt>
      <trkpt lat="49.7919" lon="4.84017">
        <ele>215</ele>
        <time>2022-08-19T09:44:51.000Z</time>
      </trkpt>
      <trkpt lat="49.79186" lon="4.84025">
        <ele>215</ele>
        <time>2022-08-19T09:44:52.000Z</time>
      </trkpt>
      <trkpt lat="49.79181" lon="4.84032">
        <ele>215</ele>
        <time>2022-08-19T09:44:53.000Z</time>
      </trkpt>
      <trkpt lat="49.79177" lon="4.84038">
        <ele>215</ele>
        <time>2022-08-19T09:44:54.000Z</time>
      </trkpt>
      <trkpt lat="49.79173" lon="4.84044">
        <ele>215</ele>
        <time>2022-08-19T09:44:55.000Z</time>
      </trkpt>
      <trkpt lat="49.79169" lon="4.84051">
        <ele>215</ele>
        <time>2022-08-19T09:44:56.000Z</time>
      </trkpt>
      <trkpt lat="49.79165" lon="4.84058">
        <ele>214</ele>
        <time>2022-08-19T09:44:57.000Z</time>
      </trkpt>
      <trkpt lat="49.7916" lon="4.84065">
        <ele>214</ele>
        <time>2022-08-19T09:44:58.000Z</time>
      </trkpt>
      <trkpt lat="49.79156" lon="4.84072">
        <ele>214</ele>
        <time>2022-08-19T09:44:59.000Z</time>
      </trkpt>
      <trkpt lat="49.79151" lon="4.84079">
        <ele>214</ele>
        <time>2022-08-19T09:45:00.000Z</time>
      </trkpt>
      <trkpt lat="49.79146" lon="4.84085">
        <ele>214</ele>
        <time>2022-08-19T09:45:01.000Z</time>
      </trkpt>
      <trkpt lat="49.79141" lon="4.84092">
        <ele>214</ele>
        <time>2022-08-19T09:45:02.000Z</time>
      </trkpt>
      <trkpt lat="49.79137" lon="4.84098">
        <ele>214</ele>
        <time>2022-08-19T09:45:03.000Z</time>
      </trkpt>
      <trkpt lat="49.79132" lon="4.84105">
        <ele>214</ele>
        <time>2022-08-19T09:45:04.000Z</time>
      </trkpt>
      <trkpt lat="49.79126" lon="4.84112">
        <ele>214</ele>
        <time>2022-08-19T09:45:05.000Z</time>
      </trkpt>
      <trkpt lat="49.79121" lon="4.84119">
        <ele>214</ele>
        <time>2022-08-19T09:45:06.000Z</time>
      </trkpt>
      <trkpt lat="49.79116" lon="4.84126">
        <ele>214</ele>
        <time>2022-08-19T09:45:07.000Z</time>
      </trkpt>
      <trkpt lat="49.79111" lon="4.84132">
        <ele>214</ele>
        <time>2022-08-19T09:45:08.000Z</time>
      </trkpt>
      <trkpt lat="49.79106" lon="4.84139">
        <ele>213</ele>
        <time>2022-08-19T09:45:09.000Z</time>
      </trkpt>
      <trkpt lat="49.79101" lon="4.84144">
        <ele>213</ele>
        <time>2022-08-19T09:45:10.000Z</time>
      </trkpt>
      <trkpt lat="49.79096" lon="4.84149">
        <ele>213</ele>
        <time>2022-08-19T09:45:11.000Z</time>
      </trkpt>
      <trkpt lat="49.79092" lon="4.84155">
        <ele>213</ele>
        <time>2022-08-19T09:45:12.000Z</time>
      </trkpt>
      <trkpt lat="49.79087" lon="4.84161">
        <ele>213</ele>
        <time>2022-08-19T09:45:13.000Z</time>
      </trkpt>
      <trkpt lat="49.79082" lon="4.84167">
        <ele>213</ele>
        <time>2022-08-19T09:45:14.000Z</time>
      </trkpt>
      <trkpt lat="49.79076" lon="4.84174">
        <ele>213</ele>
        <time>2022-08-19T09:45:15.000Z</time>
      </trkpt>
      <trkpt lat="49.79071" lon="4.8418">
        <ele>212</ele>
        <time>2022-08-19T09:45:16.000Z</time>
      </trkpt>
      <trkpt lat="49.79066" lon="4.84187">
        <ele>212</ele>
        <time>2022-08-19T09:45:17.000Z</time>
      </trkpt>
      <trkpt lat="49.79061" lon="4.84194">
        <ele>212</ele>
        <time>2022-08-19T09:45:18.000Z</time>
      </trkpt>
      <trkpt lat="49.79055" lon="4.84201">
        <ele>212</ele>
        <time>2022-08-19T09:45:19.000Z</time>
      </trkpt>
      <trkpt lat="49.7905" lon="4.84207">
        <ele>212</ele>
        <time>2022-08-19T09:45:20.000Z</time>
      </trkpt>
      <trkpt lat="49.79045" lon="4.84215">
        <ele>212</ele>
        <time>2022-08-19T09:45:21.000Z</time>
      </trkpt>
      <trkpt lat="49.7904" lon="4.84222">
        <ele>212</ele>
        <time>2022-08-19T09:45:22.000Z</time>
      </trkpt>
      <trkpt lat="49.79034" lon="4.84228">
        <ele>211</ele>
        <time>2022-08-19T09:45:23.000Z</time>
      </trkpt>
      <trkpt lat="49.79029" lon="4.84235">
        <ele>211</ele>
        <time>2022-08-19T09:45:24.000Z</time>
      </trkpt>
      <trkpt lat="49.79023" lon="4.84241">
        <ele>211</ele>
        <time>2022-08-19T09:45:25.000Z</time>
      </trkpt>
      <trkpt lat="49.79018" lon="4.84247">
        <ele>211</ele>
        <time>2022-08-19T09:45:26.000Z</time>
      </trkpt>
      <trkpt lat="49.79012" lon="4.84252">
        <ele>211</ele>
        <time>2022-08-19T09:45:27.000Z</time>
      </trkpt>
      <trkpt lat="49.79006" lon="4.84258">
        <ele>211</ele>
        <time>2022-08-19T09:45:28.000Z</time>
      </trkpt>
      <trkpt lat="49.78999" lon="4.84263">
        <ele>211</ele>
        <time>2022-08-19T09:45:29.000Z</time>
      </trkpt>
      <trkpt lat="49.78993" lon="4.84267">
        <ele>211</ele>
        <time>2022-08-19T09:45:30.000Z</time>
      </trkpt>
      <trkpt lat="49.78987" lon="4.84271">
        <ele>212</ele>
        <time>2022-08-19T09:45:31.000Z</time>
      </trkpt>
      <trkpt lat="49.7898" lon="4.84274">
        <ele>212</ele>
        <time>2022-08-19T09:45:32.000Z</time>
      </trkpt>
      <trkpt lat="49.78973" lon="4.84276">
        <ele>212</ele>
        <time>2022-08-19T09:45:33.000Z</time>
      </trkpt>
      <trkpt lat="49.78967" lon="4.84279">
        <ele>212</ele>
        <time>2022-08-19T09:45:34.000Z</time>
      </trkpt>
      <trkpt lat="49.7896" lon="4.84281">
        <ele>212</ele>
        <time>2022-08-19T09:45:35.000Z</time>
      </trkpt>
      <trkpt lat="49.78954" lon="4.84284">
        <ele>212</ele>
        <time>2022-08-19T09:45:36.000Z</time>
      </trkpt>
      <trkpt lat="49.78948" lon="4.84287">
        <ele>212</ele>
        <time>2022-08-19T09:45:37.000Z</time>
      </trkpt>
      <trkpt lat="49.78942" lon="4.8429">
        <ele>213</ele>
        <time>2022-08-19T09:45:38.000Z</time>
      </trkpt>
      <trkpt lat="49.78936" lon="4.84293">
        <ele>213</ele>
        <time>2022-08-19T09:45:39.000Z</time>
      </trkpt>
      <trkpt lat="49.7893" lon="4.84296">
        <ele>213</ele>
        <time>2022-08-19T09:45:40.000Z</time>
      </trkpt>
      <trkpt lat="49.78925" lon="4.84299">
        <ele>213</ele>
        <time>2022-08-19T09:45:41.000Z</time>
      </trkpt>
      <trkpt lat="49.78919" lon="4.84302">
        <ele>213</ele>
        <time>2022-08-19T09:45:42.000Z</time>
      </trkpt>
      <trkpt lat="49.78913" lon="4.84305">
        <ele>213</ele>
        <time>2022-08-19T09:45:43.000Z</time>
      </trkpt>
      <trkpt lat="49.78907" lon="4.84308">
        <ele>214</ele>
        <time>2022-08-19T09:45:44.000Z</time>
      </trkpt>
      <trkpt lat="49.78901" lon="4.84312">
        <ele>214</ele>
        <time>2022-08-19T09:45:45.000Z</time>
      </trkpt>
      <trkpt lat="49.78895" lon="4.84315">
        <ele>214</ele>
        <time>2022-08-19T09:45:46.000Z</time>
      </trkpt>
      <trkpt lat="49.78889" lon="4.84318">
        <ele>214</ele>
        <time>2022-08-19T09:45:47.000Z</time>
      </trkpt>
      <trkpt lat="49.78883" lon="4.84321">
        <ele>214</ele>
        <time>2022-08-19T09:45:48.000Z</time>
      </trkpt>
      <trkpt lat="49.78877" lon="4.84325">
        <ele>214</ele>
        <time>2022-08-19T09:45:49.000Z</time>
      </trkpt>
      <trkpt lat="49.78871" lon="4.84327">
        <ele>214</ele>
        <time>2022-08-19T09:45:50.000Z</time>
      </trkpt>
      <trkpt lat="49.78865" lon="4.84327">
        <ele>214</ele>
        <time>2022-08-19T09:45:51.000Z</time>
      </trkpt>
      <trkpt lat="49.78859" lon="4.84328">
        <ele>214</ele>
        <time>2022-08-19T09:45:52.000Z</time>
      </trkpt>
      <trkpt lat="49.78852" lon="4.84328">
        <ele>214</ele>
        <time>2022-08-19T09:45:53.000Z</time>
      </trkpt>
      <trkpt lat="49.78846" lon="4.84328">
        <ele>214</ele>
        <time>2022-08-19T09:45:54.000Z</time>
      </trkpt>
      <trkpt lat="49.7884" lon="4.84329">
        <ele>214</ele>
        <time>2022-08-19T09:45:55.000Z</time>
      </trkpt>
      <trkpt lat="49.78834" lon="4.84329">
        <ele>213</ele>
        <time>2022-08-19T09:45:56.000Z</time>
      </trkpt>
      <trkpt lat="49.78828" lon="4.84328">
        <ele>213</ele>
        <time>2022-08-19T09:45:57.000Z</time>
      </trkpt>
      <trkpt lat="49.78822" lon="4.84328">
        <ele>213</ele>
        <time>2022-08-19T09:45:58.000Z</time>
      </trkpt>
      <trkpt lat="49.78815" lon="4.84328">
        <ele>213</ele>
        <time>2022-08-19T09:45:59.000Z</time>
      </trkpt>
      <trkpt lat="49.78808" lon="4.84327">
        <ele>213</ele>
        <time>2022-08-19T09:46:00.000Z</time>
      </trkpt>
      <trkpt lat="49.788" lon="4.84327">
        <ele>213</ele>
        <time>2022-08-19T09:46:01.000Z</time>
      </trkpt>
      <trkpt lat="49.78793" lon="4.84328">
        <ele>213</ele>
        <time>2022-08-19T09:46:02.000Z</time>
      </trkpt>
      <trkpt lat="49.78786" lon="4.84328">
        <ele>213</ele>
        <time>2022-08-19T09:46:03.000Z</time>
      </trkpt>
      <trkpt lat="49.78779" lon="4.84327">
        <ele>213</ele>
        <time>2022-08-19T09:46:04.000Z</time>
      </trkpt>
      <trkpt lat="49.78773" lon="4.84327">
        <ele>213</ele>
        <time>2022-08-19T09:46:05.000Z</time>
      </trkpt>
      <trkpt lat="49.78766" lon="4.84327">
        <ele>213</ele>
        <time>2022-08-19T09:46:06.000Z</time>
      </trkpt>
      <trkpt lat="49.78759" lon="4.84326">
        <ele>213</ele>
        <time>2022-08-19T09:46:07.000Z</time>
      </trkpt>
      <trkpt lat="49.78752" lon="4.84326">
        <ele>212</ele>
        <time>2022-08-19T09:46:08.000Z</time>
      </trkpt>
      <trkpt lat="49.78745" lon="4.84326">
        <ele>212</ele>
        <time>2022-08-19T09:46:09.000Z</time>
      </trkpt>
      <trkpt lat="49.78739" lon="4.84326">
        <ele>212</ele>
        <time>2022-08-19T09:46:10.000Z</time>
      </trkpt>
      <trkpt lat="49.78731" lon="4.84326">
        <ele>212</ele>
        <time>2022-08-19T09:46:11.000Z</time>
      </trkpt>
      <trkpt lat="49.78724" lon="4.84326">
        <ele>211</ele>
        <time>2022-08-19T09:46:12.000Z</time>
      </trkpt>
      <trkpt lat="49.78717" lon="4.84325">
        <ele>211</ele>
        <time>2022-08-19T09:46:13.000Z</time>
      </trkpt>
      <trkpt lat="49.78709" lon="4.84325">
        <ele>210</ele>
        <time>2022-08-19T09:46:14.000Z</time>
      </trkpt>
      <trkpt lat="49.78701" lon="4.84325">
        <ele>210</ele>
        <time>2022-08-19T09:46:15.000Z</time>
      </trkpt>
      <trkpt lat="49.78695" lon="4.84326">
        <ele>210</ele>
        <time>2022-08-19T09:46:16.000Z</time>
      </trkpt>
      <trkpt lat="49.78688" lon="4.84325">
        <ele>209</ele>
        <time>2022-08-19T09:46:17.000Z</time>
      </trkpt>
      <trkpt lat="49.78681" lon="4.84325">
        <ele>209</ele>
        <time>2022-08-19T09:46:18.000Z</time>
      </trkpt>
      <trkpt lat="49.78674" lon="4.84324">
        <ele>208</ele>
        <time>2022-08-19T09:46:19.000Z</time>
      </trkpt>
      <trkpt lat="49.78667" lon="4.84324">
        <ele>208</ele>
        <time>2022-08-19T09:46:20.000Z</time>
      </trkpt>
      <trkpt lat="49.7866" lon="4.84323">
        <ele>208</ele>
        <time>2022-08-19T09:46:21.000Z</time>
      </trkpt>
      <trkpt lat="49.78654" lon="4.84323">
        <ele>207</ele>
        <time>2022-08-19T09:46:22.000Z</time>
      </trkpt>
      <trkpt lat="49.78647" lon="4.84323">
        <ele>207</ele>
        <time>2022-08-19T09:46:23.000Z</time>
      </trkpt>
      <trkpt lat="49.7864" lon="4.84323">
        <ele>206</ele>
        <time>2022-08-19T09:46:24.000Z</time>
      </trkpt>
      <trkpt lat="49.78633" lon="4.84323">
        <ele>206</ele>
        <time>2022-08-19T09:46:25.000Z</time>
      </trkpt>
      <trkpt lat="49.78626" lon="4.84322">
        <ele>206</ele>
        <time>2022-08-19T09:46:26.000Z</time>
      </trkpt>
      <trkpt lat="49.78619" lon="4.84322">
        <ele>205</ele>
        <time>2022-08-19T09:46:27.000Z</time>
      </trkpt>
      <trkpt lat="49.78612" lon="4.84322">
        <ele>205</ele>
        <time>2022-08-19T09:46:28.000Z</time>
      </trkpt>
      <trkpt lat="49.78604" lon="4.84322">
        <ele>205</ele>
        <time>2022-08-19T09:46:29.000Z</time>
      </trkpt>
      <trkpt lat="49.78597" lon="4.84322">
        <ele>205</ele>
        <time>2022-08-19T09:46:30.000Z</time>
      </trkpt>
      <trkpt lat="49.7859" lon="4.84321">
        <ele>205</ele>
        <time>2022-08-19T09:46:31.000Z</time>
      </trkpt>
      <trkpt lat="49.78583" lon="4.84321">
        <ele>204</ele>
        <time>2022-08-19T09:46:32.000Z</time>
      </trkpt>
      <trkpt lat="49.78576" lon="4.84321">
        <ele>204</ele>
        <time>2022-08-19T09:46:33.000Z</time>
      </trkpt>
      <trkpt lat="49.78568" lon="4.8432">
        <ele>204</ele>
        <time>2022-08-19T09:46:34.000Z</time>
      </trkpt>
      <trkpt lat="49.78561" lon="4.84319">
        <ele>204</ele>
        <time>2022-08-19T09:46:35.000Z</time>
      </trkpt>
      <trkpt lat="49.78554" lon="4.84318">
        <ele>203</ele>
        <time>2022-08-19T09:46:36.000Z</time>
      </trkpt>
      <trkpt lat="49.78546" lon="4.84317">
        <ele>203</ele>
        <time>2022-08-19T09:46:37.000Z</time>
      </trkpt>
      <trkpt lat="49.78539" lon="4.84316">
        <ele>203</ele>
        <time>2022-08-19T09:46:38.000Z</time>
      </trkpt>
      <trkpt lat="49.78532" lon="4.84316">
        <ele>202</ele>
        <time>2022-08-19T09:46:39.000Z</time>
      </trkpt>
      <trkpt lat="49.78525" lon="4.84315">
        <ele>202</ele>
        <time>2022-08-19T09:46:40.000Z</time>
      </trkpt>
      <trkpt lat="49.78518" lon="4.84314">
        <ele>202</ele>
        <time>2022-08-19T09:46:41.000Z</time>
      </trkpt>
      <trkpt lat="49.78512" lon="4.84313">
        <ele>201</ele>
        <time>2022-08-19T09:46:42.000Z</time>
      </trkpt>
      <trkpt lat="49.78505" lon="4.84313">
        <ele>201</ele>
        <time>2022-08-19T09:46:43.000Z</time>
      </trkpt>
      <trkpt lat="49.78499" lon="4.84313">
        <ele>200</ele>
        <time>2022-08-19T09:46:44.000Z</time>
      </trkpt>
      <trkpt lat="49.78493" lon="4.84312">
        <ele>200</ele>
        <time>2022-08-19T09:46:45.000Z</time>
      </trkpt>
      <trkpt lat="49.78487" lon="4.84312">
        <ele>200</ele>
        <time>2022-08-19T09:46:46.000Z</time>
      </trkpt>
      <trkpt lat="49.78481" lon="4.84311">
        <ele>199</ele>
        <time>2022-08-19T09:46:47.000Z</time>
      </trkpt>
      <trkpt lat="49.78474" lon="4.84311">
        <ele>199</ele>
        <time>2022-08-19T09:46:48.000Z</time>
      </trkpt>
      <trkpt lat="49.78468" lon="4.8431">
        <ele>199</ele>
        <time>2022-08-19T09:46:49.000Z</time>
      </trkpt>
      <trkpt lat="49.78462" lon="4.8431">
        <ele>199</ele>
        <time>2022-08-19T09:46:50.000Z</time>
      </trkpt>
      <trkpt lat="49.78456" lon="4.8431">
        <ele>199</ele>
        <time>2022-08-19T09:46:51.000Z</time>
      </trkpt>
      <trkpt lat="49.78449" lon="4.8431">
        <ele>199</ele>
        <time>2022-08-19T09:46:52.000Z</time>
      </trkpt>
      <trkpt lat="49.78443" lon="4.8431">
        <ele>199</ele>
        <time>2022-08-19T09:46:53.000Z</time>
      </trkpt>
      <trkpt lat="49.78437" lon="4.8431">
        <ele>199</ele>
        <time>2022-08-19T09:46:54.000Z</time>
      </trkpt>
      <trkpt lat="49.78431" lon="4.84312">
        <ele>199</ele>
        <time>2022-08-19T09:46:55.000Z</time>
      </trkpt>
      <trkpt lat="49.78425" lon="4.84315">
        <ele>198</ele>
        <time>2022-08-19T09:46:56.000Z</time>
      </trkpt>
      <trkpt lat="49.78419" lon="4.84319">
        <ele>198</ele>
        <time>2022-08-19T09:46:57.000Z</time>
      </trkpt>
      <trkpt lat="49.78414" lon="4.84323">
        <ele>197</ele>
        <time>2022-08-19T09:46:58.000Z</time>
      </trkpt>
      <trkpt lat="49.78409" lon="4.84328">
        <ele>197</ele>
        <time>2022-08-19T09:46:59.000Z</time>
      </trkpt>
      <trkpt lat="49.78404" lon="4.84332">
        <ele>197</ele>
        <time>2022-08-19T09:47:00.000Z</time>
      </trkpt>
      <trkpt lat="49.78399" lon="4.84336">
        <ele>196</ele>
        <time>2022-08-19T09:47:01.000Z</time>
      </trkpt>
      <trkpt lat="49.78394" lon="4.8434">
        <ele>196</ele>
        <time>2022-08-19T09:47:02.000Z</time>
      </trkpt>
      <trkpt lat="49.78389" lon="4.84344">
        <ele>196</ele>
        <time>2022-08-19T09:47:03.000Z</time>
      </trkpt>
      <trkpt lat="49.78384" lon="4.84347">
        <ele>196</ele>
        <time>2022-08-19T09:47:04.000Z</time>
      </trkpt>
      <trkpt lat="49.78379" lon="4.84349">
        <ele>196</ele>
        <time>2022-08-19T09:47:05.000Z</time>
      </trkpt>
      <trkpt lat="49.78374" lon="4.84349">
        <ele>196</ele>
        <time>2022-08-19T09:47:06.000Z</time>
      </trkpt>
      <trkpt lat="49.78369" lon="4.84347">
        <ele>196</ele>
        <time>2022-08-19T09:47:07.000Z</time>
      </trkpt>
      <trkpt lat="49.78365" lon="4.84346">
        <ele>196</ele>
        <time>2022-08-19T09:47:08.000Z</time>
      </trkpt>
      <trkpt lat="49.7836" lon="4.84344">
        <ele>196</ele>
        <time>2022-08-19T09:47:09.000Z</time>
      </trkpt>
      <trkpt lat="49.78356" lon="4.84342">
        <ele>196</ele>
        <time>2022-08-19T09:47:10.000Z</time>
      </trkpt>
      <trkpt lat="49.78351" lon="4.8434">
        <ele>196</ele>
        <time>2022-08-19T09:47:11.000Z</time>
      </trkpt>
      <trkpt lat="49.78348" lon="4.84336">
        <ele>195</ele>
        <time>2022-08-19T09:47:12.000Z</time>
      </trkpt>
      <trkpt lat="49.78344" lon="4.84334">
        <ele>195</ele>
        <time>2022-08-19T09:47:13.000Z</time>
      </trkpt>
      <trkpt lat="49.7834" lon="4.84331">
        <ele>195</ele>
        <time>2022-08-19T09:47:14.000Z</time>
      </trkpt>
      <trkpt lat="49.78335" lon="4.84328">
        <ele>195</ele>
        <time>2022-08-19T09:47:15.000Z</time>
      </trkpt>
      <trkpt lat="49.7833" lon="4.84324">
        <ele>195</ele>
        <time>2022-08-19T09:47:16.000Z</time>
      </trkpt>
      <trkpt lat="49.78324" lon="4.8432">
        <ele>195</ele>
        <time>2022-08-19T09:47:17.000Z</time>
      </trkpt>
      <trkpt lat="49.78319" lon="4.84317">
        <ele>195</ele>
        <time>2022-08-19T09:47:18.000Z</time>
      </trkpt>
      <trkpt lat="49.78314" lon="4.84313">
        <ele>195</ele>
        <time>2022-08-19T09:47:19.000Z</time>
      </trkpt>
      <trkpt lat="49.78308" lon="4.84309">
        <ele>195</ele>
        <time>2022-08-19T09:47:20.000Z</time>
      </trkpt>
      <trkpt lat="49.78302" lon="4.84305">
        <ele>195</ele>
        <time>2022-08-19T09:47:21.000Z</time>
      </trkpt>
      <trkpt lat="49.78296" lon="4.84301">
        <ele>195</ele>
        <time>2022-08-19T09:47:22.000Z</time>
      </trkpt>
      <trkpt lat="49.7829" lon="4.84297">
        <ele>195</ele>
        <time>2022-08-19T09:47:23.000Z</time>
      </trkpt>
      <trkpt lat="49.78284" lon="4.84293">
        <ele>195</ele>
        <time>2022-08-19T09:47:24.000Z</time>
      </trkpt>
      <trkpt lat="49.78278" lon="4.84289">
        <ele>195</ele>
        <time>2022-08-19T09:47:25.000Z</time>
      </trkpt>
      <trkpt lat="49.78272" lon="4.84284">
        <ele>195</ele>
        <time>2022-08-19T09:47:26.000Z</time>
      </trkpt>
      <trkpt lat="49.78267" lon="4.84281">
        <ele>195</ele>
        <time>2022-08-19T09:47:27.000Z</time>
      </trkpt>
      <trkpt lat="49.78262" lon="4.84276">
        <ele>195</ele>
        <time>2022-08-19T09:47:28.000Z</time>
      </trkpt>
      <trkpt lat="49.78257" lon="4.84271">
        <ele>196</ele>
        <time>2022-08-19T09:47:29.000Z</time>
      </trkpt>
      <trkpt lat="49.78254" lon="4.84267">
        <ele>196</ele>
        <time>2022-08-19T09:47:30.000Z</time>
      </trkpt>
      <trkpt lat="49.78251" lon="4.8426">
        <ele>196</ele>
        <time>2022-08-19T09:47:31.000Z</time>
      </trkpt>
      <trkpt lat="49.78248" lon="4.84253">
        <ele>195</ele>
        <time>2022-08-19T09:47:32.000Z</time>
      </trkpt>
      <trkpt lat="49.78246" lon="4.84246">
        <ele>195</ele>
        <time>2022-08-19T09:47:33.000Z</time>
      </trkpt>
      <trkpt lat="49.78243" lon="4.84238">
        <ele>195</ele>
        <time>2022-08-19T09:47:34.000Z</time>
      </trkpt>
      <trkpt lat="49.78242" lon="4.84232">
        <ele>195</ele>
        <time>2022-08-19T09:47:35.000Z</time>
      </trkpt>
      <trkpt lat="49.7824" lon="4.84224">
        <ele>194</ele>
        <time>2022-08-19T09:47:36.000Z</time>
      </trkpt>
      <trkpt lat="49.78239" lon="4.84218">
        <ele>194</ele>
        <time>2022-08-19T09:47:37.000Z</time>
      </trkpt>
      <trkpt lat="49.78237" lon="4.84212">
        <ele>194</ele>
        <time>2022-08-19T09:47:38.000Z</time>
      </trkpt>
      <trkpt lat="49.78235" lon="4.84207">
        <ele>194</ele>
        <time>2022-08-19T09:47:39.000Z</time>
      </trkpt>
      <trkpt lat="49.78234" lon="4.84203">
        <ele>194</ele>
        <time>2022-08-19T09:47:40.000Z</time>
      </trkpt>
      <trkpt lat="49.78234" lon="4.84199">
        <ele>193</ele>
        <time>2022-08-19T09:47:41.000Z</time>
      </trkpt>
      <trkpt lat="49.78234" lon="4.84195">
        <ele>193</ele>
        <time>2022-08-19T09:47:42.000Z</time>
      </trkpt>
      <trkpt lat="49.78234" lon="4.84192">
        <ele>193</ele>
        <time>2022-08-19T09:47:43.000Z</time>
      </trkpt>
      <trkpt lat="49.78233" lon="4.84189">
        <ele>193</ele>
        <time>2022-08-19T09:47:44.000Z</time>
      </trkpt>
      <trkpt lat="49.78232" lon="4.84186">
        <ele>193</ele>
        <time>2022-08-19T09:47:45.000Z</time>
      </trkpt>
      <trkpt lat="49.7823" lon="4.84182">
        <ele>193</ele>
        <time>2022-08-19T09:47:46.000Z</time>
      </trkpt>
      <trkpt lat="49.78229" lon="4.84177">
        <ele>193</ele>
        <time>2022-08-19T09:47:47.000Z</time>
      </trkpt>
      <trkpt lat="49.78227" lon="4.84174">
        <ele>193</ele>
        <time>2022-08-19T09:47:48.000Z</time>
      </trkpt>
      <trkpt lat="49.78224" lon="4.8417">
        <ele>193</ele>
        <time>2022-08-19T09:47:49.000Z</time>
      </trkpt>
      <trkpt lat="49.78221" lon="4.84165">
        <ele>193</ele>
        <time>2022-08-19T09:47:50.000Z</time>
      </trkpt>
      <trkpt lat="49.78219" lon="4.8416">
        <ele>193</ele>
        <time>2022-08-19T09:47:51.000Z</time>
      </trkpt>
      <trkpt lat="49.78216" lon="4.84156">
        <ele>193</ele>
        <time>2022-08-19T09:47:52.000Z</time>
      </trkpt>
      <trkpt lat="49.78213" lon="4.84151">
        <ele>193</ele>
        <time>2022-08-19T09:47:53.000Z</time>
      </trkpt>
      <trkpt lat="49.78211" lon="4.84147">
        <ele>193</ele>
        <time>2022-08-19T09:47:54.000Z</time>
      </trkpt>
      <trkpt lat="49.78208" lon="4.84142">
        <ele>193</ele>
        <time>2022-08-19T09:47:55.000Z</time>
      </trkpt>
      <trkpt lat="49.78205" lon="4.84138">
        <ele>193</ele>
        <time>2022-08-19T09:47:56.000Z</time>
      </trkpt>
      <trkpt lat="49.78201" lon="4.84135">
        <ele>193</ele>
        <time>2022-08-19T09:47:57.000Z</time>
      </trkpt>
      <trkpt lat="49.78198" lon="4.84132">
        <ele>192</ele>
        <time>2022-08-19T09:47:58.000Z</time>
      </trkpt>
      <trkpt lat="49.78195" lon="4.8413">
        <ele>192</ele>
        <time>2022-08-19T09:47:59.000Z</time>
      </trkpt>
      <trkpt lat="49.78192" lon="4.84128">
        <ele>192</ele>
        <time>2022-08-19T09:48:00.000Z</time>
      </trkpt>
      <trkpt lat="49.78188" lon="4.84125">
        <ele>192</ele>
        <time>2022-08-19T09:48:01.000Z</time>
      </trkpt>
      <trkpt lat="49.78186" lon="4.84123">
        <ele>192</ele>
        <time>2022-08-19T09:48:02.000Z</time>
      </trkpt>
      <trkpt lat="49.78183" lon="4.84121">
        <ele>192</ele>
        <time>2022-08-19T09:48:03.000Z</time>
      </trkpt>
      <trkpt lat="49.7818" lon="4.84119">
        <ele>192</ele>
        <time>2022-08-19T09:48:04.000Z</time>
      </trkpt>
      <trkpt lat="49.78177" lon="4.84117">
        <ele>192</ele>
        <time>2022-08-19T09:48:05.000Z</time>
      </trkpt>
      <trkpt lat="49.78174" lon="4.84115">
        <ele>192</ele>
        <time>2022-08-19T09:48:06.000Z</time>
      </trkpt>
      <trkpt lat="49.78171" lon="4.84112">
        <ele>192</ele>
        <time>2022-08-19T09:48:07.000Z</time>
      </trkpt>
      <trkpt lat="49.78168" lon="4.8411">
        <ele>192</ele>
        <time>2022-08-19T09:48:08.000Z</time>
      </trkpt>
      <trkpt lat="49.78165" lon="4.84107">
        <ele>192</ele>
        <time>2022-08-19T09:48:09.000Z</time>
      </trkpt>
      <trkpt lat="49.78162" lon="4.84106">
        <ele>192</ele>
        <time>2022-08-19T09:48:10.000Z</time>
      </trkpt>
      <trkpt lat="49.78159" lon="4.84105">
        <ele>193</ele>
        <time>2022-08-19T09:48:11.000Z</time>
      </trkpt>
      <trkpt lat="49.78156" lon="4.84103">
        <ele>193</ele>
        <time>2022-08-19T09:48:12.000Z</time>
      </trkpt>
      <trkpt lat="49.78152" lon="4.84101">
        <ele>193</ele>
        <time>2022-08-19T09:48:13.000Z</time>
      </trkpt>
      <trkpt lat="49.78149" lon="4.84099">
        <ele>193</ele>
        <time>2022-08-19T09:48:14.000Z</time>
      </trkpt>
      <trkpt lat="49.78146" lon="4.84097">
        <ele>193</ele>
        <time>2022-08-19T09:48:15.000Z</time>
      </trkpt>
      <trkpt lat="49.78143" lon="4.84095">
        <ele>193</ele>
        <time>2022-08-19T09:48:16.000Z</time>
      </trkpt>
      <trkpt lat="49.78139" lon="4.84094">
        <ele>193</ele>
        <time>2022-08-19T09:48:17.000Z</time>
      </trkpt>
      <trkpt lat="49.78136" lon="4.84092">
        <ele>194</ele>
        <time>2022-08-19T09:48:18.000Z</time>
      </trkpt>
      <trkpt lat="49.78132" lon="4.8409">
        <ele>194</ele>
        <time>2022-08-19T09:48:19.000Z</time>
      </trkpt>
      <trkpt lat="49.78129" lon="4.84088">
        <ele>194</ele>
        <time>2022-08-19T09:48:20.000Z</time>
      </trkpt>
      <trkpt lat="49.78126" lon="4.84087">
        <ele>194</ele>
        <time>2022-08-19T09:48:21.000Z</time>
      </trkpt>
      <trkpt lat="49.78122" lon="4.84085">
        <ele>194</ele>
        <time>2022-08-19T09:48:22.000Z</time>
      </trkpt>
      <trkpt lat="49.78119" lon="4.84083">
        <ele>194</ele>
        <time>2022-08-19T09:48:23.000Z</time>
      </trkpt>
      <trkpt lat="49.78116" lon="4.84081">
        <ele>194</ele>
        <time>2022-08-19T09:48:24.000Z</time>
      </trkpt>
      <trkpt lat="49.78113" lon="4.84078">
        <ele>194</ele>
        <time>2022-08-19T09:48:25.000Z</time>
      </trkpt>
      <trkpt lat="49.78109" lon="4.84076">
        <ele>194</ele>
        <time>2022-08-19T09:48:26.000Z</time>
      </trkpt>
      <trkpt lat="49.78106" lon="4.84074">
        <ele>194</ele>
        <time>2022-08-19T09:48:27.000Z</time>
      </trkpt>
      <trkpt lat="49.78102" lon="4.84072">
        <ele>194</ele>
        <time>2022-08-19T09:48:28.000Z</time>
      </trkpt>
      <trkpt lat="49.78099" lon="4.84069">
        <ele>194</ele>
        <time>2022-08-19T09:48:29.000Z</time>
      </trkpt>
      <trkpt lat="49.78095" lon="4.84067">
        <ele>195</ele>
        <time>2022-08-19T09:48:30.000Z</time>
      </trkpt>
      <trkpt lat="49.78091" lon="4.84066">
        <ele>195</ele>
        <time>2022-08-19T09:48:31.000Z</time>
      </trkpt>
      <trkpt lat="49.78088" lon="4.84064">
        <ele>195</ele>
        <time>2022-08-19T09:48:32.000Z</time>
      </trkpt>
      <trkpt lat="49.78085" lon="4.84063">
        <ele>195</ele>
        <time>2022-08-19T09:48:33.000Z</time>
      </trkpt>
      <trkpt lat="49.78082" lon="4.84061">
        <ele>195</ele>
        <time>2022-08-19T09:48:34.000Z</time>
      </trkpt>
      <trkpt lat="49.78078" lon="4.84058">
        <ele>195</ele>
        <time>2022-08-19T09:48:35.000Z</time>
      </trkpt>
      <trkpt lat="49.78075" lon="4.84057">
        <ele>195</ele>
        <time>2022-08-19T09:48:36.000Z</time>
      </trkpt>
      <trkpt lat="49.78072" lon="4.84055">
        <ele>195</ele>
        <time>2022-08-19T09:48:37.000Z</time>
      </trkpt>
      <trkpt lat="49.78068" lon="4.84053">
        <ele>195</ele>
        <time>2022-08-19T09:48:38.000Z</time>
      </trkpt>
      <trkpt lat="49.78065" lon="4.84051">
        <ele>196</ele>
        <time>2022-08-19T09:48:39.000Z</time>
      </trkpt>
      <trkpt lat="49.78061" lon="4.84049">
        <ele>196</ele>
        <time>2022-08-19T09:48:40.000Z</time>
      </trkpt>
      <trkpt lat="49.78058" lon="4.84047">
        <ele>196</ele>
        <time>2022-08-19T09:48:41.000Z</time>
      </trkpt>
      <trkpt lat="49.78055" lon="4.84045">
        <ele>196</ele>
        <time>2022-08-19T09:48:42.000Z</time>
      </trkpt>
      <trkpt lat="49.78052" lon="4.84043">
        <ele>196</ele>
        <time>2022-08-19T09:48:43.000Z</time>
      </trkpt>
      <trkpt lat="49.78049" lon="4.84042">
        <ele>196</ele>
        <time>2022-08-19T09:48:44.000Z</time>
      </trkpt>
      <trkpt lat="49.78045" lon="4.8404">
        <ele>197</ele>
        <time>2022-08-19T09:48:45.000Z</time>
      </trkpt>
      <trkpt lat="49.78043" lon="4.84038">
        <ele>197</ele>
        <time>2022-08-19T09:48:46.000Z</time>
      </trkpt>
      <trkpt lat="49.7804" lon="4.84036">
        <ele>197</ele>
        <time>2022-08-19T09:48:47.000Z</time>
      </trkpt>
      <trkpt lat="49.78037" lon="4.84034">
        <ele>197</ele>
        <time>2022-08-19T09:48:48.000Z</time>
      </trkpt>
      <trkpt lat="49.78035" lon="4.84033">
        <ele>197</ele>
        <time>2022-08-19T09:48:49.000Z</time>
      </trkpt>
      <trkpt lat="49.78033" lon="4.8403">
        <ele>197</ele>
        <time>2022-08-19T09:48:50.000Z</time>
      </trkpt>
      <trkpt lat="49.7803" lon="4.84028">
        <ele>198</ele>
        <time>2022-08-19T09:48:51.000Z</time>
      </trkpt>
      <trkpt lat="49.78027" lon="4.84025">
        <ele>198</ele>
        <time>2022-08-19T09:48:52.000Z</time>
      </trkpt>
      <trkpt lat="49.78024" lon="4.84022">
        <ele>198</ele>
        <time>2022-08-19T09:48:53.000Z</time>
      </trkpt>
      <trkpt lat="49.78021" lon="4.84019">
        <ele>198</ele>
        <time>2022-08-19T09:48:54.000Z</time>
      </trkpt>
      <trkpt lat="49.78018" lon="4.84017">
        <ele>198</ele>
        <time>2022-08-19T09:48:55.000Z</time>
      </trkpt>
      <trkpt lat="49.78014" lon="4.84014">
        <ele>198</ele>
        <time>2022-08-19T09:48:56.000Z</time>
      </trkpt>
      <trkpt lat="49.78011" lon="4.84011">
        <ele>198</ele>
        <time>2022-08-19T09:48:57.000Z</time>
      </trkpt>
      <trkpt lat="49.78007" lon="4.84007">
        <ele>198</ele>
        <time>2022-08-19T09:48:58.000Z</time>
      </trkpt>
      <trkpt lat="49.78004" lon="4.84003">
        <ele>198</ele>
        <time>2022-08-19T09:48:59.000Z</time>
      </trkpt>
      <trkpt lat="49.78001" lon="4.84">
        <ele>198</ele>
        <time>2022-08-19T09:49:00.000Z</time>
      </trkpt>
      <trkpt lat="49.77997" lon="4.83996">
        <ele>198</ele>
        <time>2022-08-19T09:49:01.000Z</time>
      </trkpt>
      <trkpt lat="49.77993" lon="4.83991">
        <ele>198</ele>
        <time>2022-08-19T09:49:02.000Z</time>
      </trkpt>
      <trkpt lat="49.7799" lon="4.83986">
        <ele>198</ele>
        <time>2022-08-19T09:49:03.000Z</time>
      </trkpt>
      <trkpt lat="49.77986" lon="4.83982">
        <ele>198</ele>
        <time>2022-08-19T09:49:04.000Z</time>
      </trkpt>
      <trkpt lat="49.77983" lon="4.83977">
        <ele>198</ele>
        <time>2022-08-19T09:49:05.000Z</time>
      </trkpt>
      <trkpt lat="49.77979" lon="4.83971">
        <ele>198</ele>
        <time>2022-08-19T09:49:06.000Z</time>
      </trkpt>
      <trkpt lat="49.77976" lon="4.83967">
        <ele>198</ele>
        <time>2022-08-19T09:49:07.000Z</time>
      </trkpt>
      <trkpt lat="49.77973" lon="4.83962">
        <ele>197</ele>
        <time>2022-08-19T09:49:08.000Z</time>
      </trkpt>
      <trkpt lat="49.77969" lon="4.83957">
        <ele>197</ele>
        <time>2022-08-19T09:49:09.000Z</time>
      </trkpt>
      <trkpt lat="49.77966" lon="4.83952">
        <ele>197</ele>
        <time>2022-08-19T09:49:10.000Z</time>
      </trkpt>
      <trkpt lat="49.77963" lon="4.83948">
        <ele>197</ele>
        <time>2022-08-19T09:49:11.000Z</time>
      </trkpt>
      <trkpt lat="49.7796" lon="4.83944">
        <ele>197</ele>
        <time>2022-08-19T09:49:12.000Z</time>
      </trkpt>
      <trkpt lat="49.77956" lon="4.83939">
        <ele>197</ele>
        <time>2022-08-19T09:49:13.000Z</time>
      </trkpt>
      <trkpt lat="49.77953" lon="4.83935">
        <ele>197</ele>
        <time>2022-08-19T09:49:14.000Z</time>
      </trkpt>
      <trkpt lat="49.77949" lon="4.83931">
        <ele>197</ele>
        <time>2022-08-19T09:49:15.000Z</time>
      </trkpt>
      <trkpt lat="49.77946" lon="4.83927">
        <ele>197</ele>
        <time>2022-08-19T09:49:16.000Z</time>
      </trkpt>
      <trkpt lat="49.77943" lon="4.83922">
        <ele>197</ele>
        <time>2022-08-19T09:49:17.000Z</time>
      </trkpt>
      <trkpt lat="49.7794" lon="4.83918">
        <ele>197</ele>
        <time>2022-08-19T09:49:18.000Z</time>
      </trkpt>
      <trkpt lat="49.77936" lon="4.83914">
        <ele>197</ele>
        <time>2022-08-19T09:49:19.000Z</time>
      </trkpt>
      <trkpt lat="49.77933" lon="4.8391">
        <ele>197</ele>
        <time>2022-08-19T09:49:20.000Z</time>
      </trkpt>
      <trkpt lat="49.7793" lon="4.83906">
        <ele>197</ele>
        <time>2022-08-19T09:49:21.000Z</time>
      </trkpt>
      <trkpt lat="49.77927" lon="4.83901">
        <ele>196</ele>
        <time>2022-08-19T09:49:22.000Z</time>
      </trkpt>
      <trkpt lat="49.77923" lon="4.83897">
        <ele>196</ele>
        <time>2022-08-19T09:49:23.000Z</time>
      </trkpt>
      <trkpt lat="49.7792" lon="4.83893">
        <ele>196</ele>
        <time>2022-08-19T09:49:24.000Z</time>
      </trkpt>
      <trkpt lat="49.77917" lon="4.83889">
        <ele>196</ele>
        <time>2022-08-19T09:49:25.000Z</time>
      </trkpt>
      <trkpt lat="49.77914" lon="4.83885">
        <ele>196</ele>
        <time>2022-08-19T09:49:26.000Z</time>
      </trkpt>
      <trkpt lat="49.77911" lon="4.83881">
        <ele>196</ele>
        <time>2022-08-19T09:49:27.000Z</time>
      </trkpt>
      <trkpt lat="49.77908" lon="4.83877">
        <ele>196</ele>
        <time>2022-08-19T09:49:28.000Z</time>
      </trkpt>
      <trkpt lat="49.77905" lon="4.83873">
        <ele>196</ele>
        <time>2022-08-19T09:49:29.000Z</time>
      </trkpt>
      <trkpt lat="49.77902" lon="4.83869">
        <ele>196</ele>
        <time>2022-08-19T09:49:30.000Z</time>
      </trkpt>
      <trkpt lat="49.77899" lon="4.83865">
        <ele>196</ele>
        <time>2022-08-19T09:49:31.000Z</time>
      </trkpt>
      <trkpt lat="49.77896" lon="4.8386">
        <ele>196</ele>
        <time>2022-08-19T09:49:32.000Z</time>
      </trkpt>
      <trkpt lat="49.77892" lon="4.83856">
        <ele>196</ele>
        <time>2022-08-19T09:49:33.000Z</time>
      </trkpt>
      <trkpt lat="49.77889" lon="4.83852">
        <ele>195</ele>
        <time>2022-08-19T09:49:34.000Z</time>
      </trkpt>
      <trkpt lat="49.77886" lon="4.83848">
        <ele>196</ele>
        <time>2022-08-19T09:49:35.000Z</time>
      </trkpt>
      <trkpt lat="49.77883" lon="4.83844">
        <ele>196</ele>
        <time>2022-08-19T09:49:36.000Z</time>
      </trkpt>
      <trkpt lat="49.7788" lon="4.8384">
        <ele>196</ele>
        <time>2022-08-19T09:49:37.000Z</time>
      </trkpt>
      <trkpt lat="49.77877" lon="4.83836">
        <ele>196</ele>
        <time>2022-08-19T09:49:38.000Z</time>
      </trkpt>
      <trkpt lat="49.77875" lon="4.83832">
        <ele>196</ele>
        <time>2022-08-19T09:49:39.000Z</time>
      </trkpt>
      <trkpt lat="49.77872" lon="4.83828">
        <ele>196</ele>
        <time>2022-08-19T09:49:40.000Z</time>
      </trkpt>
      <trkpt lat="49.77869" lon="4.83825">
        <ele>196</ele>
        <time>2022-08-19T09:49:41.000Z</time>
      </trkpt>
      <trkpt lat="49.77867" lon="4.83823">
        <ele>196</ele>
        <time>2022-08-19T09:49:42.000Z</time>
      </trkpt>
      <trkpt lat="49.77864" lon="4.83822">
        <ele>196</ele>
        <time>2022-08-19T09:49:43.000Z</time>
      </trkpt>
      <trkpt lat="49.77861" lon="4.83823">
        <ele>196</ele>
        <time>2022-08-19T09:49:44.000Z</time>
      </trkpt>
      <trkpt lat="49.77859" lon="4.83824">
        <ele>196</ele>
        <time>2022-08-19T09:49:45.000Z</time>
      </trkpt>
      <trkpt lat="49.77856" lon="4.83824">
        <ele>196</ele>
        <time>2022-08-19T09:49:46.000Z</time>
      </trkpt>
      <trkpt lat="49.77854" lon="4.83825">
        <ele>196</ele>
        <time>2022-08-19T09:49:47.000Z</time>
      </trkpt>
      <trkpt lat="49.77852" lon="4.83825">
        <ele>196</ele>
        <time>2022-08-19T09:49:48.000Z</time>
      </trkpt>
      <trkpt lat="49.77849" lon="4.83825">
        <ele>197</ele>
        <time>2022-08-19T09:49:49.000Z</time>
      </trkpt>
      <trkpt lat="49.77847" lon="4.83824">
        <ele>197</ele>
        <time>2022-08-19T09:49:50.000Z</time>
      </trkpt>
      <trkpt lat="49.77844" lon="4.83824">
        <ele>197</ele>
        <time>2022-08-19T09:49:51.000Z</time>
      </trkpt>
      <trkpt lat="49.77842" lon="4.83824">
        <ele>197</ele>
        <time>2022-08-19T09:49:52.000Z</time>
      </trkpt>
      <trkpt lat="49.7784" lon="4.83825">
        <ele>197</ele>
        <time>2022-08-19T09:49:53.000Z</time>
      </trkpt>
      <trkpt lat="49.77838" lon="4.83825">
        <ele>198</ele>
        <time>2022-08-19T09:49:54.000Z</time>
      </trkpt>
      <trkpt lat="49.77837" lon="4.83825">
        <ele>198</ele>
        <time>2022-08-19T09:49:55.000Z</time>
      </trkpt>
      <trkpt lat="49.77835" lon="4.83824">
        <ele>198</ele>
        <time>2022-08-19T09:49:56.000Z</time>
      </trkpt>
      <trkpt lat="49.77833" lon="4.83823">
        <ele>198</ele>
        <time>2022-08-19T09:49:57.000Z</time>
      </trkpt>
      <trkpt lat="49.77831" lon="4.83823">
        <ele>199</ele>
        <time>2022-08-19T09:49:58.000Z</time>
      </trkpt>
      <trkpt lat="49.77829" lon="4.83823">
        <ele>199</ele>
        <time>2022-08-19T09:49:59.000Z</time>
      </trkpt>
      <trkpt lat="49.77828" lon="4.83823">
        <ele>199</ele>
        <time>2022-08-19T09:50:00.000Z</time>
      </trkpt>
      <trkpt lat="49.77826" lon="4.83823">
        <ele>200</ele>
        <time>2022-08-19T09:50:01.000Z</time>
      </trkpt>
      <trkpt lat="49.77823" lon="4.83823">
        <ele>200</ele>
        <time>2022-08-19T09:50:02.000Z</time>
      </trkpt>
      <trkpt lat="49.77822" lon="4.83823">
        <ele>200</ele>
        <time>2022-08-19T09:50:03.000Z</time>
      </trkpt>
      <trkpt lat="49.7782" lon="4.83823">
        <ele>201</ele>
        <time>2022-08-19T09:50:04.000Z</time>
      </trkpt>
      <trkpt lat="49.77818" lon="4.83822">
        <ele>201</ele>
        <time>2022-08-19T09:50:05.000Z</time>
      </trkpt>
      <trkpt lat="49.77815" lon="4.83822">
        <ele>201</ele>
        <time>2022-08-19T09:50:06.000Z</time>
      </trkpt>
      <trkpt lat="49.77814" lon="4.83822">
        <ele>202</ele>
        <time>2022-08-19T09:50:07.000Z</time>
      </trkpt>
      <trkpt lat="49.77811" lon="4.83821">
        <ele>202</ele>
        <time>2022-08-19T09:50:08.000Z</time>
      </trkpt>
      <trkpt lat="49.77809" lon="4.8382">
        <ele>203</ele>
        <time>2022-08-19T09:50:09.000Z</time>
      </trkpt>
      <trkpt lat="49.77807" lon="4.83818">
        <ele>203</ele>
        <time>2022-08-19T09:50:10.000Z</time>
      </trkpt>
      <trkpt lat="49.77805" lon="4.83817">
        <ele>204</ele>
        <time>2022-08-19T09:50:11.000Z</time>
      </trkpt>
      <trkpt lat="49.77803" lon="4.83816">
        <ele>204</ele>
        <time>2022-08-19T09:50:12.000Z</time>
      </trkpt>
      <trkpt lat="49.77801" lon="4.83816">
        <ele>205</ele>
        <time>2022-08-19T09:50:13.000Z</time>
      </trkpt>
      <trkpt lat="49.77798" lon="4.83815">
        <ele>205</ele>
        <time>2022-08-19T09:50:14.000Z</time>
      </trkpt>
      <trkpt lat="49.77796" lon="4.83814">
        <ele>206</ele>
        <time>2022-08-19T09:50:15.000Z</time>
      </trkpt>
      <trkpt lat="49.77794" lon="4.83813">
        <ele>206</ele>
        <time>2022-08-19T09:50:16.000Z</time>
      </trkpt>
      <trkpt lat="49.77791" lon="4.83813">
        <ele>207</ele>
        <time>2022-08-19T09:50:17.000Z</time>
      </trkpt>
      <trkpt lat="49.77789" lon="4.83812">
        <ele>207</ele>
        <time>2022-08-19T09:50:18.000Z</time>
      </trkpt>
      <trkpt lat="49.77787" lon="4.83811">
        <ele>208</ele>
        <time>2022-08-19T09:50:19.000Z</time>
      </trkpt>
      <trkpt lat="49.77786" lon="4.83811">
        <ele>209</ele>
        <time>2022-08-19T09:50:20.000Z</time>
      </trkpt>
      <trkpt lat="49.77784" lon="4.83811">
        <ele>209</ele>
        <time>2022-08-19T09:50:21.000Z</time>
      </trkpt>
      <trkpt lat="49.77782" lon="4.83811">
        <ele>210</ele>
        <time>2022-08-19T09:50:22.000Z</time>
      </trkpt>
      <trkpt lat="49.77779" lon="4.8381">
        <ele>210</ele>
        <time>2022-08-19T09:50:23.000Z</time>
      </trkpt>
      <trkpt lat="49.77777" lon="4.83809">
        <ele>210</ele>
        <time>2022-08-19T09:50:24.000Z</time>
      </trkpt>
      <trkpt lat="49.77774" lon="4.83809">
        <ele>211</ele>
        <time>2022-08-19T09:50:25.000Z</time>
      </trkpt>
      <trkpt lat="49.77772" lon="4.83808">
        <ele>211</ele>
        <time>2022-08-19T09:50:26.000Z</time>
      </trkpt>
      <trkpt lat="49.7777" lon="4.83808">
        <ele>212</ele>
        <time>2022-08-19T09:50:27.000Z</time>
      </trkpt>
      <trkpt lat="49.77768" lon="4.83808">
        <ele>213</ele>
        <time>2022-08-19T09:50:28.000Z</time>
      </trkpt>
      <trkpt lat="49.77766" lon="4.83807">
        <ele>213</ele>
        <time>2022-08-19T09:50:29.000Z</time>
      </trkpt>
      <trkpt lat="49.77764" lon="4.83807">
        <ele>214</ele>
        <time>2022-08-19T09:50:30.000Z</time>
      </trkpt>
      <trkpt lat="49.77762" lon="4.83807">
        <ele>214</ele>
        <time>2022-08-19T09:50:31.000Z</time>
      </trkpt>
      <trkpt lat="49.77761" lon="4.83806">
        <ele>215</ele>
        <time>2022-08-19T09:50:32.000Z</time>
      </trkpt>
      <trkpt lat="49.77759" lon="4.83806">
        <ele>216</ele>
        <time>2022-08-19T09:50:33.000Z</time>
      </trkpt>
      <trkpt lat="49.77758" lon="4.83806">
        <ele>216</ele>
        <time>2022-08-19T09:50:34.000Z</time>
      </trkpt>
      <trkpt lat="49.77755" lon="4.83806">
        <ele>217</ele>
        <time>2022-08-19T09:50:35.000Z</time>
      </trkpt>
      <trkpt lat="49.77752" lon="4.83806">
        <ele>218</ele>
        <time>2022-08-19T09:50:36.000Z</time>
      </trkpt>
      <trkpt lat="49.7775" lon="4.83806">
        <ele>218</ele>
        <time>2022-08-19T09:50:37.000Z</time>
      </trkpt>
      <trkpt lat="49.77747" lon="4.83805">
        <ele>219</ele>
        <time>2022-08-19T09:50:38.000Z</time>
      </trkpt>
      <trkpt lat="49.77745" lon="4.83804">
        <ele>219</ele>
        <time>2022-08-19T09:50:39.000Z</time>
      </trkpt>
      <trkpt lat="49.77744" lon="4.83804">
        <ele>220</ele>
        <time>2022-08-19T09:50:40.000Z</time>
      </trkpt>
      <trkpt lat="49.77742" lon="4.83803">
        <ele>220</ele>
        <time>2022-08-19T09:50:41.000Z</time>
      </trkpt>
      <trkpt lat="49.7774" lon="4.83803">
        <ele>220</ele>
        <time>2022-08-19T09:50:42.000Z</time>
      </trkpt>
      <trkpt lat="49.77737" lon="4.83802">
        <ele>221</ele>
        <time>2022-08-19T09:50:43.000Z</time>
      </trkpt>
      <trkpt lat="49.77735" lon="4.83802">
        <ele>221</ele>
        <time>2022-08-19T09:50:44.000Z</time>
      </trkpt>
      <trkpt lat="49.77733" lon="4.83802">
        <ele>221</ele>
        <time>2022-08-19T09:50:45.000Z</time>
      </trkpt>
      <trkpt lat="49.77731" lon="4.83801">
        <ele>222</ele>
        <time>2022-08-19T09:50:46.000Z</time>
      </trkpt>
      <trkpt lat="49.77729" lon="4.838">
        <ele>222</ele>
        <time>2022-08-19T09:50:47.000Z</time>
      </trkpt>
      <trkpt lat="49.77727" lon="4.838">
        <ele>223</ele>
        <time>2022-08-19T09:50:48.000Z</time>
      </trkpt>
      <trkpt lat="49.77724" lon="4.83799">
        <ele>223</ele>
        <time>2022-08-19T09:50:49.000Z</time>
      </trkpt>
      <trkpt lat="49.77722" lon="4.83799">
        <ele>223</ele>
        <time>2022-08-19T09:50:50.000Z</time>
      </trkpt>
      <trkpt lat="49.7772" lon="4.83797">
        <ele>224</ele>
        <time>2022-08-19T09:50:51.000Z</time>
      </trkpt>
      <trkpt lat="49.77717" lon="4.83796">
        <ele>224</ele>
        <time>2022-08-19T09:50:52.000Z</time>
      </trkpt>
      <trkpt lat="49.77716" lon="4.83795">
        <ele>224</ele>
        <time>2022-08-19T09:50:53.000Z</time>
      </trkpt>
      <trkpt lat="49.77715" lon="4.83793">
        <ele>224</ele>
        <time>2022-08-19T09:50:54.000Z</time>
      </trkpt>
      <trkpt lat="49.77713" lon="4.83792">
        <ele>225</ele>
        <time>2022-08-19T09:50:55.000Z</time>
      </trkpt>
      <trkpt lat="49.77712" lon="4.83789">
        <ele>225</ele>
        <time>2022-08-19T09:50:56.000Z</time>
      </trkpt>
      <trkpt lat="49.7771" lon="4.83785">
        <ele>225</ele>
        <time>2022-08-19T09:50:57.000Z</time>
      </trkpt>
      <trkpt lat="49.77708" lon="4.8378">
        <ele>225</ele>
        <time>2022-08-19T09:50:58.000Z</time>
      </trkpt>
      <trkpt lat="49.77707" lon="4.83774">
        <ele>225</ele>
        <time>2022-08-19T09:50:59.000Z</time>
      </trkpt>
      <trkpt lat="49.77705" lon="4.83769">
        <ele>225</ele>
        <time>2022-08-19T09:51:00.000Z</time>
      </trkpt>
      <trkpt lat="49.77703" lon="4.83764">
        <ele>225</ele>
        <time>2022-08-19T09:51:01.000Z</time>
      </trkpt>
      <trkpt lat="49.77701" lon="4.8376">
        <ele>225</ele>
        <time>2022-08-19T09:51:02.000Z</time>
      </trkpt>
      <trkpt lat="49.777" lon="4.83755">
        <ele>225</ele>
        <time>2022-08-19T09:51:03.000Z</time>
      </trkpt>
      <trkpt lat="49.77698" lon="4.83751">
        <ele>225</ele>
        <time>2022-08-19T09:51:04.000Z</time>
      </trkpt>
      <trkpt lat="49.77697" lon="4.83747">
        <ele>224</ele>
        <time>2022-08-19T09:51:05.000Z</time>
      </trkpt>
      <trkpt lat="49.77696" lon="4.83744">
        <ele>224</ele>
        <time>2022-08-19T09:51:06.000Z</time>
      </trkpt>
      <trkpt lat="49.77694" lon="4.8374">
        <ele>224</ele>
        <time>2022-08-19T09:51:07.000Z</time>
      </trkpt>
      <trkpt lat="49.77693" lon="4.83735">
        <ele>224</ele>
        <time>2022-08-19T09:51:08.000Z</time>
      </trkpt>
      <trkpt lat="49.77692" lon="4.83729">
        <ele>224</ele>
        <time>2022-08-19T09:51:09.000Z</time>
      </trkpt>
      <trkpt lat="49.77691" lon="4.83724">
        <ele>224</ele>
        <time>2022-08-19T09:51:10.000Z</time>
      </trkpt>
      <trkpt lat="49.7769" lon="4.83719">
        <ele>224</ele>
        <time>2022-08-19T09:51:11.000Z</time>
      </trkpt>
      <trkpt lat="49.77688" lon="4.83713">
        <ele>224</ele>
        <time>2022-08-19T09:51:12.000Z</time>
      </trkpt>
      <trkpt lat="49.77686" lon="4.83707">
        <ele>224</ele>
        <time>2022-08-19T09:51:13.000Z</time>
      </trkpt>
      <trkpt lat="49.77685" lon="4.83701">
        <ele>224</ele>
        <time>2022-08-19T09:51:14.000Z</time>
      </trkpt>
      <trkpt lat="49.77683" lon="4.83695">
        <ele>224</ele>
        <time>2022-08-19T09:51:15.000Z</time>
      </trkpt>
      <trkpt lat="49.77681" lon="4.83689">
        <ele>224</ele>
        <time>2022-08-19T09:51:16.000Z</time>
      </trkpt>
      <trkpt lat="49.7768" lon="4.83684">
        <ele>224</ele>
        <time>2022-08-19T09:51:17.000Z</time>
      </trkpt>
      <trkpt lat="49.77679" lon="4.8368">
        <ele>224</ele>
        <time>2022-08-19T09:51:18.000Z</time>
      </trkpt>
      <trkpt lat="49.77678" lon="4.83675">
        <ele>224</ele>
        <time>2022-08-19T09:51:19.000Z</time>
      </trkpt>
      <trkpt lat="49.77677" lon="4.8367">
        <ele>224</ele>
        <time>2022-08-19T09:51:20.000Z</time>
      </trkpt>
      <trkpt lat="49.77676" lon="4.83666">
        <ele>223</ele>
        <time>2022-08-19T09:51:21.000Z</time>
      </trkpt>
      <trkpt lat="49.77675" lon="4.83662">
        <ele>223</ele>
        <time>2022-08-19T09:51:22.000Z</time>
      </trkpt>
      <trkpt lat="49.77674" lon="4.83657">
        <ele>223</ele>
        <time>2022-08-19T09:51:23.000Z</time>
      </trkpt>
      <trkpt lat="49.77672" lon="4.83652">
        <ele>223</ele>
        <time>2022-08-19T09:51:24.000Z</time>
      </trkpt>
      <trkpt lat="49.77671" lon="4.83648">
        <ele>223</ele>
        <time>2022-08-19T09:51:25.000Z</time>
      </trkpt>
      <trkpt lat="49.7767" lon="4.83644">
        <ele>223</ele>
        <time>2022-08-19T09:51:26.000Z</time>
      </trkpt>
      <trkpt lat="49.77669" lon="4.83639">
        <ele>223</ele>
        <time>2022-08-19T09:51:27.000Z</time>
      </trkpt>
      <trkpt lat="49.77668" lon="4.83634">
        <ele>222</ele>
        <time>2022-08-19T09:51:28.000Z</time>
      </trkpt>
      <trkpt lat="49.77667" lon="4.83629">
        <ele>222</ele>
        <time>2022-08-19T09:51:29.000Z</time>
      </trkpt>
      <trkpt lat="49.77665" lon="4.83625">
        <ele>222</ele>
        <time>2022-08-19T09:51:30.000Z</time>
      </trkpt>
      <trkpt lat="49.77664" lon="4.83621">
        <ele>222</ele>
        <time>2022-08-19T09:51:31.000Z</time>
      </trkpt>
      <trkpt lat="49.77663" lon="4.83616">
        <ele>222</ele>
        <time>2022-08-19T09:51:32.000Z</time>
      </trkpt>
      <trkpt lat="49.77662" lon="4.83611">
        <ele>222</ele>
        <time>2022-08-19T09:51:33.000Z</time>
      </trkpt>
      <trkpt lat="49.77661" lon="4.83607">
        <ele>222</ele>
        <time>2022-08-19T09:51:34.000Z</time>
      </trkpt>
      <trkpt lat="49.77659" lon="4.83602">
        <ele>221</ele>
        <time>2022-08-19T09:51:35.000Z</time>
      </trkpt>
      <trkpt lat="49.77658" lon="4.83599">
        <ele>221</ele>
        <time>2022-08-19T09:51:36.000Z</time>
      </trkpt>
      <trkpt lat="49.77657" lon="4.83596">
        <ele>221</ele>
        <time>2022-08-19T09:51:37.000Z</time>
      </trkpt>
      <trkpt lat="49.77655" lon="4.83593">
        <ele>221</ele>
        <time>2022-08-19T09:51:38.000Z</time>
      </trkpt>
      <trkpt lat="49.77654" lon="4.83591">
        <ele>221</ele>
        <time>2022-08-19T09:51:39.000Z</time>
      </trkpt>
      <trkpt lat="49.77653" lon="4.83588">
        <ele>221</ele>
        <time>2022-08-19T09:51:40.000Z</time>
      </trkpt>
      <trkpt lat="49.77651" lon="4.83586">
        <ele>222</ele>
        <time>2022-08-19T09:51:41.000Z</time>
      </trkpt>
      <trkpt lat="49.7765" lon="4.83583">
        <ele>222</ele>
        <time>2022-08-19T09:51:42.000Z</time>
      </trkpt>
      <trkpt lat="49.77648" lon="4.8358">
        <ele>222</ele>
        <time>2022-08-19T09:51:43.000Z</time>
      </trkpt>
      <trkpt lat="49.77647" lon="4.83577">
        <ele>222</ele>
        <time>2022-08-19T09:51:44.000Z</time>
      </trkpt>
      <trkpt lat="49.77645" lon="4.83574">
        <ele>222</ele>
        <time>2022-08-19T09:51:45.000Z</time>
      </trkpt>
      <trkpt lat="49.77643" lon="4.8357">
        <ele>222</ele>
        <time>2022-08-19T09:51:46.000Z</time>
      </trkpt>
      <trkpt lat="49.77642" lon="4.83567">
        <ele>222</ele>
        <time>2022-08-19T09:51:47.000Z</time>
      </trkpt>
      <trkpt lat="49.77641" lon="4.83564">
        <ele>222</ele>
        <time>2022-08-19T09:51:48.000Z</time>
      </trkpt>
      <trkpt lat="49.77639" lon="4.83561">
        <ele>223</ele>
        <time>2022-08-19T09:51:49.000Z</time>
      </trkpt>
      <trkpt lat="49.77637" lon="4.83557">
        <ele>223</ele>
        <time>2022-08-19T09:51:50.000Z</time>
      </trkpt>
      <trkpt lat="49.77635" lon="4.83554">
        <ele>223</ele>
        <time>2022-08-19T09:51:51.000Z</time>
      </trkpt>
      <trkpt lat="49.77633" lon="4.8355">
        <ele>223</ele>
        <time>2022-08-19T09:51:52.000Z</time>
      </trkpt>
      <trkpt lat="49.77631" lon="4.83545">
        <ele>223</ele>
        <time>2022-08-19T09:51:53.000Z</time>
      </trkpt>
      <trkpt lat="49.77629" lon="4.83541">
        <ele>224</ele>
        <time>2022-08-19T09:51:54.000Z</time>
      </trkpt>
      <trkpt lat="49.77626" lon="4.83537">
        <ele>224</ele>
        <time>2022-08-19T09:51:55.000Z</time>
      </trkpt>
      <trkpt lat="49.77624" lon="4.83533">
        <ele>224</ele>
        <time>2022-08-19T09:51:56.000Z</time>
      </trkpt>
      <trkpt lat="49.77622" lon="4.83529">
        <ele>224</ele>
        <time>2022-08-19T09:51:57.000Z</time>
      </trkpt>
      <trkpt lat="49.77619" lon="4.83525">
        <ele>224</ele>
        <time>2022-08-19T09:51:58.000Z</time>
      </trkpt>
      <trkpt lat="49.77617" lon="4.83522">
        <ele>224</ele>
        <time>2022-08-19T09:51:59.000Z</time>
      </trkpt>
      <trkpt lat="49.77614" lon="4.83518">
        <ele>224</ele>
        <time>2022-08-19T09:52:00.000Z</time>
      </trkpt>
      <trkpt lat="49.77611" lon="4.83515">
        <ele>224</ele>
        <time>2022-08-19T09:52:01.000Z</time>
      </trkpt>
      <trkpt lat="49.77609" lon="4.83512">
        <ele>224</ele>
        <time>2022-08-19T09:52:02.000Z</time>
      </trkpt>
      <trkpt lat="49.77606" lon="4.83509">
        <ele>224</ele>
        <time>2022-08-19T09:52:03.000Z</time>
      </trkpt>
      <trkpt lat="49.77604" lon="4.83506">
        <ele>224</ele>
        <time>2022-08-19T09:52:04.000Z</time>
      </trkpt>
      <trkpt lat="49.77602" lon="4.83503">
        <ele>224</ele>
        <time>2022-08-19T09:52:05.000Z</time>
      </trkpt>
      <trkpt lat="49.77599" lon="4.835">
        <ele>224</ele>
        <time>2022-08-19T09:52:06.000Z</time>
      </trkpt>
      <trkpt lat="49.77597" lon="4.83497">
        <ele>224</ele>
        <time>2022-08-19T09:52:07.000Z</time>
      </trkpt>
      <trkpt lat="49.77594" lon="4.83495">
        <ele>224</ele>
        <time>2022-08-19T09:52:08.000Z</time>
      </trkpt>
      <trkpt lat="49.77591" lon="4.83493">
        <ele>224</ele>
        <time>2022-08-19T09:52:09.000Z</time>
      </trkpt>
      <trkpt lat="49.77589" lon="4.8349">
        <ele>225</ele>
        <time>2022-08-19T09:52:10.000Z</time>
      </trkpt>
      <trkpt lat="49.77587" lon="4.83488">
        <ele>225</ele>
        <time>2022-08-19T09:52:11.000Z</time>
      </trkpt>
      <trkpt lat="49.77584" lon="4.83485">
        <ele>225</ele>
        <time>2022-08-19T09:52:12.000Z</time>
      </trkpt>
      <trkpt lat="49.77582" lon="4.83483">
        <ele>225</ele>
        <time>2022-08-19T09:52:13.000Z</time>
      </trkpt>
      <trkpt lat="49.77579" lon="4.83481">
        <ele>225</ele>
        <time>2022-08-19T09:52:14.000Z</time>
      </trkpt>
      <trkpt lat="49.77577" lon="4.8348">
        <ele>225</ele>
        <time>2022-08-19T09:52:15.000Z</time>
      </trkpt>
      <trkpt lat="49.77575" lon="4.83479">
        <ele>225</ele>
        <time>2022-08-19T09:52:16.000Z</time>
      </trkpt>
      <trkpt lat="49.77573" lon="4.83479">
        <ele>226</ele>
        <time>2022-08-19T09:52:17.000Z</time>
      </trkpt>
      <trkpt lat="49.7757" lon="4.83478">
        <ele>226</ele>
        <time>2022-08-19T09:52:18.000Z</time>
      </trkpt>
      <trkpt lat="49.77568" lon="4.83477">
        <ele>226</ele>
        <time>2022-08-19T09:52:19.000Z</time>
      </trkpt>
      <trkpt lat="49.77566" lon="4.83476">
        <ele>226</ele>
        <time>2022-08-19T09:52:20.000Z</time>
      </trkpt>
      <trkpt lat="49.77563" lon="4.83475">
        <ele>227</ele>
        <time>2022-08-19T09:52:21.000Z</time>
      </trkpt>
      <trkpt lat="49.7756" lon="4.83475">
        <ele>227</ele>
        <time>2022-08-19T09:52:22.000Z</time>
      </trkpt>
      <trkpt lat="49.77558" lon="4.83474">
        <ele>228</ele>
        <time>2022-08-19T09:52:23.000Z</time>
      </trkpt>
      <trkpt lat="49.77556" lon="4.83473">
        <ele>228</ele>
        <time>2022-08-19T09:52:24.000Z</time>
      </trkpt>
      <trkpt lat="49.77553" lon="4.83472">
        <ele>228</ele>
        <time>2022-08-19T09:52:25.000Z</time>
      </trkpt>
      <trkpt lat="49.7755" lon="4.83472">
        <ele>229</ele>
        <time>2022-08-19T09:52:26.000Z</time>
      </trkpt>
      <trkpt lat="49.77547" lon="4.83471">
        <ele>229</ele>
        <time>2022-08-19T09:52:27.000Z</time>
      </trkpt>
      <trkpt lat="49.77543" lon="4.8347">
        <ele>230</ele>
        <time>2022-08-19T09:52:28.000Z</time>
      </trkpt>
      <trkpt lat="49.7754" lon="4.83469">
        <ele>230</ele>
        <time>2022-08-19T09:52:29.000Z</time>
      </trkpt>
      <trkpt lat="49.77536" lon="4.83469">
        <ele>230</ele>
        <time>2022-08-19T09:52:30.000Z</time>
      </trkpt>
      <trkpt lat="49.77532" lon="4.83469">
        <ele>231</ele>
        <time>2022-08-19T09:52:31.000Z</time>
      </trkpt>
      <trkpt lat="49.77528" lon="4.83468">
        <ele>231</ele>
        <time>2022-08-19T09:52:32.000Z</time>
      </trkpt>
      <trkpt lat="49.77524" lon="4.83467">
        <ele>232</ele>
        <time>2022-08-19T09:52:33.000Z</time>
      </trkpt>
      <trkpt lat="49.7752" lon="4.83466">
        <ele>232</ele>
        <time>2022-08-19T09:52:34.000Z</time>
      </trkpt>
      <trkpt lat="49.77517" lon="4.83465">
        <ele>232</ele>
        <time>2022-08-19T09:52:35.000Z</time>
      </trkpt>
      <trkpt lat="49.77513" lon="4.83464">
        <ele>233</ele>
        <time>2022-08-19T09:52:36.000Z</time>
      </trkpt>
      <trkpt lat="49.77509" lon="4.83463">
        <ele>233</ele>
        <time>2022-08-19T09:52:37.000Z</time>
      </trkpt>
      <trkpt lat="49.77505" lon="4.83462">
        <ele>234</ele>
        <time>2022-08-19T09:52:38.000Z</time>
      </trkpt>
      <trkpt lat="49.77501" lon="4.83462">
        <ele>234</ele>
        <time>2022-08-19T09:52:39.000Z</time>
      </trkpt>
      <trkpt lat="49.77497" lon="4.83462">
        <ele>234</ele>
        <time>2022-08-19T09:52:40.000Z</time>
      </trkpt>
      <trkpt lat="49.77494" lon="4.83462">
        <ele>235</ele>
        <time>2022-08-19T09:52:41.000Z</time>
      </trkpt>
      <trkpt lat="49.7749" lon="4.83462">
        <ele>235</ele>
        <time>2022-08-19T09:52:42.000Z</time>
      </trkpt>
      <trkpt lat="49.77486" lon="4.83462">
        <ele>235</ele>
        <time>2022-08-19T09:52:43.000Z</time>
      </trkpt>
      <trkpt lat="49.77481" lon="4.8346">
        <ele>236</ele>
        <time>2022-08-19T09:52:44.000Z</time>
      </trkpt>
      <trkpt lat="49.77477" lon="4.83459">
        <ele>236</ele>
        <time>2022-08-19T09:52:45.000Z</time>
      </trkpt>
      <trkpt lat="49.77473" lon="4.83459">
        <ele>237</ele>
        <time>2022-08-19T09:52:46.000Z</time>
      </trkpt>
      <trkpt lat="49.7747" lon="4.83459">
        <ele>237</ele>
        <time>2022-08-19T09:52:47.000Z</time>
      </trkpt>
      <trkpt lat="49.77466" lon="4.83459">
        <ele>238</ele>
        <time>2022-08-19T09:52:48.000Z</time>
      </trkpt>
      <trkpt lat="49.77462" lon="4.83459">
        <ele>238</ele>
        <time>2022-08-19T09:52:49.000Z</time>
      </trkpt>
      <trkpt lat="49.77459" lon="4.83459">
        <ele>239</ele>
        <time>2022-08-19T09:52:50.000Z</time>
      </trkpt>
      <trkpt lat="49.77455" lon="4.83458">
        <ele>239</ele>
        <time>2022-08-19T09:52:51.000Z</time>
      </trkpt>
      <trkpt lat="49.77452" lon="4.83458">
        <ele>239</ele>
        <time>2022-08-19T09:52:52.000Z</time>
      </trkpt>
      <trkpt lat="49.77449" lon="4.83459">
        <ele>240</ele>
        <time>2022-08-19T09:52:53.000Z</time>
      </trkpt>
      <trkpt lat="49.77445" lon="4.83459">
        <ele>240</ele>
        <time>2022-08-19T09:52:54.000Z</time>
      </trkpt>
      <trkpt lat="49.77441" lon="4.83459">
        <ele>241</ele>
        <time>2022-08-19T09:52:55.000Z</time>
      </trkpt>
      <trkpt lat="49.77438" lon="4.83458">
        <ele>241</ele>
        <time>2022-08-19T09:52:56.000Z</time>
      </trkpt>
      <trkpt lat="49.77434" lon="4.83458">
        <ele>241</ele>
        <time>2022-08-19T09:52:57.000Z</time>
      </trkpt>
      <trkpt lat="49.7743" lon="4.83457">
        <ele>241</ele>
        <time>2022-08-19T09:52:58.000Z</time>
      </trkpt>
      <trkpt lat="49.77427" lon="4.83456">
        <ele>242</ele>
        <time>2022-08-19T09:52:59.000Z</time>
      </trkpt>
      <trkpt lat="49.77423" lon="4.83455">
        <ele>242</ele>
        <time>2022-08-19T09:53:00.000Z</time>
      </trkpt>
      <trkpt lat="49.7742" lon="4.83455">
        <ele>242</ele>
        <time>2022-08-19T09:53:01.000Z</time>
      </trkpt>
      <trkpt lat="49.77417" lon="4.83456">
        <ele>243</ele>
        <time>2022-08-19T09:53:02.000Z</time>
      </trkpt>
      <trkpt lat="49.77415" lon="4.83458">
        <ele>243</ele>
        <time>2022-08-19T09:53:03.000Z</time>
      </trkpt>
      <trkpt lat="49.77413" lon="4.83459">
        <ele>243</ele>
        <time>2022-08-19T09:53:04.000Z</time>
      </trkpt>
      <trkpt lat="49.77411" lon="4.83461">
        <ele>243</ele>
        <time>2022-08-19T09:53:05.000Z</time>
      </trkpt>
      <trkpt lat="49.77409" lon="4.83462">
        <ele>244</ele>
        <time>2022-08-19T09:53:06.000Z</time>
      </trkpt>
      <trkpt lat="49.77407" lon="4.83464">
        <ele>244</ele>
        <time>2022-08-19T09:53:07.000Z</time>
      </trkpt>
      <trkpt lat="49.77405" lon="4.83465">
        <ele>244</ele>
        <time>2022-08-19T09:53:08.000Z</time>
      </trkpt>
      <trkpt lat="49.77402" lon="4.83466">
        <ele>244</ele>
        <time>2022-08-19T09:53:09.000Z</time>
      </trkpt>
      <trkpt lat="49.77399" lon="4.83467">
        <ele>244</ele>
        <time>2022-08-19T09:53:10.000Z</time>
      </trkpt>
      <trkpt lat="49.77396" lon="4.83468">
        <ele>244</ele>
        <time>2022-08-19T09:53:11.000Z</time>
      </trkpt>
      <trkpt lat="49.77394" lon="4.83469">
        <ele>245</ele>
        <time>2022-08-19T09:53:12.000Z</time>
      </trkpt>
      <trkpt lat="49.77392" lon="4.8347">
        <ele>245</ele>
        <time>2022-08-19T09:53:13.000Z</time>
      </trkpt>
      <trkpt lat="49.7739" lon="4.83471">
        <ele>245</ele>
        <time>2022-08-19T09:53:14.000Z</time>
      </trkpt>
      <trkpt lat="49.77387" lon="4.83471">
        <ele>245</ele>
        <time>2022-08-19T09:53:15.000Z</time>
      </trkpt>
      <trkpt lat="49.77385" lon="4.83472">
        <ele>245</ele>
        <time>2022-08-19T09:53:16.000Z</time>
      </trkpt>
      <trkpt lat="49.77383" lon="4.83472">
        <ele>245</ele>
        <time>2022-08-19T09:53:17.000Z</time>
      </trkpt>
      <trkpt lat="49.77381" lon="4.83473">
        <ele>245</ele>
        <time>2022-08-19T09:53:18.000Z</time>
      </trkpt>
      <trkpt lat="49.77379" lon="4.83474">
        <ele>246</ele>
        <time>2022-08-19T09:53:19.000Z</time>
      </trkpt>
      <trkpt lat="49.77377" lon="4.83474">
        <ele>246</ele>
        <time>2022-08-19T09:53:20.000Z</time>
      </trkpt>
      <trkpt lat="49.77375" lon="4.83476">
        <ele>246</ele>
        <time>2022-08-19T09:53:21.000Z</time>
      </trkpt>
      <trkpt lat="49.77373" lon="4.83476">
        <ele>246</ele>
        <time>2022-08-19T09:53:22.000Z</time>
      </trkpt>
      <trkpt lat="49.77371" lon="4.83477">
        <ele>247</ele>
        <time>2022-08-19T09:53:23.000Z</time>
      </trkpt>
      <trkpt lat="49.77369" lon="4.83477">
        <ele>247</ele>
        <time>2022-08-19T09:53:24.000Z</time>
      </trkpt>
      <trkpt lat="49.77367" lon="4.83478">
        <ele>247</ele>
        <time>2022-08-19T09:53:25.000Z</time>
      </trkpt>
      <trkpt lat="49.77364" lon="4.83479">
        <ele>247</ele>
        <time>2022-08-19T09:53:26.000Z</time>
      </trkpt>
      <trkpt lat="49.77361" lon="4.83478">
        <ele>248</ele>
        <time>2022-08-19T09:53:27.000Z</time>
      </trkpt>
      <trkpt lat="49.77358" lon="4.83478">
        <ele>248</ele>
        <time>2022-08-19T09:53:28.000Z</time>
      </trkpt>
      <trkpt lat="49.77357" lon="4.83478">
        <ele>248</ele>
        <time>2022-08-19T09:53:29.000Z</time>
      </trkpt>
      <trkpt lat="49.77355" lon="4.83478">
        <ele>248</ele>
        <time>2022-08-19T09:53:30.000Z</time>
      </trkpt>
      <trkpt lat="49.77352" lon="4.83477">
        <ele>248</ele>
        <time>2022-08-19T09:53:31.000Z</time>
      </trkpt>
      <trkpt lat="49.7735" lon="4.83476">
        <ele>249</ele>
        <time>2022-08-19T09:53:32.000Z</time>
      </trkpt>
      <trkpt lat="49.77347" lon="4.83475">
        <ele>249</ele>
        <time>2022-08-19T09:53:33.000Z</time>
      </trkpt>
      <trkpt lat="49.77345" lon="4.83474">
        <ele>249</ele>
        <time>2022-08-19T09:53:34.000Z</time>
      </trkpt>
      <trkpt lat="49.77342" lon="4.83472">
        <ele>249</ele>
        <time>2022-08-19T09:53:35.000Z</time>
      </trkpt>
      <trkpt lat="49.77341" lon="4.83471">
        <ele>249</ele>
        <time>2022-08-19T09:53:36.000Z</time>
      </trkpt>
      <trkpt lat="49.77339" lon="4.8347">
        <ele>250</ele>
        <time>2022-08-19T09:53:37.000Z</time>
      </trkpt>
      <trkpt lat="49.77337" lon="4.83468">
        <ele>250</ele>
        <time>2022-08-19T09:53:38.000Z</time>
      </trkpt>
      <trkpt lat="49.77335" lon="4.83466">
        <ele>250</ele>
        <time>2022-08-19T09:53:39.000Z</time>
      </trkpt>
      <trkpt lat="49.77333" lon="4.83464">
        <ele>250</ele>
        <time>2022-08-19T09:53:40.000Z</time>
      </trkpt>
      <trkpt lat="49.7733" lon="4.83461">
        <ele>250</ele>
        <time>2022-08-19T09:53:41.000Z</time>
      </trkpt>
      <trkpt lat="49.77328" lon="4.83459">
        <ele>250</ele>
        <time>2022-08-19T09:53:42.000Z</time>
      </trkpt>
      <trkpt lat="49.77325" lon="4.83456">
        <ele>251</ele>
        <time>2022-08-19T09:53:43.000Z</time>
      </trkpt>
      <trkpt lat="49.77323" lon="4.83454">
        <ele>251</ele>
        <time>2022-08-19T09:53:44.000Z</time>
      </trkpt>
      <trkpt lat="49.7732" lon="4.83451">
        <ele>251</ele>
        <time>2022-08-19T09:53:45.000Z</time>
      </trkpt>
      <trkpt lat="49.77318" lon="4.83449">
        <ele>251</ele>
        <time>2022-08-19T09:53:46.000Z</time>
      </trkpt>
      <trkpt lat="49.77315" lon="4.83446">
        <ele>251</ele>
        <time>2022-08-19T09:53:47.000Z</time>
      </trkpt>
      <trkpt lat="49.77314" lon="4.83443">
        <ele>251</ele>
        <time>2022-08-19T09:53:48.000Z</time>
      </trkpt>
      <trkpt lat="49.77312" lon="4.83441">
        <ele>251</ele>
        <time>2022-08-19T09:53:49.000Z</time>
      </trkpt>
      <trkpt lat="49.7731" lon="4.83438">
        <ele>251</ele>
        <time>2022-08-19T09:53:50.000Z</time>
      </trkpt>
      <trkpt lat="49.77307" lon="4.83435">
        <ele>251</ele>
        <time>2022-08-19T09:53:51.000Z</time>
      </trkpt>
      <trkpt lat="49.77305" lon="4.83433">
        <ele>252</ele>
        <time>2022-08-19T09:53:52.000Z</time>
      </trkpt>
      <trkpt lat="49.77303" lon="4.83429">
        <ele>252</ele>
        <time>2022-08-19T09:53:53.000Z</time>
      </trkpt>
      <trkpt lat="49.77301" lon="4.83427">
        <ele>252</ele>
        <time>2022-08-19T09:53:54.000Z</time>
      </trkpt>
      <trkpt lat="49.77298" lon="4.83424">
        <ele>251</ele>
        <time>2022-08-19T09:53:55.000Z</time>
      </trkpt>
      <trkpt lat="49.77296" lon="4.83421">
        <ele>252</ele>
        <time>2022-08-19T09:53:56.000Z</time>
      </trkpt>
      <trkpt lat="49.77293" lon="4.83418">
        <ele>252</ele>
        <time>2022-08-19T09:53:57.000Z</time>
      </trkpt>
      <trkpt lat="49.77291" lon="4.83415">
        <ele>252</ele>
        <time>2022-08-19T09:53:58.000Z</time>
      </trkpt>
      <trkpt lat="49.77288" lon="4.83411">
        <ele>252</ele>
        <time>2022-08-19T09:53:59.000Z</time>
      </trkpt>
      <trkpt lat="49.77285" lon="4.83408">
        <ele>252</ele>
        <time>2022-08-19T09:54:00.000Z</time>
      </trkpt>
      <trkpt lat="49.77282" lon="4.83405">
        <ele>253</ele>
        <time>2022-08-19T09:54:01.000Z</time>
      </trkpt>
      <trkpt lat="49.77279" lon="4.83403">
        <ele>253</ele>
        <time>2022-08-19T09:54:02.000Z</time>
      </trkpt>
      <trkpt lat="49.77277" lon="4.834">
        <ele>253</ele>
        <time>2022-08-19T09:54:03.000Z</time>
      </trkpt>
      <trkpt lat="49.77275" lon="4.83398">
        <ele>253</ele>
        <time>2022-08-19T09:54:04.000Z</time>
      </trkpt>
      <trkpt lat="49.77273" lon="4.83397">
        <ele>254</ele>
        <time>2022-08-19T09:54:05.000Z</time>
      </trkpt>
      <trkpt lat="49.7727" lon="4.83396">
        <ele>254</ele>
        <time>2022-08-19T09:54:06.000Z</time>
      </trkpt>
      <trkpt lat="49.77269" lon="4.83395">
        <ele>254</ele>
        <time>2022-08-19T09:54:07.000Z</time>
      </trkpt>
      <trkpt lat="49.77267" lon="4.83394">
        <ele>254</ele>
        <time>2022-08-19T09:54:08.000Z</time>
      </trkpt>
      <trkpt lat="49.77265" lon="4.83392">
        <ele>255</ele>
        <time>2022-08-19T09:54:09.000Z</time>
      </trkpt>
      <trkpt lat="49.77262" lon="4.8339">
        <ele>255</ele>
        <time>2022-08-19T09:54:10.000Z</time>
      </trkpt>
      <trkpt lat="49.77261" lon="4.83389">
        <ele>255</ele>
        <time>2022-08-19T09:54:11.000Z</time>
      </trkpt>
      <trkpt lat="49.77259" lon="4.83388">
        <ele>255</ele>
        <time>2022-08-19T09:54:12.000Z</time>
      </trkpt>
      <trkpt lat="49.77257" lon="4.83387">
        <ele>256</ele>
        <time>2022-08-19T09:54:13.000Z</time>
      </trkpt>
      <trkpt lat="49.77256" lon="4.83386">
        <ele>256</ele>
        <time>2022-08-19T09:54:14.000Z</time>
      </trkpt>
      <trkpt lat="49.77254" lon="4.83385">
        <ele>256</ele>
        <time>2022-08-19T09:54:15.000Z</time>
      </trkpt>
      <trkpt lat="49.77252" lon="4.83384">
        <ele>257</ele>
        <time>2022-08-19T09:54:16.000Z</time>
      </trkpt>
      <trkpt lat="49.77251" lon="4.83383">
        <ele>257</ele>
        <time>2022-08-19T09:54:17.000Z</time>
      </trkpt>
      <trkpt lat="49.7725" lon="4.83382">
        <ele>257</ele>
        <time>2022-08-19T09:54:18.000Z</time>
      </trkpt>
      <trkpt lat="49.77248" lon="4.83381">
        <ele>258</ele>
        <time>2022-08-19T09:54:19.000Z</time>
      </trkpt>
      <trkpt lat="49.77246" lon="4.83379">
        <ele>258</ele>
        <time>2022-08-19T09:54:20.000Z</time>
      </trkpt>
      <trkpt lat="49.77244" lon="4.83379">
        <ele>258</ele>
        <time>2022-08-19T09:54:21.000Z</time>
      </trkpt>
      <trkpt lat="49.77242" lon="4.83378">
        <ele>259</ele>
        <time>2022-08-19T09:54:22.000Z</time>
      </trkpt>
      <trkpt lat="49.77241" lon="4.83377">
        <ele>259</ele>
        <time>2022-08-19T09:54:23.000Z</time>
      </trkpt>
      <trkpt lat="49.77239" lon="4.83376">
        <ele>259</ele>
        <time>2022-08-19T09:54:24.000Z</time>
      </trkpt>
      <trkpt lat="49.77237" lon="4.83376">
        <ele>260</ele>
        <time>2022-08-19T09:54:25.000Z</time>
      </trkpt>
      <trkpt lat="49.77234" lon="4.83375">
        <ele>260</ele>
        <time>2022-08-19T09:54:26.000Z</time>
      </trkpt>
      <trkpt lat="49.77232" lon="4.83374">
        <ele>260</ele>
        <time>2022-08-19T09:54:27.000Z</time>
      </trkpt>
      <trkpt lat="49.77229" lon="4.83373">
        <ele>261</ele>
        <time>2022-08-19T09:54:28.000Z</time>
      </trkpt>
      <trkpt lat="49.77226" lon="4.83374">
        <ele>261</ele>
        <time>2022-08-19T09:54:29.000Z</time>
      </trkpt>
      <trkpt lat="49.77224" lon="4.83373">
        <ele>261</ele>
        <time>2022-08-19T09:54:30.000Z</time>
      </trkpt>
      <trkpt lat="49.77222" lon="4.83372">
        <ele>261</ele>
        <time>2022-08-19T09:54:31.000Z</time>
      </trkpt>
      <trkpt lat="49.77219" lon="4.83372">
        <ele>262</ele>
        <time>2022-08-19T09:54:32.000Z</time>
      </trkpt>
      <trkpt lat="49.77217" lon="4.83371">
        <ele>262</ele>
        <time>2022-08-19T09:54:33.000Z</time>
      </trkpt>
      <trkpt lat="49.77215" lon="4.83371">
        <ele>262</ele>
        <time>2022-08-19T09:54:34.000Z</time>
      </trkpt>
      <trkpt lat="49.77212" lon="4.8337">
        <ele>262</ele>
        <time>2022-08-19T09:54:35.000Z</time>
      </trkpt>
      <trkpt lat="49.77209" lon="4.8337">
        <ele>263</ele>
        <time>2022-08-19T09:54:36.000Z</time>
      </trkpt>
      <trkpt lat="49.77206" lon="4.8337">
        <ele>263</ele>
        <time>2022-08-19T09:54:37.000Z</time>
      </trkpt>
      <trkpt lat="49.77204" lon="4.8337">
        <ele>263</ele>
        <time>2022-08-19T09:54:38.000Z</time>
      </trkpt>
      <trkpt lat="49.77202" lon="4.83369">
        <ele>263</ele>
        <time>2022-08-19T09:54:39.000Z</time>
      </trkpt>
      <trkpt lat="49.77199" lon="4.83369">
        <ele>263</ele>
        <time>2022-08-19T09:54:40.000Z</time>
      </trkpt>
      <trkpt lat="49.77197" lon="4.83369">
        <ele>263</ele>
        <time>2022-08-19T09:54:41.000Z</time>
      </trkpt>
      <trkpt lat="49.77194" lon="4.83369">
        <ele>263</ele>
        <time>2022-08-19T09:54:42.000Z</time>
      </trkpt>
      <trkpt lat="49.77192" lon="4.83369">
        <ele>263</ele>
        <time>2022-08-19T09:54:43.000Z</time>
      </trkpt>
      <trkpt lat="49.77189" lon="4.83368">
        <ele>263</ele>
        <time>2022-08-19T09:54:44.000Z</time>
      </trkpt>
      <trkpt lat="49.77187" lon="4.83368">
        <ele>263</ele>
        <time>2022-08-19T09:54:45.000Z</time>
      </trkpt>
      <trkpt lat="49.77185" lon="4.83369">
        <ele>263</ele>
        <time>2022-08-19T09:54:46.000Z</time>
      </trkpt>
      <trkpt lat="49.77183" lon="4.83369">
        <ele>264</ele>
        <time>2022-08-19T09:54:47.000Z</time>
      </trkpt>
      <trkpt lat="49.7718" lon="4.83369">
        <ele>264</ele>
        <time>2022-08-19T09:54:48.000Z</time>
      </trkpt>
      <trkpt lat="49.77177" lon="4.8337">
        <ele>264</ele>
        <time>2022-08-19T09:54:49.000Z</time>
      </trkpt>
      <trkpt lat="49.77175" lon="4.83371">
        <ele>264</ele>
        <time>2022-08-19T09:54:50.000Z</time>
      </trkpt>
      <trkpt lat="49.77172" lon="4.83372">
        <ele>264</ele>
        <time>2022-08-19T09:54:51.000Z</time>
      </trkpt>
      <trkpt lat="49.7717" lon="4.83373">
        <ele>264</ele>
        <time>2022-08-19T09:54:52.000Z</time>
      </trkpt>
      <trkpt lat="49.77168" lon="4.83374">
        <ele>264</ele>
        <time>2022-08-19T09:54:53.000Z</time>
      </trkpt>
      <trkpt lat="49.77166" lon="4.83375">
        <ele>264</ele>
        <time>2022-08-19T09:54:54.000Z</time>
      </trkpt>
      <trkpt lat="49.77164" lon="4.83375">
        <ele>264</ele>
        <time>2022-08-19T09:54:55.000Z</time>
      </trkpt>
      <trkpt lat="49.77161" lon="4.83376">
        <ele>264</ele>
        <time>2022-08-19T09:54:56.000Z</time>
      </trkpt>
      <trkpt lat="49.77159" lon="4.83376">
        <ele>264</ele>
        <time>2022-08-19T09:54:57.000Z</time>
      </trkpt>
      <trkpt lat="49.77157" lon="4.83378">
        <ele>264</ele>
        <time>2022-08-19T09:54:58.000Z</time>
      </trkpt>
      <trkpt lat="49.77155" lon="4.83379">
        <ele>265</ele>
        <time>2022-08-19T09:54:59.000Z</time>
      </trkpt>
      <trkpt lat="49.77154" lon="4.8338">
        <ele>265</ele>
        <time>2022-08-19T09:55:00.000Z</time>
      </trkpt>
      <trkpt lat="49.77151" lon="4.83381">
        <ele>265</ele>
        <time>2022-08-19T09:55:01.000Z</time>
      </trkpt>
      <trkpt lat="49.77149" lon="4.83382">
        <ele>265</ele>
        <time>2022-08-19T09:55:02.000Z</time>
      </trkpt>
      <trkpt lat="49.77146" lon="4.83382">
        <ele>265</ele>
        <time>2022-08-19T09:55:03.000Z</time>
      </trkpt>
      <trkpt lat="49.77144" lon="4.83383">
        <ele>265</ele>
        <time>2022-08-19T09:55:04.000Z</time>
      </trkpt>
      <trkpt lat="49.77141" lon="4.83383">
        <ele>265</ele>
        <time>2022-08-19T09:55:05.000Z</time>
      </trkpt>
      <trkpt lat="49.77138" lon="4.83384">
        <ele>266</ele>
        <time>2022-08-19T09:55:06.000Z</time>
      </trkpt>
      <trkpt lat="49.77136" lon="4.83385">
        <ele>266</ele>
        <time>2022-08-19T09:55:07.000Z</time>
      </trkpt>
      <trkpt lat="49.77133" lon="4.83387">
        <ele>266</ele>
        <time>2022-08-19T09:55:08.000Z</time>
      </trkpt>
      <trkpt lat="49.77131" lon="4.83388">
        <ele>266</ele>
        <time>2022-08-19T09:55:09.000Z</time>
      </trkpt>
      <trkpt lat="49.77128" lon="4.8339">
        <ele>266</ele>
        <time>2022-08-19T09:55:10.000Z</time>
      </trkpt>
      <trkpt lat="49.77125" lon="4.83391">
        <ele>266</ele>
        <time>2022-08-19T09:55:11.000Z</time>
      </trkpt>
      <trkpt lat="49.77122" lon="4.83391">
        <ele>266</ele>
        <time>2022-08-19T09:55:12.000Z</time>
      </trkpt>
      <trkpt lat="49.77119" lon="4.83393">
        <ele>266</ele>
        <time>2022-08-19T09:55:13.000Z</time>
      </trkpt>
      <trkpt lat="49.77115" lon="4.83394">
        <ele>266</ele>
        <time>2022-08-19T09:55:14.000Z</time>
      </trkpt>
      <trkpt lat="49.77112" lon="4.83396">
        <ele>266</ele>
        <time>2022-08-19T09:55:15.000Z</time>
      </trkpt>
      <trkpt lat="49.7711" lon="4.83397">
        <ele>266</ele>
        <time>2022-08-19T09:55:16.000Z</time>
      </trkpt>
      <trkpt lat="49.77106" lon="4.83398">
        <ele>266</ele>
        <time>2022-08-19T09:55:17.000Z</time>
      </trkpt>
      <trkpt lat="49.77103" lon="4.83398">
        <ele>266</ele>
        <time>2022-08-19T09:55:18.000Z</time>
      </trkpt>
      <trkpt lat="49.771" lon="4.83398">
        <ele>266</ele>
        <time>2022-08-19T09:55:19.000Z</time>
      </trkpt>
      <trkpt lat="49.77097" lon="4.83398">
        <ele>266</ele>
        <time>2022-08-19T09:55:20.000Z</time>
      </trkpt>
      <trkpt lat="49.77095" lon="4.83397">
        <ele>266</ele>
        <time>2022-08-19T09:55:21.000Z</time>
      </trkpt>
      <trkpt lat="49.77092" lon="4.83396">
        <ele>266</ele>
        <time>2022-08-19T09:55:22.000Z</time>
      </trkpt>
      <trkpt lat="49.77089" lon="4.83396">
        <ele>266</ele>
        <time>2022-08-19T09:55:23.000Z</time>
      </trkpt>
      <trkpt lat="49.77086" lon="4.83395">
        <ele>266</ele>
        <time>2022-08-19T09:55:24.000Z</time>
      </trkpt>
      <trkpt lat="49.77083" lon="4.83394">
        <ele>266</ele>
        <time>2022-08-19T09:55:25.000Z</time>
      </trkpt>
      <trkpt lat="49.77081" lon="4.83393">
        <ele>266</ele>
        <time>2022-08-19T09:55:26.000Z</time>
      </trkpt>
      <trkpt lat="49.77079" lon="4.83393">
        <ele>266</ele>
        <time>2022-08-19T09:55:27.000Z</time>
      </trkpt>
      <trkpt lat="49.77077" lon="4.83394">
        <ele>266</ele>
        <time>2022-08-19T09:55:28.000Z</time>
      </trkpt>
      <trkpt lat="49.77074" lon="4.83394">
        <ele>266</ele>
        <time>2022-08-19T09:55:29.000Z</time>
      </trkpt>
      <trkpt lat="49.77072" lon="4.83393">
        <ele>266</ele>
        <time>2022-08-19T09:55:30.000Z</time>
      </trkpt>
      <trkpt lat="49.7707" lon="4.83392">
        <ele>266</ele>
        <time>2022-08-19T09:55:31.000Z</time>
      </trkpt>
      <trkpt lat="49.77068" lon="4.83392">
        <ele>266</ele>
        <time>2022-08-19T09:55:32.000Z</time>
      </trkpt>
      <trkpt lat="49.77066" lon="4.83391">
        <ele>266</ele>
        <time>2022-08-19T09:55:33.000Z</time>
      </trkpt>
      <trkpt lat="49.77063" lon="4.8339">
        <ele>266</ele>
        <time>2022-08-19T09:55:34.000Z</time>
      </trkpt>
      <trkpt lat="49.77061" lon="4.83389">
        <ele>266</ele>
        <time>2022-08-19T09:55:35.000Z</time>
      </trkpt>
      <trkpt lat="49.77059" lon="4.83388">
        <ele>266</ele>
        <time>2022-08-19T09:55:36.000Z</time>
      </trkpt>
      <trkpt lat="49.77056" lon="4.83387">
        <ele>266</ele>
        <time>2022-08-19T09:55:37.000Z</time>
      </trkpt>
      <trkpt lat="49.77054" lon="4.83386">
        <ele>266</ele>
        <time>2022-08-19T09:55:38.000Z</time>
      </trkpt>
      <trkpt lat="49.77052" lon="4.83385">
        <ele>266</ele>
        <time>2022-08-19T09:55:39.000Z</time>
      </trkpt>
      <trkpt lat="49.7705" lon="4.83384">
        <ele>266</ele>
        <time>2022-08-19T09:55:40.000Z</time>
      </trkpt>
      <trkpt lat="49.77048" lon="4.83383">
        <ele>266</ele>
        <time>2022-08-19T09:55:41.000Z</time>
      </trkpt>
      <trkpt lat="49.77045" lon="4.83381">
        <ele>265</ele>
        <time>2022-08-19T09:55:42.000Z</time>
      </trkpt>
      <trkpt lat="49.77042" lon="4.8338">
        <ele>265</ele>
        <time>2022-08-19T09:55:43.000Z</time>
      </trkpt>
      <trkpt lat="49.7704" lon="4.83379">
        <ele>265</ele>
        <time>2022-08-19T09:55:44.000Z</time>
      </trkpt>
      <trkpt lat="49.77037" lon="4.83377">
        <ele>265</ele>
        <time>2022-08-19T09:55:45.000Z</time>
      </trkpt>
      <trkpt lat="49.77035" lon="4.83376">
        <ele>265</ele>
        <time>2022-08-19T09:55:46.000Z</time>
      </trkpt>
      <trkpt lat="49.77032" lon="4.83375">
        <ele>265</ele>
        <time>2022-08-19T09:55:47.000Z</time>
      </trkpt>
      <trkpt lat="49.77029" lon="4.83373">
        <ele>264</ele>
        <time>2022-08-19T09:55:48.000Z</time>
      </trkpt>
      <trkpt lat="49.77027" lon="4.83372">
        <ele>264</ele>
        <time>2022-08-19T09:55:49.000Z</time>
      </trkpt>
      <trkpt lat="49.77024" lon="4.8337">
        <ele>264</ele>
        <time>2022-08-19T09:55:50.000Z</time>
      </trkpt>
      <trkpt lat="49.77021" lon="4.83369">
        <ele>264</ele>
        <time>2022-08-19T09:55:51.000Z</time>
      </trkpt>
      <trkpt lat="49.77018" lon="4.83367">
        <ele>264</ele>
        <time>2022-08-19T09:55:52.000Z</time>
      </trkpt>
      <trkpt lat="49.77015" lon="4.83365">
        <ele>264</ele>
        <time>2022-08-19T09:55:53.000Z</time>
      </trkpt>
      <trkpt lat="49.77012" lon="4.83363">
        <ele>264</ele>
        <time>2022-08-19T09:55:54.000Z</time>
      </trkpt>
      <trkpt lat="49.77009" lon="4.83361">
        <ele>263</ele>
        <time>2022-08-19T09:55:55.000Z</time>
      </trkpt>
      <trkpt lat="49.77006" lon="4.83359">
        <ele>263</ele>
        <time>2022-08-19T09:55:56.000Z</time>
      </trkpt>
      <trkpt lat="49.77003" lon="4.83357">
        <ele>263</ele>
        <time>2022-08-19T09:55:57.000Z</time>
      </trkpt>
      <trkpt lat="49.77" lon="4.83355">
        <ele>263</ele>
        <time>2022-08-19T09:55:58.000Z</time>
      </trkpt>
      <trkpt lat="49.76997" lon="4.83352">
        <ele>263</ele>
        <time>2022-08-19T09:55:59.000Z</time>
      </trkpt>
      <trkpt lat="49.76995" lon="4.83349">
        <ele>263</ele>
        <time>2022-08-19T09:56:00.000Z</time>
      </trkpt>
      <trkpt lat="49.76992" lon="4.83346">
        <ele>263</ele>
        <time>2022-08-19T09:56:01.000Z</time>
      </trkpt>
      <trkpt lat="49.7699" lon="4.83343">
        <ele>263</ele>
        <time>2022-08-19T09:56:02.000Z</time>
      </trkpt>
      <trkpt lat="49.76987" lon="4.83339">
        <ele>263</ele>
        <time>2022-08-19T09:56:03.000Z</time>
      </trkpt>
      <trkpt lat="49.76985" lon="4.83336">
        <ele>263</ele>
        <time>2022-08-19T09:56:04.000Z</time>
      </trkpt>
      <trkpt lat="49.76983" lon="4.83333">
        <ele>263</ele>
        <time>2022-08-19T09:56:05.000Z</time>
      </trkpt>
      <trkpt lat="49.7698" lon="4.83329">
        <ele>263</ele>
        <time>2022-08-19T09:56:06.000Z</time>
      </trkpt>
      <trkpt lat="49.76978" lon="4.83326">
        <ele>263</ele>
        <time>2022-08-19T09:56:07.000Z</time>
      </trkpt>
      <trkpt lat="49.76976" lon="4.83322">
        <ele>263</ele>
        <time>2022-08-19T09:56:08.000Z</time>
      </trkpt>
      <trkpt lat="49.76975" lon="4.83318">
        <ele>263</ele>
        <time>2022-08-19T09:56:09.000Z</time>
      </trkpt>
      <trkpt lat="49.76973" lon="4.83314">
        <ele>263</ele>
        <time>2022-08-19T09:56:10.000Z</time>
      </trkpt>
      <trkpt lat="49.76972" lon="4.8331">
        <ele>263</ele>
        <time>2022-08-19T09:56:11.000Z</time>
      </trkpt>
      <trkpt lat="49.7697" lon="4.83305">
        <ele>263</ele>
        <time>2022-08-19T09:56:12.000Z</time>
      </trkpt>
      <trkpt lat="49.76968" lon="4.83301">
        <ele>263</ele>
        <time>2022-08-19T09:56:13.000Z</time>
      </trkpt>
      <trkpt lat="49.76966" lon="4.83296">
        <ele>263</ele>
        <time>2022-08-19T09:56:14.000Z</time>
      </trkpt>
      <trkpt lat="49.76965" lon="4.83291">
        <ele>263</ele>
        <time>2022-08-19T09:56:15.000Z</time>
      </trkpt>
      <trkpt lat="49.76962" lon="4.83287">
        <ele>263</ele>
        <time>2022-08-19T09:56:16.000Z</time>
      </trkpt>
      <trkpt lat="49.7696" lon="4.83282">
        <ele>263</ele>
        <time>2022-08-19T09:56:17.000Z</time>
      </trkpt>
      <trkpt lat="49.76959" lon="4.83277">
        <ele>264</ele>
        <time>2022-08-19T09:56:18.000Z</time>
      </trkpt>
      <trkpt lat="49.76957" lon="4.83272">
        <ele>264</ele>
        <time>2022-08-19T09:56:19.000Z</time>
      </trkpt>
      <trkpt lat="49.76955" lon="4.83267">
        <ele>264</ele>
        <time>2022-08-19T09:56:20.000Z</time>
      </trkpt>
      <trkpt lat="49.76953" lon="4.83263">
        <ele>264</ele>
        <time>2022-08-19T09:56:21.000Z</time>
      </trkpt>
      <trkpt lat="49.76951" lon="4.83259">
        <ele>264</ele>
        <time>2022-08-19T09:56:22.000Z</time>
      </trkpt>
      <trkpt lat="49.76949" lon="4.83256">
        <ele>264</ele>
        <time>2022-08-19T09:56:23.000Z</time>
      </trkpt>
      <trkpt lat="49.76947" lon="4.83252">
        <ele>264</ele>
        <time>2022-08-19T09:56:24.000Z</time>
      </trkpt>
      <trkpt lat="49.76946" lon="4.83248">
        <ele>264</ele>
        <time>2022-08-19T09:56:25.000Z</time>
      </trkpt>
      <trkpt lat="49.76944" lon="4.83243">
        <ele>264</ele>
        <time>2022-08-19T09:56:26.000Z</time>
      </trkpt>
      <trkpt lat="49.76942" lon="4.83238">
        <ele>264</ele>
        <time>2022-08-19T09:56:27.000Z</time>
      </trkpt>
      <trkpt lat="49.7694" lon="4.83234">
        <ele>265</ele>
        <time>2022-08-19T09:56:28.000Z</time>
      </trkpt>
      <trkpt lat="49.76938" lon="4.83231">
        <ele>265</ele>
        <time>2022-08-19T09:56:29.000Z</time>
      </trkpt>
      <trkpt lat="49.76936" lon="4.83227">
        <ele>265</ele>
        <time>2022-08-19T09:56:30.000Z</time>
      </trkpt>
      <trkpt lat="49.76934" lon="4.83223">
        <ele>265</ele>
        <time>2022-08-19T09:56:31.000Z</time>
      </trkpt>
      <trkpt lat="49.76932" lon="4.8322">
        <ele>265</ele>
        <time>2022-08-19T09:56:32.000Z</time>
      </trkpt>
      <trkpt lat="49.7693" lon="4.83215">
        <ele>265</ele>
        <time>2022-08-19T09:56:33.000Z</time>
      </trkpt>
      <trkpt lat="49.76929" lon="4.83209">
        <ele>265</ele>
        <time>2022-08-19T09:56:34.000Z</time>
      </trkpt>
      <trkpt lat="49.76927" lon="4.83203">
        <ele>265</ele>
        <time>2022-08-19T09:56:35.000Z</time>
      </trkpt>
      <trkpt lat="49.76928" lon="4.83198">
        <ele>265</ele>
        <time>2022-08-19T09:56:36.000Z</time>
      </trkpt>
      <trkpt lat="49.76929" lon="4.83193">
        <ele>265</ele>
        <time>2022-08-19T09:56:37.000Z</time>
      </trkpt>
      <trkpt lat="49.7693" lon="4.83188">
        <ele>266</ele>
        <time>2022-08-19T09:56:38.000Z</time>
      </trkpt>
      <trkpt lat="49.76932" lon="4.83183">
        <ele>266</ele>
        <time>2022-08-19T09:56:39.000Z</time>
      </trkpt>
      <trkpt lat="49.76934" lon="4.83178">
        <ele>266</ele>
        <time>2022-08-19T09:56:40.000Z</time>
      </trkpt>
      <trkpt lat="49.76935" lon="4.83174">
        <ele>266</ele>
        <time>2022-08-19T09:56:41.000Z</time>
      </trkpt>
      <trkpt lat="49.76937" lon="4.8317">
        <ele>266</ele>
        <time>2022-08-19T09:56:42.000Z</time>
      </trkpt>
      <trkpt lat="49.76939" lon="4.83165">
        <ele>266</ele>
        <time>2022-08-19T09:56:43.000Z</time>
      </trkpt>
      <trkpt lat="49.7694" lon="4.8316">
        <ele>266</ele>
        <time>2022-08-19T09:56:44.000Z</time>
      </trkpt>
      <trkpt lat="49.7694" lon="4.83155">
        <ele>266</ele>
        <time>2022-08-19T09:56:45.000Z</time>
      </trkpt>
      <trkpt lat="49.76939" lon="4.8315">
        <ele>266</ele>
        <time>2022-08-19T09:56:46.000Z</time>
      </trkpt>
      <trkpt lat="49.76938" lon="4.83144">
        <ele>266</ele>
        <time>2022-08-19T09:56:47.000Z</time>
      </trkpt>
      <trkpt lat="49.76936" lon="4.83139">
        <ele>266</ele>
        <time>2022-08-19T09:56:48.000Z</time>
      </trkpt>
      <trkpt lat="49.76934" lon="4.83134">
        <ele>266</ele>
        <time>2022-08-19T09:56:49.000Z</time>
      </trkpt>
      <trkpt lat="49.76932" lon="4.83129">
        <ele>266</ele>
        <time>2022-08-19T09:56:50.000Z</time>
      </trkpt>
      <trkpt lat="49.7693" lon="4.83124">
        <ele>265</ele>
        <time>2022-08-19T09:56:51.000Z</time>
      </trkpt>
      <trkpt lat="49.76927" lon="4.83118">
        <ele>265</ele>
        <time>2022-08-19T09:56:52.000Z</time>
      </trkpt>
      <trkpt lat="49.76925" lon="4.83112">
        <ele>265</ele>
        <time>2022-08-19T09:56:53.000Z</time>
      </trkpt>
      <trkpt lat="49.76922" lon="4.83106">
        <ele>265</ele>
        <time>2022-08-19T09:56:54.000Z</time>
      </trkpt>
      <trkpt lat="49.7692" lon="4.831">
        <ele>265</ele>
        <time>2022-08-19T09:56:55.000Z</time>
      </trkpt>
      <trkpt lat="49.76917" lon="4.83094">
        <ele>265</ele>
        <time>2022-08-19T09:56:56.000Z</time>
      </trkpt>
      <trkpt lat="49.76914" lon="4.83088">
        <ele>264</ele>
        <time>2022-08-19T09:56:57.000Z</time>
      </trkpt>
      <trkpt lat="49.76911" lon="4.83082">
        <ele>264</ele>
        <time>2022-08-19T09:56:58.000Z</time>
      </trkpt>
      <trkpt lat="49.76909" lon="4.83076">
        <ele>264</ele>
        <time>2022-08-19T09:56:59.000Z</time>
      </trkpt>
      <trkpt lat="49.76906" lon="4.8307">
        <ele>264</ele>
        <time>2022-08-19T09:57:00.000Z</time>
      </trkpt>
      <trkpt lat="49.76904" lon="4.83064">
        <ele>264</ele>
        <time>2022-08-19T09:57:01.000Z</time>
      </trkpt>
      <trkpt lat="49.76901" lon="4.83058">
        <ele>264</ele>
        <time>2022-08-19T09:57:02.000Z</time>
      </trkpt>
      <trkpt lat="49.76899" lon="4.83052">
        <ele>263</ele>
        <time>2022-08-19T09:57:03.000Z</time>
      </trkpt>
      <trkpt lat="49.76896" lon="4.83047">
        <ele>263</ele>
        <time>2022-08-19T09:57:04.000Z</time>
      </trkpt>
      <trkpt lat="49.76893" lon="4.83041">
        <ele>263</ele>
        <time>2022-08-19T09:57:05.000Z</time>
      </trkpt>
      <trkpt lat="49.76891" lon="4.83035">
        <ele>263</ele>
        <time>2022-08-19T09:57:06.000Z</time>
      </trkpt>
      <trkpt lat="49.76888" lon="4.83028">
        <ele>263</ele>
        <time>2022-08-19T09:57:07.000Z</time>
      </trkpt>
      <trkpt lat="49.76885" lon="4.83022">
        <ele>263</ele>
        <time>2022-08-19T09:57:08.000Z</time>
      </trkpt>
      <trkpt lat="49.76882" lon="4.83015">
        <ele>263</ele>
        <time>2022-08-19T09:57:09.000Z</time>
      </trkpt>
      <trkpt lat="49.7688" lon="4.83009">
        <ele>262</ele>
        <time>2022-08-19T09:57:10.000Z</time>
      </trkpt>
      <trkpt lat="49.76877" lon="4.83002">
        <ele>262</ele>
        <time>2022-08-19T09:57:11.000Z</time>
      </trkpt>
      <trkpt lat="49.76873" lon="4.82995">
        <ele>262</ele>
        <time>2022-08-19T09:57:12.000Z</time>
      </trkpt>
      <trkpt lat="49.7687" lon="4.82988">
        <ele>262</ele>
        <time>2022-08-19T09:57:13.000Z</time>
      </trkpt>
      <trkpt lat="49.76867" lon="4.8298">
        <ele>262</ele>
        <time>2022-08-19T09:57:14.000Z</time>
      </trkpt>
      <trkpt lat="49.76864" lon="4.82973">
        <ele>262</ele>
        <time>2022-08-19T09:57:15.000Z</time>
      </trkpt>
      <trkpt lat="49.76861" lon="4.82965">
        <ele>261</ele>
        <time>2022-08-19T09:57:16.000Z</time>
      </trkpt>
      <trkpt lat="49.76858" lon="4.82958">
        <ele>261</ele>
        <time>2022-08-19T09:57:17.000Z</time>
      </trkpt>
      <trkpt lat="49.76855" lon="4.82951">
        <ele>261</ele>
        <time>2022-08-19T09:57:18.000Z</time>
      </trkpt>
      <trkpt lat="49.76852" lon="4.82944">
        <ele>261</ele>
        <time>2022-08-19T09:57:19.000Z</time>
      </trkpt>
      <trkpt lat="49.76849" lon="4.82937">
        <ele>261</ele>
        <time>2022-08-19T09:57:20.000Z</time>
      </trkpt>
      <trkpt lat="49.76846" lon="4.82929">
        <ele>260</ele>
        <time>2022-08-19T09:57:21.000Z</time>
      </trkpt>
      <trkpt lat="49.76843" lon="4.82922">
        <ele>260</ele>
        <time>2022-08-19T09:57:22.000Z</time>
      </trkpt>
      <trkpt lat="49.76839" lon="4.82914">
        <ele>260</ele>
        <time>2022-08-19T09:57:23.000Z</time>
      </trkpt>
      <trkpt lat="49.76836" lon="4.82907">
        <ele>260</ele>
        <time>2022-08-19T09:57:24.000Z</time>
      </trkpt>
      <trkpt lat="49.76833" lon="4.829">
        <ele>260</ele>
        <time>2022-08-19T09:57:25.000Z</time>
      </trkpt>
      <trkpt lat="49.7683" lon="4.82893">
        <ele>260</ele>
        <time>2022-08-19T09:57:26.000Z</time>
      </trkpt>
      <trkpt lat="49.76827" lon="4.82887">
        <ele>259</ele>
        <time>2022-08-19T09:57:27.000Z</time>
      </trkpt>
      <trkpt lat="49.76824" lon="4.82881">
        <ele>259</ele>
        <time>2022-08-19T09:57:28.000Z</time>
      </trkpt>
      <trkpt lat="49.76821" lon="4.82875">
        <ele>259</ele>
        <time>2022-08-19T09:57:29.000Z</time>
      </trkpt>
      <trkpt lat="49.76818" lon="4.82869">
        <ele>259</ele>
        <time>2022-08-19T09:57:30.000Z</time>
      </trkpt>
      <trkpt lat="49.76815" lon="4.82862">
        <ele>259</ele>
        <time>2022-08-19T09:57:31.000Z</time>
      </trkpt>
      <trkpt lat="49.76812" lon="4.82855">
        <ele>259</ele>
        <time>2022-08-19T09:57:32.000Z</time>
      </trkpt>
      <trkpt lat="49.76808" lon="4.82848">
        <ele>258</ele>
        <time>2022-08-19T09:57:33.000Z</time>
      </trkpt>
      <trkpt lat="49.76804" lon="4.8284">
        <ele>258</ele>
        <time>2022-08-19T09:57:34.000Z</time>
      </trkpt>
      <trkpt lat="49.76801" lon="4.82832">
        <ele>258</ele>
        <time>2022-08-19T09:57:35.000Z</time>
      </trkpt>
      <trkpt lat="49.76797" lon="4.82825">
        <ele>258</ele>
        <time>2022-08-19T09:57:36.000Z</time>
      </trkpt>
      <trkpt lat="49.76793" lon="4.82817">
        <ele>258</ele>
        <time>2022-08-19T09:57:37.000Z</time>
      </trkpt>
      <trkpt lat="49.76789" lon="4.82809">
        <ele>257</ele>
        <time>2022-08-19T09:57:38.000Z</time>
      </trkpt>
      <trkpt lat="49.76785" lon="4.82801">
        <ele>257</ele>
        <time>2022-08-19T09:57:39.000Z</time>
      </trkpt>
      <trkpt lat="49.76781" lon="4.82793">
        <ele>257</ele>
        <time>2022-08-19T09:57:40.000Z</time>
      </trkpt>
      <trkpt lat="49.76777" lon="4.82785">
        <ele>256</ele>
        <time>2022-08-19T09:57:41.000Z</time>
      </trkpt>
      <trkpt lat="49.76773" lon="4.82777">
        <ele>256</ele>
        <time>2022-08-19T09:57:42.000Z</time>
      </trkpt>
      <trkpt lat="49.76769" lon="4.82768">
        <ele>256</ele>
        <time>2022-08-19T09:57:43.000Z</time>
      </trkpt>
      <trkpt lat="49.76766" lon="4.8276">
        <ele>255</ele>
        <time>2022-08-19T09:57:44.000Z</time>
      </trkpt>
      <trkpt lat="49.76762" lon="4.82751">
        <ele>255</ele>
        <time>2022-08-19T09:57:45.000Z</time>
      </trkpt>
      <trkpt lat="49.76759" lon="4.82742">
        <ele>255</ele>
        <time>2022-08-19T09:57:46.000Z</time>
      </trkpt>
      <trkpt lat="49.76755" lon="4.82734">
        <ele>254</ele>
        <time>2022-08-19T09:57:47.000Z</time>
      </trkpt>
      <trkpt lat="49.76751" lon="4.82726">
        <ele>254</ele>
        <time>2022-08-19T09:57:48.000Z</time>
      </trkpt>
      <trkpt lat="49.76747" lon="4.82718">
        <ele>254</ele>
        <time>2022-08-19T09:57:49.000Z</time>
      </trkpt>
      <trkpt lat="49.76744" lon="4.8271">
        <ele>253</ele>
        <time>2022-08-19T09:57:50.000Z</time>
      </trkpt>
      <trkpt lat="49.76741" lon="4.82702">
        <ele>253</ele>
        <time>2022-08-19T09:57:51.000Z</time>
      </trkpt>
      <trkpt lat="49.76738" lon="4.82695">
        <ele>252</ele>
        <time>2022-08-19T09:57:52.000Z</time>
      </trkpt>
      <trkpt lat="49.76735" lon="4.82687">
        <ele>252</ele>
        <time>2022-08-19T09:57:53.000Z</time>
      </trkpt>
      <trkpt lat="49.76732" lon="4.82679">
        <ele>252</ele>
        <time>2022-08-19T09:57:54.000Z</time>
      </trkpt>
      <trkpt lat="49.76729" lon="4.8267">
        <ele>252</ele>
        <time>2022-08-19T09:57:55.000Z</time>
      </trkpt>
      <trkpt lat="49.76726" lon="4.82661">
        <ele>252</ele>
        <time>2022-08-19T09:57:56.000Z</time>
      </trkpt>
      <trkpt lat="49.76724" lon="4.82652">
        <ele>251</ele>
        <time>2022-08-19T09:57:57.000Z</time>
      </trkpt>
      <trkpt lat="49.76721" lon="4.82643">
        <ele>251</ele>
        <time>2022-08-19T09:57:58.000Z</time>
      </trkpt>
      <trkpt lat="49.76719" lon="4.82634">
        <ele>251</ele>
        <time>2022-08-19T09:57:59.000Z</time>
      </trkpt>
      <trkpt lat="49.76716" lon="4.82624">
        <ele>251</ele>
        <time>2022-08-19T09:58:00.000Z</time>
      </trkpt>
      <trkpt lat="49.76714" lon="4.82615">
        <ele>251</ele>
        <time>2022-08-19T09:58:01.000Z</time>
      </trkpt>
      <trkpt lat="49.76711" lon="4.82606">
        <ele>250</ele>
        <time>2022-08-19T09:58:02.000Z</time>
      </trkpt>
      <trkpt lat="49.76709" lon="4.82596">
        <ele>250</ele>
        <time>2022-08-19T09:58:03.000Z</time>
      </trkpt>
      <trkpt lat="49.76706" lon="4.82587">
        <ele>250</ele>
        <time>2022-08-19T09:58:04.000Z</time>
      </trkpt>
      <trkpt lat="49.76704" lon="4.82579">
        <ele>250</ele>
        <time>2022-08-19T09:58:05.000Z</time>
      </trkpt>
      <trkpt lat="49.76703" lon="4.82571">
        <ele>250</ele>
        <time>2022-08-19T09:58:06.000Z</time>
      </trkpt>
      <trkpt lat="49.76701" lon="4.82564">
        <ele>250</ele>
        <time>2022-08-19T09:58:07.000Z</time>
      </trkpt>
      <trkpt lat="49.767" lon="4.82557">
        <ele>250</ele>
        <time>2022-08-19T09:58:08.000Z</time>
      </trkpt>
      <trkpt lat="49.76698" lon="4.82549">
        <ele>250</ele>
        <time>2022-08-19T09:58:09.000Z</time>
      </trkpt>
      <trkpt lat="49.76696" lon="4.82542">
        <ele>250</ele>
        <time>2022-08-19T09:58:10.000Z</time>
      </trkpt>
      <trkpt lat="49.76694" lon="4.82534">
        <ele>250</ele>
        <time>2022-08-19T09:58:11.000Z</time>
      </trkpt>
      <trkpt lat="49.76691" lon="4.82526">
        <ele>250</ele>
        <time>2022-08-19T09:58:12.000Z</time>
      </trkpt>
      <trkpt lat="49.7669" lon="4.82518">
        <ele>250</ele>
        <time>2022-08-19T09:58:13.000Z</time>
      </trkpt>
      <trkpt lat="49.76688" lon="4.82509">
        <ele>249</ele>
        <time>2022-08-19T09:58:14.000Z</time>
      </trkpt>
      <trkpt lat="49.76685" lon="4.82501">
        <ele>249</ele>
        <time>2022-08-19T09:58:15.000Z</time>
      </trkpt>
      <trkpt lat="49.76683" lon="4.82492">
        <ele>249</ele>
        <time>2022-08-19T09:58:16.000Z</time>
      </trkpt>
      <trkpt lat="49.76681" lon="4.82484">
        <ele>249</ele>
        <time>2022-08-19T09:58:17.000Z</time>
      </trkpt>
      <trkpt lat="49.76678" lon="4.82477">
        <ele>249</ele>
        <time>2022-08-19T09:58:18.000Z</time>
      </trkpt>
      <trkpt lat="49.76676" lon="4.82469">
        <ele>249</ele>
        <time>2022-08-19T09:58:19.000Z</time>
      </trkpt>
      <trkpt lat="49.76674" lon="4.82462">
        <ele>249</ele>
        <time>2022-08-19T09:58:20.000Z</time>
      </trkpt>
      <trkpt lat="49.76672" lon="4.82455">
        <ele>249</ele>
        <time>2022-08-19T09:58:21.000Z</time>
      </trkpt>
      <trkpt lat="49.7667" lon="4.82447">
        <ele>249</ele>
        <time>2022-08-19T09:58:22.000Z</time>
      </trkpt>
      <trkpt lat="49.76667" lon="4.82439">
        <ele>249</ele>
        <time>2022-08-19T09:58:23.000Z</time>
      </trkpt>
      <trkpt lat="49.76665" lon="4.82431">
        <ele>249</ele>
        <time>2022-08-19T09:58:24.000Z</time>
      </trkpt>
      <trkpt lat="49.76663" lon="4.82422">
        <ele>249</ele>
        <time>2022-08-19T09:58:25.000Z</time>
      </trkpt>
      <trkpt lat="49.76661" lon="4.82414">
        <ele>249</ele>
        <time>2022-08-19T09:58:26.000Z</time>
      </trkpt>
      <trkpt lat="49.76659" lon="4.82406">
        <ele>248</ele>
        <time>2022-08-19T09:58:27.000Z</time>
      </trkpt>
      <trkpt lat="49.76658" lon="4.82399">
        <ele>248</ele>
        <time>2022-08-19T09:58:28.000Z</time>
      </trkpt>
      <trkpt lat="49.76656" lon="4.82391">
        <ele>248</ele>
        <time>2022-08-19T09:58:29.000Z</time>
      </trkpt>
      <trkpt lat="49.76656" lon="4.82384">
        <ele>248</ele>
        <time>2022-08-19T09:58:30.000Z</time>
      </trkpt>
      <trkpt lat="49.76655" lon="4.82376">
        <ele>248</ele>
        <time>2022-08-19T09:58:31.000Z</time>
      </trkpt>
      <trkpt lat="49.76654" lon="4.82369">
        <ele>248</ele>
        <time>2022-08-19T09:58:32.000Z</time>
      </trkpt>
      <trkpt lat="49.76653" lon="4.8236">
        <ele>248</ele>
        <time>2022-08-19T09:58:33.000Z</time>
      </trkpt>
      <trkpt lat="49.76653" lon="4.82351">
        <ele>248</ele>
        <time>2022-08-19T09:58:34.000Z</time>
      </trkpt>
      <trkpt lat="49.76652" lon="4.82343">
        <ele>248</ele>
        <time>2022-08-19T09:58:35.000Z</time>
      </trkpt>
      <trkpt lat="49.76652" lon="4.82334">
        <ele>248</ele>
        <time>2022-08-19T09:58:36.000Z</time>
      </trkpt>
      <trkpt lat="49.76651" lon="4.82326">
        <ele>248</ele>
        <time>2022-08-19T09:58:37.000Z</time>
      </trkpt>
      <trkpt lat="49.7665" lon="4.82318">
        <ele>248</ele>
        <time>2022-08-19T09:58:38.000Z</time>
      </trkpt>
      <trkpt lat="49.7665" lon="4.8231">
        <ele>248</ele>
        <time>2022-08-19T09:58:39.000Z</time>
      </trkpt>
      <trkpt lat="49.76649" lon="4.82302">
        <ele>248</ele>
        <time>2022-08-19T09:58:40.000Z</time>
      </trkpt>
      <trkpt lat="49.7665" lon="4.82294">
        <ele>247</ele>
        <time>2022-08-19T09:58:41.000Z</time>
      </trkpt>
      <trkpt lat="49.7665" lon="4.82287">
        <ele>247</ele>
        <time>2022-08-19T09:58:42.000Z</time>
      </trkpt>
      <trkpt lat="49.7665" lon="4.82279">
        <ele>247</ele>
        <time>2022-08-19T09:58:43.000Z</time>
      </trkpt>
      <trkpt lat="49.7665" lon="4.82272">
        <ele>247</ele>
        <time>2022-08-19T09:58:44.000Z</time>
      </trkpt>
      <trkpt lat="49.76649" lon="4.82265">
        <ele>247</ele>
        <time>2022-08-19T09:58:45.000Z</time>
      </trkpt>
      <trkpt lat="49.76648" lon="4.82258">
        <ele>247</ele>
        <time>2022-08-19T09:58:46.000Z</time>
      </trkpt>
      <trkpt lat="49.76646" lon="4.82251">
        <ele>247</ele>
        <time>2022-08-19T09:58:47.000Z</time>
      </trkpt>
      <trkpt lat="49.76645" lon="4.82243">
        <ele>247</ele>
        <time>2022-08-19T09:58:48.000Z</time>
      </trkpt>
      <trkpt lat="49.76643" lon="4.82236">
        <ele>247</ele>
        <time>2022-08-19T09:58:49.000Z</time>
      </trkpt>
      <trkpt lat="49.76641" lon="4.82228">
        <ele>247</ele>
        <time>2022-08-19T09:58:50.000Z</time>
      </trkpt>
      <trkpt lat="49.76639" lon="4.8222">
        <ele>247</ele>
        <time>2022-08-19T09:58:51.000Z</time>
      </trkpt>
      <trkpt lat="49.76638" lon="4.82213">
        <ele>247</ele>
        <time>2022-08-19T09:58:52.000Z</time>
      </trkpt>
      <trkpt lat="49.76636" lon="4.82206">
        <ele>247</ele>
        <time>2022-08-19T09:58:53.000Z</time>
      </trkpt>
      <trkpt lat="49.76635" lon="4.82199">
        <ele>247</ele>
        <time>2022-08-19T09:58:54.000Z</time>
      </trkpt>
      <trkpt lat="49.76633" lon="4.82191">
        <ele>247</ele>
        <time>2022-08-19T09:58:55.000Z</time>
      </trkpt>
      <trkpt lat="49.76631" lon="4.82184">
        <ele>247</ele>
        <time>2022-08-19T09:58:56.000Z</time>
      </trkpt>
      <trkpt lat="49.76629" lon="4.82177">
        <ele>247</ele>
        <time>2022-08-19T09:58:57.000Z</time>
      </trkpt>
      <trkpt lat="49.76627" lon="4.82171">
        <ele>247</ele>
        <time>2022-08-19T09:58:58.000Z</time>
      </trkpt>
      <trkpt lat="49.76625" lon="4.82164">
        <ele>247</ele>
        <time>2022-08-19T09:58:59.000Z</time>
      </trkpt>
      <trkpt lat="49.76624" lon="4.82157">
        <ele>247</ele>
        <time>2022-08-19T09:59:00.000Z</time>
      </trkpt>
      <trkpt lat="49.76622" lon="4.82149">
        <ele>247</ele>
        <time>2022-08-19T09:59:01.000Z</time>
      </trkpt>
      <trkpt lat="49.7662" lon="4.82142">
        <ele>248</ele>
        <time>2022-08-19T09:59:02.000Z</time>
      </trkpt>
      <trkpt lat="49.76619" lon="4.82135">
        <ele>248</ele>
        <time>2022-08-19T09:59:03.000Z</time>
      </trkpt>
      <trkpt lat="49.76617" lon="4.82128">
        <ele>248</ele>
        <time>2022-08-19T09:59:04.000Z</time>
      </trkpt>
      <trkpt lat="49.76615" lon="4.82121">
        <ele>248</ele>
        <time>2022-08-19T09:59:05.000Z</time>
      </trkpt>
      <trkpt lat="49.76613" lon="4.82115">
        <ele>248</ele>
        <time>2022-08-19T09:59:06.000Z</time>
      </trkpt>
      <trkpt lat="49.76611" lon="4.82108">
        <ele>248</ele>
        <time>2022-08-19T09:59:07.000Z</time>
      </trkpt>
      <trkpt lat="49.76609" lon="4.82101">
        <ele>248</ele>
        <time>2022-08-19T09:59:08.000Z</time>
      </trkpt>
      <trkpt lat="49.76607" lon="4.82095">
        <ele>248</ele>
        <time>2022-08-19T09:59:09.000Z</time>
      </trkpt>
      <trkpt lat="49.76606" lon="4.82088">
        <ele>248</ele>
        <time>2022-08-19T09:59:10.000Z</time>
      </trkpt>
      <trkpt lat="49.76604" lon="4.82081">
        <ele>248</ele>
        <time>2022-08-19T09:59:11.000Z</time>
      </trkpt>
      <trkpt lat="49.76602" lon="4.82075">
        <ele>248</ele>
        <time>2022-08-19T09:59:12.000Z</time>
      </trkpt>
      <trkpt lat="49.76601" lon="4.82068">
        <ele>248</ele>
        <time>2022-08-19T09:59:13.000Z</time>
      </trkpt>
      <trkpt lat="49.76599" lon="4.82062">
        <ele>249</ele>
        <time>2022-08-19T09:59:14.000Z</time>
      </trkpt>
      <trkpt lat="49.76598" lon="4.82055">
        <ele>249</ele>
        <time>2022-08-19T09:59:15.000Z</time>
      </trkpt>
      <trkpt lat="49.76596" lon="4.82048">
        <ele>249</ele>
        <time>2022-08-19T09:59:16.000Z</time>
      </trkpt>
      <trkpt lat="49.76595" lon="4.82042">
        <ele>249</ele>
        <time>2022-08-19T09:59:17.000Z</time>
      </trkpt>
      <trkpt lat="49.76594" lon="4.82035">
        <ele>249</ele>
        <time>2022-08-19T09:59:18.000Z</time>
      </trkpt>
      <trkpt lat="49.76593" lon="4.82028">
        <ele>248</ele>
        <time>2022-08-19T09:59:19.000Z</time>
      </trkpt>
      <trkpt lat="49.76592" lon="4.82021">
        <ele>248</ele>
        <time>2022-08-19T09:59:20.000Z</time>
      </trkpt>
      <trkpt lat="49.76592" lon="4.82015">
        <ele>248</ele>
        <time>2022-08-19T09:59:21.000Z</time>
      </trkpt>
      <trkpt lat="49.76591" lon="4.82009">
        <ele>248</ele>
        <time>2022-08-19T09:59:22.000Z</time>
      </trkpt>
      <trkpt lat="49.7659" lon="4.82004">
        <ele>248</ele>
        <time>2022-08-19T09:59:23.000Z</time>
      </trkpt>
      <trkpt lat="49.76588" lon="4.82001">
        <ele>248</ele>
        <time>2022-08-19T09:59:24.000Z</time>
      </trkpt>
      <trkpt lat="49.76586" lon="4.81999">
        <ele>248</ele>
        <time>2022-08-19T09:59:25.000Z</time>
      </trkpt>
      <trkpt lat="49.76583" lon="4.81998">
        <ele>248</ele>
        <time>2022-08-19T09:59:26.000Z</time>
      </trkpt>
      <trkpt lat="49.7658" lon="4.82">
        <ele>248</ele>
        <time>2022-08-19T09:59:27.000Z</time>
      </trkpt>
      <trkpt lat="49.76576" lon="4.82002">
        <ele>249</ele>
        <time>2022-08-19T09:59:28.000Z</time>
      </trkpt>
      <trkpt lat="49.76573" lon="4.82005">
        <ele>249</ele>
        <time>2022-08-19T09:59:29.000Z</time>
      </trkpt>
      <trkpt lat="49.76569" lon="4.82009">
        <ele>249</ele>
        <time>2022-08-19T09:59:30.000Z</time>
      </trkpt>
      <trkpt lat="49.76565" lon="4.82013">
        <ele>249</ele>
        <time>2022-08-19T09:59:31.000Z</time>
      </trkpt>
      <trkpt lat="49.76562" lon="4.82017">
        <ele>249</ele>
        <time>2022-08-19T09:59:32.000Z</time>
      </trkpt>
      <trkpt lat="49.76558" lon="4.82021">
        <ele>249</ele>
        <time>2022-08-19T09:59:33.000Z</time>
      </trkpt>
      <trkpt lat="49.76554" lon="4.82025">
        <ele>249</ele>
        <time>2022-08-19T09:59:34.000Z</time>
      </trkpt>
      <trkpt lat="49.7655" lon="4.82027">
        <ele>249</ele>
        <time>2022-08-19T09:59:35.000Z</time>
      </trkpt>
      <trkpt lat="49.76546" lon="4.82027">
        <ele>249</ele>
        <time>2022-08-19T09:59:36.000Z</time>
      </trkpt>
      <trkpt lat="49.76541" lon="4.82024">
        <ele>249</ele>
        <time>2022-08-19T09:59:37.000Z</time>
      </trkpt>
      <trkpt lat="49.76538" lon="4.82019">
        <ele>249</ele>
        <time>2022-08-19T09:59:38.000Z</time>
      </trkpt>
      <trkpt lat="49.76536" lon="4.82014">
        <ele>249</ele>
        <time>2022-08-19T09:59:39.000Z</time>
      </trkpt>
      <trkpt lat="49.76534" lon="4.82007">
        <ele>249</ele>
        <time>2022-08-19T09:59:40.000Z</time>
      </trkpt>
      <trkpt lat="49.76532" lon="4.82001">
        <ele>249</ele>
        <time>2022-08-19T09:59:41.000Z</time>
      </trkpt>
      <trkpt lat="49.7653" lon="4.81995">
        <ele>249</ele>
        <time>2022-08-19T09:59:42.000Z</time>
      </trkpt>
      <trkpt lat="49.76528" lon="4.81989">
        <ele>249</ele>
        <time>2022-08-19T09:59:43.000Z</time>
      </trkpt>
      <trkpt lat="49.76526" lon="4.81982">
        <ele>249</ele>
        <time>2022-08-19T09:59:44.000Z</time>
      </trkpt>
      <trkpt lat="49.76524" lon="4.81976">
        <ele>249</ele>
        <time>2022-08-19T09:59:45.000Z</time>
      </trkpt>
      <trkpt lat="49.76522" lon="4.8197">
        <ele>249</ele>
        <time>2022-08-19T09:59:46.000Z</time>
      </trkpt>
      <trkpt lat="49.7652" lon="4.81964">
        <ele>249</ele>
        <time>2022-08-19T09:59:47.000Z</time>
      </trkpt>
      <trkpt lat="49.76518" lon="4.81958">
        <ele>249</ele>
        <time>2022-08-19T09:59:48.000Z</time>
      </trkpt>
      <trkpt lat="49.76517" lon="4.81952">
        <ele>249</ele>
        <time>2022-08-19T09:59:49.000Z</time>
      </trkpt>
      <trkpt lat="49.76516" lon="4.81946">
        <ele>249</ele>
        <time>2022-08-19T09:59:50.000Z</time>
      </trkpt>
      <trkpt lat="49.76514" lon="4.8194">
        <ele>250</ele>
        <time>2022-08-19T09:59:51.000Z</time>
      </trkpt>
      <trkpt lat="49.76512" lon="4.81934">
        <ele>250</ele>
        <time>2022-08-19T09:59:52.000Z</time>
      </trkpt>
      <trkpt lat="49.7651" lon="4.81929">
        <ele>250</ele>
        <time>2022-08-19T09:59:53.000Z</time>
      </trkpt>
      <trkpt lat="49.76508" lon="4.81924">
        <ele>250</ele>
        <time>2022-08-19T09:59:54.000Z</time>
      </trkpt>
      <trkpt lat="49.76506" lon="4.81918">
        <ele>250</ele>
        <time>2022-08-19T09:59:55.000Z</time>
      </trkpt>
      <trkpt lat="49.76505" lon="4.81913">
        <ele>250</ele>
        <time>2022-08-19T09:59:56.000Z</time>
      </trkpt>
      <trkpt lat="49.76503" lon="4.81908">
        <ele>250</ele>
        <time>2022-08-19T09:59:57.000Z</time>
      </trkpt>
      <trkpt lat="49.76502" lon="4.81903">
        <ele>250</ele>
        <time>2022-08-19T09:59:58.000Z</time>
      </trkpt>
      <trkpt lat="49.765" lon="4.81897">
        <ele>251</ele>
        <time>2022-08-19T09:59:59.000Z</time>
      </trkpt>
      <trkpt lat="49.76498" lon="4.81892">
        <ele>251</ele>
        <time>2022-08-19T10:00:00.000Z</time>
      </trkpt>
      <trkpt lat="49.76497" lon="4.81886">
        <ele>251</ele>
        <time>2022-08-19T10:00:01.000Z</time>
      </trkpt>
      <trkpt lat="49.76496" lon="4.81881">
        <ele>251</ele>
        <time>2022-08-19T10:00:02.000Z</time>
      </trkpt>
      <trkpt lat="49.76495" lon="4.81875">
        <ele>251</ele>
        <time>2022-08-19T10:00:03.000Z</time>
      </trkpt>
      <trkpt lat="49.76494" lon="4.81869">
        <ele>251</ele>
        <time>2022-08-19T10:00:04.000Z</time>
      </trkpt>
      <trkpt lat="49.76492" lon="4.81863">
        <ele>251</ele>
        <time>2022-08-19T10:00:05.000Z</time>
      </trkpt>
      <trkpt lat="49.76491" lon="4.81857">
        <ele>252</ele>
        <time>2022-08-19T10:00:06.000Z</time>
      </trkpt>
      <trkpt lat="49.76489" lon="4.81851">
        <ele>252</ele>
        <time>2022-08-19T10:00:07.000Z</time>
      </trkpt>
      <trkpt lat="49.76488" lon="4.81845">
        <ele>252</ele>
        <time>2022-08-19T10:00:08.000Z</time>
      </trkpt>
      <trkpt lat="49.76487" lon="4.8184">
        <ele>252</ele>
        <time>2022-08-19T10:00:09.000Z</time>
      </trkpt>
      <trkpt lat="49.76485" lon="4.81833">
        <ele>252</ele>
        <time>2022-08-19T10:00:10.000Z</time>
      </trkpt>
      <trkpt lat="49.76484" lon="4.81827">
        <ele>252</ele>
        <time>2022-08-19T10:00:11.000Z</time>
      </trkpt>
      <trkpt lat="49.76483" lon="4.81821">
        <ele>252</ele>
        <time>2022-08-19T10:00:12.000Z</time>
      </trkpt>
      <trkpt lat="49.76481" lon="4.81814">
        <ele>252</ele>
        <time>2022-08-19T10:00:13.000Z</time>
      </trkpt>
      <trkpt lat="49.7648" lon="4.81808">
        <ele>252</ele>
        <time>2022-08-19T10:00:14.000Z</time>
      </trkpt>
      <trkpt lat="49.76478" lon="4.81802">
        <ele>252</ele>
        <time>2022-08-19T10:00:15.000Z</time>
      </trkpt>
      <trkpt lat="49.76477" lon="4.81796">
        <ele>252</ele>
        <time>2022-08-19T10:00:16.000Z</time>
      </trkpt>
      <trkpt lat="49.76475" lon="4.81791">
        <ele>252</ele>
        <time>2022-08-19T10:00:17.000Z</time>
      </trkpt>
      <trkpt lat="49.76474" lon="4.81785">
        <ele>252</ele>
        <time>2022-08-19T10:00:18.000Z</time>
      </trkpt>
      <trkpt lat="49.76473" lon="4.8178">
        <ele>252</ele>
        <time>2022-08-19T10:00:19.000Z</time>
      </trkpt>
      <trkpt lat="49.76471" lon="4.81774">
        <ele>252</ele>
        <time>2022-08-19T10:00:20.000Z</time>
      </trkpt>
      <trkpt lat="49.7647" lon="4.81769">
        <ele>253</ele>
        <time>2022-08-19T10:00:21.000Z</time>
      </trkpt>
      <trkpt lat="49.76469" lon="4.81763">
        <ele>253</ele>
        <time>2022-08-19T10:00:22.000Z</time>
      </trkpt>
      <trkpt lat="49.76467" lon="4.81758">
        <ele>253</ele>
        <time>2022-08-19T10:00:23.000Z</time>
      </trkpt>
      <trkpt lat="49.76466" lon="4.81754">
        <ele>253</ele>
        <time>2022-08-19T10:00:24.000Z</time>
      </trkpt>
      <trkpt lat="49.76465" lon="4.81749">
        <ele>253</ele>
        <time>2022-08-19T10:00:25.000Z</time>
      </trkpt>
      <trkpt lat="49.76464" lon="4.81745">
        <ele>253</ele>
        <time>2022-08-19T10:00:26.000Z</time>
      </trkpt>
      <trkpt lat="49.76463" lon="4.81741">
        <ele>253</ele>
        <time>2022-08-19T10:00:27.000Z</time>
      </trkpt>
      <trkpt lat="49.76462" lon="4.81736">
        <ele>253</ele>
        <time>2022-08-19T10:00:28.000Z</time>
      </trkpt>
      <trkpt lat="49.76461" lon="4.81732">
        <ele>253</ele>
        <time>2022-08-19T10:00:29.000Z</time>
      </trkpt>
      <trkpt lat="49.76459" lon="4.81728">
        <ele>253</ele>
        <time>2022-08-19T10:00:30.000Z</time>
      </trkpt>
      <trkpt lat="49.76458" lon="4.81723">
        <ele>253</ele>
        <time>2022-08-19T10:00:31.000Z</time>
      </trkpt>
      <trkpt lat="49.76457" lon="4.81719">
        <ele>254</ele>
        <time>2022-08-19T10:00:32.000Z</time>
      </trkpt>
      <trkpt lat="49.76456" lon="4.81714">
        <ele>254</ele>
        <time>2022-08-19T10:00:33.000Z</time>
      </trkpt>
      <trkpt lat="49.76455" lon="4.8171">
        <ele>254</ele>
        <time>2022-08-19T10:00:34.000Z</time>
      </trkpt>
      <trkpt lat="49.76454" lon="4.81705">
        <ele>254</ele>
        <time>2022-08-19T10:00:35.000Z</time>
      </trkpt>
      <trkpt lat="49.76453" lon="4.81701">
        <ele>254</ele>
        <time>2022-08-19T10:00:36.000Z</time>
      </trkpt>
      <trkpt lat="49.76451" lon="4.81697">
        <ele>254</ele>
        <time>2022-08-19T10:00:37.000Z</time>
      </trkpt>
      <trkpt lat="49.7645" lon="4.81693">
        <ele>254</ele>
        <time>2022-08-19T10:00:38.000Z</time>
      </trkpt>
      <trkpt lat="49.76449" lon="4.81688">
        <ele>254</ele>
        <time>2022-08-19T10:00:39.000Z</time>
      </trkpt>
      <trkpt lat="49.76448" lon="4.81684">
        <ele>254</ele>
        <time>2022-08-19T10:00:40.000Z</time>
      </trkpt>
      <trkpt lat="49.76447" lon="4.8168">
        <ele>254</ele>
        <time>2022-08-19T10:00:41.000Z</time>
      </trkpt>
      <trkpt lat="49.76446" lon="4.81676">
        <ele>254</ele>
        <time>2022-08-19T10:00:42.000Z</time>
      </trkpt>
      <trkpt lat="49.76445" lon="4.81672">
        <ele>254</ele>
        <time>2022-08-19T10:00:43.000Z</time>
      </trkpt>
      <trkpt lat="49.76444" lon="4.81668">
        <ele>254</ele>
        <time>2022-08-19T10:00:44.000Z</time>
      </trkpt>
      <trkpt lat="49.76443" lon="4.81664">
        <ele>254</ele>
        <time>2022-08-19T10:00:45.000Z</time>
      </trkpt>
      <trkpt lat="49.76442" lon="4.8166">
        <ele>254</ele>
        <time>2022-08-19T10:00:46.000Z</time>
      </trkpt>
      <trkpt lat="49.76441" lon="4.81655">
        <ele>254</ele>
        <time>2022-08-19T10:00:47.000Z</time>
      </trkpt>
      <trkpt lat="49.7644" lon="4.81651">
        <ele>254</ele>
        <time>2022-08-19T10:00:48.000Z</time>
      </trkpt>
      <trkpt lat="49.76439" lon="4.81647">
        <ele>255</ele>
        <time>2022-08-19T10:00:49.000Z</time>
      </trkpt>
      <trkpt lat="49.76438" lon="4.81643">
        <ele>255</ele>
        <time>2022-08-19T10:00:50.000Z</time>
      </trkpt>
      <trkpt lat="49.76437" lon="4.81639">
        <ele>255</ele>
        <time>2022-08-19T10:00:51.000Z</time>
      </trkpt>
      <trkpt lat="49.76436" lon="4.81635">
        <ele>255</ele>
        <time>2022-08-19T10:00:52.000Z</time>
      </trkpt>
      <trkpt lat="49.76436" lon="4.81632">
        <ele>255</ele>
        <time>2022-08-19T10:00:53.000Z</time>
      </trkpt>
      <trkpt lat="49.76435" lon="4.81629">
        <ele>255</ele>
        <time>2022-08-19T10:00:54.000Z</time>
      </trkpt>
      <trkpt lat="49.76435" lon="4.81626">
        <ele>255</ele>
        <time>2022-08-19T10:00:55.000Z</time>
      </trkpt>
      <trkpt lat="49.76435" lon="4.81624">
        <ele>255</ele>
        <time>2022-08-19T10:00:56.000Z</time>
      </trkpt>
      <trkpt lat="49.76434" lon="4.81621">
        <ele>256</ele>
        <time>2022-08-19T10:00:57.000Z</time>
      </trkpt>
      <trkpt lat="49.76433" lon="4.81619">
        <ele>256</ele>
        <time>2022-08-19T10:00:58.000Z</time>
      </trkpt>
      <trkpt lat="49.76433" lon="4.81616">
        <ele>256</ele>
        <time>2022-08-19T10:00:59.000Z</time>
      </trkpt>
      <trkpt lat="49.76432" lon="4.81612">
        <ele>256</ele>
        <time>2022-08-19T10:01:00.000Z</time>
      </trkpt>
      <trkpt lat="49.76431" lon="4.81609">
        <ele>257</ele>
        <time>2022-08-19T10:01:01.000Z</time>
      </trkpt>
      <trkpt lat="49.76431" lon="4.81607">
        <ele>257</ele>
        <time>2022-08-19T10:01:02.000Z</time>
      </trkpt>
      <trkpt lat="49.7643" lon="4.81604">
        <ele>257</ele>
        <time>2022-08-19T10:01:03.000Z</time>
      </trkpt>
      <trkpt lat="49.7643" lon="4.81602">
        <ele>257</ele>
        <time>2022-08-19T10:01:04.000Z</time>
      </trkpt>
      <trkpt lat="49.7643" lon="4.81599">
        <ele>257</ele>
        <time>2022-08-19T10:01:05.000Z</time>
      </trkpt>
      <trkpt lat="49.76429" lon="4.81597">
        <ele>257</ele>
        <time>2022-08-19T10:01:06.000Z</time>
      </trkpt>
      <trkpt lat="49.76428" lon="4.81594">
        <ele>257</ele>
        <time>2022-08-19T10:01:07.000Z</time>
      </trkpt>
      <trkpt lat="49.76428" lon="4.81592">
        <ele>257</ele>
        <time>2022-08-19T10:01:08.000Z</time>
      </trkpt>
      <trkpt lat="49.76428" lon="4.8159">
        <ele>258</ele>
        <time>2022-08-19T10:01:09.000Z</time>
      </trkpt>
      <trkpt lat="49.76428" lon="4.81588">
        <ele>258</ele>
        <time>2022-08-19T10:01:10.000Z</time>
      </trkpt>
      <trkpt lat="49.76428" lon="4.81586">
        <ele>258</ele>
        <time>2022-08-19T10:01:11.000Z</time>
      </trkpt>
      <trkpt lat="49.76427" lon="4.81583">
        <ele>258</ele>
        <time>2022-08-19T10:01:12.000Z</time>
      </trkpt>
      <trkpt lat="49.76427" lon="4.81581">
        <ele>259</ele>
        <time>2022-08-19T10:01:13.000Z</time>
      </trkpt>
      <trkpt lat="49.76427" lon="4.81578">
        <ele>259</ele>
        <time>2022-08-19T10:01:14.000Z</time>
      </trkpt>
      <trkpt lat="49.76426" lon="4.81576">
        <ele>259</ele>
        <time>2022-08-19T10:01:15.000Z</time>
      </trkpt>
      <trkpt lat="49.76426" lon="4.81573">
        <ele>260</ele>
        <time>2022-08-19T10:01:16.000Z</time>
      </trkpt>
      <trkpt lat="49.76425" lon="4.8157">
        <ele>260</ele>
        <time>2022-08-19T10:01:17.000Z</time>
      </trkpt>
      <trkpt lat="49.76425" lon="4.81568">
        <ele>261</ele>
        <time>2022-08-19T10:01:18.000Z</time>
      </trkpt>
      <trkpt lat="49.76424" lon="4.81565">
        <ele>261</ele>
        <time>2022-08-19T10:01:19.000Z</time>
      </trkpt>
      <trkpt lat="49.76423" lon="4.81562">
        <ele>262</ele>
        <time>2022-08-19T10:01:20.000Z</time>
      </trkpt>
      <trkpt lat="49.76422" lon="4.8156">
        <ele>262</ele>
        <time>2022-08-19T10:01:21.000Z</time>
      </trkpt>
      <trkpt lat="49.76421" lon="4.81557">
        <ele>263</ele>
        <time>2022-08-19T10:01:22.000Z</time>
      </trkpt>
      <trkpt lat="49.76419" lon="4.81555">
        <ele>263</ele>
        <time>2022-08-19T10:01:23.000Z</time>
      </trkpt>
      <trkpt lat="49.76418" lon="4.81553">
        <ele>264</ele>
        <time>2022-08-19T10:01:24.000Z</time>
      </trkpt>
      <trkpt lat="49.76418" lon="4.81551">
        <ele>265</ele>
        <time>2022-08-19T10:01:25.000Z</time>
      </trkpt>
      <trkpt lat="49.76417" lon="4.81548">
        <ele>265</ele>
        <time>2022-08-19T10:01:26.000Z</time>
      </trkpt>
      <trkpt lat="49.76416" lon="4.81546">
        <ele>266</ele>
        <time>2022-08-19T10:01:27.000Z</time>
      </trkpt>
      <trkpt lat="49.76414" lon="4.81545">
        <ele>266</ele>
        <time>2022-08-19T10:01:28.000Z</time>
      </trkpt>
      <trkpt lat="49.76412" lon="4.81543">
        <ele>267</ele>
        <time>2022-08-19T10:01:29.000Z</time>
      </trkpt>
      <trkpt lat="49.76411" lon="4.8154">
        <ele>267</ele>
        <time>2022-08-19T10:01:30.000Z</time>
      </trkpt>
      <trkpt lat="49.76409" lon="4.81538">
        <ele>268</ele>
        <time>2022-08-19T10:01:31.000Z</time>
      </trkpt>
      <trkpt lat="49.76408" lon="4.81535">
        <ele>269</ele>
        <time>2022-08-19T10:01:32.000Z</time>
      </trkpt>
      <trkpt lat="49.76406" lon="4.81533">
        <ele>269</ele>
        <time>2022-08-19T10:01:33.000Z</time>
      </trkpt>
      <trkpt lat="49.76404" lon="4.8153">
        <ele>269</ele>
        <time>2022-08-19T10:01:34.000Z</time>
      </trkpt>
      <trkpt lat="49.76403" lon="4.81527">
        <ele>270</ele>
        <time>2022-08-19T10:01:35.000Z</time>
      </trkpt>
      <trkpt lat="49.76401" lon="4.81524">
        <ele>270</ele>
        <time>2022-08-19T10:01:36.000Z</time>
      </trkpt>
      <trkpt lat="49.764" lon="4.81521">
        <ele>271</ele>
        <time>2022-08-19T10:01:37.000Z</time>
      </trkpt>
      <trkpt lat="49.76398" lon="4.81517">
        <ele>271</ele>
        <time>2022-08-19T10:01:38.000Z</time>
      </trkpt>
      <trkpt lat="49.76396" lon="4.81514">
        <ele>272</ele>
        <time>2022-08-19T10:01:39.000Z</time>
      </trkpt>
      <trkpt lat="49.76394" lon="4.8151">
        <ele>272</ele>
        <time>2022-08-19T10:01:40.000Z</time>
      </trkpt>
      <trkpt lat="49.76392" lon="4.81507">
        <ele>272</ele>
        <time>2022-08-19T10:01:41.000Z</time>
      </trkpt>
      <trkpt lat="49.7639" lon="4.81503">
        <ele>273</ele>
        <time>2022-08-19T10:01:42.000Z</time>
      </trkpt>
      <trkpt lat="49.76388" lon="4.81499">
        <ele>273</ele>
        <time>2022-08-19T10:01:43.000Z</time>
      </trkpt>
      <trkpt lat="49.76386" lon="4.81496">
        <ele>273</ele>
        <time>2022-08-19T10:01:44.000Z</time>
      </trkpt>
      <trkpt lat="49.76384" lon="4.81492">
        <ele>273</ele>
        <time>2022-08-19T10:01:45.000Z</time>
      </trkpt>
      <trkpt lat="49.76382" lon="4.81489">
        <ele>273</ele>
        <time>2022-08-19T10:01:46.000Z</time>
      </trkpt>
      <trkpt lat="49.76379" lon="4.81486">
        <ele>274</ele>
        <time>2022-08-19T10:01:47.000Z</time>
      </trkpt>
      <trkpt lat="49.76377" lon="4.81482">
        <ele>274</ele>
        <time>2022-08-19T10:01:48.000Z</time>
      </trkpt>
      <trkpt lat="49.76374" lon="4.8148">
        <ele>274</ele>
        <time>2022-08-19T10:01:49.000Z</time>
      </trkpt>
      <trkpt lat="49.76372" lon="4.81477">
        <ele>274</ele>
        <time>2022-08-19T10:01:50.000Z</time>
      </trkpt>
      <trkpt lat="49.76369" lon="4.81475">
        <ele>275</ele>
        <time>2022-08-19T10:01:51.000Z</time>
      </trkpt>
      <trkpt lat="49.76366" lon="4.81473">
        <ele>275</ele>
        <time>2022-08-19T10:01:52.000Z</time>
      </trkpt>
      <trkpt lat="49.76363" lon="4.81471">
        <ele>275</ele>
        <time>2022-08-19T10:01:53.000Z</time>
      </trkpt>
      <trkpt lat="49.7636" lon="4.81469">
        <ele>275</ele>
        <time>2022-08-19T10:01:54.000Z</time>
      </trkpt>
      <trkpt lat="49.76357" lon="4.81468">
        <ele>275</ele>
        <time>2022-08-19T10:01:55.000Z</time>
      </trkpt>
      <trkpt lat="49.76353" lon="4.81466">
        <ele>275</ele>
        <time>2022-08-19T10:01:56.000Z</time>
      </trkpt>
      <trkpt lat="49.7635" lon="4.81466">
        <ele>275</ele>
        <time>2022-08-19T10:01:57.000Z</time>
      </trkpt>
      <trkpt lat="49.76347" lon="4.81465">
        <ele>275</ele>
        <time>2022-08-19T10:01:58.000Z</time>
      </trkpt>
      <trkpt lat="49.76343" lon="4.81463">
        <ele>275</ele>
        <time>2022-08-19T10:01:59.000Z</time>
      </trkpt>
      <trkpt lat="49.7634" lon="4.81462">
        <ele>275</ele>
        <time>2022-08-19T10:02:00.000Z</time>
      </trkpt>
      <trkpt lat="49.76336" lon="4.81461">
        <ele>275</ele>
        <time>2022-08-19T10:02:01.000Z</time>
      </trkpt>
      <trkpt lat="49.76332" lon="4.81461">
        <ele>275</ele>
        <time>2022-08-19T10:02:02.000Z</time>
      </trkpt>
      <trkpt lat="49.76328" lon="4.8146">
        <ele>275</ele>
        <time>2022-08-19T10:02:03.000Z</time>
      </trkpt>
      <trkpt lat="49.76324" lon="4.8146">
        <ele>275</ele>
        <time>2022-08-19T10:02:04.000Z</time>
      </trkpt>
      <trkpt lat="49.76319" lon="4.81459">
        <ele>275</ele>
        <time>2022-08-19T10:02:05.000Z</time>
      </trkpt>
      <trkpt lat="49.76314" lon="4.81459">
        <ele>275</ele>
        <time>2022-08-19T10:02:06.000Z</time>
      </trkpt>
      <trkpt lat="49.76309" lon="4.81458">
        <ele>275</ele>
        <time>2022-08-19T10:02:07.000Z</time>
      </trkpt>
      <trkpt lat="49.76304" lon="4.81457">
        <ele>275</ele>
        <time>2022-08-19T10:02:08.000Z</time>
      </trkpt>
      <trkpt lat="49.76299" lon="4.81456">
        <ele>275</ele>
        <time>2022-08-19T10:02:09.000Z</time>
      </trkpt>
      <trkpt lat="49.76293" lon="4.81456">
        <ele>275</ele>
        <time>2022-08-19T10:02:10.000Z</time>
      </trkpt>
      <trkpt lat="49.76286" lon="4.81455">
        <ele>274</ele>
        <time>2022-08-19T10:02:11.000Z</time>
      </trkpt>
      <trkpt lat="49.7628" lon="4.81454">
        <ele>274</ele>
        <time>2022-08-19T10:02:12.000Z</time>
      </trkpt>
      <trkpt lat="49.76272" lon="4.81453">
        <ele>274</ele>
        <time>2022-08-19T10:02:13.000Z</time>
      </trkpt>
      <trkpt lat="49.76265" lon="4.81452">
        <ele>274</ele>
        <time>2022-08-19T10:02:14.000Z</time>
      </trkpt>
      <trkpt lat="49.76258" lon="4.81451">
        <ele>274</ele>
        <time>2022-08-19T10:02:15.000Z</time>
      </trkpt>
      <trkpt lat="49.7625" lon="4.81451">
        <ele>274</ele>
        <time>2022-08-19T10:02:16.000Z</time>
      </trkpt>
      <trkpt lat="49.76242" lon="4.8145">
        <ele>273</ele>
        <time>2022-08-19T10:02:17.000Z</time>
      </trkpt>
      <trkpt lat="49.76234" lon="4.81449">
        <ele>273</ele>
        <time>2022-08-19T10:02:18.000Z</time>
      </trkpt>
      <trkpt lat="49.76227" lon="4.81449">
        <ele>273</ele>
        <time>2022-08-19T10:02:19.000Z</time>
      </trkpt>
      <trkpt lat="49.76219" lon="4.8145">
        <ele>272</ele>
        <time>2022-08-19T10:02:20.000Z</time>
      </trkpt>
      <trkpt lat="49.76212" lon="4.81449">
        <ele>272</ele>
        <time>2022-08-19T10:02:21.000Z</time>
      </trkpt>
      <trkpt lat="49.76204" lon="4.81449">
        <ele>272</ele>
        <time>2022-08-19T10:02:22.000Z</time>
      </trkpt>
      <trkpt lat="49.76197" lon="4.81448">
        <ele>271</ele>
        <time>2022-08-19T10:02:23.000Z</time>
      </trkpt>
      <trkpt lat="49.7619" lon="4.81448">
        <ele>271</ele>
        <time>2022-08-19T10:02:24.000Z</time>
      </trkpt>
      <trkpt lat="49.76182" lon="4.81447">
        <ele>270</ele>
        <time>2022-08-19T10:02:25.000Z</time>
      </trkpt>
      <trkpt lat="49.76176" lon="4.81446">
        <ele>270</ele>
        <time>2022-08-19T10:02:26.000Z</time>
      </trkpt>
      <trkpt lat="49.76169" lon="4.81444">
        <ele>270</ele>
        <time>2022-08-19T10:02:27.000Z</time>
      </trkpt>
      <trkpt lat="49.76162" lon="4.81442">
        <ele>269</ele>
        <time>2022-08-19T10:02:28.000Z</time>
      </trkpt>
      <trkpt lat="49.76156" lon="4.81441">
        <ele>269</ele>
        <time>2022-08-19T10:02:29.000Z</time>
      </trkpt>
      <trkpt lat="49.76149" lon="4.8144">
        <ele>269</ele>
        <time>2022-08-19T10:02:30.000Z</time>
      </trkpt>
      <trkpt lat="49.76143" lon="4.81439">
        <ele>269</ele>
        <time>2022-08-19T10:02:31.000Z</time>
      </trkpt>
      <trkpt lat="49.76137" lon="4.81438">
        <ele>269</ele>
        <time>2022-08-19T10:02:32.000Z</time>
      </trkpt>
      <trkpt lat="49.76131" lon="4.81437">
        <ele>268</ele>
        <time>2022-08-19T10:02:33.000Z</time>
      </trkpt>
      <trkpt lat="49.76125" lon="4.81437">
        <ele>268</ele>
        <time>2022-08-19T10:02:34.000Z</time>
      </trkpt>
      <trkpt lat="49.76119" lon="4.81436">
        <ele>268</ele>
        <time>2022-08-19T10:02:35.000Z</time>
      </trkpt>
      <trkpt lat="49.76113" lon="4.81435">
        <ele>268</ele>
        <time>2022-08-19T10:02:36.000Z</time>
      </trkpt>
      <trkpt lat="49.76107" lon="4.81434">
        <ele>268</ele>
        <time>2022-08-19T10:02:37.000Z</time>
      </trkpt>
      <trkpt lat="49.76101" lon="4.81431">
        <ele>268</ele>
        <time>2022-08-19T10:02:38.000Z</time>
      </trkpt>
      <trkpt lat="49.76096" lon="4.81428">
        <ele>268</ele>
        <time>2022-08-19T10:02:39.000Z</time>
      </trkpt>
      <trkpt lat="49.7609" lon="4.81424">
        <ele>268</ele>
        <time>2022-08-19T10:02:40.000Z</time>
      </trkpt>
      <trkpt lat="49.76084" lon="4.81419">
        <ele>268</ele>
        <time>2022-08-19T10:02:41.000Z</time>
      </trkpt>
      <trkpt lat="49.76078" lon="4.81415">
        <ele>268</ele>
        <time>2022-08-19T10:02:42.000Z</time>
      </trkpt>
      <trkpt lat="49.76072" lon="4.81411">
        <ele>268</ele>
        <time>2022-08-19T10:02:43.000Z</time>
      </trkpt>
      <trkpt lat="49.76066" lon="4.81407">
        <ele>268</ele>
        <time>2022-08-19T10:02:44.000Z</time>
      </trkpt>
      <trkpt lat="49.7606" lon="4.81403">
        <ele>267</ele>
        <time>2022-08-19T10:02:45.000Z</time>
      </trkpt>
      <trkpt lat="49.76054" lon="4.81399">
        <ele>267</ele>
        <time>2022-08-19T10:02:46.000Z</time>
      </trkpt>
      <trkpt lat="49.76048" lon="4.81394">
        <ele>267</ele>
        <time>2022-08-19T10:02:47.000Z</time>
      </trkpt>
      <trkpt lat="49.76042" lon="4.81391">
        <ele>267</ele>
        <time>2022-08-19T10:02:48.000Z</time>
      </trkpt>
      <trkpt lat="49.76037" lon="4.81387">
        <ele>267</ele>
        <time>2022-08-19T10:02:49.000Z</time>
      </trkpt>
      <trkpt lat="49.76031" lon="4.81384">
        <ele>267</ele>
        <time>2022-08-19T10:02:50.000Z</time>
      </trkpt>
      <trkpt lat="49.76026" lon="4.81381">
        <ele>267</ele>
        <time>2022-08-19T10:02:51.000Z</time>
      </trkpt>
      <trkpt lat="49.76021" lon="4.81378">
        <ele>267</ele>
        <time>2022-08-19T10:02:52.000Z</time>
      </trkpt>
      <trkpt lat="49.76016" lon="4.81375">
        <ele>267</ele>
        <time>2022-08-19T10:02:53.000Z</time>
      </trkpt>
      <trkpt lat="49.76011" lon="4.81372">
        <ele>267</ele>
        <time>2022-08-19T10:02:54.000Z</time>
      </trkpt>
      <trkpt lat="49.76005" lon="4.81369">
        <ele>267</ele>
        <time>2022-08-19T10:02:55.000Z</time>
      </trkpt>
      <trkpt lat="49.76" lon="4.81365">
        <ele>267</ele>
        <time>2022-08-19T10:02:56.000Z</time>
      </trkpt>
      <trkpt lat="49.75994" lon="4.81362">
        <ele>267</ele>
        <time>2022-08-19T10:02:57.000Z</time>
      </trkpt>
      <trkpt lat="49.75988" lon="4.81359">
        <ele>267</ele>
        <time>2022-08-19T10:02:58.000Z</time>
      </trkpt>
      <trkpt lat="49.75983" lon="4.81356">
        <ele>267</ele>
        <time>2022-08-19T10:02:59.000Z</time>
      </trkpt>
      <trkpt lat="49.75976" lon="4.81354">
        <ele>266</ele>
        <time>2022-08-19T10:03:00.000Z</time>
      </trkpt>
      <trkpt lat="49.7597" lon="4.81352">
        <ele>266</ele>
        <time>2022-08-19T10:03:01.000Z</time>
      </trkpt>
      <trkpt lat="49.75964" lon="4.81351">
        <ele>266</ele>
        <time>2022-08-19T10:03:02.000Z</time>
      </trkpt>
      <trkpt lat="49.75959" lon="4.81349">
        <ele>266</ele>
        <time>2022-08-19T10:03:03.000Z</time>
      </trkpt>
      <trkpt lat="49.75953" lon="4.81347">
        <ele>266</ele>
        <time>2022-08-19T10:03:04.000Z</time>
      </trkpt>
      <trkpt lat="49.75946" lon="4.81344">
        <ele>266</ele>
        <time>2022-08-19T10:03:05.000Z</time>
      </trkpt>
      <trkpt lat="49.7594" lon="4.81341">
        <ele>266</ele>
        <time>2022-08-19T10:03:06.000Z</time>
      </trkpt>
      <trkpt lat="49.75934" lon="4.81338">
        <ele>266</ele>
        <time>2022-08-19T10:03:07.000Z</time>
      </trkpt>
      <trkpt lat="49.75928" lon="4.81337">
        <ele>265</ele>
        <time>2022-08-19T10:03:08.000Z</time>
      </trkpt>
      <trkpt lat="49.75922" lon="4.81335">
        <ele>265</ele>
        <time>2022-08-19T10:03:09.000Z</time>
      </trkpt>
      <trkpt lat="49.75916" lon="4.81334">
        <ele>265</ele>
        <time>2022-08-19T10:03:10.000Z</time>
      </trkpt>
      <trkpt lat="49.75909" lon="4.81333">
        <ele>265</ele>
        <time>2022-08-19T10:03:11.000Z</time>
      </trkpt>
      <trkpt lat="49.75903" lon="4.81335">
        <ele>265</ele>
        <time>2022-08-19T10:03:12.000Z</time>
      </trkpt>
      <trkpt lat="49.75897" lon="4.81335">
        <ele>265</ele>
        <time>2022-08-19T10:03:13.000Z</time>
      </trkpt>
      <trkpt lat="49.7589" lon="4.81337">
        <ele>264</ele>
        <time>2022-08-19T10:03:14.000Z</time>
      </trkpt>
      <trkpt lat="49.75884" lon="4.8134">
        <ele>264</ele>
        <time>2022-08-19T10:03:15.000Z</time>
      </trkpt>
      <trkpt lat="49.75877" lon="4.81343">
        <ele>264</ele>
        <time>2022-08-19T10:03:16.000Z</time>
      </trkpt>
      <trkpt lat="49.75871" lon="4.81346">
        <ele>264</ele>
        <time>2022-08-19T10:03:17.000Z</time>
      </trkpt>
      <trkpt lat="49.75865" lon="4.81349">
        <ele>263</ele>
        <time>2022-08-19T10:03:18.000Z</time>
      </trkpt>
      <trkpt lat="49.75859" lon="4.81352">
        <ele>263</ele>
        <time>2022-08-19T10:03:19.000Z</time>
      </trkpt>
      <trkpt lat="49.75853" lon="4.81355">
        <ele>263</ele>
        <time>2022-08-19T10:03:20.000Z</time>
      </trkpt>
      <trkpt lat="49.75848" lon="4.81359">
        <ele>262</ele>
        <time>2022-08-19T10:03:21.000Z</time>
      </trkpt>
      <trkpt lat="49.75842" lon="4.81364">
        <ele>262</ele>
        <time>2022-08-19T10:03:22.000Z</time>
      </trkpt>
      <trkpt lat="49.75837" lon="4.81369">
        <ele>262</ele>
        <time>2022-08-19T10:03:23.000Z</time>
      </trkpt>
      <trkpt lat="49.75832" lon="4.81375">
        <ele>261</ele>
        <time>2022-08-19T10:03:24.000Z</time>
      </trkpt>
      <trkpt lat="49.75827" lon="4.81382">
        <ele>261</ele>
        <time>2022-08-19T10:03:25.000Z</time>
      </trkpt>
      <trkpt lat="49.75822" lon="4.81389">
        <ele>261</ele>
        <time>2022-08-19T10:03:26.000Z</time>
      </trkpt>
      <trkpt lat="49.75817" lon="4.81396">
        <ele>260</ele>
        <time>2022-08-19T10:03:27.000Z</time>
      </trkpt>
      <trkpt lat="49.75811" lon="4.81403">
        <ele>260</ele>
        <time>2022-08-19T10:03:28.000Z</time>
      </trkpt>
      <trkpt lat="49.75805" lon="4.8141">
        <ele>259</ele>
        <time>2022-08-19T10:03:29.000Z</time>
      </trkpt>
      <trkpt lat="49.75799" lon="4.81417">
        <ele>259</ele>
        <time>2022-08-19T10:03:30.000Z</time>
      </trkpt>
      <trkpt lat="49.75793" lon="4.81423">
        <ele>258</ele>
        <time>2022-08-19T10:03:31.000Z</time>
      </trkpt>
      <trkpt lat="49.75786" lon="4.81429">
        <ele>258</ele>
        <time>2022-08-19T10:03:32.000Z</time>
      </trkpt>
      <trkpt lat="49.7578" lon="4.81434">
        <ele>257</ele>
        <time>2022-08-19T10:03:33.000Z</time>
      </trkpt>
      <trkpt lat="49.75774" lon="4.81438">
        <ele>257</ele>
        <time>2022-08-19T10:03:34.000Z</time>
      </trkpt>
      <trkpt lat="49.75768" lon="4.81443">
        <ele>257</ele>
        <time>2022-08-19T10:03:35.000Z</time>
      </trkpt>
      <trkpt lat="49.75762" lon="4.81448">
        <ele>256</ele>
        <time>2022-08-19T10:03:36.000Z</time>
      </trkpt>
      <trkpt lat="49.75756" lon="4.81453">
        <ele>256</ele>
        <time>2022-08-19T10:03:37.000Z</time>
      </trkpt>
      <trkpt lat="49.7575" lon="4.81456">
        <ele>256</ele>
        <time>2022-08-19T10:03:38.000Z</time>
      </trkpt>
      <trkpt lat="49.75743" lon="4.81459">
        <ele>256</ele>
        <time>2022-08-19T10:03:39.000Z</time>
      </trkpt>
      <trkpt lat="49.75737" lon="4.81462">
        <ele>256</ele>
        <time>2022-08-19T10:03:40.000Z</time>
      </trkpt>
      <trkpt lat="49.75731" lon="4.81465">
        <ele>255</ele>
        <time>2022-08-19T10:03:41.000Z</time>
      </trkpt>
      <trkpt lat="49.75726" lon="4.81466">
        <ele>255</ele>
        <time>2022-08-19T10:03:42.000Z</time>
      </trkpt>
      <trkpt lat="49.7572" lon="4.81467">
        <ele>255</ele>
        <time>2022-08-19T10:03:43.000Z</time>
      </trkpt>
      <trkpt lat="49.75715" lon="4.81469">
        <ele>254</ele>
        <time>2022-08-19T10:03:44.000Z</time>
      </trkpt>
      <trkpt lat="49.7571" lon="4.81471">
        <ele>254</ele>
        <time>2022-08-19T10:03:45.000Z</time>
      </trkpt>
      <trkpt lat="49.75705" lon="4.81474">
        <ele>254</ele>
        <time>2022-08-19T10:03:46.000Z</time>
      </trkpt>
      <trkpt lat="49.757" lon="4.81476">
        <ele>254</ele>
        <time>2022-08-19T10:03:47.000Z</time>
      </trkpt>
      <trkpt lat="49.75695" lon="4.81478">
        <ele>253</ele>
        <time>2022-08-19T10:03:48.000Z</time>
      </trkpt>
      <trkpt lat="49.75689" lon="4.8148">
        <ele>253</ele>
        <time>2022-08-19T10:03:49.000Z</time>
      </trkpt>
      <trkpt lat="49.75684" lon="4.81483">
        <ele>253</ele>
        <time>2022-08-19T10:03:50.000Z</time>
      </trkpt>
      <trkpt lat="49.75678" lon="4.81485">
        <ele>252</ele>
        <time>2022-08-19T10:03:51.000Z</time>
      </trkpt>
      <trkpt lat="49.75672" lon="4.81487">
        <ele>252</ele>
        <time>2022-08-19T10:03:52.000Z</time>
      </trkpt>
      <trkpt lat="49.75666" lon="4.8149">
        <ele>251</ele>
        <time>2022-08-19T10:03:53.000Z</time>
      </trkpt>
      <trkpt lat="49.75659" lon="4.81492">
        <ele>251</ele>
        <time>2022-08-19T10:03:54.000Z</time>
      </trkpt>
      <trkpt lat="49.75652" lon="4.81495">
        <ele>250</ele>
        <time>2022-08-19T10:03:55.000Z</time>
      </trkpt>
      <trkpt lat="49.75645" lon="4.81496">
        <ele>250</ele>
        <time>2022-08-19T10:03:56.000Z</time>
      </trkpt>
      <trkpt lat="49.75639" lon="4.81499">
        <ele>249</ele>
        <time>2022-08-19T10:03:57.000Z</time>
      </trkpt>
      <trkpt lat="49.75632" lon="4.81503">
        <ele>249</ele>
        <time>2022-08-19T10:03:58.000Z</time>
      </trkpt>
      <trkpt lat="49.75625" lon="4.81507">
        <ele>248</ele>
        <time>2022-08-19T10:03:59.000Z</time>
      </trkpt>
      <trkpt lat="49.75619" lon="4.8151">
        <ele>248</ele>
        <time>2022-08-19T10:04:00.000Z</time>
      </trkpt>
      <trkpt lat="49.75612" lon="4.81514">
        <ele>247</ele>
        <time>2022-08-19T10:04:01.000Z</time>
      </trkpt>
      <trkpt lat="49.75606" lon="4.8152">
        <ele>247</ele>
        <time>2022-08-19T10:04:02.000Z</time>
      </trkpt>
      <trkpt lat="49.756" lon="4.81525">
        <ele>246</ele>
        <time>2022-08-19T10:04:03.000Z</time>
      </trkpt>
      <trkpt lat="49.75594" lon="4.81531">
        <ele>245</ele>
        <time>2022-08-19T10:04:04.000Z</time>
      </trkpt>
      <trkpt lat="49.75588" lon="4.81536">
        <ele>245</ele>
        <time>2022-08-19T10:04:05.000Z</time>
      </trkpt>
      <trkpt lat="49.75583" lon="4.81541">
        <ele>244</ele>
        <time>2022-08-19T10:04:06.000Z</time>
      </trkpt>
      <trkpt lat="49.75577" lon="4.81547">
        <ele>243</ele>
        <time>2022-08-19T10:04:07.000Z</time>
      </trkpt>
      <trkpt lat="49.75572" lon="4.81553">
        <ele>243</ele>
        <time>2022-08-19T10:04:08.000Z</time>
      </trkpt>
      <trkpt lat="49.75567" lon="4.81559">
        <ele>242</ele>
        <time>2022-08-19T10:04:09.000Z</time>
      </trkpt>
      <trkpt lat="49.75562" lon="4.81564">
        <ele>242</ele>
        <time>2022-08-19T10:04:10.000Z</time>
      </trkpt>
      <trkpt lat="49.75557" lon="4.81571">
        <ele>241</ele>
        <time>2022-08-19T10:04:11.000Z</time>
      </trkpt>
      <trkpt lat="49.75552" lon="4.81577">
        <ele>241</ele>
        <time>2022-08-19T10:04:12.000Z</time>
      </trkpt>
      <trkpt lat="49.75548" lon="4.81585">
        <ele>240</ele>
        <time>2022-08-19T10:04:13.000Z</time>
      </trkpt>
      <trkpt lat="49.75544" lon="4.81592">
        <ele>240</ele>
        <time>2022-08-19T10:04:14.000Z</time>
      </trkpt>
      <trkpt lat="49.75539" lon="4.81599">
        <ele>239</ele>
        <time>2022-08-19T10:04:15.000Z</time>
      </trkpt>
      <trkpt lat="49.75534" lon="4.81606">
        <ele>239</ele>
        <time>2022-08-19T10:04:16.000Z</time>
      </trkpt>
      <trkpt lat="49.75528" lon="4.81611">
        <ele>239</ele>
        <time>2022-08-19T10:04:17.000Z</time>
      </trkpt>
      <trkpt lat="49.75522" lon="4.81617">
        <ele>239</ele>
        <time>2022-08-19T10:04:18.000Z</time>
      </trkpt>
      <trkpt lat="49.75516" lon="4.81622">
        <ele>238</ele>
        <time>2022-08-19T10:04:19.000Z</time>
      </trkpt>
      <trkpt lat="49.7551" lon="4.81628">
        <ele>238</ele>
        <time>2022-08-19T10:04:20.000Z</time>
      </trkpt>
      <trkpt lat="49.75504" lon="4.81634">
        <ele>238</ele>
        <time>2022-08-19T10:04:21.000Z</time>
      </trkpt>
      <trkpt lat="49.75498" lon="4.81641">
        <ele>238</ele>
        <time>2022-08-19T10:04:22.000Z</time>
      </trkpt>
      <trkpt lat="49.75491" lon="4.81647">
        <ele>238</ele>
        <time>2022-08-19T10:04:23.000Z</time>
      </trkpt>
      <trkpt lat="49.75485" lon="4.81653">
        <ele>237</ele>
        <time>2022-08-19T10:04:24.000Z</time>
      </trkpt>
      <trkpt lat="49.75477" lon="4.81658">
        <ele>237</ele>
        <time>2022-08-19T10:04:25.000Z</time>
      </trkpt>
      <trkpt lat="49.75469" lon="4.81661">
        <ele>237</ele>
        <time>2022-08-19T10:04:26.000Z</time>
      </trkpt>
      <trkpt lat="49.75461" lon="4.81664">
        <ele>236</ele>
        <time>2022-08-19T10:04:27.000Z</time>
      </trkpt>
      <trkpt lat="49.75453" lon="4.81669">
        <ele>236</ele>
        <time>2022-08-19T10:04:28.000Z</time>
      </trkpt>
      <trkpt lat="49.75445" lon="4.81675">
        <ele>235</ele>
        <time>2022-08-19T10:04:29.000Z</time>
      </trkpt>
      <trkpt lat="49.75437" lon="4.81681">
        <ele>234</ele>
        <time>2022-08-19T10:04:30.000Z</time>
      </trkpt>
      <trkpt lat="49.75429" lon="4.81686">
        <ele>234</ele>
        <time>2022-08-19T10:04:31.000Z</time>
      </trkpt>
      <trkpt lat="49.75421" lon="4.81692">
        <ele>233</ele>
        <time>2022-08-19T10:04:32.000Z</time>
      </trkpt>
      <trkpt lat="49.75412" lon="4.81697">
        <ele>232</ele>
        <time>2022-08-19T10:04:33.000Z</time>
      </trkpt>
      <trkpt lat="49.75403" lon="4.81701">
        <ele>232</ele>
        <time>2022-08-19T10:04:34.000Z</time>
      </trkpt>
      <trkpt lat="49.75395" lon="4.81707">
        <ele>231</ele>
        <time>2022-08-19T10:04:35.000Z</time>
      </trkpt>
      <trkpt lat="49.75387" lon="4.81714">
        <ele>231</ele>
        <time>2022-08-19T10:04:36.000Z</time>
      </trkpt>
      <trkpt lat="49.75379" lon="4.81722">
        <ele>230</ele>
        <time>2022-08-19T10:04:37.000Z</time>
      </trkpt>
      <trkpt lat="49.75372" lon="4.8173">
        <ele>229</ele>
        <time>2022-08-19T10:04:38.000Z</time>
      </trkpt>
      <trkpt lat="49.75365" lon="4.81736">
        <ele>228</ele>
        <time>2022-08-19T10:04:39.000Z</time>
      </trkpt>
      <trkpt lat="49.75358" lon="4.81743">
        <ele>226</ele>
        <time>2022-08-19T10:04:40.000Z</time>
      </trkpt>
      <trkpt lat="49.75351" lon="4.81747">
        <ele>225</ele>
        <time>2022-08-19T10:04:41.000Z</time>
      </trkpt>
      <trkpt lat="49.75344" lon="4.81751">
        <ele>224</ele>
        <time>2022-08-19T10:04:42.000Z</time>
      </trkpt>
      <trkpt lat="49.75337" lon="4.81753">
        <ele>224</ele>
        <time>2022-08-19T10:04:43.000Z</time>
      </trkpt>
      <trkpt lat="49.7533" lon="4.81754">
        <ele>223</ele>
        <time>2022-08-19T10:04:44.000Z</time>
      </trkpt>
      <trkpt lat="49.75324" lon="4.81755">
        <ele>222</ele>
        <time>2022-08-19T10:04:45.000Z</time>
      </trkpt>
      <trkpt lat="49.75316" lon="4.81756">
        <ele>222</ele>
        <time>2022-08-19T10:04:46.000Z</time>
      </trkpt>
      <trkpt lat="49.7531" lon="4.81757">
        <ele>221</ele>
        <time>2022-08-19T10:04:47.000Z</time>
      </trkpt>
      <trkpt lat="49.75304" lon="4.81759">
        <ele>221</ele>
        <time>2022-08-19T10:04:48.000Z</time>
      </trkpt>
      <trkpt lat="49.75297" lon="4.8176">
        <ele>221</ele>
        <time>2022-08-19T10:04:49.000Z</time>
      </trkpt>
      <trkpt lat="49.7529" lon="4.81761">
        <ele>220</ele>
        <time>2022-08-19T10:04:50.000Z</time>
      </trkpt>
      <trkpt lat="49.75283" lon="4.81761">
        <ele>220</ele>
        <time>2022-08-19T10:04:51.000Z</time>
      </trkpt>
      <trkpt lat="49.75275" lon="4.8176">
        <ele>219</ele>
        <time>2022-08-19T10:04:52.000Z</time>
      </trkpt>
      <trkpt lat="49.75267" lon="4.81756">
        <ele>219</ele>
        <time>2022-08-19T10:04:53.000Z</time>
      </trkpt>
      <trkpt lat="49.7526" lon="4.81752">
        <ele>218</ele>
        <time>2022-08-19T10:04:54.000Z</time>
      </trkpt>
      <trkpt lat="49.75252" lon="4.81747">
        <ele>218</ele>
        <time>2022-08-19T10:04:55.000Z</time>
      </trkpt>
      <trkpt lat="49.75245" lon="4.81742">
        <ele>217</ele>
        <time>2022-08-19T10:04:56.000Z</time>
      </trkpt>
      <trkpt lat="49.75238" lon="4.81737">
        <ele>216</ele>
        <time>2022-08-19T10:04:57.000Z</time>
      </trkpt>
      <trkpt lat="49.75231" lon="4.81731">
        <ele>216</ele>
        <time>2022-08-19T10:04:58.000Z</time>
      </trkpt>
      <trkpt lat="49.75224" lon="4.81725">
        <ele>215</ele>
        <time>2022-08-19T10:04:59.000Z</time>
      </trkpt>
      <trkpt lat="49.75218" lon="4.81718">
        <ele>214</ele>
        <time>2022-08-19T10:05:00.000Z</time>
      </trkpt>
      <trkpt lat="49.75211" lon="4.81712">
        <ele>214</ele>
        <time>2022-08-19T10:05:01.000Z</time>
      </trkpt>
      <trkpt lat="49.75205" lon="4.81707">
        <ele>213</ele>
        <time>2022-08-19T10:05:02.000Z</time>
      </trkpt>
      <trkpt lat="49.75198" lon="4.81704">
        <ele>213</ele>
        <time>2022-08-19T10:05:03.000Z</time>
      </trkpt>
      <trkpt lat="49.75191" lon="4.81704">
        <ele>212</ele>
        <time>2022-08-19T10:05:04.000Z</time>
      </trkpt>
      <trkpt lat="49.75184" lon="4.81706">
        <ele>212</ele>
        <time>2022-08-19T10:05:05.000Z</time>
      </trkpt>
      <trkpt lat="49.75177" lon="4.8171">
        <ele>211</ele>
        <time>2022-08-19T10:05:06.000Z</time>
      </trkpt>
      <trkpt lat="49.75171" lon="4.81715">
        <ele>211</ele>
        <time>2022-08-19T10:05:07.000Z</time>
      </trkpt>
      <trkpt lat="49.75165" lon="4.8172">
        <ele>210</ele>
        <time>2022-08-19T10:05:08.000Z</time>
      </trkpt>
      <trkpt lat="49.75159" lon="4.81726">
        <ele>209</ele>
        <time>2022-08-19T10:05:09.000Z</time>
      </trkpt>
      <trkpt lat="49.75153" lon="4.81732">
        <ele>209</ele>
        <time>2022-08-19T10:05:10.000Z</time>
      </trkpt>
      <trkpt lat="49.75148" lon="4.81738">
        <ele>208</ele>
        <time>2022-08-19T10:05:11.000Z</time>
      </trkpt>
      <trkpt lat="49.75144" lon="4.81742">
        <ele>208</ele>
        <time>2022-08-19T10:05:12.000Z</time>
      </trkpt>
      <trkpt lat="49.75141" lon="4.81746">
        <ele>207</ele>
        <time>2022-08-19T10:05:13.000Z</time>
      </trkpt>
      <trkpt lat="49.75137" lon="4.8175">
        <ele>207</ele>
        <time>2022-08-19T10:05:14.000Z</time>
      </trkpt>
      <trkpt lat="49.75136" lon="4.81756">
        <ele>206</ele>
        <time>2022-08-19T10:05:15.000Z</time>
      </trkpt>
      <trkpt lat="49.75137" lon="4.81762">
        <ele>206</ele>
        <time>2022-08-19T10:05:16.000Z</time>
      </trkpt>
      <trkpt lat="49.75139" lon="4.81768">
        <ele>205</ele>
        <time>2022-08-19T10:05:17.000Z</time>
      </trkpt>
      <trkpt lat="49.75142" lon="4.81771">
        <ele>205</ele>
        <time>2022-08-19T10:05:18.000Z</time>
      </trkpt>
      <trkpt lat="49.75144" lon="4.81775">
        <ele>205</ele>
        <time>2022-08-19T10:05:19.000Z</time>
      </trkpt>
      <trkpt lat="49.75147" lon="4.81779">
        <ele>204</ele>
        <time>2022-08-19T10:05:20.000Z</time>
      </trkpt>
      <trkpt lat="49.75149" lon="4.81784">
        <ele>204</ele>
        <time>2022-08-19T10:05:21.000Z</time>
      </trkpt>
      <trkpt lat="49.75151" lon="4.81788">
        <ele>204</ele>
        <time>2022-08-19T10:05:22.000Z</time>
      </trkpt>
      <trkpt lat="49.75154" lon="4.81792">
        <ele>203</ele>
        <time>2022-08-19T10:05:23.000Z</time>
      </trkpt>
      <trkpt lat="49.75156" lon="4.81796">
        <ele>203</ele>
        <time>2022-08-19T10:05:24.000Z</time>
      </trkpt>
      <trkpt lat="49.75159" lon="4.81801">
        <ele>203</ele>
        <time>2022-08-19T10:05:25.000Z</time>
      </trkpt>
      <trkpt lat="49.75162" lon="4.81805">
        <ele>202</ele>
        <time>2022-08-19T10:05:26.000Z</time>
      </trkpt>
      <trkpt lat="49.75165" lon="4.8181">
        <ele>202</ele>
        <time>2022-08-19T10:05:27.000Z</time>
      </trkpt>
      <trkpt lat="49.75168" lon="4.81815">
        <ele>202</ele>
        <time>2022-08-19T10:05:28.000Z</time>
      </trkpt>
      <trkpt lat="49.75172" lon="4.81821">
        <ele>201</ele>
        <time>2022-08-19T10:05:29.000Z</time>
      </trkpt>
      <trkpt lat="49.75175" lon="4.81826">
        <ele>201</ele>
        <time>2022-08-19T10:05:30.000Z</time>
      </trkpt>
      <trkpt lat="49.75178" lon="4.81831">
        <ele>201</ele>
        <time>2022-08-19T10:05:31.000Z</time>
      </trkpt>
      <trkpt lat="49.75182" lon="4.81837">
        <ele>201</ele>
        <time>2022-08-19T10:05:32.000Z</time>
      </trkpt>
      <trkpt lat="49.75185" lon="4.81843">
        <ele>200</ele>
        <time>2022-08-19T10:05:33.000Z</time>
      </trkpt>
      <trkpt lat="49.75189" lon="4.81849">
        <ele>200</ele>
        <time>2022-08-19T10:05:34.000Z</time>
      </trkpt>
      <trkpt lat="49.75192" lon="4.81855">
        <ele>200</ele>
        <time>2022-08-19T10:05:35.000Z</time>
      </trkpt>
      <trkpt lat="49.75196" lon="4.81861">
        <ele>200</ele>
        <time>2022-08-19T10:05:36.000Z</time>
      </trkpt>
      <trkpt lat="49.752" lon="4.81866">
        <ele>199</ele>
        <time>2022-08-19T10:05:37.000Z</time>
      </trkpt>
      <trkpt lat="49.75204" lon="4.81871">
        <ele>199</ele>
        <time>2022-08-19T10:05:38.000Z</time>
      </trkpt>
      <trkpt lat="49.75208" lon="4.81877">
        <ele>199</ele>
        <time>2022-08-19T10:05:39.000Z</time>
      </trkpt>
      <trkpt lat="49.75212" lon="4.81882">
        <ele>199</ele>
        <time>2022-08-19T10:05:40.000Z</time>
      </trkpt>
      <trkpt lat="49.75216" lon="4.81887">
        <ele>199</ele>
        <time>2022-08-19T10:05:41.000Z</time>
      </trkpt>
      <trkpt lat="49.7522" lon="4.81892">
        <ele>199</ele>
        <time>2022-08-19T10:05:42.000Z</time>
      </trkpt>
      <trkpt lat="49.75224" lon="4.81897">
        <ele>198</ele>
        <time>2022-08-19T10:05:43.000Z</time>
      </trkpt>
      <trkpt lat="49.75228" lon="4.81902">
        <ele>198</ele>
        <time>2022-08-19T10:05:44.000Z</time>
      </trkpt>
      <trkpt lat="49.75232" lon="4.81906">
        <ele>198</ele>
        <time>2022-08-19T10:05:45.000Z</time>
      </trkpt>
      <trkpt lat="49.75236" lon="4.8191">
        <ele>198</ele>
        <time>2022-08-19T10:05:46.000Z</time>
      </trkpt>
      <trkpt lat="49.75241" lon="4.81915">
        <ele>198</ele>
        <time>2022-08-19T10:05:47.000Z</time>
      </trkpt>
      <trkpt lat="49.75245" lon="4.8192">
        <ele>198</ele>
        <time>2022-08-19T10:05:48.000Z</time>
      </trkpt>
      <trkpt lat="49.75249" lon="4.81926">
        <ele>197</ele>
        <time>2022-08-19T10:05:49.000Z</time>
      </trkpt>
      <trkpt lat="49.75253" lon="4.81932">
        <ele>197</ele>
        <time>2022-08-19T10:05:50.000Z</time>
      </trkpt>
      <trkpt lat="49.75257" lon="4.81938">
        <ele>197</ele>
        <time>2022-08-19T10:05:51.000Z</time>
      </trkpt>
      <trkpt lat="49.75261" lon="4.81944">
        <ele>197</ele>
        <time>2022-08-19T10:05:52.000Z</time>
      </trkpt>
      <trkpt lat="49.75266" lon="4.81949">
        <ele>197</ele>
        <time>2022-08-19T10:05:53.000Z</time>
      </trkpt>
      <trkpt lat="49.75271" lon="4.81954">
        <ele>197</ele>
        <time>2022-08-19T10:05:54.000Z</time>
      </trkpt>
      <trkpt lat="49.75276" lon="4.81959">
        <ele>196</ele>
        <time>2022-08-19T10:05:55.000Z</time>
      </trkpt>
      <trkpt lat="49.75281" lon="4.81963">
        <ele>196</ele>
        <time>2022-08-19T10:05:56.000Z</time>
      </trkpt>
      <trkpt lat="49.75286" lon="4.81968">
        <ele>196</ele>
        <time>2022-08-19T10:05:57.000Z</time>
      </trkpt>
      <trkpt lat="49.75292" lon="4.81972">
        <ele>196</ele>
        <time>2022-08-19T10:05:58.000Z</time>
      </trkpt>
      <trkpt lat="49.75297" lon="4.81976">
        <ele>195</ele>
        <time>2022-08-19T10:05:59.000Z</time>
      </trkpt>
      <trkpt lat="49.75303" lon="4.8198">
        <ele>195</ele>
        <time>2022-08-19T10:06:00.000Z</time>
      </trkpt>
      <trkpt lat="49.75308" lon="4.81984">
        <ele>195</ele>
        <time>2022-08-19T10:06:01.000Z</time>
      </trkpt>
      <trkpt lat="49.75314" lon="4.81987">
        <ele>194</ele>
        <time>2022-08-19T10:06:02.000Z</time>
      </trkpt>
      <trkpt lat="49.7532" lon="4.81991">
        <ele>194</ele>
        <time>2022-08-19T10:06:03.000Z</time>
      </trkpt>
      <trkpt lat="49.75326" lon="4.81995">
        <ele>194</ele>
        <time>2022-08-19T10:06:04.000Z</time>
      </trkpt>
      <trkpt lat="49.75332" lon="4.81999">
        <ele>194</ele>
        <time>2022-08-19T10:06:05.000Z</time>
      </trkpt>
      <trkpt lat="49.75337" lon="4.82003">
        <ele>193</ele>
        <time>2022-08-19T10:06:06.000Z</time>
      </trkpt>
      <trkpt lat="49.75343" lon="4.82006">
        <ele>193</ele>
        <time>2022-08-19T10:06:07.000Z</time>
      </trkpt>
      <trkpt lat="49.75348" lon="4.8201">
        <ele>193</ele>
        <time>2022-08-19T10:06:08.000Z</time>
      </trkpt>
      <trkpt lat="49.75354" lon="4.82014">
        <ele>193</ele>
        <time>2022-08-19T10:06:09.000Z</time>
      </trkpt>
      <trkpt lat="49.75359" lon="4.82017">
        <ele>192</ele>
        <time>2022-08-19T10:06:10.000Z</time>
      </trkpt>
      <trkpt lat="49.75364" lon="4.8202">
        <ele>192</ele>
        <time>2022-08-19T10:06:11.000Z</time>
      </trkpt>
      <trkpt lat="49.7537" lon="4.82022">
        <ele>192</ele>
        <time>2022-08-19T10:06:12.000Z</time>
      </trkpt>
      <trkpt lat="49.75375" lon="4.82025">
        <ele>192</ele>
        <time>2022-08-19T10:06:13.000Z</time>
      </trkpt>
      <trkpt lat="49.7538" lon="4.82028">
        <ele>192</ele>
        <time>2022-08-19T10:06:14.000Z</time>
      </trkpt>
      <trkpt lat="49.75385" lon="4.82031">
        <ele>192</ele>
        <time>2022-08-19T10:06:15.000Z</time>
      </trkpt>
      <trkpt lat="49.7539" lon="4.82035">
        <ele>192</ele>
        <time>2022-08-19T10:06:16.000Z</time>
      </trkpt>
      <trkpt lat="49.75395" lon="4.82039">
        <ele>192</ele>
        <time>2022-08-19T10:06:17.000Z</time>
      </trkpt>
      <trkpt lat="49.75401" lon="4.82044">
        <ele>191</ele>
        <time>2022-08-19T10:06:18.000Z</time>
      </trkpt>
      <trkpt lat="49.75406" lon="4.82048">
        <ele>191</ele>
        <time>2022-08-19T10:06:19.000Z</time>
      </trkpt>
      <trkpt lat="49.75411" lon="4.82053">
        <ele>191</ele>
        <time>2022-08-19T10:06:20.000Z</time>
      </trkpt>
      <trkpt lat="49.75416" lon="4.82058">
        <ele>191</ele>
        <time>2022-08-19T10:06:21.000Z</time>
      </trkpt>
      <trkpt lat="49.75421" lon="4.82063">
        <ele>191</ele>
        <time>2022-08-19T10:06:22.000Z</time>
      </trkpt>
      <trkpt lat="49.75426" lon="4.82068">
        <ele>191</ele>
        <time>2022-08-19T10:06:23.000Z</time>
      </trkpt>
      <trkpt lat="49.75431" lon="4.82074">
        <ele>191</ele>
        <time>2022-08-19T10:06:24.000Z</time>
      </trkpt>
      <trkpt lat="49.75436" lon="4.82079">
        <ele>191</ele>
        <time>2022-08-19T10:06:25.000Z</time>
      </trkpt>
      <trkpt lat="49.75441" lon="4.82083">
        <ele>190</ele>
        <time>2022-08-19T10:06:26.000Z</time>
      </trkpt>
      <trkpt lat="49.75445" lon="4.82087">
        <ele>190</ele>
        <time>2022-08-19T10:06:27.000Z</time>
      </trkpt>
      <trkpt lat="49.7545" lon="4.82091">
        <ele>190</ele>
        <time>2022-08-19T10:06:28.000Z</time>
      </trkpt>
      <trkpt lat="49.75454" lon="4.82095">
        <ele>190</ele>
        <time>2022-08-19T10:06:29.000Z</time>
      </trkpt>
      <trkpt lat="49.75459" lon="4.821">
        <ele>190</ele>
        <time>2022-08-19T10:06:30.000Z</time>
      </trkpt>
      <trkpt lat="49.75464" lon="4.82106">
        <ele>190</ele>
        <time>2022-08-19T10:06:31.000Z</time>
      </trkpt>
      <trkpt lat="49.75468" lon="4.82112">
        <ele>189</ele>
        <time>2022-08-19T10:06:32.000Z</time>
      </trkpt>
      <trkpt lat="49.75472" lon="4.82118">
        <ele>189</ele>
        <time>2022-08-19T10:06:33.000Z</time>
      </trkpt>
      <trkpt lat="49.75477" lon="4.82125">
        <ele>189</ele>
        <time>2022-08-19T10:06:34.000Z</time>
      </trkpt>
      <trkpt lat="49.75481" lon="4.82133">
        <ele>189</ele>
        <time>2022-08-19T10:06:35.000Z</time>
      </trkpt>
      <trkpt lat="49.75486" lon="4.8214">
        <ele>189</ele>
        <time>2022-08-19T10:06:36.000Z</time>
      </trkpt>
      <trkpt lat="49.75491" lon="4.82148">
        <ele>188</ele>
        <time>2022-08-19T10:06:37.000Z</time>
      </trkpt>
      <trkpt lat="49.75495" lon="4.82156">
        <ele>188</ele>
        <time>2022-08-19T10:06:38.000Z</time>
      </trkpt>
      <trkpt lat="49.755" lon="4.82163">
        <ele>188</ele>
        <time>2022-08-19T10:06:39.000Z</time>
      </trkpt>
      <trkpt lat="49.75504" lon="4.82171">
        <ele>188</ele>
        <time>2022-08-19T10:06:40.000Z</time>
      </trkpt>
      <trkpt lat="49.75509" lon="4.82179">
        <ele>188</ele>
        <time>2022-08-19T10:06:41.000Z</time>
      </trkpt>
      <trkpt lat="49.75513" lon="4.82187">
        <ele>188</ele>
        <time>2022-08-19T10:06:42.000Z</time>
      </trkpt>
      <trkpt lat="49.75516" lon="4.82196">
        <ele>188</ele>
        <time>2022-08-19T10:06:43.000Z</time>
      </trkpt>
      <trkpt lat="49.7552" lon="4.82204">
        <ele>187</ele>
        <time>2022-08-19T10:06:44.000Z</time>
      </trkpt>
      <trkpt lat="49.75525" lon="4.82211">
        <ele>187</ele>
        <time>2022-08-19T10:06:45.000Z</time>
      </trkpt>
      <trkpt lat="49.75528" lon="4.82219">
        <ele>187</ele>
        <time>2022-08-19T10:06:46.000Z</time>
      </trkpt>
      <trkpt lat="49.75532" lon="4.82227">
        <ele>187</ele>
        <time>2022-08-19T10:06:47.000Z</time>
      </trkpt>
      <trkpt lat="49.75536" lon="4.82235">
        <ele>187</ele>
        <time>2022-08-19T10:06:48.000Z</time>
      </trkpt>
      <trkpt lat="49.7554" lon="4.82243">
        <ele>187</ele>
        <time>2022-08-19T10:06:49.000Z</time>
      </trkpt>
      <trkpt lat="49.75544" lon="4.8225">
        <ele>186</ele>
        <time>2022-08-19T10:06:50.000Z</time>
      </trkpt>
      <trkpt lat="49.75546" lon="4.82258">
        <ele>186</ele>
        <time>2022-08-19T10:06:51.000Z</time>
      </trkpt>
      <trkpt lat="49.75547" lon="4.82266">
        <ele>186</ele>
        <time>2022-08-19T10:06:52.000Z</time>
      </trkpt>
      <trkpt lat="49.75546" lon="4.82275">
        <ele>186</ele>
        <time>2022-08-19T10:06:53.000Z</time>
      </trkpt>
      <trkpt lat="49.75542" lon="4.8228">
        <ele>186</ele>
        <time>2022-08-19T10:06:54.000Z</time>
      </trkpt>
      <trkpt lat="49.75537" lon="4.82281">
        <ele>186</ele>
        <time>2022-08-19T10:06:55.000Z</time>
      </trkpt>
      <trkpt lat="49.75531" lon="4.82279">
        <ele>186</ele>
        <time>2022-08-19T10:06:56.000Z</time>
      </trkpt>
      <trkpt lat="49.75525" lon="4.82276">
        <ele>186</ele>
        <time>2022-08-19T10:06:57.000Z</time>
      </trkpt>
      <trkpt lat="49.75519" lon="4.82273">
        <ele>185</ele>
        <time>2022-08-19T10:06:58.000Z</time>
      </trkpt>
      <trkpt lat="49.75513" lon="4.82271">
        <ele>185</ele>
        <time>2022-08-19T10:06:59.000Z</time>
      </trkpt>
      <trkpt lat="49.75507" lon="4.82268">
        <ele>185</ele>
        <time>2022-08-19T10:07:00.000Z</time>
      </trkpt>
      <trkpt lat="49.755" lon="4.82264">
        <ele>185</ele>
        <time>2022-08-19T10:07:01.000Z</time>
      </trkpt>
      <trkpt lat="49.75494" lon="4.8226">
        <ele>185</ele>
        <time>2022-08-19T10:07:02.000Z</time>
      </trkpt>
      <trkpt lat="49.75488" lon="4.82255">
        <ele>185</ele>
        <time>2022-08-19T10:07:03.000Z</time>
      </trkpt>
      <trkpt lat="49.75482" lon="4.82249">
        <ele>185</ele>
        <time>2022-08-19T10:07:04.000Z</time>
      </trkpt>
      <trkpt lat="49.75476" lon="4.82243">
        <ele>185</ele>
        <time>2022-08-19T10:07:05.000Z</time>
      </trkpt>
      <trkpt lat="49.75471" lon="4.82237">
        <ele>185</ele>
        <time>2022-08-19T10:07:06.000Z</time>
      </trkpt>
      <trkpt lat="49.75465" lon="4.82231">
        <ele>185</ele>
        <time>2022-08-19T10:07:07.000Z</time>
      </trkpt>
      <trkpt lat="49.75459" lon="4.82227">
        <ele>185</ele>
        <time>2022-08-19T10:07:08.000Z</time>
      </trkpt>
      <trkpt lat="49.75453" lon="4.82223">
        <ele>185</ele>
        <time>2022-08-19T10:07:09.000Z</time>
      </trkpt>
      <trkpt lat="49.75448" lon="4.82219">
        <ele>185</ele>
        <time>2022-08-19T10:07:10.000Z</time>
      </trkpt>
      <trkpt lat="49.75442" lon="4.82216">
        <ele>185</ele>
        <time>2022-08-19T10:07:11.000Z</time>
      </trkpt>
      <trkpt lat="49.75436" lon="4.82212">
        <ele>185</ele>
        <time>2022-08-19T10:07:12.000Z</time>
      </trkpt>
      <trkpt lat="49.7543" lon="4.82209">
        <ele>185</ele>
        <time>2022-08-19T10:07:13.000Z</time>
      </trkpt>
      <trkpt lat="49.75424" lon="4.82206">
        <ele>185</ele>
        <time>2022-08-19T10:07:14.000Z</time>
      </trkpt>
      <trkpt lat="49.75418" lon="4.82203">
        <ele>185</ele>
        <time>2022-08-19T10:07:15.000Z</time>
      </trkpt>
      <trkpt lat="49.75412" lon="4.82201">
        <ele>185</ele>
        <time>2022-08-19T10:07:16.000Z</time>
      </trkpt>
      <trkpt lat="49.75406" lon="4.82198">
        <ele>185</ele>
        <time>2022-08-19T10:07:17.000Z</time>
      </trkpt>
      <trkpt lat="49.75401" lon="4.82196">
        <ele>186</ele>
        <time>2022-08-19T10:07:18.000Z</time>
      </trkpt>
      <trkpt lat="49.75396" lon="4.82195">
        <ele>186</ele>
        <time>2022-08-19T10:07:19.000Z</time>
      </trkpt>
      <trkpt lat="49.75391" lon="4.82195">
        <ele>186</ele>
        <time>2022-08-19T10:07:20.000Z</time>
      </trkpt>
      <trkpt lat="49.75386" lon="4.82197">
        <ele>186</ele>
        <time>2022-08-19T10:07:21.000Z</time>
      </trkpt>
      <trkpt lat="49.75382" lon="4.82201">
        <ele>186</ele>
        <time>2022-08-19T10:07:22.000Z</time>
      </trkpt>
      <trkpt lat="49.75378" lon="4.82205">
        <ele>186</ele>
        <time>2022-08-19T10:07:23.000Z</time>
      </trkpt>
      <trkpt lat="49.75376" lon="4.82206">
        <ele>186</ele>
        <time>2022-08-19T10:07:24.000Z</time>
      </trkpt>
      <trkpt lat="49.75376" lon="4.82206">
        <ele>187</ele>
        <time>2022-08-19T10:07:25.000Z</time>
      </trkpt>
      <trkpt lat="49.75376" lon="4.82206">
        <ele>187</ele>
        <time>2022-08-19T10:07:26.000Z</time>
      </trkpt>
    </trkseg>
  </trk>
</gpx>